<?xml version="1.0" encoding="UTF-8" ?>
<gpx version="1.1" 
creator="Memory-Map 6.4.3.1278 https://memory-map.com"
 xmlns:xsi="http://www.w3.org/2001/XMLSchema-instance"
 xmlns="http://www.topografix.com/GPX/1/1"
 xmlns:xstyle="http://www.topografix.com/GPX/gpx_style/0/2"
 xmlns:xgarmin="http://www.garmin.com/xmlschemas/GpxExtensions/v3"
 xsi:schemaLocation="http://www.topografix.com/GPX/1/1 http://www.topografix.com/GPX/1/1/gpx.xsd http://www.topografix.com/GPX/gpx_style/0/2 http://www.topografix.com/GPX/gpx_style/0/2/gpx_style.xsd http://www.garmin.com/xmlschemas/GpxExtensions/v3 https://www8.garmin.com/xmlschemas/GpxExtensionsv3.xsd">
<trk>
<name>1450 Le Monné</name>
<src>mmid:5BFAC5533099EA5C</src>
<type>Track</type>
<extensions> <xstyle:line>
<xstyle:color>0000ff</xstyle:color>
<xstyle:opacity>1.0</xstyle:opacity>
<xstyle:width>2.0</xstyle:width>
<xstyle:pattern>Solid</xstyle:pattern>
</xstyle:line></extensions>
<trkseg>
<trkpt lat="43.0598100000" lon="0.1455520000"><ele>566</ele><time>2026-03-18T06:58:49Z</time></trkpt>
<trkpt lat="43.0598100000" lon="0.1455520000"><ele>566</ele></trkpt>
<trkpt lat="43.0598270000" lon="0.1455370000"><ele>566</ele><time>2026-03-18T06:58:54Z</time></trkpt>
<trkpt lat="43.0598370000" lon="0.1455020000"><ele>565</ele><time>2026-03-18T06:58:59Z</time></trkpt>
<trkpt lat="43.0598470000" lon="0.1454720000"><ele>565</ele><time>2026-03-18T06:59:01Z</time></trkpt>
<trkpt lat="43.0598550000" lon="0.1454500000"><ele>565</ele><time>2026-03-18T06:59:03Z</time></trkpt>
<trkpt lat="43.0598620000" lon="0.1454170000"><ele>565</ele><time>2026-03-18T06:59:06Z</time></trkpt>
<trkpt lat="43.0598720000" lon="0.1453950000"><ele>565</ele><time>2026-03-18T06:59:08Z</time></trkpt>
<trkpt lat="43.0598750000" lon="0.1453620000"><ele>565</ele><time>2026-03-18T06:59:11Z</time></trkpt>
<trkpt lat="43.0598820000" lon="0.1453320000"><ele>565</ele><time>2026-03-18T06:59:14Z</time></trkpt>
<trkpt lat="43.0598970000" lon="0.1453020000"><ele>566</ele><time>2026-03-18T06:59:23Z</time></trkpt>
<trkpt lat="43.0599170000" lon="0.1453050000"><ele>566</ele><time>2026-03-18T06:59:29Z</time></trkpt>
<trkpt lat="43.0599200000" lon="0.1452700000"><ele>567</ele><time>2026-03-18T06:59:34Z</time></trkpt>
<trkpt lat="43.0599270000" lon="0.1452450000"><ele>566</ele><time>2026-03-18T06:59:36Z</time></trkpt>
<trkpt lat="43.0599350000" lon="0.1452150000"><ele>567</ele><time>2026-03-18T06:59:39Z</time></trkpt>
<trkpt lat="43.0599450000" lon="0.1451870000"><ele>567</ele><time>2026-03-18T06:59:42Z</time></trkpt>
<trkpt lat="43.0599520000" lon="0.1451600000"><ele>567</ele><time>2026-03-18T06:59:44Z</time></trkpt>
<trkpt lat="43.0599470000" lon="0.1451320000"><ele>567</ele><time>2026-03-18T06:59:46Z</time></trkpt>
<trkpt lat="43.0599500000" lon="0.1451070000"><ele>567</ele><time>2026-03-18T06:59:48Z</time></trkpt>
<trkpt lat="43.0599500000" lon="0.1450780000"><ele>568</ele><time>2026-03-18T06:59:50Z</time></trkpt>
<trkpt lat="43.0599470000" lon="0.1450470000"><ele>568</ele><time>2026-03-18T06:59:52Z</time></trkpt>
<trkpt lat="43.0599470000" lon="0.1450220000"><ele>568</ele><time>2026-03-18T07:00:06Z</time></trkpt>
<trkpt lat="43.0599620000" lon="0.1450020000"><ele>568</ele><time>2026-03-18T07:00:12Z</time></trkpt>
<trkpt lat="43.0599470000" lon="0.1449670000"><ele>569</ele><time>2026-03-18T07:00:17Z</time></trkpt>
<trkpt lat="43.0599500000" lon="0.1449270000"><ele>569</ele><time>2026-03-18T07:00:19Z</time></trkpt>
<trkpt lat="43.0599520000" lon="0.1449020000"><ele>569</ele><time>2026-03-18T07:00:21Z</time></trkpt>
<trkpt lat="43.0599520000" lon="0.1448650000"><ele>570</ele><time>2026-03-18T07:00:24Z</time></trkpt>
<trkpt lat="43.0599550000" lon="0.1448330000"><ele>570</ele><time>2026-03-18T07:00:26Z</time></trkpt>
<trkpt lat="43.0599470000" lon="0.1448020000"><ele>570</ele><time>2026-03-18T07:00:28Z</time></trkpt>
<trkpt lat="43.0599550000" lon="0.1447720000"><ele>570</ele><time>2026-03-18T07:00:30Z</time></trkpt>
<trkpt lat="43.0599550000" lon="0.1447350000"><ele>571</ele><time>2026-03-18T07:00:32Z</time></trkpt>
<trkpt lat="43.0599520000" lon="0.1446970000"><ele>571</ele><time>2026-03-18T07:00:35Z</time></trkpt>
<trkpt lat="43.0599570000" lon="0.1446630000"><ele>571</ele><time>2026-03-18T07:00:37Z</time></trkpt>
<trkpt lat="43.0599620000" lon="0.1446370000"><ele>572</ele><time>2026-03-18T07:00:39Z</time></trkpt>
<trkpt lat="43.0599620000" lon="0.1446050000"><ele>572</ele><time>2026-03-18T07:00:41Z</time></trkpt>
<trkpt lat="43.0599770000" lon="0.1445750000"><ele>572</ele><time>2026-03-18T07:00:44Z</time></trkpt>
<trkpt lat="43.0599970000" lon="0.1445600000"><ele>573</ele><time>2026-03-18T07:00:46Z</time></trkpt>
<trkpt lat="43.0600150000" lon="0.1445420000"><ele>573</ele><time>2026-03-18T07:00:48Z</time></trkpt>
<trkpt lat="43.0600120000" lon="0.1445150000"><ele>573</ele><time>2026-03-18T07:00:51Z</time></trkpt>
<trkpt lat="43.0600170000" lon="0.1444820000"><ele>574</ele><time>2026-03-18T07:00:54Z</time></trkpt>
<trkpt lat="43.0600170000" lon="0.1444500000"><ele>574</ele><time>2026-03-18T07:00:57Z</time></trkpt>
<trkpt lat="43.0600170000" lon="0.1444170000"><ele>574</ele><time>2026-03-18T07:00:59Z</time></trkpt>
<trkpt lat="43.0600220000" lon="0.1443770000"><ele>574</ele><time>2026-03-18T07:01:02Z</time></trkpt>
<trkpt lat="43.0600170000" lon="0.1443470000"><ele>575</ele><time>2026-03-18T07:01:04Z</time></trkpt>
<trkpt lat="43.0600170000" lon="0.1443170000"><ele>575</ele><time>2026-03-18T07:01:07Z</time></trkpt>
<trkpt lat="43.0600220000" lon="0.1442920000"><ele>575</ele><time>2026-03-18T07:01:09Z</time></trkpt>
<trkpt lat="43.0600150000" lon="0.1442530000"><ele>576</ele><time>2026-03-18T07:01:12Z</time></trkpt>
<trkpt lat="43.0600170000" lon="0.1442230000"><ele>576</ele><time>2026-03-18T07:01:15Z</time></trkpt>
<trkpt lat="43.0600220000" lon="0.1441920000"><ele>576</ele><time>2026-03-18T07:01:18Z</time></trkpt>
<trkpt lat="43.0600250000" lon="0.1441670000"><ele>576</ele><time>2026-03-18T07:01:20Z</time></trkpt>
<trkpt lat="43.0600370000" lon="0.1441470000"><ele>577</ele><time>2026-03-18T07:01:22Z</time></trkpt>
<trkpt lat="43.0600420000" lon="0.1441170000"><ele>577</ele><time>2026-03-18T07:01:24Z</time></trkpt>
<trkpt lat="43.0600570000" lon="0.1440770000"><ele>577</ele><time>2026-03-18T07:01:26Z</time></trkpt>
<trkpt lat="43.0600650000" lon="0.1440370000"><ele>577</ele><time>2026-03-18T07:01:28Z</time></trkpt>
<trkpt lat="43.0600720000" lon="0.1440020000"><ele>577</ele><time>2026-03-18T07:01:30Z</time></trkpt>
<trkpt lat="43.0600870000" lon="0.1439780000"><ele>578</ele><time>2026-03-18T07:01:32Z</time></trkpt>
<trkpt lat="43.0601020000" lon="0.1439620000"><ele>578</ele><time>2026-03-18T07:01:34Z</time></trkpt>
<trkpt lat="43.0601170000" lon="0.1439420000"><ele>578</ele><time>2026-03-18T07:01:36Z</time></trkpt>
<trkpt lat="43.0601250000" lon="0.1439120000"><ele>578</ele><time>2026-03-18T07:01:38Z</time></trkpt>
<trkpt lat="43.0601350000" lon="0.1438750000"><ele>578</ele><time>2026-03-18T07:01:40Z</time></trkpt>
<trkpt lat="43.0601470000" lon="0.1438450000"><ele>579</ele><time>2026-03-18T07:01:43Z</time></trkpt>
<trkpt lat="43.0601570000" lon="0.1438170000"><ele>579</ele><time>2026-03-18T07:01:44Z</time></trkpt>
<trkpt lat="43.0601670000" lon="0.1437970000"><ele>579</ele><time>2026-03-18T07:01:46Z</time></trkpt>
<trkpt lat="43.0601720000" lon="0.1437670000"><ele>579</ele><time>2026-03-18T07:01:48Z</time></trkpt>
<trkpt lat="43.0601820000" lon="0.1437420000"><ele>579</ele><time>2026-03-18T07:01:50Z</time></trkpt>
<trkpt lat="43.0601900000" lon="0.1437170000"><ele>580</ele><time>2026-03-18T07:01:56Z</time></trkpt>
<trkpt lat="43.0601800000" lon="0.1436870000"><ele>580</ele><time>2026-03-18T07:01:58Z</time></trkpt>
<trkpt lat="43.0601600000" lon="0.1436620000"><ele>580</ele><time>2026-03-18T07:02:01Z</time></trkpt>
<trkpt lat="43.0601320000" lon="0.1436670000"><ele>580</ele><time>2026-03-18T07:02:04Z</time></trkpt>
<trkpt lat="43.0601570000" lon="0.1436570000"><ele>580</ele><time>2026-03-18T07:02:08Z</time></trkpt>
<trkpt lat="43.0601420000" lon="0.1436720000"><ele>580</ele><time>2026-03-18T07:02:20Z</time></trkpt>
<trkpt lat="43.0601220000" lon="0.1436670000"><ele>580</ele><time>2026-03-18T07:02:22Z</time></trkpt>
<trkpt lat="43.0600970000" lon="0.1436630000"><ele>580</ele><time>2026-03-18T07:02:24Z</time></trkpt>
<trkpt lat="43.0600720000" lon="0.1436630000"><ele>580</ele><time>2026-03-18T07:02:26Z</time></trkpt>
<trkpt lat="43.0600450000" lon="0.1436550000"><ele>581</ele><time>2026-03-18T07:02:28Z</time></trkpt>
<trkpt lat="43.0600220000" lon="0.1436420000"><ele>581</ele><time>2026-03-18T07:02:30Z</time></trkpt>
<trkpt lat="43.0600320000" lon="0.1436630000"><ele>581</ele><time>2026-03-18T07:02:40Z</time></trkpt>
<trkpt lat="43.0600470000" lon="0.1436820000"><ele>581</ele><time>2026-03-18T07:02:49Z</time></trkpt>
<trkpt lat="43.0600500000" lon="0.1437100000"><ele>581</ele><time>2026-03-18T07:02:52Z</time></trkpt>
<trkpt lat="43.0600350000" lon="0.1437350000"><ele>581</ele><time>2026-03-18T07:02:54Z</time></trkpt>
<trkpt lat="43.0600100000" lon="0.1437520000"><ele>581</ele><time>2026-03-18T07:02:56Z</time></trkpt>
<trkpt lat="43.0599870000" lon="0.1437700000"><ele>582</ele><time>2026-03-18T07:02:58Z</time></trkpt>
<trkpt lat="43.0599720000" lon="0.1437900000"><ele>582</ele><time>2026-03-18T07:03:00Z</time></trkpt>
<trkpt lat="43.0599500000" lon="0.1438120000"><ele>582</ele><time>2026-03-18T07:03:02Z</time></trkpt>
<trkpt lat="43.0599320000" lon="0.1438330000"><ele>582</ele><time>2026-03-18T07:03:04Z</time></trkpt>
<trkpt lat="43.0599220000" lon="0.1438670000"><ele>583</ele><time>2026-03-18T07:03:06Z</time></trkpt>
<trkpt lat="43.0599100000" lon="0.1438920000"><ele>583</ele><time>2026-03-18T07:03:08Z</time></trkpt>
<trkpt lat="43.0599070000" lon="0.1439170000"><ele>583</ele><time>2026-03-18T07:03:10Z</time></trkpt>
<trkpt lat="43.0599100000" lon="0.1439470000"><ele>583</ele><time>2026-03-18T07:03:13Z</time></trkpt>
<trkpt lat="43.0599020000" lon="0.1439770000"><ele>584</ele><time>2026-03-18T07:03:16Z</time></trkpt>
<trkpt lat="43.0599020000" lon="0.1440020000"><ele>584</ele><time>2026-03-18T07:03:18Z</time></trkpt>
<trkpt lat="43.0598900000" lon="0.1440400000"><ele>584</ele><time>2026-03-18T07:03:21Z</time></trkpt>
<trkpt lat="43.0598870000" lon="0.1440750000"><ele>585</ele><time>2026-03-18T07:03:24Z</time></trkpt>
<trkpt lat="43.0598820000" lon="0.1441130000"><ele>585</ele><time>2026-03-18T07:03:27Z</time></trkpt>
<trkpt lat="43.0598800000" lon="0.1441450000"><ele>585</ele><time>2026-03-18T07:03:29Z</time></trkpt>
<trkpt lat="43.0598720000" lon="0.1441770000"><ele>586</ele><time>2026-03-18T07:03:32Z</time></trkpt>
<trkpt lat="43.0598720000" lon="0.1442120000"><ele>586</ele><time>2026-03-18T07:03:34Z</time></trkpt>
<trkpt lat="43.0598620000" lon="0.1442420000"><ele>586</ele><time>2026-03-18T07:03:36Z</time></trkpt>
<trkpt lat="43.0598470000" lon="0.1442730000"><ele>586</ele><time>2026-03-18T07:03:38Z</time></trkpt>
<trkpt lat="43.0598420000" lon="0.1443070000"><ele>586</ele><time>2026-03-18T07:03:41Z</time></trkpt>
<trkpt lat="43.0598350000" lon="0.1443320000"><ele>587</ele><time>2026-03-18T07:03:43Z</time></trkpt>
<trkpt lat="43.0598270000" lon="0.1443630000"><ele>587</ele><time>2026-03-18T07:03:46Z</time></trkpt>
<trkpt lat="43.0598200000" lon="0.1443920000"><ele>587</ele><time>2026-03-18T07:03:48Z</time></trkpt>
<trkpt lat="43.0598100000" lon="0.1444120000"><ele>587</ele><time>2026-03-18T07:03:50Z</time></trkpt>
<trkpt lat="43.0597870000" lon="0.1444420000"><ele>587</ele><time>2026-03-18T07:03:53Z</time></trkpt>
<trkpt lat="43.0597750000" lon="0.1444700000"><ele>587</ele><time>2026-03-18T07:03:55Z</time></trkpt>
<trkpt lat="43.0597580000" lon="0.1444870000"><ele>588</ele><time>2026-03-18T07:03:57Z</time></trkpt>
<trkpt lat="43.0597500000" lon="0.1445080000"><ele>588</ele><time>2026-03-18T07:03:59Z</time></trkpt>
<trkpt lat="43.0597420000" lon="0.1445370000"><ele>588</ele><time>2026-03-18T07:04:01Z</time></trkpt>
<trkpt lat="43.0597450000" lon="0.1445620000"><ele>588</ele><time>2026-03-18T07:04:02Z</time></trkpt>
<trkpt lat="43.0597450000" lon="0.1445970000"><ele>588</ele><time>2026-03-18T07:04:04Z</time></trkpt>
<trkpt lat="43.0597400000" lon="0.1446250000"><ele>588</ele><time>2026-03-18T07:04:06Z</time></trkpt>
<trkpt lat="43.0597220000" lon="0.1446570000"><ele>588</ele><time>2026-03-18T07:04:08Z</time></trkpt>
<trkpt lat="43.0597020000" lon="0.1446770000"><ele>588</ele><time>2026-03-18T07:04:10Z</time></trkpt>
<trkpt lat="43.0596770000" lon="0.1446970000"><ele>589</ele><time>2026-03-18T07:04:12Z</time></trkpt>
<trkpt lat="43.0596500000" lon="0.1447020000"><ele>589</ele><time>2026-03-18T07:04:14Z</time></trkpt>
<trkpt lat="43.0596220000" lon="0.1447070000"><ele>589</ele><time>2026-03-18T07:04:16Z</time></trkpt>
<trkpt lat="43.0596030000" lon="0.1447050000"><ele>589</ele><time>2026-03-18T07:04:18Z</time></trkpt>
<trkpt lat="43.0595820000" lon="0.1446820000"><ele>589</ele><time>2026-03-18T07:04:20Z</time></trkpt>
<trkpt lat="43.0595670000" lon="0.1446570000"><ele>589</ele><time>2026-03-18T07:04:22Z</time></trkpt>
<trkpt lat="43.0595470000" lon="0.1446320000"><ele>590</ele><time>2026-03-18T07:04:24Z</time></trkpt>
<trkpt lat="43.0595400000" lon="0.1446070000"><ele>590</ele><time>2026-03-18T07:04:26Z</time></trkpt>
<trkpt lat="43.0595500000" lon="0.1445770000"><ele>590</ele><time>2026-03-18T07:04:28Z</time></trkpt>
<trkpt lat="43.0595470000" lon="0.1445470000"><ele>590</ele><time>2026-03-18T07:04:30Z</time></trkpt>
<trkpt lat="43.0595570000" lon="0.1445220000"><ele>591</ele><time>2026-03-18T07:04:32Z</time></trkpt>
<trkpt lat="43.0595700000" lon="0.1444870000"><ele>591</ele><time>2026-03-18T07:04:35Z</time></trkpt>
<trkpt lat="43.0595820000" lon="0.1444620000"><ele>591</ele><time>2026-03-18T07:04:37Z</time></trkpt>
<trkpt lat="43.0595870000" lon="0.1444350000"><ele>591</ele><time>2026-03-18T07:04:39Z</time></trkpt>
<trkpt lat="43.0595950000" lon="0.1444120000"><ele>591</ele><time>2026-03-18T07:04:41Z</time></trkpt>
<trkpt lat="43.0596070000" lon="0.1443920000"><ele>592</ele><time>2026-03-18T07:04:43Z</time></trkpt>
<trkpt lat="43.0596120000" lon="0.1443670000"><ele>592</ele><time>2026-03-18T07:04:45Z</time></trkpt>
<trkpt lat="43.0596120000" lon="0.1443350000"><ele>592</ele><time>2026-03-18T07:04:47Z</time></trkpt>
<trkpt lat="43.0596150000" lon="0.1443070000"><ele>592</ele><time>2026-03-18T07:04:49Z</time></trkpt>
<trkpt lat="43.0596170000" lon="0.1442820000"><ele>593</ele><time>2026-03-18T07:04:52Z</time></trkpt>
<trkpt lat="43.0596030000" lon="0.1442620000"><ele>593</ele><time>2026-03-18T07:05:25Z</time></trkpt>
<trkpt lat="43.0595920000" lon="0.1442370000"><ele>594</ele><time>2026-03-18T07:05:28Z</time></trkpt>
<trkpt lat="43.0595900000" lon="0.1442070000"><ele>594</ele><time>2026-03-18T07:05:30Z</time></trkpt>
<trkpt lat="43.0595870000" lon="0.1441620000"><ele>594</ele><time>2026-03-18T07:05:32Z</time></trkpt>
<trkpt lat="43.0595820000" lon="0.1441370000"><ele>595</ele><time>2026-03-18T07:05:36Z</time></trkpt>
<trkpt lat="43.0595720000" lon="0.1441130000"><ele>595</ele><time>2026-03-18T07:05:38Z</time></trkpt>
<trkpt lat="43.0595620000" lon="0.1440820000"><ele>595</ele><time>2026-03-18T07:05:40Z</time></trkpt>
<trkpt lat="43.0595650000" lon="0.1440470000"><ele>595</ele><time>2026-03-18T07:05:42Z</time></trkpt>
<trkpt lat="43.0595870000" lon="0.1440300000"><ele>596</ele><time>2026-03-18T07:05:45Z</time></trkpt>
<trkpt lat="43.0596020000" lon="0.1440470000"><ele>596</ele><time>2026-03-18T07:06:16Z</time></trkpt>
<trkpt lat="43.0596200000" lon="0.1440570000"><ele>596</ele><time>2026-03-18T07:06:19Z</time></trkpt>
<trkpt lat="43.0596020000" lon="0.1440600000"><ele>596</ele><time>2026-03-18T07:06:26Z</time></trkpt>
<trkpt lat="43.0595850000" lon="0.1440700000"><ele>596</ele><time>2026-03-18T07:07:54Z</time></trkpt>
<trkpt lat="43.0595650000" lon="0.1440620000"><ele>596</ele><time>2026-03-18T07:07:57Z</time></trkpt>
<trkpt lat="43.0595450000" lon="0.1440300000"><ele>596</ele><time>2026-03-18T07:07:59Z</time></trkpt>
<trkpt lat="43.0595420000" lon="0.1439950000"><ele>597</ele><time>2026-03-18T07:08:01Z</time></trkpt>
<trkpt lat="43.0595320000" lon="0.1439670000"><ele>597</ele><time>2026-03-18T07:08:04Z</time></trkpt>
<trkpt lat="43.0595170000" lon="0.1439470000"><ele>598</ele><time>2026-03-18T07:08:06Z</time></trkpt>
<trkpt lat="43.0595050000" lon="0.1439270000"><ele>598</ele><time>2026-03-18T07:08:08Z</time></trkpt>
<trkpt lat="43.0594870000" lon="0.1439050000"><ele>598</ele><time>2026-03-18T07:08:10Z</time></trkpt>
<trkpt lat="43.0594720000" lon="0.1438750000"><ele>599</ele><time>2026-03-18T07:08:13Z</time></trkpt>
<trkpt lat="43.0594570000" lon="0.1438470000"><ele>600</ele><time>2026-03-18T07:08:16Z</time></trkpt>
<trkpt lat="43.0594420000" lon="0.1438120000"><ele>600</ele><time>2026-03-18T07:08:19Z</time></trkpt>
<trkpt lat="43.0594270000" lon="0.1437950000"><ele>600</ele><time>2026-03-18T07:08:21Z</time></trkpt>
<trkpt lat="43.0594170000" lon="0.1437670000"><ele>601</ele><time>2026-03-18T07:08:24Z</time></trkpt>
<trkpt lat="43.0594100000" lon="0.1437420000"><ele>602</ele><time>2026-03-18T07:08:27Z</time></trkpt>
<trkpt lat="43.0594070000" lon="0.1437120000"><ele>602</ele><time>2026-03-18T07:08:30Z</time></trkpt>
<trkpt lat="43.0594020000" lon="0.1436850000"><ele>603</ele><time>2026-03-18T07:08:33Z</time></trkpt>
<trkpt lat="43.0594120000" lon="0.1436550000"><ele>603</ele><time>2026-03-18T07:08:37Z</time></trkpt>
<trkpt lat="43.0594220000" lon="0.1436300000"><ele>604</ele><time>2026-03-18T07:08:41Z</time></trkpt>
<trkpt lat="43.0594420000" lon="0.1436070000"><ele>604</ele><time>2026-03-18T07:08:44Z</time></trkpt>
<trkpt lat="43.0594650000" lon="0.1436020000"><ele>605</ele><time>2026-03-18T07:08:50Z</time></trkpt>
<trkpt lat="43.0594820000" lon="0.1435870000"><ele>605</ele><time>2026-03-18T07:08:52Z</time></trkpt>
<trkpt lat="43.0595000000" lon="0.1435700000"><ele>606</ele><time>2026-03-18T07:08:55Z</time></trkpt>
<trkpt lat="43.0595170000" lon="0.1435450000"><ele>606</ele><time>2026-03-18T07:08:58Z</time></trkpt>
<trkpt lat="43.0595320000" lon="0.1435170000"><ele>606</ele><time>2026-03-18T07:09:01Z</time></trkpt>
<trkpt lat="43.0595470000" lon="0.1434820000"><ele>607</ele><time>2026-03-18T07:09:04Z</time></trkpt>
<trkpt lat="43.0595520000" lon="0.1434520000"><ele>607</ele><time>2026-03-18T07:09:06Z</time></trkpt>
<trkpt lat="43.0595620000" lon="0.1434180000"><ele>607</ele><time>2026-03-18T07:09:08Z</time></trkpt>
<trkpt lat="43.0595620000" lon="0.1433870000"><ele>608</ele><time>2026-03-18T07:09:11Z</time></trkpt>
<trkpt lat="43.0595720000" lon="0.1433550000"><ele>608</ele><time>2026-03-18T07:09:13Z</time></trkpt>
<trkpt lat="43.0595920000" lon="0.1433700000"><ele>608</ele><time>2026-03-18T07:09:18Z</time></trkpt>
<trkpt lat="43.0596030000" lon="0.1433880000"><ele>608</ele><time>2026-03-18T07:09:21Z</time></trkpt>
<trkpt lat="43.0596000000" lon="0.1433650000"><ele>609</ele><time>2026-03-18T07:10:12Z</time></trkpt>
<trkpt lat="43.0596200000" lon="0.1433450000"><ele>609</ele><time>2026-03-18T07:10:14Z</time></trkpt>
<trkpt lat="43.0596420000" lon="0.1433300000"><ele>609</ele><time>2026-03-18T07:10:16Z</time></trkpt>
<trkpt lat="43.0596650000" lon="0.1433000000"><ele>609</ele><time>2026-03-18T07:10:18Z</time></trkpt>
<trkpt lat="43.0596820000" lon="0.1432870000"><ele>609</ele><time>2026-03-18T07:10:20Z</time></trkpt>
<trkpt lat="43.0596970000" lon="0.1432700000"><ele>609</ele><time>2026-03-18T07:10:22Z</time></trkpt>
<trkpt lat="43.0597150000" lon="0.1432480000"><ele>610</ele><time>2026-03-18T07:10:24Z</time></trkpt>
<trkpt lat="43.0597370000" lon="0.1432270000"><ele>610</ele><time>2026-03-18T07:10:27Z</time></trkpt>
<trkpt lat="43.0597570000" lon="0.1432000000"><ele>610</ele><time>2026-03-18T07:10:30Z</time></trkpt>
<trkpt lat="43.0597720000" lon="0.1431820000"><ele>610</ele><time>2026-03-18T07:10:32Z</time></trkpt>
<trkpt lat="43.0597920000" lon="0.1431670000"><ele>611</ele><time>2026-03-18T07:10:35Z</time></trkpt>
<trkpt lat="43.0598150000" lon="0.1431620000"><ele>611</ele><time>2026-03-18T07:10:39Z</time></trkpt>
<trkpt lat="43.0598420000" lon="0.1431550000"><ele>612</ele><time>2026-03-18T07:10:42Z</time></trkpt>
<trkpt lat="43.0598570000" lon="0.1431380000"><ele>612</ele><time>2026-03-18T07:10:45Z</time></trkpt>
<trkpt lat="43.0598820000" lon="0.1431250000"><ele>613</ele><time>2026-03-18T07:10:47Z</time></trkpt>
<trkpt lat="43.0598920000" lon="0.1431020000"><ele>613</ele><time>2026-03-18T07:10:49Z</time></trkpt>
<trkpt lat="43.0599020000" lon="0.1430800000"><ele>613</ele><time>2026-03-18T07:10:52Z</time></trkpt>
<trkpt lat="43.0599100000" lon="0.1430570000"><ele>614</ele><time>2026-03-18T07:10:55Z</time></trkpt>
<trkpt lat="43.0599250000" lon="0.1430320000"><ele>614</ele><time>2026-03-18T07:10:58Z</time></trkpt>
<trkpt lat="43.0599420000" lon="0.1430120000"><ele>614</ele><time>2026-03-18T07:11:02Z</time></trkpt>
<trkpt lat="43.0599470000" lon="0.1429820000"><ele>615</ele><time>2026-03-18T07:11:05Z</time></trkpt>
<trkpt lat="43.0599520000" lon="0.1429570000"><ele>615</ele><time>2026-03-18T07:11:08Z</time></trkpt>
<trkpt lat="43.0599700000" lon="0.1429370000"><ele>615</ele><time>2026-03-18T07:11:11Z</time></trkpt>
<trkpt lat="43.0599820000" lon="0.1429120000"><ele>615</ele><time>2026-03-18T07:11:13Z</time></trkpt>
<trkpt lat="43.0599870000" lon="0.1428870000"><ele>616</ele><time>2026-03-18T07:11:18Z</time></trkpt>
<trkpt lat="43.0600070000" lon="0.1428770000"><ele>616</ele><time>2026-03-18T07:11:19Z</time></trkpt>
<trkpt lat="43.0600270000" lon="0.1428570000"><ele>616</ele><time>2026-03-18T07:11:23Z</time></trkpt>
<trkpt lat="43.0600420000" lon="0.1428370000"><ele>617</ele><time>2026-03-18T07:11:28Z</time></trkpt>
<trkpt lat="43.0600620000" lon="0.1428170000"><ele>617</ele><time>2026-03-18T07:11:31Z</time></trkpt>
<trkpt lat="43.0600820000" lon="0.1428170000"><ele>618</ele><time>2026-03-18T07:11:34Z</time></trkpt>
<trkpt lat="43.0600970000" lon="0.1428000000"><ele>618</ele><time>2026-03-18T07:11:39Z</time></trkpt>
<trkpt lat="43.0601150000" lon="0.1428100000"><ele>619</ele><time>2026-03-18T07:11:43Z</time></trkpt>
<trkpt lat="43.0601350000" lon="0.1428120000"><ele>619</ele><time>2026-03-18T07:11:45Z</time></trkpt>
<trkpt lat="43.0601620000" lon="0.1427770000"><ele>619</ele><time>2026-03-18T07:11:47Z</time></trkpt>
<trkpt lat="43.0601900000" lon="0.1427470000"><ele>619</ele><time>2026-03-18T07:11:49Z</time></trkpt>
<trkpt lat="43.0602150000" lon="0.1427400000"><ele>619</ele><time>2026-03-18T07:11:50Z</time></trkpt>
<trkpt lat="43.0602300000" lon="0.1427170000"><ele>620</ele><time>2026-03-18T07:11:53Z</time></trkpt>
<trkpt lat="43.0602420000" lon="0.1426980000"><ele>620</ele><time>2026-03-18T07:11:55Z</time></trkpt>
<trkpt lat="43.0602470000" lon="0.1426670000"><ele>620</ele><time>2026-03-18T07:11:58Z</time></trkpt>
<trkpt lat="43.0602670000" lon="0.1426400000"><ele>622</ele><time>2026-03-18T07:12:17Z</time></trkpt>
<trkpt lat="43.0602770000" lon="0.1426170000"><ele>622</ele><time>2026-03-18T07:12:18Z</time></trkpt>
<trkpt lat="43.0603000000" lon="0.1425820000"><ele>622</ele><time>2026-03-18T07:12:20Z</time></trkpt>
<trkpt lat="43.0603120000" lon="0.1425620000"><ele>623</ele><time>2026-03-18T07:12:22Z</time></trkpt>
<trkpt lat="43.0603250000" lon="0.1425420000"><ele>623</ele><time>2026-03-18T07:12:25Z</time></trkpt>
<trkpt lat="43.0603470000" lon="0.1425370000"><ele>623</ele><time>2026-03-18T07:12:27Z</time></trkpt>
<trkpt lat="43.0603620000" lon="0.1425170000"><ele>623</ele><time>2026-03-18T07:12:29Z</time></trkpt>
<trkpt lat="43.0603770000" lon="0.1425020000"><ele>624</ele><time>2026-03-18T07:12:32Z</time></trkpt>
<trkpt lat="43.0603850000" lon="0.1424770000"><ele>624</ele><time>2026-03-18T07:12:37Z</time></trkpt>
<trkpt lat="43.0604020000" lon="0.1424620000"><ele>624</ele><time>2026-03-18T07:12:41Z</time></trkpt>
<trkpt lat="43.0604150000" lon="0.1424370000"><ele>625</ele><time>2026-03-18T07:12:44Z</time></trkpt>
<trkpt lat="43.0604170000" lon="0.1424100000"><ele>625</ele><time>2026-03-18T07:12:46Z</time></trkpt>
<trkpt lat="43.0604320000" lon="0.1423820000"><ele>625</ele><time>2026-03-18T07:12:49Z</time></trkpt>
<trkpt lat="43.0604470000" lon="0.1423520000"><ele>626</ele><time>2026-03-18T07:12:52Z</time></trkpt>
<trkpt lat="43.0604570000" lon="0.1423270000"><ele>626</ele><time>2026-03-18T07:12:54Z</time></trkpt>
<trkpt lat="43.0604570000" lon="0.1423000000"><ele>626</ele><time>2026-03-18T07:12:56Z</time></trkpt>
<trkpt lat="43.0604700000" lon="0.1422770000"><ele>626</ele><time>2026-03-18T07:12:58Z</time></trkpt>
<trkpt lat="43.0604720000" lon="0.1422520000"><ele>627</ele><time>2026-03-18T07:13:01Z</time></trkpt>
<trkpt lat="43.0604900000" lon="0.1422270000"><ele>627</ele><time>2026-03-18T07:13:04Z</time></trkpt>
<trkpt lat="43.0605100000" lon="0.1422020000"><ele>627</ele><time>2026-03-18T07:13:07Z</time></trkpt>
<trkpt lat="43.0605120000" lon="0.1421770000"><ele>628</ele><time>2026-03-18T07:13:10Z</time></trkpt>
<trkpt lat="43.0605270000" lon="0.1421520000"><ele>628</ele><time>2026-03-18T07:13:15Z</time></trkpt>
<trkpt lat="43.0605420000" lon="0.1421270000"><ele>629</ele><time>2026-03-18T07:13:18Z</time></trkpt>
<trkpt lat="43.0605450000" lon="0.1421020000"><ele>629</ele><time>2026-03-18T07:13:20Z</time></trkpt>
<trkpt lat="43.0605470000" lon="0.1420720000"><ele>629</ele><time>2026-03-18T07:13:23Z</time></trkpt>
<trkpt lat="43.0605470000" lon="0.1420470000"><ele>629</ele><time>2026-03-18T07:13:27Z</time></trkpt>
<trkpt lat="43.0605470000" lon="0.1420200000"><ele>630</ele><time>2026-03-18T07:13:29Z</time></trkpt>
<trkpt lat="43.0605620000" lon="0.1419870000"><ele>630</ele><time>2026-03-18T07:13:32Z</time></trkpt>
<trkpt lat="43.0605350000" lon="0.1419850000"><ele>630</ele><time>2026-03-18T07:13:35Z</time></trkpt>
<trkpt lat="43.0605520000" lon="0.1419770000"><ele>631</ele><time>2026-03-18T07:13:45Z</time></trkpt>
<trkpt lat="43.0605720000" lon="0.1419520000"><ele>631</ele><time>2026-03-18T07:13:47Z</time></trkpt>
<trkpt lat="43.0605850000" lon="0.1419320000"><ele>631</ele><time>2026-03-18T07:13:49Z</time></trkpt>
<trkpt lat="43.0605950000" lon="0.1419070000"><ele>632</ele><time>2026-03-18T07:13:51Z</time></trkpt>
<trkpt lat="43.0605970000" lon="0.1418800000"><ele>632</ele><time>2026-03-18T07:13:54Z</time></trkpt>
<trkpt lat="43.0605850000" lon="0.1418520000"><ele>633</ele><time>2026-03-18T07:13:58Z</time></trkpt>
<trkpt lat="43.0605920000" lon="0.1418200000"><ele>633</ele><time>2026-03-18T07:14:00Z</time></trkpt>
<trkpt lat="43.0605970000" lon="0.1417720000"><ele>633</ele><time>2026-03-18T07:14:03Z</time></trkpt>
<trkpt lat="43.0606120000" lon="0.1417420000"><ele>634</ele><time>2026-03-18T07:14:07Z</time></trkpt>
<trkpt lat="43.0605950000" lon="0.1417120000"><ele>634</ele><time>2026-03-18T07:14:13Z</time></trkpt>
<trkpt lat="43.0605750000" lon="0.1416870000"><ele>635</ele><time>2026-03-18T07:14:16Z</time></trkpt>
<trkpt lat="43.0605800000" lon="0.1416520000"><ele>635</ele><time>2026-03-18T07:14:19Z</time></trkpt>
<trkpt lat="43.0605820000" lon="0.1416250000"><ele>635</ele><time>2026-03-18T07:14:22Z</time></trkpt>
<trkpt lat="43.0605820000" lon="0.1415920000"><ele>636</ele><time>2026-03-18T07:14:24Z</time></trkpt>
<trkpt lat="43.0605770000" lon="0.1415670000"><ele>636</ele><time>2026-03-18T07:14:25Z</time></trkpt>
<trkpt lat="43.0605820000" lon="0.1415420000"><ele>636</ele><time>2026-03-18T07:14:26Z</time></trkpt>
<trkpt lat="43.0606020000" lon="0.1415170000"><ele>636</ele><time>2026-03-18T07:14:28Z</time></trkpt>
<trkpt lat="43.0605970000" lon="0.1414870000"><ele>637</ele><time>2026-03-18T07:14:31Z</time></trkpt>
<trkpt lat="43.0605770000" lon="0.1414650000"><ele>637</ele><time>2026-03-18T07:14:33Z</time></trkpt>
<trkpt lat="43.0605670000" lon="0.1414920000"><ele>638</ele><time>2026-03-18T07:14:40Z</time></trkpt>
<trkpt lat="43.0605670000" lon="0.1415220000"><ele>640</ele><time>2026-03-18T07:14:55Z</time></trkpt>
<trkpt lat="43.0605520000" lon="0.1415720000"><ele>640</ele><time>2026-03-18T07:14:57Z</time></trkpt>
<trkpt lat="43.0605400000" lon="0.1416050000"><ele>640</ele><time>2026-03-18T07:14:58Z</time></trkpt>
<trkpt lat="43.0605320000" lon="0.1416300000"><ele>640</ele><time>2026-03-18T07:14:59Z</time></trkpt>
<trkpt lat="43.0605120000" lon="0.1416650000"><ele>641</ele><time>2026-03-18T07:15:01Z</time></trkpt>
<trkpt lat="43.0604920000" lon="0.1416820000"><ele>641</ele><time>2026-03-18T07:15:03Z</time></trkpt>
<trkpt lat="43.0604770000" lon="0.1417120000"><ele>641</ele><time>2026-03-18T07:15:06Z</time></trkpt>
<trkpt lat="43.0604770000" lon="0.1417400000"><ele>642</ele><time>2026-03-18T07:15:09Z</time></trkpt>
<trkpt lat="43.0604720000" lon="0.1417650000"><ele>642</ele><time>2026-03-18T07:15:13Z</time></trkpt>
<trkpt lat="43.0604570000" lon="0.1417920000"><ele>642</ele><time>2026-03-18T07:15:16Z</time></trkpt>
<trkpt lat="43.0604370000" lon="0.1418320000"><ele>642</ele><time>2026-03-18T07:15:18Z</time></trkpt>
<trkpt lat="43.0604270000" lon="0.1418570000"><ele>642</ele><time>2026-03-18T07:15:20Z</time></trkpt>
<trkpt lat="43.0604150000" lon="0.1418770000"><ele>643</ele><time>2026-03-18T07:15:22Z</time></trkpt>
<trkpt lat="43.0604000000" lon="0.1418920000"><ele>643</ele><time>2026-03-18T07:15:23Z</time></trkpt>
<trkpt lat="43.0603820000" lon="0.1419070000"><ele>643</ele><time>2026-03-18T07:15:25Z</time></trkpt>
<trkpt lat="43.0603670000" lon="0.1419270000"><ele>643</ele><time>2026-03-18T07:15:27Z</time></trkpt>
<trkpt lat="43.0603520000" lon="0.1419470000"><ele>643</ele><time>2026-03-18T07:15:30Z</time></trkpt>
<trkpt lat="43.0603370000" lon="0.1419670000"><ele>643</ele><time>2026-03-18T07:15:32Z</time></trkpt>
<trkpt lat="43.0603170000" lon="0.1419820000"><ele>644</ele><time>2026-03-18T07:15:35Z</time></trkpt>
<trkpt lat="43.0603000000" lon="0.1420030000"><ele>644</ele><time>2026-03-18T07:15:38Z</time></trkpt>
<trkpt lat="43.0602820000" lon="0.1420020000"><ele>644</ele><time>2026-03-18T07:15:40Z</time></trkpt>
<trkpt lat="43.0602620000" lon="0.1420020000"><ele>645</ele><time>2026-03-18T07:15:43Z</time></trkpt>
<trkpt lat="43.0602420000" lon="0.1420020000"><ele>645</ele><time>2026-03-18T07:15:46Z</time></trkpt>
<trkpt lat="43.0602200000" lon="0.1419820000"><ele>646</ele><time>2026-03-18T07:15:49Z</time></trkpt>
<trkpt lat="43.0602020000" lon="0.1419950000"><ele>646</ele><time>2026-03-18T07:15:51Z</time></trkpt>
<trkpt lat="43.0601970000" lon="0.1419620000"><ele>646</ele><time>2026-03-18T07:15:58Z</time></trkpt>
<trkpt lat="43.0601950000" lon="0.1419350000"><ele>647</ele><time>2026-03-18T07:16:23Z</time></trkpt>
<trkpt lat="43.0602070000" lon="0.1419070000"><ele>647</ele><time>2026-03-18T07:16:27Z</time></trkpt>
<trkpt lat="43.0602120000" lon="0.1418800000"><ele>648</ele><time>2026-03-18T07:16:43Z</time></trkpt>
<trkpt lat="43.0602170000" lon="0.1418420000"><ele>649</ele><time>2026-03-18T07:16:50Z</time></trkpt>
<trkpt lat="43.0602220000" lon="0.1418100000"><ele>649</ele><time>2026-03-18T07:16:51Z</time></trkpt>
<trkpt lat="43.0602270000" lon="0.1417770000"><ele>649</ele><time>2026-03-18T07:16:52Z</time></trkpt>
<trkpt lat="43.0602370000" lon="0.1417420000"><ele>649</ele><time>2026-03-18T07:16:53Z</time></trkpt>
<trkpt lat="43.0602470000" lon="0.1417170000"><ele>649</ele><time>2026-03-18T07:16:54Z</time></trkpt>
<trkpt lat="43.0602620000" lon="0.1416870000"><ele>649</ele><time>2026-03-18T07:16:56Z</time></trkpt>
<trkpt lat="43.0602720000" lon="0.1416650000"><ele>650</ele><time>2026-03-18T07:16:58Z</time></trkpt>
<trkpt lat="43.0602850000" lon="0.1416370000"><ele>650</ele><time>2026-03-18T07:17:03Z</time></trkpt>
<trkpt lat="43.0602900000" lon="0.1416100000"><ele>651</ele><time>2026-03-18T07:17:07Z</time></trkpt>
<trkpt lat="43.0602870000" lon="0.1415770000"><ele>651</ele><time>2026-03-18T07:17:10Z</time></trkpt>
<trkpt lat="43.0602770000" lon="0.1415570000"><ele>651</ele><time>2026-03-18T07:17:12Z</time></trkpt>
<trkpt lat="43.0602700000" lon="0.1415300000"><ele>652</ele><time>2026-03-18T07:17:15Z</time></trkpt>
<trkpt lat="43.0602800000" lon="0.1415030000"><ele>652</ele><time>2026-03-18T07:17:17Z</time></trkpt>
<trkpt lat="43.0602870000" lon="0.1414700000"><ele>652</ele><time>2026-03-18T07:17:19Z</time></trkpt>
<trkpt lat="43.0602920000" lon="0.1414350000"><ele>653</ele><time>2026-03-18T07:17:22Z</time></trkpt>
<trkpt lat="43.0603020000" lon="0.1414000000"><ele>653</ele><time>2026-03-18T07:17:25Z</time></trkpt>
<trkpt lat="43.0603020000" lon="0.1413750000"><ele>653</ele><time>2026-03-18T07:17:28Z</time></trkpt>
<trkpt lat="43.0603020000" lon="0.1413420000"><ele>654</ele><time>2026-03-18T07:17:31Z</time></trkpt>
<trkpt lat="43.0603020000" lon="0.1413080000"><ele>654</ele><time>2026-03-18T07:17:34Z</time></trkpt>
<trkpt lat="43.0603070000" lon="0.1412820000"><ele>654</ele><time>2026-03-18T07:17:37Z</time></trkpt>
<trkpt lat="43.0603150000" lon="0.1412570000"><ele>655</ele><time>2026-03-18T07:17:39Z</time></trkpt>
<trkpt lat="43.0603300000" lon="0.1412320000"><ele>655</ele><time>2026-03-18T07:17:41Z</time></trkpt>
<trkpt lat="43.0603470000" lon="0.1412170000"><ele>655</ele><time>2026-03-18T07:17:43Z</time></trkpt>
<trkpt lat="43.0603400000" lon="0.1411900000"><ele>656</ele><time>2026-03-18T07:17:48Z</time></trkpt>
<trkpt lat="43.0603420000" lon="0.1411620000"><ele>656</ele><time>2026-03-18T07:17:52Z</time></trkpt>
<trkpt lat="43.0603500000" lon="0.1411350000"><ele>656</ele><time>2026-03-18T07:17:54Z</time></trkpt>
<trkpt lat="43.0603670000" lon="0.1411070000"><ele>657</ele><time>2026-03-18T07:17:57Z</time></trkpt>
<trkpt lat="43.0603820000" lon="0.1410920000"><ele>657</ele><time>2026-03-18T07:18:00Z</time></trkpt>
<trkpt lat="43.0603870000" lon="0.1410670000"><ele>658</ele><time>2026-03-18T07:18:03Z</time></trkpt>
<trkpt lat="43.0604020000" lon="0.1410500000"><ele>658</ele><time>2026-03-18T07:18:06Z</time></trkpt>
<trkpt lat="43.0604250000" lon="0.1410370000"><ele>658</ele><time>2026-03-18T07:18:09Z</time></trkpt>
<trkpt lat="43.0604550000" lon="0.1410370000"><ele>659</ele><time>2026-03-18T07:18:11Z</time></trkpt>
<trkpt lat="43.0604820000" lon="0.1410220000"><ele>659</ele><time>2026-03-18T07:18:15Z</time></trkpt>
<trkpt lat="43.0605020000" lon="0.1410120000"><ele>659</ele><time>2026-03-18T07:18:17Z</time></trkpt>
<trkpt lat="43.0605170000" lon="0.1409950000"><ele>660</ele><time>2026-03-18T07:18:22Z</time></trkpt>
<trkpt lat="43.0605370000" lon="0.1409870000"><ele>660</ele><time>2026-03-18T07:18:25Z</time></trkpt>
<trkpt lat="43.0605600000" lon="0.1409750000"><ele>660</ele><time>2026-03-18T07:18:28Z</time></trkpt>
<trkpt lat="43.0605870000" lon="0.1409600000"><ele>660</ele><time>2026-03-18T07:18:30Z</time></trkpt>
<trkpt lat="43.0606020000" lon="0.1409420000"><ele>661</ele><time>2026-03-18T07:18:33Z</time></trkpt>
<trkpt lat="43.0606150000" lon="0.1409180000"><ele>661</ele><time>2026-03-18T07:18:35Z</time></trkpt>
<trkpt lat="43.0606300000" lon="0.1409020000"><ele>661</ele><time>2026-03-18T07:18:38Z</time></trkpt>
<trkpt lat="43.0606420000" lon="0.1408870000"><ele>661</ele><time>2026-03-18T07:18:40Z</time></trkpt>
<trkpt lat="43.0606620000" lon="0.1408720000"><ele>661</ele><time>2026-03-18T07:18:42Z</time></trkpt>
<trkpt lat="43.0606800000" lon="0.1408520000"><ele>661</ele><time>2026-03-18T07:18:44Z</time></trkpt>
<trkpt lat="43.0606870000" lon="0.1408220000"><ele>661</ele><time>2026-03-18T07:18:48Z</time></trkpt>
<trkpt lat="43.0607020000" lon="0.1407970000"><ele>662</ele><time>2026-03-18T07:18:50Z</time></trkpt>
<trkpt lat="43.0607170000" lon="0.1407820000"><ele>662</ele><time>2026-03-18T07:18:52Z</time></trkpt>
<trkpt lat="43.0607250000" lon="0.1407570000"><ele>662</ele><time>2026-03-18T07:18:55Z</time></trkpt>
<trkpt lat="43.0607250000" lon="0.1407320000"><ele>662</ele><time>2026-03-18T07:18:57Z</time></trkpt>
<trkpt lat="43.0607250000" lon="0.1406970000"><ele>663</ele><time>2026-03-18T07:19:01Z</time></trkpt>
<trkpt lat="43.0607300000" lon="0.1406720000"><ele>663</ele><time>2026-03-18T07:19:03Z</time></trkpt>
<trkpt lat="43.0607420000" lon="0.1406520000"><ele>664</ele><time>2026-03-18T07:19:05Z</time></trkpt>
<trkpt lat="43.0607430000" lon="0.1406270000"><ele>665</ele><time>2026-03-18T07:19:20Z</time></trkpt>
<trkpt lat="43.0607420000" lon="0.1405970000"><ele>665</ele><time>2026-03-18T07:19:23Z</time></trkpt>
<trkpt lat="43.0607370000" lon="0.1405720000"><ele>665</ele><time>2026-03-18T07:19:25Z</time></trkpt>
<trkpt lat="43.0607320000" lon="0.1405470000"><ele>665</ele><time>2026-03-18T07:19:29Z</time></trkpt>
<trkpt lat="43.0607570000" lon="0.1405170000"><ele>666</ele><time>2026-03-18T07:19:49Z</time></trkpt>
<trkpt lat="43.0607770000" lon="0.1404970000"><ele>666</ele><time>2026-03-18T07:19:50Z</time></trkpt>
<trkpt lat="43.0608020000" lon="0.1404730000"><ele>666</ele><time>2026-03-18T07:19:51Z</time></trkpt>
<trkpt lat="43.0608220000" lon="0.1404520000"><ele>666</ele><time>2026-03-18T07:19:52Z</time></trkpt>
<trkpt lat="43.0608400000" lon="0.1404300000"><ele>666</ele><time>2026-03-18T07:19:53Z</time></trkpt>
<trkpt lat="43.0608620000" lon="0.1404020000"><ele>667</ele><time>2026-03-18T07:19:55Z</time></trkpt>
<trkpt lat="43.0608720000" lon="0.1403820000"><ele>667</ele><time>2026-03-18T07:19:57Z</time></trkpt>
<trkpt lat="43.0608720000" lon="0.1403570000"><ele>667</ele><time>2026-03-18T07:19:59Z</time></trkpt>
<trkpt lat="43.0608820000" lon="0.1403320000"><ele>668</ele><time>2026-03-18T07:20:01Z</time></trkpt>
<trkpt lat="43.0608920000" lon="0.1402970000"><ele>668</ele><time>2026-03-18T07:20:05Z</time></trkpt>
<trkpt lat="43.0609020000" lon="0.1402650000"><ele>668</ele><time>2026-03-18T07:20:08Z</time></trkpt>
<trkpt lat="43.0609100000" lon="0.1402420000"><ele>668</ele><time>2026-03-18T07:20:10Z</time></trkpt>
<trkpt lat="43.0609220000" lon="0.1402170000"><ele>669</ele><time>2026-03-18T07:20:13Z</time></trkpt>
<trkpt lat="43.0609370000" lon="0.1401980000"><ele>669</ele><time>2026-03-18T07:20:16Z</time></trkpt>
<trkpt lat="43.0609570000" lon="0.1401900000"><ele>669</ele><time>2026-03-18T07:20:24Z</time></trkpt>
<trkpt lat="43.0609650000" lon="0.1401650000"><ele>671</ele><time>2026-03-18T07:20:40Z</time></trkpt>
<trkpt lat="43.0609750000" lon="0.1401420000"><ele>671</ele><time>2026-03-18T07:20:41Z</time></trkpt>
<trkpt lat="43.0609870000" lon="0.1401130000"><ele>672</ele><time>2026-03-18T07:20:42Z</time></trkpt>
<trkpt lat="43.0609970000" lon="0.1400870000"><ele>672</ele><time>2026-03-18T07:20:43Z</time></trkpt>
<trkpt lat="43.0610020000" lon="0.1400630000"><ele>672</ele><time>2026-03-18T07:20:44Z</time></trkpt>
<trkpt lat="43.0610050000" lon="0.1400300000"><ele>672</ele><time>2026-03-18T07:20:46Z</time></trkpt>
<trkpt lat="43.0610200000" lon="0.1400020000"><ele>672</ele><time>2026-03-18T07:20:49Z</time></trkpt>
<trkpt lat="43.0610220000" lon="0.1399700000"><ele>673</ele><time>2026-03-18T07:20:53Z</time></trkpt>
<trkpt lat="43.0610250000" lon="0.1399450000"><ele>673</ele><time>2026-03-18T07:20:55Z</time></trkpt>
<trkpt lat="43.0610350000" lon="0.1399170000"><ele>674</ele><time>2026-03-18T07:20:58Z</time></trkpt>
<trkpt lat="43.0610450000" lon="0.1398900000"><ele>674</ele><time>2026-03-18T07:21:01Z</time></trkpt>
<trkpt lat="43.0610620000" lon="0.1398570000"><ele>675</ele><time>2026-03-18T07:21:04Z</time></trkpt>
<trkpt lat="43.0610720000" lon="0.1398250000"><ele>675</ele><time>2026-03-18T07:21:07Z</time></trkpt>
<trkpt lat="43.0610650000" lon="0.1398000000"><ele>675</ele><time>2026-03-18T07:21:09Z</time></trkpt>
<trkpt lat="43.0610620000" lon="0.1397720000"><ele>676</ele><time>2026-03-18T07:21:13Z</time></trkpt>
<trkpt lat="43.0610520000" lon="0.1397520000"><ele>676</ele><time>2026-03-18T07:21:16Z</time></trkpt>
<trkpt lat="43.0610620000" lon="0.1397270000"><ele>677</ele><time>2026-03-18T07:21:20Z</time></trkpt>
<trkpt lat="43.0610800000" lon="0.1397100000"><ele>677</ele><time>2026-03-18T07:21:23Z</time></trkpt>
<trkpt lat="43.0610870000" lon="0.1396800000"><ele>677</ele><time>2026-03-18T07:21:27Z</time></trkpt>
<trkpt lat="43.0610820000" lon="0.1396530000"><ele>678</ele><time>2026-03-18T07:21:29Z</time></trkpt>
<trkpt lat="43.0611000000" lon="0.1396370000"><ele>678</ele><time>2026-03-18T07:21:33Z</time></trkpt>
<trkpt lat="43.0611070000" lon="0.1396070000"><ele>679</ele><time>2026-03-18T07:21:36Z</time></trkpt>
<trkpt lat="43.0611150000" lon="0.1395820000"><ele>679</ele><time>2026-03-18T07:21:40Z</time></trkpt>
<trkpt lat="43.0611100000" lon="0.1395570000"><ele>680</ele><time>2026-03-18T07:21:43Z</time></trkpt>
<trkpt lat="43.0611300000" lon="0.1395330000"><ele>680</ele><time>2026-03-18T07:21:47Z</time></trkpt>
<trkpt lat="43.0611420000" lon="0.1395030000"><ele>680</ele><time>2026-03-18T07:21:50Z</time></trkpt>
<trkpt lat="43.0611520000" lon="0.1394820000"><ele>681</ele><time>2026-03-18T07:21:52Z</time></trkpt>
<trkpt lat="43.0611470000" lon="0.1394570000"><ele>681</ele><time>2026-03-18T07:21:54Z</time></trkpt>
<trkpt lat="43.0611520000" lon="0.1394320000"><ele>681</ele><time>2026-03-18T07:21:57Z</time></trkpt>
<trkpt lat="43.0611650000" lon="0.1394070000"><ele>681</ele><time>2026-03-18T07:22:00Z</time></trkpt>
<trkpt lat="43.0611870000" lon="0.1393920000"><ele>682</ele><time>2026-03-18T07:22:03Z</time></trkpt>
<trkpt lat="43.0611650000" lon="0.1394020000"><ele>682</ele><time>2026-03-18T07:22:08Z</time></trkpt>
<trkpt lat="43.0611620000" lon="0.1393770000"><ele>683</ele><time>2026-03-18T07:22:16Z</time></trkpt>
<trkpt lat="43.0611770000" lon="0.1393600000"><ele>683</ele><time>2026-03-18T07:22:18Z</time></trkpt>
<trkpt lat="43.0612020000" lon="0.1393370000"><ele>683</ele><time>2026-03-18T07:22:20Z</time></trkpt>
<trkpt lat="43.0612200000" lon="0.1393120000"><ele>683</ele><time>2026-03-18T07:22:22Z</time></trkpt>
<trkpt lat="43.0612220000" lon="0.1392780000"><ele>683</ele><time>2026-03-18T07:22:25Z</time></trkpt>
<trkpt lat="43.0612250000" lon="0.1392500000"><ele>684</ele><time>2026-03-18T07:22:28Z</time></trkpt>
<trkpt lat="43.0612300000" lon="0.1392170000"><ele>684</ele><time>2026-03-18T07:22:31Z</time></trkpt>
<trkpt lat="43.0612450000" lon="0.1391950000"><ele>684</ele><time>2026-03-18T07:22:34Z</time></trkpt>
<trkpt lat="43.0612320000" lon="0.1391670000"><ele>685</ele><time>2026-03-18T07:22:39Z</time></trkpt>
<trkpt lat="43.0612470000" lon="0.1391370000"><ele>685</ele><time>2026-03-18T07:22:41Z</time></trkpt>
<trkpt lat="43.0612670000" lon="0.1391220000"><ele>686</ele><time>2026-03-18T07:22:43Z</time></trkpt>
<trkpt lat="43.0612770000" lon="0.1390920000"><ele>686</ele><time>2026-03-18T07:22:45Z</time></trkpt>
<trkpt lat="43.0612770000" lon="0.1390670000"><ele>687</ele><time>2026-03-18T07:22:48Z</time></trkpt>
<trkpt lat="43.0612520000" lon="0.1390500000"><ele>687</ele><time>2026-03-18T07:22:53Z</time></trkpt>
<trkpt lat="43.0612620000" lon="0.1390170000"><ele>688</ele><time>2026-03-18T07:22:57Z</time></trkpt>
<trkpt lat="43.0612820000" lon="0.1389870000"><ele>688</ele><time>2026-03-18T07:22:59Z</time></trkpt>
<trkpt lat="43.0612920000" lon="0.1389670000"><ele>688</ele><time>2026-03-18T07:23:01Z</time></trkpt>
<trkpt lat="43.0613100000" lon="0.1389420000"><ele>689</ele><time>2026-03-18T07:23:04Z</time></trkpt>
<trkpt lat="43.0613170000" lon="0.1389200000"><ele>689</ele><time>2026-03-18T07:23:06Z</time></trkpt>
<trkpt lat="43.0613320000" lon="0.1388970000"><ele>689</ele><time>2026-03-18T07:23:08Z</time></trkpt>
<trkpt lat="43.0613470000" lon="0.1388820000"><ele>689</ele><time>2026-03-18T07:23:10Z</time></trkpt>
<trkpt lat="43.0613570000" lon="0.1388550000"><ele>690</ele><time>2026-03-18T07:23:13Z</time></trkpt>
<trkpt lat="43.0613600000" lon="0.1388300000"><ele>690</ele><time>2026-03-18T07:23:17Z</time></trkpt>
<trkpt lat="43.0613670000" lon="0.1388020000"><ele>691</ele><time>2026-03-18T07:23:22Z</time></trkpt>
<trkpt lat="43.0613870000" lon="0.1387820000"><ele>691</ele><time>2026-03-18T07:23:25Z</time></trkpt>
<trkpt lat="43.0614020000" lon="0.1387600000"><ele>691</ele><time>2026-03-18T07:23:27Z</time></trkpt>
<trkpt lat="43.0614070000" lon="0.1387270000"><ele>691</ele><time>2026-03-18T07:23:30Z</time></trkpt>
<trkpt lat="43.0614100000" lon="0.1386970000"><ele>692</ele><time>2026-03-18T07:23:35Z</time></trkpt>
<trkpt lat="43.0614170000" lon="0.1386720000"><ele>692</ele><time>2026-03-18T07:23:38Z</time></trkpt>
<trkpt lat="43.0614320000" lon="0.1386520000"><ele>693</ele><time>2026-03-18T07:23:40Z</time></trkpt>
<trkpt lat="43.0614370000" lon="0.1386270000"><ele>693</ele><time>2026-03-18T07:23:42Z</time></trkpt>
<trkpt lat="43.0614250000" lon="0.1386000000"><ele>693</ele><time>2026-03-18T07:23:46Z</time></trkpt>
<trkpt lat="43.0614270000" lon="0.1385700000"><ele>694</ele><time>2026-03-18T07:23:49Z</time></trkpt>
<trkpt lat="43.0614420000" lon="0.1385420000"><ele>694</ele><time>2026-03-18T07:23:52Z</time></trkpt>
<trkpt lat="43.0614570000" lon="0.1385270000"><ele>694</ele><time>2026-03-18T07:23:55Z</time></trkpt>
<trkpt lat="43.0614720000" lon="0.1385020000"><ele>695</ele><time>2026-03-18T07:24:00Z</time></trkpt>
<trkpt lat="43.0614870000" lon="0.1384850000"><ele>695</ele><time>2026-03-18T07:24:02Z</time></trkpt>
<trkpt lat="43.0615020000" lon="0.1384520000"><ele>695</ele><time>2026-03-18T07:24:05Z</time></trkpt>
<trkpt lat="43.0614900000" lon="0.1384270000"><ele>696</ele><time>2026-03-18T07:24:09Z</time></trkpt>
<trkpt lat="43.0615070000" lon="0.1383980000"><ele>696</ele><time>2026-03-18T07:24:12Z</time></trkpt>
<trkpt lat="43.0615320000" lon="0.1383970000"><ele>696</ele><time>2026-03-18T07:24:13Z</time></trkpt>
<trkpt lat="43.0615520000" lon="0.1383870000"><ele>696</ele><time>2026-03-18T07:24:14Z</time></trkpt>
<trkpt lat="43.0615700000" lon="0.1383700000"><ele>697</ele><time>2026-03-18T07:24:17Z</time></trkpt>
<trkpt lat="43.0615650000" lon="0.1383420000"><ele>697</ele><time>2026-03-18T07:24:19Z</time></trkpt>
<trkpt lat="43.0615670000" lon="0.1383120000"><ele>697</ele><time>2026-03-18T07:24:21Z</time></trkpt>
<trkpt lat="43.0615670000" lon="0.1382830000"><ele>697</ele><time>2026-03-18T07:24:24Z</time></trkpt>
<trkpt lat="43.0615870000" lon="0.1382570000"><ele>698</ele><time>2026-03-18T07:24:26Z</time></trkpt>
<trkpt lat="43.0616150000" lon="0.1382350000"><ele>698</ele><time>2026-03-18T07:24:28Z</time></trkpt>
<trkpt lat="43.0616200000" lon="0.1382070000"><ele>698</ele><time>2026-03-18T07:24:30Z</time></trkpt>
<trkpt lat="43.0616150000" lon="0.1381730000"><ele>698</ele><time>2026-03-18T07:24:32Z</time></trkpt>
<trkpt lat="43.0615970000" lon="0.1381670000"><ele>700</ele><time>2026-03-18T07:24:43Z</time></trkpt>
<trkpt lat="43.0616020000" lon="0.1381370000"><ele>699</ele><time>2026-03-18T07:24:51Z</time></trkpt>
<trkpt lat="43.0616020000" lon="0.1381120000"><ele>700</ele><time>2026-03-18T07:24:52Z</time></trkpt>
<trkpt lat="43.0616070000" lon="0.1380800000"><ele>700</ele><time>2026-03-18T07:24:53Z</time></trkpt>
<trkpt lat="43.0616070000" lon="0.1380500000"><ele>700</ele><time>2026-03-18T07:24:54Z</time></trkpt>
<trkpt lat="43.0616070000" lon="0.1380250000"><ele>700</ele><time>2026-03-18T07:24:55Z</time></trkpt>
<trkpt lat="43.0616100000" lon="0.1380000000"><ele>700</ele><time>2026-03-18T07:24:57Z</time></trkpt>
<trkpt lat="43.0615970000" lon="0.1379780000"><ele>701</ele><time>2026-03-18T07:25:00Z</time></trkpt>
<trkpt lat="43.0615950000" lon="0.1379470000"><ele>701</ele><time>2026-03-18T07:25:04Z</time></trkpt>
<trkpt lat="43.0616000000" lon="0.1379220000"><ele>701</ele><time>2026-03-18T07:25:06Z</time></trkpt>
<trkpt lat="43.0616070000" lon="0.1378920000"><ele>702</ele><time>2026-03-18T07:25:09Z</time></trkpt>
<trkpt lat="43.0616120000" lon="0.1378670000"><ele>702</ele><time>2026-03-18T07:25:11Z</time></trkpt>
<trkpt lat="43.0616200000" lon="0.1378320000"><ele>702</ele><time>2026-03-18T07:25:14Z</time></trkpt>
<trkpt lat="43.0616220000" lon="0.1377970000"><ele>703</ele><time>2026-03-18T07:25:18Z</time></trkpt>
<trkpt lat="43.0616200000" lon="0.1377670000"><ele>703</ele><time>2026-03-18T07:25:20Z</time></trkpt>
<trkpt lat="43.0616220000" lon="0.1377370000"><ele>703</ele><time>2026-03-18T07:25:22Z</time></trkpt>
<trkpt lat="43.0616270000" lon="0.1377070000"><ele>703</ele><time>2026-03-18T07:25:25Z</time></trkpt>
<trkpt lat="43.0616220000" lon="0.1376750000"><ele>704</ele><time>2026-03-18T07:25:28Z</time></trkpt>
<trkpt lat="43.0616220000" lon="0.1376500000"><ele>704</ele><time>2026-03-18T07:25:30Z</time></trkpt>
<trkpt lat="43.0616220000" lon="0.1376220000"><ele>704</ele><time>2026-03-18T07:25:32Z</time></trkpt>
<trkpt lat="43.0616270000" lon="0.1375970000"><ele>705</ele><time>2026-03-18T07:25:34Z</time></trkpt>
<trkpt lat="43.0616250000" lon="0.1375720000"><ele>705</ele><time>2026-03-18T07:25:37Z</time></trkpt>
<trkpt lat="43.0616300000" lon="0.1375420000"><ele>705</ele><time>2026-03-18T07:25:40Z</time></trkpt>
<trkpt lat="43.0616270000" lon="0.1375120000"><ele>706</ele><time>2026-03-18T07:25:43Z</time></trkpt>
<trkpt lat="43.0616270000" lon="0.1374770000"><ele>706</ele><time>2026-03-18T07:25:46Z</time></trkpt>
<trkpt lat="43.0616300000" lon="0.1374520000"><ele>706</ele><time>2026-03-18T07:25:48Z</time></trkpt>
<trkpt lat="43.0616370000" lon="0.1374170000"><ele>707</ele><time>2026-03-18T07:25:51Z</time></trkpt>
<trkpt lat="43.0616470000" lon="0.1373950000"><ele>707</ele><time>2026-03-18T07:25:54Z</time></trkpt>
<trkpt lat="43.0616700000" lon="0.1373750000"><ele>708</ele><time>2026-03-18T07:26:11Z</time></trkpt>
<trkpt lat="43.0616820000" lon="0.1373570000"><ele>708</ele><time>2026-03-18T07:26:12Z</time></trkpt>
<trkpt lat="43.0616920000" lon="0.1373320000"><ele>708</ele><time>2026-03-18T07:26:13Z</time></trkpt>
<trkpt lat="43.0616970000" lon="0.1372920000"><ele>708</ele><time>2026-03-18T07:26:15Z</time></trkpt>
<trkpt lat="43.0616850000" lon="0.1372620000"><ele>708</ele><time>2026-03-18T07:26:17Z</time></trkpt>
<trkpt lat="43.0616700000" lon="0.1372420000"><ele>708</ele><time>2026-03-18T07:26:19Z</time></trkpt>
<trkpt lat="43.0616620000" lon="0.1372170000"><ele>709</ele><time>2026-03-18T07:26:21Z</time></trkpt>
<trkpt lat="43.0616700000" lon="0.1371920000"><ele>709</ele><time>2026-03-18T07:26:23Z</time></trkpt>
<trkpt lat="43.0616720000" lon="0.1371600000"><ele>710</ele><time>2026-03-18T07:26:26Z</time></trkpt>
<trkpt lat="43.0616870000" lon="0.1371420000"><ele>710</ele><time>2026-03-18T07:26:28Z</time></trkpt>
<trkpt lat="43.0617020000" lon="0.1371220000"><ele>710</ele><time>2026-03-18T07:26:30Z</time></trkpt>
<trkpt lat="43.0617250000" lon="0.1371070000"><ele>710</ele><time>2026-03-18T07:26:32Z</time></trkpt>
<trkpt lat="43.0617420000" lon="0.1370870000"><ele>711</ele><time>2026-03-18T07:26:34Z</time></trkpt>
<trkpt lat="43.0617600000" lon="0.1370620000"><ele>711</ele><time>2026-03-18T07:26:36Z</time></trkpt>
<trkpt lat="43.0617770000" lon="0.1370220000"><ele>711</ele><time>2026-03-18T07:26:38Z</time></trkpt>
<trkpt lat="43.0617870000" lon="0.1369970000"><ele>711</ele><time>2026-03-18T07:26:40Z</time></trkpt>
<trkpt lat="43.0617950000" lon="0.1369720000"><ele>712</ele><time>2026-03-18T07:26:42Z</time></trkpt>
<trkpt lat="43.0618020000" lon="0.1369470000"><ele>712</ele><time>2026-03-18T07:26:45Z</time></trkpt>
<trkpt lat="43.0618200000" lon="0.1369220000"><ele>712</ele><time>2026-03-18T07:26:48Z</time></trkpt>
<trkpt lat="43.0618350000" lon="0.1368970000"><ele>712</ele><time>2026-03-18T07:26:50Z</time></trkpt>
<trkpt lat="43.0618470000" lon="0.1368770000"><ele>712</ele><time>2026-03-18T07:26:52Z</time></trkpt>
<trkpt lat="43.0618420000" lon="0.1368520000"><ele>713</ele><time>2026-03-18T07:26:54Z</time></trkpt>
<trkpt lat="43.0618550000" lon="0.1368350000"><ele>713</ele><time>2026-03-18T07:26:56Z</time></trkpt>
<trkpt lat="43.0618550000" lon="0.1368070000"><ele>713</ele><time>2026-03-18T07:27:00Z</time></trkpt>
<trkpt lat="43.0618520000" lon="0.1367770000"><ele>713</ele><time>2026-03-18T07:27:03Z</time></trkpt>
<trkpt lat="43.0618620000" lon="0.1367420000"><ele>714</ele><time>2026-03-18T07:27:07Z</time></trkpt>
<trkpt lat="43.0618700000" lon="0.1367150000"><ele>714</ele><time>2026-03-18T07:27:09Z</time></trkpt>
<trkpt lat="43.0618870000" lon="0.1366920000"><ele>714</ele><time>2026-03-18T07:27:12Z</time></trkpt>
<trkpt lat="43.0619070000" lon="0.1366870000"><ele>714</ele><time>2026-03-18T07:27:14Z</time></trkpt>
<trkpt lat="43.0619370000" lon="0.1366670000"><ele>714</ele><time>2026-03-18T07:27:16Z</time></trkpt>
<trkpt lat="43.0619700000" lon="0.1366500000"><ele>714</ele><time>2026-03-18T07:27:18Z</time></trkpt>
<trkpt lat="43.0619920000" lon="0.1366320000"><ele>715</ele><time>2026-03-18T07:27:21Z</time></trkpt>
<trkpt lat="43.0620120000" lon="0.1366320000"><ele>715</ele><time>2026-03-18T07:27:23Z</time></trkpt>
<trkpt lat="43.0620220000" lon="0.1366020000"><ele>715</ele><time>2026-03-18T07:27:26Z</time></trkpt>
<trkpt lat="43.0620070000" lon="0.1365920000"><ele>715</ele><time>2026-03-18T07:27:44Z</time></trkpt>
<trkpt lat="43.0619870000" lon="0.1365980000"><ele>715</ele><time>2026-03-18T07:27:47Z</time></trkpt>
<trkpt lat="43.0620070000" lon="0.1365970000"><ele>715</ele><time>2026-03-18T07:27:52Z</time></trkpt>
<trkpt lat="43.0620450000" lon="0.1365920000"><ele>715</ele><time>2026-03-18T07:27:54Z</time></trkpt>
<trkpt lat="43.0620620000" lon="0.1365870000"><ele>715</ele><time>2026-03-18T07:27:55Z</time></trkpt>
<trkpt lat="43.0620870000" lon="0.1365800000"><ele>716</ele><time>2026-03-18T07:27:57Z</time></trkpt>
<trkpt lat="43.0621080000" lon="0.1365850000"><ele>716</ele><time>2026-03-18T07:28:00Z</time></trkpt>
<trkpt lat="43.0621270000" lon="0.1365770000"><ele>716</ele><time>2026-03-18T07:28:03Z</time></trkpt>
<trkpt lat="43.0621350000" lon="0.1366020000"><ele>716</ele><time>2026-03-18T07:28:07Z</time></trkpt>
<trkpt lat="43.0621520000" lon="0.1365870000"><ele>716</ele><time>2026-03-18T07:28:27Z</time></trkpt>
<trkpt lat="43.0621750000" lon="0.1365600000"><ele>716</ele><time>2026-03-18T07:28:29Z</time></trkpt>
<trkpt lat="43.0621970000" lon="0.1365370000"><ele>717</ele><time>2026-03-18T07:28:31Z</time></trkpt>
<trkpt lat="43.0622120000" lon="0.1365170000"><ele>717</ele><time>2026-03-18T07:28:33Z</time></trkpt>
<trkpt lat="43.0622370000" lon="0.1365070000"><ele>717</ele><time>2026-03-18T07:28:35Z</time></trkpt>
<trkpt lat="43.0622550000" lon="0.1365170000"><ele>717</ele><time>2026-03-18T07:28:38Z</time></trkpt>
<trkpt lat="43.0622750000" lon="0.1365170000"><ele>717</ele><time>2026-03-18T07:28:41Z</time></trkpt>
<trkpt lat="43.0622970000" lon="0.1365020000"><ele>717</ele><time>2026-03-18T07:28:43Z</time></trkpt>
<trkpt lat="43.0623120000" lon="0.1364830000"><ele>718</ele><time>2026-03-18T07:28:45Z</time></trkpt>
<trkpt lat="43.0623200000" lon="0.1364580000"><ele>718</ele><time>2026-03-18T07:28:49Z</time></trkpt>
<trkpt lat="43.0623270000" lon="0.1364320000"><ele>718</ele><time>2026-03-18T07:28:51Z</time></trkpt>
<trkpt lat="43.0623420000" lon="0.1364020000"><ele>718</ele><time>2026-03-18T07:28:53Z</time></trkpt>
<trkpt lat="43.0623400000" lon="0.1363570000"><ele>719</ele><time>2026-03-18T07:28:55Z</time></trkpt>
<trkpt lat="43.0623370000" lon="0.1363270000"><ele>719</ele><time>2026-03-18T07:28:57Z</time></trkpt>
<trkpt lat="43.0623320000" lon="0.1362900000"><ele>719</ele><time>2026-03-18T07:29:00Z</time></trkpt>
<trkpt lat="43.0623470000" lon="0.1362670000"><ele>719</ele><time>2026-03-18T07:29:02Z</time></trkpt>
<trkpt lat="43.0623620000" lon="0.1362350000"><ele>719</ele><time>2026-03-18T07:29:04Z</time></trkpt>
<trkpt lat="43.0623720000" lon="0.1362120000"><ele>720</ele><time>2026-03-18T07:29:06Z</time></trkpt>
<trkpt lat="43.0623900000" lon="0.1361870000"><ele>720</ele><time>2026-03-18T07:29:08Z</time></trkpt>
<trkpt lat="43.0624070000" lon="0.1361670000"><ele>720</ele><time>2026-03-18T07:29:11Z</time></trkpt>
<trkpt lat="43.0624220000" lon="0.1361270000"><ele>720</ele><time>2026-03-18T07:29:14Z</time></trkpt>
<trkpt lat="43.0624250000" lon="0.1360880000"><ele>721</ele><time>2026-03-18T07:29:16Z</time></trkpt>
<trkpt lat="43.0624000000" lon="0.1360970000"><ele>721</ele><time>2026-03-18T07:29:21Z</time></trkpt>
<trkpt lat="43.0624220000" lon="0.1360800000"><ele>721</ele><time>2026-03-18T07:29:24Z</time></trkpt>
<trkpt lat="43.0624420000" lon="0.1360620000"><ele>721</ele><time>2026-03-18T07:29:26Z</time></trkpt>
<trkpt lat="43.0624650000" lon="0.1360370000"><ele>721</ele><time>2026-03-18T07:29:28Z</time></trkpt>
<trkpt lat="43.0624770000" lon="0.1360150000"><ele>721</ele><time>2026-03-18T07:29:30Z</time></trkpt>
<trkpt lat="43.0624920000" lon="0.1359920000"><ele>722</ele><time>2026-03-18T07:29:33Z</time></trkpt>
<trkpt lat="43.0624950000" lon="0.1359600000"><ele>722</ele><time>2026-03-18T07:29:35Z</time></trkpt>
<trkpt lat="43.0624970000" lon="0.1359320000"><ele>723</ele><time>2026-03-18T07:29:43Z</time></trkpt>
<trkpt lat="43.0625220000" lon="0.1359120000"><ele>723</ele><time>2026-03-18T07:29:45Z</time></trkpt>
<trkpt lat="43.0625400000" lon="0.1359220000"><ele>723</ele><time>2026-03-18T07:29:47Z</time></trkpt>
<trkpt lat="43.0625570000" lon="0.1359320000"><ele>723</ele><time>2026-03-18T07:29:49Z</time></trkpt>
<trkpt lat="43.0625770000" lon="0.1359450000"><ele>723</ele><time>2026-03-18T07:29:52Z</time></trkpt>
<trkpt lat="43.0625970000" lon="0.1359420000"><ele>723</ele><time>2026-03-18T07:29:54Z</time></trkpt>
<trkpt lat="43.0626220000" lon="0.1359320000"><ele>723</ele><time>2026-03-18T07:29:56Z</time></trkpt>
<trkpt lat="43.0626400000" lon="0.1359220000"><ele>723</ele><time>2026-03-18T07:29:57Z</time></trkpt>
<trkpt lat="43.0626570000" lon="0.1359100000"><ele>724</ele><time>2026-03-18T07:29:58Z</time></trkpt>
<trkpt lat="43.0626720000" lon="0.1358900000"><ele>724</ele><time>2026-03-18T07:30:01Z</time></trkpt>
<trkpt lat="43.0626820000" lon="0.1358620000"><ele>724</ele><time>2026-03-18T07:30:04Z</time></trkpt>
<trkpt lat="43.0626850000" lon="0.1358320000"><ele>724</ele><time>2026-03-18T07:30:07Z</time></trkpt>
<trkpt lat="43.0626850000" lon="0.1357870000"><ele>724</ele><time>2026-03-18T07:30:09Z</time></trkpt>
<trkpt lat="43.0626920000" lon="0.1357580000"><ele>724</ele><time>2026-03-18T07:30:11Z</time></trkpt>
<trkpt lat="43.0627000000" lon="0.1357370000"><ele>725</ele><time>2026-03-18T07:30:12Z</time></trkpt>
<trkpt lat="43.0627130000" lon="0.1357170000"><ele>725</ele><time>2026-03-18T07:30:14Z</time></trkpt>
<trkpt lat="43.0627270000" lon="0.1356920000"><ele>725</ele><time>2026-03-18T07:30:19Z</time></trkpt>
<trkpt lat="43.0627130000" lon="0.1357120000"><ele>725</ele><time>2026-03-18T07:30:23Z</time></trkpt>
<trkpt lat="43.0627320000" lon="0.1357220000"><ele>725</ele><time>2026-03-18T07:30:39Z</time></trkpt>
<trkpt lat="43.0627470000" lon="0.1357500000"><ele>726</ele><time>2026-03-18T07:35:05Z</time></trkpt>
<trkpt lat="43.0627520000" lon="0.1357820000"><ele>726</ele><time>2026-03-18T07:35:08Z</time></trkpt>
<trkpt lat="43.0627320000" lon="0.1357720000"><ele>726</ele><time>2026-03-18T07:35:19Z</time></trkpt>
<trkpt lat="43.0627130000" lon="0.1357580000"><ele>726</ele><time>2026-03-18T07:35:21Z</time></trkpt>
<trkpt lat="43.0627170000" lon="0.1357350000"><ele>726</ele><time>2026-03-18T07:35:25Z</time></trkpt>
<trkpt lat="43.0627050000" lon="0.1357700000"><ele>726</ele><time>2026-03-18T07:35:47Z</time></trkpt>
<trkpt lat="43.0626920000" lon="0.1358070000"><ele>726</ele><time>2026-03-18T07:35:49Z</time></trkpt>
<trkpt lat="43.0626900000" lon="0.1358450000"><ele>726</ele><time>2026-03-18T07:35:51Z</time></trkpt>
<trkpt lat="43.0627000000" lon="0.1358750000"><ele>726</ele><time>2026-03-18T07:35:54Z</time></trkpt>
<trkpt lat="43.0626870000" lon="0.1359120000"><ele>726</ele><time>2026-03-18T07:35:57Z</time></trkpt>
<trkpt lat="43.0626770000" lon="0.1359470000"><ele>726</ele><time>2026-03-18T07:36:00Z</time></trkpt>
<trkpt lat="43.0626770000" lon="0.1359750000"><ele>726</ele><time>2026-03-18T07:36:02Z</time></trkpt>
<trkpt lat="43.0626720000" lon="0.1360020000"><ele>727</ele><time>2026-03-18T07:36:06Z</time></trkpt>
<trkpt lat="43.0626920000" lon="0.1360020000"><ele>727</ele><time>2026-03-18T07:36:09Z</time></trkpt>
<trkpt lat="43.0627130000" lon="0.1359950000"><ele>728</ele><time>2026-03-18T07:36:12Z</time></trkpt>
<trkpt lat="43.0627420000" lon="0.1359820000"><ele>730</ele><time>2026-03-18T07:36:28Z</time></trkpt>
<trkpt lat="43.0627700000" lon="0.1359720000"><ele>731</ele><time>2026-03-18T07:36:30Z</time></trkpt>
<trkpt lat="43.0627870000" lon="0.1359620000"><ele>731</ele><time>2026-03-18T07:36:32Z</time></trkpt>
<trkpt lat="43.0628070000" lon="0.1359820000"><ele>731</ele><time>2026-03-18T07:36:35Z</time></trkpt>
<trkpt lat="43.0628150000" lon="0.1360100000"><ele>732</ele><time>2026-03-18T07:36:37Z</time></trkpt>
<trkpt lat="43.0628200000" lon="0.1360370000"><ele>732</ele><time>2026-03-18T07:36:39Z</time></trkpt>
<trkpt lat="43.0628200000" lon="0.1360620000"><ele>735</ele><time>2026-03-18T07:36:58Z</time></trkpt>
<trkpt lat="43.0628270000" lon="0.1360870000"><ele>735</ele><time>2026-03-18T07:36:59Z</time></trkpt>
<trkpt lat="43.0628370000" lon="0.1361200000"><ele>735</ele><time>2026-03-18T07:37:00Z</time></trkpt>
<trkpt lat="43.0628470000" lon="0.1361550000"><ele>735</ele><time>2026-03-18T07:37:01Z</time></trkpt>
<trkpt lat="43.0628520000" lon="0.1361830000"><ele>735</ele><time>2026-03-18T07:37:02Z</time></trkpt>
<trkpt lat="43.0628550000" lon="0.1362220000"><ele>735</ele><time>2026-03-18T07:37:04Z</time></trkpt>
<trkpt lat="43.0628650000" lon="0.1362470000"><ele>736</ele><time>2026-03-18T07:37:06Z</time></trkpt>
<trkpt lat="43.0628720000" lon="0.1362800000"><ele>736</ele><time>2026-03-18T07:37:08Z</time></trkpt>
<trkpt lat="43.0628770000" lon="0.1363070000"><ele>736</ele><time>2026-03-18T07:37:12Z</time></trkpt>
<trkpt lat="43.0628970000" lon="0.1363350000"><ele>737</ele><time>2026-03-18T07:37:15Z</time></trkpt>
<trkpt lat="43.0629170000" lon="0.1363520000"><ele>737</ele><time>2026-03-18T07:37:17Z</time></trkpt>
<trkpt lat="43.0629320000" lon="0.1363680000"><ele>737</ele><time>2026-03-18T07:37:21Z</time></trkpt>
<trkpt lat="43.0629470000" lon="0.1363820000"><ele>738</ele><time>2026-03-18T07:37:43Z</time></trkpt>
<trkpt lat="43.0629380000" lon="0.1364120000"><ele>738</ele><time>2026-03-18T07:37:46Z</time></trkpt>
<trkpt lat="43.0629200000" lon="0.1364050000"><ele>738</ele><time>2026-03-18T07:38:07Z</time></trkpt>
<trkpt lat="43.0629070000" lon="0.1363870000"><ele>738</ele><time>2026-03-18T07:38:09Z</time></trkpt>
<trkpt lat="43.0628920000" lon="0.1363680000"><ele>738</ele><time>2026-03-18T07:38:12Z</time></trkpt>
<trkpt lat="43.0628820000" lon="0.1363420000"><ele>738</ele><time>2026-03-18T07:38:16Z</time></trkpt>
<trkpt lat="43.0628920000" lon="0.1363180000"><ele>738</ele><time>2026-03-18T07:38:18Z</time></trkpt>
<trkpt lat="43.0629100000" lon="0.1363000000"><ele>738</ele><time>2026-03-18T07:38:20Z</time></trkpt>
<trkpt lat="43.0629150000" lon="0.1362670000"><ele>738</ele><time>2026-03-18T07:38:22Z</time></trkpt>
<trkpt lat="43.0629320000" lon="0.1362700000"><ele>738</ele><time>2026-03-18T07:38:25Z</time></trkpt>
<trkpt lat="43.0629520000" lon="0.1362770000"><ele>739</ele><time>2026-03-18T07:38:27Z</time></trkpt>
<trkpt lat="43.0629770000" lon="0.1362920000"><ele>739</ele><time>2026-03-18T07:38:29Z</time></trkpt>
<trkpt lat="43.0629970000" lon="0.1362870000"><ele>739</ele><time>2026-03-18T07:38:32Z</time></trkpt>
<trkpt lat="43.0630170000" lon="0.1362870000"><ele>740</ele><time>2026-03-18T07:38:37Z</time></trkpt>
<trkpt lat="43.0630370000" lon="0.1362870000"><ele>741</ele><time>2026-03-18T07:38:44Z</time></trkpt>
<trkpt lat="43.0630670000" lon="0.1362970000"><ele>744</ele><time>2026-03-18T07:39:04Z</time></trkpt>
<trkpt lat="43.0630970000" lon="0.1363050000"><ele>744</ele><time>2026-03-18T07:39:06Z</time></trkpt>
<trkpt lat="43.0631150000" lon="0.1363050000"><ele>744</ele><time>2026-03-18T07:39:08Z</time></trkpt>
<trkpt lat="43.0631370000" lon="0.1362970000"><ele>745</ele><time>2026-03-18T07:39:14Z</time></trkpt>
<trkpt lat="43.0631500000" lon="0.1362720000"><ele>747</ele><time>2026-03-18T07:39:31Z</time></trkpt>
<trkpt lat="43.0631520000" lon="0.1362270000"><ele>748</ele><time>2026-03-18T07:39:33Z</time></trkpt>
<trkpt lat="43.0631550000" lon="0.1361820000"><ele>748</ele><time>2026-03-18T07:39:35Z</time></trkpt>
<trkpt lat="43.0631670000" lon="0.1361570000"><ele>748</ele><time>2026-03-18T07:39:38Z</time></trkpt>
<trkpt lat="43.0631900000" lon="0.1361450000"><ele>748</ele><time>2026-03-18T07:39:41Z</time></trkpt>
<trkpt lat="43.0632050000" lon="0.1361620000"><ele>749</ele><time>2026-03-18T07:39:45Z</time></trkpt>
<trkpt lat="43.0632270000" lon="0.1361700000"><ele>753</ele><time>2026-03-18T07:40:15Z</time></trkpt>
<trkpt lat="43.0632470000" lon="0.1361830000"><ele>753</ele><time>2026-03-18T07:40:17Z</time></trkpt>
<trkpt lat="43.0632720000" lon="0.1362030000"><ele>753</ele><time>2026-03-18T07:40:19Z</time></trkpt>
<trkpt lat="43.0632870000" lon="0.1362200000"><ele>754</ele><time>2026-03-18T07:40:21Z</time></trkpt>
<trkpt lat="43.0633170000" lon="0.1362500000"><ele>754</ele><time>2026-03-18T07:40:23Z</time></trkpt>
<trkpt lat="43.0633270000" lon="0.1362720000"><ele>754</ele><time>2026-03-18T07:40:25Z</time></trkpt>
<trkpt lat="43.0633470000" lon="0.1362900000"><ele>755</ele><time>2026-03-18T07:40:29Z</time></trkpt>
<trkpt lat="43.0633670000" lon="0.1362870000"><ele>755</ele><time>2026-03-18T07:40:32Z</time></trkpt>
<trkpt lat="43.0633870000" lon="0.1362820000"><ele>756</ele><time>2026-03-18T07:40:35Z</time></trkpt>
<trkpt lat="43.0633670000" lon="0.1362750000"><ele>757</ele><time>2026-03-18T07:40:42Z</time></trkpt>
<trkpt lat="43.0633950000" lon="0.1362650000"><ele>761</ele><time>2026-03-18T07:41:19Z</time></trkpt>
<trkpt lat="43.0634220000" lon="0.1362570000"><ele>761</ele><time>2026-03-18T07:41:21Z</time></trkpt>
<trkpt lat="43.0634370000" lon="0.1362370000"><ele>761</ele><time>2026-03-18T07:41:24Z</time></trkpt>
<trkpt lat="43.0634570000" lon="0.1362120000"><ele>764</ele><time>2026-03-18T07:41:44Z</time></trkpt>
<trkpt lat="43.0634820000" lon="0.1361920000"><ele>764</ele><time>2026-03-18T07:41:46Z</time></trkpt>
<trkpt lat="43.0635070000" lon="0.1361870000"><ele>765</ele><time>2026-03-18T07:41:48Z</time></trkpt>
<trkpt lat="43.0635320000" lon="0.1361770000"><ele>765</ele><time>2026-03-18T07:41:50Z</time></trkpt>
<trkpt lat="43.0635500000" lon="0.1361650000"><ele>766</ele><time>2026-03-18T07:41:59Z</time></trkpt>
<trkpt lat="43.0635670000" lon="0.1361620000"><ele>767</ele><time>2026-03-18T07:42:02Z</time></trkpt>
<trkpt lat="43.0635920000" lon="0.1361370000"><ele>773</ele><time>2026-03-18T07:43:09Z</time></trkpt>
<trkpt lat="43.0636120000" lon="0.1361120000"><ele>773</ele><time>2026-03-18T07:43:10Z</time></trkpt>
<trkpt lat="43.0636370000" lon="0.1360770000"><ele>773</ele><time>2026-03-18T07:43:11Z</time></trkpt>
<trkpt lat="43.0636520000" lon="0.1360430000"><ele>773</ele><time>2026-03-18T07:43:12Z</time></trkpt>
<trkpt lat="43.0636650000" lon="0.1360170000"><ele>773</ele><time>2026-03-18T07:43:13Z</time></trkpt>
<trkpt lat="43.0636700000" lon="0.1359870000"><ele>773</ele><time>2026-03-18T07:43:15Z</time></trkpt>
<trkpt lat="43.0636920000" lon="0.1360070000"><ele>773</ele><time>2026-03-18T07:43:20Z</time></trkpt>
<trkpt lat="43.0637070000" lon="0.1360270000"><ele>773</ele><time>2026-03-18T07:43:22Z</time></trkpt>
<trkpt lat="43.0637250000" lon="0.1360630000"><ele>773</ele><time>2026-03-18T07:43:26Z</time></trkpt>
<trkpt lat="43.0637570000" lon="0.1360670000"><ele>774</ele><time>2026-03-18T07:43:36Z</time></trkpt>
<trkpt lat="43.0637800000" lon="0.1360630000"><ele>774</ele><time>2026-03-18T07:43:37Z</time></trkpt>
<trkpt lat="43.0638020000" lon="0.1360620000"><ele>775</ele><time>2026-03-18T07:43:38Z</time></trkpt>
<trkpt lat="43.0638200000" lon="0.1360520000"><ele>775</ele><time>2026-03-18T07:43:39Z</time></trkpt>
<trkpt lat="43.0638370000" lon="0.1360370000"><ele>775</ele><time>2026-03-18T07:43:41Z</time></trkpt>
<trkpt lat="43.0638570000" lon="0.1360320000"><ele>775</ele><time>2026-03-18T07:43:44Z</time></trkpt>
<trkpt lat="43.0638820000" lon="0.1360270000"><ele>776</ele><time>2026-03-18T07:43:46Z</time></trkpt>
<trkpt lat="43.0639020000" lon="0.1360170000"><ele>776</ele><time>2026-03-18T07:43:50Z</time></trkpt>
<trkpt lat="43.0639220000" lon="0.1360120000"><ele>777</ele><time>2026-03-18T07:43:54Z</time></trkpt>
<trkpt lat="43.0639370000" lon="0.1360020000"><ele>777</ele><time>2026-03-18T07:43:59Z</time></trkpt>
<trkpt lat="43.0639300000" lon="0.1359770000"><ele>777</ele><time>2026-03-18T07:44:02Z</time></trkpt>
<trkpt lat="43.0639350000" lon="0.1359470000"><ele>777</ele><time>2026-03-18T07:44:04Z</time></trkpt>
<trkpt lat="43.0639270000" lon="0.1359170000"><ele>778</ele><time>2026-03-18T07:44:08Z</time></trkpt>
<trkpt lat="43.0639200000" lon="0.1358920000"><ele>778</ele><time>2026-03-18T07:44:13Z</time></trkpt>
<trkpt lat="43.0639230000" lon="0.1358520000"><ele>779</ele><time>2026-03-18T07:44:17Z</time></trkpt>
<trkpt lat="43.0639220000" lon="0.1358170000"><ele>779</ele><time>2026-03-18T07:44:19Z</time></trkpt>
<trkpt lat="43.0639350000" lon="0.1357670000"><ele>779</ele><time>2026-03-18T07:44:21Z</time></trkpt>
<trkpt lat="43.0639270000" lon="0.1357420000"><ele>779</ele><time>2026-03-18T07:44:23Z</time></trkpt>
<trkpt lat="43.0639170000" lon="0.1357170000"><ele>779</ele><time>2026-03-18T07:44:24Z</time></trkpt>
<trkpt lat="43.0639350000" lon="0.1356920000"><ele>780</ele><time>2026-03-18T07:44:26Z</time></trkpt>
<trkpt lat="43.0639370000" lon="0.1356670000"><ele>780</ele><time>2026-03-18T07:44:28Z</time></trkpt>
<trkpt lat="43.0639170000" lon="0.1356620000"><ele>780</ele><time>2026-03-18T07:44:30Z</time></trkpt>
<trkpt lat="43.0639300000" lon="0.1356420000"><ele>780</ele><time>2026-03-18T07:44:36Z</time></trkpt>
<trkpt lat="43.0639420000" lon="0.1356100000"><ele>780</ele><time>2026-03-18T07:44:39Z</time></trkpt>
<trkpt lat="43.0639450000" lon="0.1355820000"><ele>780</ele><time>2026-03-18T07:44:41Z</time></trkpt>
<trkpt lat="43.0639520000" lon="0.1355470000"><ele>780</ele><time>2026-03-18T07:44:45Z</time></trkpt>
<trkpt lat="43.0639600000" lon="0.1355170000"><ele>780</ele><time>2026-03-18T07:44:47Z</time></trkpt>
<trkpt lat="43.0639620000" lon="0.1354920000"><ele>781</ele><time>2026-03-18T07:44:49Z</time></trkpt>
<trkpt lat="43.0639770000" lon="0.1354670000"><ele>781</ele><time>2026-03-18T07:44:51Z</time></trkpt>
<trkpt lat="43.0639900000" lon="0.1354420000"><ele>781</ele><time>2026-03-18T07:44:53Z</time></trkpt>
<trkpt lat="43.0639930000" lon="0.1354170000"><ele>781</ele><time>2026-03-18T07:44:55Z</time></trkpt>
<trkpt lat="43.0639930000" lon="0.1353900000"><ele>781</ele><time>2026-03-18T07:44:57Z</time></trkpt>
<trkpt lat="43.0640070000" lon="0.1353620000"><ele>782</ele><time>2026-03-18T07:45:00Z</time></trkpt>
<trkpt lat="43.0640070000" lon="0.1353300000"><ele>782</ele><time>2026-03-18T07:45:03Z</time></trkpt>
<trkpt lat="43.0640070000" lon="0.1353000000"><ele>782</ele><time>2026-03-18T07:45:05Z</time></trkpt>
<trkpt lat="43.0640050000" lon="0.1352700000"><ele>783</ele><time>2026-03-18T07:45:07Z</time></trkpt>
<trkpt lat="43.0640020000" lon="0.1352370000"><ele>783</ele><time>2026-03-18T07:45:09Z</time></trkpt>
<trkpt lat="43.0639970000" lon="0.1352080000"><ele>783</ele><time>2026-03-18T07:45:11Z</time></trkpt>
<trkpt lat="43.0640020000" lon="0.1351750000"><ele>783</ele><time>2026-03-18T07:45:14Z</time></trkpt>
<trkpt lat="43.0640150000" lon="0.1351520000"><ele>784</ele><time>2026-03-18T07:45:16Z</time></trkpt>
<trkpt lat="43.0640220000" lon="0.1351270000"><ele>784</ele><time>2026-03-18T07:45:18Z</time></trkpt>
<trkpt lat="43.0640270000" lon="0.1350880000"><ele>784</ele><time>2026-03-18T07:45:21Z</time></trkpt>
<trkpt lat="43.0640350000" lon="0.1350630000"><ele>785</ele><time>2026-03-18T07:45:23Z</time></trkpt>
<trkpt lat="43.0640400000" lon="0.1350400000"><ele>785</ele><time>2026-03-18T07:45:25Z</time></trkpt>
<trkpt lat="43.0640470000" lon="0.1350100000"><ele>785</ele><time>2026-03-18T07:45:27Z</time></trkpt>
<trkpt lat="43.0640570000" lon="0.1349870000"><ele>785</ele><time>2026-03-18T07:45:29Z</time></trkpt>
<trkpt lat="43.0640500000" lon="0.1349570000"><ele>785</ele><time>2026-03-18T07:45:32Z</time></trkpt>
<trkpt lat="43.0640470000" lon="0.1349280000"><ele>785</ele><time>2026-03-18T07:45:34Z</time></trkpt>
<trkpt lat="43.0640420000" lon="0.1348950000"><ele>786</ele><time>2026-03-18T07:45:36Z</time></trkpt>
<trkpt lat="43.0640470000" lon="0.1348570000"><ele>786</ele><time>2026-03-18T07:45:38Z</time></trkpt>
<trkpt lat="43.0640450000" lon="0.1348300000"><ele>786</ele><time>2026-03-18T07:45:40Z</time></trkpt>
<trkpt lat="43.0640420000" lon="0.1348000000"><ele>787</ele><time>2026-03-18T07:45:42Z</time></trkpt>
<trkpt lat="43.0640370000" lon="0.1347620000"><ele>787</ele><time>2026-03-18T07:45:50Z</time></trkpt>
<trkpt lat="43.0640320000" lon="0.1347270000"><ele>788</ele><time>2026-03-18T07:45:52Z</time></trkpt>
<trkpt lat="43.0640270000" lon="0.1346820000"><ele>788</ele><time>2026-03-18T07:45:54Z</time></trkpt>
<trkpt lat="43.0640370000" lon="0.1346530000"><ele>788</ele><time>2026-03-18T07:45:56Z</time></trkpt>
<trkpt lat="43.0640470000" lon="0.1346170000"><ele>788</ele><time>2026-03-18T07:45:58Z</time></trkpt>
<trkpt lat="43.0640450000" lon="0.1345870000"><ele>788</ele><time>2026-03-18T07:46:00Z</time></trkpt>
<trkpt lat="43.0640520000" lon="0.1345620000"><ele>789</ele><time>2026-03-18T07:46:03Z</time></trkpt>
<trkpt lat="43.0640600000" lon="0.1345370000"><ele>789</ele><time>2026-03-18T07:46:05Z</time></trkpt>
<trkpt lat="43.0640650000" lon="0.1345020000"><ele>789</ele><time>2026-03-18T07:46:07Z</time></trkpt>
<trkpt lat="43.0640670000" lon="0.1344720000"><ele>789</ele><time>2026-03-18T07:46:10Z</time></trkpt>
<trkpt lat="43.0640520000" lon="0.1344370000"><ele>789</ele><time>2026-03-18T07:46:13Z</time></trkpt>
<trkpt lat="43.0640520000" lon="0.1344100000"><ele>789</ele><time>2026-03-18T07:46:15Z</time></trkpt>
<trkpt lat="43.0640500000" lon="0.1343770000"><ele>789</ele><time>2026-03-18T07:46:17Z</time></trkpt>
<trkpt lat="43.0640520000" lon="0.1343520000"><ele>789</ele><time>2026-03-18T07:46:19Z</time></trkpt>
<trkpt lat="43.0640670000" lon="0.1343270000"><ele>789</ele><time>2026-03-18T07:46:21Z</time></trkpt>
<trkpt lat="43.0640670000" lon="0.1342970000"><ele>789</ele><time>2026-03-18T07:46:23Z</time></trkpt>
<trkpt lat="43.0640670000" lon="0.1342670000"><ele>789</ele><time>2026-03-18T07:46:25Z</time></trkpt>
<trkpt lat="43.0640520000" lon="0.1342320000"><ele>790</ele><time>2026-03-18T07:46:27Z</time></trkpt>
<trkpt lat="43.0640620000" lon="0.1342020000"><ele>790</ele><time>2026-03-18T07:46:29Z</time></trkpt>
<trkpt lat="43.0640750000" lon="0.1341670000"><ele>790</ele><time>2026-03-18T07:46:31Z</time></trkpt>
<trkpt lat="43.0640850000" lon="0.1341370000"><ele>790</ele><time>2026-03-18T07:46:34Z</time></trkpt>
<trkpt lat="43.0640970000" lon="0.1341120000"><ele>790</ele><time>2026-03-18T07:46:36Z</time></trkpt>
<trkpt lat="43.0641050000" lon="0.1340820000"><ele>790</ele><time>2026-03-18T07:46:39Z</time></trkpt>
<trkpt lat="43.0641150000" lon="0.1340600000"><ele>790</ele><time>2026-03-18T07:46:42Z</time></trkpt>
<trkpt lat="43.0641120000" lon="0.1340320000"><ele>790</ele><time>2026-03-18T07:46:44Z</time></trkpt>
<trkpt lat="43.0641120000" lon="0.1340000000"><ele>790</ele><time>2026-03-18T07:46:46Z</time></trkpt>
<trkpt lat="43.0641170000" lon="0.1339620000"><ele>790</ele><time>2026-03-18T07:46:48Z</time></trkpt>
<trkpt lat="43.0641220000" lon="0.1339270000"><ele>790</ele><time>2026-03-18T07:46:50Z</time></trkpt>
<trkpt lat="43.0641250000" lon="0.1339020000"><ele>790</ele><time>2026-03-18T07:46:51Z</time></trkpt>
<trkpt lat="43.0641320000" lon="0.1338600000"><ele>790</ele><time>2026-03-18T07:46:53Z</time></trkpt>
<trkpt lat="43.0641420000" lon="0.1338270000"><ele>790</ele><time>2026-03-18T07:46:55Z</time></trkpt>
<trkpt lat="43.0641450000" lon="0.1337970000"><ele>790</ele><time>2026-03-18T07:46:57Z</time></trkpt>
<trkpt lat="43.0641450000" lon="0.1337670000"><ele>790</ele><time>2026-03-18T07:46:59Z</time></trkpt>
<trkpt lat="43.0641480000" lon="0.1337420000"><ele>791</ele><time>2026-03-18T07:47:01Z</time></trkpt>
<trkpt lat="43.0641570000" lon="0.1337200000"><ele>791</ele><time>2026-03-18T07:47:03Z</time></trkpt>
<trkpt lat="43.0641550000" lon="0.1336870000"><ele>790</ele><time>2026-03-18T07:47:05Z</time></trkpt>
<trkpt lat="43.0641570000" lon="0.1336470000"><ele>791</ele><time>2026-03-18T07:47:07Z</time></trkpt>
<trkpt lat="43.0641550000" lon="0.1336150000"><ele>791</ele><time>2026-03-18T07:47:09Z</time></trkpt>
<trkpt lat="43.0641470000" lon="0.1335850000"><ele>791</ele><time>2026-03-18T07:47:11Z</time></trkpt>
<trkpt lat="43.0641470000" lon="0.1335430000"><ele>791</ele><time>2026-03-18T07:47:14Z</time></trkpt>
<trkpt lat="43.0641450000" lon="0.1335170000"><ele>791</ele><time>2026-03-18T07:47:16Z</time></trkpt>
<trkpt lat="43.0641400000" lon="0.1334870000"><ele>791</ele><time>2026-03-18T07:47:18Z</time></trkpt>
<trkpt lat="43.0641470000" lon="0.1334570000"><ele>792</ele><time>2026-03-18T07:47:20Z</time></trkpt>
<trkpt lat="43.0641520000" lon="0.1334220000"><ele>792</ele><time>2026-03-18T07:47:23Z</time></trkpt>
<trkpt lat="43.0641600000" lon="0.1333920000"><ele>792</ele><time>2026-03-18T07:47:25Z</time></trkpt>
<trkpt lat="43.0641620000" lon="0.1333570000"><ele>792</ele><time>2026-03-18T07:47:27Z</time></trkpt>
<trkpt lat="43.0641620000" lon="0.1333220000"><ele>792</ele><time>2026-03-18T07:47:29Z</time></trkpt>
<trkpt lat="43.0641800000" lon="0.1332920000"><ele>793</ele><time>2026-03-18T07:47:31Z</time></trkpt>
<trkpt lat="43.0641920000" lon="0.1332680000"><ele>793</ele><time>2026-03-18T07:47:40Z</time></trkpt>
<trkpt lat="43.0641970000" lon="0.1332370000"><ele>793</ele><time>2026-03-18T07:47:43Z</time></trkpt>
<trkpt lat="43.0642100000" lon="0.1332070000"><ele>793</ele><time>2026-03-18T07:47:46Z</time></trkpt>
<trkpt lat="43.0642200000" lon="0.1331870000"><ele>793</ele><time>2026-03-18T07:47:49Z</time></trkpt>
<trkpt lat="43.0642070000" lon="0.1331670000"><ele>793</ele><time>2026-03-18T07:48:05Z</time></trkpt>
<trkpt lat="43.0642070000" lon="0.1331320000"><ele>793</ele><time>2026-03-18T07:48:07Z</time></trkpt>
<trkpt lat="43.0641970000" lon="0.1330800000"><ele>793</ele><time>2026-03-18T07:48:09Z</time></trkpt>
<trkpt lat="43.0641920000" lon="0.1330520000"><ele>793</ele><time>2026-03-18T07:48:10Z</time></trkpt>
<trkpt lat="43.0641820000" lon="0.1330070000"><ele>793</ele><time>2026-03-18T07:48:12Z</time></trkpt>
<trkpt lat="43.0641800000" lon="0.1329820000"><ele>793</ele><time>2026-03-18T07:48:14Z</time></trkpt>
<trkpt lat="43.0641820000" lon="0.1329550000"><ele>793</ele><time>2026-03-18T07:48:16Z</time></trkpt>
<trkpt lat="43.0641870000" lon="0.1329150000"><ele>793</ele><time>2026-03-18T07:48:19Z</time></trkpt>
<trkpt lat="43.0642020000" lon="0.1328680000"><ele>793</ele><time>2026-03-18T07:48:21Z</time></trkpt>
<trkpt lat="43.0642070000" lon="0.1328430000"><ele>793</ele><time>2026-03-18T07:48:23Z</time></trkpt>
<trkpt lat="43.0642220000" lon="0.1328620000"><ele>793</ele><time>2026-03-18T07:48:34Z</time></trkpt>
<trkpt lat="43.0642470000" lon="0.1328730000"><ele>793</ele><time>2026-03-18T07:49:00Z</time></trkpt>
<trkpt lat="43.0642550000" lon="0.1329100000"><ele>793</ele><time>2026-03-18T07:49:02Z</time></trkpt>
<trkpt lat="43.0642520000" lon="0.1329350000"><ele>793</ele><time>2026-03-18T07:49:04Z</time></trkpt>
<trkpt lat="43.0642470000" lon="0.1329720000"><ele>793</ele><time>2026-03-18T07:49:06Z</time></trkpt>
<trkpt lat="43.0642250000" lon="0.1329780000"><ele>793</ele><time>2026-03-18T07:49:08Z</time></trkpt>
<trkpt lat="43.0642070000" lon="0.1329880000"><ele>793</ele><time>2026-03-18T07:50:34Z</time></trkpt>
<trkpt lat="43.0642200000" lon="0.1329650000"><ele>793</ele><time>2026-03-18T07:50:37Z</time></trkpt>
<trkpt lat="43.0642200000" lon="0.1329370000"><ele>793</ele><time>2026-03-18T07:50:40Z</time></trkpt>
<trkpt lat="43.0642070000" lon="0.1329020000"><ele>792</ele><time>2026-03-18T07:53:03Z</time></trkpt>
<trkpt lat="43.0641920000" lon="0.1328870000"><ele>792</ele><time>2026-03-18T07:53:06Z</time></trkpt>
<trkpt lat="43.0642070000" lon="0.1328670000"><ele>792</ele><time>2026-03-18T07:54:29Z</time></trkpt>
<trkpt lat="43.0642320000" lon="0.1328720000"><ele>792</ele><time>2026-03-18T07:54:31Z</time></trkpt>
<trkpt lat="43.0642520000" lon="0.1328800000"><ele>792</ele><time>2026-03-18T07:54:33Z</time></trkpt>
<trkpt lat="43.0642570000" lon="0.1329050000"><ele>792</ele><time>2026-03-18T07:54:38Z</time></trkpt>
<trkpt lat="43.0642420000" lon="0.1329220000"><ele>792</ele><time>2026-03-18T07:54:41Z</time></trkpt>
<trkpt lat="43.0642300000" lon="0.1329400000"><ele>792</ele><time>2026-03-18T07:54:43Z</time></trkpt>
<trkpt lat="43.0642120000" lon="0.1329520000"><ele>792</ele><time>2026-03-18T07:54:45Z</time></trkpt>
<trkpt lat="43.0641920000" lon="0.1329670000"><ele>792</ele><time>2026-03-18T07:54:47Z</time></trkpt>
<trkpt lat="43.0641670000" lon="0.1329720000"><ele>792</ele><time>2026-03-18T07:54:49Z</time></trkpt>
<trkpt lat="43.0641470000" lon="0.1329780000"><ele>792</ele><time>2026-03-18T07:54:51Z</time></trkpt>
<trkpt lat="43.0641700000" lon="0.1329600000"><ele>792</ele><time>2026-03-18T07:55:12Z</time></trkpt>
<trkpt lat="43.0641950000" lon="0.1329320000"><ele>792</ele><time>2026-03-18T07:55:14Z</time></trkpt>
<trkpt lat="43.0642150000" lon="0.1329050000"><ele>792</ele><time>2026-03-18T07:55:16Z</time></trkpt>
<trkpt lat="43.0642170000" lon="0.1329350000"><ele>792</ele><time>2026-03-18T07:55:17Z</time></trkpt>
<trkpt lat="43.0642320000" lon="0.1329520000"><ele>792</ele><time>2026-03-18T07:55:18Z</time></trkpt>
<trkpt lat="43.0642100000" lon="0.1329650000"><ele>792</ele><time>2026-03-18T07:56:11Z</time></trkpt>
<trkpt lat="43.0641900000" lon="0.1329780000"><ele>793</ele><time>2026-03-18T07:56:14Z</time></trkpt>
<trkpt lat="43.0642120000" lon="0.1329470000"><ele>793</ele><time>2026-03-18T07:56:32Z</time></trkpt>
<trkpt lat="43.0642300000" lon="0.1329020000"><ele>793</ele><time>2026-03-18T07:56:34Z</time></trkpt>
<trkpt lat="43.0642370000" lon="0.1328770000"><ele>793</ele><time>2026-03-18T07:56:35Z</time></trkpt>
<trkpt lat="43.0642520000" lon="0.1328420000"><ele>793</ele><time>2026-03-18T07:56:37Z</time></trkpt>
<trkpt lat="43.0642570000" lon="0.1328170000"><ele>793</ele><time>2026-03-18T07:56:39Z</time></trkpt>
<trkpt lat="43.0642600000" lon="0.1327750000"><ele>793</ele><time>2026-03-18T07:56:42Z</time></trkpt>
<trkpt lat="43.0642650000" lon="0.1327420000"><ele>793</ele><time>2026-03-18T07:56:44Z</time></trkpt>
<trkpt lat="43.0642600000" lon="0.1327130000"><ele>793</ele><time>2026-03-18T07:56:46Z</time></trkpt>
<trkpt lat="43.0642570000" lon="0.1326870000"><ele>793</ele><time>2026-03-18T07:56:48Z</time></trkpt>
<trkpt lat="43.0642570000" lon="0.1326570000"><ele>793</ele><time>2026-03-18T07:56:50Z</time></trkpt>
<trkpt lat="43.0642670000" lon="0.1326270000"><ele>792</ele><time>2026-03-18T07:56:52Z</time></trkpt>
<trkpt lat="43.0642700000" lon="0.1325920000"><ele>792</ele><time>2026-03-18T07:56:55Z</time></trkpt>
<trkpt lat="43.0642750000" lon="0.1325670000"><ele>792</ele><time>2026-03-18T07:56:57Z</time></trkpt>
<trkpt lat="43.0642770000" lon="0.1325320000"><ele>792</ele><time>2026-03-18T07:56:59Z</time></trkpt>
<trkpt lat="43.0642900000" lon="0.1324970000"><ele>792</ele><time>2026-03-18T07:57:01Z</time></trkpt>
<trkpt lat="43.0642870000" lon="0.1324620000"><ele>792</ele><time>2026-03-18T07:57:03Z</time></trkpt>
<trkpt lat="43.0642920000" lon="0.1324370000"><ele>791</ele><time>2026-03-18T07:57:05Z</time></trkpt>
<trkpt lat="43.0642870000" lon="0.1324100000"><ele>791</ele><time>2026-03-18T07:57:07Z</time></trkpt>
<trkpt lat="43.0642820000" lon="0.1323800000"><ele>791</ele><time>2026-03-18T07:57:09Z</time></trkpt>
<trkpt lat="43.0642770000" lon="0.1323550000"><ele>790</ele><time>2026-03-18T07:57:13Z</time></trkpt>
<trkpt lat="43.0642770000" lon="0.1323270000"><ele>790</ele><time>2026-03-18T07:57:15Z</time></trkpt>
<trkpt lat="43.0642750000" lon="0.1322970000"><ele>790</ele><time>2026-03-18T07:57:17Z</time></trkpt>
<trkpt lat="43.0642770000" lon="0.1322700000"><ele>789</ele><time>2026-03-18T07:57:19Z</time></trkpt>
<trkpt lat="43.0642820000" lon="0.1322370000"><ele>789</ele><time>2026-03-18T07:57:22Z</time></trkpt>
<trkpt lat="43.0642750000" lon="0.1321950000"><ele>789</ele><time>2026-03-18T07:57:24Z</time></trkpt>
<trkpt lat="43.0642670000" lon="0.1321620000"><ele>788</ele><time>2026-03-18T07:57:26Z</time></trkpt>
<trkpt lat="43.0642670000" lon="0.1321320000"><ele>788</ele><time>2026-03-18T07:57:28Z</time></trkpt>
<trkpt lat="43.0642700000" lon="0.1321070000"><ele>788</ele><time>2026-03-18T07:57:30Z</time></trkpt>
<trkpt lat="43.0642750000" lon="0.1320720000"><ele>787</ele><time>2026-03-18T07:57:32Z</time></trkpt>
<trkpt lat="43.0642820000" lon="0.1320470000"><ele>787</ele><time>2026-03-18T07:57:33Z</time></trkpt>
<trkpt lat="43.0642870000" lon="0.1320120000"><ele>787</ele><time>2026-03-18T07:57:35Z</time></trkpt>
<trkpt lat="43.0642900000" lon="0.1319850000"><ele>787</ele><time>2026-03-18T07:57:37Z</time></trkpt>
<trkpt lat="43.0642850000" lon="0.1319570000"><ele>786</ele><time>2026-03-18T07:57:39Z</time></trkpt>
<trkpt lat="43.0642770000" lon="0.1319280000"><ele>786</ele><time>2026-03-18T07:57:41Z</time></trkpt>
<trkpt lat="43.0642800000" lon="0.1318970000"><ele>786</ele><time>2026-03-18T07:57:43Z</time></trkpt>
<trkpt lat="43.0642770000" lon="0.1318500000"><ele>786</ele><time>2026-03-18T07:57:45Z</time></trkpt>
<trkpt lat="43.0642770000" lon="0.1318070000"><ele>785</ele><time>2026-03-18T07:57:47Z</time></trkpt>
<trkpt lat="43.0642720000" lon="0.1317770000"><ele>785</ele><time>2026-03-18T07:57:49Z</time></trkpt>
<trkpt lat="43.0642770000" lon="0.1317520000"><ele>785</ele><time>2026-03-18T07:57:51Z</time></trkpt>
<trkpt lat="43.0642850000" lon="0.1317270000"><ele>784</ele><time>2026-03-18T07:57:53Z</time></trkpt>
<trkpt lat="43.0642920000" lon="0.1317020000"><ele>784</ele><time>2026-03-18T07:57:55Z</time></trkpt>
<trkpt lat="43.0643070000" lon="0.1316770000"><ele>784</ele><time>2026-03-18T07:57:57Z</time></trkpt>
<trkpt lat="43.0643100000" lon="0.1316520000"><ele>784</ele><time>2026-03-18T07:57:59Z</time></trkpt>
<trkpt lat="43.0643170000" lon="0.1316230000"><ele>783</ele><time>2026-03-18T07:58:01Z</time></trkpt>
<trkpt lat="43.0643270000" lon="0.1315920000"><ele>783</ele><time>2026-03-18T07:58:03Z</time></trkpt>
<trkpt lat="43.0643220000" lon="0.1315550000"><ele>782</ele><time>2026-03-18T07:58:05Z</time></trkpt>
<trkpt lat="43.0643120000" lon="0.1315200000"><ele>782</ele><time>2026-03-18T07:58:07Z</time></trkpt>
<trkpt lat="43.0643000000" lon="0.1314970000"><ele>782</ele><time>2026-03-18T07:58:09Z</time></trkpt>
<trkpt lat="43.0642820000" lon="0.1314720000"><ele>781</ele><time>2026-03-18T07:58:12Z</time></trkpt>
<trkpt lat="43.0642720000" lon="0.1314450000"><ele>780</ele><time>2026-03-18T07:58:14Z</time></trkpt>
<trkpt lat="43.0642670000" lon="0.1314170000"><ele>780</ele><time>2026-03-18T07:58:16Z</time></trkpt>
<trkpt lat="43.0642370000" lon="0.1313970000"><ele>780</ele><time>2026-03-18T07:58:19Z</time></trkpt>
<trkpt lat="43.0642150000" lon="0.1313820000"><ele>780</ele><time>2026-03-18T07:58:21Z</time></trkpt>
<trkpt lat="43.0641970000" lon="0.1313770000"><ele>780</ele><time>2026-03-18T07:58:22Z</time></trkpt>
<trkpt lat="43.0641770000" lon="0.1313670000"><ele>780</ele><time>2026-03-18T07:58:23Z</time></trkpt>
<trkpt lat="43.0641600000" lon="0.1313670000"><ele>780</ele><time>2026-03-18T07:58:24Z</time></trkpt>
<trkpt lat="43.0641320000" lon="0.1313620000"><ele>780</ele><time>2026-03-18T07:58:26Z</time></trkpt>
<trkpt lat="43.0641100000" lon="0.1313650000"><ele>780</ele><time>2026-03-18T07:58:28Z</time></trkpt>
<trkpt lat="43.0640770000" lon="0.1313670000"><ele>779</ele><time>2026-03-18T07:58:31Z</time></trkpt>
<trkpt lat="43.0640620000" lon="0.1313970000"><ele>779</ele><time>2026-03-18T07:58:33Z</time></trkpt>
<trkpt lat="43.0640520000" lon="0.1314170000"><ele>779</ele><time>2026-03-18T07:58:39Z</time></trkpt>
<trkpt lat="43.0640320000" lon="0.1314350000"><ele>779</ele><time>2026-03-18T07:58:43Z</time></trkpt>
<trkpt lat="43.0640100000" lon="0.1314450000"><ele>779</ele><time>2026-03-18T07:58:45Z</time></trkpt>
<trkpt lat="43.0639900000" lon="0.1314450000"><ele>778</ele><time>2026-03-18T07:58:47Z</time></trkpt>
<trkpt lat="43.0639700000" lon="0.1314470000"><ele>778</ele><time>2026-03-18T07:58:49Z</time></trkpt>
<trkpt lat="43.0639470000" lon="0.1314570000"><ele>778</ele><time>2026-03-18T07:58:51Z</time></trkpt>
<trkpt lat="43.0639170000" lon="0.1314720000"><ele>778</ele><time>2026-03-18T07:58:53Z</time></trkpt>
<trkpt lat="43.0638900000" lon="0.1315020000"><ele>778</ele><time>2026-03-18T07:58:55Z</time></trkpt>
<trkpt lat="43.0638770000" lon="0.1315220000"><ele>778</ele><time>2026-03-18T07:58:56Z</time></trkpt>
<trkpt lat="43.0638520000" lon="0.1315500000"><ele>777</ele><time>2026-03-18T07:58:58Z</time></trkpt>
<trkpt lat="43.0638270000" lon="0.1315520000"><ele>777</ele><time>2026-03-18T07:59:01Z</time></trkpt>
<trkpt lat="43.0638020000" lon="0.1315570000"><ele>777</ele><time>2026-03-18T07:59:03Z</time></trkpt>
<trkpt lat="43.0637820000" lon="0.1315320000"><ele>777</ele><time>2026-03-18T07:59:04Z</time></trkpt>
<trkpt lat="43.0637570000" lon="0.1315470000"><ele>777</ele><time>2026-03-18T07:59:06Z</time></trkpt>
<trkpt lat="43.0637320000" lon="0.1315400000"><ele>777</ele><time>2026-03-18T07:59:08Z</time></trkpt>
<trkpt lat="43.0637120000" lon="0.1315270000"><ele>777</ele><time>2026-03-18T07:59:10Z</time></trkpt>
<trkpt lat="43.0636920000" lon="0.1315270000"><ele>776</ele><time>2026-03-18T07:59:12Z</time></trkpt>
<trkpt lat="43.0636700000" lon="0.1315420000"><ele>776</ele><time>2026-03-18T07:59:14Z</time></trkpt>
<trkpt lat="43.0636470000" lon="0.1315720000"><ele>776</ele><time>2026-03-18T07:59:18Z</time></trkpt>
<trkpt lat="43.0636200000" lon="0.1315820000"><ele>776</ele><time>2026-03-18T07:59:20Z</time></trkpt>
<trkpt lat="43.0635870000" lon="0.1315820000"><ele>776</ele><time>2026-03-18T07:59:22Z</time></trkpt>
<trkpt lat="43.0635600000" lon="0.1315820000"><ele>776</ele><time>2026-03-18T07:59:24Z</time></trkpt>
<trkpt lat="43.0635370000" lon="0.1315770000"><ele>776</ele><time>2026-03-18T07:59:26Z</time></trkpt>
<trkpt lat="43.0635070000" lon="0.1315670000"><ele>776</ele><time>2026-03-18T07:59:28Z</time></trkpt>
<trkpt lat="43.0634870000" lon="0.1315720000"><ele>776</ele><time>2026-03-18T07:59:30Z</time></trkpt>
<trkpt lat="43.0634650000" lon="0.1315800000"><ele>776</ele><time>2026-03-18T07:59:32Z</time></trkpt>
<trkpt lat="43.0634450000" lon="0.1315820000"><ele>776</ele><time>2026-03-18T07:59:34Z</time></trkpt>
<trkpt lat="43.0634220000" lon="0.1315800000"><ele>776</ele><time>2026-03-18T07:59:36Z</time></trkpt>
<trkpt lat="43.0634000000" lon="0.1315750000"><ele>777</ele><time>2026-03-18T07:59:38Z</time></trkpt>
<trkpt lat="43.0633770000" lon="0.1315920000"><ele>777</ele><time>2026-03-18T07:59:40Z</time></trkpt>
<trkpt lat="43.0633570000" lon="0.1316070000"><ele>776</ele><time>2026-03-18T07:59:42Z</time></trkpt>
<trkpt lat="43.0633220000" lon="0.1316270000"><ele>776</ele><time>2026-03-18T07:59:44Z</time></trkpt>
<trkpt lat="43.0632870000" lon="0.1316420000"><ele>776</ele><time>2026-03-18T07:59:46Z</time></trkpt>
<trkpt lat="43.0632570000" lon="0.1316320000"><ele>776</ele><time>2026-03-18T07:59:48Z</time></trkpt>
<trkpt lat="43.0632450000" lon="0.1316480000"><ele>776</ele><time>2026-03-18T07:59:49Z</time></trkpt>
<trkpt lat="43.0632350000" lon="0.1316120000"><ele>776</ele><time>2026-03-18T07:59:51Z</time></trkpt>
<trkpt lat="43.0632350000" lon="0.1315850000"><ele>776</ele><time>2026-03-18T07:59:52Z</time></trkpt>
<trkpt lat="43.0632270000" lon="0.1315520000"><ele>776</ele><time>2026-03-18T07:59:53Z</time></trkpt>
<trkpt lat="43.0632250000" lon="0.1315170000"><ele>776</ele><time>2026-03-18T07:59:55Z</time></trkpt>
<trkpt lat="43.0632170000" lon="0.1314920000"><ele>777</ele><time>2026-03-18T07:59:58Z</time></trkpt>
<trkpt lat="43.0632450000" lon="0.1314800000"><ele>777</ele><time>2026-03-18T08:00:07Z</time></trkpt>
<trkpt lat="43.0632170000" lon="0.1314920000"><ele>777</ele><time>2026-03-18T08:00:13Z</time></trkpt>
<trkpt lat="43.0631870000" lon="0.1315220000"><ele>777</ele><time>2026-03-18T08:00:15Z</time></trkpt>
<trkpt lat="43.0631570000" lon="0.1315470000"><ele>777</ele><time>2026-03-18T08:00:17Z</time></trkpt>
<trkpt lat="43.0631420000" lon="0.1315700000"><ele>776</ele><time>2026-03-18T08:00:19Z</time></trkpt>
<trkpt lat="43.0631220000" lon="0.1315850000"><ele>776</ele><time>2026-03-18T08:00:21Z</time></trkpt>
<trkpt lat="43.0631000000" lon="0.1316100000"><ele>777</ele><time>2026-03-18T08:00:23Z</time></trkpt>
<trkpt lat="43.0630770000" lon="0.1316230000"><ele>777</ele><time>2026-03-18T08:00:25Z</time></trkpt>
<trkpt lat="43.0630570000" lon="0.1316220000"><ele>777</ele><time>2026-03-18T08:00:27Z</time></trkpt>
<trkpt lat="43.0630320000" lon="0.1316070000"><ele>777</ele><time>2026-03-18T08:00:29Z</time></trkpt>
<trkpt lat="43.0630470000" lon="0.1315870000"><ele>777</ele><time>2026-03-18T08:00:34Z</time></trkpt>
<trkpt lat="43.0630350000" lon="0.1316100000"><ele>777</ele><time>2026-03-18T08:00:43Z</time></trkpt>
<trkpt lat="43.0630220000" lon="0.1316270000"><ele>777</ele><time>2026-03-18T08:00:47Z</time></trkpt>
<trkpt lat="43.0630020000" lon="0.1316470000"><ele>777</ele><time>2026-03-18T08:00:49Z</time></trkpt>
<trkpt lat="43.0629770000" lon="0.1316700000"><ele>777</ele><time>2026-03-18T08:00:51Z</time></trkpt>
<trkpt lat="43.0629570000" lon="0.1316600000"><ele>777</ele><time>2026-03-18T08:00:55Z</time></trkpt>
<trkpt lat="43.0629420000" lon="0.1316400000"><ele>777</ele><time>2026-03-18T08:01:13Z</time></trkpt>
<trkpt lat="43.0629120000" lon="0.1316420000"><ele>778</ele><time>2026-03-18T08:01:15Z</time></trkpt>
<trkpt lat="43.0628950000" lon="0.1316420000"><ele>778</ele><time>2026-03-18T08:01:16Z</time></trkpt>
<trkpt lat="43.0628720000" lon="0.1316450000"><ele>778</ele><time>2026-03-18T08:01:18Z</time></trkpt>
<trkpt lat="43.0628570000" lon="0.1316570000"><ele>778</ele><time>2026-03-18T08:01:21Z</time></trkpt>
<trkpt lat="43.0628370000" lon="0.1316550000"><ele>778</ele><time>2026-03-18T08:01:23Z</time></trkpt>
<trkpt lat="43.0628120000" lon="0.1316620000"><ele>778</ele><time>2026-03-18T08:01:25Z</time></trkpt>
<trkpt lat="43.0627870000" lon="0.1316800000"><ele>778</ele><time>2026-03-18T08:01:27Z</time></trkpt>
<trkpt lat="43.0627650000" lon="0.1316900000"><ele>778</ele><time>2026-03-18T08:01:29Z</time></trkpt>
<trkpt lat="43.0627470000" lon="0.1317070000"><ele>779</ele><time>2026-03-18T08:01:31Z</time></trkpt>
<trkpt lat="43.0627270000" lon="0.1317270000"><ele>779</ele><time>2026-03-18T08:01:33Z</time></trkpt>
<trkpt lat="43.0627070000" lon="0.1317570000"><ele>779</ele><time>2026-03-18T08:01:36Z</time></trkpt>
<trkpt lat="43.0626970000" lon="0.1317820000"><ele>779</ele><time>2026-03-18T08:01:38Z</time></trkpt>
<trkpt lat="43.0626820000" lon="0.1317970000"><ele>779</ele><time>2026-03-18T08:01:40Z</time></trkpt>
<trkpt lat="43.0626620000" lon="0.1318120000"><ele>780</ele><time>2026-03-18T08:01:42Z</time></trkpt>
<trkpt lat="43.0626420000" lon="0.1318350000"><ele>780</ele><time>2026-03-18T08:01:45Z</time></trkpt>
<trkpt lat="43.0626200000" lon="0.1318520000"><ele>780</ele><time>2026-03-18T08:01:48Z</time></trkpt>
<trkpt lat="43.0625970000" lon="0.1318570000"><ele>780</ele><time>2026-03-18T08:01:51Z</time></trkpt>
<trkpt lat="43.0625720000" lon="0.1318650000"><ele>780</ele><time>2026-03-18T08:01:53Z</time></trkpt>
<trkpt lat="43.0625570000" lon="0.1318770000"><ele>781</ele><time>2026-03-18T08:01:56Z</time></trkpt>
<trkpt lat="43.0625350000" lon="0.1318920000"><ele>781</ele><time>2026-03-18T08:01:59Z</time></trkpt>
<trkpt lat="43.0625150000" lon="0.1319030000"><ele>781</ele><time>2026-03-18T08:02:01Z</time></trkpt>
<trkpt lat="43.0624950000" lon="0.1319100000"><ele>781</ele><time>2026-03-18T08:02:03Z</time></trkpt>
<trkpt lat="43.0624750000" lon="0.1319220000"><ele>781</ele><time>2026-03-18T08:02:05Z</time></trkpt>
<trkpt lat="43.0624570000" lon="0.1319370000"><ele>781</ele><time>2026-03-18T08:02:08Z</time></trkpt>
<trkpt lat="43.0624320000" lon="0.1319470000"><ele>781</ele><time>2026-03-18T08:02:11Z</time></trkpt>
<trkpt lat="43.0624150000" lon="0.1319470000"><ele>781</ele><time>2026-03-18T08:02:19Z</time></trkpt>
<trkpt lat="43.0623900000" lon="0.1319520000"><ele>781</ele><time>2026-03-18T08:02:22Z</time></trkpt>
<trkpt lat="43.0623700000" lon="0.1319600000"><ele>781</ele><time>2026-03-18T08:02:24Z</time></trkpt>
<trkpt lat="43.0623570000" lon="0.1319820000"><ele>780</ele><time>2026-03-18T08:02:29Z</time></trkpt>
<trkpt lat="43.0623420000" lon="0.1320180000"><ele>780</ele><time>2026-03-18T08:02:31Z</time></trkpt>
<trkpt lat="43.0623200000" lon="0.1320420000"><ele>780</ele><time>2026-03-18T08:02:33Z</time></trkpt>
<trkpt lat="43.0623020000" lon="0.1320720000"><ele>780</ele><time>2026-03-18T08:02:35Z</time></trkpt>
<trkpt lat="43.0622950000" lon="0.1321100000"><ele>780</ele><time>2026-03-18T08:02:37Z</time></trkpt>
<trkpt lat="43.0622900000" lon="0.1321400000"><ele>780</ele><time>2026-03-18T08:02:39Z</time></trkpt>
<trkpt lat="43.0622900000" lon="0.1321670000"><ele>780</ele><time>2026-03-18T08:02:41Z</time></trkpt>
<trkpt lat="43.0622870000" lon="0.1322020000"><ele>780</ele><time>2026-03-18T08:02:43Z</time></trkpt>
<trkpt lat="43.0622800000" lon="0.1322370000"><ele>780</ele><time>2026-03-18T08:02:45Z</time></trkpt>
<trkpt lat="43.0622670000" lon="0.1322670000"><ele>780</ele><time>2026-03-18T08:02:47Z</time></trkpt>
<trkpt lat="43.0622600000" lon="0.1322920000"><ele>780</ele><time>2026-03-18T08:02:49Z</time></trkpt>
<trkpt lat="43.0622500000" lon="0.1323120000"><ele>780</ele><time>2026-03-18T08:02:51Z</time></trkpt>
<trkpt lat="43.0622450000" lon="0.1323370000"><ele>780</ele><time>2026-03-18T08:02:53Z</time></trkpt>
<trkpt lat="43.0622400000" lon="0.1323650000"><ele>780</ele><time>2026-03-18T08:02:55Z</time></trkpt>
<trkpt lat="43.0622420000" lon="0.1323920000"><ele>780</ele><time>2026-03-18T08:02:57Z</time></trkpt>
<trkpt lat="43.0622320000" lon="0.1324200000"><ele>780</ele><time>2026-03-18T08:03:00Z</time></trkpt>
<trkpt lat="43.0622320000" lon="0.1324470000"><ele>781</ele><time>2026-03-18T08:03:04Z</time></trkpt>
<trkpt lat="43.0622220000" lon="0.1324770000"><ele>781</ele><time>2026-03-18T08:03:07Z</time></trkpt>
<trkpt lat="43.0622070000" lon="0.1324920000"><ele>781</ele><time>2026-03-18T08:03:09Z</time></trkpt>
<trkpt lat="43.0621820000" lon="0.1325070000"><ele>781</ele><time>2026-03-18T08:03:11Z</time></trkpt>
<trkpt lat="43.0621620000" lon="0.1325120000"><ele>781</ele><time>2026-03-18T08:03:12Z</time></trkpt>
<trkpt lat="43.0621420000" lon="0.1325450000"><ele>781</ele><time>2026-03-18T08:03:15Z</time></trkpt>
<trkpt lat="43.0621250000" lon="0.1325680000"><ele>781</ele><time>2026-03-18T08:03:18Z</time></trkpt>
<trkpt lat="43.0621080000" lon="0.1325970000"><ele>781</ele><time>2026-03-18T08:03:21Z</time></trkpt>
<trkpt lat="43.0620950000" lon="0.1326170000"><ele>782</ele><time>2026-03-18T08:03:24Z</time></trkpt>
<trkpt lat="43.0620770000" lon="0.1326370000"><ele>782</ele><time>2026-03-18T08:03:26Z</time></trkpt>
<trkpt lat="43.0620600000" lon="0.1326550000"><ele>782</ele><time>2026-03-18T08:03:28Z</time></trkpt>
<trkpt lat="43.0620420000" lon="0.1326700000"><ele>782</ele><time>2026-03-18T08:03:30Z</time></trkpt>
<trkpt lat="43.0620220000" lon="0.1326870000"><ele>782</ele><time>2026-03-18T08:03:32Z</time></trkpt>
<trkpt lat="43.0620070000" lon="0.1327130000"><ele>782</ele><time>2026-03-18T08:03:34Z</time></trkpt>
<trkpt lat="43.0619850000" lon="0.1327280000"><ele>782</ele><time>2026-03-18T08:03:36Z</time></trkpt>
<trkpt lat="43.0619670000" lon="0.1327520000"><ele>782</ele><time>2026-03-18T08:03:38Z</time></trkpt>
<trkpt lat="43.0619570000" lon="0.1327820000"><ele>782</ele><time>2026-03-18T08:03:41Z</time></trkpt>
<trkpt lat="43.0619370000" lon="0.1328000000"><ele>783</ele><time>2026-03-18T08:03:44Z</time></trkpt>
<trkpt lat="43.0619200000" lon="0.1328070000"><ele>783</ele><time>2026-03-18T08:03:46Z</time></trkpt>
<trkpt lat="43.0618950000" lon="0.1328000000"><ele>783</ele><time>2026-03-18T08:03:48Z</time></trkpt>
<trkpt lat="43.0618700000" lon="0.1327970000"><ele>783</ele><time>2026-03-18T08:03:50Z</time></trkpt>
<trkpt lat="43.0618470000" lon="0.1328070000"><ele>783</ele><time>2026-03-18T08:03:53Z</time></trkpt>
<trkpt lat="43.0618300000" lon="0.1328020000"><ele>783</ele><time>2026-03-18T08:03:55Z</time></trkpt>
<trkpt lat="43.0618120000" lon="0.1327970000"><ele>783</ele><time>2026-03-18T08:03:57Z</time></trkpt>
<trkpt lat="43.0617900000" lon="0.1328000000"><ele>783</ele><time>2026-03-18T08:03:59Z</time></trkpt>
<trkpt lat="43.0617700000" lon="0.1328020000"><ele>783</ele><time>2026-03-18T08:04:00Z</time></trkpt>
<trkpt lat="43.0617470000" lon="0.1328000000"><ele>783</ele><time>2026-03-18T08:04:02Z</time></trkpt>
<trkpt lat="43.0617270000" lon="0.1327950000"><ele>783</ele><time>2026-03-18T08:04:05Z</time></trkpt>
<trkpt lat="43.0617000000" lon="0.1327970000"><ele>783</ele><time>2026-03-18T08:04:07Z</time></trkpt>
<trkpt lat="43.0616720000" lon="0.1327950000"><ele>784</ele><time>2026-03-18T08:04:09Z</time></trkpt>
<trkpt lat="43.0616470000" lon="0.1328050000"><ele>784</ele><time>2026-03-18T08:04:11Z</time></trkpt>
<trkpt lat="43.0616220000" lon="0.1328220000"><ele>784</ele><time>2026-03-18T08:04:13Z</time></trkpt>
<trkpt lat="43.0616020000" lon="0.1328300000"><ele>784</ele><time>2026-03-18T08:04:16Z</time></trkpt>
<trkpt lat="43.0615720000" lon="0.1328480000"><ele>784</ele><time>2026-03-18T08:04:20Z</time></trkpt>
<trkpt lat="43.0615500000" lon="0.1328720000"><ele>784</ele><time>2026-03-18T08:04:23Z</time></trkpt>
<trkpt lat="43.0615320000" lon="0.1328820000"><ele>784</ele><time>2026-03-18T08:04:25Z</time></trkpt>
<trkpt lat="43.0615030000" lon="0.1328950000"><ele>785</ele><time>2026-03-18T08:04:29Z</time></trkpt>
<trkpt lat="43.0614770000" lon="0.1328980000"><ele>785</ele><time>2026-03-18T08:04:31Z</time></trkpt>
<trkpt lat="43.0614500000" lon="0.1329120000"><ele>785</ele><time>2026-03-18T08:04:33Z</time></trkpt>
<trkpt lat="43.0614250000" lon="0.1328870000"><ele>785</ele><time>2026-03-18T08:04:35Z</time></trkpt>
<trkpt lat="43.0614050000" lon="0.1328820000"><ele>785</ele><time>2026-03-18T08:04:37Z</time></trkpt>
<trkpt lat="43.0614220000" lon="0.1328850000"><ele>785</ele><time>2026-03-18T08:04:46Z</time></trkpt>
<trkpt lat="43.0614270000" lon="0.1329100000"><ele>786</ele><time>2026-03-18T08:04:49Z</time></trkpt>
<trkpt lat="43.0614500000" lon="0.1328970000"><ele>785</ele><time>2026-03-18T08:04:58Z</time></trkpt>
<trkpt lat="43.0614320000" lon="0.1328680000"><ele>785</ele><time>2026-03-18T08:05:26Z</time></trkpt>
<trkpt lat="43.0614120000" lon="0.1328470000"><ele>785</ele><time>2026-03-18T08:05:28Z</time></trkpt>
<trkpt lat="43.0613900000" lon="0.1328370000"><ele>785</ele><time>2026-03-18T08:05:30Z</time></trkpt>
<trkpt lat="43.0613650000" lon="0.1328350000"><ele>785</ele><time>2026-03-18T08:05:32Z</time></trkpt>
<trkpt lat="43.0613320000" lon="0.1328400000"><ele>785</ele><time>2026-03-18T08:05:34Z</time></trkpt>
<trkpt lat="43.0613100000" lon="0.1328430000"><ele>785</ele><time>2026-03-18T08:05:36Z</time></trkpt>
<trkpt lat="43.0612870000" lon="0.1328530000"><ele>786</ele><time>2026-03-18T08:05:38Z</time></trkpt>
<trkpt lat="43.0612650000" lon="0.1328650000"><ele>786</ele><time>2026-03-18T08:05:40Z</time></trkpt>
<trkpt lat="43.0612420000" lon="0.1328770000"><ele>786</ele><time>2026-03-18T08:05:42Z</time></trkpt>
<trkpt lat="43.0612220000" lon="0.1328970000"><ele>786</ele><time>2026-03-18T08:05:45Z</time></trkpt>
<trkpt lat="43.0611970000" lon="0.1329120000"><ele>787</ele><time>2026-03-18T08:05:48Z</time></trkpt>
<trkpt lat="43.0611800000" lon="0.1329220000"><ele>787</ele><time>2026-03-18T08:05:50Z</time></trkpt>
<trkpt lat="43.0611550000" lon="0.1329320000"><ele>787</ele><time>2026-03-18T08:05:53Z</time></trkpt>
<trkpt lat="43.0611350000" lon="0.1329450000"><ele>787</ele><time>2026-03-18T08:05:55Z</time></trkpt>
<trkpt lat="43.0611120000" lon="0.1329420000"><ele>788</ele><time>2026-03-18T08:05:58Z</time></trkpt>
<trkpt lat="43.0610920000" lon="0.1329570000"><ele>788</ele><time>2026-03-18T08:06:00Z</time></trkpt>
<trkpt lat="43.0610720000" lon="0.1329720000"><ele>788</ele><time>2026-03-18T08:06:02Z</time></trkpt>
<trkpt lat="43.0610470000" lon="0.1329770000"><ele>788</ele><time>2026-03-18T08:06:05Z</time></trkpt>
<trkpt lat="43.0610220000" lon="0.1329870000"><ele>788</ele><time>2026-03-18T08:06:08Z</time></trkpt>
<trkpt lat="43.0609950000" lon="0.1329880000"><ele>788</ele><time>2026-03-18T08:06:10Z</time></trkpt>
<trkpt lat="43.0609770000" lon="0.1329970000"><ele>789</ele><time>2026-03-18T08:06:12Z</time></trkpt>
<trkpt lat="43.0609550000" lon="0.1330050000"><ele>789</ele><time>2026-03-18T08:06:14Z</time></trkpt>
<trkpt lat="43.0609320000" lon="0.1330120000"><ele>789</ele><time>2026-03-18T08:06:16Z</time></trkpt>
<trkpt lat="43.0609070000" lon="0.1330200000"><ele>789</ele><time>2026-03-18T08:06:18Z</time></trkpt>
<trkpt lat="43.0608870000" lon="0.1330300000"><ele>790</ele><time>2026-03-18T08:06:20Z</time></trkpt>
<trkpt lat="43.0608670000" lon="0.1330170000"><ele>790</ele><time>2026-03-18T08:06:23Z</time></trkpt>
<trkpt lat="43.0608500000" lon="0.1330000000"><ele>790</ele><time>2026-03-18T08:06:26Z</time></trkpt>
<trkpt lat="43.0608320000" lon="0.1329620000"><ele>791</ele><time>2026-03-18T08:06:28Z</time></trkpt>
<trkpt lat="43.0608170000" lon="0.1329320000"><ele>791</ele><time>2026-03-18T08:06:30Z</time></trkpt>
<trkpt lat="43.0608170000" lon="0.1329050000"><ele>791</ele><time>2026-03-18T08:06:32Z</time></trkpt>
<trkpt lat="43.0608120000" lon="0.1328730000"><ele>792</ele><time>2026-03-18T08:06:34Z</time></trkpt>
<trkpt lat="43.0608070000" lon="0.1328480000"><ele>792</ele><time>2026-03-18T08:06:36Z</time></trkpt>
<trkpt lat="43.0608050000" lon="0.1328220000"><ele>793</ele><time>2026-03-18T08:06:52Z</time></trkpt>
<trkpt lat="43.0608050000" lon="0.1327870000"><ele>793</ele><time>2026-03-18T08:06:54Z</time></trkpt>
<trkpt lat="43.0607970000" lon="0.1327520000"><ele>793</ele><time>2026-03-18T08:06:56Z</time></trkpt>
<trkpt lat="43.0607820000" lon="0.1327200000"><ele>793</ele><time>2026-03-18T08:06:58Z</time></trkpt>
<trkpt lat="43.0607720000" lon="0.1326970000"><ele>793</ele><time>2026-03-18T08:07:00Z</time></trkpt>
<trkpt lat="43.0607650000" lon="0.1326720000"><ele>794</ele><time>2026-03-18T08:07:03Z</time></trkpt>
<trkpt lat="43.0607570000" lon="0.1326370000"><ele>794</ele><time>2026-03-18T08:07:07Z</time></trkpt>
<trkpt lat="43.0607570000" lon="0.1326070000"><ele>795</ele><time>2026-03-18T08:07:10Z</time></trkpt>
<trkpt lat="43.0607670000" lon="0.1325850000"><ele>795</ele><time>2026-03-18T08:07:13Z</time></trkpt>
<trkpt lat="43.0607700000" lon="0.1325600000"><ele>795</ele><time>2026-03-18T08:07:17Z</time></trkpt>
<trkpt lat="43.0607570000" lon="0.1325270000"><ele>795</ele><time>2026-03-18T08:07:20Z</time></trkpt>
<trkpt lat="43.0607430000" lon="0.1324970000"><ele>796</ele><time>2026-03-18T08:07:22Z</time></trkpt>
<trkpt lat="43.0607320000" lon="0.1324720000"><ele>796</ele><time>2026-03-18T08:07:24Z</time></trkpt>
<trkpt lat="43.0607170000" lon="0.1324500000"><ele>796</ele><time>2026-03-18T08:07:27Z</time></trkpt>
<trkpt lat="43.0607120000" lon="0.1324200000"><ele>796</ele><time>2026-03-18T08:07:30Z</time></trkpt>
<trkpt lat="43.0607220000" lon="0.1323870000"><ele>797</ele><time>2026-03-18T08:07:33Z</time></trkpt>
<trkpt lat="43.0607300000" lon="0.1323570000"><ele>797</ele><time>2026-03-18T08:07:36Z</time></trkpt>
<trkpt lat="43.0607270000" lon="0.1323250000"><ele>797</ele><time>2026-03-18T08:07:39Z</time></trkpt>
<trkpt lat="43.0607300000" lon="0.1322920000"><ele>798</ele><time>2026-03-18T08:07:42Z</time></trkpt>
<trkpt lat="43.0607250000" lon="0.1322650000"><ele>798</ele><time>2026-03-18T08:07:45Z</time></trkpt>
<trkpt lat="43.0607120000" lon="0.1322470000"><ele>798</ele><time>2026-03-18T08:07:48Z</time></trkpt>
<trkpt lat="43.0606920000" lon="0.1322370000"><ele>799</ele><time>2026-03-18T08:07:52Z</time></trkpt>
<trkpt lat="43.0606720000" lon="0.1322220000"><ele>799</ele><time>2026-03-18T08:07:55Z</time></trkpt>
<trkpt lat="43.0606570000" lon="0.1322000000"><ele>799</ele><time>2026-03-18T08:07:59Z</time></trkpt>
<trkpt lat="43.0606470000" lon="0.1321770000"><ele>799</ele><time>2026-03-18T08:08:02Z</time></trkpt>
<trkpt lat="43.0606300000" lon="0.1321580000"><ele>799</ele><time>2026-03-18T08:08:04Z</time></trkpt>
<trkpt lat="43.0606070000" lon="0.1321770000"><ele>797</ele><time>2026-03-18T08:11:04Z</time></trkpt>
<trkpt lat="43.0606020000" lon="0.1322020000"><ele>797</ele><time>2026-03-18T08:11:06Z</time></trkpt>
<trkpt lat="43.0606170000" lon="0.1322250000"><ele>797</ele><time>2026-03-18T08:11:08Z</time></trkpt>
<trkpt lat="43.0606320000" lon="0.1322520000"><ele>797</ele><time>2026-03-18T08:11:10Z</time></trkpt>
<trkpt lat="43.0606370000" lon="0.1322870000"><ele>797</ele><time>2026-03-18T08:11:12Z</time></trkpt>
<trkpt lat="43.0606370000" lon="0.1323120000"><ele>797</ele><time>2026-03-18T08:11:15Z</time></trkpt>
<trkpt lat="43.0606220000" lon="0.1323370000"><ele>797</ele><time>2026-03-18T08:11:19Z</time></trkpt>
<trkpt lat="43.0606070000" lon="0.1323550000"><ele>798</ele><time>2026-03-18T08:11:36Z</time></trkpt>
<trkpt lat="43.0605820000" lon="0.1323720000"><ele>798</ele><time>2026-03-18T08:11:38Z</time></trkpt>
<trkpt lat="43.0605620000" lon="0.1323970000"><ele>798</ele><time>2026-03-18T08:11:40Z</time></trkpt>
<trkpt lat="43.0605420000" lon="0.1324220000"><ele>798</ele><time>2026-03-18T08:11:43Z</time></trkpt>
<trkpt lat="43.0605180000" lon="0.1324400000"><ele>798</ele><time>2026-03-18T08:11:46Z</time></trkpt>
<trkpt lat="43.0605020000" lon="0.1324520000"><ele>798</ele><time>2026-03-18T08:11:49Z</time></trkpt>
<trkpt lat="43.0604870000" lon="0.1324670000"><ele>799</ele><time>2026-03-18T08:11:52Z</time></trkpt>
<trkpt lat="43.0604620000" lon="0.1324830000"><ele>799</ele><time>2026-03-18T08:11:55Z</time></trkpt>
<trkpt lat="43.0604450000" lon="0.1325050000"><ele>799</ele><time>2026-03-18T08:11:57Z</time></trkpt>
<trkpt lat="43.0604320000" lon="0.1325220000"><ele>799</ele><time>2026-03-18T08:11:59Z</time></trkpt>
<trkpt lat="43.0604120000" lon="0.1325270000"><ele>799</ele><time>2026-03-18T08:12:02Z</time></trkpt>
<trkpt lat="43.0603870000" lon="0.1325470000"><ele>800</ele><time>2026-03-18T08:12:04Z</time></trkpt>
<trkpt lat="43.0603670000" lon="0.1325620000"><ele>800</ele><time>2026-03-18T08:12:06Z</time></trkpt>
<trkpt lat="43.0603500000" lon="0.1325820000"><ele>800</ele><time>2026-03-18T08:12:09Z</time></trkpt>
<trkpt lat="43.0603320000" lon="0.1326020000"><ele>800</ele><time>2026-03-18T08:12:11Z</time></trkpt>
<trkpt lat="43.0603050000" lon="0.1326020000"><ele>800</ele><time>2026-03-18T08:12:14Z</time></trkpt>
<trkpt lat="43.0602870000" lon="0.1326220000"><ele>800</ele><time>2026-03-18T08:12:17Z</time></trkpt>
<trkpt lat="43.0602800000" lon="0.1326470000"><ele>801</ele><time>2026-03-18T08:12:19Z</time></trkpt>
<trkpt lat="43.0602650000" lon="0.1326670000"><ele>801</ele><time>2026-03-18T08:12:21Z</time></trkpt>
<trkpt lat="43.0602450000" lon="0.1326850000"><ele>801</ele><time>2026-03-18T08:12:23Z</time></trkpt>
<trkpt lat="43.0602250000" lon="0.1327070000"><ele>802</ele><time>2026-03-18T08:12:25Z</time></trkpt>
<trkpt lat="43.0602120000" lon="0.1327280000"><ele>802</ele><time>2026-03-18T08:12:27Z</time></trkpt>
<trkpt lat="43.0601970000" lon="0.1327570000"><ele>802</ele><time>2026-03-18T08:12:30Z</time></trkpt>
<trkpt lat="43.0601900000" lon="0.1327820000"><ele>802</ele><time>2026-03-18T08:12:33Z</time></trkpt>
<trkpt lat="43.0601820000" lon="0.1328050000"><ele>803</ele><time>2026-03-18T08:12:35Z</time></trkpt>
<trkpt lat="43.0601670000" lon="0.1328200000"><ele>803</ele><time>2026-03-18T08:12:37Z</time></trkpt>
<trkpt lat="43.0601550000" lon="0.1328430000"><ele>803</ele><time>2026-03-18T08:12:40Z</time></trkpt>
<trkpt lat="43.0601370000" lon="0.1328620000"><ele>803</ele><time>2026-03-18T08:12:43Z</time></trkpt>
<trkpt lat="43.0601170000" lon="0.1328770000"><ele>804</ele><time>2026-03-18T08:12:47Z</time></trkpt>
<trkpt lat="43.0601000000" lon="0.1328870000"><ele>805</ele><time>2026-03-18T08:12:52Z</time></trkpt>
<trkpt lat="43.0600850000" lon="0.1329020000"><ele>805</ele><time>2026-03-18T08:12:57Z</time></trkpt>
<trkpt lat="43.0600670000" lon="0.1328870000"><ele>806</ele><time>2026-03-18T08:13:01Z</time></trkpt>
<trkpt lat="43.0600520000" lon="0.1328650000"><ele>806</ele><time>2026-03-18T08:13:06Z</time></trkpt>
<trkpt lat="43.0600420000" lon="0.1328320000"><ele>806</ele><time>2026-03-18T08:13:09Z</time></trkpt>
<trkpt lat="43.0600300000" lon="0.1328100000"><ele>806</ele><time>2026-03-18T08:13:11Z</time></trkpt>
<trkpt lat="43.0600070000" lon="0.1328020000"><ele>807</ele><time>2026-03-18T08:13:14Z</time></trkpt>
<trkpt lat="43.0599920000" lon="0.1327820000"><ele>807</ele><time>2026-03-18T08:13:17Z</time></trkpt>
<trkpt lat="43.0599820000" lon="0.1327500000"><ele>807</ele><time>2026-03-18T08:13:20Z</time></trkpt>
<trkpt lat="43.0599620000" lon="0.1327280000"><ele>807</ele><time>2026-03-18T08:13:23Z</time></trkpt>
<trkpt lat="43.0599420000" lon="0.1327200000"><ele>808</ele><time>2026-03-18T08:13:26Z</time></trkpt>
<trkpt lat="43.0599270000" lon="0.1327450000"><ele>808</ele><time>2026-03-18T08:13:33Z</time></trkpt>
<trkpt lat="43.0599070000" lon="0.1327450000"><ele>809</ele><time>2026-03-18T08:13:36Z</time></trkpt>
<trkpt lat="43.0598870000" lon="0.1327420000"><ele>809</ele><time>2026-03-18T08:13:38Z</time></trkpt>
<trkpt lat="43.0598670000" lon="0.1327270000"><ele>810</ele><time>2026-03-18T08:13:42Z</time></trkpt>
<trkpt lat="43.0598350000" lon="0.1327120000"><ele>810</ele><time>2026-03-18T08:13:44Z</time></trkpt>
<trkpt lat="43.0598120000" lon="0.1327070000"><ele>810</ele><time>2026-03-18T08:13:45Z</time></trkpt>
<trkpt lat="43.0597920000" lon="0.1327070000"><ele>810</ele><time>2026-03-18T08:13:46Z</time></trkpt>
<trkpt lat="43.0597670000" lon="0.1326950000"><ele>810</ele><time>2026-03-18T08:13:48Z</time></trkpt>
<trkpt lat="43.0597470000" lon="0.1326770000"><ele>810</ele><time>2026-03-18T08:13:50Z</time></trkpt>
<trkpt lat="43.0597270000" lon="0.1326620000"><ele>810</ele><time>2026-03-18T08:13:52Z</time></trkpt>
<trkpt lat="43.0597050000" lon="0.1326570000"><ele>810</ele><time>2026-03-18T08:13:56Z</time></trkpt>
<trkpt lat="43.0596870000" lon="0.1326370000"><ele>811</ele><time>2026-03-18T08:14:01Z</time></trkpt>
<trkpt lat="43.0596620000" lon="0.1326220000"><ele>811</ele><time>2026-03-18T08:14:03Z</time></trkpt>
<trkpt lat="43.0596470000" lon="0.1326070000"><ele>811</ele><time>2026-03-18T08:14:05Z</time></trkpt>
<trkpt lat="43.0596220000" lon="0.1326020000"><ele>811</ele><time>2026-03-18T08:14:08Z</time></trkpt>
<trkpt lat="43.0596000000" lon="0.1325920000"><ele>811</ele><time>2026-03-18T08:14:11Z</time></trkpt>
<trkpt lat="43.0595770000" lon="0.1325970000"><ele>812</ele><time>2026-03-18T08:14:15Z</time></trkpt>
<trkpt lat="43.0595650000" lon="0.1325800000"><ele>812</ele><time>2026-03-18T08:14:18Z</time></trkpt>
<trkpt lat="43.0595470000" lon="0.1325620000"><ele>813</ele><time>2026-03-18T08:14:24Z</time></trkpt>
<trkpt lat="43.0595300000" lon="0.1325470000"><ele>814</ele><time>2026-03-18T08:14:27Z</time></trkpt>
<trkpt lat="43.0595070000" lon="0.1325400000"><ele>814</ele><time>2026-03-18T08:14:30Z</time></trkpt>
<trkpt lat="43.0594870000" lon="0.1325270000"><ele>814</ele><time>2026-03-18T08:14:33Z</time></trkpt>
<trkpt lat="43.0594670000" lon="0.1325320000"><ele>815</ele><time>2026-03-18T08:14:39Z</time></trkpt>
<trkpt lat="43.0594520000" lon="0.1325120000"><ele>816</ele><time>2026-03-18T08:14:43Z</time></trkpt>
<trkpt lat="43.0594350000" lon="0.1324970000"><ele>816</ele><time>2026-03-18T08:14:46Z</time></trkpt>
<trkpt lat="43.0594170000" lon="0.1324780000"><ele>816</ele><time>2026-03-18T08:14:49Z</time></trkpt>
<trkpt lat="43.0593970000" lon="0.1324620000"><ele>817</ele><time>2026-03-18T08:14:52Z</time></trkpt>
<trkpt lat="43.0593820000" lon="0.1324450000"><ele>817</ele><time>2026-03-18T08:14:55Z</time></trkpt>
<trkpt lat="43.0593870000" lon="0.1324720000"><ele>817</ele><time>2026-03-18T08:14:58Z</time></trkpt>
<trkpt lat="43.0594050000" lon="0.1325000000"><ele>817</ele><time>2026-03-18T08:15:00Z</time></trkpt>
<trkpt lat="43.0594150000" lon="0.1325250000"><ele>818</ele><time>2026-03-18T08:15:02Z</time></trkpt>
<trkpt lat="43.0594220000" lon="0.1325500000"><ele>818</ele><time>2026-03-18T08:15:04Z</time></trkpt>
<trkpt lat="43.0594300000" lon="0.1325770000"><ele>818</ele><time>2026-03-18T08:15:09Z</time></trkpt>
<trkpt lat="43.0594370000" lon="0.1326120000"><ele>819</ele><time>2026-03-18T08:15:12Z</time></trkpt>
<trkpt lat="43.0594420000" lon="0.1326370000"><ele>819</ele><time>2026-03-18T08:15:14Z</time></trkpt>
<trkpt lat="43.0594450000" lon="0.1326700000"><ele>819</ele><time>2026-03-18T08:15:17Z</time></trkpt>
<trkpt lat="43.0594470000" lon="0.1327030000"><ele>820</ele><time>2026-03-18T08:15:20Z</time></trkpt>
<trkpt lat="43.0594570000" lon="0.1327270000"><ele>820</ele><time>2026-03-18T08:15:23Z</time></trkpt>
<trkpt lat="43.0594670000" lon="0.1327570000"><ele>820</ele><time>2026-03-18T08:15:26Z</time></trkpt>
<trkpt lat="43.0594700000" lon="0.1327900000"><ele>820</ele><time>2026-03-18T08:15:29Z</time></trkpt>
<trkpt lat="43.0594670000" lon="0.1328150000"><ele>821</ele><time>2026-03-18T08:15:32Z</time></trkpt>
<trkpt lat="43.0594670000" lon="0.1328420000"><ele>821</ele><time>2026-03-18T08:15:36Z</time></trkpt>
<trkpt lat="43.0594450000" lon="0.1328770000"><ele>822</ele><time>2026-03-18T08:15:40Z</time></trkpt>
<trkpt lat="43.0594420000" lon="0.1329070000"><ele>822</ele><time>2026-03-18T08:15:44Z</time></trkpt>
<trkpt lat="43.0594470000" lon="0.1329400000"><ele>823</ele><time>2026-03-18T08:15:47Z</time></trkpt>
<trkpt lat="43.0594450000" lon="0.1329750000"><ele>823</ele><time>2026-03-18T08:15:50Z</time></trkpt>
<trkpt lat="43.0594480000" lon="0.1330020000"><ele>823</ele><time>2026-03-18T08:15:52Z</time></trkpt>
<trkpt lat="43.0594470000" lon="0.1330300000"><ele>824</ele><time>2026-03-18T08:15:55Z</time></trkpt>
<trkpt lat="43.0594520000" lon="0.1330570000"><ele>824</ele><time>2026-03-18T08:15:57Z</time></trkpt>
<trkpt lat="43.0594550000" lon="0.1330900000"><ele>824</ele><time>2026-03-18T08:16:00Z</time></trkpt>
<trkpt lat="43.0594270000" lon="0.1331100000"><ele>824</ele><time>2026-03-18T08:16:02Z</time></trkpt>
<trkpt lat="43.0594220000" lon="0.1331470000"><ele>825</ele><time>2026-03-18T08:16:09Z</time></trkpt>
<trkpt lat="43.0594220000" lon="0.1331870000"><ele>826</ele><time>2026-03-18T08:16:12Z</time></trkpt>
<trkpt lat="43.0594250000" lon="0.1332170000"><ele>826</ele><time>2026-03-18T08:16:14Z</time></trkpt>
<trkpt lat="43.0594220000" lon="0.1332470000"><ele>827</ele><time>2026-03-18T08:16:16Z</time></trkpt>
<trkpt lat="43.0594070000" lon="0.1332670000"><ele>827</ele><time>2026-03-18T08:16:18Z</time></trkpt>
<trkpt lat="43.0593870000" lon="0.1332770000"><ele>828</ele><time>2026-03-18T08:16:59Z</time></trkpt>
<trkpt lat="43.0593720000" lon="0.1332970000"><ele>828</ele><time>2026-03-18T08:17:01Z</time></trkpt>
<trkpt lat="43.0593600000" lon="0.1333300000"><ele>829</ele><time>2026-03-18T08:17:03Z</time></trkpt>
<trkpt lat="43.0593520000" lon="0.1333570000"><ele>829</ele><time>2026-03-18T08:17:05Z</time></trkpt>
<trkpt lat="43.0593370000" lon="0.1333820000"><ele>830</ele><time>2026-03-18T08:17:09Z</time></trkpt>
<trkpt lat="43.0593170000" lon="0.1333970000"><ele>830</ele><time>2026-03-18T08:17:13Z</time></trkpt>
<trkpt lat="43.0592970000" lon="0.1333920000"><ele>831</ele><time>2026-03-18T08:17:15Z</time></trkpt>
<trkpt lat="43.0592750000" lon="0.1333870000"><ele>831</ele><time>2026-03-18T08:17:19Z</time></trkpt>
<trkpt lat="43.0592520000" lon="0.1333820000"><ele>831</ele><time>2026-03-18T08:17:21Z</time></trkpt>
<trkpt lat="43.0592350000" lon="0.1333720000"><ele>832</ele><time>2026-03-18T08:17:23Z</time></trkpt>
<trkpt lat="43.0592170000" lon="0.1333450000"><ele>832</ele><time>2026-03-18T08:17:26Z</time></trkpt>
<trkpt lat="43.0592070000" lon="0.1333220000"><ele>833</ele><time>2026-03-18T08:17:28Z</time></trkpt>
<trkpt lat="43.0591920000" lon="0.1333020000"><ele>833</ele><time>2026-03-18T08:17:31Z</time></trkpt>
<trkpt lat="43.0591750000" lon="0.1332770000"><ele>834</ele><time>2026-03-18T08:17:35Z</time></trkpt>
<trkpt lat="43.0591570000" lon="0.1332720000"><ele>834</ele><time>2026-03-18T08:17:38Z</time></trkpt>
<trkpt lat="43.0591370000" lon="0.1332620000"><ele>834</ele><time>2026-03-18T08:17:42Z</time></trkpt>
<trkpt lat="43.0591170000" lon="0.1332470000"><ele>835</ele><time>2026-03-18T08:17:45Z</time></trkpt>
<trkpt lat="43.0591000000" lon="0.1332320000"><ele>835</ele><time>2026-03-18T08:17:48Z</time></trkpt>
<trkpt lat="43.0590820000" lon="0.1332500000"><ele>836</ele><time>2026-03-18T08:17:52Z</time></trkpt>
<trkpt lat="43.0590770000" lon="0.1332770000"><ele>836</ele><time>2026-03-18T08:17:56Z</time></trkpt>
<trkpt lat="43.0590770000" lon="0.1333100000"><ele>839</ele><time>2026-03-18T08:18:33Z</time></trkpt>
<trkpt lat="43.0590650000" lon="0.1333600000"><ele>839</ele><time>2026-03-18T08:18:35Z</time></trkpt>
<trkpt lat="43.0590570000" lon="0.1333870000"><ele>839</ele><time>2026-03-18T08:18:36Z</time></trkpt>
<trkpt lat="43.0590470000" lon="0.1334150000"><ele>839</ele><time>2026-03-18T08:18:37Z</time></trkpt>
<trkpt lat="43.0590300000" lon="0.1334450000"><ele>839</ele><time>2026-03-18T08:18:39Z</time></trkpt>
<trkpt lat="43.0590120000" lon="0.1334320000"><ele>840</ele><time>2026-03-18T08:18:41Z</time></trkpt>
<trkpt lat="43.0589920000" lon="0.1334070000"><ele>840</ele><time>2026-03-18T08:18:44Z</time></trkpt>
<trkpt lat="43.0589820000" lon="0.1333850000"><ele>841</ele><time>2026-03-18T08:18:47Z</time></trkpt>
<trkpt lat="43.0589720000" lon="0.1333620000"><ele>841</ele><time>2026-03-18T08:18:50Z</time></trkpt>
<trkpt lat="43.0589570000" lon="0.1333350000"><ele>841</ele><time>2026-03-18T08:18:53Z</time></trkpt>
<trkpt lat="43.0589420000" lon="0.1333170000"><ele>842</ele><time>2026-03-18T08:18:56Z</time></trkpt>
<trkpt lat="43.0589270000" lon="0.1332920000"><ele>842</ele><time>2026-03-18T08:19:00Z</time></trkpt>
<trkpt lat="43.0589120000" lon="0.1332720000"><ele>843</ele><time>2026-03-18T08:19:04Z</time></trkpt>
<trkpt lat="43.0588970000" lon="0.1332470000"><ele>843</ele><time>2026-03-18T08:19:08Z</time></trkpt>
<trkpt lat="43.0588950000" lon="0.1332220000"><ele>844</ele><time>2026-03-18T08:19:23Z</time></trkpt>
<trkpt lat="43.0588820000" lon="0.1331900000"><ele>844</ele><time>2026-03-18T08:19:26Z</time></trkpt>
<trkpt lat="43.0588670000" lon="0.1331670000"><ele>844</ele><time>2026-03-18T08:19:28Z</time></trkpt>
<trkpt lat="43.0588570000" lon="0.1331420000"><ele>844</ele><time>2026-03-18T08:19:30Z</time></trkpt>
<trkpt lat="43.0588470000" lon="0.1331150000"><ele>845</ele><time>2026-03-18T08:19:33Z</time></trkpt>
<trkpt lat="43.0588300000" lon="0.1330950000"><ele>845</ele><time>2026-03-18T08:19:36Z</time></trkpt>
<trkpt lat="43.0588220000" lon="0.1330720000"><ele>845</ele><time>2026-03-18T08:19:39Z</time></trkpt>
<trkpt lat="43.0588220000" lon="0.1330450000"><ele>846</ele><time>2026-03-18T08:19:59Z</time></trkpt>
<trkpt lat="43.0588120000" lon="0.1330170000"><ele>846</ele><time>2026-03-18T08:20:01Z</time></trkpt>
<trkpt lat="43.0588070000" lon="0.1329950000"><ele>846</ele><time>2026-03-18T08:20:03Z</time></trkpt>
<trkpt lat="43.0587950000" lon="0.1329720000"><ele>846</ele><time>2026-03-18T08:20:07Z</time></trkpt>
<trkpt lat="43.0587770000" lon="0.1329700000"><ele>847</ele><time>2026-03-18T08:20:10Z</time></trkpt>
<trkpt lat="43.0587570000" lon="0.1329770000"><ele>848</ele><time>2026-03-18T08:20:15Z</time></trkpt>
<trkpt lat="43.0587650000" lon="0.1330000000"><ele>851</ele><time>2026-03-18T08:26:24Z</time></trkpt>
<trkpt lat="43.0587650000" lon="0.1330320000"><ele>851</ele><time>2026-03-18T08:26:26Z</time></trkpt>
<trkpt lat="43.0587620000" lon="0.1330720000"><ele>851</ele><time>2026-03-18T08:26:28Z</time></trkpt>
<trkpt lat="43.0587520000" lon="0.1331050000"><ele>851</ele><time>2026-03-18T08:26:30Z</time></trkpt>
<trkpt lat="43.0587470000" lon="0.1331320000"><ele>851</ele><time>2026-03-18T08:26:32Z</time></trkpt>
<trkpt lat="43.0587470000" lon="0.1331650000"><ele>852</ele><time>2026-03-18T08:26:34Z</time></trkpt>
<trkpt lat="43.0587450000" lon="0.1331970000"><ele>852</ele><time>2026-03-18T08:26:36Z</time></trkpt>
<trkpt lat="43.0587370000" lon="0.1332250000"><ele>852</ele><time>2026-03-18T08:26:38Z</time></trkpt>
<trkpt lat="43.0587320000" lon="0.1332550000"><ele>852</ele><time>2026-03-18T08:26:40Z</time></trkpt>
<trkpt lat="43.0587300000" lon="0.1332800000"><ele>852</ele><time>2026-03-18T08:26:42Z</time></trkpt>
<trkpt lat="43.0587270000" lon="0.1333120000"><ele>852</ele><time>2026-03-18T08:26:45Z</time></trkpt>
<trkpt lat="43.0587320000" lon="0.1333370000"><ele>853</ele><time>2026-03-18T08:26:47Z</time></trkpt>
<trkpt lat="43.0587400000" lon="0.1333670000"><ele>853</ele><time>2026-03-18T08:26:49Z</time></trkpt>
<trkpt lat="43.0587420000" lon="0.1333970000"><ele>854</ele><time>2026-03-18T08:26:51Z</time></trkpt>
<trkpt lat="43.0587370000" lon="0.1334220000"><ele>854</ele><time>2026-03-18T08:26:53Z</time></trkpt>
<trkpt lat="43.0587300000" lon="0.1334470000"><ele>854</ele><time>2026-03-18T08:26:55Z</time></trkpt>
<trkpt lat="43.0587200000" lon="0.1334720000"><ele>854</ele><time>2026-03-18T08:26:57Z</time></trkpt>
<trkpt lat="43.0587120000" lon="0.1334970000"><ele>854</ele><time>2026-03-18T08:26:59Z</time></trkpt>
<trkpt lat="43.0587070000" lon="0.1335220000"><ele>855</ele><time>2026-03-18T08:27:01Z</time></trkpt>
<trkpt lat="43.0586970000" lon="0.1335500000"><ele>855</ele><time>2026-03-18T08:27:03Z</time></trkpt>
<trkpt lat="43.0586900000" lon="0.1335820000"><ele>855</ele><time>2026-03-18T08:27:06Z</time></trkpt>
<trkpt lat="43.0586870000" lon="0.1336070000"><ele>855</ele><time>2026-03-18T08:27:08Z</time></trkpt>
<trkpt lat="43.0586950000" lon="0.1336420000"><ele>855</ele><time>2026-03-18T08:27:11Z</time></trkpt>
<trkpt lat="43.0586970000" lon="0.1336720000"><ele>855</ele><time>2026-03-18T08:27:14Z</time></trkpt>
<trkpt lat="43.0587070000" lon="0.1337000000"><ele>856</ele><time>2026-03-18T08:27:36Z</time></trkpt>
<trkpt lat="43.0587200000" lon="0.1337250000"><ele>856</ele><time>2026-03-18T08:27:38Z</time></trkpt>
<trkpt lat="43.0587270000" lon="0.1337550000"><ele>856</ele><time>2026-03-18T08:27:40Z</time></trkpt>
<trkpt lat="43.0587270000" lon="0.1337850000"><ele>857</ele><time>2026-03-18T08:27:43Z</time></trkpt>
<trkpt lat="43.0587170000" lon="0.1338050000"><ele>858</ele><time>2026-03-18T08:29:21Z</time></trkpt>
<trkpt lat="43.0587120000" lon="0.1338320000"><ele>858</ele><time>2026-03-18T08:29:24Z</time></trkpt>
<trkpt lat="43.0587070000" lon="0.1338650000"><ele>858</ele><time>2026-03-18T08:29:26Z</time></trkpt>
<trkpt lat="43.0587050000" lon="0.1339050000"><ele>858</ele><time>2026-03-18T08:29:28Z</time></trkpt>
<trkpt lat="43.0586970000" lon="0.1339320000"><ele>858</ele><time>2026-03-18T08:29:30Z</time></trkpt>
<trkpt lat="43.0586920000" lon="0.1339620000"><ele>858</ele><time>2026-03-18T08:29:33Z</time></trkpt>
<trkpt lat="43.0586820000" lon="0.1339900000"><ele>858</ele><time>2026-03-18T08:29:37Z</time></trkpt>
<trkpt lat="43.0586770000" lon="0.1340170000"><ele>858</ele><time>2026-03-18T08:29:40Z</time></trkpt>
<trkpt lat="43.0586700000" lon="0.1340470000"><ele>858</ele><time>2026-03-18T08:29:43Z</time></trkpt>
<trkpt lat="43.0586600000" lon="0.1340670000"><ele>858</ele><time>2026-03-18T08:30:06Z</time></trkpt>
<trkpt lat="43.0586420000" lon="0.1340620000"><ele>858</ele><time>2026-03-18T08:30:12Z</time></trkpt>
<trkpt lat="43.0586620000" lon="0.1340920000"><ele>858</ele><time>2026-03-18T08:31:59Z</time></trkpt>
<trkpt lat="43.0586750000" lon="0.1341350000"><ele>858</ele><time>2026-03-18T08:32:01Z</time></trkpt>
<trkpt lat="43.0586820000" lon="0.1341800000"><ele>857</ele><time>2026-03-18T08:32:03Z</time></trkpt>
<trkpt lat="43.0586850000" lon="0.1342220000"><ele>857</ele><time>2026-03-18T08:32:05Z</time></trkpt>
<trkpt lat="43.0586770000" lon="0.1342500000"><ele>857</ele><time>2026-03-18T08:32:07Z</time></trkpt>
<trkpt lat="43.0586670000" lon="0.1342720000"><ele>857</ele><time>2026-03-18T08:32:10Z</time></trkpt>
<trkpt lat="43.0586570000" lon="0.1342920000"><ele>857</ele><time>2026-03-18T08:32:12Z</time></trkpt>
<trkpt lat="43.0586450000" lon="0.1343150000"><ele>856</ele><time>2026-03-18T08:32:14Z</time></trkpt>
<trkpt lat="43.0586300000" lon="0.1343420000"><ele>856</ele><time>2026-03-18T08:32:16Z</time></trkpt>
<trkpt lat="43.0586250000" lon="0.1343730000"><ele>856</ele><time>2026-03-18T08:32:18Z</time></trkpt>
<trkpt lat="43.0586220000" lon="0.1344070000"><ele>855</ele><time>2026-03-18T08:32:20Z</time></trkpt>
<trkpt lat="43.0586220000" lon="0.1344370000"><ele>855</ele><time>2026-03-18T08:32:22Z</time></trkpt>
<trkpt lat="43.0586300000" lon="0.1344720000"><ele>855</ele><time>2026-03-18T08:32:24Z</time></trkpt>
<trkpt lat="43.0586170000" lon="0.1345050000"><ele>855</ele><time>2026-03-18T08:32:26Z</time></trkpt>
<trkpt lat="43.0586020000" lon="0.1345320000"><ele>855</ele><time>2026-03-18T08:32:28Z</time></trkpt>
<trkpt lat="43.0586000000" lon="0.1345620000"><ele>855</ele><time>2026-03-18T08:32:30Z</time></trkpt>
<trkpt lat="43.0586100000" lon="0.1345870000"><ele>855</ele><time>2026-03-18T08:32:32Z</time></trkpt>
<trkpt lat="43.0586220000" lon="0.1346170000"><ele>855</ele><time>2026-03-18T08:32:34Z</time></trkpt>
<trkpt lat="43.0586220000" lon="0.1346430000"><ele>855</ele><time>2026-03-18T08:32:36Z</time></trkpt>
<trkpt lat="43.0586120000" lon="0.1346720000"><ele>855</ele><time>2026-03-18T08:32:39Z</time></trkpt>
<trkpt lat="43.0585970000" lon="0.1346970000"><ele>856</ele><time>2026-03-18T08:32:42Z</time></trkpt>
<trkpt lat="43.0585820000" lon="0.1347170000"><ele>856</ele><time>2026-03-18T08:32:44Z</time></trkpt>
<trkpt lat="43.0585750000" lon="0.1347500000"><ele>856</ele><time>2026-03-18T08:32:47Z</time></trkpt>
<trkpt lat="43.0585770000" lon="0.1347770000"><ele>856</ele><time>2026-03-18T08:32:49Z</time></trkpt>
<trkpt lat="43.0585670000" lon="0.1348050000"><ele>856</ele><time>2026-03-18T08:32:51Z</time></trkpt>
<trkpt lat="43.0585550000" lon="0.1348300000"><ele>857</ele><time>2026-03-18T08:32:53Z</time></trkpt>
<trkpt lat="43.0585550000" lon="0.1348570000"><ele>857</ele><time>2026-03-18T08:32:55Z</time></trkpt>
<trkpt lat="43.0585600000" lon="0.1348950000"><ele>857</ele><time>2026-03-18T08:32:58Z</time></trkpt>
<trkpt lat="43.0585570000" lon="0.1349220000"><ele>857</ele><time>2026-03-18T08:33:00Z</time></trkpt>
<trkpt lat="43.0585520000" lon="0.1349520000"><ele>857</ele><time>2026-03-18T08:33:02Z</time></trkpt>
<trkpt lat="43.0585420000" lon="0.1349770000"><ele>857</ele><time>2026-03-18T08:33:04Z</time></trkpt>
<trkpt lat="43.0585400000" lon="0.1350020000"><ele>857</ele><time>2026-03-18T08:33:06Z</time></trkpt>
<trkpt lat="43.0585370000" lon="0.1350370000"><ele>857</ele><time>2026-03-18T08:33:08Z</time></trkpt>
<trkpt lat="43.0585370000" lon="0.1350720000"><ele>858</ele><time>2026-03-18T08:33:10Z</time></trkpt>
<trkpt lat="43.0585450000" lon="0.1351050000"><ele>858</ele><time>2026-03-18T08:33:12Z</time></trkpt>
<trkpt lat="43.0585480000" lon="0.1351320000"><ele>858</ele><time>2026-03-18T08:33:14Z</time></trkpt>
<trkpt lat="43.0585480000" lon="0.1351600000"><ele>858</ele><time>2026-03-18T08:33:16Z</time></trkpt>
<trkpt lat="43.0585570000" lon="0.1351900000"><ele>858</ele><time>2026-03-18T08:33:18Z</time></trkpt>
<trkpt lat="43.0585570000" lon="0.1352270000"><ele>858</ele><time>2026-03-18T08:33:20Z</time></trkpt>
<trkpt lat="43.0585470000" lon="0.1352530000"><ele>858</ele><time>2026-03-18T08:33:22Z</time></trkpt>
<trkpt lat="43.0585520000" lon="0.1352870000"><ele>858</ele><time>2026-03-18T08:33:24Z</time></trkpt>
<trkpt lat="43.0585520000" lon="0.1353170000"><ele>858</ele><time>2026-03-18T08:33:26Z</time></trkpt>
<trkpt lat="43.0585550000" lon="0.1353420000"><ele>858</ele><time>2026-03-18T08:33:28Z</time></trkpt>
<trkpt lat="43.0585620000" lon="0.1353680000"><ele>858</ele><time>2026-03-18T08:33:30Z</time></trkpt>
<trkpt lat="43.0585570000" lon="0.1353930000"><ele>858</ele><time>2026-03-18T08:33:32Z</time></trkpt>
<trkpt lat="43.0585520000" lon="0.1354270000"><ele>858</ele><time>2026-03-18T08:33:35Z</time></trkpt>
<trkpt lat="43.0585470000" lon="0.1354500000"><ele>858</ele><time>2026-03-18T08:33:37Z</time></trkpt>
<trkpt lat="43.0585370000" lon="0.1354750000"><ele>858</ele><time>2026-03-18T08:33:39Z</time></trkpt>
<trkpt lat="43.0585320000" lon="0.1355070000"><ele>859</ele><time>2026-03-18T08:33:41Z</time></trkpt>
<trkpt lat="43.0585350000" lon="0.1355450000"><ele>859</ele><time>2026-03-18T08:33:43Z</time></trkpt>
<trkpt lat="43.0585350000" lon="0.1355800000"><ele>859</ele><time>2026-03-18T08:33:45Z</time></trkpt>
<trkpt lat="43.0585400000" lon="0.1356170000"><ele>859</ele><time>2026-03-18T08:33:47Z</time></trkpt>
<trkpt lat="43.0585420000" lon="0.1356470000"><ele>859</ele><time>2026-03-18T08:33:50Z</time></trkpt>
<trkpt lat="43.0585520000" lon="0.1356820000"><ele>859</ele><time>2026-03-18T08:33:53Z</time></trkpt>
<trkpt lat="43.0585570000" lon="0.1357070000"><ele>859</ele><time>2026-03-18T08:33:55Z</time></trkpt>
<trkpt lat="43.0585570000" lon="0.1357320000"><ele>858</ele><time>2026-03-18T08:33:57Z</time></trkpt>
<trkpt lat="43.0585620000" lon="0.1357670000"><ele>858</ele><time>2026-03-18T08:33:59Z</time></trkpt>
<trkpt lat="43.0585650000" lon="0.1357950000"><ele>858</ele><time>2026-03-18T08:34:01Z</time></trkpt>
<trkpt lat="43.0585650000" lon="0.1358200000"><ele>858</ele><time>2026-03-18T08:34:03Z</time></trkpt>
<trkpt lat="43.0585650000" lon="0.1358470000"><ele>857</ele><time>2026-03-18T08:34:05Z</time></trkpt>
<trkpt lat="43.0585620000" lon="0.1358770000"><ele>857</ele><time>2026-03-18T08:34:07Z</time></trkpt>
<trkpt lat="43.0585570000" lon="0.1359100000"><ele>857</ele><time>2026-03-18T08:34:09Z</time></trkpt>
<trkpt lat="43.0585570000" lon="0.1359420000"><ele>857</ele><time>2026-03-18T08:34:11Z</time></trkpt>
<trkpt lat="43.0585470000" lon="0.1359720000"><ele>857</ele><time>2026-03-18T08:34:13Z</time></trkpt>
<trkpt lat="43.0585520000" lon="0.1360020000"><ele>857</ele><time>2026-03-18T08:34:15Z</time></trkpt>
<trkpt lat="43.0585550000" lon="0.1360300000"><ele>857</ele><time>2026-03-18T08:34:17Z</time></trkpt>
<trkpt lat="43.0585650000" lon="0.1360620000"><ele>857</ele><time>2026-03-18T08:34:19Z</time></trkpt>
<trkpt lat="43.0585650000" lon="0.1360970000"><ele>857</ele><time>2026-03-18T08:34:21Z</time></trkpt>
<trkpt lat="43.0585570000" lon="0.1361270000"><ele>857</ele><time>2026-03-18T08:34:23Z</time></trkpt>
<trkpt lat="43.0585620000" lon="0.1361620000"><ele>857</ele><time>2026-03-18T08:34:25Z</time></trkpt>
<trkpt lat="43.0585670000" lon="0.1361970000"><ele>857</ele><time>2026-03-18T08:34:27Z</time></trkpt>
<trkpt lat="43.0585670000" lon="0.1362280000"><ele>857</ele><time>2026-03-18T08:34:29Z</time></trkpt>
<trkpt lat="43.0585620000" lon="0.1362530000"><ele>857</ele><time>2026-03-18T08:34:31Z</time></trkpt>
<trkpt lat="43.0585570000" lon="0.1362770000"><ele>858</ele><time>2026-03-18T08:34:33Z</time></trkpt>
<trkpt lat="43.0585470000" lon="0.1363120000"><ele>858</ele><time>2026-03-18T08:34:36Z</time></trkpt>
<trkpt lat="43.0585480000" lon="0.1363420000"><ele>858</ele><time>2026-03-18T08:34:40Z</time></trkpt>
<trkpt lat="43.0585320000" lon="0.1363620000"><ele>859</ele><time>2026-03-18T08:34:46Z</time></trkpt>
<trkpt lat="43.0585120000" lon="0.1363670000"><ele>859</ele><time>2026-03-18T08:34:48Z</time></trkpt>
<trkpt lat="43.0584950000" lon="0.1363770000"><ele>859</ele><time>2026-03-18T08:34:50Z</time></trkpt>
<trkpt lat="43.0585170000" lon="0.1364000000"><ele>860</ele><time>2026-03-18T08:35:02Z</time></trkpt>
<trkpt lat="43.0585250000" lon="0.1364320000"><ele>860</ele><time>2026-03-18T08:35:04Z</time></trkpt>
<trkpt lat="43.0585420000" lon="0.1364480000"><ele>860</ele><time>2026-03-18T08:35:06Z</time></trkpt>
<trkpt lat="43.0585520000" lon="0.1364720000"><ele>860</ele><time>2026-03-18T08:35:24Z</time></trkpt>
<trkpt lat="43.0585450000" lon="0.1364970000"><ele>860</ele><time>2026-03-18T08:35:26Z</time></trkpt>
<trkpt lat="43.0585420000" lon="0.1365300000"><ele>860</ele><time>2026-03-18T08:35:28Z</time></trkpt>
<trkpt lat="43.0585350000" lon="0.1365570000"><ele>860</ele><time>2026-03-18T08:35:30Z</time></trkpt>
<trkpt lat="43.0585300000" lon="0.1365920000"><ele>860</ele><time>2026-03-18T08:35:33Z</time></trkpt>
<trkpt lat="43.0585320000" lon="0.1366170000"><ele>861</ele><time>2026-03-18T08:35:36Z</time></trkpt>
<trkpt lat="43.0585420000" lon="0.1366420000"><ele>861</ele><time>2026-03-18T08:35:39Z</time></trkpt>
<trkpt lat="43.0585250000" lon="0.1366500000"><ele>861</ele><time>2026-03-18T08:35:43Z</time></trkpt>
<trkpt lat="43.0585050000" lon="0.1366520000"><ele>861</ele><time>2026-03-18T08:35:46Z</time></trkpt>
<trkpt lat="43.0585000000" lon="0.1366800000"><ele>862</ele><time>2026-03-18T08:36:12Z</time></trkpt>
<trkpt lat="43.0585050000" lon="0.1367050000"><ele>862</ele><time>2026-03-18T08:36:16Z</time></trkpt>
<trkpt lat="43.0585070000" lon="0.1366770000"><ele>862</ele><time>2026-03-18T08:36:20Z</time></trkpt>
<trkpt lat="43.0585250000" lon="0.1366720000"><ele>861</ele><time>2026-03-18T08:37:15Z</time></trkpt>
<trkpt lat="43.0585420000" lon="0.1366850000"><ele>860</ele><time>2026-03-18T08:37:17Z</time></trkpt>
<trkpt lat="43.0585520000" lon="0.1367070000"><ele>860</ele><time>2026-03-18T08:37:20Z</time></trkpt>
<trkpt lat="43.0585650000" lon="0.1367320000"><ele>860</ele><time>2026-03-18T08:37:22Z</time></trkpt>
<trkpt lat="43.0585720000" lon="0.1367570000"><ele>859</ele><time>2026-03-18T08:37:25Z</time></trkpt>
<trkpt lat="43.0585800000" lon="0.1367830000"><ele>859</ele><time>2026-03-18T08:37:28Z</time></trkpt>
<trkpt lat="43.0585850000" lon="0.1368120000"><ele>858</ele><time>2026-03-18T08:37:30Z</time></trkpt>
<trkpt lat="43.0585870000" lon="0.1368520000"><ele>858</ele><time>2026-03-18T08:37:32Z</time></trkpt>
<trkpt lat="43.0585870000" lon="0.1368780000"><ele>858</ele><time>2026-03-18T08:37:34Z</time></trkpt>
<trkpt lat="43.0585950000" lon="0.1369100000"><ele>857</ele><time>2026-03-18T08:37:36Z</time></trkpt>
<trkpt lat="43.0585970000" lon="0.1369400000"><ele>857</ele><time>2026-03-18T08:37:38Z</time></trkpt>
<trkpt lat="43.0585970000" lon="0.1369650000"><ele>857</ele><time>2026-03-18T08:37:40Z</time></trkpt>
<trkpt lat="43.0586000000" lon="0.1369900000"><ele>857</ele><time>2026-03-18T08:37:42Z</time></trkpt>
<trkpt lat="43.0586170000" lon="0.1370220000"><ele>857</ele><time>2026-03-18T08:37:44Z</time></trkpt>
<trkpt lat="43.0586320000" lon="0.1370550000"><ele>857</ele><time>2026-03-18T08:37:46Z</time></trkpt>
<trkpt lat="43.0586320000" lon="0.1370820000"><ele>856</ele><time>2026-03-18T08:37:48Z</time></trkpt>
<trkpt lat="43.0586320000" lon="0.1371120000"><ele>856</ele><time>2026-03-18T08:37:51Z</time></trkpt>
<trkpt lat="43.0586350000" lon="0.1371370000"><ele>856</ele><time>2026-03-18T08:37:53Z</time></trkpt>
<trkpt lat="43.0586370000" lon="0.1371620000"><ele>856</ele><time>2026-03-18T08:37:55Z</time></trkpt>
<trkpt lat="43.0586420000" lon="0.1371900000"><ele>856</ele><time>2026-03-18T08:37:57Z</time></trkpt>
<trkpt lat="43.0586470000" lon="0.1372170000"><ele>856</ele><time>2026-03-18T08:37:59Z</time></trkpt>
<trkpt lat="43.0586470000" lon="0.1372450000"><ele>855</ele><time>2026-03-18T08:38:01Z</time></trkpt>
<trkpt lat="43.0586370000" lon="0.1372770000"><ele>855</ele><time>2026-03-18T08:38:04Z</time></trkpt>
<trkpt lat="43.0586420000" lon="0.1373020000"><ele>855</ele><time>2026-03-18T08:38:07Z</time></trkpt>
<trkpt lat="43.0586500000" lon="0.1373320000"><ele>855</ele><time>2026-03-18T08:38:09Z</time></trkpt>
<trkpt lat="43.0586500000" lon="0.1373620000"><ele>855</ele><time>2026-03-18T08:38:12Z</time></trkpt>
<trkpt lat="43.0586420000" lon="0.1373920000"><ele>854</ele><time>2026-03-18T08:38:15Z</time></trkpt>
<trkpt lat="43.0586300000" lon="0.1374170000"><ele>854</ele><time>2026-03-18T08:38:18Z</time></trkpt>
<trkpt lat="43.0586220000" lon="0.1374450000"><ele>854</ele><time>2026-03-18T08:38:22Z</time></trkpt>
<trkpt lat="43.0586250000" lon="0.1374720000"><ele>854</ele><time>2026-03-18T08:38:26Z</time></trkpt>
<trkpt lat="43.0586470000" lon="0.1374920000"><ele>854</ele><time>2026-03-18T08:38:29Z</time></trkpt>
<trkpt lat="43.0586550000" lon="0.1375220000"><ele>854</ele><time>2026-03-18T08:38:32Z</time></trkpt>
<trkpt lat="43.0586450000" lon="0.1375450000"><ele>854</ele><time>2026-03-18T08:38:35Z</time></trkpt>
<trkpt lat="43.0586270000" lon="0.1375550000"><ele>854</ele><time>2026-03-18T08:38:47Z</time></trkpt>
<trkpt lat="43.0586000000" lon="0.1375500000"><ele>854</ele><time>2026-03-18T08:38:50Z</time></trkpt>
<trkpt lat="43.0585770000" lon="0.1375300000"><ele>854</ele><time>2026-03-18T08:38:53Z</time></trkpt>
<trkpt lat="43.0585850000" lon="0.1374920000"><ele>854</ele><time>2026-03-18T08:39:01Z</time></trkpt>
<trkpt lat="43.0585920000" lon="0.1374650000"><ele>854</ele><time>2026-03-18T08:39:04Z</time></trkpt>
<trkpt lat="43.0586020000" lon="0.1374400000"><ele>854</ele><time>2026-03-18T08:39:07Z</time></trkpt>
<trkpt lat="43.0586300000" lon="0.1374470000"><ele>853</ele><time>2026-03-18T08:39:32Z</time></trkpt>
<trkpt lat="43.0586550000" lon="0.1374620000"><ele>853</ele><time>2026-03-18T08:39:34Z</time></trkpt>
<trkpt lat="43.0586700000" lon="0.1374770000"><ele>853</ele><time>2026-03-18T08:39:37Z</time></trkpt>
<trkpt lat="43.0586770000" lon="0.1375150000"><ele>853</ele><time>2026-03-18T08:39:40Z</time></trkpt>
<trkpt lat="43.0586700000" lon="0.1375400000"><ele>853</ele><time>2026-03-18T08:39:42Z</time></trkpt>
<trkpt lat="43.0586520000" lon="0.1375580000"><ele>852</ele><time>2026-03-18T08:39:44Z</time></trkpt>
<trkpt lat="43.0586320000" lon="0.1375550000"><ele>852</ele><time>2026-03-18T08:39:48Z</time></trkpt>
<trkpt lat="43.0586120000" lon="0.1375520000"><ele>852</ele><time>2026-03-18T08:39:51Z</time></trkpt>
<trkpt lat="43.0585900000" lon="0.1375420000"><ele>852</ele><time>2026-03-18T08:40:04Z</time></trkpt>
<trkpt lat="43.0585750000" lon="0.1375170000"><ele>852</ele><time>2026-03-18T08:40:06Z</time></trkpt>
<trkpt lat="43.0585480000" lon="0.1374870000"><ele>852</ele><time>2026-03-18T08:40:08Z</time></trkpt>
<trkpt lat="43.0585250000" lon="0.1374620000"><ele>852</ele><time>2026-03-18T08:40:10Z</time></trkpt>
<trkpt lat="43.0585000000" lon="0.1374450000"><ele>852</ele><time>2026-03-18T08:40:12Z</time></trkpt>
<trkpt lat="43.0584800000" lon="0.1374270000"><ele>851</ele><time>2026-03-18T08:40:14Z</time></trkpt>
<trkpt lat="43.0584620000" lon="0.1374070000"><ele>851</ele><time>2026-03-18T08:40:16Z</time></trkpt>
<trkpt lat="43.0584470000" lon="0.1373870000"><ele>851</ele><time>2026-03-18T08:40:18Z</time></trkpt>
<trkpt lat="43.0584320000" lon="0.1373630000"><ele>850</ele><time>2026-03-18T08:40:20Z</time></trkpt>
<trkpt lat="43.0584170000" lon="0.1373380000"><ele>850</ele><time>2026-03-18T08:40:22Z</time></trkpt>
<trkpt lat="43.0584020000" lon="0.1373120000"><ele>850</ele><time>2026-03-18T08:40:24Z</time></trkpt>
<trkpt lat="43.0583900000" lon="0.1372870000"><ele>850</ele><time>2026-03-18T08:40:26Z</time></trkpt>
<trkpt lat="43.0583750000" lon="0.1372670000"><ele>850</ele><time>2026-03-18T08:40:28Z</time></trkpt>
<trkpt lat="43.0583620000" lon="0.1372420000"><ele>849</ele><time>2026-03-18T08:40:30Z</time></trkpt>
<trkpt lat="43.0583470000" lon="0.1372220000"><ele>849</ele><time>2026-03-18T08:40:32Z</time></trkpt>
<trkpt lat="43.0583320000" lon="0.1372020000"><ele>849</ele><time>2026-03-18T08:40:35Z</time></trkpt>
<trkpt lat="43.0583120000" lon="0.1371870000"><ele>849</ele><time>2026-03-18T08:40:38Z</time></trkpt>
<trkpt lat="43.0582970000" lon="0.1371650000"><ele>848</ele><time>2026-03-18T08:40:40Z</time></trkpt>
<trkpt lat="43.0582870000" lon="0.1371370000"><ele>848</ele><time>2026-03-18T08:40:42Z</time></trkpt>
<trkpt lat="43.0582770000" lon="0.1371100000"><ele>848</ele><time>2026-03-18T08:40:44Z</time></trkpt>
<trkpt lat="43.0582670000" lon="0.1370820000"><ele>847</ele><time>2026-03-18T08:40:46Z</time></trkpt>
<trkpt lat="43.0582620000" lon="0.1370500000"><ele>847</ele><time>2026-03-18T08:40:49Z</time></trkpt>
<trkpt lat="43.0582520000" lon="0.1370270000"><ele>846</ele><time>2026-03-18T08:40:52Z</time></trkpt>
<trkpt lat="43.0582370000" lon="0.1370020000"><ele>846</ele><time>2026-03-18T08:40:55Z</time></trkpt>
<trkpt lat="43.0582200000" lon="0.1369800000"><ele>846</ele><time>2026-03-18T08:40:58Z</time></trkpt>
<trkpt lat="43.0582100000" lon="0.1369550000"><ele>845</ele><time>2026-03-18T08:41:01Z</time></trkpt>
<trkpt lat="43.0581970000" lon="0.1369220000"><ele>844</ele><time>2026-03-18T08:41:04Z</time></trkpt>
<trkpt lat="43.0581820000" lon="0.1368920000"><ele>844</ele><time>2026-03-18T08:41:07Z</time></trkpt>
<trkpt lat="43.0581750000" lon="0.1368600000"><ele>843</ele><time>2026-03-18T08:41:10Z</time></trkpt>
<trkpt lat="43.0581570000" lon="0.1368300000"><ele>843</ele><time>2026-03-18T08:41:13Z</time></trkpt>
<trkpt lat="43.0581450000" lon="0.1368020000"><ele>843</ele><time>2026-03-18T08:41:15Z</time></trkpt>
<trkpt lat="43.0581270000" lon="0.1367720000"><ele>842</ele><time>2026-03-18T08:41:18Z</time></trkpt>
<trkpt lat="43.0581120000" lon="0.1367520000"><ele>842</ele><time>2026-03-18T08:41:20Z</time></trkpt>
<trkpt lat="43.0580920000" lon="0.1367330000"><ele>842</ele><time>2026-03-18T08:41:22Z</time></trkpt>
<trkpt lat="43.0580770000" lon="0.1367170000"><ele>841</ele><time>2026-03-18T08:41:24Z</time></trkpt>
<trkpt lat="43.0580650000" lon="0.1366920000"><ele>841</ele><time>2026-03-18T08:41:26Z</time></trkpt>
<trkpt lat="43.0580550000" lon="0.1366650000"><ele>841</ele><time>2026-03-18T08:41:28Z</time></trkpt>
<trkpt lat="43.0580400000" lon="0.1366370000"><ele>840</ele><time>2026-03-18T08:41:30Z</time></trkpt>
<trkpt lat="43.0580200000" lon="0.1366070000"><ele>840</ele><time>2026-03-18T08:41:33Z</time></trkpt>
<trkpt lat="43.0580050000" lon="0.1365870000"><ele>840</ele><time>2026-03-18T08:41:35Z</time></trkpt>
<trkpt lat="43.0579920000" lon="0.1365600000"><ele>840</ele><time>2026-03-18T08:41:37Z</time></trkpt>
<trkpt lat="43.0579770000" lon="0.1365370000"><ele>840</ele><time>2026-03-18T08:41:39Z</time></trkpt>
<trkpt lat="43.0579650000" lon="0.1365170000"><ele>840</ele><time>2026-03-18T08:41:41Z</time></trkpt>
<trkpt lat="43.0579520000" lon="0.1364920000"><ele>840</ele><time>2026-03-18T08:41:43Z</time></trkpt>
<trkpt lat="43.0579370000" lon="0.1364670000"><ele>840</ele><time>2026-03-18T08:41:45Z</time></trkpt>
<trkpt lat="43.0579220000" lon="0.1364420000"><ele>839</ele><time>2026-03-18T08:41:47Z</time></trkpt>
<trkpt lat="43.0579150000" lon="0.1364150000"><ele>839</ele><time>2026-03-18T08:41:49Z</time></trkpt>
<trkpt lat="43.0579070000" lon="0.1363920000"><ele>839</ele><time>2026-03-18T08:41:51Z</time></trkpt>
<trkpt lat="43.0578920000" lon="0.1363720000"><ele>838</ele><time>2026-03-18T08:41:54Z</time></trkpt>
<trkpt lat="43.0578770000" lon="0.1363520000"><ele>838</ele><time>2026-03-18T08:41:57Z</time></trkpt>
<trkpt lat="43.0578670000" lon="0.1363220000"><ele>838</ele><time>2026-03-18T08:41:59Z</time></trkpt>
<trkpt lat="43.0578620000" lon="0.1362950000"><ele>837</ele><time>2026-03-18T08:42:01Z</time></trkpt>
<trkpt lat="43.0578580000" lon="0.1362620000"><ele>837</ele><time>2026-03-18T08:42:03Z</time></trkpt>
<trkpt lat="43.0578550000" lon="0.1362320000"><ele>837</ele><time>2026-03-18T08:42:05Z</time></trkpt>
<trkpt lat="43.0578470000" lon="0.1362030000"><ele>837</ele><time>2026-03-18T08:42:07Z</time></trkpt>
<trkpt lat="43.0578370000" lon="0.1361820000"><ele>836</ele><time>2026-03-18T08:42:09Z</time></trkpt>
<trkpt lat="43.0578220000" lon="0.1361450000"><ele>836</ele><time>2026-03-18T08:42:12Z</time></trkpt>
<trkpt lat="43.0578120000" lon="0.1361170000"><ele>835</ele><time>2026-03-18T08:42:14Z</time></trkpt>
<trkpt lat="43.0578070000" lon="0.1360820000"><ele>835</ele><time>2026-03-18T08:42:16Z</time></trkpt>
<trkpt lat="43.0578020000" lon="0.1360570000"><ele>834</ele><time>2026-03-18T08:42:18Z</time></trkpt>
<trkpt lat="43.0577920000" lon="0.1360920000"><ele>834</ele><time>2026-03-18T08:43:02Z</time></trkpt>
<trkpt lat="43.0577880000" lon="0.1361270000"><ele>834</ele><time>2026-03-18T08:43:04Z</time></trkpt>
<trkpt lat="43.0577870000" lon="0.1361650000"><ele>834</ele><time>2026-03-18T08:43:06Z</time></trkpt>
<trkpt lat="43.0577820000" lon="0.1361980000"><ele>833</ele><time>2026-03-18T08:43:08Z</time></trkpt>
<trkpt lat="43.0577770000" lon="0.1362250000"><ele>833</ele><time>2026-03-18T08:43:10Z</time></trkpt>
<trkpt lat="43.0577750000" lon="0.1362500000"><ele>833</ele><time>2026-03-18T08:43:12Z</time></trkpt>
<trkpt lat="43.0577670000" lon="0.1362800000"><ele>832</ele><time>2026-03-18T08:43:14Z</time></trkpt>
<trkpt lat="43.0577620000" lon="0.1363070000"><ele>832</ele><time>2026-03-18T08:43:16Z</time></trkpt>
<trkpt lat="43.0577570000" lon="0.1363320000"><ele>832</ele><time>2026-03-18T08:43:18Z</time></trkpt>
<trkpt lat="43.0577550000" lon="0.1363570000"><ele>832</ele><time>2026-03-18T08:43:20Z</time></trkpt>
<trkpt lat="43.0577470000" lon="0.1363850000"><ele>831</ele><time>2026-03-18T08:43:22Z</time></trkpt>
<trkpt lat="43.0577450000" lon="0.1364200000"><ele>831</ele><time>2026-03-18T08:43:25Z</time></trkpt>
<trkpt lat="43.0577420000" lon="0.1364530000"><ele>830</ele><time>2026-03-18T08:43:28Z</time></trkpt>
<trkpt lat="43.0577250000" lon="0.1364720000"><ele>830</ele><time>2026-03-18T08:43:31Z</time></trkpt>
<trkpt lat="43.0577120000" lon="0.1365020000"><ele>829</ele><time>2026-03-18T08:43:34Z</time></trkpt>
<trkpt lat="43.0577170000" lon="0.1365320000"><ele>829</ele><time>2026-03-18T08:43:36Z</time></trkpt>
<trkpt lat="43.0577150000" lon="0.1365600000"><ele>828</ele><time>2026-03-18T08:43:38Z</time></trkpt>
<trkpt lat="43.0577150000" lon="0.1365870000"><ele>828</ele><time>2026-03-18T08:43:40Z</time></trkpt>
<trkpt lat="43.0577120000" lon="0.1366120000"><ele>828</ele><time>2026-03-18T08:43:42Z</time></trkpt>
<trkpt lat="43.0577100000" lon="0.1366400000"><ele>827</ele><time>2026-03-18T08:43:44Z</time></trkpt>
<trkpt lat="43.0577120000" lon="0.1366750000"><ele>827</ele><time>2026-03-18T08:43:46Z</time></trkpt>
<trkpt lat="43.0577200000" lon="0.1367070000"><ele>826</ele><time>2026-03-18T08:43:48Z</time></trkpt>
<trkpt lat="43.0577270000" lon="0.1367330000"><ele>826</ele><time>2026-03-18T08:43:50Z</time></trkpt>
<trkpt lat="43.0577250000" lon="0.1367620000"><ele>826</ele><time>2026-03-18T08:43:52Z</time></trkpt>
<trkpt lat="43.0577200000" lon="0.1367950000"><ele>825</ele><time>2026-03-18T08:43:55Z</time></trkpt>
<trkpt lat="43.0577170000" lon="0.1368200000"><ele>825</ele><time>2026-03-18T08:43:57Z</time></trkpt>
<trkpt lat="43.0577120000" lon="0.1368500000"><ele>824</ele><time>2026-03-18T08:44:00Z</time></trkpt>
<trkpt lat="43.0577120000" lon="0.1368730000"><ele>824</ele><time>2026-03-18T08:44:02Z</time></trkpt>
<trkpt lat="43.0577100000" lon="0.1368980000"><ele>823</ele><time>2026-03-18T08:44:04Z</time></trkpt>
<trkpt lat="43.0577070000" lon="0.1369270000"><ele>823</ele><time>2026-03-18T08:44:06Z</time></trkpt>
<trkpt lat="43.0577120000" lon="0.1369570000"><ele>822</ele><time>2026-03-18T08:44:08Z</time></trkpt>
<trkpt lat="43.0577170000" lon="0.1369920000"><ele>822</ele><time>2026-03-18T08:44:10Z</time></trkpt>
<trkpt lat="43.0577220000" lon="0.1370170000"><ele>822</ele><time>2026-03-18T08:44:12Z</time></trkpt>
<trkpt lat="43.0577370000" lon="0.1370500000"><ele>821</ele><time>2026-03-18T08:44:15Z</time></trkpt>
<trkpt lat="43.0577420000" lon="0.1370800000"><ele>821</ele><time>2026-03-18T08:44:18Z</time></trkpt>
<trkpt lat="43.0577370000" lon="0.1371100000"><ele>820</ele><time>2026-03-18T08:44:21Z</time></trkpt>
<trkpt lat="43.0577500000" lon="0.1371420000"><ele>820</ele><time>2026-03-18T08:44:24Z</time></trkpt>
<trkpt lat="43.0577470000" lon="0.1371720000"><ele>820</ele><time>2026-03-18T08:44:27Z</time></trkpt>
<trkpt lat="43.0577520000" lon="0.1371970000"><ele>820</ele><time>2026-03-18T08:44:29Z</time></trkpt>
<trkpt lat="43.0577600000" lon="0.1372270000"><ele>819</ele><time>2026-03-18T08:44:31Z</time></trkpt>
<trkpt lat="43.0577650000" lon="0.1372520000"><ele>819</ele><time>2026-03-18T08:44:33Z</time></trkpt>
<trkpt lat="43.0577700000" lon="0.1372800000"><ele>819</ele><time>2026-03-18T08:44:35Z</time></trkpt>
<trkpt lat="43.0577720000" lon="0.1373050000"><ele>819</ele><time>2026-03-18T08:44:37Z</time></trkpt>
<trkpt lat="43.0577720000" lon="0.1373420000"><ele>818</ele><time>2026-03-18T08:44:40Z</time></trkpt>
<trkpt lat="43.0577720000" lon="0.1373670000"><ele>818</ele><time>2026-03-18T08:44:42Z</time></trkpt>
<trkpt lat="43.0577720000" lon="0.1373970000"><ele>817</ele><time>2026-03-18T08:44:44Z</time></trkpt>
<trkpt lat="43.0577750000" lon="0.1374270000"><ele>817</ele><time>2026-03-18T08:44:46Z</time></trkpt>
<trkpt lat="43.0577770000" lon="0.1374620000"><ele>816</ele><time>2026-03-18T08:44:49Z</time></trkpt>
<trkpt lat="43.0577770000" lon="0.1374900000"><ele>815</ele><time>2026-03-18T08:44:52Z</time></trkpt>
<trkpt lat="43.0577820000" lon="0.1375170000"><ele>815</ele><time>2026-03-18T08:44:54Z</time></trkpt>
<trkpt lat="43.0577800000" lon="0.1375450000"><ele>815</ele><time>2026-03-18T08:44:56Z</time></trkpt>
<trkpt lat="43.0577870000" lon="0.1375680000"><ele>814</ele><time>2026-03-18T08:44:58Z</time></trkpt>
<trkpt lat="43.0577970000" lon="0.1376000000"><ele>814</ele><time>2026-03-18T08:45:00Z</time></trkpt>
<trkpt lat="43.0578070000" lon="0.1376220000"><ele>814</ele><time>2026-03-18T08:45:02Z</time></trkpt>
<trkpt lat="43.0578020000" lon="0.1376600000"><ele>814</ele><time>2026-03-18T08:45:05Z</time></trkpt>
<trkpt lat="43.0578050000" lon="0.1376920000"><ele>813</ele><time>2026-03-18T08:45:09Z</time></trkpt>
<trkpt lat="43.0578250000" lon="0.1376820000"><ele>813</ele><time>2026-03-18T08:45:13Z</time></trkpt>
<trkpt lat="43.0578450000" lon="0.1376670000"><ele>813</ele><time>2026-03-18T08:45:16Z</time></trkpt>
<trkpt lat="43.0578220000" lon="0.1376920000"><ele>812</ele><time>2026-03-18T08:45:56Z</time></trkpt>
<trkpt lat="43.0578150000" lon="0.1377150000"><ele>812</ele><time>2026-03-18T08:45:57Z</time></trkpt>
<trkpt lat="43.0578070000" lon="0.1377520000"><ele>812</ele><time>2026-03-18T08:45:59Z</time></trkpt>
<trkpt lat="43.0578170000" lon="0.1377920000"><ele>812</ele><time>2026-03-18T08:46:01Z</time></trkpt>
<trkpt lat="43.0578200000" lon="0.1378300000"><ele>811</ele><time>2026-03-18T08:46:03Z</time></trkpt>
<trkpt lat="43.0578250000" lon="0.1378570000"><ele>811</ele><time>2026-03-18T08:46:05Z</time></trkpt>
<trkpt lat="43.0578370000" lon="0.1378870000"><ele>811</ele><time>2026-03-18T08:46:07Z</time></trkpt>
<trkpt lat="43.0578370000" lon="0.1379150000"><ele>810</ele><time>2026-03-18T08:46:09Z</time></trkpt>
<trkpt lat="43.0578470000" lon="0.1379400000"><ele>810</ele><time>2026-03-18T08:46:11Z</time></trkpt>
<trkpt lat="43.0578470000" lon="0.1379670000"><ele>809</ele><time>2026-03-18T08:46:14Z</time></trkpt>
<trkpt lat="43.0578520000" lon="0.1379970000"><ele>809</ele><time>2026-03-18T08:46:17Z</time></trkpt>
<trkpt lat="43.0578520000" lon="0.1380250000"><ele>808</ele><time>2026-03-18T08:46:20Z</time></trkpt>
<trkpt lat="43.0578520000" lon="0.1380520000"><ele>808</ele><time>2026-03-18T08:46:22Z</time></trkpt>
<trkpt lat="43.0578670000" lon="0.1380920000"><ele>807</ele><time>2026-03-18T08:46:24Z</time></trkpt>
<trkpt lat="43.0578770000" lon="0.1381300000"><ele>807</ele><time>2026-03-18T08:46:26Z</time></trkpt>
<trkpt lat="43.0578920000" lon="0.1381570000"><ele>806</ele><time>2026-03-18T08:46:28Z</time></trkpt>
<trkpt lat="43.0579020000" lon="0.1381900000"><ele>806</ele><time>2026-03-18T08:46:30Z</time></trkpt>
<trkpt lat="43.0579020000" lon="0.1382270000"><ele>806</ele><time>2026-03-18T08:46:32Z</time></trkpt>
<trkpt lat="43.0579100000" lon="0.1382570000"><ele>805</ele><time>2026-03-18T08:46:34Z</time></trkpt>
<trkpt lat="43.0579200000" lon="0.1382880000"><ele>805</ele><time>2026-03-18T08:46:36Z</time></trkpt>
<trkpt lat="43.0579350000" lon="0.1383200000"><ele>804</ele><time>2026-03-18T08:46:38Z</time></trkpt>
<trkpt lat="43.0579470000" lon="0.1383550000"><ele>804</ele><time>2026-03-18T08:46:40Z</time></trkpt>
<trkpt lat="43.0579620000" lon="0.1383850000"><ele>804</ele><time>2026-03-18T08:46:42Z</time></trkpt>
<trkpt lat="43.0579770000" lon="0.1384020000"><ele>804</ele><time>2026-03-18T08:46:44Z</time></trkpt>
<trkpt lat="43.0579870000" lon="0.1384270000"><ele>803</ele><time>2026-03-18T08:46:46Z</time></trkpt>
<trkpt lat="43.0580000000" lon="0.1384520000"><ele>803</ele><time>2026-03-18T08:46:48Z</time></trkpt>
<trkpt lat="43.0580100000" lon="0.1384800000"><ele>802</ele><time>2026-03-18T08:46:50Z</time></trkpt>
<trkpt lat="43.0580170000" lon="0.1385050000"><ele>802</ele><time>2026-03-18T08:46:53Z</time></trkpt>
<trkpt lat="43.0580170000" lon="0.1385280000"><ele>801</ele><time>2026-03-18T08:46:55Z</time></trkpt>
<trkpt lat="43.0580000000" lon="0.1385430000"><ele>800</ele><time>2026-03-18T08:47:09Z</time></trkpt>
<trkpt lat="43.0579820000" lon="0.1385380000"><ele>799</ele><time>2026-03-18T08:47:12Z</time></trkpt>
<trkpt lat="43.0579620000" lon="0.1385280000"><ele>799</ele><time>2026-03-18T08:47:13Z</time></trkpt>
<trkpt lat="43.0579420000" lon="0.1385200000"><ele>799</ele><time>2026-03-18T08:47:14Z</time></trkpt>
<trkpt lat="43.0579220000" lon="0.1385070000"><ele>799</ele><time>2026-03-18T08:47:15Z</time></trkpt>
<trkpt lat="43.0579020000" lon="0.1384970000"><ele>799</ele><time>2026-03-18T08:47:16Z</time></trkpt>
<trkpt lat="43.0578870000" lon="0.1384870000"><ele>798</ele><time>2026-03-18T08:47:17Z</time></trkpt>
<trkpt lat="43.0578550000" lon="0.1384720000"><ele>798</ele><time>2026-03-18T08:47:19Z</time></trkpt>
<trkpt lat="43.0578300000" lon="0.1384600000"><ele>798</ele><time>2026-03-18T08:47:21Z</time></trkpt>
<trkpt lat="43.0578120000" lon="0.1384420000"><ele>798</ele><time>2026-03-18T08:47:23Z</time></trkpt>
<trkpt lat="43.0577950000" lon="0.1384270000"><ele>797</ele><time>2026-03-18T08:47:25Z</time></trkpt>
<trkpt lat="43.0577880000" lon="0.1383980000"><ele>797</ele><time>2026-03-18T08:47:27Z</time></trkpt>
<trkpt lat="43.0577870000" lon="0.1383700000"><ele>797</ele><time>2026-03-18T08:47:30Z</time></trkpt>
<trkpt lat="43.0577770000" lon="0.1383420000"><ele>796</ele><time>2026-03-18T08:47:32Z</time></trkpt>
<trkpt lat="43.0577670000" lon="0.1383120000"><ele>796</ele><time>2026-03-18T08:47:34Z</time></trkpt>
<trkpt lat="43.0577420000" lon="0.1382770000"><ele>796</ele><time>2026-03-18T08:47:36Z</time></trkpt>
<trkpt lat="43.0577170000" lon="0.1382630000"><ele>795</ele><time>2026-03-18T08:47:38Z</time></trkpt>
<trkpt lat="43.0576900000" lon="0.1382570000"><ele>795</ele><time>2026-03-18T08:47:40Z</time></trkpt>
<trkpt lat="43.0576670000" lon="0.1382570000"><ele>795</ele><time>2026-03-18T08:47:42Z</time></trkpt>
<trkpt lat="43.0576470000" lon="0.1382470000"><ele>794</ele><time>2026-03-18T08:47:45Z</time></trkpt>
<trkpt lat="43.0576270000" lon="0.1382220000"><ele>794</ele><time>2026-03-18T08:47:50Z</time></trkpt>
<trkpt lat="43.0576050000" lon="0.1381900000"><ele>794</ele><time>2026-03-18T08:47:52Z</time></trkpt>
<trkpt lat="43.0575870000" lon="0.1381570000"><ele>793</ele><time>2026-03-18T08:47:54Z</time></trkpt>
<trkpt lat="43.0575820000" lon="0.1381350000"><ele>793</ele><time>2026-03-18T08:47:56Z</time></trkpt>
<trkpt lat="43.0575770000" lon="0.1381020000"><ele>793</ele><time>2026-03-18T08:47:59Z</time></trkpt>
<trkpt lat="43.0575670000" lon="0.1380720000"><ele>792</ele><time>2026-03-18T08:48:05Z</time></trkpt>
<trkpt lat="43.0575520000" lon="0.1380520000"><ele>792</ele><time>2026-03-18T08:48:07Z</time></trkpt>
<trkpt lat="43.0575270000" lon="0.1380270000"><ele>791</ele><time>2026-03-18T08:48:10Z</time></trkpt>
<trkpt lat="43.0575150000" lon="0.1380070000"><ele>791</ele><time>2026-03-18T08:48:12Z</time></trkpt>
<trkpt lat="43.0575100000" lon="0.1379770000"><ele>790</ele><time>2026-03-18T08:48:14Z</time></trkpt>
<trkpt lat="43.0575000000" lon="0.1379520000"><ele>790</ele><time>2026-03-18T08:48:16Z</time></trkpt>
<trkpt lat="43.0574820000" lon="0.1379220000"><ele>790</ele><time>2026-03-18T08:48:19Z</time></trkpt>
<trkpt lat="43.0574770000" lon="0.1378970000"><ele>789</ele><time>2026-03-18T08:48:21Z</time></trkpt>
<trkpt lat="43.0574720000" lon="0.1378680000"><ele>789</ele><time>2026-03-18T08:48:23Z</time></trkpt>
<trkpt lat="43.0574600000" lon="0.1378380000"><ele>789</ele><time>2026-03-18T08:48:26Z</time></trkpt>
<trkpt lat="43.0574470000" lon="0.1378120000"><ele>788</ele><time>2026-03-18T08:48:29Z</time></trkpt>
<trkpt lat="43.0574400000" lon="0.1377770000"><ele>787</ele><time>2026-03-18T08:48:35Z</time></trkpt>
<trkpt lat="43.0574520000" lon="0.1377600000"><ele>787</ele><time>2026-03-18T08:48:43Z</time></trkpt>
<trkpt lat="43.0574750000" lon="0.1377470000"><ele>786</ele><time>2026-03-18T08:49:23Z</time></trkpt>
<trkpt lat="43.0574570000" lon="0.1377470000"><ele>787</ele><time>2026-03-18T08:49:41Z</time></trkpt>
<trkpt lat="43.0574300000" lon="0.1377270000"><ele>786</ele><time>2026-03-18T08:49:43Z</time></trkpt>
<trkpt lat="43.0574080000" lon="0.1377070000"><ele>786</ele><time>2026-03-18T08:49:45Z</time></trkpt>
<trkpt lat="43.0573870000" lon="0.1376870000"><ele>786</ele><time>2026-03-18T08:49:47Z</time></trkpt>
<trkpt lat="43.0573720000" lon="0.1376670000"><ele>786</ele><time>2026-03-18T08:49:49Z</time></trkpt>
<trkpt lat="43.0573570000" lon="0.1376500000"><ele>785</ele><time>2026-03-18T08:49:51Z</time></trkpt>
<trkpt lat="43.0573520000" lon="0.1376220000"><ele>785</ele><time>2026-03-18T08:49:53Z</time></trkpt>
<trkpt lat="43.0573370000" lon="0.1375920000"><ele>784</ele><time>2026-03-18T08:49:55Z</time></trkpt>
<trkpt lat="43.0573320000" lon="0.1375580000"><ele>784</ele><time>2026-03-18T08:49:57Z</time></trkpt>
<trkpt lat="43.0573370000" lon="0.1375320000"><ele>784</ele><time>2026-03-18T08:49:59Z</time></trkpt>
<trkpt lat="43.0573350000" lon="0.1375020000"><ele>784</ele><time>2026-03-18T08:50:01Z</time></trkpt>
<trkpt lat="43.0573220000" lon="0.1374820000"><ele>784</ele><time>2026-03-18T08:50:02Z</time></trkpt>
<trkpt lat="43.0572970000" lon="0.1374620000"><ele>784</ele><time>2026-03-18T08:50:04Z</time></trkpt>
<trkpt lat="43.0572670000" lon="0.1374450000"><ele>784</ele><time>2026-03-18T08:50:06Z</time></trkpt>
<trkpt lat="43.0572500000" lon="0.1374220000"><ele>784</ele><time>2026-03-18T08:50:08Z</time></trkpt>
<trkpt lat="43.0572300000" lon="0.1374020000"><ele>784</ele><time>2026-03-18T08:50:10Z</time></trkpt>
<trkpt lat="43.0572120000" lon="0.1373750000"><ele>784</ele><time>2026-03-18T08:50:12Z</time></trkpt>
<trkpt lat="43.0571870000" lon="0.1373550000"><ele>784</ele><time>2026-03-18T08:50:14Z</time></trkpt>
<trkpt lat="43.0571620000" lon="0.1373470000"><ele>784</ele><time>2026-03-18T08:50:16Z</time></trkpt>
<trkpt lat="43.0571350000" lon="0.1373320000"><ele>784</ele><time>2026-03-18T08:50:18Z</time></trkpt>
<trkpt lat="43.0571050000" lon="0.1373220000"><ele>784</ele><time>2026-03-18T08:50:20Z</time></trkpt>
<trkpt lat="43.0570770000" lon="0.1373020000"><ele>784</ele><time>2026-03-18T08:50:22Z</time></trkpt>
<trkpt lat="43.0570570000" lon="0.1372880000"><ele>784</ele><time>2026-03-18T08:50:24Z</time></trkpt>
<trkpt lat="43.0570370000" lon="0.1372830000"><ele>783</ele><time>2026-03-18T08:50:26Z</time></trkpt>
<trkpt lat="43.0570220000" lon="0.1372620000"><ele>783</ele><time>2026-03-18T08:50:28Z</time></trkpt>
<trkpt lat="43.0570070000" lon="0.1372400000"><ele>783</ele><time>2026-03-18T08:50:30Z</time></trkpt>
<trkpt lat="43.0570020000" lon="0.1372120000"><ele>783</ele><time>2026-03-18T08:50:32Z</time></trkpt>
<trkpt lat="43.0569820000" lon="0.1371980000"><ele>783</ele><time>2026-03-18T08:50:38Z</time></trkpt>
<trkpt lat="43.0569700000" lon="0.1371820000"><ele>783</ele><time>2026-03-18T08:50:40Z</time></trkpt>
<trkpt lat="43.0569650000" lon="0.1371350000"><ele>783</ele><time>2026-03-18T08:50:43Z</time></trkpt>
<trkpt lat="43.0569570000" lon="0.1371020000"><ele>783</ele><time>2026-03-18T08:50:45Z</time></trkpt>
<trkpt lat="43.0569450000" lon="0.1370770000"><ele>784</ele><time>2026-03-18T08:50:47Z</time></trkpt>
<trkpt lat="43.0569220000" lon="0.1370470000"><ele>784</ele><time>2026-03-18T08:50:49Z</time></trkpt>
<trkpt lat="43.0569120000" lon="0.1370200000"><ele>784</ele><time>2026-03-18T08:50:51Z</time></trkpt>
<trkpt lat="43.0568970000" lon="0.1369970000"><ele>783</ele><time>2026-03-18T08:50:53Z</time></trkpt>
<trkpt lat="43.0568820000" lon="0.1369770000"><ele>783</ele><time>2026-03-18T08:50:55Z</time></trkpt>
<trkpt lat="43.0568770000" lon="0.1369450000"><ele>783</ele><time>2026-03-18T08:50:58Z</time></trkpt>
<trkpt lat="43.0568650000" lon="0.1369120000"><ele>783</ele><time>2026-03-18T08:51:11Z</time></trkpt>
<trkpt lat="43.0568520000" lon="0.1368720000"><ele>783</ele><time>2026-03-18T08:51:13Z</time></trkpt>
<trkpt lat="43.0568470000" lon="0.1368250000"><ele>783</ele><time>2026-03-18T08:51:15Z</time></trkpt>
<trkpt lat="43.0568450000" lon="0.1367950000"><ele>783</ele><time>2026-03-18T08:51:17Z</time></trkpt>
<trkpt lat="43.0568400000" lon="0.1367580000"><ele>782</ele><time>2026-03-18T08:51:19Z</time></trkpt>
<trkpt lat="43.0568320000" lon="0.1367220000"><ele>782</ele><time>2026-03-18T08:51:21Z</time></trkpt>
<trkpt lat="43.0568320000" lon="0.1366950000"><ele>782</ele><time>2026-03-18T08:51:23Z</time></trkpt>
<trkpt lat="43.0568320000" lon="0.1366550000"><ele>782</ele><time>2026-03-18T08:51:25Z</time></trkpt>
<trkpt lat="43.0568300000" lon="0.1366220000"><ele>782</ele><time>2026-03-18T08:51:27Z</time></trkpt>
<trkpt lat="43.0568250000" lon="0.1365930000"><ele>782</ele><time>2026-03-18T08:51:29Z</time></trkpt>
<trkpt lat="43.0568100000" lon="0.1365670000"><ele>781</ele><time>2026-03-18T08:51:31Z</time></trkpt>
<trkpt lat="43.0567970000" lon="0.1365370000"><ele>781</ele><time>2026-03-18T08:51:33Z</time></trkpt>
<trkpt lat="43.0567870000" lon="0.1365120000"><ele>781</ele><time>2026-03-18T08:51:35Z</time></trkpt>
<trkpt lat="43.0567720000" lon="0.1364820000"><ele>781</ele><time>2026-03-18T08:51:38Z</time></trkpt>
<trkpt lat="43.0567620000" lon="0.1364470000"><ele>781</ele><time>2026-03-18T08:51:40Z</time></trkpt>
<trkpt lat="43.0567500000" lon="0.1364120000"><ele>781</ele><time>2026-03-18T08:51:42Z</time></trkpt>
<trkpt lat="43.0567370000" lon="0.1363770000"><ele>781</ele><time>2026-03-18T08:51:44Z</time></trkpt>
<trkpt lat="43.0567270000" lon="0.1363430000"><ele>781</ele><time>2026-03-18T08:51:46Z</time></trkpt>
<trkpt lat="43.0567200000" lon="0.1363020000"><ele>781</ele><time>2026-03-18T08:51:48Z</time></trkpt>
<trkpt lat="43.0567050000" lon="0.1362720000"><ele>780</ele><time>2026-03-18T08:51:50Z</time></trkpt>
<trkpt lat="43.0566970000" lon="0.1362420000"><ele>780</ele><time>2026-03-18T08:51:51Z</time></trkpt>
<trkpt lat="43.0566900000" lon="0.1362150000"><ele>781</ele><time>2026-03-18T08:51:53Z</time></trkpt>
<trkpt lat="43.0566670000" lon="0.1361830000"><ele>781</ele><time>2026-03-18T08:51:55Z</time></trkpt>
<trkpt lat="43.0566570000" lon="0.1361520000"><ele>781</ele><time>2026-03-18T08:51:57Z</time></trkpt>
<trkpt lat="43.0566470000" lon="0.1361270000"><ele>781</ele><time>2026-03-18T08:51:59Z</time></trkpt>
<trkpt lat="43.0566350000" lon="0.1360970000"><ele>781</ele><time>2026-03-18T08:52:01Z</time></trkpt>
<trkpt lat="43.0566320000" lon="0.1360680000"><ele>781</ele><time>2026-03-18T08:52:03Z</time></trkpt>
<trkpt lat="43.0566320000" lon="0.1360420000"><ele>781</ele><time>2026-03-18T08:52:05Z</time></trkpt>
<trkpt lat="43.0566250000" lon="0.1360150000"><ele>781</ele><time>2026-03-18T08:52:07Z</time></trkpt>
<trkpt lat="43.0566120000" lon="0.1359850000"><ele>781</ele><time>2026-03-18T08:52:09Z</time></trkpt>
<trkpt lat="43.0566120000" lon="0.1359520000"><ele>781</ele><time>2026-03-18T08:52:11Z</time></trkpt>
<trkpt lat="43.0566070000" lon="0.1359220000"><ele>781</ele><time>2026-03-18T08:52:13Z</time></trkpt>
<trkpt lat="43.0566070000" lon="0.1358900000"><ele>781</ele><time>2026-03-18T08:52:15Z</time></trkpt>
<trkpt lat="43.0566020000" lon="0.1358550000"><ele>781</ele><time>2026-03-18T08:52:17Z</time></trkpt>
<trkpt lat="43.0566000000" lon="0.1358220000"><ele>781</ele><time>2026-03-18T08:52:19Z</time></trkpt>
<trkpt lat="43.0565970000" lon="0.1357870000"><ele>781</ele><time>2026-03-18T08:52:21Z</time></trkpt>
<trkpt lat="43.0565920000" lon="0.1357570000"><ele>781</ele><time>2026-03-18T08:52:23Z</time></trkpt>
<trkpt lat="43.0565870000" lon="0.1357250000"><ele>781</ele><time>2026-03-18T08:52:25Z</time></trkpt>
<trkpt lat="43.0565780000" lon="0.1356920000"><ele>781</ele><time>2026-03-18T08:52:27Z</time></trkpt>
<trkpt lat="43.0565720000" lon="0.1356570000"><ele>781</ele><time>2026-03-18T08:52:29Z</time></trkpt>
<trkpt lat="43.0565670000" lon="0.1356270000"><ele>781</ele><time>2026-03-18T08:52:31Z</time></trkpt>
<trkpt lat="43.0565720000" lon="0.1355970000"><ele>781</ele><time>2026-03-18T08:52:33Z</time></trkpt>
<trkpt lat="43.0565750000" lon="0.1355670000"><ele>781</ele><time>2026-03-18T08:52:35Z</time></trkpt>
<trkpt lat="43.0565700000" lon="0.1355330000"><ele>781</ele><time>2026-03-18T08:52:37Z</time></trkpt>
<trkpt lat="43.0565620000" lon="0.1354970000"><ele>781</ele><time>2026-03-18T08:52:39Z</time></trkpt>
<trkpt lat="43.0565550000" lon="0.1354650000"><ele>781</ele><time>2026-03-18T08:52:41Z</time></trkpt>
<trkpt lat="43.0565470000" lon="0.1354320000"><ele>781</ele><time>2026-03-18T08:52:43Z</time></trkpt>
<trkpt lat="43.0565370000" lon="0.1354000000"><ele>781</ele><time>2026-03-18T08:52:45Z</time></trkpt>
<trkpt lat="43.0565220000" lon="0.1353720000"><ele>781</ele><time>2026-03-18T08:52:47Z</time></trkpt>
<trkpt lat="43.0565070000" lon="0.1353380000"><ele>781</ele><time>2026-03-18T08:52:49Z</time></trkpt>
<trkpt lat="43.0565020000" lon="0.1353070000"><ele>781</ele><time>2026-03-18T08:52:51Z</time></trkpt>
<trkpt lat="43.0564970000" lon="0.1352770000"><ele>780</ele><time>2026-03-18T08:52:53Z</time></trkpt>
<trkpt lat="43.0564920000" lon="0.1352500000"><ele>780</ele><time>2026-03-18T08:52:55Z</time></trkpt>
<trkpt lat="43.0564920000" lon="0.1352220000"><ele>780</ele><time>2026-03-18T08:52:57Z</time></trkpt>
<trkpt lat="43.0564800000" lon="0.1351950000"><ele>780</ele><time>2026-03-18T08:52:59Z</time></trkpt>
<trkpt lat="43.0564750000" lon="0.1351650000"><ele>780</ele><time>2026-03-18T08:53:01Z</time></trkpt>
<trkpt lat="43.0564720000" lon="0.1351320000"><ele>779</ele><time>2026-03-18T08:53:03Z</time></trkpt>
<trkpt lat="43.0564720000" lon="0.1351050000"><ele>779</ele><time>2026-03-18T08:53:05Z</time></trkpt>
<trkpt lat="43.0564720000" lon="0.1350720000"><ele>779</ele><time>2026-03-18T08:53:07Z</time></trkpt>
<trkpt lat="43.0564670000" lon="0.1350420000"><ele>779</ele><time>2026-03-18T08:53:10Z</time></trkpt>
<trkpt lat="43.0564670000" lon="0.1350020000"><ele>778</ele><time>2026-03-18T08:53:13Z</time></trkpt>
<trkpt lat="43.0564670000" lon="0.1349770000"><ele>778</ele><time>2026-03-18T08:53:15Z</time></trkpt>
<trkpt lat="43.0564650000" lon="0.1349470000"><ele>778</ele><time>2026-03-18T08:53:18Z</time></trkpt>
<trkpt lat="43.0564620000" lon="0.1349120000"><ele>777</ele><time>2026-03-18T08:53:21Z</time></trkpt>
<trkpt lat="43.0564550000" lon="0.1348820000"><ele>777</ele><time>2026-03-18T08:53:23Z</time></trkpt>
<trkpt lat="43.0564470000" lon="0.1348550000"><ele>777</ele><time>2026-03-18T08:53:25Z</time></trkpt>
<trkpt lat="43.0564520000" lon="0.1348220000"><ele>776</ele><time>2026-03-18T08:53:27Z</time></trkpt>
<trkpt lat="43.0564550000" lon="0.1347930000"><ele>776</ele><time>2026-03-18T08:53:29Z</time></trkpt>
<trkpt lat="43.0564570000" lon="0.1347670000"><ele>776</ele><time>2026-03-18T08:53:31Z</time></trkpt>
<trkpt lat="43.0564650000" lon="0.1347420000"><ele>776</ele><time>2026-03-18T08:53:33Z</time></trkpt>
<trkpt lat="43.0564420000" lon="0.1347520000"><ele>774</ele><time>2026-03-18T08:53:53Z</time></trkpt>
<trkpt lat="43.0564220000" lon="0.1347800000"><ele>774</ele><time>2026-03-18T08:53:55Z</time></trkpt>
<trkpt lat="43.0564070000" lon="0.1347970000"><ele>774</ele><time>2026-03-18T08:53:56Z</time></trkpt>
<trkpt lat="43.0563770000" lon="0.1348250000"><ele>773</ele><time>2026-03-18T08:53:58Z</time></trkpt>
<trkpt lat="43.0563600000" lon="0.1348370000"><ele>773</ele><time>2026-03-18T08:53:59Z</time></trkpt>
<trkpt lat="43.0563320000" lon="0.1348470000"><ele>773</ele><time>2026-03-18T08:54:01Z</time></trkpt>
<trkpt lat="43.0563050000" lon="0.1348500000"><ele>772</ele><time>2026-03-18T08:54:04Z</time></trkpt>
<trkpt lat="43.0562820000" lon="0.1348520000"><ele>771</ele><time>2026-03-18T08:54:07Z</time></trkpt>
<trkpt lat="43.0562620000" lon="0.1348600000"><ele>770</ele><time>2026-03-18T08:54:11Z</time></trkpt>
<trkpt lat="43.0562400000" lon="0.1348550000"><ele>769</ele><time>2026-03-18T08:54:14Z</time></trkpt>
<trkpt lat="43.0562200000" lon="0.1348650000"><ele>768</ele><time>2026-03-18T08:54:17Z</time></trkpt>
<trkpt lat="43.0561870000" lon="0.1348670000"><ele>767</ele><time>2026-03-18T08:54:21Z</time></trkpt>
<trkpt lat="43.0561700000" lon="0.1348870000"><ele>767</ele><time>2026-03-18T08:54:24Z</time></trkpt>
<trkpt lat="43.0561500000" lon="0.1349020000"><ele>766</ele><time>2026-03-18T08:54:28Z</time></trkpt>
<trkpt lat="43.0561320000" lon="0.1349120000"><ele>765</ele><time>2026-03-18T08:54:30Z</time></trkpt>
<trkpt lat="43.0561100000" lon="0.1349150000"><ele>765</ele><time>2026-03-18T08:54:32Z</time></trkpt>
<trkpt lat="43.0560900000" lon="0.1349280000"><ele>764</ele><time>2026-03-18T08:54:34Z</time></trkpt>
<trkpt lat="43.0560600000" lon="0.1349450000"><ele>764</ele><time>2026-03-18T08:54:36Z</time></trkpt>
<trkpt lat="43.0560420000" lon="0.1349670000"><ele>763</ele><time>2026-03-18T08:54:38Z</time></trkpt>
<trkpt lat="43.0560270000" lon="0.1349870000"><ele>763</ele><time>2026-03-18T08:54:40Z</time></trkpt>
<trkpt lat="43.0560120000" lon="0.1350020000"><ele>762</ele><time>2026-03-18T08:54:42Z</time></trkpt>
<trkpt lat="43.0559920000" lon="0.1350220000"><ele>762</ele><time>2026-03-18T08:54:45Z</time></trkpt>
<trkpt lat="43.0559730000" lon="0.1350370000"><ele>761</ele><time>2026-03-18T08:54:47Z</time></trkpt>
<trkpt lat="43.0559570000" lon="0.1350470000"><ele>761</ele><time>2026-03-18T08:54:49Z</time></trkpt>
<trkpt lat="43.0559320000" lon="0.1350720000"><ele>760</ele><time>2026-03-18T08:54:52Z</time></trkpt>
<trkpt lat="43.0559170000" lon="0.1350870000"><ele>760</ele><time>2026-03-18T08:54:54Z</time></trkpt>
<trkpt lat="43.0559000000" lon="0.1351020000"><ele>759</ele><time>2026-03-18T08:54:56Z</time></trkpt>
<trkpt lat="43.0558770000" lon="0.1351150000"><ele>759</ele><time>2026-03-18T08:54:58Z</time></trkpt>
<trkpt lat="43.0558620000" lon="0.1351300000"><ele>759</ele><time>2026-03-18T08:55:00Z</time></trkpt>
<trkpt lat="43.0558370000" lon="0.1351420000"><ele>758</ele><time>2026-03-18T08:55:03Z</time></trkpt>
<trkpt lat="43.0558120000" lon="0.1351570000"><ele>758</ele><time>2026-03-18T08:55:06Z</time></trkpt>
<trkpt lat="43.0557950000" lon="0.1351670000"><ele>758</ele><time>2026-03-18T08:55:08Z</time></trkpt>
<trkpt lat="43.0557770000" lon="0.1351820000"><ele>757</ele><time>2026-03-18T08:55:10Z</time></trkpt>
<trkpt lat="43.0557550000" lon="0.1351920000"><ele>757</ele><time>2026-03-18T08:55:12Z</time></trkpt>
<trkpt lat="43.0557320000" lon="0.1352020000"><ele>757</ele><time>2026-03-18T08:55:14Z</time></trkpt>
<trkpt lat="43.0557070000" lon="0.1352030000"><ele>757</ele><time>2026-03-18T08:55:16Z</time></trkpt>
<trkpt lat="43.0556850000" lon="0.1352070000"><ele>757</ele><time>2026-03-18T08:55:18Z</time></trkpt>
<trkpt lat="43.0556620000" lon="0.1352280000"><ele>757</ele><time>2026-03-18T08:55:20Z</time></trkpt>
<trkpt lat="43.0556470000" lon="0.1352470000"><ele>757</ele><time>2026-03-18T08:55:21Z</time></trkpt>
<trkpt lat="43.0556270000" lon="0.1352750000"><ele>756</ele><time>2026-03-18T08:55:23Z</time></trkpt>
<trkpt lat="43.0556020000" lon="0.1352970000"><ele>756</ele><time>2026-03-18T08:55:25Z</time></trkpt>
<trkpt lat="43.0555720000" lon="0.1353070000"><ele>756</ele><time>2026-03-18T08:55:27Z</time></trkpt>
<trkpt lat="43.0555470000" lon="0.1353120000"><ele>756</ele><time>2026-03-18T08:55:29Z</time></trkpt>
<trkpt lat="43.0555220000" lon="0.1353220000"><ele>756</ele><time>2026-03-18T08:55:31Z</time></trkpt>
<trkpt lat="43.0555050000" lon="0.1353320000"><ele>756</ele><time>2026-03-18T08:55:33Z</time></trkpt>
<trkpt lat="43.0554870000" lon="0.1353370000"><ele>756</ele><time>2026-03-18T08:55:35Z</time></trkpt>
<trkpt lat="43.0554650000" lon="0.1353480000"><ele>755</ele><time>2026-03-18T08:55:45Z</time></trkpt>
<trkpt lat="43.0554450000" lon="0.1353620000"><ele>755</ele><time>2026-03-18T08:55:47Z</time></trkpt>
<trkpt lat="43.0554270000" lon="0.1353720000"><ele>755</ele><time>2026-03-18T08:55:49Z</time></trkpt>
<trkpt lat="43.0554100000" lon="0.1353900000"><ele>756</ele><time>2026-03-18T08:55:51Z</time></trkpt>
<trkpt lat="43.0553970000" lon="0.1354120000"><ele>756</ele><time>2026-03-18T08:55:53Z</time></trkpt>
<trkpt lat="43.0553820000" lon="0.1353970000"><ele>755</ele><time>2026-03-18T08:57:25Z</time></trkpt>
<trkpt lat="43.0553650000" lon="0.1354120000"><ele>755</ele><time>2026-03-18T08:57:42Z</time></trkpt>
<trkpt lat="43.0553450000" lon="0.1354250000"><ele>755</ele><time>2026-03-18T08:57:44Z</time></trkpt>
<trkpt lat="43.0553270000" lon="0.1354320000"><ele>755</ele><time>2026-03-18T08:57:46Z</time></trkpt>
<trkpt lat="43.0553120000" lon="0.1354520000"><ele>755</ele><time>2026-03-18T08:57:48Z</time></trkpt>
<trkpt lat="43.0553020000" lon="0.1354750000"><ele>755</ele><time>2026-03-18T08:57:50Z</time></trkpt>
<trkpt lat="43.0552970000" lon="0.1355130000"><ele>755</ele><time>2026-03-18T08:57:52Z</time></trkpt>
<trkpt lat="43.0552770000" lon="0.1355270000"><ele>756</ele><time>2026-03-18T08:57:54Z</time></trkpt>
<trkpt lat="43.0552900000" lon="0.1355000000"><ele>756</ele><time>2026-03-18T08:57:59Z</time></trkpt>
<trkpt lat="43.0553070000" lon="0.1354830000"><ele>756</ele><time>2026-03-18T08:58:02Z</time></trkpt>
<trkpt lat="43.0552820000" lon="0.1354720000"><ele>756</ele><time>2026-03-18T08:58:19Z</time></trkpt>
<trkpt lat="43.0552600000" lon="0.1354620000"><ele>756</ele><time>2026-03-18T08:58:21Z</time></trkpt>
<trkpt lat="43.0552370000" lon="0.1354470000"><ele>756</ele><time>2026-03-18T08:58:39Z</time></trkpt>
<trkpt lat="43.0552120000" lon="0.1354220000"><ele>756</ele><time>2026-03-18T08:58:41Z</time></trkpt>
<trkpt lat="43.0551820000" lon="0.1353970000"><ele>756</ele><time>2026-03-18T08:58:43Z</time></trkpt>
<trkpt lat="43.0551570000" lon="0.1353800000"><ele>756</ele><time>2026-03-18T08:58:45Z</time></trkpt>
<trkpt lat="43.0551320000" lon="0.1353670000"><ele>756</ele><time>2026-03-18T08:58:47Z</time></trkpt>
<trkpt lat="43.0551170000" lon="0.1353570000"><ele>757</ele><time>2026-03-18T08:58:49Z</time></trkpt>
<trkpt lat="43.0550970000" lon="0.1353300000"><ele>757</ele><time>2026-03-18T08:58:53Z</time></trkpt>
<trkpt lat="43.0550800000" lon="0.1353070000"><ele>757</ele><time>2026-03-18T08:58:55Z</time></trkpt>
<trkpt lat="43.0550670000" lon="0.1352850000"><ele>757</ele><time>2026-03-18T08:58:57Z</time></trkpt>
<trkpt lat="43.0550470000" lon="0.1352570000"><ele>757</ele><time>2026-03-18T08:58:59Z</time></trkpt>
<trkpt lat="43.0550220000" lon="0.1352420000"><ele>757</ele><time>2026-03-18T08:59:01Z</time></trkpt>
<trkpt lat="43.0549970000" lon="0.1352320000"><ele>757</ele><time>2026-03-18T08:59:03Z</time></trkpt>
<trkpt lat="43.0549800000" lon="0.1352170000"><ele>757</ele><time>2026-03-18T08:59:05Z</time></trkpt>
<trkpt lat="43.0549620000" lon="0.1352030000"><ele>758</ele><time>2026-03-18T08:59:07Z</time></trkpt>
<trkpt lat="43.0549450000" lon="0.1351900000"><ele>758</ele><time>2026-03-18T08:59:09Z</time></trkpt>
<trkpt lat="43.0549250000" lon="0.1351750000"><ele>758</ele><time>2026-03-18T08:59:11Z</time></trkpt>
<trkpt lat="43.0549070000" lon="0.1351720000"><ele>758</ele><time>2026-03-18T08:59:13Z</time></trkpt>
<trkpt lat="43.0548850000" lon="0.1351570000"><ele>758</ele><time>2026-03-18T08:59:15Z</time></trkpt>
<trkpt lat="43.0548620000" lon="0.1351370000"><ele>758</ele><time>2026-03-18T08:59:17Z</time></trkpt>
<trkpt lat="43.0548420000" lon="0.1351070000"><ele>758</ele><time>2026-03-18T08:59:20Z</time></trkpt>
<trkpt lat="43.0548220000" lon="0.1350870000"><ele>759</ele><time>2026-03-18T08:59:22Z</time></trkpt>
<trkpt lat="43.0548070000" lon="0.1350680000"><ele>759</ele><time>2026-03-18T08:59:25Z</time></trkpt>
<trkpt lat="43.0547870000" lon="0.1350520000"><ele>759</ele><time>2026-03-18T08:59:27Z</time></trkpt>
<trkpt lat="43.0547670000" lon="0.1350270000"><ele>759</ele><time>2026-03-18T08:59:30Z</time></trkpt>
<trkpt lat="43.0547520000" lon="0.1350070000"><ele>759</ele><time>2026-03-18T08:59:32Z</time></trkpt>
<trkpt lat="43.0547350000" lon="0.1349970000"><ele>759</ele><time>2026-03-18T08:59:34Z</time></trkpt>
<trkpt lat="43.0547120000" lon="0.1349870000"><ele>759</ele><time>2026-03-18T08:59:36Z</time></trkpt>
<trkpt lat="43.0546920000" lon="0.1349770000"><ele>759</ele><time>2026-03-18T08:59:39Z</time></trkpt>
<trkpt lat="43.0546900000" lon="0.1349520000"><ele>759</ele><time>2026-03-18T09:00:09Z</time></trkpt>
<trkpt lat="43.0546670000" lon="0.1349530000"><ele>759</ele><time>2026-03-18T09:00:12Z</time></trkpt>
<trkpt lat="43.0546450000" lon="0.1349570000"><ele>760</ele><time>2026-03-18T09:00:29Z</time></trkpt>
<trkpt lat="43.0546170000" lon="0.1349650000"><ele>760</ele><time>2026-03-18T09:00:31Z</time></trkpt>
<trkpt lat="43.0545950000" lon="0.1349650000"><ele>760</ele><time>2026-03-18T09:00:33Z</time></trkpt>
<trkpt lat="43.0545770000" lon="0.1349520000"><ele>760</ele><time>2026-03-18T09:00:36Z</time></trkpt>
<trkpt lat="43.0545570000" lon="0.1349280000"><ele>760</ele><time>2026-03-18T09:00:39Z</time></trkpt>
<trkpt lat="43.0545420000" lon="0.1349120000"><ele>760</ele><time>2026-03-18T09:00:41Z</time></trkpt>
<trkpt lat="43.0545230000" lon="0.1348950000"><ele>761</ele><time>2026-03-18T09:00:44Z</time></trkpt>
<trkpt lat="43.0545070000" lon="0.1348850000"><ele>761</ele><time>2026-03-18T09:00:46Z</time></trkpt>
<trkpt lat="43.0544870000" lon="0.1348720000"><ele>761</ele><time>2026-03-18T09:00:49Z</time></trkpt>
<trkpt lat="43.0544670000" lon="0.1348920000"><ele>761</ele><time>2026-03-18T09:00:53Z</time></trkpt>
<trkpt lat="43.0544500000" lon="0.1348850000"><ele>761</ele><time>2026-03-18T09:00:56Z</time></trkpt>
<trkpt lat="43.0544530000" lon="0.1349100000"><ele>761</ele><time>2026-03-18T09:01:32Z</time></trkpt>
<trkpt lat="43.0544670000" lon="0.1348900000"><ele>761</ele><time>2026-03-18T09:01:38Z</time></trkpt>
<trkpt lat="43.0544700000" lon="0.1348620000"><ele>761</ele><time>2026-03-18T09:01:40Z</time></trkpt>
<trkpt lat="43.0544700000" lon="0.1348320000"><ele>761</ele><time>2026-03-18T09:01:43Z</time></trkpt>
<trkpt lat="43.0544770000" lon="0.1348550000"><ele>760</ele><time>2026-03-18T09:03:00Z</time></trkpt>
<trkpt lat="43.0544670000" lon="0.1348800000"><ele>761</ele><time>2026-03-18T09:04:03Z</time></trkpt>
<trkpt lat="43.0544770000" lon="0.1348520000"><ele>761</ele><time>2026-03-18T09:04:10Z</time></trkpt>
<trkpt lat="43.0544520000" lon="0.1348320000"><ele>761</ele><time>2026-03-18T09:05:14Z</time></trkpt>
<trkpt lat="43.0544270000" lon="0.1348350000"><ele>761</ele><time>2026-03-18T09:05:16Z</time></trkpt>
<trkpt lat="43.0544470000" lon="0.1348170000"><ele>761</ele><time>2026-03-18T09:05:36Z</time></trkpt>
<trkpt lat="43.0544620000" lon="0.1348500000"><ele>762</ele><time>2026-03-18T09:08:02Z</time></trkpt>
<trkpt lat="43.0544820000" lon="0.1348350000"><ele>763</ele><time>2026-03-18T09:09:04Z</time></trkpt>
<trkpt lat="43.0544850000" lon="0.1348600000"><ele>763</ele><time>2026-03-18T09:09:06Z</time></trkpt>
<trkpt lat="43.0544870000" lon="0.1348870000"><ele>763</ele><time>2026-03-18T09:09:08Z</time></trkpt>
<trkpt lat="43.0544800000" lon="0.1349120000"><ele>763</ele><time>2026-03-18T09:09:12Z</time></trkpt>
<trkpt lat="43.0544750000" lon="0.1348870000"><ele>763</ele><time>2026-03-18T09:10:18Z</time></trkpt>
<trkpt lat="43.0544850000" lon="0.1349150000"><ele>763</ele><time>2026-03-18T09:10:47Z</time></trkpt>
<trkpt lat="43.0544700000" lon="0.1348920000"><ele>763</ele><time>2026-03-18T09:11:46Z</time></trkpt>
<trkpt lat="43.0544470000" lon="0.1348700000"><ele>763</ele><time>2026-03-18T09:11:48Z</time></trkpt>
<trkpt lat="43.0544270000" lon="0.1348550000"><ele>763</ele><time>2026-03-18T09:11:50Z</time></trkpt>
<trkpt lat="43.0544000000" lon="0.1348500000"><ele>763</ele><time>2026-03-18T09:11:52Z</time></trkpt>
<trkpt lat="43.0543720000" lon="0.1348520000"><ele>763</ele><time>2026-03-18T09:11:54Z</time></trkpt>
<trkpt lat="43.0543500000" lon="0.1348520000"><ele>763</ele><time>2026-03-18T09:11:56Z</time></trkpt>
<trkpt lat="43.0543200000" lon="0.1348500000"><ele>763</ele><time>2026-03-18T09:11:58Z</time></trkpt>
<trkpt lat="43.0542950000" lon="0.1348380000"><ele>763</ele><time>2026-03-18T09:12:00Z</time></trkpt>
<trkpt lat="43.0542800000" lon="0.1348250000"><ele>764</ele><time>2026-03-18T09:12:02Z</time></trkpt>
<trkpt lat="43.0542620000" lon="0.1348070000"><ele>764</ele><time>2026-03-18T09:12:04Z</time></trkpt>
<trkpt lat="43.0542420000" lon="0.1347970000"><ele>764</ele><time>2026-03-18T09:12:06Z</time></trkpt>
<trkpt lat="43.0542270000" lon="0.1347800000"><ele>764</ele><time>2026-03-18T09:12:09Z</time></trkpt>
<trkpt lat="43.0542070000" lon="0.1347620000"><ele>764</ele><time>2026-03-18T09:12:11Z</time></trkpt>
<trkpt lat="43.0541920000" lon="0.1347500000"><ele>765</ele><time>2026-03-18T09:12:13Z</time></trkpt>
<trkpt lat="43.0541750000" lon="0.1347320000"><ele>765</ele><time>2026-03-18T09:12:15Z</time></trkpt>
<trkpt lat="43.0541520000" lon="0.1347120000"><ele>765</ele><time>2026-03-18T09:12:18Z</time></trkpt>
<trkpt lat="43.0541370000" lon="0.1346950000"><ele>765</ele><time>2026-03-18T09:12:20Z</time></trkpt>
<trkpt lat="43.0541220000" lon="0.1346770000"><ele>765</ele><time>2026-03-18T09:12:22Z</time></trkpt>
<trkpt lat="43.0541100000" lon="0.1346530000"><ele>765</ele><time>2026-03-18T09:12:24Z</time></trkpt>
<trkpt lat="43.0540970000" lon="0.1346350000"><ele>765</ele><time>2026-03-18T09:12:26Z</time></trkpt>
<trkpt lat="43.0540800000" lon="0.1346200000"><ele>766</ele><time>2026-03-18T09:12:28Z</time></trkpt>
<trkpt lat="43.0540620000" lon="0.1346120000"><ele>766</ele><time>2026-03-18T09:12:31Z</time></trkpt>
<trkpt lat="43.0540420000" lon="0.1346050000"><ele>766</ele><time>2026-03-18T09:12:33Z</time></trkpt>
<trkpt lat="43.0540200000" lon="0.1345920000"><ele>766</ele><time>2026-03-18T09:12:36Z</time></trkpt>
<trkpt lat="43.0540030000" lon="0.1345720000"><ele>766</ele><time>2026-03-18T09:12:39Z</time></trkpt>
<trkpt lat="43.0539920000" lon="0.1345520000"><ele>767</ele><time>2026-03-18T09:12:41Z</time></trkpt>
<trkpt lat="43.0539750000" lon="0.1345320000"><ele>767</ele><time>2026-03-18T09:12:44Z</time></trkpt>
<trkpt lat="43.0539450000" lon="0.1345300000"><ele>767</ele><time>2026-03-18T09:12:46Z</time></trkpt>
<trkpt lat="43.0539250000" lon="0.1345130000"><ele>768</ele><time>2026-03-18T09:12:49Z</time></trkpt>
<trkpt lat="43.0539370000" lon="0.1344920000"><ele>768</ele><time>2026-03-18T09:12:55Z</time></trkpt>
<trkpt lat="43.0539220000" lon="0.1344600000"><ele>768</ele><time>2026-03-18T09:12:59Z</time></trkpt>
<trkpt lat="43.0539050000" lon="0.1344420000"><ele>768</ele><time>2026-03-18T09:13:01Z</time></trkpt>
<trkpt lat="43.0538950000" lon="0.1344200000"><ele>768</ele><time>2026-03-18T09:13:03Z</time></trkpt>
<trkpt lat="43.0538720000" lon="0.1344220000"><ele>769</ele><time>2026-03-18T09:13:05Z</time></trkpt>
<trkpt lat="43.0538550000" lon="0.1344020000"><ele>769</ele><time>2026-03-18T09:13:08Z</time></trkpt>
<trkpt lat="43.0538420000" lon="0.1343780000"><ele>769</ele><time>2026-03-18T09:13:11Z</time></trkpt>
<trkpt lat="43.0538220000" lon="0.1343730000"><ele>769</ele><time>2026-03-18T09:13:14Z</time></trkpt>
<trkpt lat="43.0538020000" lon="0.1343600000"><ele>770</ele><time>2026-03-18T09:13:16Z</time></trkpt>
<trkpt lat="43.0537850000" lon="0.1343500000"><ele>770</ele><time>2026-03-18T09:13:18Z</time></trkpt>
<trkpt lat="43.0537720000" lon="0.1343270000"><ele>770</ele><time>2026-03-18T09:13:20Z</time></trkpt>
<trkpt lat="43.0537620000" lon="0.1343050000"><ele>770</ele><time>2026-03-18T09:13:23Z</time></trkpt>
<trkpt lat="43.0537470000" lon="0.1342770000"><ele>771</ele><time>2026-03-18T09:13:26Z</time></trkpt>
<trkpt lat="43.0537370000" lon="0.1342500000"><ele>771</ele><time>2026-03-18T09:13:30Z</time></trkpt>
<trkpt lat="43.0537220000" lon="0.1342280000"><ele>771</ele><time>2026-03-18T09:13:33Z</time></trkpt>
<trkpt lat="43.0537000000" lon="0.1342120000"><ele>772</ele><time>2026-03-18T09:13:36Z</time></trkpt>
<trkpt lat="43.0536800000" lon="0.1342000000"><ele>772</ele><time>2026-03-18T09:13:38Z</time></trkpt>
<trkpt lat="43.0536600000" lon="0.1341870000"><ele>772</ele><time>2026-03-18T09:13:41Z</time></trkpt>
<trkpt lat="43.0536370000" lon="0.1341700000"><ele>773</ele><time>2026-03-18T09:13:44Z</time></trkpt>
<trkpt lat="43.0536150000" lon="0.1341550000"><ele>773</ele><time>2026-03-18T09:13:47Z</time></trkpt>
<trkpt lat="43.0536020000" lon="0.1341370000"><ele>773</ele><time>2026-03-18T09:13:50Z</time></trkpt>
<trkpt lat="43.0535820000" lon="0.1341230000"><ele>774</ele><time>2026-03-18T09:13:53Z</time></trkpt>
<trkpt lat="43.0535720000" lon="0.1341020000"><ele>774</ele><time>2026-03-18T09:13:56Z</time></trkpt>
<trkpt lat="43.0535570000" lon="0.1340850000"><ele>774</ele><time>2026-03-18T09:13:58Z</time></trkpt>
<trkpt lat="43.0535420000" lon="0.1340670000"><ele>774</ele><time>2026-03-18T09:14:00Z</time></trkpt>
<trkpt lat="43.0535270000" lon="0.1340500000"><ele>775</ele><time>2026-03-18T09:14:03Z</time></trkpt>
<trkpt lat="43.0535020000" lon="0.1340600000"><ele>775</ele><time>2026-03-18T09:14:06Z</time></trkpt>
<trkpt lat="43.0534820000" lon="0.1340400000"><ele>776</ele><time>2026-03-18T09:14:09Z</time></trkpt>
<trkpt lat="43.0534620000" lon="0.1340300000"><ele>776</ele><time>2026-03-18T09:14:11Z</time></trkpt>
<trkpt lat="43.0534420000" lon="0.1340020000"><ele>776</ele><time>2026-03-18T09:14:14Z</time></trkpt>
<trkpt lat="43.0534170000" lon="0.1339870000"><ele>777</ele><time>2026-03-18T09:14:20Z</time></trkpt>
<trkpt lat="43.0533870000" lon="0.1339570000"><ele>777</ele><time>2026-03-18T09:14:22Z</time></trkpt>
<trkpt lat="43.0533720000" lon="0.1339320000"><ele>777</ele><time>2026-03-18T09:14:24Z</time></trkpt>
<trkpt lat="43.0533520000" lon="0.1339170000"><ele>778</ele><time>2026-03-18T09:14:26Z</time></trkpt>
<trkpt lat="43.0533320000" lon="0.1339020000"><ele>778</ele><time>2026-03-18T09:14:30Z</time></trkpt>
<trkpt lat="43.0533170000" lon="0.1338770000"><ele>779</ele><time>2026-03-18T09:14:36Z</time></trkpt>
<trkpt lat="43.0533000000" lon="0.1338670000"><ele>779</ele><time>2026-03-18T09:14:39Z</time></trkpt>
<trkpt lat="43.0532820000" lon="0.1338670000"><ele>779</ele><time>2026-03-18T09:14:42Z</time></trkpt>
<trkpt lat="43.0533000000" lon="0.1339000000"><ele>780</ele><time>2026-03-18T09:14:44Z</time></trkpt>
<trkpt lat="43.0533070000" lon="0.1339270000"><ele>780</ele><time>2026-03-18T09:14:46Z</time></trkpt>
<trkpt lat="43.0533130000" lon="0.1339620000"><ele>781</ele><time>2026-03-18T09:15:01Z</time></trkpt>
<trkpt lat="43.0533270000" lon="0.1340070000"><ele>782</ele><time>2026-03-18T09:15:03Z</time></trkpt>
<trkpt lat="43.0533370000" lon="0.1340320000"><ele>782</ele><time>2026-03-18T09:15:04Z</time></trkpt>
<trkpt lat="43.0533420000" lon="0.1340570000"><ele>782</ele><time>2026-03-18T09:15:05Z</time></trkpt>
<trkpt lat="43.0533520000" lon="0.1340850000"><ele>782</ele><time>2026-03-18T09:15:07Z</time></trkpt>
<trkpt lat="43.0533520000" lon="0.1341120000"><ele>783</ele><time>2026-03-18T09:15:12Z</time></trkpt>
<trkpt lat="43.0533470000" lon="0.1341400000"><ele>783</ele><time>2026-03-18T09:15:15Z</time></trkpt>
<trkpt lat="43.0533450000" lon="0.1341720000"><ele>783</ele><time>2026-03-18T09:15:18Z</time></trkpt>
<trkpt lat="43.0533300000" lon="0.1341920000"><ele>783</ele><time>2026-03-18T09:15:21Z</time></trkpt>
<trkpt lat="43.0533070000" lon="0.1342070000"><ele>784</ele><time>2026-03-18T09:15:24Z</time></trkpt>
<trkpt lat="43.0532920000" lon="0.1342280000"><ele>785</ele><time>2026-03-18T09:15:28Z</time></trkpt>
<trkpt lat="43.0532870000" lon="0.1342570000"><ele>785</ele><time>2026-03-18T09:15:31Z</time></trkpt>
<trkpt lat="43.0532820000" lon="0.1342920000"><ele>785</ele><time>2026-03-18T09:15:33Z</time></trkpt>
<trkpt lat="43.0532720000" lon="0.1343170000"><ele>786</ele><time>2026-03-18T09:15:36Z</time></trkpt>
<trkpt lat="43.0532720000" lon="0.1343420000"><ele>786</ele><time>2026-03-18T09:15:39Z</time></trkpt>
<trkpt lat="43.0532750000" lon="0.1343720000"><ele>786</ele><time>2026-03-18T09:15:42Z</time></trkpt>
<trkpt lat="43.0532770000" lon="0.1344070000"><ele>786</ele><time>2026-03-18T09:15:44Z</time></trkpt>
<trkpt lat="43.0532620000" lon="0.1344400000"><ele>786</ele><time>2026-03-18T09:15:46Z</time></trkpt>
<trkpt lat="43.0532420000" lon="0.1344600000"><ele>787</ele><time>2026-03-18T09:15:48Z</time></trkpt>
<trkpt lat="43.0532150000" lon="0.1344450000"><ele>787</ele><time>2026-03-18T09:15:50Z</time></trkpt>
<trkpt lat="43.0531920000" lon="0.1344320000"><ele>787</ele><time>2026-03-18T09:15:52Z</time></trkpt>
<trkpt lat="43.0531720000" lon="0.1344020000"><ele>787</ele><time>2026-03-18T09:15:54Z</time></trkpt>
<trkpt lat="43.0531570000" lon="0.1343870000"><ele>787</ele><time>2026-03-18T09:15:55Z</time></trkpt>
<trkpt lat="43.0531420000" lon="0.1343670000"><ele>787</ele><time>2026-03-18T09:15:57Z</time></trkpt>
<trkpt lat="43.0531270000" lon="0.1343450000"><ele>788</ele><time>2026-03-18T09:16:00Z</time></trkpt>
<trkpt lat="43.0531120000" lon="0.1343250000"><ele>788</ele><time>2026-03-18T09:16:02Z</time></trkpt>
<trkpt lat="43.0530970000" lon="0.1342950000"><ele>788</ele><time>2026-03-18T09:16:06Z</time></trkpt>
<trkpt lat="43.0530880000" lon="0.1342670000"><ele>789</ele><time>2026-03-18T09:16:09Z</time></trkpt>
<trkpt lat="43.0530720000" lon="0.1342520000"><ele>789</ele><time>2026-03-18T09:16:12Z</time></trkpt>
<trkpt lat="43.0530600000" lon="0.1342280000"><ele>789</ele><time>2026-03-18T09:16:15Z</time></trkpt>
<trkpt lat="43.0530420000" lon="0.1342170000"><ele>790</ele><time>2026-03-18T09:16:17Z</time></trkpt>
<trkpt lat="43.0530300000" lon="0.1341970000"><ele>790</ele><time>2026-03-18T09:16:22Z</time></trkpt>
<trkpt lat="43.0530070000" lon="0.1341820000"><ele>791</ele><time>2026-03-18T09:16:27Z</time></trkpt>
<trkpt lat="43.0529920000" lon="0.1341620000"><ele>791</ele><time>2026-03-18T09:16:29Z</time></trkpt>
<trkpt lat="43.0529720000" lon="0.1341720000"><ele>792</ele><time>2026-03-18T09:16:32Z</time></trkpt>
<trkpt lat="43.0529670000" lon="0.1342020000"><ele>792</ele><time>2026-03-18T09:16:37Z</time></trkpt>
<trkpt lat="43.0529800000" lon="0.1342270000"><ele>794</ele><time>2026-03-18T09:16:50Z</time></trkpt>
<trkpt lat="43.0529600000" lon="0.1342220000"><ele>794</ele><time>2026-03-18T09:16:52Z</time></trkpt>
<trkpt lat="43.0529330000" lon="0.1342170000"><ele>794</ele><time>2026-03-18T09:16:54Z</time></trkpt>
<trkpt lat="43.0529120000" lon="0.1342330000"><ele>795</ele><time>2026-03-18T09:16:57Z</time></trkpt>
<trkpt lat="43.0529000000" lon="0.1342580000"><ele>795</ele><time>2026-03-18T09:16:59Z</time></trkpt>
<trkpt lat="43.0528820000" lon="0.1342700000"><ele>795</ele><time>2026-03-18T09:17:01Z</time></trkpt>
<trkpt lat="43.0528630000" lon="0.1342820000"><ele>796</ele><time>2026-03-18T09:17:03Z</time></trkpt>
<trkpt lat="43.0528420000" lon="0.1342870000"><ele>796</ele><time>2026-03-18T09:17:06Z</time></trkpt>
<trkpt lat="43.0528250000" lon="0.1343100000"><ele>796</ele><time>2026-03-18T09:17:11Z</time></trkpt>
<trkpt lat="43.0528070000" lon="0.1343270000"><ele>797</ele><time>2026-03-18T09:17:14Z</time></trkpt>
<trkpt lat="43.0527870000" lon="0.1343220000"><ele>797</ele><time>2026-03-18T09:17:16Z</time></trkpt>
<trkpt lat="43.0527650000" lon="0.1343170000"><ele>797</ele><time>2026-03-18T09:17:18Z</time></trkpt>
<trkpt lat="43.0527450000" lon="0.1343220000"><ele>798</ele><time>2026-03-18T09:17:21Z</time></trkpt>
<trkpt lat="43.0527270000" lon="0.1343100000"><ele>798</ele><time>2026-03-18T09:17:23Z</time></trkpt>
<trkpt lat="43.0527070000" lon="0.1342770000"><ele>798</ele><time>2026-03-18T09:17:25Z</time></trkpt>
<trkpt lat="43.0526900000" lon="0.1342630000"><ele>798</ele><time>2026-03-18T09:17:27Z</time></trkpt>
<trkpt lat="43.0526670000" lon="0.1342630000"><ele>798</ele><time>2026-03-18T09:17:29Z</time></trkpt>
<trkpt lat="43.0526420000" lon="0.1342570000"><ele>799</ele><time>2026-03-18T09:17:32Z</time></trkpt>
<trkpt lat="43.0526200000" lon="0.1342500000"><ele>799</ele><time>2026-03-18T09:17:34Z</time></trkpt>
<trkpt lat="43.0525920000" lon="0.1342520000"><ele>799</ele><time>2026-03-18T09:17:36Z</time></trkpt>
<trkpt lat="43.0525770000" lon="0.1342720000"><ele>799</ele><time>2026-03-18T09:17:39Z</time></trkpt>
<trkpt lat="43.0525500000" lon="0.1342820000"><ele>799</ele><time>2026-03-18T09:17:42Z</time></trkpt>
<trkpt lat="43.0525320000" lon="0.1342920000"><ele>799</ele><time>2026-03-18T09:17:44Z</time></trkpt>
<trkpt lat="43.0525070000" lon="0.1343020000"><ele>800</ele><time>2026-03-18T09:17:47Z</time></trkpt>
<trkpt lat="43.0524830000" lon="0.1343220000"><ele>800</ele><time>2026-03-18T09:17:50Z</time></trkpt>
<trkpt lat="43.0524650000" lon="0.1343320000"><ele>800</ele><time>2026-03-18T09:17:52Z</time></trkpt>
<trkpt lat="43.0524500000" lon="0.1342970000"><ele>800</ele><time>2026-03-18T09:17:55Z</time></trkpt>
<trkpt lat="43.0524320000" lon="0.1343020000"><ele>800</ele><time>2026-03-18T09:17:57Z</time></trkpt>
<trkpt lat="43.0524070000" lon="0.1343070000"><ele>800</ele><time>2026-03-18T09:18:00Z</time></trkpt>
<trkpt lat="43.0523900000" lon="0.1342920000"><ele>801</ele><time>2026-03-18T09:18:04Z</time></trkpt>
<trkpt lat="43.0523720000" lon="0.1343050000"><ele>801</ele><time>2026-03-18T09:18:07Z</time></trkpt>
<trkpt lat="43.0523850000" lon="0.1343350000"><ele>801</ele><time>2026-03-18T09:18:10Z</time></trkpt>
<trkpt lat="43.0523800000" lon="0.1343650000"><ele>802</ele><time>2026-03-18T09:18:12Z</time></trkpt>
<trkpt lat="43.0523620000" lon="0.1343720000"><ele>802</ele><time>2026-03-18T09:18:14Z</time></trkpt>
<trkpt lat="43.0523400000" lon="0.1343680000"><ele>802</ele><time>2026-03-18T09:18:16Z</time></trkpt>
<trkpt lat="43.0523170000" lon="0.1343670000"><ele>802</ele><time>2026-03-18T09:18:19Z</time></trkpt>
<trkpt lat="43.0523070000" lon="0.1343900000"><ele>803</ele><time>2026-03-18T09:18:27Z</time></trkpt>
<trkpt lat="43.0522970000" lon="0.1344170000"><ele>804</ele><time>2026-03-18T09:18:34Z</time></trkpt>
<trkpt lat="43.0522800000" lon="0.1344230000"><ele>807</ele><time>2026-03-18T09:19:20Z</time></trkpt>
<trkpt lat="43.0522570000" lon="0.1344350000"><ele>807</ele><time>2026-03-18T09:19:22Z</time></trkpt>
<trkpt lat="43.0522520000" lon="0.1344720000"><ele>807</ele><time>2026-03-18T09:19:25Z</time></trkpt>
<trkpt lat="43.0522450000" lon="0.1345180000"><ele>807</ele><time>2026-03-18T09:19:27Z</time></trkpt>
<trkpt lat="43.0522370000" lon="0.1345450000"><ele>807</ele><time>2026-03-18T09:19:28Z</time></trkpt>
<trkpt lat="43.0522370000" lon="0.1345720000"><ele>807</ele><time>2026-03-18T09:19:29Z</time></trkpt>
<trkpt lat="43.0522420000" lon="0.1346120000"><ele>807</ele><time>2026-03-18T09:19:31Z</time></trkpt>
<trkpt lat="43.0522370000" lon="0.1346370000"><ele>808</ele><time>2026-03-18T09:19:33Z</time></trkpt>
<trkpt lat="43.0522270000" lon="0.1346620000"><ele>808</ele><time>2026-03-18T09:19:36Z</time></trkpt>
<trkpt lat="43.0522200000" lon="0.1346870000"><ele>809</ele><time>2026-03-18T09:19:39Z</time></trkpt>
<trkpt lat="43.0522120000" lon="0.1347120000"><ele>809</ele><time>2026-03-18T09:19:41Z</time></trkpt>
<trkpt lat="43.0522020000" lon="0.1347370000"><ele>810</ele><time>2026-03-18T09:19:45Z</time></trkpt>
<trkpt lat="43.0521900000" lon="0.1347620000"><ele>810</ele><time>2026-03-18T09:19:49Z</time></trkpt>
<trkpt lat="43.0521820000" lon="0.1347920000"><ele>811</ele><time>2026-03-18T09:19:52Z</time></trkpt>
<trkpt lat="43.0521730000" lon="0.1348220000"><ele>811</ele><time>2026-03-18T09:19:55Z</time></trkpt>
<trkpt lat="43.0521770000" lon="0.1348470000"><ele>811</ele><time>2026-03-18T09:19:57Z</time></trkpt>
<trkpt lat="43.0521770000" lon="0.1348850000"><ele>811</ele><time>2026-03-18T09:20:00Z</time></trkpt>
<trkpt lat="43.0521800000" lon="0.1349100000"><ele>812</ele><time>2026-03-18T09:20:02Z</time></trkpt>
<trkpt lat="43.0521770000" lon="0.1349420000"><ele>812</ele><time>2026-03-18T09:20:04Z</time></trkpt>
<trkpt lat="43.0521700000" lon="0.1349720000"><ele>812</ele><time>2026-03-18T09:20:06Z</time></trkpt>
<trkpt lat="43.0521570000" lon="0.1349950000"><ele>812</ele><time>2026-03-18T09:20:10Z</time></trkpt>
<trkpt lat="43.0521400000" lon="0.1350170000"><ele>812</ele><time>2026-03-18T09:20:13Z</time></trkpt>
<trkpt lat="43.0521200000" lon="0.1350470000"><ele>813</ele><time>2026-03-18T09:20:16Z</time></trkpt>
<trkpt lat="43.0521100000" lon="0.1350730000"><ele>813</ele><time>2026-03-18T09:20:18Z</time></trkpt>
<trkpt lat="43.0521020000" lon="0.1351050000"><ele>813</ele><time>2026-03-18T09:20:20Z</time></trkpt>
<trkpt lat="43.0520920000" lon="0.1351270000"><ele>813</ele><time>2026-03-18T09:20:23Z</time></trkpt>
<trkpt lat="43.0520870000" lon="0.1351620000"><ele>814</ele><time>2026-03-18T09:20:26Z</time></trkpt>
<trkpt lat="43.0520850000" lon="0.1351870000"><ele>814</ele><time>2026-03-18T09:20:29Z</time></trkpt>
<trkpt lat="43.0520800000" lon="0.1352220000"><ele>814</ele><time>2026-03-18T09:20:32Z</time></trkpt>
<trkpt lat="43.0520670000" lon="0.1352520000"><ele>814</ele><time>2026-03-18T09:20:35Z</time></trkpt>
<trkpt lat="43.0520650000" lon="0.1352800000"><ele>815</ele><time>2026-03-18T09:20:37Z</time></trkpt>
<trkpt lat="43.0520600000" lon="0.1353120000"><ele>815</ele><time>2026-03-18T09:20:39Z</time></trkpt>
<trkpt lat="43.0520520000" lon="0.1353420000"><ele>815</ele><time>2026-03-18T09:20:41Z</time></trkpt>
<trkpt lat="43.0520450000" lon="0.1353680000"><ele>815</ele><time>2026-03-18T09:20:43Z</time></trkpt>
<trkpt lat="43.0520420000" lon="0.1353930000"><ele>815</ele><time>2026-03-18T09:20:45Z</time></trkpt>
<trkpt lat="43.0520270000" lon="0.1354150000"><ele>815</ele><time>2026-03-18T09:20:47Z</time></trkpt>
<trkpt lat="43.0520150000" lon="0.1354420000"><ele>815</ele><time>2026-03-18T09:20:49Z</time></trkpt>
<trkpt lat="43.0520000000" lon="0.1354720000"><ele>816</ele><time>2026-03-18T09:20:52Z</time></trkpt>
<trkpt lat="43.0519870000" lon="0.1355070000"><ele>816</ele><time>2026-03-18T09:20:55Z</time></trkpt>
<trkpt lat="43.0519800000" lon="0.1355370000"><ele>816</ele><time>2026-03-18T09:20:58Z</time></trkpt>
<trkpt lat="43.0519720000" lon="0.1355700000"><ele>816</ele><time>2026-03-18T09:21:01Z</time></trkpt>
<trkpt lat="43.0519570000" lon="0.1356050000"><ele>817</ele><time>2026-03-18T09:21:04Z</time></trkpt>
<trkpt lat="43.0519520000" lon="0.1356280000"><ele>817</ele><time>2026-03-18T09:21:06Z</time></trkpt>
<trkpt lat="43.0519420000" lon="0.1356570000"><ele>817</ele><time>2026-03-18T09:21:09Z</time></trkpt>
<trkpt lat="43.0519250000" lon="0.1356800000"><ele>817</ele><time>2026-03-18T09:21:12Z</time></trkpt>
<trkpt lat="43.0519120000" lon="0.1356970000"><ele>817</ele><time>2026-03-18T09:21:14Z</time></trkpt>
<trkpt lat="43.0519000000" lon="0.1357320000"><ele>818</ele><time>2026-03-18T09:21:16Z</time></trkpt>
<trkpt lat="43.0518870000" lon="0.1357530000"><ele>818</ele><time>2026-03-18T09:21:18Z</time></trkpt>
<trkpt lat="43.0518720000" lon="0.1357830000"><ele>818</ele><time>2026-03-18T09:21:21Z</time></trkpt>
<trkpt lat="43.0518670000" lon="0.1358120000"><ele>818</ele><time>2026-03-18T09:21:23Z</time></trkpt>
<trkpt lat="43.0518520000" lon="0.1358370000"><ele>818</ele><time>2026-03-18T09:21:26Z</time></trkpt>
<trkpt lat="43.0518350000" lon="0.1358650000"><ele>818</ele><time>2026-03-18T09:21:29Z</time></trkpt>
<trkpt lat="43.0518150000" lon="0.1358850000"><ele>818</ele><time>2026-03-18T09:21:32Z</time></trkpt>
<trkpt lat="43.0517970000" lon="0.1359170000"><ele>819</ele><time>2026-03-18T09:21:35Z</time></trkpt>
<trkpt lat="43.0517900000" lon="0.1359400000"><ele>819</ele><time>2026-03-18T09:21:37Z</time></trkpt>
<trkpt lat="43.0517720000" lon="0.1359700000"><ele>819</ele><time>2026-03-18T09:21:40Z</time></trkpt>
<trkpt lat="43.0517620000" lon="0.1359920000"><ele>819</ele><time>2026-03-18T09:21:42Z</time></trkpt>
<trkpt lat="43.0517470000" lon="0.1360220000"><ele>819</ele><time>2026-03-18T09:21:45Z</time></trkpt>
<trkpt lat="43.0517350000" lon="0.1360420000"><ele>819</ele><time>2026-03-18T09:21:47Z</time></trkpt>
<trkpt lat="43.0517220000" lon="0.1360720000"><ele>820</ele><time>2026-03-18T09:21:50Z</time></trkpt>
<trkpt lat="43.0517070000" lon="0.1360870000"><ele>820</ele><time>2026-03-18T09:21:53Z</time></trkpt>
<trkpt lat="43.0516870000" lon="0.1361100000"><ele>820</ele><time>2026-03-18T09:21:57Z</time></trkpt>
<trkpt lat="43.0516670000" lon="0.1361270000"><ele>820</ele><time>2026-03-18T09:22:00Z</time></trkpt>
<trkpt lat="43.0516530000" lon="0.1361520000"><ele>820</ele><time>2026-03-18T09:22:03Z</time></trkpt>
<trkpt lat="43.0516500000" lon="0.1361830000"><ele>821</ele><time>2026-03-18T09:22:05Z</time></trkpt>
<trkpt lat="43.0516420000" lon="0.1362200000"><ele>821</ele><time>2026-03-18T09:22:07Z</time></trkpt>
<trkpt lat="43.0516350000" lon="0.1362470000"><ele>821</ele><time>2026-03-18T09:22:09Z</time></trkpt>
<trkpt lat="43.0516220000" lon="0.1362720000"><ele>821</ele><time>2026-03-18T09:22:11Z</time></trkpt>
<trkpt lat="43.0516120000" lon="0.1362970000"><ele>821</ele><time>2026-03-18T09:22:13Z</time></trkpt>
<trkpt lat="43.0516020000" lon="0.1363220000"><ele>821</ele><time>2026-03-18T09:22:15Z</time></trkpt>
<trkpt lat="43.0515950000" lon="0.1363470000"><ele>821</ele><time>2026-03-18T09:22:17Z</time></trkpt>
<trkpt lat="43.0515820000" lon="0.1363770000"><ele>821</ele><time>2026-03-18T09:22:20Z</time></trkpt>
<trkpt lat="43.0515680000" lon="0.1364000000"><ele>822</ele><time>2026-03-18T09:22:22Z</time></trkpt>
<trkpt lat="43.0515520000" lon="0.1364270000"><ele>822</ele><time>2026-03-18T09:22:25Z</time></trkpt>
<trkpt lat="43.0515400000" lon="0.1364520000"><ele>822</ele><time>2026-03-18T09:22:28Z</time></trkpt>
<trkpt lat="43.0515250000" lon="0.1364770000"><ele>822</ele><time>2026-03-18T09:22:31Z</time></trkpt>
<trkpt lat="43.0515100000" lon="0.1365070000"><ele>823</ele><time>2026-03-18T09:22:34Z</time></trkpt>
<trkpt lat="43.0514950000" lon="0.1365270000"><ele>823</ele><time>2026-03-18T09:22:37Z</time></trkpt>
<trkpt lat="43.0514820000" lon="0.1365550000"><ele>823</ele><time>2026-03-18T09:22:40Z</time></trkpt>
<trkpt lat="43.0514800000" lon="0.1365820000"><ele>824</ele><time>2026-03-18T09:22:44Z</time></trkpt>
<trkpt lat="43.0514520000" lon="0.1365670000"><ele>825</ele><time>2026-03-18T09:23:12Z</time></trkpt>
<trkpt lat="43.0514320000" lon="0.1365620000"><ele>824</ele><time>2026-03-18T09:23:15Z</time></trkpt>
<trkpt lat="43.0514220000" lon="0.1365370000"><ele>825</ele><time>2026-03-18T09:23:39Z</time></trkpt>
<trkpt lat="43.0514300000" lon="0.1364950000"><ele>826</ele><time>2026-03-18T09:23:41Z</time></trkpt>
<trkpt lat="43.0514320000" lon="0.1364670000"><ele>826</ele><time>2026-03-18T09:23:42Z</time></trkpt>
<trkpt lat="43.0514350000" lon="0.1364420000"><ele>826</ele><time>2026-03-18T09:23:43Z</time></trkpt>
<trkpt lat="43.0514400000" lon="0.1364020000"><ele>826</ele><time>2026-03-18T09:23:45Z</time></trkpt>
<trkpt lat="43.0514420000" lon="0.1363680000"><ele>826</ele><time>2026-03-18T09:23:47Z</time></trkpt>
<trkpt lat="43.0514470000" lon="0.1363370000"><ele>826</ele><time>2026-03-18T09:23:50Z</time></trkpt>
<trkpt lat="43.0514500000" lon="0.1363070000"><ele>826</ele><time>2026-03-18T09:23:53Z</time></trkpt>
<trkpt lat="43.0514500000" lon="0.1362820000"><ele>827</ele><time>2026-03-18T09:23:56Z</time></trkpt>
<trkpt lat="43.0514470000" lon="0.1362520000"><ele>827</ele><time>2026-03-18T09:23:58Z</time></trkpt>
<trkpt lat="43.0514470000" lon="0.1362220000"><ele>827</ele><time>2026-03-18T09:24:01Z</time></trkpt>
<trkpt lat="43.0514470000" lon="0.1361950000"><ele>827</ele><time>2026-03-18T09:24:04Z</time></trkpt>
<trkpt lat="43.0514520000" lon="0.1361620000"><ele>828</ele><time>2026-03-18T09:24:08Z</time></trkpt>
<trkpt lat="43.0514550000" lon="0.1361370000"><ele>828</ele><time>2026-03-18T09:24:10Z</time></trkpt>
<trkpt lat="43.0514550000" lon="0.1361100000"><ele>828</ele><time>2026-03-18T09:24:12Z</time></trkpt>
<trkpt lat="43.0514670000" lon="0.1360800000"><ele>828</ele><time>2026-03-18T09:24:15Z</time></trkpt>
<trkpt lat="43.0514720000" lon="0.1360520000"><ele>828</ele><time>2026-03-18T09:24:18Z</time></trkpt>
<trkpt lat="43.0514770000" lon="0.1360250000"><ele>828</ele><time>2026-03-18T09:24:21Z</time></trkpt>
<trkpt lat="43.0514770000" lon="0.1359970000"><ele>828</ele><time>2026-03-18T09:24:24Z</time></trkpt>
<trkpt lat="43.0514750000" lon="0.1359720000"><ele>828</ele><time>2026-03-18T09:24:26Z</time></trkpt>
<trkpt lat="43.0514770000" lon="0.1359470000"><ele>828</ele><time>2026-03-18T09:24:28Z</time></trkpt>
<trkpt lat="43.0514820000" lon="0.1359170000"><ele>829</ele><time>2026-03-18T09:24:30Z</time></trkpt>
<trkpt lat="43.0514820000" lon="0.1358920000"><ele>829</ele><time>2026-03-18T09:24:32Z</time></trkpt>
<trkpt lat="43.0514850000" lon="0.1358600000"><ele>829</ele><time>2026-03-18T09:24:35Z</time></trkpt>
<trkpt lat="43.0514800000" lon="0.1358350000"><ele>829</ele><time>2026-03-18T09:24:37Z</time></trkpt>
<trkpt lat="43.0514770000" lon="0.1358070000"><ele>829</ele><time>2026-03-18T09:24:39Z</time></trkpt>
<trkpt lat="43.0514720000" lon="0.1357750000"><ele>829</ele><time>2026-03-18T09:24:42Z</time></trkpt>
<trkpt lat="43.0514720000" lon="0.1357470000"><ele>829</ele><time>2026-03-18T09:24:45Z</time></trkpt>
<trkpt lat="43.0514700000" lon="0.1357220000"><ele>829</ele><time>2026-03-18T09:24:48Z</time></trkpt>
<trkpt lat="43.0514650000" lon="0.1356920000"><ele>830</ele><time>2026-03-18T09:24:51Z</time></trkpt>
<trkpt lat="43.0514600000" lon="0.1356570000"><ele>830</ele><time>2026-03-18T09:24:54Z</time></trkpt>
<trkpt lat="43.0514600000" lon="0.1356270000"><ele>830</ele><time>2026-03-18T09:24:57Z</time></trkpt>
<trkpt lat="43.0514600000" lon="0.1356020000"><ele>830</ele><time>2026-03-18T09:24:59Z</time></trkpt>
<trkpt lat="43.0514550000" lon="0.1355720000"><ele>830</ele><time>2026-03-18T09:25:02Z</time></trkpt>
<trkpt lat="43.0514520000" lon="0.1355420000"><ele>830</ele><time>2026-03-18T09:25:05Z</time></trkpt>
<trkpt lat="43.0514420000" lon="0.1355200000"><ele>830</ele><time>2026-03-18T09:25:07Z</time></trkpt>
<trkpt lat="43.0514370000" lon="0.1354920000"><ele>830</ele><time>2026-03-18T09:25:09Z</time></trkpt>
<trkpt lat="43.0514320000" lon="0.1354570000"><ele>831</ele><time>2026-03-18T09:25:12Z</time></trkpt>
<trkpt lat="43.0514220000" lon="0.1354270000"><ele>831</ele><time>2026-03-18T09:25:15Z</time></trkpt>
<trkpt lat="43.0514070000" lon="0.1354120000"><ele>831</ele><time>2026-03-18T09:25:17Z</time></trkpt>
<trkpt lat="43.0513920000" lon="0.1353920000"><ele>831</ele><time>2026-03-18T09:25:19Z</time></trkpt>
<trkpt lat="43.0513800000" lon="0.1353670000"><ele>831</ele><time>2026-03-18T09:25:22Z</time></trkpt>
<trkpt lat="43.0513720000" lon="0.1353370000"><ele>832</ele><time>2026-03-18T09:25:25Z</time></trkpt>
<trkpt lat="43.0513620000" lon="0.1353150000"><ele>832</ele><time>2026-03-18T09:25:27Z</time></trkpt>
<trkpt lat="43.0513430000" lon="0.1352970000"><ele>832</ele><time>2026-03-18T09:25:29Z</time></trkpt>
<trkpt lat="43.0513270000" lon="0.1352700000"><ele>832</ele><time>2026-03-18T09:25:32Z</time></trkpt>
<trkpt lat="43.0513120000" lon="0.1352400000"><ele>832</ele><time>2026-03-18T09:25:35Z</time></trkpt>
<trkpt lat="43.0512920000" lon="0.1352170000"><ele>833</ele><time>2026-03-18T09:25:38Z</time></trkpt>
<trkpt lat="43.0513070000" lon="0.1352020000"><ele>833</ele><time>2026-03-18T09:25:57Z</time></trkpt>
<trkpt lat="43.0513000000" lon="0.1351770000"><ele>834</ele><time>2026-03-18T09:26:01Z</time></trkpt>
<trkpt lat="43.0512800000" lon="0.1351520000"><ele>833</ele><time>2026-03-18T09:26:03Z</time></trkpt>
<trkpt lat="43.0512620000" lon="0.1351320000"><ele>833</ele><time>2026-03-18T09:26:05Z</time></trkpt>
<trkpt lat="43.0512470000" lon="0.1351120000"><ele>833</ele><time>2026-03-18T09:26:07Z</time></trkpt>
<trkpt lat="43.0512300000" lon="0.1350920000"><ele>833</ele><time>2026-03-18T09:26:09Z</time></trkpt>
<trkpt lat="43.0512120000" lon="0.1350770000"><ele>833</ele><time>2026-03-18T09:26:11Z</time></trkpt>
<trkpt lat="43.0511880000" lon="0.1350550000"><ele>834</ele><time>2026-03-18T09:26:14Z</time></trkpt>
<trkpt lat="43.0511750000" lon="0.1350370000"><ele>834</ele><time>2026-03-18T09:26:16Z</time></trkpt>
<trkpt lat="43.0511570000" lon="0.1350220000"><ele>834</ele><time>2026-03-18T09:26:18Z</time></trkpt>
<trkpt lat="43.0511420000" lon="0.1350070000"><ele>834</ele><time>2026-03-18T09:26:20Z</time></trkpt>
<trkpt lat="43.0511270000" lon="0.1349950000"><ele>834</ele><time>2026-03-18T09:26:22Z</time></trkpt>
<trkpt lat="43.0511070000" lon="0.1349870000"><ele>834</ele><time>2026-03-18T09:26:25Z</time></trkpt>
<trkpt lat="43.0510870000" lon="0.1349720000"><ele>834</ele><time>2026-03-18T09:26:28Z</time></trkpt>
<trkpt lat="43.0510670000" lon="0.1349620000"><ele>835</ele><time>2026-03-18T09:26:31Z</time></trkpt>
<trkpt lat="43.0510470000" lon="0.1349470000"><ele>835</ele><time>2026-03-18T09:26:34Z</time></trkpt>
<trkpt lat="43.0510250000" lon="0.1349280000"><ele>836</ele><time>2026-03-18T09:26:37Z</time></trkpt>
<trkpt lat="43.0510000000" lon="0.1349220000"><ele>836</ele><time>2026-03-18T09:26:40Z</time></trkpt>
<trkpt lat="43.0509720000" lon="0.1349170000"><ele>836</ele><time>2026-03-18T09:26:43Z</time></trkpt>
<trkpt lat="43.0509550000" lon="0.1349270000"><ele>837</ele><time>2026-03-18T09:26:53Z</time></trkpt>
<trkpt lat="43.0509300000" lon="0.1349420000"><ele>837</ele><time>2026-03-18T09:26:56Z</time></trkpt>
<trkpt lat="43.0509120000" lon="0.1349570000"><ele>837</ele><time>2026-03-18T09:26:58Z</time></trkpt>
<trkpt lat="43.0508970000" lon="0.1349670000"><ele>837</ele><time>2026-03-18T09:27:00Z</time></trkpt>
<trkpt lat="43.0508770000" lon="0.1349870000"><ele>837</ele><time>2026-03-18T09:27:03Z</time></trkpt>
<trkpt lat="43.0508620000" lon="0.1350070000"><ele>837</ele><time>2026-03-18T09:27:05Z</time></trkpt>
<trkpt lat="43.0508450000" lon="0.1350300000"><ele>838</ele><time>2026-03-18T09:27:08Z</time></trkpt>
<trkpt lat="43.0508370000" lon="0.1350550000"><ele>838</ele><time>2026-03-18T09:27:10Z</time></trkpt>
<trkpt lat="43.0508270000" lon="0.1350800000"><ele>838</ele><time>2026-03-18T09:27:12Z</time></trkpt>
<trkpt lat="43.0508080000" lon="0.1351000000"><ele>838</ele><time>2026-03-18T09:27:15Z</time></trkpt>
<trkpt lat="43.0507950000" lon="0.1351220000"><ele>839</ele><time>2026-03-18T09:27:19Z</time></trkpt>
<trkpt lat="43.0507820000" lon="0.1351420000"><ele>839</ele><time>2026-03-18T09:27:23Z</time></trkpt>
<trkpt lat="43.0507650000" lon="0.1351570000"><ele>840</ele><time>2026-03-18T09:27:27Z</time></trkpt>
<trkpt lat="43.0507470000" lon="0.1351750000"><ele>840</ele><time>2026-03-18T09:27:30Z</time></trkpt>
<trkpt lat="43.0507320000" lon="0.1351970000"><ele>841</ele><time>2026-03-18T09:27:33Z</time></trkpt>
<trkpt lat="43.0507150000" lon="0.1352170000"><ele>841</ele><time>2026-03-18T09:27:36Z</time></trkpt>
<trkpt lat="43.0507020000" lon="0.1352330000"><ele>841</ele><time>2026-03-18T09:27:39Z</time></trkpt>
<trkpt lat="43.0506870000" lon="0.1352620000"><ele>842</ele><time>2026-03-18T09:27:43Z</time></trkpt>
<trkpt lat="43.0506720000" lon="0.1352900000"><ele>842</ele><time>2026-03-18T09:27:46Z</time></trkpt>
<trkpt lat="43.0506620000" lon="0.1353120000"><ele>842</ele><time>2026-03-18T09:27:48Z</time></trkpt>
<trkpt lat="43.0506450000" lon="0.1353380000"><ele>843</ele><time>2026-03-18T09:27:51Z</time></trkpt>
<trkpt lat="43.0506270000" lon="0.1353670000"><ele>843</ele><time>2026-03-18T09:27:54Z</time></trkpt>
<trkpt lat="43.0506070000" lon="0.1353820000"><ele>843</ele><time>2026-03-18T09:27:57Z</time></trkpt>
<trkpt lat="43.0505870000" lon="0.1354020000"><ele>844</ele><time>2026-03-18T09:28:00Z</time></trkpt>
<trkpt lat="43.0505700000" lon="0.1354220000"><ele>844</ele><time>2026-03-18T09:28:03Z</time></trkpt>
<trkpt lat="43.0505520000" lon="0.1354370000"><ele>844</ele><time>2026-03-18T09:28:06Z</time></trkpt>
<trkpt lat="43.0505320000" lon="0.1354470000"><ele>845</ele><time>2026-03-18T09:28:09Z</time></trkpt>
<trkpt lat="43.0505120000" lon="0.1354620000"><ele>845</ele><time>2026-03-18T09:28:12Z</time></trkpt>
<trkpt lat="43.0505000000" lon="0.1354920000"><ele>845</ele><time>2026-03-18T09:28:15Z</time></trkpt>
<trkpt lat="43.0504850000" lon="0.1355120000"><ele>846</ele><time>2026-03-18T09:28:18Z</time></trkpt>
<trkpt lat="43.0504670000" lon="0.1355270000"><ele>846</ele><time>2026-03-18T09:28:21Z</time></trkpt>
<trkpt lat="43.0504550000" lon="0.1355550000"><ele>846</ele><time>2026-03-18T09:28:23Z</time></trkpt>
<trkpt lat="43.0504400000" lon="0.1355820000"><ele>846</ele><time>2026-03-18T09:28:25Z</time></trkpt>
<trkpt lat="43.0504250000" lon="0.1355970000"><ele>846</ele><time>2026-03-18T09:28:27Z</time></trkpt>
<trkpt lat="43.0504020000" lon="0.1356120000"><ele>847</ele><time>2026-03-18T09:28:30Z</time></trkpt>
<trkpt lat="43.0503850000" lon="0.1356270000"><ele>847</ele><time>2026-03-18T09:28:34Z</time></trkpt>
<trkpt lat="43.0503620000" lon="0.1356420000"><ele>847</ele><time>2026-03-18T09:28:37Z</time></trkpt>
<trkpt lat="43.0503470000" lon="0.1356600000"><ele>847</ele><time>2026-03-18T09:28:40Z</time></trkpt>
<trkpt lat="43.0503350000" lon="0.1356800000"><ele>848</ele><time>2026-03-18T09:28:43Z</time></trkpt>
<trkpt lat="43.0503250000" lon="0.1357020000"><ele>848</ele><time>2026-03-18T09:28:46Z</time></trkpt>
<trkpt lat="43.0503070000" lon="0.1357120000"><ele>849</ele><time>2026-03-18T09:28:49Z</time></trkpt>
<trkpt lat="43.0502880000" lon="0.1357250000"><ele>849</ele><time>2026-03-18T09:28:52Z</time></trkpt>
<trkpt lat="43.0502650000" lon="0.1357320000"><ele>849</ele><time>2026-03-18T09:28:55Z</time></trkpt>
<trkpt lat="43.0502470000" lon="0.1357420000"><ele>850</ele><time>2026-03-18T09:28:57Z</time></trkpt>
<trkpt lat="43.0502270000" lon="0.1357520000"><ele>850</ele><time>2026-03-18T09:29:00Z</time></trkpt>
<trkpt lat="43.0502070000" lon="0.1357620000"><ele>850</ele><time>2026-03-18T09:29:04Z</time></trkpt>
<trkpt lat="43.0501870000" lon="0.1357670000"><ele>851</ele><time>2026-03-18T09:29:07Z</time></trkpt>
<trkpt lat="43.0501670000" lon="0.1357820000"><ele>851</ele><time>2026-03-18T09:29:10Z</time></trkpt>
<trkpt lat="43.0501420000" lon="0.1357970000"><ele>851</ele><time>2026-03-18T09:29:13Z</time></trkpt>
<trkpt lat="43.0501220000" lon="0.1358070000"><ele>852</ele><time>2026-03-18T09:29:16Z</time></trkpt>
<trkpt lat="43.0501020000" lon="0.1358120000"><ele>852</ele><time>2026-03-18T09:29:19Z</time></trkpt>
<trkpt lat="43.0500770000" lon="0.1358220000"><ele>853</ele><time>2026-03-18T09:29:22Z</time></trkpt>
<trkpt lat="43.0500570000" lon="0.1358420000"><ele>853</ele><time>2026-03-18T09:29:25Z</time></trkpt>
<trkpt lat="43.0500370000" lon="0.1358570000"><ele>854</ele><time>2026-03-18T09:29:28Z</time></trkpt>
<trkpt lat="43.0500200000" lon="0.1358750000"><ele>854</ele><time>2026-03-18T09:29:31Z</time></trkpt>
<trkpt lat="43.0499950000" lon="0.1358800000"><ele>854</ele><time>2026-03-18T09:29:34Z</time></trkpt>
<trkpt lat="43.0499770000" lon="0.1359070000"><ele>854</ele><time>2026-03-18T09:29:37Z</time></trkpt>
<trkpt lat="43.0499670000" lon="0.1359270000"><ele>855</ele><time>2026-03-18T09:29:39Z</time></trkpt>
<trkpt lat="43.0499550000" lon="0.1359470000"><ele>855</ele><time>2026-03-18T09:29:42Z</time></trkpt>
<trkpt lat="43.0499320000" lon="0.1359600000"><ele>855</ele><time>2026-03-18T09:29:46Z</time></trkpt>
<trkpt lat="43.0499120000" lon="0.1359570000"><ele>856</ele><time>2026-03-18T09:29:49Z</time></trkpt>
<trkpt lat="43.0498950000" lon="0.1359450000"><ele>856</ele><time>2026-03-18T09:29:52Z</time></trkpt>
<trkpt lat="43.0498800000" lon="0.1359280000"><ele>857</ele><time>2026-03-18T09:30:00Z</time></trkpt>
<trkpt lat="43.0498620000" lon="0.1359400000"><ele>857</ele><time>2026-03-18T09:30:03Z</time></trkpt>
<trkpt lat="43.0498420000" lon="0.1359450000"><ele>860</ele><time>2026-03-18T09:30:30Z</time></trkpt>
<trkpt lat="43.0498170000" lon="0.1359520000"><ele>861</ele><time>2026-03-18T09:30:31Z</time></trkpt>
<trkpt lat="43.0497870000" lon="0.1359570000"><ele>861</ele><time>2026-03-18T09:30:32Z</time></trkpt>
<trkpt lat="43.0497570000" lon="0.1359670000"><ele>861</ele><time>2026-03-18T09:30:33Z</time></trkpt>
<trkpt lat="43.0497320000" lon="0.1359720000"><ele>861</ele><time>2026-03-18T09:30:34Z</time></trkpt>
<trkpt lat="43.0497050000" lon="0.1359850000"><ele>861</ele><time>2026-03-18T09:30:36Z</time></trkpt>
<trkpt lat="43.0496870000" lon="0.1360020000"><ele>862</ele><time>2026-03-18T09:30:39Z</time></trkpt>
<trkpt lat="43.0496700000" lon="0.1360200000"><ele>862</ele><time>2026-03-18T09:30:43Z</time></trkpt>
<trkpt lat="43.0496470000" lon="0.1360270000"><ele>863</ele><time>2026-03-18T09:30:47Z</time></trkpt>
<trkpt lat="43.0496250000" lon="0.1360220000"><ele>863</ele><time>2026-03-18T09:30:51Z</time></trkpt>
<trkpt lat="43.0496070000" lon="0.1360150000"><ele>864</ele><time>2026-03-18T09:30:53Z</time></trkpt>
<trkpt lat="43.0495850000" lon="0.1360100000"><ele>864</ele><time>2026-03-18T09:30:57Z</time></trkpt>
<trkpt lat="43.0495670000" lon="0.1360120000"><ele>865</ele><time>2026-03-18T09:31:01Z</time></trkpt>
<trkpt lat="43.0495470000" lon="0.1360270000"><ele>865</ele><time>2026-03-18T09:31:04Z</time></trkpt>
<trkpt lat="43.0495320000" lon="0.1360430000"><ele>865</ele><time>2026-03-18T09:31:07Z</time></trkpt>
<trkpt lat="43.0495170000" lon="0.1360570000"><ele>866</ele><time>2026-03-18T09:31:10Z</time></trkpt>
<trkpt lat="43.0495070000" lon="0.1360320000"><ele>866</ele><time>2026-03-18T09:31:14Z</time></trkpt>
<trkpt lat="43.0494870000" lon="0.1360420000"><ele>868</ele><time>2026-03-18T09:31:26Z</time></trkpt>
<trkpt lat="43.0494700000" lon="0.1360550000"><ele>868</ele><time>2026-03-18T09:31:29Z</time></trkpt>
<trkpt lat="43.0494520000" lon="0.1360500000"><ele>869</ele><time>2026-03-18T09:31:32Z</time></trkpt>
<trkpt lat="43.0494350000" lon="0.1360620000"><ele>869</ele><time>2026-03-18T09:31:35Z</time></trkpt>
<trkpt lat="43.0494170000" lon="0.1360770000"><ele>870</ele><time>2026-03-18T09:31:40Z</time></trkpt>
<trkpt lat="43.0493970000" lon="0.1360870000"><ele>870</ele><time>2026-03-18T09:31:43Z</time></trkpt>
<trkpt lat="43.0493770000" lon="0.1361020000"><ele>870</ele><time>2026-03-18T09:31:47Z</time></trkpt>
<trkpt lat="43.0493550000" lon="0.1361120000"><ele>871</ele><time>2026-03-18T09:31:52Z</time></trkpt>
<trkpt lat="43.0493370000" lon="0.1361100000"><ele>871</ele><time>2026-03-18T09:31:55Z</time></trkpt>
<trkpt lat="43.0493170000" lon="0.1361250000"><ele>872</ele><time>2026-03-18T09:31:59Z</time></trkpt>
<trkpt lat="43.0492970000" lon="0.1361320000"><ele>872</ele><time>2026-03-18T09:32:03Z</time></trkpt>
<trkpt lat="43.0492820000" lon="0.1361520000"><ele>872</ele><time>2026-03-18T09:32:06Z</time></trkpt>
<trkpt lat="43.0492620000" lon="0.1361700000"><ele>873</ele><time>2026-03-18T09:32:09Z</time></trkpt>
<trkpt lat="43.0492500000" lon="0.1361870000"><ele>873</ele><time>2026-03-18T09:32:12Z</time></trkpt>
<trkpt lat="43.0492520000" lon="0.1362120000"><ele>874</ele><time>2026-03-18T09:33:25Z</time></trkpt>
<trkpt lat="43.0492600000" lon="0.1361870000"><ele>875</ele><time>2026-03-18T09:34:35Z</time></trkpt>
<trkpt lat="43.0492370000" lon="0.1361900000"><ele>876</ele><time>2026-03-18T09:35:43Z</time></trkpt>
<trkpt lat="43.0492100000" lon="0.1361920000"><ele>876</ele><time>2026-03-18T09:35:45Z</time></trkpt>
<trkpt lat="43.0491850000" lon="0.1362020000"><ele>877</ele><time>2026-03-18T09:35:47Z</time></trkpt>
<trkpt lat="43.0491670000" lon="0.1362150000"><ele>877</ele><time>2026-03-18T09:35:49Z</time></trkpt>
<trkpt lat="43.0491480000" lon="0.1362280000"><ele>877</ele><time>2026-03-18T09:35:52Z</time></trkpt>
<trkpt lat="43.0491300000" lon="0.1362470000"><ele>877</ele><time>2026-03-18T09:35:55Z</time></trkpt>
<trkpt lat="43.0491120000" lon="0.1362800000"><ele>878</ele><time>2026-03-18T09:35:58Z</time></trkpt>
<trkpt lat="43.0491000000" lon="0.1363000000"><ele>878</ele><time>2026-03-18T09:36:00Z</time></trkpt>
<trkpt lat="43.0490780000" lon="0.1363170000"><ele>878</ele><time>2026-03-18T09:36:04Z</time></trkpt>
<trkpt lat="43.0490620000" lon="0.1363270000"><ele>879</ele><time>2026-03-18T09:36:07Z</time></trkpt>
<trkpt lat="43.0490520000" lon="0.1363620000"><ele>879</ele><time>2026-03-18T09:36:09Z</time></trkpt>
<trkpt lat="43.0490420000" lon="0.1363900000"><ele>879</ele><time>2026-03-18T09:36:11Z</time></trkpt>
<trkpt lat="43.0490270000" lon="0.1364220000"><ele>880</ele><time>2026-03-18T09:36:15Z</time></trkpt>
<trkpt lat="43.0490120000" lon="0.1364450000"><ele>880</ele><time>2026-03-18T09:36:17Z</time></trkpt>
<trkpt lat="43.0490020000" lon="0.1364650000"><ele>880</ele><time>2026-03-18T09:36:19Z</time></trkpt>
<trkpt lat="43.0489870000" lon="0.1364820000"><ele>880</ele><time>2026-03-18T09:36:21Z</time></trkpt>
<trkpt lat="43.0489670000" lon="0.1364770000"><ele>880</ele><time>2026-03-18T09:36:24Z</time></trkpt>
<trkpt lat="43.0489470000" lon="0.1364770000"><ele>880</ele><time>2026-03-18T09:36:26Z</time></trkpt>
<trkpt lat="43.0489270000" lon="0.1364920000"><ele>880</ele><time>2026-03-18T09:36:29Z</time></trkpt>
<trkpt lat="43.0489070000" lon="0.1365070000"><ele>881</ele><time>2026-03-18T09:36:32Z</time></trkpt>
<trkpt lat="43.0488870000" lon="0.1365220000"><ele>881</ele><time>2026-03-18T09:36:35Z</time></trkpt>
<trkpt lat="43.0488670000" lon="0.1365320000"><ele>881</ele><time>2026-03-18T09:36:38Z</time></trkpt>
<trkpt lat="43.0488450000" lon="0.1365450000"><ele>882</ele><time>2026-03-18T09:36:42Z</time></trkpt>
<trkpt lat="43.0488270000" lon="0.1365570000"><ele>882</ele><time>2026-03-18T09:36:45Z</time></trkpt>
<trkpt lat="43.0488120000" lon="0.1365720000"><ele>883</ele><time>2026-03-18T09:36:48Z</time></trkpt>
<trkpt lat="43.0487920000" lon="0.1365870000"><ele>883</ele><time>2026-03-18T09:36:51Z</time></trkpt>
<trkpt lat="43.0487770000" lon="0.1366050000"><ele>883</ele><time>2026-03-18T09:36:54Z</time></trkpt>
<trkpt lat="43.0487570000" lon="0.1366180000"><ele>884</ele><time>2026-03-18T09:36:57Z</time></trkpt>
<trkpt lat="43.0487370000" lon="0.1366300000"><ele>884</ele><time>2026-03-18T09:37:01Z</time></trkpt>
<trkpt lat="43.0487170000" lon="0.1366420000"><ele>884</ele><time>2026-03-18T09:37:04Z</time></trkpt>
<trkpt lat="43.0486970000" lon="0.1366570000"><ele>884</ele><time>2026-03-18T09:37:07Z</time></trkpt>
<trkpt lat="43.0486800000" lon="0.1366720000"><ele>884</ele><time>2026-03-18T09:37:10Z</time></trkpt>
<trkpt lat="43.0486620000" lon="0.1366870000"><ele>885</ele><time>2026-03-18T09:37:13Z</time></trkpt>
<trkpt lat="43.0486420000" lon="0.1366870000"><ele>885</ele><time>2026-03-18T09:37:16Z</time></trkpt>
<trkpt lat="43.0486270000" lon="0.1367100000"><ele>885</ele><time>2026-03-18T09:37:20Z</time></trkpt>
<trkpt lat="43.0486170000" lon="0.1367370000"><ele>885</ele><time>2026-03-18T09:37:22Z</time></trkpt>
<trkpt lat="43.0486120000" lon="0.1367620000"><ele>885</ele><time>2026-03-18T09:37:24Z</time></trkpt>
<trkpt lat="43.0485970000" lon="0.1367820000"><ele>886</ele><time>2026-03-18T09:37:26Z</time></trkpt>
<trkpt lat="43.0485770000" lon="0.1368000000"><ele>886</ele><time>2026-03-18T09:37:30Z</time></trkpt>
<trkpt lat="43.0485620000" lon="0.1368220000"><ele>886</ele><time>2026-03-18T09:37:35Z</time></trkpt>
<trkpt lat="43.0485430000" lon="0.1368370000"><ele>886</ele><time>2026-03-18T09:37:37Z</time></trkpt>
<trkpt lat="43.0485220000" lon="0.1368450000"><ele>886</ele><time>2026-03-18T09:37:41Z</time></trkpt>
<trkpt lat="43.0485050000" lon="0.1368620000"><ele>887</ele><time>2026-03-18T09:37:44Z</time></trkpt>
<trkpt lat="43.0484870000" lon="0.1368730000"><ele>887</ele><time>2026-03-18T09:37:47Z</time></trkpt>
<trkpt lat="43.0484700000" lon="0.1368900000"><ele>887</ele><time>2026-03-18T09:37:50Z</time></trkpt>
<trkpt lat="43.0484520000" lon="0.1369070000"><ele>887</ele><time>2026-03-18T09:37:53Z</time></trkpt>
<trkpt lat="43.0484300000" lon="0.1369170000"><ele>888</ele><time>2026-03-18T09:37:57Z</time></trkpt>
<trkpt lat="43.0484120000" lon="0.1369350000"><ele>888</ele><time>2026-03-18T09:38:00Z</time></trkpt>
<trkpt lat="43.0483950000" lon="0.1369550000"><ele>888</ele><time>2026-03-18T09:38:03Z</time></trkpt>
<trkpt lat="43.0483770000" lon="0.1369770000"><ele>889</ele><time>2026-03-18T09:38:06Z</time></trkpt>
<trkpt lat="43.0483670000" lon="0.1370020000"><ele>889</ele><time>2026-03-18T09:38:10Z</time></trkpt>
<trkpt lat="43.0483520000" lon="0.1370250000"><ele>889</ele><time>2026-03-18T09:38:13Z</time></trkpt>
<trkpt lat="43.0483350000" lon="0.1370370000"><ele>889</ele><time>2026-03-18T09:38:16Z</time></trkpt>
<trkpt lat="43.0483220000" lon="0.1370570000"><ele>890</ele><time>2026-03-18T09:38:20Z</time></trkpt>
<trkpt lat="43.0483070000" lon="0.1370750000"><ele>890</ele><time>2026-03-18T09:38:23Z</time></trkpt>
<trkpt lat="43.0482900000" lon="0.1370770000"><ele>891</ele><time>2026-03-18T09:38:28Z</time></trkpt>
<trkpt lat="43.0482700000" lon="0.1370870000"><ele>892</ele><time>2026-03-18T09:38:33Z</time></trkpt>
<trkpt lat="43.0482570000" lon="0.1371070000"><ele>892</ele><time>2026-03-18T09:38:35Z</time></trkpt>
<trkpt lat="43.0482500000" lon="0.1371400000"><ele>892</ele><time>2026-03-18T09:38:37Z</time></trkpt>
<trkpt lat="43.0482450000" lon="0.1371670000"><ele>893</ele><time>2026-03-18T09:38:39Z</time></trkpt>
<trkpt lat="43.0482330000" lon="0.1371920000"><ele>893</ele><time>2026-03-18T09:38:42Z</time></trkpt>
<trkpt lat="43.0482250000" lon="0.1372150000"><ele>894</ele><time>2026-03-18T09:38:45Z</time></trkpt>
<trkpt lat="43.0482100000" lon="0.1372320000"><ele>894</ele><time>2026-03-18T09:38:48Z</time></trkpt>
<trkpt lat="43.0481870000" lon="0.1372470000"><ele>894</ele><time>2026-03-18T09:38:54Z</time></trkpt>
<trkpt lat="43.0481720000" lon="0.1372620000"><ele>894</ele><time>2026-03-18T09:38:57Z</time></trkpt>
<trkpt lat="43.0481570000" lon="0.1372820000"><ele>894</ele><time>2026-03-18T09:39:00Z</time></trkpt>
<trkpt lat="43.0481470000" lon="0.1373070000"><ele>895</ele><time>2026-03-18T09:39:03Z</time></trkpt>
<trkpt lat="43.0481320000" lon="0.1373270000"><ele>895</ele><time>2026-03-18T09:39:05Z</time></trkpt>
<trkpt lat="43.0481150000" lon="0.1373380000"><ele>895</ele><time>2026-03-18T09:39:08Z</time></trkpt>
<trkpt lat="43.0480970000" lon="0.1373500000"><ele>895</ele><time>2026-03-18T09:39:11Z</time></trkpt>
<trkpt lat="43.0480800000" lon="0.1373720000"><ele>895</ele><time>2026-03-18T09:39:14Z</time></trkpt>
<trkpt lat="43.0480620000" lon="0.1373920000"><ele>896</ele><time>2026-03-18T09:39:17Z</time></trkpt>
<trkpt lat="43.0480450000" lon="0.1374050000"><ele>896</ele><time>2026-03-18T09:39:21Z</time></trkpt>
<trkpt lat="43.0480270000" lon="0.1374170000"><ele>896</ele><time>2026-03-18T09:39:24Z</time></trkpt>
<trkpt lat="43.0480220000" lon="0.1374420000"><ele>897</ele><time>2026-03-18T09:39:29Z</time></trkpt>
<trkpt lat="43.0480020000" lon="0.1374370000"><ele>897</ele><time>2026-03-18T09:39:45Z</time></trkpt>
<trkpt lat="43.0480050000" lon="0.1374700000"><ele>897</ele><time>2026-03-18T09:39:54Z</time></trkpt>
<trkpt lat="43.0479870000" lon="0.1374750000"><ele>897</ele><time>2026-03-18T09:40:14Z</time></trkpt>
<trkpt lat="43.0479620000" lon="0.1374820000"><ele>897</ele><time>2026-03-18T09:40:16Z</time></trkpt>
<trkpt lat="43.0479380000" lon="0.1374920000"><ele>898</ele><time>2026-03-18T09:40:18Z</time></trkpt>
<trkpt lat="43.0479200000" lon="0.1375020000"><ele>898</ele><time>2026-03-18T09:40:20Z</time></trkpt>
<trkpt lat="43.0479000000" lon="0.1375170000"><ele>898</ele><time>2026-03-18T09:40:22Z</time></trkpt>
<trkpt lat="43.0478820000" lon="0.1375250000"><ele>898</ele><time>2026-03-18T09:40:24Z</time></trkpt>
<trkpt lat="43.0478620000" lon="0.1375320000"><ele>898</ele><time>2026-03-18T09:40:26Z</time></trkpt>
<trkpt lat="43.0478450000" lon="0.1375320000"><ele>898</ele><time>2026-03-18T09:40:28Z</time></trkpt>
<trkpt lat="43.0478250000" lon="0.1375370000"><ele>898</ele><time>2026-03-18T09:40:30Z</time></trkpt>
<trkpt lat="43.0478020000" lon="0.1375470000"><ele>899</ele><time>2026-03-18T09:40:33Z</time></trkpt>
<trkpt lat="43.0477830000" lon="0.1375570000"><ele>899</ele><time>2026-03-18T09:40:35Z</time></trkpt>
<trkpt lat="43.0477650000" lon="0.1375580000"><ele>899</ele><time>2026-03-18T09:40:37Z</time></trkpt>
<trkpt lat="43.0477400000" lon="0.1375520000"><ele>900</ele><time>2026-03-18T09:40:40Z</time></trkpt>
<trkpt lat="43.0477450000" lon="0.1375270000"><ele>900</ele><time>2026-03-18T09:40:43Z</time></trkpt>
<trkpt lat="43.0477550000" lon="0.1375050000"><ele>901</ele><time>2026-03-18T09:40:50Z</time></trkpt>
<trkpt lat="43.0477720000" lon="0.1374780000"><ele>901</ele><time>2026-03-18T09:40:55Z</time></trkpt>
<trkpt lat="43.0477950000" lon="0.1374520000"><ele>901</ele><time>2026-03-18T09:40:57Z</time></trkpt>
<trkpt lat="43.0478170000" lon="0.1374270000"><ele>901</ele><time>2026-03-18T09:40:59Z</time></trkpt>
<trkpt lat="43.0478350000" lon="0.1374050000"><ele>901</ele><time>2026-03-18T09:41:01Z</time></trkpt>
<trkpt lat="43.0478400000" lon="0.1373800000"><ele>902</ele><time>2026-03-18T09:41:03Z</time></trkpt>
<trkpt lat="43.0478470000" lon="0.1373550000"><ele>902</ele><time>2026-03-18T09:41:05Z</time></trkpt>
<trkpt lat="43.0478620000" lon="0.1373320000"><ele>902</ele><time>2026-03-18T09:41:07Z</time></trkpt>
<trkpt lat="43.0478850000" lon="0.1373120000"><ele>902</ele><time>2026-03-18T09:41:10Z</time></trkpt>
<trkpt lat="43.0479020000" lon="0.1372800000"><ele>903</ele><time>2026-03-18T09:41:13Z</time></trkpt>
<trkpt lat="43.0479170000" lon="0.1372520000"><ele>903</ele><time>2026-03-18T09:41:15Z</time></trkpt>
<trkpt lat="43.0479320000" lon="0.1372270000"><ele>903</ele><time>2026-03-18T09:41:17Z</time></trkpt>
<trkpt lat="43.0479470000" lon="0.1372120000"><ele>903</ele><time>2026-03-18T09:41:19Z</time></trkpt>
<trkpt lat="43.0479620000" lon="0.1371850000"><ele>903</ele><time>2026-03-18T09:41:22Z</time></trkpt>
<trkpt lat="43.0479800000" lon="0.1371620000"><ele>903</ele><time>2026-03-18T09:41:25Z</time></trkpt>
<trkpt lat="43.0479950000" lon="0.1371420000"><ele>903</ele><time>2026-03-18T09:41:27Z</time></trkpt>
<trkpt lat="43.0480120000" lon="0.1371150000"><ele>904</ele><time>2026-03-18T09:41:30Z</time></trkpt>
<trkpt lat="43.0480250000" lon="0.1370950000"><ele>904</ele><time>2026-03-18T09:41:33Z</time></trkpt>
<trkpt lat="43.0480420000" lon="0.1370670000"><ele>904</ele><time>2026-03-18T09:41:36Z</time></trkpt>
<trkpt lat="43.0480520000" lon="0.1370450000"><ele>904</ele><time>2026-03-18T09:41:38Z</time></trkpt>
<trkpt lat="43.0480400000" lon="0.1370250000"><ele>904</ele><time>2026-03-18T09:41:42Z</time></trkpt>
<trkpt lat="43.0480200000" lon="0.1370450000"><ele>905</ele><time>2026-03-18T09:41:45Z</time></trkpt>
<trkpt lat="43.0480020000" lon="0.1370620000"><ele>905</ele><time>2026-03-18T09:41:47Z</time></trkpt>
<trkpt lat="43.0479820000" lon="0.1370720000"><ele>905</ele><time>2026-03-18T09:41:49Z</time></trkpt>
<trkpt lat="43.0479570000" lon="0.1370870000"><ele>905</ele><time>2026-03-18T09:41:52Z</time></trkpt>
<trkpt lat="43.0479370000" lon="0.1370920000"><ele>906</ele><time>2026-03-18T09:41:54Z</time></trkpt>
<trkpt lat="43.0479170000" lon="0.1371070000"><ele>906</ele><time>2026-03-18T09:41:57Z</time></trkpt>
<trkpt lat="43.0478970000" lon="0.1371170000"><ele>906</ele><time>2026-03-18T09:41:59Z</time></trkpt>
<trkpt lat="43.0478770000" lon="0.1371320000"><ele>906</ele><time>2026-03-18T09:42:01Z</time></trkpt>
<trkpt lat="43.0478620000" lon="0.1371420000"><ele>907</ele><time>2026-03-18T09:42:03Z</time></trkpt>
<trkpt lat="43.0478420000" lon="0.1371520000"><ele>907</ele><time>2026-03-18T09:42:06Z</time></trkpt>
<trkpt lat="43.0478170000" lon="0.1371620000"><ele>907</ele><time>2026-03-18T09:42:09Z</time></trkpt>
<trkpt lat="43.0477900000" lon="0.1371670000"><ele>908</ele><time>2026-03-18T09:42:12Z</time></trkpt>
<trkpt lat="43.0477650000" lon="0.1371720000"><ele>908</ele><time>2026-03-18T09:42:15Z</time></trkpt>
<trkpt lat="43.0477450000" lon="0.1371670000"><ele>908</ele><time>2026-03-18T09:42:18Z</time></trkpt>
<trkpt lat="43.0477250000" lon="0.1371530000"><ele>909</ele><time>2026-03-18T09:42:21Z</time></trkpt>
<trkpt lat="43.0477070000" lon="0.1371600000"><ele>909</ele><time>2026-03-18T09:42:24Z</time></trkpt>
<trkpt lat="43.0477050000" lon="0.1371300000"><ele>910</ele><time>2026-03-18T09:42:29Z</time></trkpt>
<trkpt lat="43.0477120000" lon="0.1371000000"><ele>910</ele><time>2026-03-18T09:42:33Z</time></trkpt>
<trkpt lat="43.0477170000" lon="0.1370720000"><ele>911</ele><time>2026-03-18T09:42:35Z</time></trkpt>
<trkpt lat="43.0477270000" lon="0.1370520000"><ele>911</ele><time>2026-03-18T09:42:37Z</time></trkpt>
<trkpt lat="43.0477420000" lon="0.1370250000"><ele>911</ele><time>2026-03-18T09:42:40Z</time></trkpt>
<trkpt lat="43.0477520000" lon="0.1369970000"><ele>912</ele><time>2026-03-18T09:42:43Z</time></trkpt>
<trkpt lat="43.0477620000" lon="0.1369670000"><ele>912</ele><time>2026-03-18T09:42:46Z</time></trkpt>
<trkpt lat="43.0477720000" lon="0.1369350000"><ele>913</ele><time>2026-03-18T09:42:49Z</time></trkpt>
<trkpt lat="43.0477870000" lon="0.1369020000"><ele>913</ele><time>2026-03-18T09:42:52Z</time></trkpt>
<trkpt lat="43.0477920000" lon="0.1368770000"><ele>913</ele><time>2026-03-18T09:42:54Z</time></trkpt>
<trkpt lat="43.0478050000" lon="0.1368570000"><ele>913</ele><time>2026-03-18T09:42:56Z</time></trkpt>
<trkpt lat="43.0478170000" lon="0.1368250000"><ele>914</ele><time>2026-03-18T09:42:59Z</time></trkpt>
<trkpt lat="43.0478300000" lon="0.1367900000"><ele>914</ele><time>2026-03-18T09:43:02Z</time></trkpt>
<trkpt lat="43.0478420000" lon="0.1367620000"><ele>914</ele><time>2026-03-18T09:43:05Z</time></trkpt>
<trkpt lat="43.0478570000" lon="0.1367370000"><ele>914</ele><time>2026-03-18T09:43:08Z</time></trkpt>
<trkpt lat="43.0478700000" lon="0.1367170000"><ele>915</ele><time>2026-03-18T09:43:10Z</time></trkpt>
<trkpt lat="43.0478800000" lon="0.1366850000"><ele>915</ele><time>2026-03-18T09:43:13Z</time></trkpt>
<trkpt lat="43.0478950000" lon="0.1366570000"><ele>915</ele><time>2026-03-18T09:43:16Z</time></trkpt>
<trkpt lat="43.0479070000" lon="0.1366270000"><ele>916</ele><time>2026-03-18T09:43:19Z</time></trkpt>
<trkpt lat="43.0479200000" lon="0.1366050000"><ele>916</ele><time>2026-03-18T09:43:22Z</time></trkpt>
<trkpt lat="43.0479320000" lon="0.1365820000"><ele>916</ele><time>2026-03-18T09:43:25Z</time></trkpt>
<trkpt lat="43.0479420000" lon="0.1365570000"><ele>916</ele><time>2026-03-18T09:43:27Z</time></trkpt>
<trkpt lat="43.0479550000" lon="0.1365370000"><ele>917</ele><time>2026-03-18T09:43:29Z</time></trkpt>
<trkpt lat="43.0479750000" lon="0.1365200000"><ele>917</ele><time>2026-03-18T09:43:32Z</time></trkpt>
<trkpt lat="43.0479920000" lon="0.1365070000"><ele>917</ele><time>2026-03-18T09:43:35Z</time></trkpt>
<trkpt lat="43.0480070000" lon="0.1364820000"><ele>918</ele><time>2026-03-18T09:43:38Z</time></trkpt>
<trkpt lat="43.0480120000" lon="0.1364580000"><ele>918</ele><time>2026-03-18T09:43:41Z</time></trkpt>
<trkpt lat="43.0480270000" lon="0.1364320000"><ele>919</ele><time>2026-03-18T09:43:44Z</time></trkpt>
<trkpt lat="43.0480350000" lon="0.1364050000"><ele>919</ele><time>2026-03-18T09:43:46Z</time></trkpt>
<trkpt lat="43.0480470000" lon="0.1363800000"><ele>919</ele><time>2026-03-18T09:43:49Z</time></trkpt>
<trkpt lat="43.0480370000" lon="0.1363550000"><ele>920</ele><time>2026-03-18T09:43:53Z</time></trkpt>
<trkpt lat="43.0480120000" lon="0.1363430000"><ele>920</ele><time>2026-03-18T09:43:56Z</time></trkpt>
<trkpt lat="43.0479870000" lon="0.1363370000"><ele>921</ele><time>2026-03-18T09:43:59Z</time></trkpt>
<trkpt lat="43.0479650000" lon="0.1363300000"><ele>921</ele><time>2026-03-18T09:44:03Z</time></trkpt>
<trkpt lat="43.0479470000" lon="0.1363270000"><ele>921</ele><time>2026-03-18T09:44:06Z</time></trkpt>
<trkpt lat="43.0479270000" lon="0.1363230000"><ele>921</ele><time>2026-03-18T09:44:08Z</time></trkpt>
<trkpt lat="43.0479050000" lon="0.1363220000"><ele>922</ele><time>2026-03-18T09:44:10Z</time></trkpt>
<trkpt lat="43.0478870000" lon="0.1363120000"><ele>922</ele><time>2026-03-18T09:44:12Z</time></trkpt>
<trkpt lat="43.0478650000" lon="0.1362970000"><ele>922</ele><time>2026-03-18T09:44:15Z</time></trkpt>
<trkpt lat="43.0478470000" lon="0.1362870000"><ele>923</ele><time>2026-03-18T09:44:18Z</time></trkpt>
<trkpt lat="43.0478250000" lon="0.1362720000"><ele>923</ele><time>2026-03-18T09:44:21Z</time></trkpt>
<trkpt lat="43.0478050000" lon="0.1362600000"><ele>923</ele><time>2026-03-18T09:44:24Z</time></trkpt>
<trkpt lat="43.0477820000" lon="0.1362500000"><ele>923</ele><time>2026-03-18T09:44:27Z</time></trkpt>
<trkpt lat="43.0477650000" lon="0.1362500000"><ele>924</ele><time>2026-03-18T09:44:30Z</time></trkpt>
<trkpt lat="43.0477470000" lon="0.1362450000"><ele>924</ele><time>2026-03-18T09:44:32Z</time></trkpt>
<trkpt lat="43.0477200000" lon="0.1362450000"><ele>925</ele><time>2026-03-18T09:44:35Z</time></trkpt>
<trkpt lat="43.0476970000" lon="0.1362420000"><ele>925</ele><time>2026-03-18T09:44:38Z</time></trkpt>
<trkpt lat="43.0476700000" lon="0.1362520000"><ele>925</ele><time>2026-03-18T09:44:41Z</time></trkpt>
<trkpt lat="43.0476520000" lon="0.1362620000"><ele>925</ele><time>2026-03-18T09:44:43Z</time></trkpt>
<trkpt lat="43.0476320000" lon="0.1362820000"><ele>925</ele><time>2026-03-18T09:44:46Z</time></trkpt>
<trkpt lat="43.0476070000" lon="0.1362900000"><ele>926</ele><time>2026-03-18T09:44:49Z</time></trkpt>
<trkpt lat="43.0475920000" lon="0.1363170000"><ele>926</ele><time>2026-03-18T09:44:51Z</time></trkpt>
<trkpt lat="43.0475720000" lon="0.1363270000"><ele>926</ele><time>2026-03-18T09:44:54Z</time></trkpt>
<trkpt lat="43.0475470000" lon="0.1363170000"><ele>929</ele><time>2026-03-18T09:45:20Z</time></trkpt>
<trkpt lat="43.0475270000" lon="0.1363170000"><ele>929</ele><time>2026-03-18T09:45:21Z</time></trkpt>
<trkpt lat="43.0475050000" lon="0.1363130000"><ele>929</ele><time>2026-03-18T09:45:22Z</time></trkpt>
<trkpt lat="43.0474820000" lon="0.1363120000"><ele>929</ele><time>2026-03-18T09:45:23Z</time></trkpt>
<trkpt lat="43.0474620000" lon="0.1363070000"><ele>929</ele><time>2026-03-18T09:45:24Z</time></trkpt>
<trkpt lat="43.0474420000" lon="0.1363020000"><ele>930</ele><time>2026-03-18T09:45:26Z</time></trkpt>
<trkpt lat="43.0474250000" lon="0.1363020000"><ele>930</ele><time>2026-03-18T09:45:28Z</time></trkpt>
<trkpt lat="43.0474070000" lon="0.1363020000"><ele>930</ele><time>2026-03-18T09:45:31Z</time></trkpt>
<trkpt lat="43.0473950000" lon="0.1362820000"><ele>931</ele><time>2026-03-18T09:45:34Z</time></trkpt>
<trkpt lat="43.0473850000" lon="0.1362600000"><ele>931</ele><time>2026-03-18T09:45:37Z</time></trkpt>
<trkpt lat="43.0473800000" lon="0.1362270000"><ele>931</ele><time>2026-03-18T09:45:40Z</time></trkpt>
<trkpt lat="43.0473670000" lon="0.1362030000"><ele>932</ele><time>2026-03-18T09:45:43Z</time></trkpt>
<trkpt lat="43.0473520000" lon="0.1361820000"><ele>932</ele><time>2026-03-18T09:45:47Z</time></trkpt>
<trkpt lat="43.0473450000" lon="0.1361550000"><ele>932</ele><time>2026-03-18T09:45:51Z</time></trkpt>
<trkpt lat="43.0473520000" lon="0.1361270000"><ele>933</ele><time>2026-03-18T09:45:54Z</time></trkpt>
<trkpt lat="43.0473600000" lon="0.1360970000"><ele>933</ele><time>2026-03-18T09:45:57Z</time></trkpt>
<trkpt lat="43.0473520000" lon="0.1360620000"><ele>934</ele><time>2026-03-18T09:46:01Z</time></trkpt>
<trkpt lat="43.0473670000" lon="0.1360430000"><ele>934</ele><time>2026-03-18T09:46:04Z</time></trkpt>
<trkpt lat="43.0473870000" lon="0.1360320000"><ele>935</ele><time>2026-03-18T09:46:08Z</time></trkpt>
<trkpt lat="43.0474120000" lon="0.1360220000"><ele>935</ele><time>2026-03-18T09:46:11Z</time></trkpt>
<trkpt lat="43.0474320000" lon="0.1360170000"><ele>935</ele><time>2026-03-18T09:46:14Z</time></trkpt>
<trkpt lat="43.0474500000" lon="0.1360070000"><ele>935</ele><time>2026-03-18T09:46:17Z</time></trkpt>
<trkpt lat="43.0474600000" lon="0.1359770000"><ele>936</ele><time>2026-03-18T09:46:20Z</time></trkpt>
<trkpt lat="43.0474700000" lon="0.1359470000"><ele>936</ele><time>2026-03-18T09:46:22Z</time></trkpt>
<trkpt lat="43.0474850000" lon="0.1359270000"><ele>936</ele><time>2026-03-18T09:46:24Z</time></trkpt>
<trkpt lat="43.0475000000" lon="0.1359070000"><ele>936</ele><time>2026-03-18T09:46:26Z</time></trkpt>
<trkpt lat="43.0475220000" lon="0.1358920000"><ele>937</ele><time>2026-03-18T09:46:29Z</time></trkpt>
<trkpt lat="43.0475420000" lon="0.1358970000"><ele>937</ele><time>2026-03-18T09:46:33Z</time></trkpt>
<trkpt lat="43.0475620000" lon="0.1358920000"><ele>937</ele><time>2026-03-18T09:46:38Z</time></trkpt>
<trkpt lat="43.0475800000" lon="0.1358750000"><ele>938</ele><time>2026-03-18T09:46:41Z</time></trkpt>
<trkpt lat="43.0476020000" lon="0.1358700000"><ele>938</ele><time>2026-03-18T09:46:45Z</time></trkpt>
<trkpt lat="43.0476220000" lon="0.1358720000"><ele>938</ele><time>2026-03-18T09:46:47Z</time></trkpt>
<trkpt lat="43.0476370000" lon="0.1358570000"><ele>939</ele><time>2026-03-18T09:46:50Z</time></trkpt>
<trkpt lat="43.0476470000" lon="0.1358370000"><ele>939</ele><time>2026-03-18T09:46:53Z</time></trkpt>
<trkpt lat="43.0476670000" lon="0.1358270000"><ele>939</ele><time>2026-03-18T09:46:55Z</time></trkpt>
<trkpt lat="43.0476850000" lon="0.1358250000"><ele>939</ele><time>2026-03-18T09:46:57Z</time></trkpt>
<trkpt lat="43.0477020000" lon="0.1358120000"><ele>940</ele><time>2026-03-18T09:46:59Z</time></trkpt>
<trkpt lat="43.0477220000" lon="0.1358070000"><ele>940</ele><time>2026-03-18T09:47:01Z</time></trkpt>
<trkpt lat="43.0477500000" lon="0.1358130000"><ele>940</ele><time>2026-03-18T09:47:04Z</time></trkpt>
<trkpt lat="43.0477770000" lon="0.1358220000"><ele>940</ele><time>2026-03-18T09:47:07Z</time></trkpt>
<trkpt lat="43.0477950000" lon="0.1358170000"><ele>940</ele><time>2026-03-18T09:47:09Z</time></trkpt>
<trkpt lat="43.0478150000" lon="0.1358120000"><ele>940</ele><time>2026-03-18T09:47:11Z</time></trkpt>
<trkpt lat="43.0478320000" lon="0.1358020000"><ele>940</ele><time>2026-03-18T09:47:13Z</time></trkpt>
<trkpt lat="43.0478520000" lon="0.1357970000"><ele>940</ele><time>2026-03-18T09:47:15Z</time></trkpt>
<trkpt lat="43.0478700000" lon="0.1357830000"><ele>940</ele><time>2026-03-18T09:47:18Z</time></trkpt>
<trkpt lat="43.0478900000" lon="0.1357670000"><ele>941</ele><time>2026-03-18T09:47:22Z</time></trkpt>
<trkpt lat="43.0479120000" lon="0.1357720000"><ele>942</ele><time>2026-03-18T09:47:26Z</time></trkpt>
<trkpt lat="43.0479320000" lon="0.1357700000"><ele>942</ele><time>2026-03-18T09:47:29Z</time></trkpt>
<trkpt lat="43.0479550000" lon="0.1357620000"><ele>942</ele><time>2026-03-18T09:47:32Z</time></trkpt>
<trkpt lat="43.0479820000" lon="0.1357770000"><ele>943</ele><time>2026-03-18T09:47:34Z</time></trkpt>
<trkpt lat="43.0480050000" lon="0.1357820000"><ele>943</ele><time>2026-03-18T09:47:36Z</time></trkpt>
<trkpt lat="43.0480270000" lon="0.1357970000"><ele>944</ele><time>2026-03-18T09:47:41Z</time></trkpt>
<trkpt lat="43.0480420000" lon="0.1358120000"><ele>944</ele><time>2026-03-18T09:47:44Z</time></trkpt>
<trkpt lat="43.0480200000" lon="0.1358270000"><ele>946</ele><time>2026-03-18T09:47:59Z</time></trkpt>
<trkpt lat="43.0480050000" lon="0.1358080000"><ele>946</ele><time>2026-03-18T09:48:05Z</time></trkpt>
<trkpt lat="43.0480220000" lon="0.1358200000"><ele>946</ele><time>2026-03-18T09:48:25Z</time></trkpt>
<trkpt lat="43.0480500000" lon="0.1358250000"><ele>946</ele><time>2026-03-18T09:48:27Z</time></trkpt>
<trkpt lat="43.0480770000" lon="0.1358250000"><ele>946</ele><time>2026-03-18T09:48:29Z</time></trkpt>
<trkpt lat="43.0481000000" lon="0.1358270000"><ele>946</ele><time>2026-03-18T09:48:31Z</time></trkpt>
<trkpt lat="43.0481200000" lon="0.1358320000"><ele>946</ele><time>2026-03-18T09:48:34Z</time></trkpt>
<trkpt lat="43.0481370000" lon="0.1358420000"><ele>947</ele><time>2026-03-18T09:48:41Z</time></trkpt>
<trkpt lat="43.0481550000" lon="0.1358420000"><ele>947</ele><time>2026-03-18T09:48:46Z</time></trkpt>
<trkpt lat="43.0481750000" lon="0.1358400000"><ele>947</ele><time>2026-03-18T09:48:49Z</time></trkpt>
<trkpt lat="43.0481720000" lon="0.1358650000"><ele>948</ele><time>2026-03-18T09:48:57Z</time></trkpt>
<trkpt lat="43.0481550000" lon="0.1358670000"><ele>948</ele><time>2026-03-18T09:50:01Z</time></trkpt>
<trkpt lat="43.0481470000" lon="0.1358370000"><ele>948</ele><time>2026-03-18T09:50:23Z</time></trkpt>
<trkpt lat="43.0481370000" lon="0.1358670000"><ele>947</ele><time>2026-03-18T09:54:25Z</time></trkpt>
<trkpt lat="43.0481500000" lon="0.1358870000"><ele>947</ele><time>2026-03-18T09:54:31Z</time></trkpt>
<trkpt lat="43.0481620000" lon="0.1358670000"><ele>947</ele><time>2026-03-18T09:55:30Z</time></trkpt>
<trkpt lat="43.0481820000" lon="0.1358470000"><ele>947</ele><time>2026-03-18T09:55:34Z</time></trkpt>
<trkpt lat="43.0481570000" lon="0.1358370000"><ele>946</ele><time>2026-03-18T09:55:54Z</time></trkpt>
<trkpt lat="43.0481320000" lon="0.1358420000"><ele>945</ele><time>2026-03-18T10:00:12Z</time></trkpt>
<trkpt lat="43.0481120000" lon="0.1358320000"><ele>945</ele><time>2026-03-18T10:00:13Z</time></trkpt>
<trkpt lat="43.0480900000" lon="0.1358170000"><ele>945</ele><time>2026-03-18T10:00:14Z</time></trkpt>
<trkpt lat="43.0480650000" lon="0.1358020000"><ele>945</ele><time>2026-03-18T10:00:15Z</time></trkpt>
<trkpt lat="43.0480420000" lon="0.1357950000"><ele>945</ele><time>2026-03-18T10:00:16Z</time></trkpt>
<trkpt lat="43.0480170000" lon="0.1357970000"><ele>945</ele><time>2026-03-18T10:00:18Z</time></trkpt>
<trkpt lat="43.0479900000" lon="0.1358120000"><ele>945</ele><time>2026-03-18T10:00:20Z</time></trkpt>
<trkpt lat="43.0479650000" lon="0.1358130000"><ele>945</ele><time>2026-03-18T10:00:22Z</time></trkpt>
<trkpt lat="43.0479420000" lon="0.1358120000"><ele>944</ele><time>2026-03-18T10:00:25Z</time></trkpt>
<trkpt lat="43.0479250000" lon="0.1357870000"><ele>944</ele><time>2026-03-18T10:00:28Z</time></trkpt>
<trkpt lat="43.0479070000" lon="0.1357750000"><ele>944</ele><time>2026-03-18T10:00:32Z</time></trkpt>
<trkpt lat="43.0478870000" lon="0.1357820000"><ele>943</ele><time>2026-03-18T10:00:37Z</time></trkpt>
<trkpt lat="43.0478720000" lon="0.1357970000"><ele>942</ele><time>2026-03-18T10:00:40Z</time></trkpt>
<trkpt lat="43.0478570000" lon="0.1358170000"><ele>942</ele><time>2026-03-18T10:00:43Z</time></trkpt>
<trkpt lat="43.0478350000" lon="0.1358370000"><ele>942</ele><time>2026-03-18T10:00:46Z</time></trkpt>
<trkpt lat="43.0478150000" lon="0.1358370000"><ele>941</ele><time>2026-03-18T10:00:48Z</time></trkpt>
<trkpt lat="43.0477920000" lon="0.1358350000"><ele>941</ele><time>2026-03-18T10:00:50Z</time></trkpt>
<trkpt lat="43.0477670000" lon="0.1358370000"><ele>941</ele><time>2026-03-18T10:00:52Z</time></trkpt>
<trkpt lat="43.0477470000" lon="0.1358320000"><ele>940</ele><time>2026-03-18T10:00:55Z</time></trkpt>
<trkpt lat="43.0477220000" lon="0.1358320000"><ele>940</ele><time>2026-03-18T10:00:58Z</time></trkpt>
<trkpt lat="43.0477000000" lon="0.1358420000"><ele>940</ele><time>2026-03-18T10:01:01Z</time></trkpt>
<trkpt lat="43.0476770000" lon="0.1358550000"><ele>940</ele><time>2026-03-18T10:01:10Z</time></trkpt>
<trkpt lat="43.0476520000" lon="0.1358650000"><ele>940</ele><time>2026-03-18T10:01:12Z</time></trkpt>
<trkpt lat="43.0476270000" lon="0.1358770000"><ele>940</ele><time>2026-03-18T10:01:14Z</time></trkpt>
<trkpt lat="43.0476070000" lon="0.1358980000"><ele>940</ele><time>2026-03-18T10:01:17Z</time></trkpt>
<trkpt lat="43.0475920000" lon="0.1359220000"><ele>940</ele><time>2026-03-18T10:01:20Z</time></trkpt>
<trkpt lat="43.0475770000" lon="0.1359520000"><ele>939</ele><time>2026-03-18T10:01:25Z</time></trkpt>
<trkpt lat="43.0475570000" lon="0.1359570000"><ele>939</ele><time>2026-03-18T10:01:28Z</time></trkpt>
<trkpt lat="43.0475320000" lon="0.1359750000"><ele>939</ele><time>2026-03-18T10:01:32Z</time></trkpt>
<trkpt lat="43.0475120000" lon="0.1360120000"><ele>938</ele><time>2026-03-18T10:01:34Z</time></trkpt>
<trkpt lat="43.0474920000" lon="0.1360370000"><ele>938</ele><time>2026-03-18T10:01:36Z</time></trkpt>
<trkpt lat="43.0474720000" lon="0.1360420000"><ele>938</ele><time>2026-03-18T10:01:38Z</time></trkpt>
<trkpt lat="43.0474520000" lon="0.1360500000"><ele>938</ele><time>2026-03-18T10:01:40Z</time></trkpt>
<trkpt lat="43.0474350000" lon="0.1360670000"><ele>937</ele><time>2026-03-18T10:01:43Z</time></trkpt>
<trkpt lat="43.0474070000" lon="0.1360800000"><ele>937</ele><time>2026-03-18T10:01:46Z</time></trkpt>
<trkpt lat="43.0473870000" lon="0.1360770000"><ele>937</ele><time>2026-03-18T10:01:48Z</time></trkpt>
<trkpt lat="43.0473670000" lon="0.1360870000"><ele>937</ele><time>2026-03-18T10:01:51Z</time></trkpt>
<trkpt lat="43.0473470000" lon="0.1361020000"><ele>936</ele><time>2026-03-18T10:01:57Z</time></trkpt>
<trkpt lat="43.0473500000" lon="0.1361300000"><ele>936</ele><time>2026-03-18T10:02:01Z</time></trkpt>
<trkpt lat="43.0473330000" lon="0.1361470000"><ele>935</ele><time>2026-03-18T10:02:03Z</time></trkpt>
<trkpt lat="43.0473170000" lon="0.1361670000"><ele>935</ele><time>2026-03-18T10:02:05Z</time></trkpt>
<trkpt lat="43.0473020000" lon="0.1361870000"><ele>935</ele><time>2026-03-18T10:02:07Z</time></trkpt>
<trkpt lat="43.0472800000" lon="0.1362020000"><ele>934</ele><time>2026-03-18T10:02:09Z</time></trkpt>
<trkpt lat="43.0472570000" lon="0.1362120000"><ele>934</ele><time>2026-03-18T10:02:11Z</time></trkpt>
<trkpt lat="43.0472350000" lon="0.1362170000"><ele>934</ele><time>2026-03-18T10:02:13Z</time></trkpt>
<trkpt lat="43.0472170000" lon="0.1362200000"><ele>934</ele><time>2026-03-18T10:02:15Z</time></trkpt>
<trkpt lat="43.0471950000" lon="0.1362270000"><ele>934</ele><time>2026-03-18T10:02:17Z</time></trkpt>
<trkpt lat="43.0471750000" lon="0.1362400000"><ele>934</ele><time>2026-03-18T10:02:19Z</time></trkpt>
<trkpt lat="43.0471570000" lon="0.1362530000"><ele>935</ele><time>2026-03-18T10:02:21Z</time></trkpt>
<trkpt lat="43.0471320000" lon="0.1362620000"><ele>935</ele><time>2026-03-18T10:02:24Z</time></trkpt>
<trkpt lat="43.0471150000" lon="0.1362650000"><ele>935</ele><time>2026-03-18T10:02:26Z</time></trkpt>
<trkpt lat="43.0470920000" lon="0.1362620000"><ele>935</ele><time>2026-03-18T10:02:29Z</time></trkpt>
<trkpt lat="43.0470670000" lon="0.1362820000"><ele>935</ele><time>2026-03-18T10:02:32Z</time></trkpt>
<trkpt lat="43.0470500000" lon="0.1363000000"><ele>936</ele><time>2026-03-18T10:02:34Z</time></trkpt>
<trkpt lat="43.0470270000" lon="0.1363080000"><ele>936</ele><time>2026-03-18T10:02:37Z</time></trkpt>
<trkpt lat="43.0470020000" lon="0.1363070000"><ele>936</ele><time>2026-03-18T10:02:40Z</time></trkpt>
<trkpt lat="43.0469820000" lon="0.1363170000"><ele>936</ele><time>2026-03-18T10:02:43Z</time></trkpt>
<trkpt lat="43.0469670000" lon="0.1363420000"><ele>936</ele><time>2026-03-18T10:02:45Z</time></trkpt>
<trkpt lat="43.0469470000" lon="0.1363680000"><ele>936</ele><time>2026-03-18T10:02:47Z</time></trkpt>
<trkpt lat="43.0469300000" lon="0.1363970000"><ele>936</ele><time>2026-03-18T10:02:49Z</time></trkpt>
<trkpt lat="43.0469120000" lon="0.1364070000"><ele>936</ele><time>2026-03-18T10:02:51Z</time></trkpt>
<trkpt lat="43.0468870000" lon="0.1364250000"><ele>937</ele><time>2026-03-18T10:02:54Z</time></trkpt>
<trkpt lat="43.0468680000" lon="0.1364250000"><ele>937</ele><time>2026-03-18T10:02:57Z</time></trkpt>
<trkpt lat="43.0468470000" lon="0.1364250000"><ele>937</ele><time>2026-03-18T10:03:01Z</time></trkpt>
<trkpt lat="43.0468270000" lon="0.1364300000"><ele>937</ele><time>2026-03-18T10:03:04Z</time></trkpt>
<trkpt lat="43.0468070000" lon="0.1364420000"><ele>938</ele><time>2026-03-18T10:03:07Z</time></trkpt>
<trkpt lat="43.0467870000" lon="0.1364580000"><ele>938</ele><time>2026-03-18T10:03:10Z</time></trkpt>
<trkpt lat="43.0467700000" lon="0.1364750000"><ele>938</ele><time>2026-03-18T10:03:13Z</time></trkpt>
<trkpt lat="43.0467520000" lon="0.1364870000"><ele>939</ele><time>2026-03-18T10:03:17Z</time></trkpt>
<trkpt lat="43.0467280000" lon="0.1364970000"><ele>939</ele><time>2026-03-18T10:03:20Z</time></trkpt>
<trkpt lat="43.0467170000" lon="0.1365150000"><ele>939</ele><time>2026-03-18T10:03:23Z</time></trkpt>
<trkpt lat="43.0466920000" lon="0.1365270000"><ele>939</ele><time>2026-03-18T10:03:26Z</time></trkpt>
<trkpt lat="43.0466720000" lon="0.1365350000"><ele>940</ele><time>2026-03-18T10:03:29Z</time></trkpt>
<trkpt lat="43.0466520000" lon="0.1365450000"><ele>940</ele><time>2026-03-18T10:03:33Z</time></trkpt>
<trkpt lat="43.0466350000" lon="0.1365600000"><ele>940</ele><time>2026-03-18T10:03:36Z</time></trkpt>
<trkpt lat="43.0466150000" lon="0.1365700000"><ele>941</ele><time>2026-03-18T10:03:40Z</time></trkpt>
<trkpt lat="43.0465970000" lon="0.1365750000"><ele>941</ele><time>2026-03-18T10:03:44Z</time></trkpt>
<trkpt lat="43.0465820000" lon="0.1366020000"><ele>942</ele><time>2026-03-18T10:03:53Z</time></trkpt>
<trkpt lat="43.0465700000" lon="0.1366270000"><ele>942</ele><time>2026-03-18T10:04:00Z</time></trkpt>
<trkpt lat="43.0465620000" lon="0.1366620000"><ele>942</ele><time>2026-03-18T10:04:02Z</time></trkpt>
<trkpt lat="43.0465470000" lon="0.1366920000"><ele>943</ele><time>2026-03-18T10:04:04Z</time></trkpt>
<trkpt lat="43.0465250000" lon="0.1367020000"><ele>943</ele><time>2026-03-18T10:04:06Z</time></trkpt>
<trkpt lat="43.0465020000" lon="0.1366970000"><ele>943</ele><time>2026-03-18T10:04:09Z</time></trkpt>
<trkpt lat="43.0464820000" lon="0.1366870000"><ele>943</ele><time>2026-03-18T10:04:12Z</time></trkpt>
<trkpt lat="43.0464620000" lon="0.1366870000"><ele>944</ele><time>2026-03-18T10:04:15Z</time></trkpt>
<trkpt lat="43.0464450000" lon="0.1366850000"><ele>944</ele><time>2026-03-18T10:04:19Z</time></trkpt>
<trkpt lat="43.0464250000" lon="0.1366950000"><ele>945</ele><time>2026-03-18T10:04:23Z</time></trkpt>
<trkpt lat="43.0464100000" lon="0.1367150000"><ele>945</ele><time>2026-03-18T10:04:28Z</time></trkpt>
<trkpt lat="43.0463870000" lon="0.1367050000"><ele>946</ele><time>2026-03-18T10:04:32Z</time></trkpt>
<trkpt lat="43.0463720000" lon="0.1367250000"><ele>946</ele><time>2026-03-18T10:04:36Z</time></trkpt>
<trkpt lat="43.0463520000" lon="0.1367320000"><ele>946</ele><time>2026-03-18T10:04:40Z</time></trkpt>
<trkpt lat="43.0463320000" lon="0.1367380000"><ele>947</ele><time>2026-03-18T10:04:44Z</time></trkpt>
<trkpt lat="43.0463200000" lon="0.1367570000"><ele>947</ele><time>2026-03-18T10:04:46Z</time></trkpt>
<trkpt lat="43.0462970000" lon="0.1367580000"><ele>948</ele><time>2026-03-18T10:04:50Z</time></trkpt>
<trkpt lat="43.0462770000" lon="0.1367470000"><ele>948</ele><time>2026-03-18T10:04:53Z</time></trkpt>
<trkpt lat="43.0462600000" lon="0.1367450000"><ele>948</ele><time>2026-03-18T10:04:56Z</time></trkpt>
<trkpt lat="43.0462420000" lon="0.1367570000"><ele>949</ele><time>2026-03-18T10:04:58Z</time></trkpt>
<trkpt lat="43.0462270000" lon="0.1367700000"><ele>949</ele><time>2026-03-18T10:05:00Z</time></trkpt>
<trkpt lat="43.0462070000" lon="0.1367770000"><ele>949</ele><time>2026-03-18T10:05:03Z</time></trkpt>
<trkpt lat="43.0461850000" lon="0.1367870000"><ele>950</ele><time>2026-03-18T10:05:07Z</time></trkpt>
<trkpt lat="43.0461650000" lon="0.1368070000"><ele>950</ele><time>2026-03-18T10:05:11Z</time></trkpt>
<trkpt lat="43.0461450000" lon="0.1368020000"><ele>950</ele><time>2026-03-18T10:05:15Z</time></trkpt>
<trkpt lat="43.0461350000" lon="0.1367770000"><ele>951</ele><time>2026-03-18T10:05:18Z</time></trkpt>
<trkpt lat="43.0461150000" lon="0.1367870000"><ele>951</ele><time>2026-03-18T10:05:25Z</time></trkpt>
<trkpt lat="43.0460970000" lon="0.1368070000"><ele>952</ele><time>2026-03-18T10:05:28Z</time></trkpt>
<trkpt lat="43.0460800000" lon="0.1368270000"><ele>952</ele><time>2026-03-18T10:05:30Z</time></trkpt>
<trkpt lat="43.0460620000" lon="0.1368370000"><ele>952</ele><time>2026-03-18T10:05:32Z</time></trkpt>
<trkpt lat="43.0460420000" lon="0.1368500000"><ele>952</ele><time>2026-03-18T10:05:35Z</time></trkpt>
<trkpt lat="43.0460220000" lon="0.1368620000"><ele>953</ele><time>2026-03-18T10:05:38Z</time></trkpt>
<trkpt lat="43.0460000000" lon="0.1368630000"><ele>953</ele><time>2026-03-18T10:05:43Z</time></trkpt>
<trkpt lat="43.0459820000" lon="0.1368620000"><ele>954</ele><time>2026-03-18T10:05:46Z</time></trkpt>
<trkpt lat="43.0459620000" lon="0.1368550000"><ele>954</ele><time>2026-03-18T10:05:50Z</time></trkpt>
<trkpt lat="43.0459420000" lon="0.1368520000"><ele>954</ele><time>2026-03-18T10:05:53Z</time></trkpt>
<trkpt lat="43.0459200000" lon="0.1368620000"><ele>954</ele><time>2026-03-18T10:05:56Z</time></trkpt>
<trkpt lat="43.0459020000" lon="0.1368720000"><ele>955</ele><time>2026-03-18T10:05:59Z</time></trkpt>
<trkpt lat="43.0458830000" lon="0.1368820000"><ele>955</ele><time>2026-03-18T10:06:02Z</time></trkpt>
<trkpt lat="43.0458670000" lon="0.1368770000"><ele>955</ele><time>2026-03-18T10:06:05Z</time></trkpt>
<trkpt lat="43.0458470000" lon="0.1368870000"><ele>956</ele><time>2026-03-18T10:06:10Z</time></trkpt>
<trkpt lat="43.0458270000" lon="0.1368970000"><ele>956</ele><time>2026-03-18T10:06:14Z</time></trkpt>
<trkpt lat="43.0458070000" lon="0.1368970000"><ele>956</ele><time>2026-03-18T10:06:18Z</time></trkpt>
<trkpt lat="43.0457870000" lon="0.1369120000"><ele>956</ele><time>2026-03-18T10:06:22Z</time></trkpt>
<trkpt lat="43.0457670000" lon="0.1369220000"><ele>957</ele><time>2026-03-18T10:06:26Z</time></trkpt>
<trkpt lat="43.0457430000" lon="0.1369070000"><ele>957</ele><time>2026-03-18T10:06:30Z</time></trkpt>
<trkpt lat="43.0457320000" lon="0.1368870000"><ele>957</ele><time>2026-03-18T10:06:34Z</time></trkpt>
<trkpt lat="43.0457070000" lon="0.1369070000"><ele>958</ele><time>2026-03-18T10:06:38Z</time></trkpt>
<trkpt lat="43.0456850000" lon="0.1369270000"><ele>958</ele><time>2026-03-18T10:06:40Z</time></trkpt>
<trkpt lat="43.0456620000" lon="0.1369420000"><ele>958</ele><time>2026-03-18T10:06:42Z</time></trkpt>
<trkpt lat="43.0456470000" lon="0.1369570000"><ele>958</ele><time>2026-03-18T10:06:44Z</time></trkpt>
<trkpt lat="43.0456300000" lon="0.1369700000"><ele>959</ele><time>2026-03-18T10:06:47Z</time></trkpt>
<trkpt lat="43.0456100000" lon="0.1369700000"><ele>959</ele><time>2026-03-18T10:06:51Z</time></trkpt>
<trkpt lat="43.0455850000" lon="0.1369720000"><ele>959</ele><time>2026-03-18T10:06:54Z</time></trkpt>
<trkpt lat="43.0455620000" lon="0.1369670000"><ele>960</ele><time>2026-03-18T10:06:58Z</time></trkpt>
<trkpt lat="43.0455470000" lon="0.1369520000"><ele>960</ele><time>2026-03-18T10:07:02Z</time></trkpt>
<trkpt lat="43.0455300000" lon="0.1369400000"><ele>960</ele><time>2026-03-18T10:07:05Z</time></trkpt>
<trkpt lat="43.0455100000" lon="0.1369320000"><ele>961</ele><time>2026-03-18T10:07:08Z</time></trkpt>
<trkpt lat="43.0454870000" lon="0.1369320000"><ele>961</ele><time>2026-03-18T10:07:11Z</time></trkpt>
<trkpt lat="43.0454650000" lon="0.1369300000"><ele>961</ele><time>2026-03-18T10:07:14Z</time></trkpt>
<trkpt lat="43.0454450000" lon="0.1369230000"><ele>962</ele><time>2026-03-18T10:07:18Z</time></trkpt>
<trkpt lat="43.0454220000" lon="0.1369230000"><ele>962</ele><time>2026-03-18T10:07:22Z</time></trkpt>
<trkpt lat="43.0454050000" lon="0.1369230000"><ele>962</ele><time>2026-03-18T10:07:25Z</time></trkpt>
<trkpt lat="43.0453820000" lon="0.1369220000"><ele>963</ele><time>2026-03-18T10:07:29Z</time></trkpt>
<trkpt lat="43.0453620000" lon="0.1369350000"><ele>963</ele><time>2026-03-18T10:07:32Z</time></trkpt>
<trkpt lat="43.0453420000" lon="0.1369420000"><ele>963</ele><time>2026-03-18T10:07:35Z</time></trkpt>
<trkpt lat="43.0453170000" lon="0.1369420000"><ele>964</ele><time>2026-03-18T10:07:38Z</time></trkpt>
<trkpt lat="43.0452950000" lon="0.1369270000"><ele>964</ele><time>2026-03-18T10:07:42Z</time></trkpt>
<trkpt lat="43.0452750000" lon="0.1369120000"><ele>964</ele><time>2026-03-18T10:07:46Z</time></trkpt>
<trkpt lat="43.0452570000" lon="0.1369050000"><ele>965</ele><time>2026-03-18T10:07:50Z</time></trkpt>
<trkpt lat="43.0452500000" lon="0.1369300000"><ele>965</ele><time>2026-03-18T10:07:52Z</time></trkpt>
<trkpt lat="43.0452420000" lon="0.1369520000"><ele>966</ele><time>2026-03-18T10:07:55Z</time></trkpt>
<trkpt lat="43.0452250000" lon="0.1369470000"><ele>966</ele><time>2026-03-18T10:07:58Z</time></trkpt>
<trkpt lat="43.0452070000" lon="0.1369450000"><ele>966</ele><time>2026-03-18T10:08:01Z</time></trkpt>
<trkpt lat="43.0451820000" lon="0.1369420000"><ele>967</ele><time>2026-03-18T10:08:04Z</time></trkpt>
<trkpt lat="43.0451620000" lon="0.1369450000"><ele>967</ele><time>2026-03-18T10:08:07Z</time></trkpt>
<trkpt lat="43.0451400000" lon="0.1369470000"><ele>968</ele><time>2026-03-18T10:08:10Z</time></trkpt>
<trkpt lat="43.0451170000" lon="0.1369470000"><ele>968</ele><time>2026-03-18T10:08:13Z</time></trkpt>
<trkpt lat="43.0450920000" lon="0.1369450000"><ele>968</ele><time>2026-03-18T10:08:17Z</time></trkpt>
<trkpt lat="43.0450720000" lon="0.1369500000"><ele>968</ele><time>2026-03-18T10:08:20Z</time></trkpt>
<trkpt lat="43.0450530000" lon="0.1369520000"><ele>968</ele><time>2026-03-18T10:08:23Z</time></trkpt>
<trkpt lat="43.0450370000" lon="0.1369570000"><ele>968</ele><time>2026-03-18T10:08:26Z</time></trkpt>
<trkpt lat="43.0450170000" lon="0.1369670000"><ele>968</ele><time>2026-03-18T10:08:29Z</time></trkpt>
<trkpt lat="43.0450020000" lon="0.1369770000"><ele>969</ele><time>2026-03-18T10:08:33Z</time></trkpt>
<trkpt lat="43.0449820000" lon="0.1369900000"><ele>969</ele><time>2026-03-18T10:08:36Z</time></trkpt>
<trkpt lat="43.0449650000" lon="0.1370020000"><ele>969</ele><time>2026-03-18T10:08:39Z</time></trkpt>
<trkpt lat="43.0449470000" lon="0.1370170000"><ele>969</ele><time>2026-03-18T10:08:42Z</time></trkpt>
<trkpt lat="43.0449270000" lon="0.1370380000"><ele>970</ele><time>2026-03-18T10:08:46Z</time></trkpt>
<trkpt lat="43.0449070000" lon="0.1370520000"><ele>970</ele><time>2026-03-18T10:08:49Z</time></trkpt>
<trkpt lat="43.0448870000" lon="0.1370670000"><ele>970</ele><time>2026-03-18T10:08:53Z</time></trkpt>
<trkpt lat="43.0448670000" lon="0.1370670000"><ele>971</ele><time>2026-03-18T10:08:57Z</time></trkpt>
<trkpt lat="43.0448470000" lon="0.1370820000"><ele>971</ele><time>2026-03-18T10:09:00Z</time></trkpt>
<trkpt lat="43.0448270000" lon="0.1370900000"><ele>971</ele><time>2026-03-18T10:09:03Z</time></trkpt>
<trkpt lat="43.0448120000" lon="0.1371170000"><ele>972</ele><time>2026-03-18T10:09:06Z</time></trkpt>
<trkpt lat="43.0447970000" lon="0.1371370000"><ele>972</ele><time>2026-03-18T10:09:09Z</time></trkpt>
<trkpt lat="43.0447900000" lon="0.1371600000"><ele>972</ele><time>2026-03-18T10:09:15Z</time></trkpt>
<trkpt lat="43.0447820000" lon="0.1371970000"><ele>973</ele><time>2026-03-18T10:09:18Z</time></trkpt>
<trkpt lat="43.0447720000" lon="0.1372270000"><ele>973</ele><time>2026-03-18T10:09:20Z</time></trkpt>
<trkpt lat="43.0447570000" lon="0.1372470000"><ele>973</ele><time>2026-03-18T10:09:23Z</time></trkpt>
<trkpt lat="43.0447520000" lon="0.1372720000"><ele>973</ele><time>2026-03-18T10:09:28Z</time></trkpt>
<trkpt lat="43.0447470000" lon="0.1372400000"><ele>973</ele><time>2026-03-18T10:10:23Z</time></trkpt>
<trkpt lat="43.0447420000" lon="0.1372120000"><ele>973</ele><time>2026-03-18T10:10:27Z</time></trkpt>
<trkpt lat="43.0447420000" lon="0.1372520000"><ele>973</ele><time>2026-03-18T10:10:31Z</time></trkpt>
<trkpt lat="43.0447350000" lon="0.1372870000"><ele>973</ele><time>2026-03-18T10:10:33Z</time></trkpt>
<trkpt lat="43.0447270000" lon="0.1373200000"><ele>973</ele><time>2026-03-18T10:10:35Z</time></trkpt>
<trkpt lat="43.0447170000" lon="0.1373420000"><ele>974</ele><time>2026-03-18T10:10:38Z</time></trkpt>
<trkpt lat="43.0447020000" lon="0.1373630000"><ele>974</ele><time>2026-03-18T10:10:43Z</time></trkpt>
<trkpt lat="43.0446920000" lon="0.1373870000"><ele>974</ele><time>2026-03-18T10:10:45Z</time></trkpt>
<trkpt lat="43.0446800000" lon="0.1374070000"><ele>975</ele><time>2026-03-18T10:10:47Z</time></trkpt>
<trkpt lat="43.0446700000" lon="0.1374270000"><ele>975</ele><time>2026-03-18T10:10:49Z</time></trkpt>
<trkpt lat="43.0446520000" lon="0.1374570000"><ele>975</ele><time>2026-03-18T10:10:52Z</time></trkpt>
<trkpt lat="43.0446450000" lon="0.1374820000"><ele>976</ele><time>2026-03-18T10:10:55Z</time></trkpt>
<trkpt lat="43.0446320000" lon="0.1375150000"><ele>976</ele><time>2026-03-18T10:10:58Z</time></trkpt>
<trkpt lat="43.0446120000" lon="0.1375400000"><ele>977</ele><time>2026-03-18T10:11:01Z</time></trkpt>
<trkpt lat="43.0446020000" lon="0.1375620000"><ele>977</ele><time>2026-03-18T10:11:03Z</time></trkpt>
<trkpt lat="43.0445900000" lon="0.1375850000"><ele>977</ele><time>2026-03-18T10:11:05Z</time></trkpt>
<trkpt lat="43.0445750000" lon="0.1376020000"><ele>977</ele><time>2026-03-18T10:11:07Z</time></trkpt>
<trkpt lat="43.0445620000" lon="0.1376220000"><ele>978</ele><time>2026-03-18T10:11:09Z</time></trkpt>
<trkpt lat="43.0445550000" lon="0.1376470000"><ele>978</ele><time>2026-03-18T10:11:11Z</time></trkpt>
<trkpt lat="43.0445470000" lon="0.1376700000"><ele>978</ele><time>2026-03-18T10:11:13Z</time></trkpt>
<trkpt lat="43.0445420000" lon="0.1376920000"><ele>979</ele><time>2026-03-18T10:11:15Z</time></trkpt>
<trkpt lat="43.0445270000" lon="0.1377220000"><ele>979</ele><time>2026-03-18T10:11:18Z</time></trkpt>
<trkpt lat="43.0445120000" lon="0.1377530000"><ele>979</ele><time>2026-03-18T10:11:21Z</time></trkpt>
<trkpt lat="43.0445020000" lon="0.1377820000"><ele>980</ele><time>2026-03-18T10:11:24Z</time></trkpt>
<trkpt lat="43.0444950000" lon="0.1378150000"><ele>980</ele><time>2026-03-18T10:11:27Z</time></trkpt>
<trkpt lat="43.0444820000" lon="0.1378430000"><ele>980</ele><time>2026-03-18T10:11:30Z</time></trkpt>
<trkpt lat="43.0444700000" lon="0.1378680000"><ele>981</ele><time>2026-03-18T10:11:35Z</time></trkpt>
<trkpt lat="43.0444550000" lon="0.1378920000"><ele>981</ele><time>2026-03-18T10:11:39Z</time></trkpt>
<trkpt lat="43.0444450000" lon="0.1379270000"><ele>982</ele><time>2026-03-18T10:11:42Z</time></trkpt>
<trkpt lat="43.0444370000" lon="0.1379570000"><ele>982</ele><time>2026-03-18T10:11:44Z</time></trkpt>
<trkpt lat="43.0444250000" lon="0.1379950000"><ele>982</ele><time>2026-03-18T10:11:47Z</time></trkpt>
<trkpt lat="43.0444120000" lon="0.1380250000"><ele>983</ele><time>2026-03-18T10:11:50Z</time></trkpt>
<trkpt lat="43.0443950000" lon="0.1380370000"><ele>983</ele><time>2026-03-18T10:11:53Z</time></trkpt>
<trkpt lat="43.0443780000" lon="0.1380620000"><ele>984</ele><time>2026-03-18T10:11:57Z</time></trkpt>
<trkpt lat="43.0443720000" lon="0.1380900000"><ele>984</ele><time>2026-03-18T10:12:00Z</time></trkpt>
<trkpt lat="43.0443600000" lon="0.1381170000"><ele>984</ele><time>2026-03-18T10:12:04Z</time></trkpt>
<trkpt lat="43.0443520000" lon="0.1381420000"><ele>985</ele><time>2026-03-18T10:12:07Z</time></trkpt>
<trkpt lat="43.0443370000" lon="0.1381670000"><ele>985</ele><time>2026-03-18T10:12:11Z</time></trkpt>
<trkpt lat="43.0443200000" lon="0.1381900000"><ele>986</ele><time>2026-03-18T10:12:15Z</time></trkpt>
<trkpt lat="43.0443070000" lon="0.1382200000"><ele>986</ele><time>2026-03-18T10:12:19Z</time></trkpt>
<trkpt lat="43.0442970000" lon="0.1382450000"><ele>986</ele><time>2026-03-18T10:12:22Z</time></trkpt>
<trkpt lat="43.0442800000" lon="0.1382720000"><ele>987</ele><time>2026-03-18T10:12:25Z</time></trkpt>
<trkpt lat="43.0442670000" lon="0.1382970000"><ele>987</ele><time>2026-03-18T10:12:28Z</time></trkpt>
<trkpt lat="43.0442520000" lon="0.1383220000"><ele>987</ele><time>2026-03-18T10:12:31Z</time></trkpt>
<trkpt lat="43.0442400000" lon="0.1383420000"><ele>988</ele><time>2026-03-18T10:12:35Z</time></trkpt>
<trkpt lat="43.0442300000" lon="0.1383720000"><ele>988</ele><time>2026-03-18T10:12:39Z</time></trkpt>
<trkpt lat="43.0442170000" lon="0.1383970000"><ele>989</ele><time>2026-03-18T10:12:43Z</time></trkpt>
<trkpt lat="43.0442000000" lon="0.1384120000"><ele>989</ele><time>2026-03-18T10:12:47Z</time></trkpt>
<trkpt lat="43.0441870000" lon="0.1384350000"><ele>990</ele><time>2026-03-18T10:12:51Z</time></trkpt>
<trkpt lat="43.0441750000" lon="0.1384720000"><ele>990</ele><time>2026-03-18T10:12:54Z</time></trkpt>
<trkpt lat="43.0441720000" lon="0.1385070000"><ele>990</ele><time>2026-03-18T10:12:56Z</time></trkpt>
<trkpt lat="43.0441620000" lon="0.1385370000"><ele>991</ele><time>2026-03-18T10:12:59Z</time></trkpt>
<trkpt lat="43.0441550000" lon="0.1385620000"><ele>991</ele><time>2026-03-18T10:13:02Z</time></trkpt>
<trkpt lat="43.0441400000" lon="0.1385880000"><ele>991</ele><time>2026-03-18T10:13:06Z</time></trkpt>
<trkpt lat="43.0441250000" lon="0.1386170000"><ele>992</ele><time>2026-03-18T10:13:10Z</time></trkpt>
<trkpt lat="43.0441100000" lon="0.1386420000"><ele>992</ele><time>2026-03-18T10:13:13Z</time></trkpt>
<trkpt lat="43.0440950000" lon="0.1386620000"><ele>992</ele><time>2026-03-18T10:13:16Z</time></trkpt>
<trkpt lat="43.0440800000" lon="0.1386870000"><ele>993</ele><time>2026-03-18T10:13:19Z</time></trkpt>
<trkpt lat="43.0440680000" lon="0.1387150000"><ele>993</ele><time>2026-03-18T10:13:22Z</time></trkpt>
<trkpt lat="43.0440550000" lon="0.1387400000"><ele>993</ele><time>2026-03-18T10:13:25Z</time></trkpt>
<trkpt lat="43.0440420000" lon="0.1387650000"><ele>994</ele><time>2026-03-18T10:13:28Z</time></trkpt>
<trkpt lat="43.0440270000" lon="0.1387870000"><ele>994</ele><time>2026-03-18T10:13:31Z</time></trkpt>
<trkpt lat="43.0440150000" lon="0.1388080000"><ele>994</ele><time>2026-03-18T10:13:34Z</time></trkpt>
<trkpt lat="43.0440020000" lon="0.1388330000"><ele>995</ele><time>2026-03-18T10:13:37Z</time></trkpt>
<trkpt lat="43.0439820000" lon="0.1388570000"><ele>995</ele><time>2026-03-18T10:13:40Z</time></trkpt>
<trkpt lat="43.0439650000" lon="0.1388850000"><ele>995</ele><time>2026-03-18T10:13:43Z</time></trkpt>
<trkpt lat="43.0439500000" lon="0.1389100000"><ele>995</ele><time>2026-03-18T10:13:46Z</time></trkpt>
<trkpt lat="43.0439370000" lon="0.1389320000"><ele>996</ele><time>2026-03-18T10:13:49Z</time></trkpt>
<trkpt lat="43.0439270000" lon="0.1389520000"><ele>996</ele><time>2026-03-18T10:13:52Z</time></trkpt>
<trkpt lat="43.0439120000" lon="0.1389670000"><ele>996</ele><time>2026-03-18T10:13:54Z</time></trkpt>
<trkpt lat="43.0438970000" lon="0.1389820000"><ele>997</ele><time>2026-03-18T10:13:57Z</time></trkpt>
<trkpt lat="43.0438770000" lon="0.1389920000"><ele>997</ele><time>2026-03-18T10:14:00Z</time></trkpt>
<trkpt lat="43.0438570000" lon="0.1389950000"><ele>997</ele><time>2026-03-18T10:14:04Z</time></trkpt>
<trkpt lat="43.0438350000" lon="0.1390070000"><ele>998</ele><time>2026-03-18T10:14:08Z</time></trkpt>
<trkpt lat="43.0438220000" lon="0.1390370000"><ele>998</ele><time>2026-03-18T10:14:10Z</time></trkpt>
<trkpt lat="43.0438070000" lon="0.1390520000"><ele>998</ele><time>2026-03-18T10:14:12Z</time></trkpt>
<trkpt lat="43.0437970000" lon="0.1390750000"><ele>999</ele><time>2026-03-18T10:14:14Z</time></trkpt>
<trkpt lat="43.0437770000" lon="0.1390920000"><ele>999</ele><time>2026-03-18T10:14:17Z</time></trkpt>
<trkpt lat="43.0437670000" lon="0.1391170000"><ele>999</ele><time>2026-03-18T10:14:19Z</time></trkpt>
<trkpt lat="43.0437600000" lon="0.1391420000"><ele>999</ele><time>2026-03-18T10:14:20Z</time></trkpt>
<trkpt lat="43.0437520000" lon="0.1391670000"><ele>1000</ele><time>2026-03-18T10:14:22Z</time></trkpt>
<trkpt lat="43.0437420000" lon="0.1391900000"><ele>1000</ele><time>2026-03-18T10:14:24Z</time></trkpt>
<trkpt lat="43.0437220000" lon="0.1392100000"><ele>1000</ele><time>2026-03-18T10:14:26Z</time></trkpt>
<trkpt lat="43.0437020000" lon="0.1392170000"><ele>1000</ele><time>2026-03-18T10:14:29Z</time></trkpt>
<trkpt lat="43.0436870000" lon="0.1392370000"><ele>1001</ele><time>2026-03-18T10:14:32Z</time></trkpt>
<trkpt lat="43.0436670000" lon="0.1392530000"><ele>1001</ele><time>2026-03-18T10:14:36Z</time></trkpt>
<trkpt lat="43.0436420000" lon="0.1392670000"><ele>1001</ele><time>2026-03-18T10:14:40Z</time></trkpt>
<trkpt lat="43.0436220000" lon="0.1392770000"><ele>1002</ele><time>2026-03-18T10:14:43Z</time></trkpt>
<trkpt lat="43.0435970000" lon="0.1392900000"><ele>1002</ele><time>2026-03-18T10:14:47Z</time></trkpt>
<trkpt lat="43.0435820000" lon="0.1393070000"><ele>1003</ele><time>2026-03-18T10:14:50Z</time></trkpt>
<trkpt lat="43.0435600000" lon="0.1393170000"><ele>1003</ele><time>2026-03-18T10:14:53Z</time></trkpt>
<trkpt lat="43.0435420000" lon="0.1393350000"><ele>1003</ele><time>2026-03-18T10:14:56Z</time></trkpt>
<trkpt lat="43.0435250000" lon="0.1393470000"><ele>1003</ele><time>2026-03-18T10:14:59Z</time></trkpt>
<trkpt lat="43.0435070000" lon="0.1393600000"><ele>1003</ele><time>2026-03-18T10:15:01Z</time></trkpt>
<trkpt lat="43.0434870000" lon="0.1393670000"><ele>1003</ele><time>2026-03-18T10:15:03Z</time></trkpt>
<trkpt lat="43.0434670000" lon="0.1393720000"><ele>1004</ele><time>2026-03-18T10:15:05Z</time></trkpt>
<trkpt lat="43.0434420000" lon="0.1393630000"><ele>1004</ele><time>2026-03-18T10:15:08Z</time></trkpt>
<trkpt lat="43.0434200000" lon="0.1393630000"><ele>1004</ele><time>2026-03-18T10:15:12Z</time></trkpt>
<trkpt lat="43.0433970000" lon="0.1393680000"><ele>1005</ele><time>2026-03-18T10:15:15Z</time></trkpt>
<trkpt lat="43.0433720000" lon="0.1393630000"><ele>1005</ele><time>2026-03-18T10:15:20Z</time></trkpt>
<trkpt lat="43.0433550000" lon="0.1393670000"><ele>1005</ele><time>2026-03-18T10:15:22Z</time></trkpt>
<trkpt lat="43.0433370000" lon="0.1393730000"><ele>1005</ele><time>2026-03-18T10:15:24Z</time></trkpt>
<trkpt lat="43.0433170000" lon="0.1393670000"><ele>1005</ele><time>2026-03-18T10:15:26Z</time></trkpt>
<trkpt lat="43.0432970000" lon="0.1393550000"><ele>1005</ele><time>2026-03-18T10:15:28Z</time></trkpt>
<trkpt lat="43.0432770000" lon="0.1393420000"><ele>1006</ele><time>2026-03-18T10:15:31Z</time></trkpt>
<trkpt lat="43.0432550000" lon="0.1393450000"><ele>1006</ele><time>2026-03-18T10:15:35Z</time></trkpt>
<trkpt lat="43.0432370000" lon="0.1393620000"><ele>1006</ele><time>2026-03-18T10:15:37Z</time></trkpt>
<trkpt lat="43.0432200000" lon="0.1393720000"><ele>1007</ele><time>2026-03-18T10:15:40Z</time></trkpt>
<trkpt lat="43.0432000000" lon="0.1393920000"><ele>1007</ele><time>2026-03-18T10:15:44Z</time></trkpt>
<trkpt lat="43.0431800000" lon="0.1394150000"><ele>1008</ele><time>2026-03-18T10:15:47Z</time></trkpt>
<trkpt lat="43.0431700000" lon="0.1394370000"><ele>1008</ele><time>2026-03-18T10:15:50Z</time></trkpt>
<trkpt lat="43.0431520000" lon="0.1394520000"><ele>1009</ele><time>2026-03-18T10:15:56Z</time></trkpt>
<trkpt lat="43.0431320000" lon="0.1394570000"><ele>1009</ele><time>2026-03-18T10:15:58Z</time></trkpt>
<trkpt lat="43.0431120000" lon="0.1394770000"><ele>1009</ele><time>2026-03-18T10:16:00Z</time></trkpt>
<trkpt lat="43.0430970000" lon="0.1394920000"><ele>1009</ele><time>2026-03-18T10:16:02Z</time></trkpt>
<trkpt lat="43.0430750000" lon="0.1395080000"><ele>1009</ele><time>2026-03-18T10:16:05Z</time></trkpt>
<trkpt lat="43.0430570000" lon="0.1395250000"><ele>1010</ele><time>2026-03-18T10:16:08Z</time></trkpt>
<trkpt lat="43.0430320000" lon="0.1395280000"><ele>1010</ele><time>2026-03-18T10:16:12Z</time></trkpt>
<trkpt lat="43.0430120000" lon="0.1395580000"><ele>1010</ele><time>2026-03-18T10:16:15Z</time></trkpt>
<trkpt lat="43.0429950000" lon="0.1395900000"><ele>1010</ele><time>2026-03-18T10:16:17Z</time></trkpt>
<trkpt lat="43.0429820000" lon="0.1396200000"><ele>1011</ele><time>2026-03-18T10:16:22Z</time></trkpt>
<trkpt lat="43.0429720000" lon="0.1396420000"><ele>1011</ele><time>2026-03-18T10:16:24Z</time></trkpt>
<trkpt lat="43.0429650000" lon="0.1396720000"><ele>1011</ele><time>2026-03-18T10:16:27Z</time></trkpt>
<trkpt lat="43.0429670000" lon="0.1397020000"><ele>1012</ele><time>2026-03-18T10:16:30Z</time></trkpt>
<trkpt lat="43.0429370000" lon="0.1397200000"><ele>1012</ele><time>2026-03-18T10:16:33Z</time></trkpt>
<trkpt lat="43.0429200000" lon="0.1397300000"><ele>1012</ele><time>2026-03-18T10:16:35Z</time></trkpt>
<trkpt lat="43.0429020000" lon="0.1397420000"><ele>1013</ele><time>2026-03-18T10:16:42Z</time></trkpt>
<trkpt lat="43.0428870000" lon="0.1397600000"><ele>1013</ele><time>2026-03-18T10:16:43Z</time></trkpt>
<trkpt lat="43.0428720000" lon="0.1397820000"><ele>1013</ele><time>2026-03-18T10:16:44Z</time></trkpt>
<trkpt lat="43.0428620000" lon="0.1398020000"><ele>1013</ele><time>2026-03-18T10:16:45Z</time></trkpt>
<trkpt lat="43.0428370000" lon="0.1398250000"><ele>1013</ele><time>2026-03-18T10:16:47Z</time></trkpt>
<trkpt lat="43.0428270000" lon="0.1398520000"><ele>1013</ele><time>2026-03-18T10:16:49Z</time></trkpt>
<trkpt lat="43.0428300000" lon="0.1399020000"><ele>1014</ele><time>2026-03-18T10:16:51Z</time></trkpt>
<trkpt lat="43.0428120000" lon="0.1399220000"><ele>1014</ele><time>2026-03-18T10:16:53Z</time></trkpt>
<trkpt lat="43.0427850000" lon="0.1399370000"><ele>1014</ele><time>2026-03-18T10:16:55Z</time></trkpt>
<trkpt lat="43.0427570000" lon="0.1399420000"><ele>1014</ele><time>2026-03-18T10:16:58Z</time></trkpt>
<trkpt lat="43.0427400000" lon="0.1399420000"><ele>1015</ele><time>2026-03-18T10:16:59Z</time></trkpt>
<trkpt lat="43.0427220000" lon="0.1399320000"><ele>1015</ele><time>2026-03-18T10:17:01Z</time></trkpt>
<trkpt lat="43.0427070000" lon="0.1399520000"><ele>1015</ele><time>2026-03-18T10:17:05Z</time></trkpt>
<trkpt lat="43.0426950000" lon="0.1399770000"><ele>1015</ele><time>2026-03-18T10:17:07Z</time></trkpt>
<trkpt lat="43.0426850000" lon="0.1400000000"><ele>1016</ele><time>2026-03-18T10:17:09Z</time></trkpt>
<trkpt lat="43.0426770000" lon="0.1400250000"><ele>1016</ele><time>2026-03-18T10:17:11Z</time></trkpt>
<trkpt lat="43.0426720000" lon="0.1400470000"><ele>1016</ele><time>2026-03-18T10:17:13Z</time></trkpt>
<trkpt lat="43.0426650000" lon="0.1400720000"><ele>1016</ele><time>2026-03-18T10:17:14Z</time></trkpt>
<trkpt lat="43.0426420000" lon="0.1401000000"><ele>1017</ele><time>2026-03-18T10:17:17Z</time></trkpt>
<trkpt lat="43.0426270000" lon="0.1401250000"><ele>1017</ele><time>2026-03-18T10:17:21Z</time></trkpt>
<trkpt lat="43.0426070000" lon="0.1401520000"><ele>1017</ele><time>2026-03-18T10:17:24Z</time></trkpt>
<trkpt lat="43.0425920000" lon="0.1401670000"><ele>1018</ele><time>2026-03-18T10:17:27Z</time></trkpt>
<trkpt lat="43.0425870000" lon="0.1401980000"><ele>1018</ele><time>2026-03-18T10:17:30Z</time></trkpt>
<trkpt lat="43.0425720000" lon="0.1402170000"><ele>1018</ele><time>2026-03-18T10:17:32Z</time></trkpt>
<trkpt lat="43.0425520000" lon="0.1402350000"><ele>1018</ele><time>2026-03-18T10:17:34Z</time></trkpt>
<trkpt lat="43.0425350000" lon="0.1402370000"><ele>1019</ele><time>2026-03-18T10:17:36Z</time></trkpt>
<trkpt lat="43.0425220000" lon="0.1402530000"><ele>1019</ele><time>2026-03-18T10:17:39Z</time></trkpt>
<trkpt lat="43.0425100000" lon="0.1402770000"><ele>1019</ele><time>2026-03-18T10:17:42Z</time></trkpt>
<trkpt lat="43.0425020000" lon="0.1403070000"><ele>1020</ele><time>2026-03-18T10:17:50Z</time></trkpt>
<trkpt lat="43.0425120000" lon="0.1403330000"><ele>1020</ele><time>2026-03-18T10:18:05Z</time></trkpt>
<trkpt lat="43.0425270000" lon="0.1403570000"><ele>1021</ele><time>2026-03-18T10:18:09Z</time></trkpt>
<trkpt lat="43.0425420000" lon="0.1403720000"><ele>1021</ele><time>2026-03-18T10:18:12Z</time></trkpt>
<trkpt lat="43.0425250000" lon="0.1403800000"><ele>1022</ele><time>2026-03-18T10:18:29Z</time></trkpt>
<trkpt lat="43.0425050000" lon="0.1403880000"><ele>1022</ele><time>2026-03-18T10:18:30Z</time></trkpt>
<trkpt lat="43.0424820000" lon="0.1404020000"><ele>1022</ele><time>2026-03-18T10:18:31Z</time></trkpt>
<trkpt lat="43.0424620000" lon="0.1404150000"><ele>1022</ele><time>2026-03-18T10:18:32Z</time></trkpt>
<trkpt lat="43.0424370000" lon="0.1404350000"><ele>1022</ele><time>2026-03-18T10:18:34Z</time></trkpt>
<trkpt lat="43.0424200000" lon="0.1404670000"><ele>1023</ele><time>2026-03-18T10:18:37Z</time></trkpt>
<trkpt lat="43.0424020000" lon="0.1404780000"><ele>1023</ele><time>2026-03-18T10:18:39Z</time></trkpt>
<trkpt lat="43.0423800000" lon="0.1405070000"><ele>1023</ele><time>2026-03-18T10:18:42Z</time></trkpt>
<trkpt lat="43.0423600000" lon="0.1405250000"><ele>1023</ele><time>2026-03-18T10:18:44Z</time></trkpt>
<trkpt lat="43.0423420000" lon="0.1405370000"><ele>1023</ele><time>2026-03-18T10:18:46Z</time></trkpt>
<trkpt lat="43.0423270000" lon="0.1405600000"><ele>1024</ele><time>2026-03-18T10:18:48Z</time></trkpt>
<trkpt lat="43.0423170000" lon="0.1405870000"><ele>1024</ele><time>2026-03-18T10:18:50Z</time></trkpt>
<trkpt lat="43.0423170000" lon="0.1406120000"><ele>1024</ele><time>2026-03-18T10:18:52Z</time></trkpt>
<trkpt lat="43.0423070000" lon="0.1406420000"><ele>1024</ele><time>2026-03-18T10:18:54Z</time></trkpt>
<trkpt lat="43.0423000000" lon="0.1406720000"><ele>1025</ele><time>2026-03-18T10:18:57Z</time></trkpt>
<trkpt lat="43.0422820000" lon="0.1406870000"><ele>1025</ele><time>2026-03-18T10:18:59Z</time></trkpt>
<trkpt lat="43.0422670000" lon="0.1407070000"><ele>1025</ele><time>2026-03-18T10:19:02Z</time></trkpt>
<trkpt lat="43.0422520000" lon="0.1407270000"><ele>1025</ele><time>2026-03-18T10:19:04Z</time></trkpt>
<trkpt lat="43.0422370000" lon="0.1407470000"><ele>1026</ele><time>2026-03-18T10:19:06Z</time></trkpt>
<trkpt lat="43.0422170000" lon="0.1407480000"><ele>1026</ele><time>2026-03-18T10:19:08Z</time></trkpt>
<trkpt lat="43.0422020000" lon="0.1407670000"><ele>1026</ele><time>2026-03-18T10:19:13Z</time></trkpt>
<trkpt lat="43.0421970000" lon="0.1407920000"><ele>1026</ele><time>2026-03-18T10:19:15Z</time></trkpt>
<trkpt lat="43.0421820000" lon="0.1408250000"><ele>1027</ele><time>2026-03-18T10:19:18Z</time></trkpt>
<trkpt lat="43.0421670000" lon="0.1408400000"><ele>1027</ele><time>2026-03-18T10:19:20Z</time></trkpt>
<trkpt lat="43.0421500000" lon="0.1408670000"><ele>1027</ele><time>2026-03-18T10:19:23Z</time></trkpt>
<trkpt lat="43.0421350000" lon="0.1408920000"><ele>1028</ele><time>2026-03-18T10:19:26Z</time></trkpt>
<trkpt lat="43.0421220000" lon="0.1409220000"><ele>1028</ele><time>2026-03-18T10:19:29Z</time></trkpt>
<trkpt lat="43.0421070000" lon="0.1409480000"><ele>1028</ele><time>2026-03-18T10:19:32Z</time></trkpt>
<trkpt lat="43.0420900000" lon="0.1409620000"><ele>1029</ele><time>2026-03-18T10:19:34Z</time></trkpt>
<trkpt lat="43.0420720000" lon="0.1409820000"><ele>1029</ele><time>2026-03-18T10:19:37Z</time></trkpt>
<trkpt lat="43.0420620000" lon="0.1410070000"><ele>1029</ele><time>2026-03-18T10:19:40Z</time></trkpt>
<trkpt lat="43.0420420000" lon="0.1410270000"><ele>1030</ele><time>2026-03-18T10:19:43Z</time></trkpt>
<trkpt lat="43.0420250000" lon="0.1410420000"><ele>1030</ele><time>2026-03-18T10:19:46Z</time></trkpt>
<trkpt lat="43.0420150000" lon="0.1410720000"><ele>1030</ele><time>2026-03-18T10:19:49Z</time></trkpt>
<trkpt lat="43.0420070000" lon="0.1411020000"><ele>1031</ele><time>2026-03-18T10:19:51Z</time></trkpt>
<trkpt lat="43.0419870000" lon="0.1411220000"><ele>1031</ele><time>2026-03-18T10:19:55Z</time></trkpt>
<trkpt lat="43.0419670000" lon="0.1411320000"><ele>1031</ele><time>2026-03-18T10:19:58Z</time></trkpt>
<trkpt lat="43.0419470000" lon="0.1411520000"><ele>1031</ele><time>2026-03-18T10:20:00Z</time></trkpt>
<trkpt lat="43.0419320000" lon="0.1411770000"><ele>1032</ele><time>2026-03-18T10:20:03Z</time></trkpt>
<trkpt lat="43.0419200000" lon="0.1411930000"><ele>1032</ele><time>2026-03-18T10:20:06Z</time></trkpt>
<trkpt lat="43.0418970000" lon="0.1412070000"><ele>1032</ele><time>2026-03-18T10:20:09Z</time></trkpt>
<trkpt lat="43.0418730000" lon="0.1412220000"><ele>1033</ele><time>2026-03-18T10:20:12Z</time></trkpt>
<trkpt lat="43.0418570000" lon="0.1412300000"><ele>1034</ele><time>2026-03-18T10:20:21Z</time></trkpt>
<trkpt lat="43.0418270000" lon="0.1412450000"><ele>1034</ele><time>2026-03-18T10:20:23Z</time></trkpt>
<trkpt lat="43.0417970000" lon="0.1412670000"><ele>1034</ele><time>2026-03-18T10:20:25Z</time></trkpt>
<trkpt lat="43.0417800000" lon="0.1412970000"><ele>1034</ele><time>2026-03-18T10:20:27Z</time></trkpt>
<trkpt lat="43.0417700000" lon="0.1413180000"><ele>1034</ele><time>2026-03-18T10:20:29Z</time></trkpt>
<trkpt lat="43.0417470000" lon="0.1413420000"><ele>1035</ele><time>2026-03-18T10:20:32Z</time></trkpt>
<trkpt lat="43.0417270000" lon="0.1413670000"><ele>1035</ele><time>2026-03-18T10:20:35Z</time></trkpt>
<trkpt lat="43.0417100000" lon="0.1413770000"><ele>1035</ele><time>2026-03-18T10:20:37Z</time></trkpt>
<trkpt lat="43.0416920000" lon="0.1413900000"><ele>1035</ele><time>2026-03-18T10:20:39Z</time></trkpt>
<trkpt lat="43.0416770000" lon="0.1414170000"><ele>1036</ele><time>2026-03-18T10:20:43Z</time></trkpt>
<trkpt lat="43.0416700000" lon="0.1414420000"><ele>1036</ele><time>2026-03-18T10:20:45Z</time></trkpt>
<trkpt lat="43.0416470000" lon="0.1414570000"><ele>1037</ele><time>2026-03-18T10:20:51Z</time></trkpt>
<trkpt lat="43.0416270000" lon="0.1414720000"><ele>1037</ele><time>2026-03-18T10:20:53Z</time></trkpt>
<trkpt lat="43.0416050000" lon="0.1414850000"><ele>1037</ele><time>2026-03-18T10:20:55Z</time></trkpt>
<trkpt lat="43.0415850000" lon="0.1415100000"><ele>1038</ele><time>2026-03-18T10:20:58Z</time></trkpt>
<trkpt lat="43.0415670000" lon="0.1415250000"><ele>1038</ele><time>2026-03-18T10:21:00Z</time></trkpt>
<trkpt lat="43.0415470000" lon="0.1415400000"><ele>1038</ele><time>2026-03-18T10:21:03Z</time></trkpt>
<trkpt lat="43.0415270000" lon="0.1415570000"><ele>1038</ele><time>2026-03-18T10:21:05Z</time></trkpt>
<trkpt lat="43.0415070000" lon="0.1415920000"><ele>1039</ele><time>2026-03-18T10:21:08Z</time></trkpt>
<trkpt lat="43.0414920000" lon="0.1416020000"><ele>1039</ele><time>2026-03-18T10:21:10Z</time></trkpt>
<trkpt lat="43.0414670000" lon="0.1416130000"><ele>1039</ele><time>2026-03-18T10:21:12Z</time></trkpt>
<trkpt lat="43.0414500000" lon="0.1416300000"><ele>1039</ele><time>2026-03-18T10:21:15Z</time></trkpt>
<trkpt lat="43.0414350000" lon="0.1416500000"><ele>1039</ele><time>2026-03-18T10:21:18Z</time></trkpt>
<trkpt lat="43.0414150000" lon="0.1416620000"><ele>1040</ele><time>2026-03-18T10:21:22Z</time></trkpt>
<trkpt lat="43.0413920000" lon="0.1416720000"><ele>1040</ele><time>2026-03-18T10:21:25Z</time></trkpt>
<trkpt lat="43.0413770000" lon="0.1416820000"><ele>1041</ele><time>2026-03-18T10:21:27Z</time></trkpt>
<trkpt lat="43.0413570000" lon="0.1416870000"><ele>1041</ele><time>2026-03-18T10:21:31Z</time></trkpt>
<trkpt lat="43.0413370000" lon="0.1416970000"><ele>1041</ele><time>2026-03-18T10:21:34Z</time></trkpt>
<trkpt lat="43.0413170000" lon="0.1416920000"><ele>1041</ele><time>2026-03-18T10:21:36Z</time></trkpt>
<trkpt lat="43.0412920000" lon="0.1417020000"><ele>1042</ele><time>2026-03-18T10:21:38Z</time></trkpt>
<trkpt lat="43.0412820000" lon="0.1417470000"><ele>1042</ele><time>2026-03-18T10:21:40Z</time></trkpt>
<trkpt lat="43.0412770000" lon="0.1417770000"><ele>1042</ele><time>2026-03-18T10:21:41Z</time></trkpt>
<trkpt lat="43.0412670000" lon="0.1418120000"><ele>1042</ele><time>2026-03-18T10:21:43Z</time></trkpt>
<trkpt lat="43.0412550000" lon="0.1418320000"><ele>1042</ele><time>2026-03-18T10:21:45Z</time></trkpt>
<trkpt lat="43.0412350000" lon="0.1418420000"><ele>1042</ele><time>2026-03-18T10:21:47Z</time></trkpt>
<trkpt lat="43.0412170000" lon="0.1418400000"><ele>1043</ele><time>2026-03-18T10:21:51Z</time></trkpt>
<trkpt lat="43.0411920000" lon="0.1418470000"><ele>1043</ele><time>2026-03-18T10:21:53Z</time></trkpt>
<trkpt lat="43.0411720000" lon="0.1418500000"><ele>1043</ele><time>2026-03-18T10:21:56Z</time></trkpt>
<trkpt lat="43.0411620000" lon="0.1418770000"><ele>1044</ele><time>2026-03-18T10:22:00Z</time></trkpt>
<trkpt lat="43.0411470000" lon="0.1419020000"><ele>1044</ele><time>2026-03-18T10:22:04Z</time></trkpt>
<trkpt lat="43.0411220000" lon="0.1419270000"><ele>1044</ele><time>2026-03-18T10:22:07Z</time></trkpt>
<trkpt lat="43.0411020000" lon="0.1419350000"><ele>1045</ele><time>2026-03-18T10:22:09Z</time></trkpt>
<trkpt lat="43.0410820000" lon="0.1419520000"><ele>1045</ele><time>2026-03-18T10:22:12Z</time></trkpt>
<trkpt lat="43.0410670000" lon="0.1419620000"><ele>1045</ele><time>2026-03-18T10:22:14Z</time></trkpt>
<trkpt lat="43.0410520000" lon="0.1419800000"><ele>1045</ele><time>2026-03-18T10:22:16Z</time></trkpt>
<trkpt lat="43.0410270000" lon="0.1419950000"><ele>1046</ele><time>2026-03-18T10:22:18Z</time></trkpt>
<trkpt lat="43.0410070000" lon="0.1420120000"><ele>1046</ele><time>2026-03-18T10:22:20Z</time></trkpt>
<trkpt lat="43.0409950000" lon="0.1420280000"><ele>1046</ele><time>2026-03-18T10:22:22Z</time></trkpt>
<trkpt lat="43.0409770000" lon="0.1420470000"><ele>1046</ele><time>2026-03-18T10:22:24Z</time></trkpt>
<trkpt lat="43.0409620000" lon="0.1420670000"><ele>1047</ele><time>2026-03-18T10:22:27Z</time></trkpt>
<trkpt lat="43.0409420000" lon="0.1420820000"><ele>1047</ele><time>2026-03-18T10:22:30Z</time></trkpt>
<trkpt lat="43.0409270000" lon="0.1420950000"><ele>1047</ele><time>2026-03-18T10:22:33Z</time></trkpt>
<trkpt lat="43.0409070000" lon="0.1421020000"><ele>1048</ele><time>2026-03-18T10:22:36Z</time></trkpt>
<trkpt lat="43.0408870000" lon="0.1420900000"><ele>1048</ele><time>2026-03-18T10:22:40Z</time></trkpt>
<trkpt lat="43.0408670000" lon="0.1420920000"><ele>1049</ele><time>2026-03-18T10:22:45Z</time></trkpt>
<trkpt lat="43.0408420000" lon="0.1421000000"><ele>1049</ele><time>2026-03-18T10:22:48Z</time></trkpt>
<trkpt lat="43.0408270000" lon="0.1421170000"><ele>1049</ele><time>2026-03-18T10:22:51Z</time></trkpt>
<trkpt lat="43.0408170000" lon="0.1421420000"><ele>1050</ele><time>2026-03-18T10:22:53Z</time></trkpt>
<trkpt lat="43.0408050000" lon="0.1421770000"><ele>1050</ele><time>2026-03-18T10:22:56Z</time></trkpt>
<trkpt lat="43.0407770000" lon="0.1421930000"><ele>1050</ele><time>2026-03-18T10:22:59Z</time></trkpt>
<trkpt lat="43.0407520000" lon="0.1422050000"><ele>1051</ele><time>2026-03-18T10:23:01Z</time></trkpt>
<trkpt lat="43.0407270000" lon="0.1421920000"><ele>1051</ele><time>2026-03-18T10:23:04Z</time></trkpt>
<trkpt lat="43.0407220000" lon="0.1422170000"><ele>1051</ele><time>2026-03-18T10:23:06Z</time></trkpt>
<trkpt lat="43.0407070000" lon="0.1422370000"><ele>1052</ele><time>2026-03-18T10:23:09Z</time></trkpt>
<trkpt lat="43.0406920000" lon="0.1422600000"><ele>1052</ele><time>2026-03-18T10:23:12Z</time></trkpt>
<trkpt lat="43.0406870000" lon="0.1422820000"><ele>1052</ele><time>2026-03-18T10:23:14Z</time></trkpt>
<trkpt lat="43.0406750000" lon="0.1423030000"><ele>1052</ele><time>2026-03-18T10:23:16Z</time></trkpt>
<trkpt lat="43.0406720000" lon="0.1423300000"><ele>1052</ele><time>2026-03-18T10:23:19Z</time></trkpt>
<trkpt lat="43.0406620000" lon="0.1423620000"><ele>1053</ele><time>2026-03-18T10:23:22Z</time></trkpt>
<trkpt lat="43.0406620000" lon="0.1423900000"><ele>1053</ele><time>2026-03-18T10:23:24Z</time></trkpt>
<trkpt lat="43.0406500000" lon="0.1424220000"><ele>1053</ele><time>2026-03-18T10:23:27Z</time></trkpt>
<trkpt lat="43.0406350000" lon="0.1424400000"><ele>1053</ele><time>2026-03-18T10:23:29Z</time></trkpt>
<trkpt lat="43.0406150000" lon="0.1424570000"><ele>1053</ele><time>2026-03-18T10:23:31Z</time></trkpt>
<trkpt lat="43.0406050000" lon="0.1424870000"><ele>1054</ele><time>2026-03-18T10:23:34Z</time></trkpt>
<trkpt lat="43.0405920000" lon="0.1425120000"><ele>1054</ele><time>2026-03-18T10:23:37Z</time></trkpt>
<trkpt lat="43.0405720000" lon="0.1425270000"><ele>1054</ele><time>2026-03-18T10:23:40Z</time></trkpt>
<trkpt lat="43.0405520000" lon="0.1425470000"><ele>1054</ele><time>2026-03-18T10:23:42Z</time></trkpt>
<trkpt lat="43.0405350000" lon="0.1425620000"><ele>1055</ele><time>2026-03-18T10:23:44Z</time></trkpt>
<trkpt lat="43.0405170000" lon="0.1425830000"><ele>1055</ele><time>2026-03-18T10:23:46Z</time></trkpt>
<trkpt lat="43.0405020000" lon="0.1425970000"><ele>1055</ele><time>2026-03-18T10:23:48Z</time></trkpt>
<trkpt lat="43.0404870000" lon="0.1426170000"><ele>1055</ele><time>2026-03-18T10:23:51Z</time></trkpt>
<trkpt lat="43.0404750000" lon="0.1426350000"><ele>1056</ele><time>2026-03-18T10:23:54Z</time></trkpt>
<trkpt lat="43.0404570000" lon="0.1426570000"><ele>1056</ele><time>2026-03-18T10:23:57Z</time></trkpt>
<trkpt lat="43.0404370000" lon="0.1426650000"><ele>1057</ele><time>2026-03-18T10:24:01Z</time></trkpt>
<trkpt lat="43.0404170000" lon="0.1426620000"><ele>1057</ele><time>2026-03-18T10:24:04Z</time></trkpt>
<trkpt lat="43.0404050000" lon="0.1426930000"><ele>1057</ele><time>2026-03-18T10:24:06Z</time></trkpt>
<trkpt lat="43.0403870000" lon="0.1427320000"><ele>1057</ele><time>2026-03-18T10:24:08Z</time></trkpt>
<trkpt lat="43.0403820000" lon="0.1427550000"><ele>1058</ele><time>2026-03-18T10:24:09Z</time></trkpt>
<trkpt lat="43.0403620000" lon="0.1427800000"><ele>1058</ele><time>2026-03-18T10:24:11Z</time></trkpt>
<trkpt lat="43.0403400000" lon="0.1427870000"><ele>1058</ele><time>2026-03-18T10:24:14Z</time></trkpt>
<trkpt lat="43.0403320000" lon="0.1428220000"><ele>1059</ele><time>2026-03-18T10:24:18Z</time></trkpt>
<trkpt lat="43.0403100000" lon="0.1428570000"><ele>1059</ele><time>2026-03-18T10:24:20Z</time></trkpt>
<trkpt lat="43.0402830000" lon="0.1428820000"><ele>1059</ele><time>2026-03-18T10:24:22Z</time></trkpt>
<trkpt lat="43.0402650000" lon="0.1428970000"><ele>1059</ele><time>2026-03-18T10:24:24Z</time></trkpt>
<trkpt lat="43.0402470000" lon="0.1429120000"><ele>1060</ele><time>2026-03-18T10:24:26Z</time></trkpt>
<trkpt lat="43.0402350000" lon="0.1429420000"><ele>1060</ele><time>2026-03-18T10:24:31Z</time></trkpt>
<trkpt lat="43.0402250000" lon="0.1429650000"><ele>1061</ele><time>2026-03-18T10:24:34Z</time></trkpt>
<trkpt lat="43.0402070000" lon="0.1429820000"><ele>1061</ele><time>2026-03-18T10:24:37Z</time></trkpt>
<trkpt lat="43.0401970000" lon="0.1430030000"><ele>1061</ele><time>2026-03-18T10:24:40Z</time></trkpt>
<trkpt lat="43.0401750000" lon="0.1430170000"><ele>1062</ele><time>2026-03-18T10:24:43Z</time></trkpt>
<trkpt lat="43.0401520000" lon="0.1430270000"><ele>1062</ele><time>2026-03-18T10:24:45Z</time></trkpt>
<trkpt lat="43.0401350000" lon="0.1430350000"><ele>1062</ele><time>2026-03-18T10:24:47Z</time></trkpt>
<trkpt lat="43.0401120000" lon="0.1430620000"><ele>1063</ele><time>2026-03-18T10:24:50Z</time></trkpt>
<trkpt lat="43.0400970000" lon="0.1430770000"><ele>1063</ele><time>2026-03-18T10:24:52Z</time></trkpt>
<trkpt lat="43.0400750000" lon="0.1431050000"><ele>1063</ele><time>2026-03-18T10:24:55Z</time></trkpt>
<trkpt lat="43.0400550000" lon="0.1431170000"><ele>1063</ele><time>2026-03-18T10:24:57Z</time></trkpt>
<trkpt lat="43.0400320000" lon="0.1431220000"><ele>1064</ele><time>2026-03-18T10:25:00Z</time></trkpt>
<trkpt lat="43.0400100000" lon="0.1431220000"><ele>1064</ele><time>2026-03-18T10:25:04Z</time></trkpt>
<trkpt lat="43.0399870000" lon="0.1431270000"><ele>1065</ele><time>2026-03-18T10:25:08Z</time></trkpt>
<trkpt lat="43.0399700000" lon="0.1431430000"><ele>1065</ele><time>2026-03-18T10:25:10Z</time></trkpt>
<trkpt lat="43.0399520000" lon="0.1431570000"><ele>1066</ele><time>2026-03-18T10:25:13Z</time></trkpt>
<trkpt lat="43.0399320000" lon="0.1431570000"><ele>1066</ele><time>2026-03-18T10:25:16Z</time></trkpt>
<trkpt lat="43.0399120000" lon="0.1431470000"><ele>1066</ele><time>2026-03-18T10:25:19Z</time></trkpt>
<trkpt lat="43.0398970000" lon="0.1431320000"><ele>1067</ele><time>2026-03-18T10:25:22Z</time></trkpt>
<trkpt lat="43.0398950000" lon="0.1431050000"><ele>1067</ele><time>2026-03-18T10:25:24Z</time></trkpt>
<trkpt lat="43.0398750000" lon="0.1430820000"><ele>1067</ele><time>2026-03-18T10:25:27Z</time></trkpt>
<trkpt lat="43.0398520000" lon="0.1430800000"><ele>1068</ele><time>2026-03-18T10:25:31Z</time></trkpt>
<trkpt lat="43.0398330000" lon="0.1430850000"><ele>1068</ele><time>2026-03-18T10:25:33Z</time></trkpt>
<trkpt lat="43.0398120000" lon="0.1431070000"><ele>1068</ele><time>2026-03-18T10:25:35Z</time></trkpt>
<trkpt lat="43.0397950000" lon="0.1431130000"><ele>1068</ele><time>2026-03-18T10:25:37Z</time></trkpt>
<trkpt lat="43.0397720000" lon="0.1431080000"><ele>1068</ele><time>2026-03-18T10:25:40Z</time></trkpt>
<trkpt lat="43.0397570000" lon="0.1430970000"><ele>1069</ele><time>2026-03-18T10:25:43Z</time></trkpt>
<trkpt lat="43.0397320000" lon="0.1430850000"><ele>1069</ele><time>2026-03-18T10:25:46Z</time></trkpt>
<trkpt lat="43.0397170000" lon="0.1430700000"><ele>1070</ele><time>2026-03-18T10:25:49Z</time></trkpt>
<trkpt lat="43.0396950000" lon="0.1430570000"><ele>1070</ele><time>2026-03-18T10:25:52Z</time></trkpt>
<trkpt lat="43.0396720000" lon="0.1430570000"><ele>1070</ele><time>2026-03-18T10:25:55Z</time></trkpt>
<trkpt lat="43.0396520000" lon="0.1430570000"><ele>1071</ele><time>2026-03-18T10:26:00Z</time></trkpt>
<trkpt lat="43.0396320000" lon="0.1430570000"><ele>1071</ele><time>2026-03-18T10:26:20Z</time></trkpt>
<trkpt lat="43.0396070000" lon="0.1430570000"><ele>1071</ele><time>2026-03-18T10:26:22Z</time></trkpt>
<trkpt lat="43.0395850000" lon="0.1430570000"><ele>1072</ele><time>2026-03-18T10:26:24Z</time></trkpt>
<trkpt lat="43.0395600000" lon="0.1430530000"><ele>1072</ele><time>2026-03-18T10:26:27Z</time></trkpt>
<trkpt lat="43.0395420000" lon="0.1430530000"><ele>1072</ele><time>2026-03-18T10:26:30Z</time></trkpt>
<trkpt lat="43.0395220000" lon="0.1430530000"><ele>1072</ele><time>2026-03-18T10:26:33Z</time></trkpt>
<trkpt lat="43.0395020000" lon="0.1430570000"><ele>1073</ele><time>2026-03-18T10:26:36Z</time></trkpt>
<trkpt lat="43.0394800000" lon="0.1430620000"><ele>1073</ele><time>2026-03-18T10:26:39Z</time></trkpt>
<trkpt lat="43.0394620000" lon="0.1430650000"><ele>1073</ele><time>2026-03-18T10:26:43Z</time></trkpt>
<trkpt lat="43.0394400000" lon="0.1430720000"><ele>1073</ele><time>2026-03-18T10:26:46Z</time></trkpt>
<trkpt lat="43.0394170000" lon="0.1430670000"><ele>1073</ele><time>2026-03-18T10:26:49Z</time></trkpt>
<trkpt lat="43.0393970000" lon="0.1430570000"><ele>1074</ele><time>2026-03-18T10:26:52Z</time></trkpt>
<trkpt lat="43.0393770000" lon="0.1430520000"><ele>1074</ele><time>2026-03-18T10:26:56Z</time></trkpt>
<trkpt lat="43.0393600000" lon="0.1430520000"><ele>1074</ele><time>2026-03-18T10:26:59Z</time></trkpt>
<trkpt lat="43.0393350000" lon="0.1430530000"><ele>1075</ele><time>2026-03-18T10:27:02Z</time></trkpt>
<trkpt lat="43.0393150000" lon="0.1430470000"><ele>1075</ele><time>2026-03-18T10:27:06Z</time></trkpt>
<trkpt lat="43.0392950000" lon="0.1430500000"><ele>1075</ele><time>2026-03-18T10:27:09Z</time></trkpt>
<trkpt lat="43.0392720000" lon="0.1430420000"><ele>1075</ele><time>2026-03-18T10:27:12Z</time></trkpt>
<trkpt lat="43.0392470000" lon="0.1430420000"><ele>1076</ele><time>2026-03-18T10:27:15Z</time></trkpt>
<trkpt lat="43.0392220000" lon="0.1430470000"><ele>1076</ele><time>2026-03-18T10:27:18Z</time></trkpt>
<trkpt lat="43.0391970000" lon="0.1430400000"><ele>1076</ele><time>2026-03-18T10:27:21Z</time></trkpt>
<trkpt lat="43.0391750000" lon="0.1430320000"><ele>1077</ele><time>2026-03-18T10:27:24Z</time></trkpt>
<trkpt lat="43.0391600000" lon="0.1430170000"><ele>1077</ele><time>2026-03-18T10:27:26Z</time></trkpt>
<trkpt lat="43.0391400000" lon="0.1429980000"><ele>1077</ele><time>2026-03-18T10:27:31Z</time></trkpt>
<trkpt lat="43.0391170000" lon="0.1429830000"><ele>1077</ele><time>2026-03-18T10:27:34Z</time></trkpt>
<trkpt lat="43.0391000000" lon="0.1429720000"><ele>1078</ele><time>2026-03-18T10:27:37Z</time></trkpt>
<trkpt lat="43.0390770000" lon="0.1429650000"><ele>1078</ele><time>2026-03-18T10:27:40Z</time></trkpt>
<trkpt lat="43.0390570000" lon="0.1429600000"><ele>1078</ele><time>2026-03-18T10:27:43Z</time></trkpt>
<trkpt lat="43.0390370000" lon="0.1429520000"><ele>1078</ele><time>2026-03-18T10:27:46Z</time></trkpt>
<trkpt lat="43.0390170000" lon="0.1429370000"><ele>1079</ele><time>2026-03-18T10:27:50Z</time></trkpt>
<trkpt lat="43.0390000000" lon="0.1429270000"><ele>1079</ele><time>2026-03-18T10:27:53Z</time></trkpt>
<trkpt lat="43.0389750000" lon="0.1429120000"><ele>1079</ele><time>2026-03-18T10:27:56Z</time></trkpt>
<trkpt lat="43.0389520000" lon="0.1429120000"><ele>1079</ele><time>2026-03-18T10:27:59Z</time></trkpt>
<trkpt lat="43.0389320000" lon="0.1429020000"><ele>1079</ele><time>2026-03-18T10:28:02Z</time></trkpt>
<trkpt lat="43.0389150000" lon="0.1428870000"><ele>1080</ele><time>2026-03-18T10:28:06Z</time></trkpt>
<trkpt lat="43.0388970000" lon="0.1428770000"><ele>1080</ele><time>2026-03-18T10:28:09Z</time></trkpt>
<trkpt lat="43.0388820000" lon="0.1428620000"><ele>1080</ele><time>2026-03-18T10:28:12Z</time></trkpt>
<trkpt lat="43.0388620000" lon="0.1428470000"><ele>1080</ele><time>2026-03-18T10:28:15Z</time></trkpt>
<trkpt lat="43.0388420000" lon="0.1428370000"><ele>1080</ele><time>2026-03-18T10:28:18Z</time></trkpt>
<trkpt lat="43.0388170000" lon="0.1428330000"><ele>1081</ele><time>2026-03-18T10:28:21Z</time></trkpt>
<trkpt lat="43.0387970000" lon="0.1428170000"><ele>1081</ele><time>2026-03-18T10:28:24Z</time></trkpt>
<trkpt lat="43.0387820000" lon="0.1428000000"><ele>1081</ele><time>2026-03-18T10:28:27Z</time></trkpt>
<trkpt lat="43.0387570000" lon="0.1427900000"><ele>1082</ele><time>2026-03-18T10:28:30Z</time></trkpt>
<trkpt lat="43.0387350000" lon="0.1427850000"><ele>1082</ele><time>2026-03-18T10:28:34Z</time></trkpt>
<trkpt lat="43.0387120000" lon="0.1427600000"><ele>1083</ele><time>2026-03-18T10:28:37Z</time></trkpt>
<trkpt lat="43.0386930000" lon="0.1427470000"><ele>1083</ele><time>2026-03-18T10:28:39Z</time></trkpt>
<trkpt lat="43.0386750000" lon="0.1427280000"><ele>1083</ele><time>2026-03-18T10:28:42Z</time></trkpt>
<trkpt lat="43.0386600000" lon="0.1427150000"><ele>1083</ele><time>2026-03-18T10:28:45Z</time></trkpt>
<trkpt lat="43.0386400000" lon="0.1427070000"><ele>1084</ele><time>2026-03-18T10:28:47Z</time></trkpt>
<trkpt lat="43.0386120000" lon="0.1427200000"><ele>1084</ele><time>2026-03-18T10:28:49Z</time></trkpt>
<trkpt lat="43.0385900000" lon="0.1427100000"><ele>1084</ele><time>2026-03-18T10:28:51Z</time></trkpt>
<trkpt lat="43.0385770000" lon="0.1426870000"><ele>1084</ele><time>2026-03-18T10:28:55Z</time></trkpt>
<trkpt lat="43.0385600000" lon="0.1426720000"><ele>1085</ele><time>2026-03-18T10:28:58Z</time></trkpt>
<trkpt lat="43.0385420000" lon="0.1426600000"><ele>1085</ele><time>2026-03-18T10:29:01Z</time></trkpt>
<trkpt lat="43.0385250000" lon="0.1426420000"><ele>1085</ele><time>2026-03-18T10:29:04Z</time></trkpt>
<trkpt lat="43.0385000000" lon="0.1426320000"><ele>1085</ele><time>2026-03-18T10:29:07Z</time></trkpt>
<trkpt lat="43.0384800000" lon="0.1426220000"><ele>1086</ele><time>2026-03-18T10:29:09Z</time></trkpt>
<trkpt lat="43.0384650000" lon="0.1426070000"><ele>1086</ele><time>2026-03-18T10:29:11Z</time></trkpt>
<trkpt lat="43.0384470000" lon="0.1425880000"><ele>1086</ele><time>2026-03-18T10:29:13Z</time></trkpt>
<trkpt lat="43.0384270000" lon="0.1425700000"><ele>1086</ele><time>2026-03-18T10:29:15Z</time></trkpt>
<trkpt lat="43.0384100000" lon="0.1425520000"><ele>1087</ele><time>2026-03-18T10:29:18Z</time></trkpt>
<trkpt lat="43.0383900000" lon="0.1425350000"><ele>1087</ele><time>2026-03-18T10:29:21Z</time></trkpt>
<trkpt lat="43.0383670000" lon="0.1425250000"><ele>1088</ele><time>2026-03-18T10:29:25Z</time></trkpt>
<trkpt lat="43.0383450000" lon="0.1425170000"><ele>1088</ele><time>2026-03-18T10:29:28Z</time></trkpt>
<trkpt lat="43.0383220000" lon="0.1425100000"><ele>1088</ele><time>2026-03-18T10:29:30Z</time></trkpt>
<trkpt lat="43.0383070000" lon="0.1424820000"><ele>1088</ele><time>2026-03-18T10:29:33Z</time></trkpt>
<trkpt lat="43.0382870000" lon="0.1424720000"><ele>1089</ele><time>2026-03-18T10:29:37Z</time></trkpt>
<trkpt lat="43.0382670000" lon="0.1424620000"><ele>1089</ele><time>2026-03-18T10:29:41Z</time></trkpt>
<trkpt lat="43.0382420000" lon="0.1424550000"><ele>1089</ele><time>2026-03-18T10:29:44Z</time></trkpt>
<trkpt lat="43.0382250000" lon="0.1424430000"><ele>1089</ele><time>2026-03-18T10:29:48Z</time></trkpt>
<trkpt lat="43.0382020000" lon="0.1424270000"><ele>1090</ele><time>2026-03-18T10:29:52Z</time></trkpt>
<trkpt lat="43.0381820000" lon="0.1424220000"><ele>1090</ele><time>2026-03-18T10:29:55Z</time></trkpt>
<trkpt lat="43.0381570000" lon="0.1424170000"><ele>1091</ele><time>2026-03-18T10:29:58Z</time></trkpt>
<trkpt lat="43.0381350000" lon="0.1424120000"><ele>1091</ele><time>2026-03-18T10:30:01Z</time></trkpt>
<trkpt lat="43.0381120000" lon="0.1424150000"><ele>1091</ele><time>2026-03-18T10:30:04Z</time></trkpt>
<trkpt lat="43.0380880000" lon="0.1424320000"><ele>1091</ele><time>2026-03-18T10:30:06Z</time></trkpt>
<trkpt lat="43.0380670000" lon="0.1424420000"><ele>1091</ele><time>2026-03-18T10:30:08Z</time></trkpt>
<trkpt lat="43.0380470000" lon="0.1424420000"><ele>1092</ele><time>2026-03-18T10:30:12Z</time></trkpt>
<trkpt lat="43.0380320000" lon="0.1424620000"><ele>1092</ele><time>2026-03-18T10:30:16Z</time></trkpt>
<trkpt lat="43.0380120000" lon="0.1424720000"><ele>1092</ele><time>2026-03-18T10:30:19Z</time></trkpt>
<trkpt lat="43.0379950000" lon="0.1424600000"><ele>1092</ele><time>2026-03-18T10:30:21Z</time></trkpt>
<trkpt lat="43.0379750000" lon="0.1424570000"><ele>1093</ele><time>2026-03-18T10:30:23Z</time></trkpt>
<trkpt lat="43.0379550000" lon="0.1424620000"><ele>1093</ele><time>2026-03-18T10:30:26Z</time></trkpt>
<trkpt lat="43.0379320000" lon="0.1424650000"><ele>1093</ele><time>2026-03-18T10:30:30Z</time></trkpt>
<trkpt lat="43.0379070000" lon="0.1424670000"><ele>1094</ele><time>2026-03-18T10:30:33Z</time></trkpt>
<trkpt lat="43.0378870000" lon="0.1424720000"><ele>1094</ele><time>2026-03-18T10:30:36Z</time></trkpt>
<trkpt lat="43.0378620000" lon="0.1424720000"><ele>1094</ele><time>2026-03-18T10:30:39Z</time></trkpt>
<trkpt lat="43.0378450000" lon="0.1424820000"><ele>1095</ele><time>2026-03-18T10:30:44Z</time></trkpt>
<trkpt lat="43.0378300000" lon="0.1424620000"><ele>1095</ele><time>2026-03-18T10:30:48Z</time></trkpt>
<trkpt lat="43.0378500000" lon="0.1424770000"><ele>1095</ele><time>2026-03-18T10:31:53Z</time></trkpt>
<trkpt lat="43.0378630000" lon="0.1424920000"><ele>1095</ele><time>2026-03-18T10:31:54Z</time></trkpt>
<trkpt lat="43.0378800000" lon="0.1425070000"><ele>1095</ele><time>2026-03-18T10:31:55Z</time></trkpt>
<trkpt lat="43.0378970000" lon="0.1425420000"><ele>1095</ele><time>2026-03-18T10:31:57Z</time></trkpt>
<trkpt lat="43.0379050000" lon="0.1425770000"><ele>1095</ele><time>2026-03-18T10:31:59Z</time></trkpt>
<trkpt lat="43.0379000000" lon="0.1426020000"><ele>1095</ele><time>2026-03-18T10:32:01Z</time></trkpt>
<trkpt lat="43.0378850000" lon="0.1426220000"><ele>1095</ele><time>2026-03-18T10:32:08Z</time></trkpt>
<trkpt lat="43.0379000000" lon="0.1425770000"><ele>1095</ele><time>2026-03-18T10:32:57Z</time></trkpt>
<trkpt lat="43.0379070000" lon="0.1425530000"><ele>1095</ele><time>2026-03-18T10:32:58Z</time></trkpt>
<trkpt lat="43.0379200000" lon="0.1425220000"><ele>1095</ele><time>2026-03-18T10:33:00Z</time></trkpt>
<trkpt lat="43.0379250000" lon="0.1424970000"><ele>1095</ele><time>2026-03-18T10:33:03Z</time></trkpt>
<trkpt lat="43.0379450000" lon="0.1424820000"><ele>1095</ele><time>2026-03-18T10:33:06Z</time></trkpt>
<trkpt lat="43.0379650000" lon="0.1424920000"><ele>1095</ele><time>2026-03-18T10:33:08Z</time></trkpt>
<trkpt lat="43.0379400000" lon="0.1424900000"><ele>1096</ele><time>2026-03-18T10:34:10Z</time></trkpt>
<trkpt lat="43.0379170000" lon="0.1424800000"><ele>1096</ele><time>2026-03-18T10:34:11Z</time></trkpt>
<trkpt lat="43.0378920000" lon="0.1424720000"><ele>1096</ele><time>2026-03-18T10:34:12Z</time></trkpt>
<trkpt lat="43.0378670000" lon="0.1424620000"><ele>1096</ele><time>2026-03-18T10:34:14Z</time></trkpt>
<trkpt lat="43.0378850000" lon="0.1424820000"><ele>1096</ele><time>2026-03-18T10:34:33Z</time></trkpt>
<trkpt lat="43.0378920000" lon="0.1425220000"><ele>1096</ele><time>2026-03-18T10:34:35Z</time></trkpt>
<trkpt lat="43.0379020000" lon="0.1425470000"><ele>1096</ele><time>2026-03-18T10:34:38Z</time></trkpt>
<trkpt lat="43.0379150000" lon="0.1425220000"><ele>1096</ele><time>2026-03-18T10:35:46Z</time></trkpt>
<trkpt lat="43.0379320000" lon="0.1425350000"><ele>1097</ele><time>2026-03-18T10:37:01Z</time></trkpt>
<trkpt lat="43.0379370000" lon="0.1425620000"><ele>1097</ele><time>2026-03-18T10:37:03Z</time></trkpt>
<trkpt lat="43.0379200000" lon="0.1425570000"><ele>1097</ele><time>2026-03-18T10:38:04Z</time></trkpt>
<trkpt lat="43.0378970000" lon="0.1425350000"><ele>1097</ele><time>2026-03-18T10:38:06Z</time></trkpt>
<trkpt lat="43.0378820000" lon="0.1425150000"><ele>1097</ele><time>2026-03-18T10:38:08Z</time></trkpt>
<trkpt lat="43.0378630000" lon="0.1425170000"><ele>1097</ele><time>2026-03-18T10:38:12Z</time></trkpt>
<trkpt lat="43.0378470000" lon="0.1425270000"><ele>1098</ele><time>2026-03-18T10:38:50Z</time></trkpt>
<trkpt lat="43.0378270000" lon="0.1425220000"><ele>1098</ele><time>2026-03-18T10:38:57Z</time></trkpt>
<trkpt lat="43.0378120000" lon="0.1425020000"><ele>1098</ele><time>2026-03-18T10:39:16Z</time></trkpt>
<trkpt lat="43.0378220000" lon="0.1424730000"><ele>1099</ele><time>2026-03-18T10:39:23Z</time></trkpt>
<trkpt lat="43.0378150000" lon="0.1424480000"><ele>1099</ele><time>2026-03-18T10:39:26Z</time></trkpt>
<trkpt lat="43.0377920000" lon="0.1424520000"><ele>1100</ele><time>2026-03-18T10:39:33Z</time></trkpt>
<trkpt lat="43.0377650000" lon="0.1424670000"><ele>1100</ele><time>2026-03-18T10:39:38Z</time></trkpt>
<trkpt lat="43.0377450000" lon="0.1424770000"><ele>1100</ele><time>2026-03-18T10:39:39Z</time></trkpt>
<trkpt lat="43.0377220000" lon="0.1424870000"><ele>1100</ele><time>2026-03-18T10:39:40Z</time></trkpt>
<trkpt lat="43.0377020000" lon="0.1424950000"><ele>1101</ele><time>2026-03-18T10:39:41Z</time></trkpt>
<trkpt lat="43.0376820000" lon="0.1424970000"><ele>1101</ele><time>2026-03-18T10:39:42Z</time></trkpt>
<trkpt lat="43.0376570000" lon="0.1425020000"><ele>1101</ele><time>2026-03-18T10:39:44Z</time></trkpt>
<trkpt lat="43.0376370000" lon="0.1425070000"><ele>1101</ele><time>2026-03-18T10:39:47Z</time></trkpt>
<trkpt lat="43.0376200000" lon="0.1425020000"><ele>1102</ele><time>2026-03-18T10:39:50Z</time></trkpt>
<trkpt lat="43.0376020000" lon="0.1424950000"><ele>1102</ele><time>2026-03-18T10:39:52Z</time></trkpt>
<trkpt lat="43.0375870000" lon="0.1424800000"><ele>1102</ele><time>2026-03-18T10:39:55Z</time></trkpt>
<trkpt lat="43.0375900000" lon="0.1424520000"><ele>1103</ele><time>2026-03-18T10:39:58Z</time></trkpt>
<trkpt lat="43.0376050000" lon="0.1424350000"><ele>1103</ele><time>2026-03-18T10:40:04Z</time></trkpt>
<trkpt lat="43.0376200000" lon="0.1424020000"><ele>1103</ele><time>2026-03-18T10:40:10Z</time></trkpt>
<trkpt lat="43.0376270000" lon="0.1423750000"><ele>1103</ele><time>2026-03-18T10:40:12Z</time></trkpt>
<trkpt lat="43.0376220000" lon="0.1423450000"><ele>1103</ele><time>2026-03-18T10:40:14Z</time></trkpt>
<trkpt lat="43.0376120000" lon="0.1423200000"><ele>1103</ele><time>2026-03-18T10:40:16Z</time></trkpt>
<trkpt lat="43.0376120000" lon="0.1422950000"><ele>1103</ele><time>2026-03-18T10:40:18Z</time></trkpt>
<trkpt lat="43.0375970000" lon="0.1422720000"><ele>1103</ele><time>2026-03-18T10:40:20Z</time></trkpt>
<trkpt lat="43.0375820000" lon="0.1422370000"><ele>1103</ele><time>2026-03-18T10:40:22Z</time></trkpt>
<trkpt lat="43.0375750000" lon="0.1422120000"><ele>1103</ele><time>2026-03-18T10:40:24Z</time></trkpt>
<trkpt lat="43.0375620000" lon="0.1421920000"><ele>1104</ele><time>2026-03-18T10:40:26Z</time></trkpt>
<trkpt lat="43.0375530000" lon="0.1421570000"><ele>1104</ele><time>2026-03-18T10:40:29Z</time></trkpt>
<trkpt lat="43.0375420000" lon="0.1421370000"><ele>1104</ele><time>2026-03-18T10:40:31Z</time></trkpt>
<trkpt lat="43.0375320000" lon="0.1421070000"><ele>1104</ele><time>2026-03-18T10:40:34Z</time></trkpt>
<trkpt lat="43.0375150000" lon="0.1420800000"><ele>1104</ele><time>2026-03-18T10:40:36Z</time></trkpt>
<trkpt lat="43.0375070000" lon="0.1420520000"><ele>1104</ele><time>2026-03-18T10:40:38Z</time></trkpt>
<trkpt lat="43.0375000000" lon="0.1420220000"><ele>1104</ele><time>2026-03-18T10:40:40Z</time></trkpt>
<trkpt lat="43.0374900000" lon="0.1419920000"><ele>1104</ele><time>2026-03-18T10:40:43Z</time></trkpt>
<trkpt lat="43.0374750000" lon="0.1419670000"><ele>1105</ele><time>2026-03-18T10:40:46Z</time></trkpt>
<trkpt lat="43.0374650000" lon="0.1419430000"><ele>1105</ele><time>2026-03-18T10:40:48Z</time></trkpt>
<trkpt lat="43.0374520000" lon="0.1419220000"><ele>1105</ele><time>2026-03-18T10:40:50Z</time></trkpt>
<trkpt lat="43.0374370000" lon="0.1419070000"><ele>1105</ele><time>2026-03-18T10:40:52Z</time></trkpt>
<trkpt lat="43.0374270000" lon="0.1418870000"><ele>1105</ele><time>2026-03-18T10:40:54Z</time></trkpt>
<trkpt lat="43.0374170000" lon="0.1418670000"><ele>1105</ele><time>2026-03-18T10:40:56Z</time></trkpt>
<trkpt lat="43.0373970000" lon="0.1418520000"><ele>1106</ele><time>2026-03-18T10:40:58Z</time></trkpt>
<trkpt lat="43.0373770000" lon="0.1418320000"><ele>1106</ele><time>2026-03-18T10:41:00Z</time></trkpt>
<trkpt lat="43.0373600000" lon="0.1418020000"><ele>1106</ele><time>2026-03-18T10:41:03Z</time></trkpt>
<trkpt lat="43.0373500000" lon="0.1417770000"><ele>1107</ele><time>2026-03-18T10:41:06Z</time></trkpt>
<trkpt lat="43.0373600000" lon="0.1417570000"><ele>1107</ele><time>2026-03-18T10:41:08Z</time></trkpt>
<trkpt lat="43.0373520000" lon="0.1417230000"><ele>1108</ele><time>2026-03-18T10:41:11Z</time></trkpt>
<trkpt lat="43.0373400000" lon="0.1417050000"><ele>1108</ele><time>2026-03-18T10:41:14Z</time></trkpt>
<trkpt lat="43.0373280000" lon="0.1416720000"><ele>1108</ele><time>2026-03-18T10:41:17Z</time></trkpt>
<trkpt lat="43.0373220000" lon="0.1416380000"><ele>1109</ele><time>2026-03-18T10:41:20Z</time></trkpt>
<trkpt lat="43.0373150000" lon="0.1416120000"><ele>1109</ele><time>2026-03-18T10:41:22Z</time></trkpt>
<trkpt lat="43.0373070000" lon="0.1415830000"><ele>1109</ele><time>2026-03-18T10:41:24Z</time></trkpt>
<trkpt lat="43.0373070000" lon="0.1415450000"><ele>1109</ele><time>2026-03-18T10:41:27Z</time></trkpt>
<trkpt lat="43.0372970000" lon="0.1415170000"><ele>1110</ele><time>2026-03-18T10:41:32Z</time></trkpt>
<trkpt lat="43.0372870000" lon="0.1414950000"><ele>1110</ele><time>2026-03-18T10:41:34Z</time></trkpt>
<trkpt lat="43.0372770000" lon="0.1414720000"><ele>1110</ele><time>2026-03-18T10:41:37Z</time></trkpt>
<trkpt lat="43.0372700000" lon="0.1414400000"><ele>1110</ele><time>2026-03-18T10:41:40Z</time></trkpt>
<trkpt lat="43.0372570000" lon="0.1414200000"><ele>1111</ele><time>2026-03-18T10:41:43Z</time></trkpt>
<trkpt lat="43.0372570000" lon="0.1413870000"><ele>1111</ele><time>2026-03-18T10:41:47Z</time></trkpt>
<trkpt lat="43.0372420000" lon="0.1413630000"><ele>1111</ele><time>2026-03-18T10:41:51Z</time></trkpt>
<trkpt lat="43.0372270000" lon="0.1413470000"><ele>1111</ele><time>2026-03-18T10:41:53Z</time></trkpt>
<trkpt lat="43.0372150000" lon="0.1413220000"><ele>1112</ele><time>2026-03-18T10:41:56Z</time></trkpt>
<trkpt lat="43.0372050000" lon="0.1413020000"><ele>1112</ele><time>2026-03-18T10:41:58Z</time></trkpt>
<trkpt lat="43.0372000000" lon="0.1412750000"><ele>1112</ele><time>2026-03-18T10:42:00Z</time></trkpt>
<trkpt lat="43.0371820000" lon="0.1412520000"><ele>1112</ele><time>2026-03-18T10:42:03Z</time></trkpt>
<trkpt lat="43.0371770000" lon="0.1412770000"><ele>1114</ele><time>2026-03-18T10:42:11Z</time></trkpt>
<trkpt lat="43.0371900000" lon="0.1413070000"><ele>1113</ele><time>2026-03-18T10:42:13Z</time></trkpt>
<trkpt lat="43.0371920000" lon="0.1413320000"><ele>1113</ele><time>2026-03-18T10:42:19Z</time></trkpt>
<trkpt lat="43.0372100000" lon="0.1412970000"><ele>1112</ele><time>2026-03-18T10:43:07Z</time></trkpt>
<trkpt lat="43.0372170000" lon="0.1412700000"><ele>1112</ele><time>2026-03-18T10:43:09Z</time></trkpt>
<trkpt lat="43.0372320000" lon="0.1412420000"><ele>1112</ele><time>2026-03-18T10:43:12Z</time></trkpt>
<trkpt lat="43.0372420000" lon="0.1412120000"><ele>1112</ele><time>2026-03-18T10:43:14Z</time></trkpt>
<trkpt lat="43.0372420000" lon="0.1411850000"><ele>1112</ele><time>2026-03-18T10:43:16Z</time></trkpt>
<trkpt lat="43.0372500000" lon="0.1411500000"><ele>1112</ele><time>2026-03-18T10:43:19Z</time></trkpt>
<trkpt lat="43.0372620000" lon="0.1411250000"><ele>1112</ele><time>2026-03-18T10:43:21Z</time></trkpt>
<trkpt lat="43.0372770000" lon="0.1410920000"><ele>1112</ele><time>2026-03-18T10:43:24Z</time></trkpt>
<trkpt lat="43.0372920000" lon="0.1410750000"><ele>1112</ele><time>2026-03-18T10:43:26Z</time></trkpt>
<trkpt lat="43.0373120000" lon="0.1410570000"><ele>1111</ele><time>2026-03-18T10:43:29Z</time></trkpt>
<trkpt lat="43.0373350000" lon="0.1410420000"><ele>1111</ele><time>2026-03-18T10:43:31Z</time></trkpt>
<trkpt lat="43.0373520000" lon="0.1410270000"><ele>1111</ele><time>2026-03-18T10:43:32Z</time></trkpt>
<trkpt lat="43.0373770000" lon="0.1410070000"><ele>1111</ele><time>2026-03-18T10:43:34Z</time></trkpt>
<trkpt lat="43.0374020000" lon="0.1410070000"><ele>1110</ele><time>2026-03-18T10:43:36Z</time></trkpt>
<trkpt lat="43.0374270000" lon="0.1410000000"><ele>1110</ele><time>2026-03-18T10:43:38Z</time></trkpt>
<trkpt lat="43.0374470000" lon="0.1409870000"><ele>1110</ele><time>2026-03-18T10:43:40Z</time></trkpt>
<trkpt lat="43.0374600000" lon="0.1409720000"><ele>1110</ele><time>2026-03-18T10:43:41Z</time></trkpt>
<trkpt lat="43.0374770000" lon="0.1409620000"><ele>1110</ele><time>2026-03-18T10:43:43Z</time></trkpt>
<trkpt lat="43.0374820000" lon="0.1409320000"><ele>1108</ele><time>2026-03-18T10:43:52Z</time></trkpt>
<trkpt lat="43.0375000000" lon="0.1409220000"><ele>1108</ele><time>2026-03-18T10:43:54Z</time></trkpt>
<trkpt lat="43.0375070000" lon="0.1408870000"><ele>1107</ele><time>2026-03-18T10:43:59Z</time></trkpt>
<trkpt lat="43.0375000000" lon="0.1408470000"><ele>1107</ele><time>2026-03-18T10:44:01Z</time></trkpt>
<trkpt lat="43.0374830000" lon="0.1408070000"><ele>1107</ele><time>2026-03-18T10:44:03Z</time></trkpt>
<trkpt lat="43.0374770000" lon="0.1407780000"><ele>1106</ele><time>2026-03-18T10:44:05Z</time></trkpt>
<trkpt lat="43.0374820000" lon="0.1407520000"><ele>1106</ele><time>2026-03-18T10:44:08Z</time></trkpt>
<trkpt lat="43.0374870000" lon="0.1407220000"><ele>1106</ele><time>2026-03-18T10:44:11Z</time></trkpt>
<trkpt lat="43.0374900000" lon="0.1406820000"><ele>1106</ele><time>2026-03-18T10:44:13Z</time></trkpt>
<trkpt lat="43.0374870000" lon="0.1406470000"><ele>1106</ele><time>2026-03-18T10:44:15Z</time></trkpt>
<trkpt lat="43.0374770000" lon="0.1406180000"><ele>1106</ele><time>2026-03-18T10:44:18Z</time></trkpt>
<trkpt lat="43.0374800000" lon="0.1405950000"><ele>1106</ele><time>2026-03-18T10:44:20Z</time></trkpt>
<trkpt lat="43.0374820000" lon="0.1405620000"><ele>1105</ele><time>2026-03-18T10:44:23Z</time></trkpt>
<trkpt lat="43.0374920000" lon="0.1405070000"><ele>1105</ele><time>2026-03-18T10:44:25Z</time></trkpt>
<trkpt lat="43.0374950000" lon="0.1404670000"><ele>1105</ele><time>2026-03-18T10:44:27Z</time></trkpt>
<trkpt lat="43.0375000000" lon="0.1404270000"><ele>1104</ele><time>2026-03-18T10:44:29Z</time></trkpt>
<trkpt lat="43.0374920000" lon="0.1403930000"><ele>1104</ele><time>2026-03-18T10:44:31Z</time></trkpt>
<trkpt lat="43.0374900000" lon="0.1403630000"><ele>1104</ele><time>2026-03-18T10:44:33Z</time></trkpt>
<trkpt lat="43.0375000000" lon="0.1403170000"><ele>1104</ele><time>2026-03-18T10:44:35Z</time></trkpt>
<trkpt lat="43.0374970000" lon="0.1402870000"><ele>1104</ele><time>2026-03-18T10:44:37Z</time></trkpt>
<trkpt lat="43.0374970000" lon="0.1402600000"><ele>1103</ele><time>2026-03-18T10:44:39Z</time></trkpt>
<trkpt lat="43.0374900000" lon="0.1402320000"><ele>1103</ele><time>2026-03-18T10:44:41Z</time></trkpt>
<trkpt lat="43.0374720000" lon="0.1401970000"><ele>1103</ele><time>2026-03-18T10:44:43Z</time></trkpt>
<trkpt lat="43.0374570000" lon="0.1401650000"><ele>1103</ele><time>2026-03-18T10:44:45Z</time></trkpt>
<trkpt lat="43.0374620000" lon="0.1401370000"><ele>1103</ele><time>2026-03-18T10:44:47Z</time></trkpt>
<trkpt lat="43.0374720000" lon="0.1401070000"><ele>1103</ele><time>2026-03-18T10:44:49Z</time></trkpt>
<trkpt lat="43.0374820000" lon="0.1400820000"><ele>1103</ele><time>2026-03-18T10:44:51Z</time></trkpt>
<trkpt lat="43.0374770000" lon="0.1400470000"><ele>1103</ele><time>2026-03-18T10:44:53Z</time></trkpt>
<trkpt lat="43.0374650000" lon="0.1400120000"><ele>1103</ele><time>2026-03-18T10:44:55Z</time></trkpt>
<trkpt lat="43.0374600000" lon="0.1399770000"><ele>1103</ele><time>2026-03-18T10:44:57Z</time></trkpt>
<trkpt lat="43.0374520000" lon="0.1399420000"><ele>1103</ele><time>2026-03-18T10:44:59Z</time></trkpt>
<trkpt lat="43.0374370000" lon="0.1399120000"><ele>1103</ele><time>2026-03-18T10:45:01Z</time></trkpt>
<trkpt lat="43.0374300000" lon="0.1398870000"><ele>1103</ele><time>2026-03-18T10:45:03Z</time></trkpt>
<trkpt lat="43.0374250000" lon="0.1398520000"><ele>1103</ele><time>2026-03-18T10:45:06Z</time></trkpt>
<trkpt lat="43.0374220000" lon="0.1398220000"><ele>1103</ele><time>2026-03-18T10:45:09Z</time></trkpt>
<trkpt lat="43.0374220000" lon="0.1397870000"><ele>1103</ele><time>2026-03-18T10:45:12Z</time></trkpt>
<trkpt lat="43.0374250000" lon="0.1397620000"><ele>1103</ele><time>2026-03-18T10:45:14Z</time></trkpt>
<trkpt lat="43.0374120000" lon="0.1397370000"><ele>1103</ele><time>2026-03-18T10:45:16Z</time></trkpt>
<trkpt lat="43.0373980000" lon="0.1397120000"><ele>1103</ele><time>2026-03-18T10:45:18Z</time></trkpt>
<trkpt lat="43.0374100000" lon="0.1396820000"><ele>1103</ele><time>2026-03-18T10:45:20Z</time></trkpt>
<trkpt lat="43.0374150000" lon="0.1396530000"><ele>1103</ele><time>2026-03-18T10:45:22Z</time></trkpt>
<trkpt lat="43.0374170000" lon="0.1396200000"><ele>1103</ele><time>2026-03-18T10:45:24Z</time></trkpt>
<trkpt lat="43.0374200000" lon="0.1395920000"><ele>1103</ele><time>2026-03-18T10:45:26Z</time></trkpt>
<trkpt lat="43.0374420000" lon="0.1395920000"><ele>1104</ele><time>2026-03-18T10:45:36Z</time></trkpt>
<trkpt lat="43.0374450000" lon="0.1395650000"><ele>1104</ele><time>2026-03-18T10:46:00Z</time></trkpt>
<trkpt lat="43.0374450000" lon="0.1395220000"><ele>1104</ele><time>2026-03-18T10:46:02Z</time></trkpt>
<trkpt lat="43.0374420000" lon="0.1394920000"><ele>1104</ele><time>2026-03-18T10:46:03Z</time></trkpt>
<trkpt lat="43.0374400000" lon="0.1394570000"><ele>1104</ele><time>2026-03-18T10:46:04Z</time></trkpt>
<trkpt lat="43.0374320000" lon="0.1394320000"><ele>1104</ele><time>2026-03-18T10:46:05Z</time></trkpt>
<trkpt lat="43.0374220000" lon="0.1393930000"><ele>1105</ele><time>2026-03-18T10:46:07Z</time></trkpt>
<trkpt lat="43.0374050000" lon="0.1393620000"><ele>1105</ele><time>2026-03-18T10:46:09Z</time></trkpt>
<trkpt lat="43.0373980000" lon="0.1393320000"><ele>1105</ele><time>2026-03-18T10:46:11Z</time></trkpt>
<trkpt lat="43.0373950000" lon="0.1393070000"><ele>1105</ele><time>2026-03-18T10:46:13Z</time></trkpt>
<trkpt lat="43.0373920000" lon="0.1392750000"><ele>1105</ele><time>2026-03-18T10:46:15Z</time></trkpt>
<trkpt lat="43.0373870000" lon="0.1392400000"><ele>1106</ele><time>2026-03-18T10:46:18Z</time></trkpt>
<trkpt lat="43.0373820000" lon="0.1392070000"><ele>1106</ele><time>2026-03-18T10:46:20Z</time></trkpt>
<trkpt lat="43.0373820000" lon="0.1391770000"><ele>1106</ele><time>2026-03-18T10:46:22Z</time></trkpt>
<trkpt lat="43.0373870000" lon="0.1391500000"><ele>1106</ele><time>2026-03-18T10:46:24Z</time></trkpt>
<trkpt lat="43.0373900000" lon="0.1391170000"><ele>1107</ele><time>2026-03-18T10:46:27Z</time></trkpt>
<trkpt lat="43.0373900000" lon="0.1390870000"><ele>1107</ele><time>2026-03-18T10:46:29Z</time></trkpt>
<trkpt lat="43.0373820000" lon="0.1390570000"><ele>1107</ele><time>2026-03-18T10:46:31Z</time></trkpt>
<trkpt lat="43.0373970000" lon="0.1390220000"><ele>1107</ele><time>2026-03-18T10:46:33Z</time></trkpt>
<trkpt lat="43.0374070000" lon="0.1389850000"><ele>1107</ele><time>2026-03-18T10:46:35Z</time></trkpt>
<trkpt lat="43.0374200000" lon="0.1389520000"><ele>1108</ele><time>2026-03-18T10:46:37Z</time></trkpt>
<trkpt lat="43.0374150000" lon="0.1389200000"><ele>1108</ele><time>2026-03-18T10:46:39Z</time></trkpt>
<trkpt lat="43.0374120000" lon="0.1388920000"><ele>1108</ele><time>2026-03-18T10:46:41Z</time></trkpt>
<trkpt lat="43.0374070000" lon="0.1388620000"><ele>1108</ele><time>2026-03-18T10:46:43Z</time></trkpt>
<trkpt lat="43.0374020000" lon="0.1388370000"><ele>1108</ele><time>2026-03-18T10:46:45Z</time></trkpt>
<trkpt lat="43.0374050000" lon="0.1388050000"><ele>1108</ele><time>2026-03-18T10:46:47Z</time></trkpt>
<trkpt lat="43.0373980000" lon="0.1387800000"><ele>1108</ele><time>2026-03-18T10:46:49Z</time></trkpt>
<trkpt lat="43.0373980000" lon="0.1387470000"><ele>1109</ele><time>2026-03-18T10:46:51Z</time></trkpt>
<trkpt lat="43.0374020000" lon="0.1387170000"><ele>1109</ele><time>2026-03-18T10:46:53Z</time></trkpt>
<trkpt lat="43.0374020000" lon="0.1386900000"><ele>1109</ele><time>2026-03-18T10:46:55Z</time></trkpt>
<trkpt lat="43.0373980000" lon="0.1386620000"><ele>1109</ele><time>2026-03-18T10:46:57Z</time></trkpt>
<trkpt lat="43.0373980000" lon="0.1386370000"><ele>1109</ele><time>2026-03-18T10:46:59Z</time></trkpt>
<trkpt lat="43.0374020000" lon="0.1386100000"><ele>1109</ele><time>2026-03-18T10:47:02Z</time></trkpt>
<trkpt lat="43.0374120000" lon="0.1385870000"><ele>1109</ele><time>2026-03-18T10:47:04Z</time></trkpt>
<trkpt lat="43.0374150000" lon="0.1385570000"><ele>1109</ele><time>2026-03-18T10:47:06Z</time></trkpt>
<trkpt lat="43.0374220000" lon="0.1385320000"><ele>1109</ele><time>2026-03-18T10:47:08Z</time></trkpt>
<trkpt lat="43.0374350000" lon="0.1385120000"><ele>1109</ele><time>2026-03-18T10:47:10Z</time></trkpt>
<trkpt lat="43.0374400000" lon="0.1384870000"><ele>1109</ele><time>2026-03-18T10:47:13Z</time></trkpt>
<trkpt lat="43.0374350000" lon="0.1384600000"><ele>1110</ele><time>2026-03-18T10:47:17Z</time></trkpt>
<trkpt lat="43.0374470000" lon="0.1384420000"><ele>1110</ele><time>2026-03-18T10:47:20Z</time></trkpt>
<trkpt lat="43.0374600000" lon="0.1384100000"><ele>1110</ele><time>2026-03-18T10:47:22Z</time></trkpt>
<trkpt lat="43.0374620000" lon="0.1383720000"><ele>1110</ele><time>2026-03-18T10:47:24Z</time></trkpt>
<trkpt lat="43.0374650000" lon="0.1383470000"><ele>1110</ele><time>2026-03-18T10:47:26Z</time></trkpt>
<trkpt lat="43.0374700000" lon="0.1383150000"><ele>1110</ele><time>2026-03-18T10:47:29Z</time></trkpt>
<trkpt lat="43.0374770000" lon="0.1382820000"><ele>1111</ele><time>2026-03-18T10:47:32Z</time></trkpt>
<trkpt lat="43.0374720000" lon="0.1382520000"><ele>1111</ele><time>2026-03-18T10:47:34Z</time></trkpt>
<trkpt lat="43.0374770000" lon="0.1382270000"><ele>1111</ele><time>2026-03-18T10:47:36Z</time></trkpt>
<trkpt lat="43.0374920000" lon="0.1382020000"><ele>1111</ele><time>2026-03-18T10:47:38Z</time></trkpt>
<trkpt lat="43.0375020000" lon="0.1381720000"><ele>1112</ele><time>2026-03-18T10:47:41Z</time></trkpt>
<trkpt lat="43.0375020000" lon="0.1381370000"><ele>1112</ele><time>2026-03-18T10:47:44Z</time></trkpt>
<trkpt lat="43.0375000000" lon="0.1381070000"><ele>1112</ele><time>2026-03-18T10:47:46Z</time></trkpt>
<trkpt lat="43.0375020000" lon="0.1380770000"><ele>1112</ele><time>2026-03-18T10:47:48Z</time></trkpt>
<trkpt lat="43.0375020000" lon="0.1380450000"><ele>1112</ele><time>2026-03-18T10:47:50Z</time></trkpt>
<trkpt lat="43.0374900000" lon="0.1380220000"><ele>1112</ele><time>2026-03-18T10:47:52Z</time></trkpt>
<trkpt lat="43.0374820000" lon="0.1379970000"><ele>1113</ele><time>2026-03-18T10:47:56Z</time></trkpt>
<trkpt lat="43.0374970000" lon="0.1379770000"><ele>1113</ele><time>2026-03-18T10:47:59Z</time></trkpt>
<trkpt lat="43.0374920000" lon="0.1379470000"><ele>1113</ele><time>2026-03-18T10:48:02Z</time></trkpt>
<trkpt lat="43.0374970000" lon="0.1379170000"><ele>1113</ele><time>2026-03-18T10:48:05Z</time></trkpt>
<trkpt lat="43.0374900000" lon="0.1378920000"><ele>1114</ele><time>2026-03-18T10:48:07Z</time></trkpt>
<trkpt lat="43.0375000000" lon="0.1378670000"><ele>1114</ele><time>2026-03-18T10:48:10Z</time></trkpt>
<trkpt lat="43.0375070000" lon="0.1378370000"><ele>1114</ele><time>2026-03-18T10:48:13Z</time></trkpt>
<trkpt lat="43.0375120000" lon="0.1378050000"><ele>1115</ele><time>2026-03-18T10:48:16Z</time></trkpt>
<trkpt lat="43.0375170000" lon="0.1377720000"><ele>1115</ele><time>2026-03-18T10:48:19Z</time></trkpt>
<trkpt lat="43.0375250000" lon="0.1377420000"><ele>1115</ele><time>2026-03-18T10:48:22Z</time></trkpt>
<trkpt lat="43.0375220000" lon="0.1377120000"><ele>1116</ele><time>2026-03-18T10:48:25Z</time></trkpt>
<trkpt lat="43.0375100000" lon="0.1376870000"><ele>1116</ele><time>2026-03-18T10:48:27Z</time></trkpt>
<trkpt lat="43.0375070000" lon="0.1376570000"><ele>1116</ele><time>2026-03-18T10:48:29Z</time></trkpt>
<trkpt lat="43.0374970000" lon="0.1376220000"><ele>1116</ele><time>2026-03-18T10:48:32Z</time></trkpt>
<trkpt lat="43.0374870000" lon="0.1375970000"><ele>1116</ele><time>2026-03-18T10:48:34Z</time></trkpt>
<trkpt lat="43.0374650000" lon="0.1375720000"><ele>1116</ele><time>2026-03-18T10:48:36Z</time></trkpt>
<trkpt lat="43.0374500000" lon="0.1375470000"><ele>1117</ele><time>2026-03-18T10:48:38Z</time></trkpt>
<trkpt lat="43.0374450000" lon="0.1375220000"><ele>1116</ele><time>2026-03-18T10:48:40Z</time></trkpt>
<trkpt lat="43.0374350000" lon="0.1374970000"><ele>1117</ele><time>2026-03-18T10:48:42Z</time></trkpt>
<trkpt lat="43.0374220000" lon="0.1374780000"><ele>1117</ele><time>2026-03-18T10:48:44Z</time></trkpt>
<trkpt lat="43.0374170000" lon="0.1374470000"><ele>1117</ele><time>2026-03-18T10:48:47Z</time></trkpt>
<trkpt lat="43.0374020000" lon="0.1374220000"><ele>1117</ele><time>2026-03-18T10:48:49Z</time></trkpt>
<trkpt lat="43.0373820000" lon="0.1374020000"><ele>1117</ele><time>2026-03-18T10:48:51Z</time></trkpt>
<trkpt lat="43.0373650000" lon="0.1373770000"><ele>1116</ele><time>2026-03-18T10:48:53Z</time></trkpt>
<trkpt lat="43.0373570000" lon="0.1373520000"><ele>1116</ele><time>2026-03-18T10:48:55Z</time></trkpt>
<trkpt lat="43.0373620000" lon="0.1373170000"><ele>1116</ele><time>2026-03-18T10:48:57Z</time></trkpt>
<trkpt lat="43.0373520000" lon="0.1372800000"><ele>1116</ele><time>2026-03-18T10:48:59Z</time></trkpt>
<trkpt lat="43.0373600000" lon="0.1372400000"><ele>1116</ele><time>2026-03-18T10:49:02Z</time></trkpt>
<trkpt lat="43.0373670000" lon="0.1372070000"><ele>1116</ele><time>2026-03-18T10:49:04Z</time></trkpt>
<trkpt lat="43.0373770000" lon="0.1371780000"><ele>1116</ele><time>2026-03-18T10:49:05Z</time></trkpt>
<trkpt lat="43.0373750000" lon="0.1371430000"><ele>1116</ele><time>2026-03-18T10:49:08Z</time></trkpt>
<trkpt lat="43.0373870000" lon="0.1371170000"><ele>1115</ele><time>2026-03-18T10:49:10Z</time></trkpt>
<trkpt lat="43.0373970000" lon="0.1370820000"><ele>1115</ele><time>2026-03-18T10:49:13Z</time></trkpt>
<trkpt lat="43.0374050000" lon="0.1370570000"><ele>1114</ele><time>2026-03-18T10:49:27Z</time></trkpt>
<trkpt lat="43.0374170000" lon="0.1370250000"><ele>1115</ele><time>2026-03-18T10:49:30Z</time></trkpt>
<trkpt lat="43.0374170000" lon="0.1369920000"><ele>1114</ele><time>2026-03-18T10:49:32Z</time></trkpt>
<trkpt lat="43.0374170000" lon="0.1369620000"><ele>1114</ele><time>2026-03-18T10:49:34Z</time></trkpt>
<trkpt lat="43.0374300000" lon="0.1369270000"><ele>1114</ele><time>2026-03-18T10:49:37Z</time></trkpt>
<trkpt lat="43.0374420000" lon="0.1368930000"><ele>1114</ele><time>2026-03-18T10:49:39Z</time></trkpt>
<trkpt lat="43.0374550000" lon="0.1368620000"><ele>1114</ele><time>2026-03-18T10:49:41Z</time></trkpt>
<trkpt lat="43.0374670000" lon="0.1368220000"><ele>1114</ele><time>2026-03-18T10:49:43Z</time></trkpt>
<trkpt lat="43.0374750000" lon="0.1367970000"><ele>1114</ele><time>2026-03-18T10:49:44Z</time></trkpt>
<trkpt lat="43.0374820000" lon="0.1367750000"><ele>1114</ele><time>2026-03-18T10:49:45Z</time></trkpt>
<trkpt lat="43.0374830000" lon="0.1367370000"><ele>1113</ele><time>2026-03-18T10:49:47Z</time></trkpt>
<trkpt lat="43.0375000000" lon="0.1367070000"><ele>1113</ele><time>2026-03-18T10:49:50Z</time></trkpt>
<trkpt lat="43.0375020000" lon="0.1366800000"><ele>1113</ele><time>2026-03-18T10:49:52Z</time></trkpt>
<trkpt lat="43.0375100000" lon="0.1366520000"><ele>1113</ele><time>2026-03-18T10:49:54Z</time></trkpt>
<trkpt lat="43.0375170000" lon="0.1366170000"><ele>1113</ele><time>2026-03-18T10:49:56Z</time></trkpt>
<trkpt lat="43.0375220000" lon="0.1365850000"><ele>1113</ele><time>2026-03-18T10:49:58Z</time></trkpt>
<trkpt lat="43.0375300000" lon="0.1365550000"><ele>1113</ele><time>2026-03-18T10:50:00Z</time></trkpt>
<trkpt lat="43.0375370000" lon="0.1365270000"><ele>1112</ele><time>2026-03-18T10:50:02Z</time></trkpt>
<trkpt lat="43.0375420000" lon="0.1364950000"><ele>1112</ele><time>2026-03-18T10:50:04Z</time></trkpt>
<trkpt lat="43.0375470000" lon="0.1364580000"><ele>1112</ele><time>2026-03-18T10:50:06Z</time></trkpt>
<trkpt lat="43.0375520000" lon="0.1364220000"><ele>1112</ele><time>2026-03-18T10:50:08Z</time></trkpt>
<trkpt lat="43.0375420000" lon="0.1363870000"><ele>1112</ele><time>2026-03-18T10:50:10Z</time></trkpt>
<trkpt lat="43.0375470000" lon="0.1363500000"><ele>1112</ele><time>2026-03-18T10:50:12Z</time></trkpt>
<trkpt lat="43.0375370000" lon="0.1363170000"><ele>1112</ele><time>2026-03-18T10:50:14Z</time></trkpt>
<trkpt lat="43.0375370000" lon="0.1362850000"><ele>1112</ele><time>2026-03-18T10:50:16Z</time></trkpt>
<trkpt lat="43.0375270000" lon="0.1362530000"><ele>1112</ele><time>2026-03-18T10:50:18Z</time></trkpt>
<trkpt lat="43.0375270000" lon="0.1362250000"><ele>1112</ele><time>2026-03-18T10:50:20Z</time></trkpt>
<trkpt lat="43.0375250000" lon="0.1361950000"><ele>1112</ele><time>2026-03-18T10:50:22Z</time></trkpt>
<trkpt lat="43.0375170000" lon="0.1361670000"><ele>1113</ele><time>2026-03-18T10:50:24Z</time></trkpt>
<trkpt lat="43.0375200000" lon="0.1361370000"><ele>1113</ele><time>2026-03-18T10:50:26Z</time></trkpt>
<trkpt lat="43.0375220000" lon="0.1361020000"><ele>1112</ele><time>2026-03-18T10:50:28Z</time></trkpt>
<trkpt lat="43.0375120000" lon="0.1360720000"><ele>1113</ele><time>2026-03-18T10:50:30Z</time></trkpt>
<trkpt lat="43.0374970000" lon="0.1360430000"><ele>1113</ele><time>2026-03-18T10:50:32Z</time></trkpt>
<trkpt lat="43.0374970000" lon="0.1360120000"><ele>1113</ele><time>2026-03-18T10:50:34Z</time></trkpt>
<trkpt lat="43.0374900000" lon="0.1359800000"><ele>1113</ele><time>2026-03-18T10:50:36Z</time></trkpt>
<trkpt lat="43.0374770000" lon="0.1359470000"><ele>1113</ele><time>2026-03-18T10:50:38Z</time></trkpt>
<trkpt lat="43.0374720000" lon="0.1359220000"><ele>1112</ele><time>2026-03-18T10:50:40Z</time></trkpt>
<trkpt lat="43.0374720000" lon="0.1358930000"><ele>1112</ele><time>2026-03-18T10:50:42Z</time></trkpt>
<trkpt lat="43.0374720000" lon="0.1358650000"><ele>1112</ele><time>2026-03-18T10:50:44Z</time></trkpt>
<trkpt lat="43.0374570000" lon="0.1358450000"><ele>1112</ele><time>2026-03-18T10:50:47Z</time></trkpt>
<trkpt lat="43.0374350000" lon="0.1358250000"><ele>1112</ele><time>2026-03-18T10:50:50Z</time></trkpt>
<trkpt lat="43.0374170000" lon="0.1358070000"><ele>1112</ele><time>2026-03-18T10:50:52Z</time></trkpt>
<trkpt lat="43.0373980000" lon="0.1357880000"><ele>1112</ele><time>2026-03-18T10:50:54Z</time></trkpt>
<trkpt lat="43.0373820000" lon="0.1357630000"><ele>1111</ele><time>2026-03-18T10:50:56Z</time></trkpt>
<trkpt lat="43.0373600000" lon="0.1357370000"><ele>1111</ele><time>2026-03-18T10:50:58Z</time></trkpt>
<trkpt lat="43.0373520000" lon="0.1357120000"><ele>1111</ele><time>2026-03-18T10:51:00Z</time></trkpt>
<trkpt lat="43.0373370000" lon="0.1356850000"><ele>1111</ele><time>2026-03-18T10:51:03Z</time></trkpt>
<trkpt lat="43.0373270000" lon="0.1356550000"><ele>1111</ele><time>2026-03-18T10:51:06Z</time></trkpt>
<trkpt lat="43.0373020000" lon="0.1356350000"><ele>1110</ele><time>2026-03-18T10:51:08Z</time></trkpt>
<trkpt lat="43.0372820000" lon="0.1356170000"><ele>1110</ele><time>2026-03-18T10:51:10Z</time></trkpt>
<trkpt lat="43.0372620000" lon="0.1355970000"><ele>1110</ele><time>2026-03-18T10:51:12Z</time></trkpt>
<trkpt lat="43.0372450000" lon="0.1355870000"><ele>1110</ele><time>2026-03-18T10:51:13Z</time></trkpt>
<trkpt lat="43.0372270000" lon="0.1355520000"><ele>1110</ele><time>2026-03-18T10:51:15Z</time></trkpt>
<trkpt lat="43.0372100000" lon="0.1355250000"><ele>1110</ele><time>2026-03-18T10:51:17Z</time></trkpt>
<trkpt lat="43.0371950000" lon="0.1355000000"><ele>1110</ele><time>2026-03-18T10:51:20Z</time></trkpt>
<trkpt lat="43.0371770000" lon="0.1354820000"><ele>1109</ele><time>2026-03-18T10:51:22Z</time></trkpt>
<trkpt lat="43.0371620000" lon="0.1354650000"><ele>1109</ele><time>2026-03-18T10:51:24Z</time></trkpt>
<trkpt lat="43.0371520000" lon="0.1354400000"><ele>1109</ele><time>2026-03-18T10:51:26Z</time></trkpt>
<trkpt lat="43.0371370000" lon="0.1354170000"><ele>1109</ele><time>2026-03-18T10:51:29Z</time></trkpt>
<trkpt lat="43.0371420000" lon="0.1353920000"><ele>1109</ele><time>2026-03-18T10:51:31Z</time></trkpt>
<trkpt lat="43.0371300000" lon="0.1353650000"><ele>1109</ele><time>2026-03-18T10:51:33Z</time></trkpt>
<trkpt lat="43.0371170000" lon="0.1353370000"><ele>1109</ele><time>2026-03-18T10:51:35Z</time></trkpt>
<trkpt lat="43.0371000000" lon="0.1353170000"><ele>1109</ele><time>2026-03-18T10:51:37Z</time></trkpt>
<trkpt lat="43.0370870000" lon="0.1352920000"><ele>1109</ele><time>2026-03-18T10:51:39Z</time></trkpt>
<trkpt lat="43.0370720000" lon="0.1352650000"><ele>1108</ele><time>2026-03-18T10:51:41Z</time></trkpt>
<trkpt lat="43.0370570000" lon="0.1352280000"><ele>1108</ele><time>2026-03-18T10:51:43Z</time></trkpt>
<trkpt lat="43.0370420000" lon="0.1351970000"><ele>1108</ele><time>2026-03-18T10:51:45Z</time></trkpt>
<trkpt lat="43.0370370000" lon="0.1351670000"><ele>1108</ele><time>2026-03-18T10:51:47Z</time></trkpt>
<trkpt lat="43.0370170000" lon="0.1351470000"><ele>1108</ele><time>2026-03-18T10:51:49Z</time></trkpt>
<trkpt lat="43.0370120000" lon="0.1351220000"><ele>1108</ele><time>2026-03-18T10:51:51Z</time></trkpt>
<trkpt lat="43.0370050000" lon="0.1350870000"><ele>1108</ele><time>2026-03-18T10:51:53Z</time></trkpt>
<trkpt lat="43.0370000000" lon="0.1350520000"><ele>1108</ele><time>2026-03-18T10:51:55Z</time></trkpt>
<trkpt lat="43.0370020000" lon="0.1350200000"><ele>1108</ele><time>2026-03-18T10:51:57Z</time></trkpt>
<trkpt lat="43.0369950000" lon="0.1349900000"><ele>1108</ele><time>2026-03-18T10:51:59Z</time></trkpt>
<trkpt lat="43.0369750000" lon="0.1349650000"><ele>1107</ele><time>2026-03-18T10:52:01Z</time></trkpt>
<trkpt lat="43.0369570000" lon="0.1349450000"><ele>1107</ele><time>2026-03-18T10:52:03Z</time></trkpt>
<trkpt lat="43.0369470000" lon="0.1349070000"><ele>1107</ele><time>2026-03-18T10:52:06Z</time></trkpt>
<trkpt lat="43.0369320000" lon="0.1348750000"><ele>1107</ele><time>2026-03-18T10:52:08Z</time></trkpt>
<trkpt lat="43.0369250000" lon="0.1348370000"><ele>1106</ele><time>2026-03-18T10:52:10Z</time></trkpt>
<trkpt lat="43.0369120000" lon="0.1347970000"><ele>1106</ele><time>2026-03-18T10:52:12Z</time></trkpt>
<trkpt lat="43.0369050000" lon="0.1347720000"><ele>1106</ele><time>2026-03-18T10:52:13Z</time></trkpt>
<trkpt lat="43.0368970000" lon="0.1347370000"><ele>1106</ele><time>2026-03-18T10:52:15Z</time></trkpt>
<trkpt lat="43.0368920000" lon="0.1347070000"><ele>1106</ele><time>2026-03-18T10:52:17Z</time></trkpt>
<trkpt lat="43.0368920000" lon="0.1346820000"><ele>1106</ele><time>2026-03-18T10:52:19Z</time></trkpt>
<trkpt lat="43.0368780000" lon="0.1346530000"><ele>1105</ele><time>2026-03-18T10:52:23Z</time></trkpt>
<trkpt lat="43.0368670000" lon="0.1346370000"><ele>1105</ele><time>2026-03-18T10:52:26Z</time></trkpt>
<trkpt lat="43.0368620000" lon="0.1346070000"><ele>1105</ele><time>2026-03-18T10:52:29Z</time></trkpt>
<trkpt lat="43.0368720000" lon="0.1345700000"><ele>1105</ele><time>2026-03-18T10:52:31Z</time></trkpt>
<trkpt lat="43.0368820000" lon="0.1345470000"><ele>1105</ele><time>2026-03-18T10:52:32Z</time></trkpt>
<trkpt lat="43.0368970000" lon="0.1345120000"><ele>1106</ele><time>2026-03-18T10:52:34Z</time></trkpt>
<trkpt lat="43.0369120000" lon="0.1344850000"><ele>1106</ele><time>2026-03-18T10:52:36Z</time></trkpt>
<trkpt lat="43.0369270000" lon="0.1344520000"><ele>1105</ele><time>2026-03-18T10:52:38Z</time></trkpt>
<trkpt lat="43.0369270000" lon="0.1344170000"><ele>1105</ele><time>2026-03-18T10:52:40Z</time></trkpt>
<trkpt lat="43.0369300000" lon="0.1343870000"><ele>1105</ele><time>2026-03-18T10:52:42Z</time></trkpt>
<trkpt lat="43.0369370000" lon="0.1343570000"><ele>1105</ele><time>2026-03-18T10:52:44Z</time></trkpt>
<trkpt lat="43.0369480000" lon="0.1343300000"><ele>1105</ele><time>2026-03-18T10:52:47Z</time></trkpt>
<trkpt lat="43.0369480000" lon="0.1343000000"><ele>1105</ele><time>2026-03-18T10:52:49Z</time></trkpt>
<trkpt lat="43.0369450000" lon="0.1342750000"><ele>1104</ele><time>2026-03-18T10:52:51Z</time></trkpt>
<trkpt lat="43.0369470000" lon="0.1342500000"><ele>1105</ele><time>2026-03-18T10:52:53Z</time></trkpt>
<trkpt lat="43.0369570000" lon="0.1342220000"><ele>1105</ele><time>2026-03-18T10:52:55Z</time></trkpt>
<trkpt lat="43.0369750000" lon="0.1342020000"><ele>1105</ele><time>2026-03-18T10:52:57Z</time></trkpt>
<trkpt lat="43.0369870000" lon="0.1341720000"><ele>1105</ele><time>2026-03-18T10:53:00Z</time></trkpt>
<trkpt lat="43.0369970000" lon="0.1341470000"><ele>1105</ele><time>2026-03-18T10:53:02Z</time></trkpt>
<trkpt lat="43.0370070000" lon="0.1341170000"><ele>1105</ele><time>2026-03-18T10:53:04Z</time></trkpt>
<trkpt lat="43.0370220000" lon="0.1340930000"><ele>1105</ele><time>2026-03-18T10:53:06Z</time></trkpt>
<trkpt lat="43.0370420000" lon="0.1340720000"><ele>1105</ele><time>2026-03-18T10:53:08Z</time></trkpt>
<trkpt lat="43.0370550000" lon="0.1340420000"><ele>1105</ele><time>2026-03-18T10:53:11Z</time></trkpt>
<trkpt lat="43.0370670000" lon="0.1340080000"><ele>1105</ele><time>2026-03-18T10:53:13Z</time></trkpt>
<trkpt lat="43.0370800000" lon="0.1339870000"><ele>1104</ele><time>2026-03-18T10:53:15Z</time></trkpt>
<trkpt lat="43.0370850000" lon="0.1339620000"><ele>1105</ele><time>2026-03-18T10:53:18Z</time></trkpt>
<trkpt lat="43.0370920000" lon="0.1339350000"><ele>1104</ele><time>2026-03-18T10:53:21Z</time></trkpt>
<trkpt lat="43.0371030000" lon="0.1339120000"><ele>1105</ele><time>2026-03-18T10:53:23Z</time></trkpt>
<trkpt lat="43.0371120000" lon="0.1338800000"><ele>1105</ele><time>2026-03-18T10:53:25Z</time></trkpt>
<trkpt lat="43.0371320000" lon="0.1338420000"><ele>1104</ele><time>2026-03-18T10:53:27Z</time></trkpt>
<trkpt lat="43.0371470000" lon="0.1338300000"><ele>1105</ele><time>2026-03-18T10:53:28Z</time></trkpt>
<trkpt lat="43.0371570000" lon="0.1338050000"><ele>1105</ele><time>2026-03-18T10:53:31Z</time></trkpt>
<trkpt lat="43.0371620000" lon="0.1337770000"><ele>1105</ele><time>2026-03-18T10:53:33Z</time></trkpt>
<trkpt lat="43.0371700000" lon="0.1337500000"><ele>1105</ele><time>2026-03-18T10:53:35Z</time></trkpt>
<trkpt lat="43.0371820000" lon="0.1337270000"><ele>1105</ele><time>2026-03-18T10:53:37Z</time></trkpt>
<trkpt lat="43.0372000000" lon="0.1337080000"><ele>1105</ele><time>2026-03-18T10:53:40Z</time></trkpt>
<trkpt lat="43.0372120000" lon="0.1336900000"><ele>1105</ele><time>2026-03-18T10:53:42Z</time></trkpt>
<trkpt lat="43.0372270000" lon="0.1336720000"><ele>1105</ele><time>2026-03-18T10:53:45Z</time></trkpt>
<trkpt lat="43.0372370000" lon="0.1336470000"><ele>1105</ele><time>2026-03-18T10:53:48Z</time></trkpt>
<trkpt lat="43.0372450000" lon="0.1336220000"><ele>1105</ele><time>2026-03-18T10:53:50Z</time></trkpt>
<trkpt lat="43.0372570000" lon="0.1336020000"><ele>1105</ele><time>2026-03-18T10:53:52Z</time></trkpt>
<trkpt lat="43.0372770000" lon="0.1335770000"><ele>1106</ele><time>2026-03-18T10:53:55Z</time></trkpt>
<trkpt lat="43.0372720000" lon="0.1335420000"><ele>1106</ele><time>2026-03-18T10:53:58Z</time></trkpt>
<trkpt lat="43.0372750000" lon="0.1335170000"><ele>1105</ele><time>2026-03-18T10:54:00Z</time></trkpt>
<trkpt lat="43.0372770000" lon="0.1334870000"><ele>1105</ele><time>2026-03-18T10:54:02Z</time></trkpt>
<trkpt lat="43.0372850000" lon="0.1334620000"><ele>1106</ele><time>2026-03-18T10:54:04Z</time></trkpt>
<trkpt lat="43.0372820000" lon="0.1334320000"><ele>1105</ele><time>2026-03-18T10:54:07Z</time></trkpt>
<trkpt lat="43.0372900000" lon="0.1334070000"><ele>1105</ele><time>2026-03-18T10:54:26Z</time></trkpt>
<trkpt lat="43.0372770000" lon="0.1334230000"><ele>1105</ele><time>2026-03-18T10:54:32Z</time></trkpt>
<trkpt lat="43.0373020000" lon="0.1334270000"><ele>1106</ele><time>2026-03-18T10:54:49Z</time></trkpt>
<trkpt lat="43.0373220000" lon="0.1334220000"><ele>1106</ele><time>2026-03-18T10:54:51Z</time></trkpt>
<trkpt lat="43.0373200000" lon="0.1333920000"><ele>1106</ele><time>2026-03-18T10:55:15Z</time></trkpt>
<trkpt lat="43.0373120000" lon="0.1333420000"><ele>1106</ele><time>2026-03-18T10:55:17Z</time></trkpt>
<trkpt lat="43.0373120000" lon="0.1333120000"><ele>1106</ele><time>2026-03-18T10:55:18Z</time></trkpt>
<trkpt lat="43.0373120000" lon="0.1332870000"><ele>1106</ele><time>2026-03-18T10:55:19Z</time></trkpt>
<trkpt lat="43.0373120000" lon="0.1332580000"><ele>1106</ele><time>2026-03-18T10:55:20Z</time></trkpt>
<trkpt lat="43.0373170000" lon="0.1332170000"><ele>1106</ele><time>2026-03-18T10:55:22Z</time></trkpt>
<trkpt lat="43.0373220000" lon="0.1331820000"><ele>1106</ele><time>2026-03-18T10:55:24Z</time></trkpt>
<trkpt lat="43.0373220000" lon="0.1331520000"><ele>1106</ele><time>2026-03-18T10:55:26Z</time></trkpt>
<trkpt lat="43.0373270000" lon="0.1331180000"><ele>1107</ele><time>2026-03-18T10:55:28Z</time></trkpt>
<trkpt lat="43.0373320000" lon="0.1330920000"><ele>1107</ele><time>2026-03-18T10:55:30Z</time></trkpt>
<trkpt lat="43.0373350000" lon="0.1330550000"><ele>1107</ele><time>2026-03-18T10:55:32Z</time></trkpt>
<trkpt lat="43.0373400000" lon="0.1330170000"><ele>1107</ele><time>2026-03-18T10:55:34Z</time></trkpt>
<trkpt lat="43.0373400000" lon="0.1329830000"><ele>1107</ele><time>2026-03-18T10:55:36Z</time></trkpt>
<trkpt lat="43.0373420000" lon="0.1329550000"><ele>1108</ele><time>2026-03-18T10:55:38Z</time></trkpt>
<trkpt lat="43.0373420000" lon="0.1329300000"><ele>1108</ele><time>2026-03-18T10:55:40Z</time></trkpt>
<trkpt lat="43.0373470000" lon="0.1328980000"><ele>1108</ele><time>2026-03-18T10:55:42Z</time></trkpt>
<trkpt lat="43.0373420000" lon="0.1328680000"><ele>1108</ele><time>2026-03-18T10:55:44Z</time></trkpt>
<trkpt lat="43.0373450000" lon="0.1328350000"><ele>1108</ele><time>2026-03-18T10:55:46Z</time></trkpt>
<trkpt lat="43.0373420000" lon="0.1328020000"><ele>1108</ele><time>2026-03-18T10:55:48Z</time></trkpt>
<trkpt lat="43.0373420000" lon="0.1327700000"><ele>1108</ele><time>2026-03-18T10:55:51Z</time></trkpt>
<trkpt lat="43.0373620000" lon="0.1327420000"><ele>1109</ele><time>2026-03-18T10:55:54Z</time></trkpt>
<trkpt lat="43.0373750000" lon="0.1327130000"><ele>1109</ele><time>2026-03-18T10:55:56Z</time></trkpt>
<trkpt lat="43.0373870000" lon="0.1326770000"><ele>1109</ele><time>2026-03-18T10:55:58Z</time></trkpt>
<trkpt lat="43.0373920000" lon="0.1326270000"><ele>1109</ele><time>2026-03-18T10:56:00Z</time></trkpt>
<trkpt lat="43.0373980000" lon="0.1325820000"><ele>1109</ele><time>2026-03-18T10:56:02Z</time></trkpt>
<trkpt lat="43.0374020000" lon="0.1325400000"><ele>1109</ele><time>2026-03-18T10:56:04Z</time></trkpt>
<trkpt lat="43.0374050000" lon="0.1324970000"><ele>1109</ele><time>2026-03-18T10:56:06Z</time></trkpt>
<trkpt lat="43.0374120000" lon="0.1324580000"><ele>1109</ele><time>2026-03-18T10:56:08Z</time></trkpt>
<trkpt lat="43.0374120000" lon="0.1324230000"><ele>1109</ele><time>2026-03-18T10:56:13Z</time></trkpt>
<trkpt lat="43.0374200000" lon="0.1323970000"><ele>1109</ele><time>2026-03-18T10:56:15Z</time></trkpt>
<trkpt lat="43.0374170000" lon="0.1323720000"><ele>1109</ele><time>2026-03-18T10:56:17Z</time></trkpt>
<trkpt lat="43.0374150000" lon="0.1323350000"><ele>1109</ele><time>2026-03-18T10:56:20Z</time></trkpt>
<trkpt lat="43.0374070000" lon="0.1322980000"><ele>1109</ele><time>2026-03-18T10:56:23Z</time></trkpt>
<trkpt lat="43.0373920000" lon="0.1322670000"><ele>1109</ele><time>2026-03-18T10:56:25Z</time></trkpt>
<trkpt lat="43.0373850000" lon="0.1322420000"><ele>1109</ele><time>2026-03-18T10:56:27Z</time></trkpt>
<trkpt lat="43.0373700000" lon="0.1322100000"><ele>1109</ele><time>2026-03-18T10:56:29Z</time></trkpt>
<trkpt lat="43.0373570000" lon="0.1321900000"><ele>1109</ele><time>2026-03-18T10:56:31Z</time></trkpt>
<trkpt lat="43.0373450000" lon="0.1321620000"><ele>1109</ele><time>2026-03-18T10:56:33Z</time></trkpt>
<trkpt lat="43.0373400000" lon="0.1321320000"><ele>1109</ele><time>2026-03-18T10:56:35Z</time></trkpt>
<trkpt lat="43.0373220000" lon="0.1321120000"><ele>1109</ele><time>2026-03-18T10:56:37Z</time></trkpt>
<trkpt lat="43.0373050000" lon="0.1320920000"><ele>1109</ele><time>2026-03-18T10:56:39Z</time></trkpt>
<trkpt lat="43.0373000000" lon="0.1320620000"><ele>1109</ele><time>2026-03-18T10:56:42Z</time></trkpt>
<trkpt lat="43.0372870000" lon="0.1320430000"><ele>1109</ele><time>2026-03-18T10:56:44Z</time></trkpt>
<trkpt lat="43.0372720000" lon="0.1320170000"><ele>1109</ele><time>2026-03-18T10:56:47Z</time></trkpt>
<trkpt lat="43.0372620000" lon="0.1319870000"><ele>1109</ele><time>2026-03-18T10:56:50Z</time></trkpt>
<trkpt lat="43.0372500000" lon="0.1319620000"><ele>1109</ele><time>2026-03-18T10:56:52Z</time></trkpt>
<trkpt lat="43.0372400000" lon="0.1319420000"><ele>1109</ele><time>2026-03-18T10:56:54Z</time></trkpt>
<trkpt lat="43.0372270000" lon="0.1319120000"><ele>1109</ele><time>2026-03-18T10:56:57Z</time></trkpt>
<trkpt lat="43.0372070000" lon="0.1318900000"><ele>1109</ele><time>2026-03-18T10:56:59Z</time></trkpt>
<trkpt lat="43.0371870000" lon="0.1318670000"><ele>1109</ele><time>2026-03-18T10:57:01Z</time></trkpt>
<trkpt lat="43.0371730000" lon="0.1318370000"><ele>1109</ele><time>2026-03-18T10:57:03Z</time></trkpt>
<trkpt lat="43.0371570000" lon="0.1318000000"><ele>1109</ele><time>2026-03-18T10:57:05Z</time></trkpt>
<trkpt lat="43.0371370000" lon="0.1317670000"><ele>1109</ele><time>2026-03-18T10:57:07Z</time></trkpt>
<trkpt lat="43.0371120000" lon="0.1317630000"><ele>1108</ele><time>2026-03-18T10:57:09Z</time></trkpt>
<trkpt lat="43.0371100000" lon="0.1317220000"><ele>1109</ele><time>2026-03-18T10:57:12Z</time></trkpt>
<trkpt lat="43.0370920000" lon="0.1316870000"><ele>1108</ele><time>2026-03-18T10:57:14Z</time></trkpt>
<trkpt lat="43.0370770000" lon="0.1316550000"><ele>1108</ele><time>2026-03-18T10:57:16Z</time></trkpt>
<trkpt lat="43.0370620000" lon="0.1316270000"><ele>1108</ele><time>2026-03-18T10:57:18Z</time></trkpt>
<trkpt lat="43.0370570000" lon="0.1315930000"><ele>1108</ele><time>2026-03-18T10:57:21Z</time></trkpt>
<trkpt lat="43.0370370000" lon="0.1315920000"><ele>1108</ele><time>2026-03-18T10:57:23Z</time></trkpt>
<trkpt lat="43.0370300000" lon="0.1315670000"><ele>1108</ele><time>2026-03-18T10:57:25Z</time></trkpt>
<trkpt lat="43.0370070000" lon="0.1315370000"><ele>1108</ele><time>2026-03-18T10:57:28Z</time></trkpt>
<trkpt lat="43.0369750000" lon="0.1315270000"><ele>1108</ele><time>2026-03-18T10:57:30Z</time></trkpt>
<trkpt lat="43.0369570000" lon="0.1315080000"><ele>1108</ele><time>2026-03-18T10:57:33Z</time></trkpt>
<trkpt lat="43.0369480000" lon="0.1314770000"><ele>1108</ele><time>2026-03-18T10:57:36Z</time></trkpt>
<trkpt lat="43.0369350000" lon="0.1314520000"><ele>1108</ele><time>2026-03-18T10:57:39Z</time></trkpt>
<trkpt lat="43.0369220000" lon="0.1314270000"><ele>1108</ele><time>2026-03-18T10:57:41Z</time></trkpt>
<trkpt lat="43.0369120000" lon="0.1314020000"><ele>1107</ele><time>2026-03-18T10:57:43Z</time></trkpt>
<trkpt lat="43.0368970000" lon="0.1313870000"><ele>1107</ele><time>2026-03-18T10:57:45Z</time></trkpt>
<trkpt lat="43.0368780000" lon="0.1313720000"><ele>1107</ele><time>2026-03-18T10:57:47Z</time></trkpt>
<trkpt lat="43.0368570000" lon="0.1313570000"><ele>1107</ele><time>2026-03-18T10:57:49Z</time></trkpt>
<trkpt lat="43.0368320000" lon="0.1313430000"><ele>1107</ele><time>2026-03-18T10:57:51Z</time></trkpt>
<trkpt lat="43.0368120000" lon="0.1313130000"><ele>1107</ele><time>2026-03-18T10:57:53Z</time></trkpt>
<trkpt lat="43.0367920000" lon="0.1312970000"><ele>1107</ele><time>2026-03-18T10:57:55Z</time></trkpt>
<trkpt lat="43.0367750000" lon="0.1312750000"><ele>1107</ele><time>2026-03-18T10:57:57Z</time></trkpt>
<trkpt lat="43.0367570000" lon="0.1312620000"><ele>1107</ele><time>2026-03-18T10:57:59Z</time></trkpt>
<trkpt lat="43.0367320000" lon="0.1312450000"><ele>1107</ele><time>2026-03-18T10:58:01Z</time></trkpt>
<trkpt lat="43.0367070000" lon="0.1312320000"><ele>1107</ele><time>2026-03-18T10:58:03Z</time></trkpt>
<trkpt lat="43.0366920000" lon="0.1312020000"><ele>1107</ele><time>2026-03-18T10:58:06Z</time></trkpt>
<trkpt lat="43.0366720000" lon="0.1311750000"><ele>1107</ele><time>2026-03-18T10:58:08Z</time></trkpt>
<trkpt lat="43.0366570000" lon="0.1311470000"><ele>1107</ele><time>2026-03-18T10:58:10Z</time></trkpt>
<trkpt lat="43.0366420000" lon="0.1311270000"><ele>1107</ele><time>2026-03-18T10:58:12Z</time></trkpt>
<trkpt lat="43.0366250000" lon="0.1311050000"><ele>1107</ele><time>2026-03-18T10:58:14Z</time></trkpt>
<trkpt lat="43.0366150000" lon="0.1310800000"><ele>1107</ele><time>2026-03-18T10:58:16Z</time></trkpt>
<trkpt lat="43.0366020000" lon="0.1310620000"><ele>1107</ele><time>2026-03-18T10:58:18Z</time></trkpt>
<trkpt lat="43.0365850000" lon="0.1310350000"><ele>1107</ele><time>2026-03-18T10:58:21Z</time></trkpt>
<trkpt lat="43.0365620000" lon="0.1310070000"><ele>1107</ele><time>2026-03-18T10:58:23Z</time></trkpt>
<trkpt lat="43.0365370000" lon="0.1309920000"><ele>1106</ele><time>2026-03-18T10:58:25Z</time></trkpt>
<trkpt lat="43.0365170000" lon="0.1309720000"><ele>1106</ele><time>2026-03-18T10:58:27Z</time></trkpt>
<trkpt lat="43.0365020000" lon="0.1309570000"><ele>1106</ele><time>2026-03-18T10:58:29Z</time></trkpt>
<trkpt lat="43.0364820000" lon="0.1309400000"><ele>1106</ele><time>2026-03-18T10:58:31Z</time></trkpt>
<trkpt lat="43.0364600000" lon="0.1309220000"><ele>1106</ele><time>2026-03-18T10:58:33Z</time></trkpt>
<trkpt lat="43.0364400000" lon="0.1308980000"><ele>1106</ele><time>2026-03-18T10:58:35Z</time></trkpt>
<trkpt lat="43.0364270000" lon="0.1308800000"><ele>1106</ele><time>2026-03-18T10:58:37Z</time></trkpt>
<trkpt lat="43.0364130000" lon="0.1308470000"><ele>1106</ele><time>2026-03-18T10:58:40Z</time></trkpt>
<trkpt lat="43.0364000000" lon="0.1308270000"><ele>1106</ele><time>2026-03-18T10:58:47Z</time></trkpt>
<trkpt lat="43.0363920000" lon="0.1307930000"><ele>1106</ele><time>2026-03-18T10:58:58Z</time></trkpt>
<trkpt lat="43.0363700000" lon="0.1307680000"><ele>1106</ele><time>2026-03-18T10:59:00Z</time></trkpt>
<trkpt lat="43.0363470000" lon="0.1307420000"><ele>1106</ele><time>2026-03-18T10:59:02Z</time></trkpt>
<trkpt lat="43.0363300000" lon="0.1307150000"><ele>1105</ele><time>2026-03-18T10:59:04Z</time></trkpt>
<trkpt lat="43.0363100000" lon="0.1306970000"><ele>1105</ele><time>2026-03-18T10:59:06Z</time></trkpt>
<trkpt lat="43.0362920000" lon="0.1306750000"><ele>1105</ele><time>2026-03-18T10:59:08Z</time></trkpt>
<trkpt lat="43.0362770000" lon="0.1306520000"><ele>1105</ele><time>2026-03-18T10:59:10Z</time></trkpt>
<trkpt lat="43.0362570000" lon="0.1306370000"><ele>1105</ele><time>2026-03-18T10:59:13Z</time></trkpt>
<trkpt lat="43.0362350000" lon="0.1306420000"><ele>1105</ele><time>2026-03-18T10:59:19Z</time></trkpt>
<trkpt lat="43.0362170000" lon="0.1306220000"><ele>1104</ele><time>2026-03-18T10:59:43Z</time></trkpt>
<trkpt lat="43.0362120000" lon="0.1305920000"><ele>1104</ele><time>2026-03-18T10:59:48Z</time></trkpt>
<trkpt lat="43.0361970000" lon="0.1305770000"><ele>1104</ele><time>2026-03-18T10:59:52Z</time></trkpt>
<trkpt lat="43.0361820000" lon="0.1305600000"><ele>1104</ele><time>2026-03-18T10:59:54Z</time></trkpt>
<trkpt lat="43.0361700000" lon="0.1305350000"><ele>1104</ele><time>2026-03-18T10:59:56Z</time></trkpt>
<trkpt lat="43.0361570000" lon="0.1305070000"><ele>1104</ele><time>2026-03-18T10:59:59Z</time></trkpt>
<trkpt lat="43.0361520000" lon="0.1304820000"><ele>1104</ele><time>2026-03-18T11:00:01Z</time></trkpt>
<trkpt lat="43.0361370000" lon="0.1304620000"><ele>1104</ele><time>2026-03-18T11:00:03Z</time></trkpt>
<trkpt lat="43.0361270000" lon="0.1304370000"><ele>1104</ele><time>2026-03-18T11:00:05Z</time></trkpt>
<trkpt lat="43.0361120000" lon="0.1304200000"><ele>1104</ele><time>2026-03-18T11:00:07Z</time></trkpt>
<trkpt lat="43.0360920000" lon="0.1304020000"><ele>1104</ele><time>2026-03-18T11:00:09Z</time></trkpt>
<trkpt lat="43.0360820000" lon="0.1303770000"><ele>1103</ele><time>2026-03-18T11:00:11Z</time></trkpt>
<trkpt lat="43.0360670000" lon="0.1303530000"><ele>1103</ele><time>2026-03-18T11:00:13Z</time></trkpt>
<trkpt lat="43.0360520000" lon="0.1303270000"><ele>1103</ele><time>2026-03-18T11:00:15Z</time></trkpt>
<trkpt lat="43.0360330000" lon="0.1303020000"><ele>1103</ele><time>2026-03-18T11:00:17Z</time></trkpt>
<trkpt lat="43.0360220000" lon="0.1302770000"><ele>1103</ele><time>2026-03-18T11:00:19Z</time></trkpt>
<trkpt lat="43.0360070000" lon="0.1302550000"><ele>1103</ele><time>2026-03-18T11:00:21Z</time></trkpt>
<trkpt lat="43.0359950000" lon="0.1302330000"><ele>1103</ele><time>2026-03-18T11:00:23Z</time></trkpt>
<trkpt lat="43.0359820000" lon="0.1302080000"><ele>1103</ele><time>2026-03-18T11:00:27Z</time></trkpt>
<trkpt lat="43.0359670000" lon="0.1301900000"><ele>1103</ele><time>2026-03-18T11:00:31Z</time></trkpt>
<trkpt lat="43.0359520000" lon="0.1301620000"><ele>1103</ele><time>2026-03-18T11:00:33Z</time></trkpt>
<trkpt lat="43.0359370000" lon="0.1301450000"><ele>1103</ele><time>2026-03-18T11:00:40Z</time></trkpt>
<trkpt lat="43.0359270000" lon="0.1301220000"><ele>1103</ele><time>2026-03-18T11:00:42Z</time></trkpt>
<trkpt lat="43.0359120000" lon="0.1300930000"><ele>1103</ele><time>2026-03-18T11:00:44Z</time></trkpt>
<trkpt lat="43.0359020000" lon="0.1300720000"><ele>1103</ele><time>2026-03-18T11:00:46Z</time></trkpt>
<trkpt lat="43.0358870000" lon="0.1300520000"><ele>1103</ele><time>2026-03-18T11:00:48Z</time></trkpt>
<trkpt lat="43.0358720000" lon="0.1300300000"><ele>1103</ele><time>2026-03-18T11:00:50Z</time></trkpt>
<trkpt lat="43.0358570000" lon="0.1300070000"><ele>1103</ele><time>2026-03-18T11:00:52Z</time></trkpt>
<trkpt lat="43.0358450000" lon="0.1299900000"><ele>1103</ele><time>2026-03-18T11:00:54Z</time></trkpt>
<trkpt lat="43.0358270000" lon="0.1299830000"><ele>1103</ele><time>2026-03-18T11:01:04Z</time></trkpt>
<trkpt lat="43.0358050000" lon="0.1300080000"><ele>1103</ele><time>2026-03-18T11:02:09Z</time></trkpt>
<trkpt lat="43.0357850000" lon="0.1300370000"><ele>1103</ele><time>2026-03-18T11:02:11Z</time></trkpt>
<trkpt lat="43.0357670000" lon="0.1300680000"><ele>1103</ele><time>2026-03-18T11:02:13Z</time></trkpt>
<trkpt lat="43.0357570000" lon="0.1301020000"><ele>1103</ele><time>2026-03-18T11:02:15Z</time></trkpt>
<trkpt lat="43.0357520000" lon="0.1301320000"><ele>1103</ele><time>2026-03-18T11:02:17Z</time></trkpt>
<trkpt lat="43.0357500000" lon="0.1301650000"><ele>1103</ele><time>2026-03-18T11:02:20Z</time></trkpt>
<trkpt lat="43.0357520000" lon="0.1301920000"><ele>1103</ele><time>2026-03-18T11:02:57Z</time></trkpt>
<trkpt lat="43.0357520000" lon="0.1302270000"><ele>1103</ele><time>2026-03-18T11:02:59Z</time></trkpt>
<trkpt lat="43.0357520000" lon="0.1302630000"><ele>1104</ele><time>2026-03-18T11:03:01Z</time></trkpt>
<trkpt lat="43.0357520000" lon="0.1302950000"><ele>1104</ele><time>2026-03-18T11:03:03Z</time></trkpt>
<trkpt lat="43.0357520000" lon="0.1303300000"><ele>1104</ele><time>2026-03-18T11:03:06Z</time></trkpt>
<trkpt lat="43.0357500000" lon="0.1303530000"><ele>1104</ele><time>2026-03-18T11:03:08Z</time></trkpt>
<trkpt lat="43.0357470000" lon="0.1303870000"><ele>1104</ele><time>2026-03-18T11:03:11Z</time></trkpt>
<trkpt lat="43.0357470000" lon="0.1304120000"><ele>1105</ele><time>2026-03-18T11:03:13Z</time></trkpt>
<trkpt lat="43.0357450000" lon="0.1304420000"><ele>1105</ele><time>2026-03-18T11:03:16Z</time></trkpt>
<trkpt lat="43.0357380000" lon="0.1304720000"><ele>1105</ele><time>2026-03-18T11:03:19Z</time></trkpt>
<trkpt lat="43.0357320000" lon="0.1305000000"><ele>1106</ele><time>2026-03-18T11:03:22Z</time></trkpt>
<trkpt lat="43.0357270000" lon="0.1305250000"><ele>1107</ele><time>2026-03-18T11:03:25Z</time></trkpt>
<trkpt lat="43.0357420000" lon="0.1305620000"><ele>1107</ele><time>2026-03-18T11:03:28Z</time></trkpt>
<trkpt lat="43.0357570000" lon="0.1305820000"><ele>1107</ele><time>2026-03-18T11:03:30Z</time></trkpt>
<trkpt lat="43.0357720000" lon="0.1306070000"><ele>1107</ele><time>2026-03-18T11:04:12Z</time></trkpt>
<trkpt lat="43.0357820000" lon="0.1306420000"><ele>1107</ele><time>2026-03-18T11:04:14Z</time></trkpt>
<trkpt lat="43.0357920000" lon="0.1306750000"><ele>1107</ele><time>2026-03-18T11:04:16Z</time></trkpt>
<trkpt lat="43.0357920000" lon="0.1307000000"><ele>1107</ele><time>2026-03-18T11:04:18Z</time></trkpt>
<trkpt lat="43.0357920000" lon="0.1307320000"><ele>1108</ele><time>2026-03-18T11:04:21Z</time></trkpt>
<trkpt lat="43.0357970000" lon="0.1307570000"><ele>1108</ele><time>2026-03-18T11:04:24Z</time></trkpt>
<trkpt lat="43.0358070000" lon="0.1307820000"><ele>1109</ele><time>2026-03-18T11:04:27Z</time></trkpt>
<trkpt lat="43.0358080000" lon="0.1308070000"><ele>1109</ele><time>2026-03-18T11:04:30Z</time></trkpt>
<trkpt lat="43.0358080000" lon="0.1308320000"><ele>1110</ele><time>2026-03-18T11:04:33Z</time></trkpt>
<trkpt lat="43.0358120000" lon="0.1308620000"><ele>1110</ele><time>2026-03-18T11:04:37Z</time></trkpt>
<trkpt lat="43.0358120000" lon="0.1308950000"><ele>1110</ele><time>2026-03-18T11:04:40Z</time></trkpt>
<trkpt lat="43.0358250000" lon="0.1309170000"><ele>1111</ele><time>2026-03-18T11:04:42Z</time></trkpt>
<trkpt lat="43.0358400000" lon="0.1309330000"><ele>1111</ele><time>2026-03-18T11:04:45Z</time></trkpt>
<trkpt lat="43.0358470000" lon="0.1309620000"><ele>1112</ele><time>2026-03-18T11:04:49Z</time></trkpt>
<trkpt lat="43.0358670000" lon="0.1309770000"><ele>1112</ele><time>2026-03-18T11:04:52Z</time></trkpt>
<trkpt lat="43.0358820000" lon="0.1309970000"><ele>1113</ele><time>2026-03-18T11:04:56Z</time></trkpt>
<trkpt lat="43.0358900000" lon="0.1310200000"><ele>1113</ele><time>2026-03-18T11:04:59Z</time></trkpt>
<trkpt lat="43.0358930000" lon="0.1310470000"><ele>1113</ele><time>2026-03-18T11:05:02Z</time></trkpt>
<trkpt lat="43.0358920000" lon="0.1310720000"><ele>1113</ele><time>2026-03-18T11:05:06Z</time></trkpt>
<trkpt lat="43.0358930000" lon="0.1311020000"><ele>1114</ele><time>2026-03-18T11:05:10Z</time></trkpt>
<trkpt lat="43.0359020000" lon="0.1311420000"><ele>1119</ele><time>2026-03-18T11:05:57Z</time></trkpt>
<trkpt lat="43.0359120000" lon="0.1311870000"><ele>1119</ele><time>2026-03-18T11:05:58Z</time></trkpt>
<trkpt lat="43.0359200000" lon="0.1312420000"><ele>1119</ele><time>2026-03-18T11:05:59Z</time></trkpt>
<trkpt lat="43.0359270000" lon="0.1312970000"><ele>1120</ele><time>2026-03-18T11:06:00Z</time></trkpt>
<trkpt lat="43.0359350000" lon="0.1313400000"><ele>1120</ele><time>2026-03-18T11:06:01Z</time></trkpt>
<trkpt lat="43.0359420000" lon="0.1313720000"><ele>1120</ele><time>2026-03-18T11:06:02Z</time></trkpt>
<trkpt lat="43.0359550000" lon="0.1314000000"><ele>1120</ele><time>2026-03-18T11:06:04Z</time></trkpt>
<trkpt lat="43.0359720000" lon="0.1314100000"><ele>1120</ele><time>2026-03-18T11:06:07Z</time></trkpt>
<trkpt lat="43.0359820000" lon="0.1314320000"><ele>1121</ele><time>2026-03-18T11:06:13Z</time></trkpt>
<trkpt lat="43.0359920000" lon="0.1314570000"><ele>1122</ele><time>2026-03-18T11:06:17Z</time></trkpt>
<trkpt lat="43.0360070000" lon="0.1314770000"><ele>1123</ele><time>2026-03-18T11:06:24Z</time></trkpt>
<trkpt lat="43.0360120000" lon="0.1315000000"><ele>1123</ele><time>2026-03-18T11:06:27Z</time></trkpt>
<trkpt lat="43.0360170000" lon="0.1315250000"><ele>1123</ele><time>2026-03-18T11:06:30Z</time></trkpt>
<trkpt lat="43.0360450000" lon="0.1315570000"><ele>1128</ele><time>2026-03-18T11:07:04Z</time></trkpt>
<trkpt lat="43.0360650000" lon="0.1315850000"><ele>1128</ele><time>2026-03-18T11:07:05Z</time></trkpt>
<trkpt lat="43.0360900000" lon="0.1316220000"><ele>1128</ele><time>2026-03-18T11:07:06Z</time></trkpt>
<trkpt lat="43.0361150000" lon="0.1316570000"><ele>1128</ele><time>2026-03-18T11:07:07Z</time></trkpt>
<trkpt lat="43.0361320000" lon="0.1316870000"><ele>1128</ele><time>2026-03-18T11:07:08Z</time></trkpt>
<trkpt lat="43.0361450000" lon="0.1317100000"><ele>1128</ele><time>2026-03-18T11:07:10Z</time></trkpt>
<trkpt lat="43.0361250000" lon="0.1317150000"><ele>1128</ele><time>2026-03-18T11:08:27Z</time></trkpt>
<trkpt lat="43.0361180000" lon="0.1317470000"><ele>1128</ele><time>2026-03-18T11:08:31Z</time></trkpt>
<trkpt lat="43.0361400000" lon="0.1317550000"><ele>1128</ele><time>2026-03-18T11:08:49Z</time></trkpt>
<trkpt lat="43.0361170000" lon="0.1317670000"><ele>1128</ele><time>2026-03-18T11:08:52Z</time></trkpt>
<trkpt lat="43.0360920000" lon="0.1317700000"><ele>1128</ele><time>2026-03-18T11:08:54Z</time></trkpt>
<trkpt lat="43.0360720000" lon="0.1317670000"><ele>1129</ele><time>2026-03-18T11:08:56Z</time></trkpt>
<trkpt lat="43.0360600000" lon="0.1317870000"><ele>1129</ele><time>2026-03-18T11:09:00Z</time></trkpt>
<trkpt lat="43.0360520000" lon="0.1318170000"><ele>1130</ele><time>2026-03-18T11:09:06Z</time></trkpt>
<trkpt lat="43.0360670000" lon="0.1318470000"><ele>1137</ele><time>2026-03-18T11:09:57Z</time></trkpt>
<trkpt lat="43.0360870000" lon="0.1318770000"><ele>1137</ele><time>2026-03-18T11:09:58Z</time></trkpt>
<trkpt lat="43.0361120000" lon="0.1319100000"><ele>1138</ele><time>2026-03-18T11:09:59Z</time></trkpt>
<trkpt lat="43.0361370000" lon="0.1319400000"><ele>1138</ele><time>2026-03-18T11:10:00Z</time></trkpt>
<trkpt lat="43.0361600000" lon="0.1319670000"><ele>1138</ele><time>2026-03-18T11:10:01Z</time></trkpt>
<trkpt lat="43.0361770000" lon="0.1319820000"><ele>1138</ele><time>2026-03-18T11:10:02Z</time></trkpt>
<trkpt lat="43.0361950000" lon="0.1319970000"><ele>1138</ele><time>2026-03-18T11:10:04Z</time></trkpt>
<trkpt lat="43.0362100000" lon="0.1320220000"><ele>1139</ele><time>2026-03-18T11:10:09Z</time></trkpt>
<trkpt lat="43.0362270000" lon="0.1320320000"><ele>1139</ele><time>2026-03-18T11:10:14Z</time></trkpt>
<trkpt lat="43.0362370000" lon="0.1320570000"><ele>1141</ele><time>2026-03-18T11:10:32Z</time></trkpt>
<trkpt lat="43.0362450000" lon="0.1320920000"><ele>1142</ele><time>2026-03-18T11:10:34Z</time></trkpt>
<trkpt lat="43.0362500000" lon="0.1321250000"><ele>1142</ele><time>2026-03-18T11:10:36Z</time></trkpt>
<trkpt lat="43.0362670000" lon="0.1321420000"><ele>1142</ele><time>2026-03-18T11:10:39Z</time></trkpt>
<trkpt lat="43.0362820000" lon="0.1321620000"><ele>1145</ele><time>2026-03-18T11:11:09Z</time></trkpt>
<trkpt lat="43.0363050000" lon="0.1321670000"><ele>1145</ele><time>2026-03-18T11:11:12Z</time></trkpt>
<trkpt lat="43.0363270000" lon="0.1321720000"><ele>1145</ele><time>2026-03-18T11:11:15Z</time></trkpt>
<trkpt lat="43.0363430000" lon="0.1321770000"><ele>1145</ele><time>2026-03-18T11:11:17Z</time></trkpt>
<trkpt lat="43.0363520000" lon="0.1322020000"><ele>1146</ele><time>2026-03-18T11:11:19Z</time></trkpt>
<trkpt lat="43.0363430000" lon="0.1322250000"><ele>1146</ele><time>2026-03-18T11:11:22Z</time></trkpt>
<trkpt lat="43.0363420000" lon="0.1322520000"><ele>1146</ele><time>2026-03-18T11:11:26Z</time></trkpt>
<trkpt lat="43.0363670000" lon="0.1323020000"><ele>1150</ele><time>2026-03-18T11:11:53Z</time></trkpt>
<trkpt lat="43.0363870000" lon="0.1323370000"><ele>1150</ele><time>2026-03-18T11:11:54Z</time></trkpt>
<trkpt lat="43.0364100000" lon="0.1323670000"><ele>1150</ele><time>2026-03-18T11:11:55Z</time></trkpt>
<trkpt lat="43.0364300000" lon="0.1323920000"><ele>1150</ele><time>2026-03-18T11:11:56Z</time></trkpt>
<trkpt lat="43.0364450000" lon="0.1324120000"><ele>1151</ele><time>2026-03-18T11:11:57Z</time></trkpt>
<trkpt lat="43.0364570000" lon="0.1324570000"><ele>1151</ele><time>2026-03-18T11:11:59Z</time></trkpt>
<trkpt lat="43.0364770000" lon="0.1325120000"><ele>1151</ele><time>2026-03-18T11:12:01Z</time></trkpt>
<trkpt lat="43.0364720000" lon="0.1325370000"><ele>1151</ele><time>2026-03-18T11:12:02Z</time></trkpt>
<trkpt lat="43.0364900000" lon="0.1325600000"><ele>1151</ele><time>2026-03-18T11:12:04Z</time></trkpt>
<trkpt lat="43.0365100000" lon="0.1325850000"><ele>1152</ele><time>2026-03-18T11:12:07Z</time></trkpt>
<trkpt lat="43.0365170000" lon="0.1326070000"><ele>1152</ele><time>2026-03-18T11:12:10Z</time></trkpt>
<trkpt lat="43.0365270000" lon="0.1326370000"><ele>1152</ele><time>2026-03-18T11:12:13Z</time></trkpt>
<trkpt lat="43.0365270000" lon="0.1326620000"><ele>1152</ele><time>2026-03-18T11:12:15Z</time></trkpt>
<trkpt lat="43.0365200000" lon="0.1326900000"><ele>1153</ele><time>2026-03-18T11:12:18Z</time></trkpt>
<trkpt lat="43.0365350000" lon="0.1327120000"><ele>1153</ele><time>2026-03-18T11:12:21Z</time></trkpt>
<trkpt lat="43.0365370000" lon="0.1327470000"><ele>1154</ele><time>2026-03-18T11:12:24Z</time></trkpt>
<trkpt lat="43.0365320000" lon="0.1327770000"><ele>1154</ele><time>2026-03-18T11:12:28Z</time></trkpt>
<trkpt lat="43.0365220000" lon="0.1328020000"><ele>1155</ele><time>2026-03-18T11:12:31Z</time></trkpt>
<trkpt lat="43.0365120000" lon="0.1328270000"><ele>1155</ele><time>2026-03-18T11:12:35Z</time></trkpt>
<trkpt lat="43.0364820000" lon="0.1328470000"><ele>1159</ele><time>2026-03-18T11:12:58Z</time></trkpt>
<trkpt lat="43.0364620000" lon="0.1328670000"><ele>1159</ele><time>2026-03-18T11:12:59Z</time></trkpt>
<trkpt lat="43.0364470000" lon="0.1328900000"><ele>1159</ele><time>2026-03-18T11:13:00Z</time></trkpt>
<trkpt lat="43.0364370000" lon="0.1329150000"><ele>1159</ele><time>2026-03-18T11:13:01Z</time></trkpt>
<trkpt lat="43.0364270000" lon="0.1329550000"><ele>1159</ele><time>2026-03-18T11:13:03Z</time></trkpt>
<trkpt lat="43.0364250000" lon="0.1329870000"><ele>1160</ele><time>2026-03-18T11:13:05Z</time></trkpt>
<trkpt lat="43.0364220000" lon="0.1330170000"><ele>1160</ele><time>2026-03-18T11:13:08Z</time></trkpt>
<trkpt lat="43.0364170000" lon="0.1330450000"><ele>1161</ele><time>2026-03-18T11:13:15Z</time></trkpt>
<trkpt lat="43.0364200000" lon="0.1330750000"><ele>1162</ele><time>2026-03-18T11:13:18Z</time></trkpt>
<trkpt lat="43.0364130000" lon="0.1331070000"><ele>1163</ele><time>2026-03-18T11:13:23Z</time></trkpt>
<trkpt lat="43.0364100000" lon="0.1331320000"><ele>1163</ele><time>2026-03-18T11:13:26Z</time></trkpt>
<trkpt lat="43.0364000000" lon="0.1331570000"><ele>1163</ele><time>2026-03-18T11:13:30Z</time></trkpt>
<trkpt lat="43.0363970000" lon="0.1331850000"><ele>1164</ele><time>2026-03-18T11:13:33Z</time></trkpt>
<trkpt lat="43.0363900000" lon="0.1332170000"><ele>1164</ele><time>2026-03-18T11:13:36Z</time></trkpt>
<trkpt lat="43.0363950000" lon="0.1332470000"><ele>1165</ele><time>2026-03-18T11:13:39Z</time></trkpt>
<trkpt lat="43.0364070000" lon="0.1332770000"><ele>1165</ele><time>2026-03-18T11:13:42Z</time></trkpt>
<trkpt lat="43.0364100000" lon="0.1333070000"><ele>1165</ele><time>2026-03-18T11:13:45Z</time></trkpt>
<trkpt lat="43.0364020000" lon="0.1333320000"><ele>1165</ele><time>2026-03-18T11:13:49Z</time></trkpt>
<trkpt lat="43.0363750000" lon="0.1333520000"><ele>1166</ele><time>2026-03-18T11:13:52Z</time></trkpt>
<trkpt lat="43.0363550000" lon="0.1333700000"><ele>1166</ele><time>2026-03-18T11:13:55Z</time></trkpt>
<trkpt lat="43.0363400000" lon="0.1333850000"><ele>1166</ele><time>2026-03-18T11:13:57Z</time></trkpt>
<trkpt lat="43.0363170000" lon="0.1334020000"><ele>1167</ele><time>2026-03-18T11:14:00Z</time></trkpt>
<trkpt lat="43.0363120000" lon="0.1334270000"><ele>1167</ele><time>2026-03-18T11:14:02Z</time></trkpt>
<trkpt lat="43.0362920000" lon="0.1334370000"><ele>1168</ele><time>2026-03-18T11:14:05Z</time></trkpt>
<trkpt lat="43.0362720000" lon="0.1334220000"><ele>1168</ele><time>2026-03-18T11:14:08Z</time></trkpt>
<trkpt lat="43.0362550000" lon="0.1334350000"><ele>1169</ele><time>2026-03-18T11:14:12Z</time></trkpt>
<trkpt lat="43.0362370000" lon="0.1334450000"><ele>1169</ele><time>2026-03-18T11:14:15Z</time></trkpt>
<trkpt lat="43.0362170000" lon="0.1334420000"><ele>1169</ele><time>2026-03-18T11:14:17Z</time></trkpt>
<trkpt lat="43.0361970000" lon="0.1334530000"><ele>1170</ele><time>2026-03-18T11:14:20Z</time></trkpt>
<trkpt lat="43.0361770000" lon="0.1334820000"><ele>1170</ele><time>2026-03-18T11:14:23Z</time></trkpt>
<trkpt lat="43.0361600000" lon="0.1335020000"><ele>1170</ele><time>2026-03-18T11:14:26Z</time></trkpt>
<trkpt lat="43.0361400000" lon="0.1335120000"><ele>1170</ele><time>2026-03-18T11:14:29Z</time></trkpt>
<trkpt lat="43.0361220000" lon="0.1335370000"><ele>1170</ele><time>2026-03-18T11:14:32Z</time></trkpt>
<trkpt lat="43.0361120000" lon="0.1335620000"><ele>1171</ele><time>2026-03-18T11:14:39Z</time></trkpt>
<trkpt lat="43.0360950000" lon="0.1335370000"><ele>1170</ele><time>2026-03-18T11:16:10Z</time></trkpt>
<trkpt lat="43.0360770000" lon="0.1335370000"><ele>1169</ele><time>2026-03-18T11:21:01Z</time></trkpt>
<trkpt lat="43.0360470000" lon="0.1335570000"><ele>1169</ele><time>2026-03-18T11:21:03Z</time></trkpt>
<trkpt lat="43.0360200000" lon="0.1335820000"><ele>1169</ele><time>2026-03-18T11:21:05Z</time></trkpt>
<trkpt lat="43.0360120000" lon="0.1336050000"><ele>1169</ele><time>2026-03-18T11:21:07Z</time></trkpt>
<trkpt lat="43.0360120000" lon="0.1336320000"><ele>1169</ele><time>2026-03-18T11:21:09Z</time></trkpt>
<trkpt lat="43.0360300000" lon="0.1336620000"><ele>1169</ele><time>2026-03-18T11:21:11Z</time></trkpt>
<trkpt lat="43.0360330000" lon="0.1336870000"><ele>1169</ele><time>2026-03-18T11:21:13Z</time></trkpt>
<trkpt lat="43.0360370000" lon="0.1337120000"><ele>1169</ele><time>2026-03-18T11:21:16Z</time></trkpt>
<trkpt lat="43.0360270000" lon="0.1337370000"><ele>1170</ele><time>2026-03-18T11:21:19Z</time></trkpt>
<trkpt lat="43.0360000000" lon="0.1337450000"><ele>1170</ele><time>2026-03-18T11:21:22Z</time></trkpt>
<trkpt lat="43.0359770000" lon="0.1337520000"><ele>1170</ele><time>2026-03-18T11:21:24Z</time></trkpt>
<trkpt lat="43.0359520000" lon="0.1337670000"><ele>1171</ele><time>2026-03-18T11:21:27Z</time></trkpt>
<trkpt lat="43.0359370000" lon="0.1337820000"><ele>1171</ele><time>2026-03-18T11:21:30Z</time></trkpt>
<trkpt lat="43.0359220000" lon="0.1337970000"><ele>1171</ele><time>2026-03-18T11:21:33Z</time></trkpt>
<trkpt lat="43.0359020000" lon="0.1338070000"><ele>1172</ele><time>2026-03-18T11:21:36Z</time></trkpt>
<trkpt lat="43.0358850000" lon="0.1338220000"><ele>1172</ele><time>2026-03-18T11:21:39Z</time></trkpt>
<trkpt lat="43.0358670000" lon="0.1338380000"><ele>1172</ele><time>2026-03-18T11:21:42Z</time></trkpt>
<trkpt lat="43.0358520000" lon="0.1338620000"><ele>1172</ele><time>2026-03-18T11:21:44Z</time></trkpt>
<trkpt lat="43.0358350000" lon="0.1338770000"><ele>1173</ele><time>2026-03-18T11:21:48Z</time></trkpt>
<trkpt lat="43.0358220000" lon="0.1338930000"><ele>1174</ele><time>2026-03-18T11:21:54Z</time></trkpt>
<trkpt lat="43.0358320000" lon="0.1339320000"><ele>1177</ele><time>2026-03-18T11:22:13Z</time></trkpt>
<trkpt lat="43.0358370000" lon="0.1339630000"><ele>1177</ele><time>2026-03-18T11:22:16Z</time></trkpt>
<trkpt lat="43.0358270000" lon="0.1339920000"><ele>1177</ele><time>2026-03-18T11:22:19Z</time></trkpt>
<trkpt lat="43.0358400000" lon="0.1340120000"><ele>1178</ele><time>2026-03-18T11:22:22Z</time></trkpt>
<trkpt lat="43.0358420000" lon="0.1340520000"><ele>1181</ele><time>2026-03-18T11:22:48Z</time></trkpt>
<trkpt lat="43.0358350000" lon="0.1340820000"><ele>1181</ele><time>2026-03-18T11:22:49Z</time></trkpt>
<trkpt lat="43.0358300000" lon="0.1341120000"><ele>1182</ele><time>2026-03-18T11:22:50Z</time></trkpt>
<trkpt lat="43.0358120000" lon="0.1341570000"><ele>1182</ele><time>2026-03-18T11:22:52Z</time></trkpt>
<trkpt lat="43.0357970000" lon="0.1341720000"><ele>1182</ele><time>2026-03-18T11:22:54Z</time></trkpt>
<trkpt lat="43.0358170000" lon="0.1341920000"><ele>1185</ele><time>2026-03-18T11:23:34Z</time></trkpt>
<trkpt lat="43.0358170000" lon="0.1342200000"><ele>1185</ele><time>2026-03-18T11:23:35Z</time></trkpt>
<trkpt lat="43.0358170000" lon="0.1342520000"><ele>1185</ele><time>2026-03-18T11:23:36Z</time></trkpt>
<trkpt lat="43.0358220000" lon="0.1342830000"><ele>1186</ele><time>2026-03-18T11:23:37Z</time></trkpt>
<trkpt lat="43.0358250000" lon="0.1343120000"><ele>1186</ele><time>2026-03-18T11:23:38Z</time></trkpt>
<trkpt lat="43.0358250000" lon="0.1343470000"><ele>1186</ele><time>2026-03-18T11:23:40Z</time></trkpt>
<trkpt lat="43.0358070000" lon="0.1343720000"><ele>1187</ele><time>2026-03-18T11:23:44Z</time></trkpt>
<trkpt lat="43.0357870000" lon="0.1343870000"><ele>1187</ele><time>2026-03-18T11:23:48Z</time></trkpt>
<trkpt lat="43.0357870000" lon="0.1344150000"><ele>1188</ele><time>2026-03-18T11:23:53Z</time></trkpt>
<trkpt lat="43.0357520000" lon="0.1344420000"><ele>1193</ele><time>2026-03-18T11:24:21Z</time></trkpt>
<trkpt lat="43.0357220000" lon="0.1344570000"><ele>1193</ele><time>2026-03-18T11:24:22Z</time></trkpt>
<trkpt lat="43.0356920000" lon="0.1344750000"><ele>1193</ele><time>2026-03-18T11:24:23Z</time></trkpt>
<trkpt lat="43.0356670000" lon="0.1344850000"><ele>1193</ele><time>2026-03-18T11:24:24Z</time></trkpt>
<trkpt lat="43.0356420000" lon="0.1344950000"><ele>1193</ele><time>2026-03-18T11:24:26Z</time></trkpt>
<trkpt lat="43.0356220000" lon="0.1345070000"><ele>1194</ele><time>2026-03-18T11:24:30Z</time></trkpt>
<trkpt lat="43.0356020000" lon="0.1345050000"><ele>1194</ele><time>2026-03-18T11:24:31Z</time></trkpt>
<trkpt lat="43.0355800000" lon="0.1345070000"><ele>1196</ele><time>2026-03-18T11:24:59Z</time></trkpt>
<trkpt lat="43.0355820000" lon="0.1345320000"><ele>1197</ele><time>2026-03-18T11:25:05Z</time></trkpt>
<trkpt lat="43.0355970000" lon="0.1345470000"><ele>1198</ele><time>2026-03-18T11:25:14Z</time></trkpt>
<trkpt lat="43.0356150000" lon="0.1345630000"><ele>1198</ele><time>2026-03-18T11:25:18Z</time></trkpt>
<trkpt lat="43.0355900000" lon="0.1345880000"><ele>1201</ele><time>2026-03-18T11:25:51Z</time></trkpt>
<trkpt lat="43.0355720000" lon="0.1346150000"><ele>1201</ele><time>2026-03-18T11:25:53Z</time></trkpt>
<trkpt lat="43.0355770000" lon="0.1346420000"><ele>1201</ele><time>2026-03-18T11:25:56Z</time></trkpt>
<trkpt lat="43.0355820000" lon="0.1346670000"><ele>1202</ele><time>2026-03-18T11:26:02Z</time></trkpt>
<trkpt lat="43.0355620000" lon="0.1346720000"><ele>1203</ele><time>2026-03-18T11:26:12Z</time></trkpt>
<trkpt lat="43.0355450000" lon="0.1346900000"><ele>1204</ele><time>2026-03-18T11:26:15Z</time></trkpt>
<trkpt lat="43.0355420000" lon="0.1347150000"><ele>1205</ele><time>2026-03-18T11:26:20Z</time></trkpt>
<trkpt lat="43.0355420000" lon="0.1347420000"><ele>1207</ele><time>2026-03-18T11:26:47Z</time></trkpt>
<trkpt lat="43.0355570000" lon="0.1347670000"><ele>1207</ele><time>2026-03-18T11:26:49Z</time></trkpt>
<trkpt lat="43.0355570000" lon="0.1347920000"><ele>1208</ele><time>2026-03-18T11:26:53Z</time></trkpt>
<trkpt lat="43.0355420000" lon="0.1348120000"><ele>1211</ele><time>2026-03-18T11:27:14Z</time></trkpt>
<trkpt lat="43.0355130000" lon="0.1348270000"><ele>1211</ele><time>2026-03-18T11:27:16Z</time></trkpt>
<trkpt lat="43.0354970000" lon="0.1348380000"><ele>1211</ele><time>2026-03-18T11:27:17Z</time></trkpt>
<trkpt lat="43.0354670000" lon="0.1348520000"><ele>1212</ele><time>2026-03-18T11:27:19Z</time></trkpt>
<trkpt lat="43.0354770000" lon="0.1348770000"><ele>1212</ele><time>2026-03-18T11:27:23Z</time></trkpt>
<trkpt lat="43.0354970000" lon="0.1348720000"><ele>1213</ele><time>2026-03-18T11:27:24Z</time></trkpt>
<trkpt lat="43.0355220000" lon="0.1348650000"><ele>1213</ele><time>2026-03-18T11:27:26Z</time></trkpt>
<trkpt lat="43.0355420000" lon="0.1348720000"><ele>1213</ele><time>2026-03-18T11:27:28Z</time></trkpt>
<trkpt lat="43.0355270000" lon="0.1349050000"><ele>1219</ele><time>2026-03-18T11:28:50Z</time></trkpt>
<trkpt lat="43.0355100000" lon="0.1349400000"><ele>1219</ele><time>2026-03-18T11:28:51Z</time></trkpt>
<trkpt lat="43.0354870000" lon="0.1349850000"><ele>1219</ele><time>2026-03-18T11:28:52Z</time></trkpt>
<trkpt lat="43.0354670000" lon="0.1350300000"><ele>1219</ele><time>2026-03-18T11:28:53Z</time></trkpt>
<trkpt lat="43.0354520000" lon="0.1350630000"><ele>1220</ele><time>2026-03-18T11:28:54Z</time></trkpt>
<trkpt lat="43.0354420000" lon="0.1350870000"><ele>1220</ele><time>2026-03-18T11:28:55Z</time></trkpt>
<trkpt lat="43.0354200000" lon="0.1351170000"><ele>1220</ele><time>2026-03-18T11:28:58Z</time></trkpt>
<trkpt lat="43.0354170000" lon="0.1351420000"><ele>1221</ele><time>2026-03-18T11:29:05Z</time></trkpt>
<trkpt lat="43.0354200000" lon="0.1351720000"><ele>1222</ele><time>2026-03-18T11:29:12Z</time></trkpt>
<trkpt lat="43.0354100000" lon="0.1352020000"><ele>1222</ele><time>2026-03-18T11:29:14Z</time></trkpt>
<trkpt lat="43.0353900000" lon="0.1352420000"><ele>1222</ele><time>2026-03-18T11:29:16Z</time></trkpt>
<trkpt lat="43.0353720000" lon="0.1352670000"><ele>1222</ele><time>2026-03-18T11:29:18Z</time></trkpt>
<trkpt lat="43.0353570000" lon="0.1352950000"><ele>1222</ele><time>2026-03-18T11:29:21Z</time></trkpt>
<trkpt lat="43.0353400000" lon="0.1353100000"><ele>1223</ele><time>2026-03-18T11:29:25Z</time></trkpt>
<trkpt lat="43.0353270000" lon="0.1353320000"><ele>1224</ele><time>2026-03-18T11:29:29Z</time></trkpt>
<trkpt lat="43.0353120000" lon="0.1353480000"><ele>1225</ele><time>2026-03-18T11:29:35Z</time></trkpt>
<trkpt lat="43.0352920000" lon="0.1353470000"><ele>1227</ele><time>2026-03-18T11:29:49Z</time></trkpt>
<trkpt lat="43.0352870000" lon="0.1353730000"><ele>1227</ele><time>2026-03-18T11:29:51Z</time></trkpt>
<trkpt lat="43.0352800000" lon="0.1354050000"><ele>1227</ele><time>2026-03-18T11:29:53Z</time></trkpt>
<trkpt lat="43.0352750000" lon="0.1354320000"><ele>1227</ele><time>2026-03-18T11:29:56Z</time></trkpt>
<trkpt lat="43.0352570000" lon="0.1354500000"><ele>1228</ele><time>2026-03-18T11:30:01Z</time></trkpt>
<trkpt lat="43.0352470000" lon="0.1354720000"><ele>1229</ele><time>2026-03-18T11:30:12Z</time></trkpt>
<trkpt lat="43.0352420000" lon="0.1355000000"><ele>1229</ele><time>2026-03-18T11:30:14Z</time></trkpt>
<trkpt lat="43.0352370000" lon="0.1355330000"><ele>1229</ele><time>2026-03-18T11:30:16Z</time></trkpt>
<trkpt lat="43.0352300000" lon="0.1355620000"><ele>1229</ele><time>2026-03-18T11:30:18Z</time></trkpt>
<trkpt lat="43.0352220000" lon="0.1355870000"><ele>1230</ele><time>2026-03-18T11:30:20Z</time></trkpt>
<trkpt lat="43.0352150000" lon="0.1356120000"><ele>1230</ele><time>2026-03-18T11:30:23Z</time></trkpt>
<trkpt lat="43.0352020000" lon="0.1356420000"><ele>1230</ele><time>2026-03-18T11:30:26Z</time></trkpt>
<trkpt lat="43.0352120000" lon="0.1356770000"><ele>1230</ele><time>2026-03-18T11:30:30Z</time></trkpt>
<trkpt lat="43.0352220000" lon="0.1357020000"><ele>1231</ele><time>2026-03-18T11:30:33Z</time></trkpt>
<trkpt lat="43.0352200000" lon="0.1357270000"><ele>1231</ele><time>2026-03-18T11:30:39Z</time></trkpt>
<trkpt lat="43.0352170000" lon="0.1357570000"><ele>1231</ele><time>2026-03-18T11:30:41Z</time></trkpt>
<trkpt lat="43.0352370000" lon="0.1357800000"><ele>1233</ele><time>2026-03-18T11:30:52Z</time></trkpt>
<trkpt lat="43.0352370000" lon="0.1358220000"><ele>1233</ele><time>2026-03-18T11:30:54Z</time></trkpt>
<trkpt lat="43.0352370000" lon="0.1358470000"><ele>1233</ele><time>2026-03-18T11:30:55Z</time></trkpt>
<trkpt lat="43.0352370000" lon="0.1358720000"><ele>1233</ele><time>2026-03-18T11:30:56Z</time></trkpt>
<trkpt lat="43.0352400000" lon="0.1359120000"><ele>1234</ele><time>2026-03-18T11:30:58Z</time></trkpt>
<trkpt lat="43.0352420000" lon="0.1359400000"><ele>1234</ele><time>2026-03-18T11:31:00Z</time></trkpt>
<trkpt lat="43.0352300000" lon="0.1359650000"><ele>1234</ele><time>2026-03-18T11:31:02Z</time></trkpt>
<trkpt lat="43.0352100000" lon="0.1359900000"><ele>1234</ele><time>2026-03-18T11:31:04Z</time></trkpt>
<trkpt lat="43.0352020000" lon="0.1360150000"><ele>1235</ele><time>2026-03-18T11:31:06Z</time></trkpt>
<trkpt lat="43.0352150000" lon="0.1360320000"><ele>1235</ele><time>2026-03-18T11:31:09Z</time></trkpt>
<trkpt lat="43.0352120000" lon="0.1360620000"><ele>1235</ele><time>2026-03-18T11:31:11Z</time></trkpt>
<trkpt lat="43.0352000000" lon="0.1360870000"><ele>1235</ele><time>2026-03-18T11:31:14Z</time></trkpt>
<trkpt lat="43.0351850000" lon="0.1361070000"><ele>1235</ele><time>2026-03-18T11:31:16Z</time></trkpt>
<trkpt lat="43.0351700000" lon="0.1361300000"><ele>1236</ele><time>2026-03-18T11:31:19Z</time></trkpt>
<trkpt lat="43.0351600000" lon="0.1361520000"><ele>1236</ele><time>2026-03-18T11:31:22Z</time></trkpt>
<trkpt lat="43.0351520000" lon="0.1361730000"><ele>1237</ele><time>2026-03-18T11:31:26Z</time></trkpt>
<trkpt lat="43.0351520000" lon="0.1362020000"><ele>1237</ele><time>2026-03-18T11:31:29Z</time></trkpt>
<trkpt lat="43.0351500000" lon="0.1362320000"><ele>1237</ele><time>2026-03-18T11:31:32Z</time></trkpt>
<trkpt lat="43.0351330000" lon="0.1362570000"><ele>1238</ele><time>2026-03-18T11:31:35Z</time></trkpt>
<trkpt lat="43.0351270000" lon="0.1362900000"><ele>1238</ele><time>2026-03-18T11:31:38Z</time></trkpt>
<trkpt lat="43.0351250000" lon="0.1363180000"><ele>1239</ele><time>2026-03-18T11:31:42Z</time></trkpt>
<trkpt lat="43.0351170000" lon="0.1363470000"><ele>1240</ele><time>2026-03-18T11:31:53Z</time></trkpt>
<trkpt lat="43.0351170000" lon="0.1363720000"><ele>1240</ele><time>2026-03-18T11:31:55Z</time></trkpt>
<trkpt lat="43.0351150000" lon="0.1364150000"><ele>1241</ele><time>2026-03-18T11:32:09Z</time></trkpt>
<trkpt lat="43.0351120000" lon="0.1364470000"><ele>1241</ele><time>2026-03-18T11:32:10Z</time></trkpt>
<trkpt lat="43.0351120000" lon="0.1364780000"><ele>1241</ele><time>2026-03-18T11:32:11Z</time></trkpt>
<trkpt lat="43.0351120000" lon="0.1365070000"><ele>1241</ele><time>2026-03-18T11:32:12Z</time></trkpt>
<trkpt lat="43.0351070000" lon="0.1365450000"><ele>1242</ele><time>2026-03-18T11:32:14Z</time></trkpt>
<trkpt lat="43.0351020000" lon="0.1365820000"><ele>1242</ele><time>2026-03-18T11:32:17Z</time></trkpt>
<trkpt lat="43.0351120000" lon="0.1366120000"><ele>1243</ele><time>2026-03-18T11:32:21Z</time></trkpt>
<trkpt lat="43.0351270000" lon="0.1366400000"><ele>1243</ele><time>2026-03-18T11:32:23Z</time></trkpt>
<trkpt lat="43.0351370000" lon="0.1366650000"><ele>1243</ele><time>2026-03-18T11:32:25Z</time></trkpt>
<trkpt lat="43.0351470000" lon="0.1366870000"><ele>1243</ele><time>2026-03-18T11:32:27Z</time></trkpt>
<trkpt lat="43.0351470000" lon="0.1367200000"><ele>1244</ele><time>2026-03-18T11:32:30Z</time></trkpt>
<trkpt lat="43.0351370000" lon="0.1367420000"><ele>1244</ele><time>2026-03-18T11:32:33Z</time></trkpt>
<trkpt lat="43.0351600000" lon="0.1367280000"><ele>1245</ele><time>2026-03-18T11:32:40Z</time></trkpt>
<trkpt lat="43.0351770000" lon="0.1367420000"><ele>1247</ele><time>2026-03-18T11:33:07Z</time></trkpt>
<trkpt lat="43.0351770000" lon="0.1367750000"><ele>1247</ele><time>2026-03-18T11:33:10Z</time></trkpt>
<trkpt lat="43.0351770000" lon="0.1368020000"><ele>1247</ele><time>2026-03-18T11:33:12Z</time></trkpt>
<trkpt lat="43.0351770000" lon="0.1368270000"><ele>1245</ele><time>2026-03-18T11:33:22Z</time></trkpt>
<trkpt lat="43.0351870000" lon="0.1368570000"><ele>1244</ele><time>2026-03-18T11:33:28Z</time></trkpt>
<trkpt lat="43.0351900000" lon="0.1368820000"><ele>1244</ele><time>2026-03-18T11:33:30Z</time></trkpt>
<trkpt lat="43.0351900000" lon="0.1369150000"><ele>1243</ele><time>2026-03-18T11:33:32Z</time></trkpt>
<trkpt lat="43.0351920000" lon="0.1369400000"><ele>1243</ele><time>2026-03-18T11:33:34Z</time></trkpt>
<trkpt lat="43.0351950000" lon="0.1369670000"><ele>1243</ele><time>2026-03-18T11:33:37Z</time></trkpt>
<trkpt lat="43.0352120000" lon="0.1369920000"><ele>1242</ele><time>2026-03-18T11:33:40Z</time></trkpt>
<trkpt lat="43.0352170000" lon="0.1370170000"><ele>1242</ele><time>2026-03-18T11:33:42Z</time></trkpt>
<trkpt lat="43.0352270000" lon="0.1370520000"><ele>1242</ele><time>2026-03-18T11:33:46Z</time></trkpt>
<trkpt lat="43.0352320000" lon="0.1370850000"><ele>1242</ele><time>2026-03-18T11:34:01Z</time></trkpt>
<trkpt lat="43.0352470000" lon="0.1371120000"><ele>1242</ele><time>2026-03-18T11:34:03Z</time></trkpt>
<trkpt lat="43.0352620000" lon="0.1371350000"><ele>1242</ele><time>2026-03-18T11:34:05Z</time></trkpt>
<trkpt lat="43.0352770000" lon="0.1371520000"><ele>1243</ele><time>2026-03-18T11:34:09Z</time></trkpt>
<trkpt lat="43.0352900000" lon="0.1371720000"><ele>1243</ele><time>2026-03-18T11:34:11Z</time></trkpt>
<trkpt lat="43.0353120000" lon="0.1371820000"><ele>1243</ele><time>2026-03-18T11:34:13Z</time></trkpt>
<trkpt lat="43.0353270000" lon="0.1371980000"><ele>1243</ele><time>2026-03-18T11:34:15Z</time></trkpt>
<trkpt lat="43.0353420000" lon="0.1372350000"><ele>1243</ele><time>2026-03-18T11:34:17Z</time></trkpt>
<trkpt lat="43.0353580000" lon="0.1372600000"><ele>1243</ele><time>2026-03-18T11:34:19Z</time></trkpt>
<trkpt lat="43.0353720000" lon="0.1372920000"><ele>1244</ele><time>2026-03-18T11:34:22Z</time></trkpt>
<trkpt lat="43.0353870000" lon="0.1373120000"><ele>1244</ele><time>2026-03-18T11:34:25Z</time></trkpt>
<trkpt lat="43.0354020000" lon="0.1373350000"><ele>1245</ele><time>2026-03-18T11:34:27Z</time></trkpt>
<trkpt lat="43.0354170000" lon="0.1373520000"><ele>1245</ele><time>2026-03-18T11:34:30Z</time></trkpt>
<trkpt lat="43.0354220000" lon="0.1373820000"><ele>1245</ele><time>2026-03-18T11:34:32Z</time></trkpt>
<trkpt lat="43.0354220000" lon="0.1374230000"><ele>1245</ele><time>2026-03-18T11:34:34Z</time></trkpt>
<trkpt lat="43.0354350000" lon="0.1374570000"><ele>1246</ele><time>2026-03-18T11:34:36Z</time></trkpt>
<trkpt lat="43.0354450000" lon="0.1374870000"><ele>1246</ele><time>2026-03-18T11:34:39Z</time></trkpt>
<trkpt lat="43.0354520000" lon="0.1375200000"><ele>1246</ele><time>2026-03-18T11:34:41Z</time></trkpt>
<trkpt lat="43.0354520000" lon="0.1375580000"><ele>1247</ele><time>2026-03-18T11:34:44Z</time></trkpt>
<trkpt lat="43.0354420000" lon="0.1375930000"><ele>1247</ele><time>2026-03-18T11:34:46Z</time></trkpt>
<trkpt lat="43.0354400000" lon="0.1376220000"><ele>1247</ele><time>2026-03-18T11:34:48Z</time></trkpt>
<trkpt lat="43.0354450000" lon="0.1376500000"><ele>1247</ele><time>2026-03-18T11:34:50Z</time></trkpt>
<trkpt lat="43.0354420000" lon="0.1376750000"><ele>1247</ele><time>2026-03-18T11:34:52Z</time></trkpt>
<trkpt lat="43.0354320000" lon="0.1377020000"><ele>1248</ele><time>2026-03-18T11:34:54Z</time></trkpt>
<trkpt lat="43.0354220000" lon="0.1377270000"><ele>1248</ele><time>2026-03-18T11:34:56Z</time></trkpt>
<trkpt lat="43.0354120000" lon="0.1377530000"><ele>1248</ele><time>2026-03-18T11:34:58Z</time></trkpt>
<trkpt lat="43.0354000000" lon="0.1377770000"><ele>1248</ele><time>2026-03-18T11:34:59Z</time></trkpt>
<trkpt lat="43.0353970000" lon="0.1378070000"><ele>1248</ele><time>2026-03-18T11:35:02Z</time></trkpt>
<trkpt lat="43.0353820000" lon="0.1378320000"><ele>1249</ele><time>2026-03-18T11:35:04Z</time></trkpt>
<trkpt lat="43.0353770000" lon="0.1378620000"><ele>1249</ele><time>2026-03-18T11:35:06Z</time></trkpt>
<trkpt lat="43.0353720000" lon="0.1378870000"><ele>1249</ele><time>2026-03-18T11:35:08Z</time></trkpt>
<trkpt lat="43.0353700000" lon="0.1379220000"><ele>1250</ele><time>2026-03-18T11:35:10Z</time></trkpt>
<trkpt lat="43.0353670000" lon="0.1379520000"><ele>1250</ele><time>2026-03-18T11:35:12Z</time></trkpt>
<trkpt lat="43.0353670000" lon="0.1379820000"><ele>1250</ele><time>2026-03-18T11:35:15Z</time></trkpt>
<trkpt lat="43.0353650000" lon="0.1380080000"><ele>1251</ele><time>2026-03-18T11:35:18Z</time></trkpt>
<trkpt lat="43.0353550000" lon="0.1380370000"><ele>1252</ele><time>2026-03-18T11:35:22Z</time></trkpt>
<trkpt lat="43.0353520000" lon="0.1380770000"><ele>1252</ele><time>2026-03-18T11:35:25Z</time></trkpt>
<trkpt lat="43.0353520000" lon="0.1381120000"><ele>1252</ele><time>2026-03-18T11:35:28Z</time></trkpt>
<trkpt lat="43.0353470000" lon="0.1381420000"><ele>1253</ele><time>2026-03-18T11:35:32Z</time></trkpt>
<trkpt lat="43.0353420000" lon="0.1381670000"><ele>1253</ele><time>2026-03-18T11:35:35Z</time></trkpt>
<trkpt lat="43.0353470000" lon="0.1381970000"><ele>1253</ele><time>2026-03-18T11:35:37Z</time></trkpt>
<trkpt lat="43.0353570000" lon="0.1382250000"><ele>1254</ele><time>2026-03-18T11:35:46Z</time></trkpt>
<trkpt lat="43.0353520000" lon="0.1382530000"><ele>1254</ele><time>2026-03-18T11:35:53Z</time></trkpt>
<trkpt lat="43.0353470000" lon="0.1382830000"><ele>1254</ele><time>2026-03-18T11:35:55Z</time></trkpt>
<trkpt lat="43.0353350000" lon="0.1383250000"><ele>1254</ele><time>2026-03-18T11:35:57Z</time></trkpt>
<trkpt lat="43.0353250000" lon="0.1383520000"><ele>1255</ele><time>2026-03-18T11:35:59Z</time></trkpt>
<trkpt lat="43.0353370000" lon="0.1383800000"><ele>1255</ele><time>2026-03-18T11:36:09Z</time></trkpt>
<trkpt lat="43.0353400000" lon="0.1384070000"><ele>1257</ele><time>2026-03-18T11:36:27Z</time></trkpt>
<trkpt lat="43.0353320000" lon="0.1384300000"><ele>1257</ele><time>2026-03-18T11:36:28Z</time></trkpt>
<trkpt lat="43.0353270000" lon="0.1384570000"><ele>1258</ele><time>2026-03-18T11:36:29Z</time></trkpt>
<trkpt lat="43.0353200000" lon="0.1384870000"><ele>1258</ele><time>2026-03-18T11:36:30Z</time></trkpt>
<trkpt lat="43.0353120000" lon="0.1385270000"><ele>1258</ele><time>2026-03-18T11:36:32Z</time></trkpt>
<trkpt lat="43.0352970000" lon="0.1385470000"><ele>1258</ele><time>2026-03-18T11:36:36Z</time></trkpt>
<trkpt lat="43.0352820000" lon="0.1385570000"><ele>1258</ele><time>2026-03-18T11:37:27Z</time></trkpt>
<trkpt lat="43.0352720000" lon="0.1385800000"><ele>1258</ele><time>2026-03-18T11:37:29Z</time></trkpt>
<trkpt lat="43.0352520000" lon="0.1385750000"><ele>1258</ele><time>2026-03-18T11:37:35Z</time></trkpt>
<trkpt lat="43.0352650000" lon="0.1385520000"><ele>1259</ele><time>2026-03-18T11:38:21Z</time></trkpt>
<trkpt lat="43.0352800000" lon="0.1385320000"><ele>1259</ele><time>2026-03-18T11:38:23Z</time></trkpt>
<trkpt lat="43.0352920000" lon="0.1385150000"><ele>1259</ele><time>2026-03-18T11:38:26Z</time></trkpt>
<trkpt lat="43.0352720000" lon="0.1385120000"><ele>1258</ele><time>2026-03-18T11:39:39Z</time></trkpt>
<trkpt lat="43.0352420000" lon="0.1385320000"><ele>1258</ele><time>2026-03-18T11:39:41Z</time></trkpt>
<trkpt lat="43.0352520000" lon="0.1384920000"><ele>1258</ele><time>2026-03-18T11:39:47Z</time></trkpt>
<trkpt lat="43.0352600000" lon="0.1384700000"><ele>1258</ele><time>2026-03-18T11:39:55Z</time></trkpt>
<trkpt lat="43.0352750000" lon="0.1384970000"><ele>1257</ele><time>2026-03-18T11:40:24Z</time></trkpt>
<trkpt lat="43.0352870000" lon="0.1385170000"><ele>1257</ele><time>2026-03-18T11:40:25Z</time></trkpt>
<trkpt lat="43.0353000000" lon="0.1385370000"><ele>1257</ele><time>2026-03-18T11:40:26Z</time></trkpt>
<trkpt lat="43.0353270000" lon="0.1385370000"><ele>1257</ele><time>2026-03-18T11:40:28Z</time></trkpt>
<trkpt lat="43.0353020000" lon="0.1385170000"><ele>1258</ele><time>2026-03-18T11:41:39Z</time></trkpt>
<trkpt lat="43.0352850000" lon="0.1385020000"><ele>1258</ele><time>2026-03-18T11:41:41Z</time></trkpt>
<trkpt lat="43.0352620000" lon="0.1384970000"><ele>1259</ele><time>2026-03-18T11:42:52Z</time></trkpt>
<trkpt lat="43.0352570000" lon="0.1385330000"><ele>1258</ele><time>2026-03-18T11:44:07Z</time></trkpt>
<trkpt lat="43.0352850000" lon="0.1385420000"><ele>1259</ele><time>2026-03-18T11:46:42Z</time></trkpt>
<trkpt lat="43.0353120000" lon="0.1385370000"><ele>1259</ele><time>2026-03-18T11:46:44Z</time></trkpt>
<trkpt lat="43.0353320000" lon="0.1385320000"><ele>1259</ele><time>2026-03-18T11:46:45Z</time></trkpt>
<trkpt lat="43.0353550000" lon="0.1385170000"><ele>1259</ele><time>2026-03-18T11:46:47Z</time></trkpt>
<trkpt lat="43.0353420000" lon="0.1385470000"><ele>1258</ele><time>2026-03-18T11:47:58Z</time></trkpt>
<trkpt lat="43.0353270000" lon="0.1385770000"><ele>1258</ele><time>2026-03-18T11:48:00Z</time></trkpt>
<trkpt lat="43.0353120000" lon="0.1385520000"><ele>1259</ele><time>2026-03-18T11:49:11Z</time></trkpt>
<trkpt lat="43.0352970000" lon="0.1385270000"><ele>1259</ele><time>2026-03-18T11:49:13Z</time></trkpt>
<trkpt lat="43.0352720000" lon="0.1385020000"><ele>1260</ele><time>2026-03-18T11:49:15Z</time></trkpt>
<trkpt lat="43.0352520000" lon="0.1385020000"><ele>1260</ele><time>2026-03-18T11:49:18Z</time></trkpt>
<trkpt lat="43.0352370000" lon="0.1385170000"><ele>1260</ele><time>2026-03-18T11:49:23Z</time></trkpt>
<trkpt lat="43.0352620000" lon="0.1385020000"><ele>1259</ele><time>2026-03-18T11:49:49Z</time></trkpt>
<trkpt lat="43.0352920000" lon="0.1384950000"><ele>1260</ele><time>2026-03-18T11:49:51Z</time></trkpt>
<trkpt lat="43.0353070000" lon="0.1384770000"><ele>1259</ele><time>2026-03-18T11:50:08Z</time></trkpt>
<trkpt lat="43.0353150000" lon="0.1384480000"><ele>1259</ele><time>2026-03-18T11:50:10Z</time></trkpt>
<trkpt lat="43.0353100000" lon="0.1384220000"><ele>1259</ele><time>2026-03-18T11:50:12Z</time></trkpt>
<trkpt lat="43.0353000000" lon="0.1383970000"><ele>1259</ele><time>2026-03-18T11:50:14Z</time></trkpt>
<trkpt lat="43.0352970000" lon="0.1383700000"><ele>1259</ele><time>2026-03-18T11:50:17Z</time></trkpt>
<trkpt lat="43.0353050000" lon="0.1383350000"><ele>1258</ele><time>2026-03-18T11:50:20Z</time></trkpt>
<trkpt lat="43.0353100000" lon="0.1383080000"><ele>1258</ele><time>2026-03-18T11:50:22Z</time></trkpt>
<trkpt lat="43.0353170000" lon="0.1382770000"><ele>1257</ele><time>2026-03-18T11:50:25Z</time></trkpt>
<trkpt lat="43.0353220000" lon="0.1382450000"><ele>1257</ele><time>2026-03-18T11:50:28Z</time></trkpt>
<trkpt lat="43.0353170000" lon="0.1382200000"><ele>1256</ele><time>2026-03-18T11:50:30Z</time></trkpt>
<trkpt lat="43.0353150000" lon="0.1381920000"><ele>1256</ele><time>2026-03-18T11:50:32Z</time></trkpt>
<trkpt lat="43.0353120000" lon="0.1381670000"><ele>1256</ele><time>2026-03-18T11:50:34Z</time></trkpt>
<trkpt lat="43.0353120000" lon="0.1381420000"><ele>1256</ele><time>2026-03-18T11:50:36Z</time></trkpt>
<trkpt lat="43.0353250000" lon="0.1381170000"><ele>1255</ele><time>2026-03-18T11:50:39Z</time></trkpt>
<trkpt lat="43.0353370000" lon="0.1380920000"><ele>1255</ele><time>2026-03-18T11:50:41Z</time></trkpt>
<trkpt lat="43.0353500000" lon="0.1380670000"><ele>1255</ele><time>2026-03-18T11:50:44Z</time></trkpt>
<trkpt lat="43.0353570000" lon="0.1380370000"><ele>1255</ele><time>2026-03-18T11:50:48Z</time></trkpt>
<trkpt lat="43.0353580000" lon="0.1380120000"><ele>1255</ele><time>2026-03-18T11:50:50Z</time></trkpt>
<trkpt lat="43.0353620000" lon="0.1379820000"><ele>1254</ele><time>2026-03-18T11:50:52Z</time></trkpt>
<trkpt lat="43.0353670000" lon="0.1379570000"><ele>1254</ele><time>2026-03-18T11:50:54Z</time></trkpt>
<trkpt lat="43.0353700000" lon="0.1379220000"><ele>1254</ele><time>2026-03-18T11:50:57Z</time></trkpt>
<trkpt lat="43.0353670000" lon="0.1378920000"><ele>1253</ele><time>2026-03-18T11:51:00Z</time></trkpt>
<trkpt lat="43.0353700000" lon="0.1378550000"><ele>1253</ele><time>2026-03-18T11:51:03Z</time></trkpt>
<trkpt lat="43.0353670000" lon="0.1378220000"><ele>1253</ele><time>2026-03-18T11:51:05Z</time></trkpt>
<trkpt lat="43.0353720000" lon="0.1377950000"><ele>1252</ele><time>2026-03-18T11:51:07Z</time></trkpt>
<trkpt lat="43.0353770000" lon="0.1377670000"><ele>1252</ele><time>2026-03-18T11:51:09Z</time></trkpt>
<trkpt lat="43.0353870000" lon="0.1377420000"><ele>1252</ele><time>2026-03-18T11:51:11Z</time></trkpt>
<trkpt lat="43.0353950000" lon="0.1377150000"><ele>1251</ele><time>2026-03-18T11:51:13Z</time></trkpt>
<trkpt lat="43.0353950000" lon="0.1376870000"><ele>1251</ele><time>2026-03-18T11:51:15Z</time></trkpt>
<trkpt lat="43.0353900000" lon="0.1376620000"><ele>1251</ele><time>2026-03-18T11:51:17Z</time></trkpt>
<trkpt lat="43.0353900000" lon="0.1376320000"><ele>1251</ele><time>2026-03-18T11:51:19Z</time></trkpt>
<trkpt lat="43.0353920000" lon="0.1376020000"><ele>1250</ele><time>2026-03-18T11:51:21Z</time></trkpt>
<trkpt lat="43.0353820000" lon="0.1375670000"><ele>1250</ele><time>2026-03-18T11:51:23Z</time></trkpt>
<trkpt lat="43.0353750000" lon="0.1375400000"><ele>1250</ele><time>2026-03-18T11:51:26Z</time></trkpt>
<trkpt lat="43.0353770000" lon="0.1375100000"><ele>1250</ele><time>2026-03-18T11:51:28Z</time></trkpt>
<trkpt lat="43.0353850000" lon="0.1374870000"><ele>1250</ele><time>2026-03-18T11:51:30Z</time></trkpt>
<trkpt lat="43.0353870000" lon="0.1374530000"><ele>1250</ele><time>2026-03-18T11:51:32Z</time></trkpt>
<trkpt lat="43.0353900000" lon="0.1374220000"><ele>1249</ele><time>2026-03-18T11:51:35Z</time></trkpt>
<trkpt lat="43.0353800000" lon="0.1374000000"><ele>1249</ele><time>2026-03-18T11:51:38Z</time></trkpt>
<trkpt lat="43.0353670000" lon="0.1373800000"><ele>1249</ele><time>2026-03-18T11:51:40Z</time></trkpt>
<trkpt lat="43.0353620000" lon="0.1373500000"><ele>1248</ele><time>2026-03-18T11:51:42Z</time></trkpt>
<trkpt lat="43.0353420000" lon="0.1373350000"><ele>1248</ele><time>2026-03-18T11:51:44Z</time></trkpt>
<trkpt lat="43.0353250000" lon="0.1373120000"><ele>1248</ele><time>2026-03-18T11:51:46Z</time></trkpt>
<trkpt lat="43.0353070000" lon="0.1372970000"><ele>1248</ele><time>2026-03-18T11:51:48Z</time></trkpt>
<trkpt lat="43.0352870000" lon="0.1372770000"><ele>1248</ele><time>2026-03-18T11:51:50Z</time></trkpt>
<trkpt lat="43.0352670000" lon="0.1372470000"><ele>1247</ele><time>2026-03-18T11:51:53Z</time></trkpt>
<trkpt lat="43.0352520000" lon="0.1372200000"><ele>1247</ele><time>2026-03-18T11:51:56Z</time></trkpt>
<trkpt lat="43.0352400000" lon="0.1371970000"><ele>1247</ele><time>2026-03-18T11:51:58Z</time></trkpt>
<trkpt lat="43.0352270000" lon="0.1371680000"><ele>1247</ele><time>2026-03-18T11:52:00Z</time></trkpt>
<trkpt lat="43.0352070000" lon="0.1371430000"><ele>1247</ele><time>2026-03-18T11:52:03Z</time></trkpt>
<trkpt lat="43.0351920000" lon="0.1371270000"><ele>1246</ele><time>2026-03-18T11:52:06Z</time></trkpt>
<trkpt lat="43.0351770000" lon="0.1371070000"><ele>1246</ele><time>2026-03-18T11:52:09Z</time></trkpt>
<trkpt lat="43.0351470000" lon="0.1371020000"><ele>1246</ele><time>2026-03-18T11:52:12Z</time></trkpt>
<trkpt lat="43.0351300000" lon="0.1371070000"><ele>1245</ele><time>2026-03-18T11:52:14Z</time></trkpt>
<trkpt lat="43.0351270000" lon="0.1371320000"><ele>1245</ele><time>2026-03-18T11:52:15Z</time></trkpt>
<trkpt lat="43.0351170000" lon="0.1371570000"><ele>1245</ele><time>2026-03-18T11:52:17Z</time></trkpt>
<trkpt lat="43.0351020000" lon="0.1371780000"><ele>1244</ele><time>2026-03-18T11:52:20Z</time></trkpt>
<trkpt lat="43.0350970000" lon="0.1372120000"><ele>1244</ele><time>2026-03-18T11:52:24Z</time></trkpt>
<trkpt lat="43.0350820000" lon="0.1371970000"><ele>1243</ele><time>2026-03-18T11:52:27Z</time></trkpt>
<trkpt lat="43.0350770000" lon="0.1371720000"><ele>1243</ele><time>2026-03-18T11:52:28Z</time></trkpt>
<trkpt lat="43.0350600000" lon="0.1371430000"><ele>1242</ele><time>2026-03-18T11:52:30Z</time></trkpt>
<trkpt lat="43.0350450000" lon="0.1371300000"><ele>1242</ele><time>2026-03-18T11:52:32Z</time></trkpt>
<trkpt lat="43.0350250000" lon="0.1371370000"><ele>1241</ele><time>2026-03-18T11:52:34Z</time></trkpt>
<trkpt lat="43.0350420000" lon="0.1371520000"><ele>1240</ele><time>2026-03-18T11:52:40Z</time></trkpt>
<trkpt lat="43.0350480000" lon="0.1371730000"><ele>1240</ele><time>2026-03-18T11:52:42Z</time></trkpt>
<trkpt lat="43.0350450000" lon="0.1372050000"><ele>1240</ele><time>2026-03-18T11:52:44Z</time></trkpt>
<trkpt lat="43.0350470000" lon="0.1372420000"><ele>1239</ele><time>2026-03-18T11:52:46Z</time></trkpt>
<trkpt lat="43.0350370000" lon="0.1372720000"><ele>1239</ele><time>2026-03-18T11:52:48Z</time></trkpt>
<trkpt lat="43.0350270000" lon="0.1372970000"><ele>1238</ele><time>2026-03-18T11:52:51Z</time></trkpt>
<trkpt lat="43.0350170000" lon="0.1373320000"><ele>1238</ele><time>2026-03-18T11:52:54Z</time></trkpt>
<trkpt lat="43.0350100000" lon="0.1373670000"><ele>1237</ele><time>2026-03-18T11:52:56Z</time></trkpt>
<trkpt lat="43.0350050000" lon="0.1373970000"><ele>1237</ele><time>2026-03-18T11:52:58Z</time></trkpt>
<trkpt lat="43.0349970000" lon="0.1374320000"><ele>1237</ele><time>2026-03-18T11:53:00Z</time></trkpt>
<trkpt lat="43.0349950000" lon="0.1374570000"><ele>1237</ele><time>2026-03-18T11:53:01Z</time></trkpt>
<trkpt lat="43.0349820000" lon="0.1375020000"><ele>1236</ele><time>2026-03-18T11:53:03Z</time></trkpt>
<trkpt lat="43.0349670000" lon="0.1375270000"><ele>1236</ele><time>2026-03-18T11:53:05Z</time></trkpt>
<trkpt lat="43.0349600000" lon="0.1375520000"><ele>1236</ele><time>2026-03-18T11:53:07Z</time></trkpt>
<trkpt lat="43.0349570000" lon="0.1375820000"><ele>1235</ele><time>2026-03-18T11:53:09Z</time></trkpt>
<trkpt lat="43.0349570000" lon="0.1376120000"><ele>1235</ele><time>2026-03-18T11:53:12Z</time></trkpt>
<trkpt lat="43.0349520000" lon="0.1376400000"><ele>1234</ele><time>2026-03-18T11:53:15Z</time></trkpt>
<trkpt lat="43.0349520000" lon="0.1376700000"><ele>1234</ele><time>2026-03-18T11:53:18Z</time></trkpt>
<trkpt lat="43.0349470000" lon="0.1376970000"><ele>1233</ele><time>2026-03-18T11:53:21Z</time></trkpt>
<trkpt lat="43.0349420000" lon="0.1377230000"><ele>1232</ele><time>2026-03-18T11:53:24Z</time></trkpt>
<trkpt lat="43.0349370000" lon="0.1377520000"><ele>1231</ele><time>2026-03-18T11:53:30Z</time></trkpt>
<trkpt lat="43.0349370000" lon="0.1377850000"><ele>1230</ele><time>2026-03-18T11:53:33Z</time></trkpt>
<trkpt lat="43.0349220000" lon="0.1378220000"><ele>1229</ele><time>2026-03-18T11:53:36Z</time></trkpt>
<trkpt lat="43.0349120000" lon="0.1378520000"><ele>1229</ele><time>2026-03-18T11:53:39Z</time></trkpt>
<trkpt lat="43.0348970000" lon="0.1378720000"><ele>1228</ele><time>2026-03-18T11:53:41Z</time></trkpt>
<trkpt lat="43.0348970000" lon="0.1379020000"><ele>1228</ele><time>2026-03-18T11:53:43Z</time></trkpt>
<trkpt lat="43.0348970000" lon="0.1379300000"><ele>1227</ele><time>2026-03-18T11:53:45Z</time></trkpt>
<trkpt lat="43.0348870000" lon="0.1379550000"><ele>1227</ele><time>2026-03-18T11:53:48Z</time></trkpt>
<trkpt lat="43.0348870000" lon="0.1379820000"><ele>1226</ele><time>2026-03-18T11:53:51Z</time></trkpt>
<trkpt lat="43.0348870000" lon="0.1380120000"><ele>1226</ele><time>2026-03-18T11:53:54Z</time></trkpt>
<trkpt lat="43.0348720000" lon="0.1380370000"><ele>1226</ele><time>2026-03-18T11:53:57Z</time></trkpt>
<trkpt lat="43.0348620000" lon="0.1380570000"><ele>1225</ele><time>2026-03-18T11:53:59Z</time></trkpt>
<trkpt lat="43.0348520000" lon="0.1380900000"><ele>1225</ele><time>2026-03-18T11:54:02Z</time></trkpt>
<trkpt lat="43.0348420000" lon="0.1381170000"><ele>1224</ele><time>2026-03-18T11:54:04Z</time></trkpt>
<trkpt lat="43.0348420000" lon="0.1381520000"><ele>1224</ele><time>2026-03-18T11:54:06Z</time></trkpt>
<trkpt lat="43.0348450000" lon="0.1381900000"><ele>1224</ele><time>2026-03-18T11:54:08Z</time></trkpt>
<trkpt lat="43.0348370000" lon="0.1382220000"><ele>1223</ele><time>2026-03-18T11:54:10Z</time></trkpt>
<trkpt lat="43.0348220000" lon="0.1382470000"><ele>1223</ele><time>2026-03-18T11:54:12Z</time></trkpt>
<trkpt lat="43.0348150000" lon="0.1382770000"><ele>1223</ele><time>2026-03-18T11:54:14Z</time></trkpt>
<trkpt lat="43.0348120000" lon="0.1383270000"><ele>1222</ele><time>2026-03-18T11:54:16Z</time></trkpt>
<trkpt lat="43.0348050000" lon="0.1383570000"><ele>1222</ele><time>2026-03-18T11:54:17Z</time></trkpt>
<trkpt lat="43.0347870000" lon="0.1383930000"><ele>1222</ele><time>2026-03-18T11:54:19Z</time></trkpt>
<trkpt lat="43.0347820000" lon="0.1384300000"><ele>1222</ele><time>2026-03-18T11:54:21Z</time></trkpt>
<trkpt lat="43.0347820000" lon="0.1384600000"><ele>1221</ele><time>2026-03-18T11:54:25Z</time></trkpt>
<trkpt lat="43.0347650000" lon="0.1384800000"><ele>1220</ele><time>2026-03-18T11:54:30Z</time></trkpt>
<trkpt lat="43.0347520000" lon="0.1385100000"><ele>1219</ele><time>2026-03-18T11:54:33Z</time></trkpt>
<trkpt lat="43.0347420000" lon="0.1385420000"><ele>1219</ele><time>2026-03-18T11:54:36Z</time></trkpt>
<trkpt lat="43.0347370000" lon="0.1385720000"><ele>1219</ele><time>2026-03-18T11:54:38Z</time></trkpt>
<trkpt lat="43.0347270000" lon="0.1385970000"><ele>1219</ele><time>2026-03-18T11:54:40Z</time></trkpt>
<trkpt lat="43.0347250000" lon="0.1386270000"><ele>1219</ele><time>2026-03-18T11:54:42Z</time></trkpt>
<trkpt lat="43.0347220000" lon="0.1386570000"><ele>1218</ele><time>2026-03-18T11:54:44Z</time></trkpt>
<trkpt lat="43.0347120000" lon="0.1386850000"><ele>1218</ele><time>2026-03-18T11:54:46Z</time></trkpt>
<trkpt lat="43.0347150000" lon="0.1387120000"><ele>1217</ele><time>2026-03-18T11:54:49Z</time></trkpt>
<trkpt lat="43.0347020000" lon="0.1387470000"><ele>1217</ele><time>2026-03-18T11:54:52Z</time></trkpt>
<trkpt lat="43.0346800000" lon="0.1387720000"><ele>1217</ele><time>2026-03-18T11:54:54Z</time></trkpt>
<trkpt lat="43.0346670000" lon="0.1388020000"><ele>1216</ele><time>2026-03-18T11:54:56Z</time></trkpt>
<trkpt lat="43.0346650000" lon="0.1388330000"><ele>1216</ele><time>2026-03-18T11:54:59Z</time></trkpt>
<trkpt lat="43.0346600000" lon="0.1388620000"><ele>1216</ele><time>2026-03-18T11:55:01Z</time></trkpt>
<trkpt lat="43.0346520000" lon="0.1388870000"><ele>1215</ele><time>2026-03-18T11:55:03Z</time></trkpt>
<trkpt lat="43.0346450000" lon="0.1389220000"><ele>1215</ele><time>2026-03-18T11:55:06Z</time></trkpt>
<trkpt lat="43.0346320000" lon="0.1389470000"><ele>1215</ele><time>2026-03-18T11:55:08Z</time></trkpt>
<trkpt lat="43.0346200000" lon="0.1389770000"><ele>1214</ele><time>2026-03-18T11:55:11Z</time></trkpt>
<trkpt lat="43.0346070000" lon="0.1390020000"><ele>1213</ele><time>2026-03-18T11:55:14Z</time></trkpt>
<trkpt lat="43.0346050000" lon="0.1390280000"><ele>1213</ele><time>2026-03-18T11:55:17Z</time></trkpt>
<trkpt lat="43.0345920000" lon="0.1390520000"><ele>1213</ele><time>2026-03-18T11:55:20Z</time></trkpt>
<trkpt lat="43.0345720000" lon="0.1390470000"><ele>1212</ele><time>2026-03-18T11:55:26Z</time></trkpt>
<trkpt lat="43.0345670000" lon="0.1390750000"><ele>1211</ele><time>2026-03-18T11:56:05Z</time></trkpt>
<trkpt lat="43.0345620000" lon="0.1391020000"><ele>1211</ele><time>2026-03-18T11:56:09Z</time></trkpt>
<trkpt lat="43.0345570000" lon="0.1391270000"><ele>1211</ele><time>2026-03-18T11:56:11Z</time></trkpt>
<trkpt lat="43.0345420000" lon="0.1391500000"><ele>1210</ele><time>2026-03-18T11:56:14Z</time></trkpt>
<trkpt lat="43.0345350000" lon="0.1391800000"><ele>1210</ele><time>2026-03-18T11:56:17Z</time></trkpt>
<trkpt lat="43.0345270000" lon="0.1392020000"><ele>1210</ele><time>2026-03-18T11:56:19Z</time></trkpt>
<trkpt lat="43.0345150000" lon="0.1392220000"><ele>1210</ele><time>2026-03-18T11:56:21Z</time></trkpt>
<trkpt lat="43.0345020000" lon="0.1392470000"><ele>1209</ele><time>2026-03-18T11:56:23Z</time></trkpt>
<trkpt lat="43.0344920000" lon="0.1392720000"><ele>1209</ele><time>2026-03-18T11:56:25Z</time></trkpt>
<trkpt lat="43.0344820000" lon="0.1393050000"><ele>1209</ele><time>2026-03-18T11:56:28Z</time></trkpt>
<trkpt lat="43.0344770000" lon="0.1393420000"><ele>1209</ele><time>2026-03-18T11:56:31Z</time></trkpt>
<trkpt lat="43.0344700000" lon="0.1393670000"><ele>1209</ele><time>2026-03-18T11:56:33Z</time></trkpt>
<trkpt lat="43.0344650000" lon="0.1393930000"><ele>1209</ele><time>2026-03-18T11:56:35Z</time></trkpt>
<trkpt lat="43.0344570000" lon="0.1394270000"><ele>1208</ele><time>2026-03-18T11:56:38Z</time></trkpt>
<trkpt lat="43.0344520000" lon="0.1394520000"><ele>1208</ele><time>2026-03-18T11:56:40Z</time></trkpt>
<trkpt lat="43.0344430000" lon="0.1394920000"><ele>1208</ele><time>2026-03-18T11:56:42Z</time></trkpt>
<trkpt lat="43.0344420000" lon="0.1395330000"><ele>1208</ele><time>2026-03-18T11:56:44Z</time></trkpt>
<trkpt lat="43.0344350000" lon="0.1395720000"><ele>1208</ele><time>2026-03-18T11:56:46Z</time></trkpt>
<trkpt lat="43.0344270000" lon="0.1396020000"><ele>1208</ele><time>2026-03-18T11:56:48Z</time></trkpt>
<trkpt lat="43.0344150000" lon="0.1396350000"><ele>1207</ele><time>2026-03-18T11:56:51Z</time></trkpt>
<trkpt lat="43.0344070000" lon="0.1396620000"><ele>1207</ele><time>2026-03-18T11:56:54Z</time></trkpt>
<trkpt lat="43.0344020000" lon="0.1396970000"><ele>1206</ele><time>2026-03-18T11:56:57Z</time></trkpt>
<trkpt lat="43.0343920000" lon="0.1397270000"><ele>1206</ele><time>2026-03-18T11:57:00Z</time></trkpt>
<trkpt lat="43.0343870000" lon="0.1397520000"><ele>1206</ele><time>2026-03-18T11:57:02Z</time></trkpt>
<trkpt lat="43.0343800000" lon="0.1397770000"><ele>1206</ele><time>2026-03-18T11:57:04Z</time></trkpt>
<trkpt lat="43.0343720000" lon="0.1398020000"><ele>1205</ele><time>2026-03-18T11:57:06Z</time></trkpt>
<trkpt lat="43.0343670000" lon="0.1398330000"><ele>1205</ele><time>2026-03-18T11:57:09Z</time></trkpt>
<trkpt lat="43.0343600000" lon="0.1398570000"><ele>1205</ele><time>2026-03-18T11:57:11Z</time></trkpt>
<trkpt lat="43.0343570000" lon="0.1398850000"><ele>1205</ele><time>2026-03-18T11:57:13Z</time></trkpt>
<trkpt lat="43.0343550000" lon="0.1399120000"><ele>1205</ele><time>2026-03-18T11:57:15Z</time></trkpt>
<trkpt lat="43.0343500000" lon="0.1399420000"><ele>1205</ele><time>2026-03-18T11:57:17Z</time></trkpt>
<trkpt lat="43.0343370000" lon="0.1399700000"><ele>1204</ele><time>2026-03-18T11:57:19Z</time></trkpt>
<trkpt lat="43.0343320000" lon="0.1399920000"><ele>1204</ele><time>2026-03-18T11:57:21Z</time></trkpt>
<trkpt lat="43.0343270000" lon="0.1400170000"><ele>1204</ele><time>2026-03-18T11:57:23Z</time></trkpt>
<trkpt lat="43.0343200000" lon="0.1400470000"><ele>1203</ele><time>2026-03-18T11:57:25Z</time></trkpt>
<trkpt lat="43.0343070000" lon="0.1400720000"><ele>1203</ele><time>2026-03-18T11:57:27Z</time></trkpt>
<trkpt lat="43.0343000000" lon="0.1401020000"><ele>1203</ele><time>2026-03-18T11:57:29Z</time></trkpt>
<trkpt lat="43.0342900000" lon="0.1401300000"><ele>1202</ele><time>2026-03-18T11:57:31Z</time></trkpt>
<trkpt lat="43.0342820000" lon="0.1401570000"><ele>1202</ele><time>2026-03-18T11:57:33Z</time></trkpt>
<trkpt lat="43.0342770000" lon="0.1401850000"><ele>1202</ele><time>2026-03-18T11:57:35Z</time></trkpt>
<trkpt lat="43.0342720000" lon="0.1402120000"><ele>1202</ele><time>2026-03-18T11:57:37Z</time></trkpt>
<trkpt lat="43.0342620000" lon="0.1402370000"><ele>1202</ele><time>2026-03-18T11:57:39Z</time></trkpt>
<trkpt lat="43.0342620000" lon="0.1402650000"><ele>1202</ele><time>2026-03-18T11:57:41Z</time></trkpt>
<trkpt lat="43.0342670000" lon="0.1402900000"><ele>1202</ele><time>2026-03-18T11:57:43Z</time></trkpt>
<trkpt lat="43.0342720000" lon="0.1403200000"><ele>1202</ele><time>2026-03-18T11:57:46Z</time></trkpt>
<trkpt lat="43.0342720000" lon="0.1403520000"><ele>1202</ele><time>2026-03-18T11:57:49Z</time></trkpt>
<trkpt lat="43.0342720000" lon="0.1403850000"><ele>1201</ele><time>2026-03-18T11:57:52Z</time></trkpt>
<trkpt lat="43.0342670000" lon="0.1404150000"><ele>1201</ele><time>2026-03-18T11:57:54Z</time></trkpt>
<trkpt lat="43.0342720000" lon="0.1404450000"><ele>1201</ele><time>2026-03-18T11:57:56Z</time></trkpt>
<trkpt lat="43.0342750000" lon="0.1404720000"><ele>1201</ele><time>2026-03-18T11:57:58Z</time></trkpt>
<trkpt lat="43.0342800000" lon="0.1405030000"><ele>1201</ele><time>2026-03-18T11:58:00Z</time></trkpt>
<trkpt lat="43.0342820000" lon="0.1405370000"><ele>1200</ele><time>2026-03-18T11:58:02Z</time></trkpt>
<trkpt lat="43.0342850000" lon="0.1405720000"><ele>1200</ele><time>2026-03-18T11:58:05Z</time></trkpt>
<trkpt lat="43.0342670000" lon="0.1405850000"><ele>1200</ele><time>2026-03-18T11:58:19Z</time></trkpt>
<trkpt lat="43.0342520000" lon="0.1406120000"><ele>1200</ele><time>2026-03-18T11:58:21Z</time></trkpt>
<trkpt lat="43.0342420000" lon="0.1406470000"><ele>1200</ele><time>2026-03-18T11:58:23Z</time></trkpt>
<trkpt lat="43.0342270000" lon="0.1406670000"><ele>1200</ele><time>2026-03-18T11:58:25Z</time></trkpt>
<trkpt lat="43.0342300000" lon="0.1406970000"><ele>1200</ele><time>2026-03-18T11:58:29Z</time></trkpt>
<trkpt lat="43.0342500000" lon="0.1407120000"><ele>1199</ele><time>2026-03-18T11:58:33Z</time></trkpt>
<trkpt lat="43.0342700000" lon="0.1407220000"><ele>1199</ele><time>2026-03-18T11:58:36Z</time></trkpt>
<trkpt lat="43.0342870000" lon="0.1407450000"><ele>1198</ele><time>2026-03-18T11:58:41Z</time></trkpt>
<trkpt lat="43.0343050000" lon="0.1407670000"><ele>1198</ele><time>2026-03-18T11:58:44Z</time></trkpt>
<trkpt lat="43.0343120000" lon="0.1407970000"><ele>1197</ele><time>2026-03-18T11:58:47Z</time></trkpt>
<trkpt lat="43.0343200000" lon="0.1408200000"><ele>1197</ele><time>2026-03-18T11:58:49Z</time></trkpt>
<trkpt lat="43.0343370000" lon="0.1408520000"><ele>1196</ele><time>2026-03-18T11:58:51Z</time></trkpt>
<trkpt lat="43.0343520000" lon="0.1408750000"><ele>1196</ele><time>2026-03-18T11:58:53Z</time></trkpt>
<trkpt lat="43.0343520000" lon="0.1409020000"><ele>1195</ele><time>2026-03-18T11:58:55Z</time></trkpt>
<trkpt lat="43.0343520000" lon="0.1409270000"><ele>1195</ele><time>2026-03-18T11:58:57Z</time></trkpt>
<trkpt lat="43.0343350000" lon="0.1409470000"><ele>1194</ele><time>2026-03-18T11:58:59Z</time></trkpt>
<trkpt lat="43.0343200000" lon="0.1409620000"><ele>1194</ele><time>2026-03-18T11:59:01Z</time></trkpt>
<trkpt lat="43.0342970000" lon="0.1409670000"><ele>1194</ele><time>2026-03-18T11:59:03Z</time></trkpt>
<trkpt lat="43.0342700000" lon="0.1410000000"><ele>1193</ele><time>2026-03-18T11:59:06Z</time></trkpt>
<trkpt lat="43.0342520000" lon="0.1410200000"><ele>1193</ele><time>2026-03-18T11:59:09Z</time></trkpt>
<trkpt lat="43.0342320000" lon="0.1410500000"><ele>1193</ele><time>2026-03-18T11:59:12Z</time></trkpt>
<trkpt lat="43.0342170000" lon="0.1410770000"><ele>1193</ele><time>2026-03-18T11:59:14Z</time></trkpt>
<trkpt lat="43.0341970000" lon="0.1410870000"><ele>1192</ele><time>2026-03-18T11:59:16Z</time></trkpt>
<trkpt lat="43.0341770000" lon="0.1411020000"><ele>1192</ele><time>2026-03-18T11:59:19Z</time></trkpt>
<trkpt lat="43.0341570000" lon="0.1411120000"><ele>1192</ele><time>2026-03-18T11:59:21Z</time></trkpt>
<trkpt lat="43.0341370000" lon="0.1411200000"><ele>1192</ele><time>2026-03-18T11:59:25Z</time></trkpt>
<trkpt lat="43.0341170000" lon="0.1411400000"><ele>1191</ele><time>2026-03-18T11:59:29Z</time></trkpt>
<trkpt lat="43.0340970000" lon="0.1411650000"><ele>1190</ele><time>2026-03-18T11:59:32Z</time></trkpt>
<trkpt lat="43.0340970000" lon="0.1411980000"><ele>1190</ele><time>2026-03-18T11:59:34Z</time></trkpt>
<trkpt lat="43.0340920000" lon="0.1412370000"><ele>1189</ele><time>2026-03-18T11:59:36Z</time></trkpt>
<trkpt lat="43.0340800000" lon="0.1412670000"><ele>1189</ele><time>2026-03-18T11:59:39Z</time></trkpt>
<trkpt lat="43.0340620000" lon="0.1412920000"><ele>1189</ele><time>2026-03-18T11:59:41Z</time></trkpt>
<trkpt lat="43.0340470000" lon="0.1413120000"><ele>1188</ele><time>2026-03-18T11:59:43Z</time></trkpt>
<trkpt lat="43.0340320000" lon="0.1413470000"><ele>1188</ele><time>2026-03-18T11:59:46Z</time></trkpt>
<trkpt lat="43.0340170000" lon="0.1413720000"><ele>1188</ele><time>2026-03-18T11:59:48Z</time></trkpt>
<trkpt lat="43.0339970000" lon="0.1413900000"><ele>1187</ele><time>2026-03-18T11:59:50Z</time></trkpt>
<trkpt lat="43.0339870000" lon="0.1414150000"><ele>1187</ele><time>2026-03-18T11:59:53Z</time></trkpt>
<trkpt lat="43.0339850000" lon="0.1414420000"><ele>1186</ele><time>2026-03-18T11:59:56Z</time></trkpt>
<trkpt lat="43.0339820000" lon="0.1414770000"><ele>1186</ele><time>2026-03-18T12:00:00Z</time></trkpt>
<trkpt lat="43.0339900000" lon="0.1415020000"><ele>1186</ele><time>2026-03-18T12:00:02Z</time></trkpt>
<trkpt lat="43.0339970000" lon="0.1415370000"><ele>1185</ele><time>2026-03-18T12:00:05Z</time></trkpt>
<trkpt lat="43.0339870000" lon="0.1415620000"><ele>1185</ele><time>2026-03-18T12:00:08Z</time></trkpt>
<trkpt lat="43.0339650000" lon="0.1415820000"><ele>1184</ele><time>2026-03-18T12:00:11Z</time></trkpt>
<trkpt lat="43.0339470000" lon="0.1416050000"><ele>1184</ele><time>2026-03-18T12:00:13Z</time></trkpt>
<trkpt lat="43.0339300000" lon="0.1416180000"><ele>1184</ele><time>2026-03-18T12:00:16Z</time></trkpt>
<trkpt lat="43.0339220000" lon="0.1416550000"><ele>1183</ele><time>2026-03-18T12:00:20Z</time></trkpt>
<trkpt lat="43.0339120000" lon="0.1416820000"><ele>1183</ele><time>2026-03-18T12:00:22Z</time></trkpt>
<trkpt lat="43.0339120000" lon="0.1417170000"><ele>1183</ele><time>2026-03-18T12:00:24Z</time></trkpt>
<trkpt lat="43.0339120000" lon="0.1417470000"><ele>1182</ele><time>2026-03-18T12:00:26Z</time></trkpt>
<trkpt lat="43.0339150000" lon="0.1417780000"><ele>1182</ele><time>2026-03-18T12:00:28Z</time></trkpt>
<trkpt lat="43.0339100000" lon="0.1418120000"><ele>1182</ele><time>2026-03-18T12:00:30Z</time></trkpt>
<trkpt lat="43.0339150000" lon="0.1418420000"><ele>1181</ele><time>2026-03-18T12:00:32Z</time></trkpt>
<trkpt lat="43.0339300000" lon="0.1418620000"><ele>1181</ele><time>2026-03-18T12:00:35Z</time></trkpt>
<trkpt lat="43.0339270000" lon="0.1418870000"><ele>1181</ele><time>2026-03-18T12:00:37Z</time></trkpt>
<trkpt lat="43.0339420000" lon="0.1419170000"><ele>1181</ele><time>2026-03-18T12:00:41Z</time></trkpt>
<trkpt lat="43.0339470000" lon="0.1419520000"><ele>1180</ele><time>2026-03-18T12:00:44Z</time></trkpt>
<trkpt lat="43.0339570000" lon="0.1419870000"><ele>1180</ele><time>2026-03-18T12:00:47Z</time></trkpt>
<trkpt lat="43.0339750000" lon="0.1419980000"><ele>1179</ele><time>2026-03-18T12:00:53Z</time></trkpt>
<trkpt lat="43.0339600000" lon="0.1420170000"><ele>1178</ele><time>2026-03-18T12:01:28Z</time></trkpt>
<trkpt lat="43.0339420000" lon="0.1420520000"><ele>1178</ele><time>2026-03-18T12:01:30Z</time></trkpt>
<trkpt lat="43.0339370000" lon="0.1420870000"><ele>1178</ele><time>2026-03-18T12:01:32Z</time></trkpt>
<trkpt lat="43.0339320000" lon="0.1421170000"><ele>1178</ele><time>2026-03-18T12:01:34Z</time></trkpt>
<trkpt lat="43.0339320000" lon="0.1421420000"><ele>1178</ele><time>2026-03-18T12:01:36Z</time></trkpt>
<trkpt lat="43.0339270000" lon="0.1421670000"><ele>1178</ele><time>2026-03-18T12:01:38Z</time></trkpt>
<trkpt lat="43.0339250000" lon="0.1421970000"><ele>1178</ele><time>2026-03-18T12:01:40Z</time></trkpt>
<trkpt lat="43.0339220000" lon="0.1422220000"><ele>1177</ele><time>2026-03-18T12:01:42Z</time></trkpt>
<trkpt lat="43.0339200000" lon="0.1422520000"><ele>1177</ele><time>2026-03-18T12:01:44Z</time></trkpt>
<trkpt lat="43.0339220000" lon="0.1422920000"><ele>1177</ele><time>2026-03-18T12:01:46Z</time></trkpt>
<trkpt lat="43.0339220000" lon="0.1423270000"><ele>1177</ele><time>2026-03-18T12:01:48Z</time></trkpt>
<trkpt lat="43.0339270000" lon="0.1423620000"><ele>1177</ele><time>2026-03-18T12:01:50Z</time></trkpt>
<trkpt lat="43.0339320000" lon="0.1423870000"><ele>1177</ele><time>2026-03-18T12:01:52Z</time></trkpt>
<trkpt lat="43.0339320000" lon="0.1424170000"><ele>1177</ele><time>2026-03-18T12:01:54Z</time></trkpt>
<trkpt lat="43.0339320000" lon="0.1424520000"><ele>1177</ele><time>2026-03-18T12:01:56Z</time></trkpt>
<trkpt lat="43.0339270000" lon="0.1424800000"><ele>1177</ele><time>2026-03-18T12:01:58Z</time></trkpt>
<trkpt lat="43.0339250000" lon="0.1425100000"><ele>1177</ele><time>2026-03-18T12:02:00Z</time></trkpt>
<trkpt lat="43.0339220000" lon="0.1425350000"><ele>1176</ele><time>2026-03-18T12:02:02Z</time></trkpt>
<trkpt lat="43.0339270000" lon="0.1425620000"><ele>1176</ele><time>2026-03-18T12:02:04Z</time></trkpt>
<trkpt lat="43.0339250000" lon="0.1425880000"><ele>1176</ele><time>2026-03-18T12:02:06Z</time></trkpt>
<trkpt lat="43.0339250000" lon="0.1426170000"><ele>1176</ele><time>2026-03-18T12:02:08Z</time></trkpt>
<trkpt lat="43.0339320000" lon="0.1426470000"><ele>1176</ele><time>2026-03-18T12:02:10Z</time></trkpt>
<trkpt lat="43.0339370000" lon="0.1426820000"><ele>1176</ele><time>2026-03-18T12:02:12Z</time></trkpt>
<trkpt lat="43.0339450000" lon="0.1427120000"><ele>1176</ele><time>2026-03-18T12:02:14Z</time></trkpt>
<trkpt lat="43.0339470000" lon="0.1427420000"><ele>1176</ele><time>2026-03-18T12:02:16Z</time></trkpt>
<trkpt lat="43.0339500000" lon="0.1427720000"><ele>1176</ele><time>2026-03-18T12:02:18Z</time></trkpt>
<trkpt lat="43.0339570000" lon="0.1427970000"><ele>1176</ele><time>2026-03-18T12:02:20Z</time></trkpt>
<trkpt lat="43.0339550000" lon="0.1428220000"><ele>1176</ele><time>2026-03-18T12:02:22Z</time></trkpt>
<trkpt lat="43.0339520000" lon="0.1428580000"><ele>1176</ele><time>2026-03-18T12:02:25Z</time></trkpt>
<trkpt lat="43.0339470000" lon="0.1428920000"><ele>1176</ele><time>2026-03-18T12:02:28Z</time></trkpt>
<trkpt lat="43.0339470000" lon="0.1429300000"><ele>1177</ele><time>2026-03-18T12:02:31Z</time></trkpt>
<trkpt lat="43.0339520000" lon="0.1429550000"><ele>1177</ele><time>2026-03-18T12:02:33Z</time></trkpt>
<trkpt lat="43.0339450000" lon="0.1429770000"><ele>1177</ele><time>2026-03-18T12:02:35Z</time></trkpt>
<trkpt lat="43.0339370000" lon="0.1430070000"><ele>1177</ele><time>2026-03-18T12:02:37Z</time></trkpt>
<trkpt lat="43.0339320000" lon="0.1430320000"><ele>1177</ele><time>2026-03-18T12:02:40Z</time></trkpt>
<trkpt lat="43.0339320000" lon="0.1430620000"><ele>1177</ele><time>2026-03-18T12:02:42Z</time></trkpt>
<trkpt lat="43.0339250000" lon="0.1430970000"><ele>1177</ele><time>2026-03-18T12:02:44Z</time></trkpt>
<trkpt lat="43.0339270000" lon="0.1431270000"><ele>1177</ele><time>2026-03-18T12:02:46Z</time></trkpt>
<trkpt lat="43.0339320000" lon="0.1431570000"><ele>1178</ele><time>2026-03-18T12:02:49Z</time></trkpt>
<trkpt lat="43.0339350000" lon="0.1431820000"><ele>1178</ele><time>2026-03-18T12:02:52Z</time></trkpt>
<trkpt lat="43.0339300000" lon="0.1432170000"><ele>1178</ele><time>2026-03-18T12:02:56Z</time></trkpt>
<trkpt lat="43.0339220000" lon="0.1432570000"><ele>1178</ele><time>2026-03-18T12:02:58Z</time></trkpt>
<trkpt lat="43.0339170000" lon="0.1432950000"><ele>1178</ele><time>2026-03-18T12:03:00Z</time></trkpt>
<trkpt lat="43.0339100000" lon="0.1433350000"><ele>1178</ele><time>2026-03-18T12:03:02Z</time></trkpt>
<trkpt lat="43.0339020000" lon="0.1433700000"><ele>1178</ele><time>2026-03-18T12:03:04Z</time></trkpt>
<trkpt lat="43.0338920000" lon="0.1433970000"><ele>1178</ele><time>2026-03-18T12:03:06Z</time></trkpt>
<trkpt lat="43.0338920000" lon="0.1434230000"><ele>1178</ele><time>2026-03-18T12:03:08Z</time></trkpt>
<trkpt lat="43.0338820000" lon="0.1434570000"><ele>1178</ele><time>2026-03-18T12:03:10Z</time></trkpt>
<trkpt lat="43.0338770000" lon="0.1434870000"><ele>1178</ele><time>2026-03-18T12:03:12Z</time></trkpt>
<trkpt lat="43.0338750000" lon="0.1435120000"><ele>1178</ele><time>2026-03-18T12:03:14Z</time></trkpt>
<trkpt lat="43.0338750000" lon="0.1435370000"><ele>1178</ele><time>2026-03-18T12:03:16Z</time></trkpt>
<trkpt lat="43.0338720000" lon="0.1435700000"><ele>1178</ele><time>2026-03-18T12:03:19Z</time></trkpt>
<trkpt lat="43.0338750000" lon="0.1435970000"><ele>1178</ele><time>2026-03-18T12:03:22Z</time></trkpt>
<trkpt lat="43.0338820000" lon="0.1436220000"><ele>1177</ele><time>2026-03-18T12:03:24Z</time></trkpt>
<trkpt lat="43.0338850000" lon="0.1436570000"><ele>1177</ele><time>2026-03-18T12:03:27Z</time></trkpt>
<trkpt lat="43.0338820000" lon="0.1436820000"><ele>1177</ele><time>2026-03-18T12:03:29Z</time></trkpt>
<trkpt lat="43.0338720000" lon="0.1437120000"><ele>1177</ele><time>2026-03-18T12:03:31Z</time></trkpt>
<trkpt lat="43.0338670000" lon="0.1437420000"><ele>1176</ele><time>2026-03-18T12:03:33Z</time></trkpt>
<trkpt lat="43.0338670000" lon="0.1437670000"><ele>1176</ele><time>2026-03-18T12:03:35Z</time></trkpt>
<trkpt lat="43.0338820000" lon="0.1437870000"><ele>1176</ele><time>2026-03-18T12:03:37Z</time></trkpt>
<trkpt lat="43.0338870000" lon="0.1438170000"><ele>1176</ele><time>2026-03-18T12:03:39Z</time></trkpt>
<trkpt lat="43.0338870000" lon="0.1438470000"><ele>1175</ele><time>2026-03-18T12:03:42Z</time></trkpt>
<trkpt lat="43.0338920000" lon="0.1438750000"><ele>1175</ele><time>2026-03-18T12:03:45Z</time></trkpt>
<trkpt lat="43.0338900000" lon="0.1439020000"><ele>1174</ele><time>2026-03-18T12:03:48Z</time></trkpt>
<trkpt lat="43.0338720000" lon="0.1439220000"><ele>1174</ele><time>2026-03-18T12:03:50Z</time></trkpt>
<trkpt lat="43.0338650000" lon="0.1439470000"><ele>1174</ele><time>2026-03-18T12:03:53Z</time></trkpt>
<trkpt lat="43.0338720000" lon="0.1439730000"><ele>1173</ele><time>2026-03-18T12:03:57Z</time></trkpt>
<trkpt lat="43.0338770000" lon="0.1440050000"><ele>1173</ele><time>2026-03-18T12:04:00Z</time></trkpt>
<trkpt lat="43.0338700000" lon="0.1440300000"><ele>1172</ele><time>2026-03-18T12:04:03Z</time></trkpt>
<trkpt lat="43.0338670000" lon="0.1440550000"><ele>1172</ele><time>2026-03-18T12:04:05Z</time></trkpt>
<trkpt lat="43.0338670000" lon="0.1440880000"><ele>1171</ele><time>2026-03-18T12:04:08Z</time></trkpt>
<trkpt lat="43.0338720000" lon="0.1441130000"><ele>1171</ele><time>2026-03-18T12:04:10Z</time></trkpt>
<trkpt lat="43.0338820000" lon="0.1441370000"><ele>1171</ele><time>2026-03-18T12:04:11Z</time></trkpt>
<trkpt lat="43.0339020000" lon="0.1441520000"><ele>1171</ele><time>2026-03-18T12:04:14Z</time></trkpt>
<trkpt lat="43.0339220000" lon="0.1441670000"><ele>1171</ele><time>2026-03-18T12:04:17Z</time></trkpt>
<trkpt lat="43.0339370000" lon="0.1441820000"><ele>1170</ele><time>2026-03-18T12:04:20Z</time></trkpt>
<trkpt lat="43.0339600000" lon="0.1441950000"><ele>1169</ele><time>2026-03-18T12:04:22Z</time></trkpt>
<trkpt lat="43.0339820000" lon="0.1442050000"><ele>1169</ele><time>2026-03-18T12:04:24Z</time></trkpt>
<trkpt lat="43.0340020000" lon="0.1442220000"><ele>1169</ele><time>2026-03-18T12:04:27Z</time></trkpt>
<trkpt lat="43.0340100000" lon="0.1442470000"><ele>1168</ele><time>2026-03-18T12:04:34Z</time></trkpt>
<trkpt lat="43.0339970000" lon="0.1442730000"><ele>1168</ele><time>2026-03-18T12:05:02Z</time></trkpt>
<trkpt lat="43.0339820000" lon="0.1443000000"><ele>1168</ele><time>2026-03-18T12:05:04Z</time></trkpt>
<trkpt lat="43.0339550000" lon="0.1443220000"><ele>1168</ele><time>2026-03-18T12:05:06Z</time></trkpt>
<trkpt lat="43.0339370000" lon="0.1443400000"><ele>1168</ele><time>2026-03-18T12:05:08Z</time></trkpt>
<trkpt lat="43.0339500000" lon="0.1443070000"><ele>1167</ele><time>2026-03-18T12:05:20Z</time></trkpt>
<trkpt lat="43.0339370000" lon="0.1442870000"><ele>1167</ele><time>2026-03-18T12:05:39Z</time></trkpt>
<trkpt lat="43.0339270000" lon="0.1442650000"><ele>1167</ele><time>2026-03-18T12:05:46Z</time></trkpt>
<trkpt lat="43.0339470000" lon="0.1442570000"><ele>1167</ele><time>2026-03-18T12:06:53Z</time></trkpt>
<trkpt lat="43.0339720000" lon="0.1442770000"><ele>1168</ele><time>2026-03-18T12:06:58Z</time></trkpt>
<trkpt lat="43.0340000000" lon="0.1443020000"><ele>1167</ele><time>2026-03-18T12:07:00Z</time></trkpt>
<trkpt lat="43.0340170000" lon="0.1443400000"><ele>1167</ele><time>2026-03-18T12:07:02Z</time></trkpt>
<trkpt lat="43.0340170000" lon="0.1443670000"><ele>1167</ele><time>2026-03-18T12:07:04Z</time></trkpt>
<trkpt lat="43.0340150000" lon="0.1443930000"><ele>1167</ele><time>2026-03-18T12:07:06Z</time></trkpt>
<trkpt lat="43.0340100000" lon="0.1444220000"><ele>1167</ele><time>2026-03-18T12:07:08Z</time></trkpt>
<trkpt lat="43.0340100000" lon="0.1444520000"><ele>1166</ele><time>2026-03-18T12:07:10Z</time></trkpt>
<trkpt lat="43.0340070000" lon="0.1444770000"><ele>1166</ele><time>2026-03-18T12:07:12Z</time></trkpt>
<trkpt lat="43.0339970000" lon="0.1445120000"><ele>1166</ele><time>2026-03-18T12:07:14Z</time></trkpt>
<trkpt lat="43.0340020000" lon="0.1445400000"><ele>1166</ele><time>2026-03-18T12:07:16Z</time></trkpt>
<trkpt lat="43.0339930000" lon="0.1445650000"><ele>1165</ele><time>2026-03-18T12:07:20Z</time></trkpt>
<trkpt lat="43.0339900000" lon="0.1445970000"><ele>1164</ele><time>2026-03-18T12:07:23Z</time></trkpt>
<trkpt lat="43.0339770000" lon="0.1446270000"><ele>1164</ele><time>2026-03-18T12:07:25Z</time></trkpt>
<trkpt lat="43.0339750000" lon="0.1446520000"><ele>1164</ele><time>2026-03-18T12:07:27Z</time></trkpt>
<trkpt lat="43.0339770000" lon="0.1446770000"><ele>1163</ele><time>2026-03-18T12:07:30Z</time></trkpt>
<trkpt lat="43.0339920000" lon="0.1447020000"><ele>1163</ele><time>2026-03-18T12:07:33Z</time></trkpt>
<trkpt lat="43.0340050000" lon="0.1447270000"><ele>1162</ele><time>2026-03-18T12:07:36Z</time></trkpt>
<trkpt lat="43.0340220000" lon="0.1447470000"><ele>1161</ele><time>2026-03-18T12:07:39Z</time></trkpt>
<trkpt lat="43.0340320000" lon="0.1447720000"><ele>1161</ele><time>2026-03-18T12:07:41Z</time></trkpt>
<trkpt lat="43.0340350000" lon="0.1448030000"><ele>1160</ele><time>2026-03-18T12:07:43Z</time></trkpt>
<trkpt lat="43.0340350000" lon="0.1448330000"><ele>1160</ele><time>2026-03-18T12:07:45Z</time></trkpt>
<trkpt lat="43.0340320000" lon="0.1448600000"><ele>1159</ele><time>2026-03-18T12:07:47Z</time></trkpt>
<trkpt lat="43.0340370000" lon="0.1448870000"><ele>1159</ele><time>2026-03-18T12:07:49Z</time></trkpt>
<trkpt lat="43.0340500000" lon="0.1449070000"><ele>1158</ele><time>2026-03-18T12:07:51Z</time></trkpt>
<trkpt lat="43.0340570000" lon="0.1449320000"><ele>1158</ele><time>2026-03-18T12:07:53Z</time></trkpt>
<trkpt lat="43.0340520000" lon="0.1449570000"><ele>1157</ele><time>2026-03-18T12:07:56Z</time></trkpt>
<trkpt lat="43.0340520000" lon="0.1449870000"><ele>1157</ele><time>2026-03-18T12:07:59Z</time></trkpt>
<trkpt lat="43.0340520000" lon="0.1450120000"><ele>1156</ele><time>2026-03-18T12:08:01Z</time></trkpt>
<trkpt lat="43.0340620000" lon="0.1450420000"><ele>1156</ele><time>2026-03-18T12:08:03Z</time></trkpt>
<trkpt lat="43.0340770000" lon="0.1450670000"><ele>1155</ele><time>2026-03-18T12:08:05Z</time></trkpt>
<trkpt lat="43.0340900000" lon="0.1450870000"><ele>1155</ele><time>2026-03-18T12:08:07Z</time></trkpt>
<trkpt lat="43.0340820000" lon="0.1451120000"><ele>1153</ele><time>2026-03-18T12:08:25Z</time></trkpt>
<trkpt lat="43.0340720000" lon="0.1451420000"><ele>1153</ele><time>2026-03-18T12:08:28Z</time></trkpt>
<trkpt lat="43.0340700000" lon="0.1451700000"><ele>1153</ele><time>2026-03-18T12:08:30Z</time></trkpt>
<trkpt lat="43.0340720000" lon="0.1452020000"><ele>1152</ele><time>2026-03-18T12:08:33Z</time></trkpt>
<trkpt lat="43.0340800000" lon="0.1452320000"><ele>1152</ele><time>2026-03-18T12:08:36Z</time></trkpt>
<trkpt lat="43.0340950000" lon="0.1452620000"><ele>1151</ele><time>2026-03-18T12:08:39Z</time></trkpt>
<trkpt lat="43.0340920000" lon="0.1452870000"><ele>1150</ele><time>2026-03-18T12:08:41Z</time></trkpt>
<trkpt lat="43.0341000000" lon="0.1453170000"><ele>1150</ele><time>2026-03-18T12:08:44Z</time></trkpt>
<trkpt lat="43.0341100000" lon="0.1453420000"><ele>1149</ele><time>2026-03-18T12:08:46Z</time></trkpt>
<trkpt lat="43.0341220000" lon="0.1453700000"><ele>1149</ele><time>2026-03-18T12:08:48Z</time></trkpt>
<trkpt lat="43.0341270000" lon="0.1453970000"><ele>1149</ele><time>2026-03-18T12:08:50Z</time></trkpt>
<trkpt lat="43.0341300000" lon="0.1454270000"><ele>1148</ele><time>2026-03-18T12:08:52Z</time></trkpt>
<trkpt lat="43.0341420000" lon="0.1454650000"><ele>1148</ele><time>2026-03-18T12:08:55Z</time></trkpt>
<trkpt lat="43.0341570000" lon="0.1454900000"><ele>1147</ele><time>2026-03-18T12:08:57Z</time></trkpt>
<trkpt lat="43.0341720000" lon="0.1455100000"><ele>1147</ele><time>2026-03-18T12:08:59Z</time></trkpt>
<trkpt lat="43.0341850000" lon="0.1455320000"><ele>1147</ele><time>2026-03-18T12:09:01Z</time></trkpt>
<trkpt lat="43.0341950000" lon="0.1455620000"><ele>1146</ele><time>2026-03-18T12:09:03Z</time></trkpt>
<trkpt lat="43.0342000000" lon="0.1455870000"><ele>1146</ele><time>2026-03-18T12:09:05Z</time></trkpt>
<trkpt lat="43.0342150000" lon="0.1456120000"><ele>1146</ele><time>2026-03-18T12:09:07Z</time></trkpt>
<trkpt lat="43.0342300000" lon="0.1456370000"><ele>1146</ele><time>2026-03-18T12:09:09Z</time></trkpt>
<trkpt lat="43.0342350000" lon="0.1456620000"><ele>1146</ele><time>2026-03-18T12:09:11Z</time></trkpt>
<trkpt lat="43.0342470000" lon="0.1456820000"><ele>1145</ele><time>2026-03-18T12:09:13Z</time></trkpt>
<trkpt lat="43.0342620000" lon="0.1457050000"><ele>1145</ele><time>2026-03-18T12:09:15Z</time></trkpt>
<trkpt lat="43.0342820000" lon="0.1457270000"><ele>1145</ele><time>2026-03-18T12:09:17Z</time></trkpt>
<trkpt lat="43.0343020000" lon="0.1457370000"><ele>1145</ele><time>2026-03-18T12:09:19Z</time></trkpt>
<trkpt lat="43.0343000000" lon="0.1457650000"><ele>1145</ele><time>2026-03-18T12:09:40Z</time></trkpt>
<trkpt lat="43.0343170000" lon="0.1457870000"><ele>1145</ele><time>2026-03-18T12:09:44Z</time></trkpt>
<trkpt lat="43.0343400000" lon="0.1458020000"><ele>1145</ele><time>2026-03-18T12:09:46Z</time></trkpt>
<trkpt lat="43.0343570000" lon="0.1458170000"><ele>1146</ele><time>2026-03-18T12:09:48Z</time></trkpt>
<trkpt lat="43.0343770000" lon="0.1458270000"><ele>1146</ele><time>2026-03-18T12:09:50Z</time></trkpt>
<trkpt lat="43.0344000000" lon="0.1458370000"><ele>1146</ele><time>2026-03-18T12:09:53Z</time></trkpt>
<trkpt lat="43.0344170000" lon="0.1458470000"><ele>1146</ele><time>2026-03-18T12:09:56Z</time></trkpt>
<trkpt lat="43.0344320000" lon="0.1458570000"><ele>1147</ele><time>2026-03-18T12:09:59Z</time></trkpt>
<trkpt lat="43.0344470000" lon="0.1458770000"><ele>1148</ele><time>2026-03-18T12:10:04Z</time></trkpt>
<trkpt lat="43.0344620000" lon="0.1458920000"><ele>1148</ele><time>2026-03-18T12:10:08Z</time></trkpt>
<trkpt lat="43.0344520000" lon="0.1459220000"><ele>1149</ele><time>2026-03-18T12:10:13Z</time></trkpt>
<trkpt lat="43.0344320000" lon="0.1459370000"><ele>1150</ele><time>2026-03-18T12:10:16Z</time></trkpt>
<trkpt lat="43.0344150000" lon="0.1459520000"><ele>1150</ele><time>2026-03-18T12:10:20Z</time></trkpt>
<trkpt lat="43.0343950000" lon="0.1459570000"><ele>1151</ele><time>2026-03-18T12:10:27Z</time></trkpt>
<trkpt lat="43.0343850000" lon="0.1459800000"><ele>1152</ele><time>2026-03-18T12:10:30Z</time></trkpt>
<trkpt lat="43.0343820000" lon="0.1460070000"><ele>1154</ele><time>2026-03-18T12:10:44Z</time></trkpt>
<trkpt lat="43.0343970000" lon="0.1460330000"><ele>1154</ele><time>2026-03-18T12:10:47Z</time></trkpt>
<trkpt lat="43.0344020000" lon="0.1460580000"><ele>1154</ele><time>2026-03-18T12:10:50Z</time></trkpt>
<trkpt lat="43.0344070000" lon="0.1460950000"><ele>1158</ele><time>2026-03-18T12:11:37Z</time></trkpt>
<trkpt lat="43.0344120000" lon="0.1461220000"><ele>1158</ele><time>2026-03-18T12:11:38Z</time></trkpt>
<trkpt lat="43.0344170000" lon="0.1461520000"><ele>1158</ele><time>2026-03-18T12:11:39Z</time></trkpt>
<trkpt lat="43.0344220000" lon="0.1461850000"><ele>1158</ele><time>2026-03-18T12:11:40Z</time></trkpt>
<trkpt lat="43.0344270000" lon="0.1462120000"><ele>1158</ele><time>2026-03-18T12:11:41Z</time></trkpt>
<trkpt lat="43.0344370000" lon="0.1462420000"><ele>1158</ele><time>2026-03-18T12:11:43Z</time></trkpt>
<trkpt lat="43.0344370000" lon="0.1462670000"><ele>1158</ele><time>2026-03-18T12:11:47Z</time></trkpt>
<trkpt lat="43.0344320000" lon="0.1462950000"><ele>1160</ele><time>2026-03-18T12:13:04Z</time></trkpt>
<trkpt lat="43.0344320000" lon="0.1463520000"><ele>1160</ele><time>2026-03-18T12:13:06Z</time></trkpt>
<trkpt lat="43.0344320000" lon="0.1463870000"><ele>1160</ele><time>2026-03-18T12:13:07Z</time></trkpt>
<trkpt lat="43.0344320000" lon="0.1464220000"><ele>1160</ele><time>2026-03-18T12:13:08Z</time></trkpt>
<trkpt lat="43.0344370000" lon="0.1464480000"><ele>1160</ele><time>2026-03-18T12:13:09Z</time></trkpt>
<trkpt lat="43.0344430000" lon="0.1464900000"><ele>1160</ele><time>2026-03-18T12:13:11Z</time></trkpt>
<trkpt lat="43.0344470000" lon="0.1465150000"><ele>1161</ele><time>2026-03-18T12:13:13Z</time></trkpt>
<trkpt lat="43.0344520000" lon="0.1465420000"><ele>1161</ele><time>2026-03-18T12:13:16Z</time></trkpt>
<trkpt lat="43.0344520000" lon="0.1465720000"><ele>1162</ele><time>2026-03-18T12:13:21Z</time></trkpt>
<trkpt lat="43.0344470000" lon="0.1466020000"><ele>1162</ele><time>2026-03-18T12:13:25Z</time></trkpt>
<trkpt lat="43.0344470000" lon="0.1466270000"><ele>1163</ele><time>2026-03-18T12:13:29Z</time></trkpt>
<trkpt lat="43.0344520000" lon="0.1466550000"><ele>1164</ele><time>2026-03-18T12:13:33Z</time></trkpt>
<trkpt lat="43.0344470000" lon="0.1466820000"><ele>1164</ele><time>2026-03-18T12:13:36Z</time></trkpt>
<trkpt lat="43.0344320000" lon="0.1467050000"><ele>1165</ele><time>2026-03-18T12:13:39Z</time></trkpt>
<trkpt lat="43.0344270000" lon="0.1467350000"><ele>1165</ele><time>2026-03-18T12:13:43Z</time></trkpt>
<trkpt lat="43.0344220000" lon="0.1467600000"><ele>1166</ele><time>2026-03-18T12:13:46Z</time></trkpt>
<trkpt lat="43.0344120000" lon="0.1467870000"><ele>1166</ele><time>2026-03-18T12:13:49Z</time></trkpt>
<trkpt lat="43.0343970000" lon="0.1468120000"><ele>1166</ele><time>2026-03-18T12:13:53Z</time></trkpt>
<trkpt lat="43.0344050000" lon="0.1468350000"><ele>1167</ele><time>2026-03-18T12:13:57Z</time></trkpt>
<trkpt lat="43.0344000000" lon="0.1468620000"><ele>1168</ele><time>2026-03-18T12:14:02Z</time></trkpt>
<trkpt lat="43.0343970000" lon="0.1468950000"><ele>1168</ele><time>2026-03-18T12:14:06Z</time></trkpt>
<trkpt lat="43.0343820000" lon="0.1469130000"><ele>1169</ele><time>2026-03-18T12:14:11Z</time></trkpt>
<trkpt lat="43.0343620000" lon="0.1469130000"><ele>1169</ele><time>2026-03-18T12:14:15Z</time></trkpt>
<trkpt lat="43.0343570000" lon="0.1469380000"><ele>1170</ele><time>2026-03-18T12:14:19Z</time></trkpt>
<trkpt lat="43.0343570000" lon="0.1469650000"><ele>1170</ele><time>2026-03-18T12:14:22Z</time></trkpt>
<trkpt lat="43.0343720000" lon="0.1469850000"><ele>1171</ele><time>2026-03-18T12:14:24Z</time></trkpt>
<trkpt lat="43.0343720000" lon="0.1470120000"><ele>1171</ele><time>2026-03-18T12:14:26Z</time></trkpt>
<trkpt lat="43.0343520000" lon="0.1470170000"><ele>1171</ele><time>2026-03-18T12:14:29Z</time></trkpt>
<trkpt lat="43.0343450000" lon="0.1470420000"><ele>1172</ele><time>2026-03-18T12:14:35Z</time></trkpt>
<trkpt lat="43.0343220000" lon="0.1470600000"><ele>1173</ele><time>2026-03-18T12:16:58Z</time></trkpt>
<trkpt lat="43.0343050000" lon="0.1470870000"><ele>1173</ele><time>2026-03-18T12:17:01Z</time></trkpt>
<trkpt lat="43.0342920000" lon="0.1471070000"><ele>1174</ele><time>2026-03-18T12:27:22Z</time></trkpt>
<trkpt lat="43.0343070000" lon="0.1471270000"><ele>1173</ele><time>2026-03-18T12:28:02Z</time></trkpt>
<trkpt lat="43.0343100000" lon="0.1471520000"><ele>1173</ele><time>2026-03-18T12:28:04Z</time></trkpt>
<trkpt lat="43.0343070000" lon="0.1471770000"><ele>1173</ele><time>2026-03-18T12:28:06Z</time></trkpt>
<trkpt lat="43.0343050000" lon="0.1472020000"><ele>1173</ele><time>2026-03-18T12:28:09Z</time></trkpt>
<trkpt lat="43.0343070000" lon="0.1472270000"><ele>1173</ele><time>2026-03-18T12:28:12Z</time></trkpt>
<trkpt lat="43.0343050000" lon="0.1472550000"><ele>1172</ele><time>2026-03-18T12:28:15Z</time></trkpt>
<trkpt lat="43.0343120000" lon="0.1472200000"><ele>1172</ele><time>2026-03-18T12:28:32Z</time></trkpt>
<trkpt lat="43.0343120000" lon="0.1471950000"><ele>1172</ele><time>2026-03-18T12:28:33Z</time></trkpt>
<trkpt lat="43.0343120000" lon="0.1471680000"><ele>1172</ele><time>2026-03-18T12:28:34Z</time></trkpt>
<trkpt lat="43.0343050000" lon="0.1471270000"><ele>1172</ele><time>2026-03-18T12:28:36Z</time></trkpt>
<trkpt lat="43.0343020000" lon="0.1471000000"><ele>1172</ele><time>2026-03-18T12:28:38Z</time></trkpt>
<trkpt lat="43.0343020000" lon="0.1470720000"><ele>1172</ele><time>2026-03-18T12:28:42Z</time></trkpt>
<trkpt lat="43.0343170000" lon="0.1470520000"><ele>1174</ele><time>2026-03-18T12:29:34Z</time></trkpt>
<trkpt lat="43.0343250000" lon="0.1470770000"><ele>1173</ele><time>2026-03-18T12:31:11Z</time></trkpt>
<trkpt lat="43.0343400000" lon="0.1471100000"><ele>1173</ele><time>2026-03-18T12:32:06Z</time></trkpt>
<trkpt lat="43.0343420000" lon="0.1471520000"><ele>1173</ele><time>2026-03-18T12:32:08Z</time></trkpt>
<trkpt lat="43.0343420000" lon="0.1471850000"><ele>1172</ele><time>2026-03-18T12:32:10Z</time></trkpt>
<trkpt lat="43.0343320000" lon="0.1472120000"><ele>1172</ele><time>2026-03-18T12:32:14Z</time></trkpt>
<trkpt lat="43.0343270000" lon="0.1472400000"><ele>1172</ele><time>2026-03-18T12:32:16Z</time></trkpt>
<trkpt lat="43.0343220000" lon="0.1472670000"><ele>1171</ele><time>2026-03-18T12:32:18Z</time></trkpt>
<trkpt lat="43.0343120000" lon="0.1472920000"><ele>1171</ele><time>2026-03-18T12:32:21Z</time></trkpt>
<trkpt lat="43.0342970000" lon="0.1473020000"><ele>1171</ele><time>2026-03-18T12:32:24Z</time></trkpt>
<trkpt lat="43.0342770000" lon="0.1473120000"><ele>1170</ele><time>2026-03-18T12:32:29Z</time></trkpt>
<trkpt lat="43.0342570000" lon="0.1473120000"><ele>1169</ele><time>2026-03-18T12:32:32Z</time></trkpt>
<trkpt lat="43.0342370000" lon="0.1473070000"><ele>1168</ele><time>2026-03-18T12:32:38Z</time></trkpt>
<trkpt lat="43.0342180000" lon="0.1473120000"><ele>1166</ele><time>2026-03-18T12:32:44Z</time></trkpt>
<trkpt lat="43.0342100000" lon="0.1473350000"><ele>1164</ele><time>2026-03-18T12:32:55Z</time></trkpt>
<trkpt lat="43.0342020000" lon="0.1473720000"><ele>1163</ele><time>2026-03-18T12:32:57Z</time></trkpt>
<trkpt lat="43.0341950000" lon="0.1474100000"><ele>1163</ele><time>2026-03-18T12:32:59Z</time></trkpt>
<trkpt lat="43.0341820000" lon="0.1474270000"><ele>1161</ele><time>2026-03-18T12:33:06Z</time></trkpt>
<trkpt lat="43.0341770000" lon="0.1474680000"><ele>1158</ele><time>2026-03-18T12:33:28Z</time></trkpt>
<trkpt lat="43.0341750000" lon="0.1474970000"><ele>1157</ele><time>2026-03-18T12:33:29Z</time></trkpt>
<trkpt lat="43.0341700000" lon="0.1475250000"><ele>1157</ele><time>2026-03-18T12:33:30Z</time></trkpt>
<trkpt lat="43.0341570000" lon="0.1475570000"><ele>1157</ele><time>2026-03-18T12:33:32Z</time></trkpt>
<trkpt lat="43.0341420000" lon="0.1475720000"><ele>1156</ele><time>2026-03-18T12:33:34Z</time></trkpt>
<trkpt lat="43.0341320000" lon="0.1475970000"><ele>1155</ele><time>2026-03-18T12:33:36Z</time></trkpt>
<trkpt lat="43.0341320000" lon="0.1476250000"><ele>1155</ele><time>2026-03-18T12:33:38Z</time></trkpt>
<trkpt lat="43.0341120000" lon="0.1476170000"><ele>1153</ele><time>2026-03-18T12:34:58Z</time></trkpt>
<trkpt lat="43.0341050000" lon="0.1476520000"><ele>1152</ele><time>2026-03-18T12:35:01Z</time></trkpt>
<trkpt lat="43.0340950000" lon="0.1476770000"><ele>1152</ele><time>2026-03-18T12:35:03Z</time></trkpt>
<trkpt lat="43.0340820000" lon="0.1477070000"><ele>1151</ele><time>2026-03-18T12:35:06Z</time></trkpt>
<trkpt lat="43.0340820000" lon="0.1477370000"><ele>1150</ele><time>2026-03-18T12:35:10Z</time></trkpt>
<trkpt lat="43.0340800000" lon="0.1477670000"><ele>1150</ele><time>2026-03-18T12:35:14Z</time></trkpt>
<trkpt lat="43.0340670000" lon="0.1477900000"><ele>1149</ele><time>2026-03-18T12:35:17Z</time></trkpt>
<trkpt lat="43.0340470000" lon="0.1478050000"><ele>1148</ele><time>2026-03-18T12:35:19Z</time></trkpt>
<trkpt lat="43.0340300000" lon="0.1478120000"><ele>1148</ele><time>2026-03-18T12:35:22Z</time></trkpt>
<trkpt lat="43.0340070000" lon="0.1478220000"><ele>1147</ele><time>2026-03-18T12:35:25Z</time></trkpt>
<trkpt lat="43.0339930000" lon="0.1478450000"><ele>1143</ele><time>2026-03-18T12:36:37Z</time></trkpt>
<trkpt lat="43.0339900000" lon="0.1478870000"><ele>1142</ele><time>2026-03-18T12:36:39Z</time></trkpt>
<trkpt lat="43.0339820000" lon="0.1479300000"><ele>1142</ele><time>2026-03-18T12:36:41Z</time></trkpt>
<trkpt lat="43.0339700000" lon="0.1479520000"><ele>1141</ele><time>2026-03-18T12:36:43Z</time></trkpt>
<trkpt lat="43.0339570000" lon="0.1479820000"><ele>1140</ele><time>2026-03-18T12:36:46Z</time></trkpt>
<trkpt lat="43.0339420000" lon="0.1480020000"><ele>1139</ele><time>2026-03-18T12:36:49Z</time></trkpt>
<trkpt lat="43.0339300000" lon="0.1480200000"><ele>1139</ele><time>2026-03-18T12:36:51Z</time></trkpt>
<trkpt lat="43.0339120000" lon="0.1480320000"><ele>1138</ele><time>2026-03-18T12:36:53Z</time></trkpt>
<trkpt lat="43.0338950000" lon="0.1480320000"><ele>1137</ele><time>2026-03-18T12:36:55Z</time></trkpt>
<trkpt lat="43.0338750000" lon="0.1480450000"><ele>1137</ele><time>2026-03-18T12:36:58Z</time></trkpt>
<trkpt lat="43.0338670000" lon="0.1480770000"><ele>1135</ele><time>2026-03-18T12:37:01Z</time></trkpt>
<trkpt lat="43.0338600000" lon="0.1481070000"><ele>1134</ele><time>2026-03-18T12:37:04Z</time></trkpt>
<trkpt lat="43.0338420000" lon="0.1481180000"><ele>1133</ele><time>2026-03-18T12:37:07Z</time></trkpt>
<trkpt lat="43.0338520000" lon="0.1481520000"><ele>1131</ele><time>2026-03-18T12:37:26Z</time></trkpt>
<trkpt lat="43.0338720000" lon="0.1481870000"><ele>1131</ele><time>2026-03-18T12:37:28Z</time></trkpt>
<trkpt lat="43.0338900000" lon="0.1482150000"><ele>1131</ele><time>2026-03-18T12:37:30Z</time></trkpt>
<trkpt lat="43.0339020000" lon="0.1482350000"><ele>1130</ele><time>2026-03-18T12:37:32Z</time></trkpt>
<trkpt lat="43.0338850000" lon="0.1482470000"><ele>1129</ele><time>2026-03-18T12:38:42Z</time></trkpt>
<trkpt lat="43.0338620000" lon="0.1482520000"><ele>1129</ele><time>2026-03-18T12:39:39Z</time></trkpt>
<trkpt lat="43.0338420000" lon="0.1482570000"><ele>1129</ele><time>2026-03-18T12:39:41Z</time></trkpt>
<trkpt lat="43.0338300000" lon="0.1482770000"><ele>1128</ele><time>2026-03-18T12:39:44Z</time></trkpt>
<trkpt lat="43.0338120000" lon="0.1482900000"><ele>1127</ele><time>2026-03-18T12:39:47Z</time></trkpt>
<trkpt lat="43.0337920000" lon="0.1482970000"><ele>1126</ele><time>2026-03-18T12:39:50Z</time></trkpt>
<trkpt lat="43.0337650000" lon="0.1483170000"><ele>1125</ele><time>2026-03-18T12:39:53Z</time></trkpt>
<trkpt lat="43.0337470000" lon="0.1483320000"><ele>1125</ele><time>2026-03-18T12:39:55Z</time></trkpt>
<trkpt lat="43.0337350000" lon="0.1483570000"><ele>1123</ele><time>2026-03-18T12:39:59Z</time></trkpt>
<trkpt lat="43.0337370000" lon="0.1483880000"><ele>1122</ele><time>2026-03-18T12:40:02Z</time></trkpt>
<trkpt lat="43.0337470000" lon="0.1484120000"><ele>1120</ele><time>2026-03-18T12:40:07Z</time></trkpt>
<trkpt lat="43.0337450000" lon="0.1484450000"><ele>1119</ele><time>2026-03-18T12:40:19Z</time></trkpt>
<trkpt lat="43.0337370000" lon="0.1484720000"><ele>1117</ele><time>2026-03-18T12:40:25Z</time></trkpt>
<trkpt lat="43.0337250000" lon="0.1485020000"><ele>1117</ele><time>2026-03-18T12:40:27Z</time></trkpt>
<trkpt lat="43.0337120000" lon="0.1485320000"><ele>1116</ele><time>2026-03-18T12:40:29Z</time></trkpt>
<trkpt lat="43.0336920000" lon="0.1485450000"><ele>1115</ele><time>2026-03-18T12:40:32Z</time></trkpt>
<trkpt lat="43.0336770000" lon="0.1485700000"><ele>1114</ele><time>2026-03-18T12:40:37Z</time></trkpt>
<trkpt lat="43.0336770000" lon="0.1486030000"><ele>1113</ele><time>2026-03-18T12:40:41Z</time></trkpt>
<trkpt lat="43.0336670000" lon="0.1486300000"><ele>1112</ele><time>2026-03-18T12:40:44Z</time></trkpt>
<trkpt lat="43.0336550000" lon="0.1486470000"><ele>1112</ele><time>2026-03-18T12:40:46Z</time></trkpt>
<trkpt lat="43.0336450000" lon="0.1486720000"><ele>1111</ele><time>2026-03-18T12:40:50Z</time></trkpt>
<trkpt lat="43.0336370000" lon="0.1486970000"><ele>1109</ele><time>2026-03-18T12:40:57Z</time></trkpt>
<trkpt lat="43.0336250000" lon="0.1487270000"><ele>1108</ele><time>2026-03-18T12:41:00Z</time></trkpt>
<trkpt lat="43.0336020000" lon="0.1487320000"><ele>1108</ele><time>2026-03-18T12:41:03Z</time></trkpt>
<trkpt lat="43.0335870000" lon="0.1487570000"><ele>1106</ele><time>2026-03-18T12:41:08Z</time></trkpt>
<trkpt lat="43.0335900000" lon="0.1487870000"><ele>1105</ele><time>2026-03-18T12:41:12Z</time></trkpt>
<trkpt lat="43.0335900000" lon="0.1488170000"><ele>1105</ele><time>2026-03-18T12:41:15Z</time></trkpt>
<trkpt lat="43.0335720000" lon="0.1488320000"><ele>1104</ele><time>2026-03-18T12:41:20Z</time></trkpt>
<trkpt lat="43.0335670000" lon="0.1488620000"><ele>1102</ele><time>2026-03-18T12:41:24Z</time></trkpt>
<trkpt lat="43.0335570000" lon="0.1488850000"><ele>1101</ele><time>2026-03-18T12:41:52Z</time></trkpt>
<trkpt lat="43.0335420000" lon="0.1489050000"><ele>1100</ele><time>2026-03-18T12:41:56Z</time></trkpt>
<trkpt lat="43.0335370000" lon="0.1489300000"><ele>1097</ele><time>2026-03-18T12:42:14Z</time></trkpt>
<trkpt lat="43.0335320000" lon="0.1489670000"><ele>1097</ele><time>2026-03-18T12:42:16Z</time></trkpt>
<trkpt lat="43.0335250000" lon="0.1489970000"><ele>1096</ele><time>2026-03-18T12:42:18Z</time></trkpt>
<trkpt lat="43.0335120000" lon="0.1490220000"><ele>1095</ele><time>2026-03-18T12:42:22Z</time></trkpt>
<trkpt lat="43.0335020000" lon="0.1490470000"><ele>1095</ele><time>2026-03-18T12:42:25Z</time></trkpt>
<trkpt lat="43.0334870000" lon="0.1490620000"><ele>1094</ele><time>2026-03-18T12:42:29Z</time></trkpt>
<trkpt lat="43.0334720000" lon="0.1490820000"><ele>1093</ele><time>2026-03-18T12:42:31Z</time></trkpt>
<trkpt lat="43.0334670000" lon="0.1491120000"><ele>1092</ele><time>2026-03-18T12:42:35Z</time></trkpt>
<trkpt lat="43.0334750000" lon="0.1491370000"><ele>1091</ele><time>2026-03-18T12:42:40Z</time></trkpt>
<trkpt lat="43.0334770000" lon="0.1491620000"><ele>1089</ele><time>2026-03-18T12:42:44Z</time></trkpt>
<trkpt lat="43.0334770000" lon="0.1491870000"><ele>1088</ele><time>2026-03-18T12:42:47Z</time></trkpt>
<trkpt lat="43.0334720000" lon="0.1492220000"><ele>1087</ele><time>2026-03-18T12:43:04Z</time></trkpt>
<trkpt lat="43.0334650000" lon="0.1492430000"><ele>1086</ele><time>2026-03-18T12:43:06Z</time></trkpt>
<trkpt lat="43.0334500000" lon="0.1492720000"><ele>1086</ele><time>2026-03-18T12:43:09Z</time></trkpt>
<trkpt lat="43.0334450000" lon="0.1493050000"><ele>1085</ele><time>2026-03-18T12:43:13Z</time></trkpt>
<trkpt lat="43.0334300000" lon="0.1493250000"><ele>1083</ele><time>2026-03-18T12:43:17Z</time></trkpt>
<trkpt lat="43.0334100000" lon="0.1493270000"><ele>1083</ele><time>2026-03-18T12:43:20Z</time></trkpt>
<trkpt lat="43.0333880000" lon="0.1493450000"><ele>1081</ele><time>2026-03-18T12:43:27Z</time></trkpt>
<trkpt lat="43.0333720000" lon="0.1493530000"><ele>1080</ele><time>2026-03-18T12:43:32Z</time></trkpt>
<trkpt lat="43.0333720000" lon="0.1493800000"><ele>1078</ele><time>2026-03-18T12:43:44Z</time></trkpt>
<trkpt lat="43.0333620000" lon="0.1494050000"><ele>1077</ele><time>2026-03-18T12:43:46Z</time></trkpt>
<trkpt lat="43.0333570000" lon="0.1494350000"><ele>1076</ele><time>2026-03-18T12:43:50Z</time></trkpt>
<trkpt lat="43.0333470000" lon="0.1494620000"><ele>1076</ele><time>2026-03-18T12:43:53Z</time></trkpt>
<trkpt lat="43.0333250000" lon="0.1494930000"><ele>1069</ele><time>2026-03-18T12:44:30Z</time></trkpt>
<trkpt lat="43.0333070000" lon="0.1495150000"><ele>1069</ele><time>2026-03-18T12:44:31Z</time></trkpt>
<trkpt lat="43.0332900000" lon="0.1495280000"><ele>1069</ele><time>2026-03-18T12:44:32Z</time></trkpt>
<trkpt lat="43.0332620000" lon="0.1495470000"><ele>1068</ele><time>2026-03-18T12:44:34Z</time></trkpt>
<trkpt lat="43.0332400000" lon="0.1495420000"><ele>1067</ele><time>2026-03-18T12:44:37Z</time></trkpt>
<trkpt lat="43.0332220000" lon="0.1495420000"><ele>1061</ele><time>2026-03-18T12:45:14Z</time></trkpt>
<trkpt lat="43.0332120000" lon="0.1495650000"><ele>1061</ele><time>2026-03-18T12:45:15Z</time></trkpt>
<trkpt lat="43.0331970000" lon="0.1495970000"><ele>1060</ele><time>2026-03-18T12:45:16Z</time></trkpt>
<trkpt lat="43.0331820000" lon="0.1496270000"><ele>1060</ele><time>2026-03-18T12:45:17Z</time></trkpt>
<trkpt lat="43.0331720000" lon="0.1496500000"><ele>1060</ele><time>2026-03-18T12:45:18Z</time></trkpt>
<trkpt lat="43.0331570000" lon="0.1496870000"><ele>1060</ele><time>2026-03-18T12:45:20Z</time></trkpt>
<trkpt lat="43.0331570000" lon="0.1497120000"><ele>1059</ele><time>2026-03-18T12:45:22Z</time></trkpt>
<trkpt lat="43.0331600000" lon="0.1497420000"><ele>1058</ele><time>2026-03-18T12:45:25Z</time></trkpt>
<trkpt lat="43.0331600000" lon="0.1497680000"><ele>1057</ele><time>2026-03-18T12:45:28Z</time></trkpt>
<trkpt lat="43.0331600000" lon="0.1497970000"><ele>1057</ele><time>2026-03-18T12:45:31Z</time></trkpt>
<trkpt lat="43.0331570000" lon="0.1498270000"><ele>1056</ele><time>2026-03-18T12:45:34Z</time></trkpt>
<trkpt lat="43.0331570000" lon="0.1498520000"><ele>1050</ele><time>2026-03-18T12:49:51Z</time></trkpt>
<trkpt lat="43.0331470000" lon="0.1498820000"><ele>1049</ele><time>2026-03-18T12:49:53Z</time></trkpt>
<trkpt lat="43.0331300000" lon="0.1499080000"><ele>1049</ele><time>2026-03-18T12:49:55Z</time></trkpt>
<trkpt lat="43.0331150000" lon="0.1499380000"><ele>1049</ele><time>2026-03-18T12:49:57Z</time></trkpt>
<trkpt lat="43.0331020000" lon="0.1499670000"><ele>1048</ele><time>2026-03-18T12:49:59Z</time></trkpt>
<trkpt lat="43.0330920000" lon="0.1499900000"><ele>1048</ele><time>2026-03-18T12:50:01Z</time></trkpt>
<trkpt lat="43.0330770000" lon="0.1500120000"><ele>1047</ele><time>2026-03-18T12:50:04Z</time></trkpt>
<trkpt lat="43.0330570000" lon="0.1500370000"><ele>1046</ele><time>2026-03-18T12:50:07Z</time></trkpt>
<trkpt lat="43.0330370000" lon="0.1500570000"><ele>1045</ele><time>2026-03-18T12:50:10Z</time></trkpt>
<trkpt lat="43.0330250000" lon="0.1500720000"><ele>1045</ele><time>2026-03-18T12:50:13Z</time></trkpt>
<trkpt lat="43.0330120000" lon="0.1500970000"><ele>1044</ele><time>2026-03-18T12:50:16Z</time></trkpt>
<trkpt lat="43.0329970000" lon="0.1501220000"><ele>1043</ele><time>2026-03-18T12:50:19Z</time></trkpt>
<trkpt lat="43.0329820000" lon="0.1501400000"><ele>1042</ele><time>2026-03-18T12:50:22Z</time></trkpt>
<trkpt lat="43.0329670000" lon="0.1501570000"><ele>1041</ele><time>2026-03-18T12:50:25Z</time></trkpt>
<trkpt lat="43.0329570000" lon="0.1501850000"><ele>1040</ele><time>2026-03-18T12:50:28Z</time></trkpt>
<trkpt lat="43.0329470000" lon="0.1502130000"><ele>1039</ele><time>2026-03-18T12:50:31Z</time></trkpt>
<trkpt lat="43.0329320000" lon="0.1502370000"><ele>1038</ele><time>2026-03-18T12:50:34Z</time></trkpt>
<trkpt lat="43.0329200000" lon="0.1502520000"><ele>1038</ele><time>2026-03-18T12:50:36Z</time></trkpt>
<trkpt lat="43.0329070000" lon="0.1502720000"><ele>1037</ele><time>2026-03-18T12:50:38Z</time></trkpt>
<trkpt lat="43.0328870000" lon="0.1502920000"><ele>1036</ele><time>2026-03-18T12:50:41Z</time></trkpt>
<trkpt lat="43.0328670000" lon="0.1503070000"><ele>1035</ele><time>2026-03-18T12:50:57Z</time></trkpt>
<trkpt lat="43.0328570000" lon="0.1503330000"><ele>1034</ele><time>2026-03-18T12:50:59Z</time></trkpt>
<trkpt lat="43.0328420000" lon="0.1503530000"><ele>1034</ele><time>2026-03-18T12:51:01Z</time></trkpt>
<trkpt lat="43.0328300000" lon="0.1503720000"><ele>1033</ele><time>2026-03-18T12:51:04Z</time></trkpt>
<trkpt lat="43.0328170000" lon="0.1504020000"><ele>1032</ele><time>2026-03-18T12:51:07Z</time></trkpt>
<trkpt lat="43.0328050000" lon="0.1504350000"><ele>1031</ele><time>2026-03-18T12:51:10Z</time></trkpt>
<trkpt lat="43.0327830000" lon="0.1504600000"><ele>1031</ele><time>2026-03-18T12:51:13Z</time></trkpt>
<trkpt lat="43.0327700000" lon="0.1504770000"><ele>1030</ele><time>2026-03-18T12:51:16Z</time></trkpt>
<trkpt lat="43.0327620000" lon="0.1505020000"><ele>1030</ele><time>2026-03-18T12:51:19Z</time></trkpt>
<trkpt lat="43.0327520000" lon="0.1505270000"><ele>1029</ele><time>2026-03-18T12:51:21Z</time></trkpt>
<trkpt lat="43.0327370000" lon="0.1505570000"><ele>1028</ele><time>2026-03-18T12:51:24Z</time></trkpt>
<trkpt lat="43.0327250000" lon="0.1505820000"><ele>1028</ele><time>2026-03-18T12:51:27Z</time></trkpt>
<trkpt lat="43.0327120000" lon="0.1506000000"><ele>1027</ele><time>2026-03-18T12:51:29Z</time></trkpt>
<trkpt lat="43.0326920000" lon="0.1506120000"><ele>1026</ele><time>2026-03-18T12:51:31Z</time></trkpt>
<trkpt lat="43.0326700000" lon="0.1506130000"><ele>1026</ele><time>2026-03-18T12:51:35Z</time></trkpt>
<trkpt lat="43.0326520000" lon="0.1506320000"><ele>1025</ele><time>2026-03-18T12:51:39Z</time></trkpt>
<trkpt lat="43.0326420000" lon="0.1506520000"><ele>1024</ele><time>2026-03-18T12:51:42Z</time></trkpt>
<trkpt lat="43.0326270000" lon="0.1506670000"><ele>1023</ele><time>2026-03-18T12:51:45Z</time></trkpt>
<trkpt lat="43.0326120000" lon="0.1506850000"><ele>1023</ele><time>2026-03-18T12:51:48Z</time></trkpt>
<trkpt lat="43.0326070000" lon="0.1507170000"><ele>1022</ele><time>2026-03-18T12:51:51Z</time></trkpt>
<trkpt lat="43.0325970000" lon="0.1507370000"><ele>1021</ele><time>2026-03-18T12:51:53Z</time></trkpt>
<trkpt lat="43.0325800000" lon="0.1507620000"><ele>1021</ele><time>2026-03-18T12:51:56Z</time></trkpt>
<trkpt lat="43.0325770000" lon="0.1507920000"><ele>1020</ele><time>2026-03-18T12:51:59Z</time></trkpt>
<trkpt lat="43.0325700000" lon="0.1508230000"><ele>1019</ele><time>2026-03-18T12:52:02Z</time></trkpt>
<trkpt lat="43.0325550000" lon="0.1508420000"><ele>1019</ele><time>2026-03-18T12:52:10Z</time></trkpt>
<trkpt lat="43.0325450000" lon="0.1508670000"><ele>1018</ele><time>2026-03-18T12:52:12Z</time></trkpt>
<trkpt lat="43.0325350000" lon="0.1509000000"><ele>1018</ele><time>2026-03-18T12:52:14Z</time></trkpt>
<trkpt lat="43.0325220000" lon="0.1509220000"><ele>1017</ele><time>2026-03-18T12:52:16Z</time></trkpt>
<trkpt lat="43.0325020000" lon="0.1509370000"><ele>1017</ele><time>2026-03-18T12:52:18Z</time></trkpt>
<trkpt lat="43.0324770000" lon="0.1509420000"><ele>1016</ele><time>2026-03-18T12:52:21Z</time></trkpt>
<trkpt lat="43.0324650000" lon="0.1509650000"><ele>1016</ele><time>2026-03-18T12:52:23Z</time></trkpt>
<trkpt lat="43.0324520000" lon="0.1509920000"><ele>1015</ele><time>2026-03-18T12:52:26Z</time></trkpt>
<trkpt lat="43.0324450000" lon="0.1510230000"><ele>1015</ele><time>2026-03-18T12:52:29Z</time></trkpt>
<trkpt lat="43.0324370000" lon="0.1510470000"><ele>1015</ele><time>2026-03-18T12:52:31Z</time></trkpt>
<trkpt lat="43.0324270000" lon="0.1510780000"><ele>1014</ele><time>2026-03-18T12:52:33Z</time></trkpt>
<trkpt lat="43.0324100000" lon="0.1511020000"><ele>1014</ele><time>2026-03-18T12:52:35Z</time></trkpt>
<trkpt lat="43.0323920000" lon="0.1511170000"><ele>1014</ele><time>2026-03-18T12:52:37Z</time></trkpt>
<trkpt lat="43.0323820000" lon="0.1511420000"><ele>1013</ele><time>2026-03-18T12:52:40Z</time></trkpt>
<trkpt lat="43.0323720000" lon="0.1511750000"><ele>1013</ele><time>2026-03-18T12:52:43Z</time></trkpt>
<trkpt lat="43.0323570000" lon="0.1511920000"><ele>1013</ele><time>2026-03-18T12:52:45Z</time></trkpt>
<trkpt lat="43.0323370000" lon="0.1512120000"><ele>1012</ele><time>2026-03-18T12:52:48Z</time></trkpt>
<trkpt lat="43.0323170000" lon="0.1512220000"><ele>1011</ele><time>2026-03-18T12:52:52Z</time></trkpt>
<trkpt lat="43.0323020000" lon="0.1512370000"><ele>1011</ele><time>2026-03-18T12:52:55Z</time></trkpt>
<trkpt lat="43.0322850000" lon="0.1512620000"><ele>1011</ele><time>2026-03-18T12:52:58Z</time></trkpt>
<trkpt lat="43.0322750000" lon="0.1512820000"><ele>1010</ele><time>2026-03-18T12:53:00Z</time></trkpt>
<trkpt lat="43.0322570000" lon="0.1513070000"><ele>1010</ele><time>2026-03-18T12:53:03Z</time></trkpt>
<trkpt lat="43.0322420000" lon="0.1513230000"><ele>1009</ele><time>2026-03-18T12:53:08Z</time></trkpt>
<trkpt lat="43.0322320000" lon="0.1513450000"><ele>1008</ele><time>2026-03-18T12:53:12Z</time></trkpt>
<trkpt lat="43.0322170000" lon="0.1513620000"><ele>1007</ele><time>2026-03-18T12:53:15Z</time></trkpt>
<trkpt lat="43.0322000000" lon="0.1513820000"><ele>1007</ele><time>2026-03-18T12:53:19Z</time></trkpt>
<trkpt lat="43.0321870000" lon="0.1514020000"><ele>1006</ele><time>2026-03-18T12:53:23Z</time></trkpt>
<trkpt lat="43.0321780000" lon="0.1514270000"><ele>1005</ele><time>2026-03-18T12:53:26Z</time></trkpt>
<trkpt lat="43.0321620000" lon="0.1514250000"><ele>1004</ele><time>2026-03-18T12:53:30Z</time></trkpt>
<trkpt lat="43.0321370000" lon="0.1514300000"><ele>1003</ele><time>2026-03-18T12:53:35Z</time></trkpt>
<trkpt lat="43.0321170000" lon="0.1514330000"><ele>1002</ele><time>2026-03-18T12:53:40Z</time></trkpt>
<trkpt lat="43.0321000000" lon="0.1514520000"><ele>1002</ele><time>2026-03-18T12:53:44Z</time></trkpt>
<trkpt lat="43.0320870000" lon="0.1514750000"><ele>1001</ele><time>2026-03-18T12:53:46Z</time></trkpt>
<trkpt lat="43.0320870000" lon="0.1515020000"><ele>1001</ele><time>2026-03-18T12:53:48Z</time></trkpt>
<trkpt lat="43.0320770000" lon="0.1515300000"><ele>999</ele><time>2026-03-18T12:54:27Z</time></trkpt>
<trkpt lat="43.0320600000" lon="0.1515500000"><ele>998</ele><time>2026-03-18T12:54:29Z</time></trkpt>
<trkpt lat="43.0320420000" lon="0.1515700000"><ele>998</ele><time>2026-03-18T12:54:31Z</time></trkpt>
<trkpt lat="43.0320230000" lon="0.1515920000"><ele>998</ele><time>2026-03-18T12:54:34Z</time></trkpt>
<trkpt lat="43.0320120000" lon="0.1516070000"><ele>997</ele><time>2026-03-18T12:54:40Z</time></trkpt>
<trkpt lat="43.0319970000" lon="0.1516250000"><ele>996</ele><time>2026-03-18T12:54:43Z</time></trkpt>
<trkpt lat="43.0319800000" lon="0.1516470000"><ele>995</ele><time>2026-03-18T12:54:47Z</time></trkpt>
<trkpt lat="43.0319700000" lon="0.1516720000"><ele>995</ele><time>2026-03-18T12:54:50Z</time></trkpt>
<trkpt lat="43.0319600000" lon="0.1516970000"><ele>994</ele><time>2026-03-18T12:54:53Z</time></trkpt>
<trkpt lat="43.0319420000" lon="0.1517220000"><ele>993</ele><time>2026-03-18T12:54:58Z</time></trkpt>
<trkpt lat="43.0319320000" lon="0.1517470000"><ele>993</ele><time>2026-03-18T12:55:01Z</time></trkpt>
<trkpt lat="43.0319220000" lon="0.1517720000"><ele>992</ele><time>2026-03-18T12:55:05Z</time></trkpt>
<trkpt lat="43.0319200000" lon="0.1517970000"><ele>991</ele><time>2026-03-18T12:55:08Z</time></trkpt>
<trkpt lat="43.0319170000" lon="0.1518320000"><ele>991</ele><time>2026-03-18T12:55:12Z</time></trkpt>
<trkpt lat="43.0319170000" lon="0.1518670000"><ele>990</ele><time>2026-03-18T12:55:15Z</time></trkpt>
<trkpt lat="43.0319000000" lon="0.1518820000"><ele>990</ele><time>2026-03-18T12:55:20Z</time></trkpt>
<trkpt lat="43.0318850000" lon="0.1518970000"><ele>989</ele><time>2026-03-18T12:55:24Z</time></trkpt>
<trkpt lat="43.0318720000" lon="0.1519300000"><ele>988</ele><time>2026-03-18T12:55:28Z</time></trkpt>
<trkpt lat="43.0318670000" lon="0.1519570000"><ele>987</ele><time>2026-03-18T12:55:31Z</time></trkpt>
<trkpt lat="43.0318570000" lon="0.1519820000"><ele>987</ele><time>2026-03-18T12:55:34Z</time></trkpt>
<trkpt lat="43.0318450000" lon="0.1520120000"><ele>986</ele><time>2026-03-18T12:55:37Z</time></trkpt>
<trkpt lat="43.0318320000" lon="0.1520420000"><ele>986</ele><time>2026-03-18T12:55:40Z</time></trkpt>
<trkpt lat="43.0318170000" lon="0.1520700000"><ele>985</ele><time>2026-03-18T12:55:43Z</time></trkpt>
<trkpt lat="43.0318100000" lon="0.1520920000"><ele>985</ele><time>2026-03-18T12:55:46Z</time></trkpt>
<trkpt lat="43.0317970000" lon="0.1521220000"><ele>984</ele><time>2026-03-18T12:55:49Z</time></trkpt>
<trkpt lat="43.0317820000" lon="0.1521470000"><ele>983</ele><time>2026-03-18T12:55:52Z</time></trkpt>
<trkpt lat="43.0317700000" lon="0.1521670000"><ele>982</ele><time>2026-03-18T12:55:54Z</time></trkpt>
<trkpt lat="43.0317570000" lon="0.1521920000"><ele>982</ele><time>2026-03-18T12:55:57Z</time></trkpt>
<trkpt lat="43.0317420000" lon="0.1522170000"><ele>981</ele><time>2026-03-18T12:56:00Z</time></trkpt>
<trkpt lat="43.0317270000" lon="0.1522450000"><ele>980</ele><time>2026-03-18T12:56:03Z</time></trkpt>
<trkpt lat="43.0317130000" lon="0.1522620000"><ele>980</ele><time>2026-03-18T12:56:05Z</time></trkpt>
<trkpt lat="43.0317050000" lon="0.1522850000"><ele>979</ele><time>2026-03-18T12:56:08Z</time></trkpt>
<trkpt lat="43.0316870000" lon="0.1523020000"><ele>978</ele><time>2026-03-18T12:56:11Z</time></trkpt>
<trkpt lat="43.0316650000" lon="0.1523120000"><ele>978</ele><time>2026-03-18T12:56:14Z</time></trkpt>
<trkpt lat="43.0316520000" lon="0.1523350000"><ele>977</ele><time>2026-03-18T12:56:18Z</time></trkpt>
<trkpt lat="43.0316420000" lon="0.1523550000"><ele>976</ele><time>2026-03-18T12:56:21Z</time></trkpt>
<trkpt lat="43.0316300000" lon="0.1523770000"><ele>976</ele><time>2026-03-18T12:56:23Z</time></trkpt>
<trkpt lat="43.0316270000" lon="0.1524020000"><ele>975</ele><time>2026-03-18T12:56:25Z</time></trkpt>
<trkpt lat="43.0316220000" lon="0.1524320000"><ele>975</ele><time>2026-03-18T12:56:29Z</time></trkpt>
<trkpt lat="43.0316200000" lon="0.1524570000"><ele>974</ele><time>2026-03-18T12:56:33Z</time></trkpt>
<trkpt lat="43.0316120000" lon="0.1524870000"><ele>973</ele><time>2026-03-18T12:56:37Z</time></trkpt>
<trkpt lat="43.0316020000" lon="0.1525170000"><ele>973</ele><time>2026-03-18T12:56:40Z</time></trkpt>
<trkpt lat="43.0315870000" lon="0.1525470000"><ele>972</ele><time>2026-03-18T12:56:43Z</time></trkpt>
<trkpt lat="43.0315820000" lon="0.1525780000"><ele>971</ele><time>2026-03-18T12:56:46Z</time></trkpt>
<trkpt lat="43.0315950000" lon="0.1526020000"><ele>971</ele><time>2026-03-18T12:56:48Z</time></trkpt>
<trkpt lat="43.0315970000" lon="0.1526270000"><ele>970</ele><time>2026-03-18T12:56:50Z</time></trkpt>
<trkpt lat="43.0315900000" lon="0.1526570000"><ele>970</ele><time>2026-03-18T12:56:53Z</time></trkpt>
<trkpt lat="43.0315730000" lon="0.1526820000"><ele>970</ele><time>2026-03-18T12:56:55Z</time></trkpt>
<trkpt lat="43.0315670000" lon="0.1527120000"><ele>969</ele><time>2026-03-18T12:56:57Z</time></trkpt>
<trkpt lat="43.0315550000" lon="0.1527370000"><ele>969</ele><time>2026-03-18T12:59:46Z</time></trkpt>
<trkpt lat="43.0315450000" lon="0.1527750000"><ele>969</ele><time>2026-03-18T12:59:48Z</time></trkpt>
<trkpt lat="43.0315420000" lon="0.1528150000"><ele>969</ele><time>2026-03-18T12:59:50Z</time></trkpt>
<trkpt lat="43.0315350000" lon="0.1528450000"><ele>969</ele><time>2026-03-18T12:59:52Z</time></trkpt>
<trkpt lat="43.0315300000" lon="0.1528700000"><ele>969</ele><time>2026-03-18T12:59:54Z</time></trkpt>
<trkpt lat="43.0315250000" lon="0.1529000000"><ele>968</ele><time>2026-03-18T12:59:57Z</time></trkpt>
<trkpt lat="43.0315250000" lon="0.1529270000"><ele>968</ele><time>2026-03-18T13:00:00Z</time></trkpt>
<trkpt lat="43.0315250000" lon="0.1529620000"><ele>969</ele><time>2026-03-18T13:00:03Z</time></trkpt>
<trkpt lat="43.0315170000" lon="0.1529870000"><ele>969</ele><time>2026-03-18T13:00:06Z</time></trkpt>
<trkpt lat="43.0315120000" lon="0.1530120000"><ele>969</ele><time>2026-03-18T13:00:08Z</time></trkpt>
<trkpt lat="43.0315100000" lon="0.1530470000"><ele>968</ele><time>2026-03-18T13:00:11Z</time></trkpt>
<trkpt lat="43.0315070000" lon="0.1530820000"><ele>968</ele><time>2026-03-18T13:00:14Z</time></trkpt>
<trkpt lat="43.0315050000" lon="0.1531070000"><ele>968</ele><time>2026-03-18T13:00:16Z</time></trkpt>
<trkpt lat="43.0315070000" lon="0.1531400000"><ele>968</ele><time>2026-03-18T13:00:18Z</time></trkpt>
<trkpt lat="43.0315020000" lon="0.1531720000"><ele>968</ele><time>2026-03-18T13:00:20Z</time></trkpt>
<trkpt lat="43.0314970000" lon="0.1532050000"><ele>968</ele><time>2026-03-18T13:00:23Z</time></trkpt>
<trkpt lat="43.0314820000" lon="0.1532250000"><ele>967</ele><time>2026-03-18T13:00:26Z</time></trkpt>
<trkpt lat="43.0314670000" lon="0.1532430000"><ele>967</ele><time>2026-03-18T13:00:29Z</time></trkpt>
<trkpt lat="43.0314600000" lon="0.1532720000"><ele>966</ele><time>2026-03-18T13:00:32Z</time></trkpt>
<trkpt lat="43.0314470000" lon="0.1533020000"><ele>966</ele><time>2026-03-18T13:00:35Z</time></trkpt>
<trkpt lat="43.0314370000" lon="0.1533250000"><ele>965</ele><time>2026-03-18T13:00:38Z</time></trkpt>
<trkpt lat="43.0314250000" lon="0.1533500000"><ele>965</ele><time>2026-03-18T13:00:41Z</time></trkpt>
<trkpt lat="43.0314170000" lon="0.1533780000"><ele>964</ele><time>2026-03-18T13:00:44Z</time></trkpt>
<trkpt lat="43.0314120000" lon="0.1534080000"><ele>963</ele><time>2026-03-18T13:00:47Z</time></trkpt>
<trkpt lat="43.0313970000" lon="0.1534370000"><ele>963</ele><time>2026-03-18T13:00:50Z</time></trkpt>
<trkpt lat="43.0313820000" lon="0.1534600000"><ele>962</ele><time>2026-03-18T13:00:53Z</time></trkpt>
<trkpt lat="43.0313770000" lon="0.1534920000"><ele>962</ele><time>2026-03-18T13:00:57Z</time></trkpt>
<trkpt lat="43.0313700000" lon="0.1535150000"><ele>961</ele><time>2026-03-18T13:01:00Z</time></trkpt>
<trkpt lat="43.0313520000" lon="0.1535280000"><ele>961</ele><time>2026-03-18T13:01:03Z</time></trkpt>
<trkpt lat="43.0313320000" lon="0.1535430000"><ele>960</ele><time>2026-03-18T13:01:06Z</time></trkpt>
<trkpt lat="43.0313170000" lon="0.1535700000"><ele>959</ele><time>2026-03-18T13:01:10Z</time></trkpt>
<trkpt lat="43.0313020000" lon="0.1535850000"><ele>957</ele><time>2026-03-18T13:01:18Z</time></trkpt>
<trkpt lat="43.0312950000" lon="0.1536120000"><ele>957</ele><time>2026-03-18T13:01:29Z</time></trkpt>
<trkpt lat="43.0312750000" lon="0.1536120000"><ele>957</ele><time>2026-03-18T13:01:45Z</time></trkpt>
<trkpt lat="43.0312570000" lon="0.1536200000"><ele>956</ele><time>2026-03-18T13:01:47Z</time></trkpt>
<trkpt lat="43.0312370000" lon="0.1536220000"><ele>956</ele><time>2026-03-18T13:01:50Z</time></trkpt>
<trkpt lat="43.0312220000" lon="0.1536320000"><ele>954</ele><time>2026-03-18T13:01:55Z</time></trkpt>
<trkpt lat="43.0312070000" lon="0.1536520000"><ele>954</ele><time>2026-03-18T13:01:59Z</time></trkpt>
<trkpt lat="43.0311850000" lon="0.1536620000"><ele>953</ele><time>2026-03-18T13:02:03Z</time></trkpt>
<trkpt lat="43.0311670000" lon="0.1536720000"><ele>952</ele><time>2026-03-18T13:02:06Z</time></trkpt>
<trkpt lat="43.0311500000" lon="0.1536820000"><ele>951</ele><time>2026-03-18T13:02:09Z</time></trkpt>
<trkpt lat="43.0311320000" lon="0.1537020000"><ele>950</ele><time>2026-03-18T13:02:12Z</time></trkpt>
<trkpt lat="43.0311150000" lon="0.1537120000"><ele>949</ele><time>2026-03-18T13:02:16Z</time></trkpt>
<trkpt lat="43.0311000000" lon="0.1537270000"><ele>948</ele><time>2026-03-18T13:02:20Z</time></trkpt>
<trkpt lat="43.0310800000" lon="0.1537380000"><ele>946</ele><time>2026-03-18T13:02:25Z</time></trkpt>
<trkpt lat="43.0310670000" lon="0.1537570000"><ele>945</ele><time>2026-03-18T13:02:29Z</time></trkpt>
<trkpt lat="43.0310570000" lon="0.1537870000"><ele>944</ele><time>2026-03-18T13:02:33Z</time></trkpt>
<trkpt lat="43.0310370000" lon="0.1538100000"><ele>944</ele><time>2026-03-18T13:02:37Z</time></trkpt>
<trkpt lat="43.0310250000" lon="0.1538280000"><ele>943</ele><time>2026-03-18T13:02:39Z</time></trkpt>
<trkpt lat="43.0310170000" lon="0.1538520000"><ele>942</ele><time>2026-03-18T13:02:41Z</time></trkpt>
<trkpt lat="43.0310020000" lon="0.1538720000"><ele>941</ele><time>2026-03-18T13:02:45Z</time></trkpt>
<trkpt lat="43.0309900000" lon="0.1538920000"><ele>941</ele><time>2026-03-18T13:02:48Z</time></trkpt>
<trkpt lat="43.0309670000" lon="0.1538950000"><ele>940</ele><time>2026-03-18T13:02:52Z</time></trkpt>
<trkpt lat="43.0309550000" lon="0.1539200000"><ele>938</ele><time>2026-03-18T13:03:00Z</time></trkpt>
<trkpt lat="43.0309370000" lon="0.1539320000"><ele>937</ele><time>2026-03-18T13:03:04Z</time></trkpt>
<trkpt lat="43.0309150000" lon="0.1539630000"><ele>934</ele><time>2026-03-18T13:03:17Z</time></trkpt>
<trkpt lat="43.0309020000" lon="0.1539820000"><ele>933</ele><time>2026-03-18T13:03:18Z</time></trkpt>
<trkpt lat="43.0308820000" lon="0.1540120000"><ele>933</ele><time>2026-03-18T13:03:20Z</time></trkpt>
<trkpt lat="43.0308620000" lon="0.1540370000"><ele>932</ele><time>2026-03-18T13:03:23Z</time></trkpt>
<trkpt lat="43.0308550000" lon="0.1540650000"><ele>931</ele><time>2026-03-18T13:03:27Z</time></trkpt>
<trkpt lat="43.0308470000" lon="0.1540920000"><ele>930</ele><time>2026-03-18T13:03:30Z</time></trkpt>
<trkpt lat="43.0308400000" lon="0.1541150000"><ele>930</ele><time>2026-03-18T13:03:33Z</time></trkpt>
<trkpt lat="43.0308370000" lon="0.1541470000"><ele>929</ele><time>2026-03-18T13:03:37Z</time></trkpt>
<trkpt lat="43.0308320000" lon="0.1541770000"><ele>928</ele><time>2026-03-18T13:03:41Z</time></trkpt>
<trkpt lat="43.0308200000" lon="0.1542050000"><ele>927</ele><time>2026-03-18T13:03:45Z</time></trkpt>
<trkpt lat="43.0308300000" lon="0.1542270000"><ele>925</ele><time>2026-03-18T13:03:52Z</time></trkpt>
<trkpt lat="43.0308370000" lon="0.1542600000"><ele>925</ele><time>2026-03-18T13:03:55Z</time></trkpt>
<trkpt lat="43.0308420000" lon="0.1542930000"><ele>925</ele><time>2026-03-18T13:03:58Z</time></trkpt>
<trkpt lat="43.0308370000" lon="0.1543220000"><ele>924</ele><time>2026-03-18T13:04:02Z</time></trkpt>
<trkpt lat="43.0308370000" lon="0.1543520000"><ele>924</ele><time>2026-03-18T13:04:05Z</time></trkpt>
<trkpt lat="43.0308350000" lon="0.1543820000"><ele>923</ele><time>2026-03-18T13:04:08Z</time></trkpt>
<trkpt lat="43.0308300000" lon="0.1544070000"><ele>922</ele><time>2026-03-18T13:04:11Z</time></trkpt>
<trkpt lat="43.0308320000" lon="0.1544400000"><ele>921</ele><time>2026-03-18T13:04:14Z</time></trkpt>
<trkpt lat="43.0308370000" lon="0.1544650000"><ele>921</ele><time>2026-03-18T13:04:16Z</time></trkpt>
<trkpt lat="43.0308470000" lon="0.1544880000"><ele>921</ele><time>2026-03-18T13:04:18Z</time></trkpt>
<trkpt lat="43.0308570000" lon="0.1545180000"><ele>920</ele><time>2026-03-18T13:04:21Z</time></trkpt>
<trkpt lat="43.0308620000" lon="0.1545520000"><ele>920</ele><time>2026-03-18T13:04:24Z</time></trkpt>
<trkpt lat="43.0308550000" lon="0.1545800000"><ele>919</ele><time>2026-03-18T13:04:27Z</time></trkpt>
<trkpt lat="43.0308450000" lon="0.1546070000"><ele>919</ele><time>2026-03-18T13:04:32Z</time></trkpt>
<trkpt lat="43.0308420000" lon="0.1546320000"><ele>918</ele><time>2026-03-18T13:04:35Z</time></trkpt>
<trkpt lat="43.0308500000" lon="0.1546580000"><ele>917</ele><time>2026-03-18T13:04:38Z</time></trkpt>
<trkpt lat="43.0308420000" lon="0.1546870000"><ele>917</ele><time>2026-03-18T13:04:41Z</time></trkpt>
<trkpt lat="43.0308300000" lon="0.1547120000"><ele>915</ele><time>2026-03-18T13:04:45Z</time></trkpt>
<trkpt lat="43.0308130000" lon="0.1547370000"><ele>914</ele><time>2026-03-18T13:04:49Z</time></trkpt>
<trkpt lat="43.0308050000" lon="0.1547600000"><ele>913</ele><time>2026-03-18T13:04:52Z</time></trkpt>
<trkpt lat="43.0307870000" lon="0.1547730000"><ele>912</ele><time>2026-03-18T13:04:56Z</time></trkpt>
<trkpt lat="43.0307770000" lon="0.1548020000"><ele>911</ele><time>2026-03-18T13:04:59Z</time></trkpt>
<trkpt lat="43.0307620000" lon="0.1548170000"><ele>910</ele><time>2026-03-18T13:05:03Z</time></trkpt>
<trkpt lat="43.0307520000" lon="0.1548400000"><ele>909</ele><time>2026-03-18T13:05:06Z</time></trkpt>
<trkpt lat="43.0307550000" lon="0.1548670000"><ele>908</ele><time>2026-03-18T13:05:10Z</time></trkpt>
<trkpt lat="43.0307320000" lon="0.1549020000"><ele>902</ele><time>2026-03-18T13:05:37Z</time></trkpt>
<trkpt lat="43.0307170000" lon="0.1549270000"><ele>902</ele><time>2026-03-18T13:05:38Z</time></trkpt>
<trkpt lat="43.0307070000" lon="0.1549500000"><ele>901</ele><time>2026-03-18T13:05:39Z</time></trkpt>
<trkpt lat="43.0306970000" lon="0.1549820000"><ele>901</ele><time>2026-03-18T13:05:41Z</time></trkpt>
<trkpt lat="43.0306850000" lon="0.1550020000"><ele>900</ele><time>2026-03-18T13:05:45Z</time></trkpt>
<trkpt lat="43.0306820000" lon="0.1550320000"><ele>897</ele><time>2026-03-18T13:06:04Z</time></trkpt>
<trkpt lat="43.0306720000" lon="0.1550530000"><ele>896</ele><time>2026-03-18T13:06:07Z</time></trkpt>
<trkpt lat="43.0306550000" lon="0.1550620000"><ele>896</ele><time>2026-03-18T13:06:10Z</time></trkpt>
<trkpt lat="43.0306420000" lon="0.1550920000"><ele>895</ele><time>2026-03-18T13:06:13Z</time></trkpt>
<trkpt lat="43.0306470000" lon="0.1551220000"><ele>895</ele><time>2026-03-18T13:06:16Z</time></trkpt>
<trkpt lat="43.0306570000" lon="0.1551550000"><ele>894</ele><time>2026-03-18T13:06:19Z</time></trkpt>
<trkpt lat="43.0306520000" lon="0.1551830000"><ele>893</ele><time>2026-03-18T13:06:22Z</time></trkpt>
<trkpt lat="43.0306470000" lon="0.1552170000"><ele>892</ele><time>2026-03-18T13:06:25Z</time></trkpt>
<trkpt lat="43.0306450000" lon="0.1552520000"><ele>891</ele><time>2026-03-18T13:06:28Z</time></trkpt>
<trkpt lat="43.0306470000" lon="0.1552820000"><ele>891</ele><time>2026-03-18T13:06:30Z</time></trkpt>
<trkpt lat="43.0306550000" lon="0.1553120000"><ele>890</ele><time>2026-03-18T13:06:32Z</time></trkpt>
<trkpt lat="43.0306550000" lon="0.1553370000"><ele>890</ele><time>2026-03-18T13:06:34Z</time></trkpt>
<trkpt lat="43.0306470000" lon="0.1553620000"><ele>889</ele><time>2026-03-18T13:06:36Z</time></trkpt>
<trkpt lat="43.0306420000" lon="0.1553870000"><ele>889</ele><time>2026-03-18T13:06:38Z</time></trkpt>
<trkpt lat="43.0306320000" lon="0.1554220000"><ele>888</ele><time>2026-03-18T13:06:41Z</time></trkpt>
<trkpt lat="43.0306250000" lon="0.1554520000"><ele>886</ele><time>2026-03-18T13:06:45Z</time></trkpt>
<trkpt lat="43.0306120000" lon="0.1554720000"><ele>886</ele><time>2026-03-18T13:06:48Z</time></trkpt>
<trkpt lat="43.0306000000" lon="0.1554970000"><ele>885</ele><time>2026-03-18T13:06:51Z</time></trkpt>
<trkpt lat="43.0305820000" lon="0.1555130000"><ele>884</ele><time>2026-03-18T13:06:54Z</time></trkpt>
<trkpt lat="43.0305670000" lon="0.1555370000"><ele>883</ele><time>2026-03-18T13:06:57Z</time></trkpt>
<trkpt lat="43.0305670000" lon="0.1555670000"><ele>881</ele><time>2026-03-18T13:07:01Z</time></trkpt>
<trkpt lat="43.0305450000" lon="0.1555820000"><ele>879</ele><time>2026-03-18T13:07:47Z</time></trkpt>
<trkpt lat="43.0305270000" lon="0.1556020000"><ele>879</ele><time>2026-03-18T13:07:49Z</time></trkpt>
<trkpt lat="43.0305120000" lon="0.1556170000"><ele>878</ele><time>2026-03-18T13:07:51Z</time></trkpt>
<trkpt lat="43.0304970000" lon="0.1556270000"><ele>877</ele><time>2026-03-18T13:07:56Z</time></trkpt>
<trkpt lat="43.0304920000" lon="0.1556520000"><ele>876</ele><time>2026-03-18T13:08:00Z</time></trkpt>
<trkpt lat="43.0304750000" lon="0.1556670000"><ele>875</ele><time>2026-03-18T13:08:04Z</time></trkpt>
<trkpt lat="43.0304570000" lon="0.1556800000"><ele>872</ele><time>2026-03-18T13:08:16Z</time></trkpt>
<trkpt lat="43.0304450000" lon="0.1557070000"><ele>871</ele><time>2026-03-18T13:08:18Z</time></trkpt>
<trkpt lat="43.0304250000" lon="0.1557370000"><ele>871</ele><time>2026-03-18T13:08:20Z</time></trkpt>
<trkpt lat="43.0304100000" lon="0.1557550000"><ele>870</ele><time>2026-03-18T13:08:22Z</time></trkpt>
<trkpt lat="43.0304000000" lon="0.1557770000"><ele>869</ele><time>2026-03-18T13:08:25Z</time></trkpt>
<trkpt lat="43.0303800000" lon="0.1557850000"><ele>868</ele><time>2026-03-18T13:08:28Z</time></trkpt>
<trkpt lat="43.0303600000" lon="0.1558020000"><ele>866</ele><time>2026-03-18T13:08:33Z</time></trkpt>
<trkpt lat="43.0303470000" lon="0.1558170000"><ele>865</ele><time>2026-03-18T13:08:37Z</time></trkpt>
<trkpt lat="43.0303420000" lon="0.1558450000"><ele>864</ele><time>2026-03-18T13:08:41Z</time></trkpt>
<trkpt lat="43.0303300000" lon="0.1558650000"><ele>863</ele><time>2026-03-18T13:08:46Z</time></trkpt>
<trkpt lat="43.0303300000" lon="0.1558880000"><ele>862</ele><time>2026-03-18T13:08:52Z</time></trkpt>
<trkpt lat="43.0303170000" lon="0.1559170000"><ele>859</ele><time>2026-03-18T13:09:23Z</time></trkpt>
<trkpt lat="43.0303070000" lon="0.1559420000"><ele>858</ele><time>2026-03-18T13:09:25Z</time></trkpt>
<trkpt lat="43.0302970000" lon="0.1559700000"><ele>858</ele><time>2026-03-18T13:09:27Z</time></trkpt>
<trkpt lat="43.0302970000" lon="0.1560020000"><ele>857</ele><time>2026-03-18T13:09:30Z</time></trkpt>
<trkpt lat="43.0302870000" lon="0.1560220000"><ele>856</ele><time>2026-03-18T13:09:35Z</time></trkpt>
<trkpt lat="43.0302780000" lon="0.1560480000"><ele>854</ele><time>2026-03-18T13:09:40Z</time></trkpt>
<trkpt lat="43.0302700000" lon="0.1560720000"><ele>853</ele><time>2026-03-18T13:09:44Z</time></trkpt>
<trkpt lat="43.0302550000" lon="0.1560950000"><ele>852</ele><time>2026-03-18T13:09:48Z</time></trkpt>
<trkpt lat="43.0302520000" lon="0.1561300000"><ele>851</ele><time>2026-03-18T13:09:52Z</time></trkpt>
<trkpt lat="43.0302450000" lon="0.1561570000"><ele>849</ele><time>2026-03-18T13:09:56Z</time></trkpt>
<trkpt lat="43.0302350000" lon="0.1561820000"><ele>848</ele><time>2026-03-18T13:09:59Z</time></trkpt>
<trkpt lat="43.0302220000" lon="0.1562080000"><ele>848</ele><time>2026-03-18T13:10:02Z</time></trkpt>
<trkpt lat="43.0302050000" lon="0.1562220000"><ele>846</ele><time>2026-03-18T13:10:05Z</time></trkpt>
<trkpt lat="43.0301870000" lon="0.1562320000"><ele>845</ele><time>2026-03-18T13:10:09Z</time></trkpt>
<trkpt lat="43.0301920000" lon="0.1562670000"><ele>844</ele><time>2026-03-18T13:10:12Z</time></trkpt>
<trkpt lat="43.0301920000" lon="0.1562920000"><ele>843</ele><time>2026-03-18T13:10:20Z</time></trkpt>
<trkpt lat="43.0301750000" lon="0.1563220000"><ele>838</ele><time>2026-03-18T13:10:59Z</time></trkpt>
<trkpt lat="43.0301600000" lon="0.1563470000"><ele>838</ele><time>2026-03-18T13:11:00Z</time></trkpt>
<trkpt lat="43.0301470000" lon="0.1563770000"><ele>838</ele><time>2026-03-18T13:11:01Z</time></trkpt>
<trkpt lat="43.0301350000" lon="0.1564020000"><ele>837</ele><time>2026-03-18T13:11:02Z</time></trkpt>
<trkpt lat="43.0301230000" lon="0.1564380000"><ele>837</ele><time>2026-03-18T13:11:04Z</time></trkpt>
<trkpt lat="43.0301200000" lon="0.1564670000"><ele>836</ele><time>2026-03-18T13:11:06Z</time></trkpt>
<trkpt lat="43.0301170000" lon="0.1564920000"><ele>836</ele><time>2026-03-18T13:11:09Z</time></trkpt>
<trkpt lat="43.0301020000" lon="0.1565120000"><ele>835</ele><time>2026-03-18T13:11:12Z</time></trkpt>
<trkpt lat="43.0300850000" lon="0.1565220000"><ele>834</ele><time>2026-03-18T13:11:15Z</time></trkpt>
<trkpt lat="43.0300720000" lon="0.1565020000"><ele>833</ele><time>2026-03-18T13:11:20Z</time></trkpt>
<trkpt lat="43.0300520000" lon="0.1565020000"><ele>832</ele><time>2026-03-18T13:11:22Z</time></trkpt>
<trkpt lat="43.0300370000" lon="0.1565220000"><ele>831</ele><time>2026-03-18T13:11:27Z</time></trkpt>
<trkpt lat="43.0300320000" lon="0.1565550000"><ele>829</ele><time>2026-03-18T13:11:33Z</time></trkpt>
<trkpt lat="43.0300070000" lon="0.1565820000"><ele>828</ele><time>2026-03-18T13:11:40Z</time></trkpt>
<trkpt lat="43.0300020000" lon="0.1566120000"><ele>827</ele><time>2026-03-18T13:11:42Z</time></trkpt>
<trkpt lat="43.0300100000" lon="0.1566520000"><ele>827</ele><time>2026-03-18T13:11:44Z</time></trkpt>
<trkpt lat="43.0300270000" lon="0.1566770000"><ele>827</ele><time>2026-03-18T13:11:46Z</time></trkpt>
<trkpt lat="43.0300100000" lon="0.1566720000"><ele>824</ele><time>2026-03-18T13:12:52Z</time></trkpt>
<trkpt lat="43.0299820000" lon="0.1566700000"><ele>823</ele><time>2026-03-18T13:12:54Z</time></trkpt>
<trkpt lat="43.0299620000" lon="0.1566720000"><ele>824</ele><time>2026-03-18T13:12:57Z</time></trkpt>
<trkpt lat="43.0299770000" lon="0.1566870000"><ele>824</ele><time>2026-03-18T13:13:52Z</time></trkpt>
<trkpt lat="43.0299950000" lon="0.1566800000"><ele>824</ele><time>2026-03-18T13:13:54Z</time></trkpt>
<trkpt lat="43.0300120000" lon="0.1566720000"><ele>824</ele><time>2026-03-18T13:13:56Z</time></trkpt>
<trkpt lat="43.0299950000" lon="0.1566770000"><ele>824</ele><time>2026-03-18T13:16:37Z</time></trkpt>
<trkpt lat="43.0299850000" lon="0.1567070000"><ele>824</ele><time>2026-03-18T13:16:39Z</time></trkpt>
<trkpt lat="43.0299720000" lon="0.1567350000"><ele>824</ele><time>2026-03-18T13:16:41Z</time></trkpt>
<trkpt lat="43.0299670000" lon="0.1567620000"><ele>824</ele><time>2026-03-18T13:16:45Z</time></trkpt>
<trkpt lat="43.0299620000" lon="0.1567370000"><ele>824</ele><time>2026-03-18T13:17:40Z</time></trkpt>
<trkpt lat="43.0299700000" lon="0.1566920000"><ele>824</ele><time>2026-03-18T13:17:42Z</time></trkpt>
<trkpt lat="43.0299870000" lon="0.1566670000"><ele>824</ele><time>2026-03-18T13:17:44Z</time></trkpt>
<trkpt lat="43.0300070000" lon="0.1566670000"><ele>824</ele><time>2026-03-18T13:17:47Z</time></trkpt>
<trkpt lat="43.0299950000" lon="0.1566900000"><ele>824</ele><time>2026-03-18T13:18:58Z</time></trkpt>
<trkpt lat="43.0299920000" lon="0.1567170000"><ele>824</ele><time>2026-03-18T13:19:00Z</time></trkpt>
<trkpt lat="43.0299820000" lon="0.1567470000"><ele>824</ele><time>2026-03-18T13:19:02Z</time></trkpt>
<trkpt lat="43.0299750000" lon="0.1567850000"><ele>824</ele><time>2026-03-18T13:19:09Z</time></trkpt>
<trkpt lat="43.0299720000" lon="0.1567570000"><ele>824</ele><time>2026-03-18T13:20:11Z</time></trkpt>
<trkpt lat="43.0299720000" lon="0.1567250000"><ele>824</ele><time>2026-03-18T13:20:12Z</time></trkpt>
<trkpt lat="43.0299700000" lon="0.1566920000"><ele>824</ele><time>2026-03-18T13:20:13Z</time></trkpt>
<trkpt lat="43.0299700000" lon="0.1566670000"><ele>824</ele><time>2026-03-18T13:20:14Z</time></trkpt>
<trkpt lat="43.0299720000" lon="0.1566420000"><ele>824</ele><time>2026-03-18T13:20:16Z</time></trkpt>
<trkpt lat="43.0299870000" lon="0.1566650000"><ele>825</ele><time>2026-03-18T13:20:22Z</time></trkpt>
<trkpt lat="43.0299920000" lon="0.1566900000"><ele>824</ele><time>2026-03-18T13:21:23Z</time></trkpt>
<trkpt lat="43.0300020000" lon="0.1566620000"><ele>824</ele><time>2026-03-18T13:21:28Z</time></trkpt>
<trkpt lat="43.0299900000" lon="0.1566850000"><ele>824</ele><time>2026-03-18T13:21:52Z</time></trkpt>
<trkpt lat="43.0300050000" lon="0.1566570000"><ele>824</ele><time>2026-03-18T13:22:50Z</time></trkpt>
<trkpt lat="43.0300170000" lon="0.1566370000"><ele>824</ele><time>2026-03-18T13:22:52Z</time></trkpt>
<trkpt lat="43.0300370000" lon="0.1566470000"><ele>824</ele><time>2026-03-18T13:23:14Z</time></trkpt>
<trkpt lat="43.0300200000" lon="0.1566600000"><ele>824</ele><time>2026-03-18T13:23:19Z</time></trkpt>
<trkpt lat="43.0300020000" lon="0.1566820000"><ele>823</ele><time>2026-03-18T13:23:56Z</time></trkpt>
<trkpt lat="43.0299800000" lon="0.1567000000"><ele>822</ele><time>2026-03-18T13:23:59Z</time></trkpt>
<trkpt lat="43.0299650000" lon="0.1567180000"><ele>822</ele><time>2026-03-18T13:24:01Z</time></trkpt>
<trkpt lat="43.0299550000" lon="0.1567420000"><ele>821</ele><time>2026-03-18T13:24:04Z</time></trkpt>
<trkpt lat="43.0299420000" lon="0.1567720000"><ele>820</ele><time>2026-03-18T13:24:07Z</time></trkpt>
<trkpt lat="43.0299550000" lon="0.1568020000"><ele>819</ele><time>2026-03-18T13:24:10Z</time></trkpt>
<trkpt lat="43.0299750000" lon="0.1568220000"><ele>819</ele><time>2026-03-18T13:24:13Z</time></trkpt>
<trkpt lat="43.0300050000" lon="0.1568370000"><ele>818</ele><time>2026-03-18T13:24:15Z</time></trkpt>
<trkpt lat="43.0300350000" lon="0.1568570000"><ele>818</ele><time>2026-03-18T13:24:17Z</time></trkpt>
<trkpt lat="43.0300470000" lon="0.1568770000"><ele>818</ele><time>2026-03-18T13:24:19Z</time></trkpt>
<trkpt lat="43.0300420000" lon="0.1569030000"><ele>817</ele><time>2026-03-18T13:24:21Z</time></trkpt>
<trkpt lat="43.0300570000" lon="0.1569250000"><ele>817</ele><time>2026-03-18T13:24:23Z</time></trkpt>
<trkpt lat="43.0300620000" lon="0.1569620000"><ele>816</ele><time>2026-03-18T13:24:26Z</time></trkpt>
<trkpt lat="43.0300530000" lon="0.1570020000"><ele>815</ele><time>2026-03-18T13:24:29Z</time></trkpt>
<trkpt lat="43.0300500000" lon="0.1570350000"><ele>815</ele><time>2026-03-18T13:24:31Z</time></trkpt>
<trkpt lat="43.0300520000" lon="0.1570670000"><ele>814</ele><time>2026-03-18T13:24:34Z</time></trkpt>
<trkpt lat="43.0300700000" lon="0.1570950000"><ele>813</ele><time>2026-03-18T13:24:37Z</time></trkpt>
<trkpt lat="43.0300870000" lon="0.1571100000"><ele>812</ele><time>2026-03-18T13:24:42Z</time></trkpt>
<trkpt lat="43.0301100000" lon="0.1571320000"><ele>811</ele><time>2026-03-18T13:24:45Z</time></trkpt>
<trkpt lat="43.0301200000" lon="0.1571570000"><ele>811</ele><time>2026-03-18T13:24:47Z</time></trkpt>
<trkpt lat="43.0301220000" lon="0.1571870000"><ele>810</ele><time>2026-03-18T13:24:49Z</time></trkpt>
<trkpt lat="43.0301220000" lon="0.1572250000"><ele>810</ele><time>2026-03-18T13:24:51Z</time></trkpt>
<trkpt lat="43.0301200000" lon="0.1572600000"><ele>810</ele><time>2026-03-18T13:24:53Z</time></trkpt>
<trkpt lat="43.0301070000" lon="0.1572870000"><ele>809</ele><time>2026-03-18T13:24:56Z</time></trkpt>
<trkpt lat="43.0300920000" lon="0.1572980000"><ele>809</ele><time>2026-03-18T13:24:57Z</time></trkpt>
<trkpt lat="43.0300670000" lon="0.1573120000"><ele>808</ele><time>2026-03-18T13:24:59Z</time></trkpt>
<trkpt lat="43.0300470000" lon="0.1573170000"><ele>808</ele><time>2026-03-18T13:25:01Z</time></trkpt>
<trkpt lat="43.0300270000" lon="0.1573420000"><ele>807</ele><time>2026-03-18T13:25:04Z</time></trkpt>
<trkpt lat="43.0300150000" lon="0.1573600000"><ele>807</ele><time>2026-03-18T13:25:06Z</time></trkpt>
<trkpt lat="43.0299920000" lon="0.1573900000"><ele>806</ele><time>2026-03-18T13:25:09Z</time></trkpt>
<trkpt lat="43.0299770000" lon="0.1574070000"><ele>805</ele><time>2026-03-18T13:25:11Z</time></trkpt>
<trkpt lat="43.0299450000" lon="0.1574200000"><ele>805</ele><time>2026-03-18T13:25:13Z</time></trkpt>
<trkpt lat="43.0299670000" lon="0.1574270000"><ele>803</ele><time>2026-03-18T13:25:22Z</time></trkpt>
<trkpt lat="43.0299870000" lon="0.1574280000"><ele>803</ele><time>2026-03-18T13:25:24Z</time></trkpt>
<trkpt lat="43.0300100000" lon="0.1574370000"><ele>802</ele><time>2026-03-18T13:25:26Z</time></trkpt>
<trkpt lat="43.0300220000" lon="0.1574580000"><ele>802</ele><time>2026-03-18T13:25:27Z</time></trkpt>
<trkpt lat="43.0300320000" lon="0.1574820000"><ele>802</ele><time>2026-03-18T13:25:28Z</time></trkpt>
<trkpt lat="43.0300370000" lon="0.1575300000"><ele>801</ele><time>2026-03-18T13:25:30Z</time></trkpt>
<trkpt lat="43.0300320000" lon="0.1575620000"><ele>801</ele><time>2026-03-18T13:25:33Z</time></trkpt>
<trkpt lat="43.0300070000" lon="0.1575720000"><ele>800</ele><time>2026-03-18T13:25:36Z</time></trkpt>
<trkpt lat="43.0299870000" lon="0.1575730000"><ele>800</ele><time>2026-03-18T13:25:38Z</time></trkpt>
<trkpt lat="43.0299820000" lon="0.1576020000"><ele>799</ele><time>2026-03-18T13:25:41Z</time></trkpt>
<trkpt lat="43.0300000000" lon="0.1576200000"><ele>798</ele><time>2026-03-18T13:25:44Z</time></trkpt>
<trkpt lat="43.0300220000" lon="0.1576230000"><ele>798</ele><time>2026-03-18T13:25:47Z</time></trkpt>
<trkpt lat="43.0300370000" lon="0.1576420000"><ele>797</ele><time>2026-03-18T13:25:50Z</time></trkpt>
<trkpt lat="43.0300520000" lon="0.1576620000"><ele>797</ele><time>2026-03-18T13:25:52Z</time></trkpt>
<trkpt lat="43.0300720000" lon="0.1576820000"><ele>796</ele><time>2026-03-18T13:25:55Z</time></trkpt>
<trkpt lat="43.0300870000" lon="0.1577080000"><ele>795</ele><time>2026-03-18T13:25:57Z</time></trkpt>
<trkpt lat="43.0300650000" lon="0.1577320000"><ele>795</ele><time>2026-03-18T13:25:59Z</time></trkpt>
<trkpt lat="43.0300370000" lon="0.1577450000"><ele>794</ele><time>2026-03-18T13:26:01Z</time></trkpt>
<trkpt lat="43.0300120000" lon="0.1577550000"><ele>794</ele><time>2026-03-18T13:26:03Z</time></trkpt>
<trkpt lat="43.0299900000" lon="0.1577700000"><ele>793</ele><time>2026-03-18T13:26:05Z</time></trkpt>
<trkpt lat="43.0299720000" lon="0.1577770000"><ele>793</ele><time>2026-03-18T13:26:07Z</time></trkpt>
<trkpt lat="43.0299500000" lon="0.1577870000"><ele>792</ele><time>2026-03-18T13:26:09Z</time></trkpt>
<trkpt lat="43.0299270000" lon="0.1577970000"><ele>792</ele><time>2026-03-18T13:26:11Z</time></trkpt>
<trkpt lat="43.0299100000" lon="0.1578070000"><ele>792</ele><time>2026-03-18T13:26:13Z</time></trkpt>
<trkpt lat="43.0298870000" lon="0.1578180000"><ele>791</ele><time>2026-03-18T13:26:16Z</time></trkpt>
<trkpt lat="43.0298670000" lon="0.1578220000"><ele>791</ele><time>2026-03-18T13:26:20Z</time></trkpt>
<trkpt lat="43.0298520000" lon="0.1578420000"><ele>790</ele><time>2026-03-18T13:26:23Z</time></trkpt>
<trkpt lat="43.0298520000" lon="0.1578700000"><ele>790</ele><time>2026-03-18T13:26:28Z</time></trkpt>
<trkpt lat="43.0298720000" lon="0.1578520000"><ele>788</ele><time>2026-03-18T13:26:34Z</time></trkpt>
<trkpt lat="43.0298920000" lon="0.1578350000"><ele>788</ele><time>2026-03-18T13:26:39Z</time></trkpt>
<trkpt lat="43.0299100000" lon="0.1578400000"><ele>787</ele><time>2026-03-18T13:26:40Z</time></trkpt>
<trkpt lat="43.0299320000" lon="0.1578450000"><ele>787</ele><time>2026-03-18T13:26:41Z</time></trkpt>
<trkpt lat="43.0299520000" lon="0.1578530000"><ele>787</ele><time>2026-03-18T13:26:42Z</time></trkpt>
<trkpt lat="43.0299470000" lon="0.1578870000"><ele>786</ele><time>2026-03-18T13:26:45Z</time></trkpt>
<trkpt lat="43.0299200000" lon="0.1579120000"><ele>786</ele><time>2026-03-18T13:26:47Z</time></trkpt>
<trkpt lat="43.0299050000" lon="0.1579350000"><ele>786</ele><time>2026-03-18T13:26:49Z</time></trkpt>
<trkpt lat="43.0299120000" lon="0.1579630000"><ele>785</ele><time>2026-03-18T13:26:53Z</time></trkpt>
<trkpt lat="43.0299370000" lon="0.1579630000"><ele>783</ele><time>2026-03-18T13:27:01Z</time></trkpt>
<trkpt lat="43.0299720000" lon="0.1579570000"><ele>782</ele><time>2026-03-18T13:27:03Z</time></trkpt>
<trkpt lat="43.0300070000" lon="0.1579670000"><ele>781</ele><time>2026-03-18T13:27:07Z</time></trkpt>
<trkpt lat="43.0300220000" lon="0.1579820000"><ele>781</ele><time>2026-03-18T13:27:08Z</time></trkpt>
<trkpt lat="43.0300350000" lon="0.1580020000"><ele>781</ele><time>2026-03-18T13:27:09Z</time></trkpt>
<trkpt lat="43.0300350000" lon="0.1580520000"><ele>781</ele><time>2026-03-18T13:27:11Z</time></trkpt>
<trkpt lat="43.0300400000" lon="0.1580870000"><ele>780</ele><time>2026-03-18T13:27:13Z</time></trkpt>
<trkpt lat="43.0300100000" lon="0.1581070000"><ele>780</ele><time>2026-03-18T13:27:15Z</time></trkpt>
<trkpt lat="43.0299870000" lon="0.1581200000"><ele>780</ele><time>2026-03-18T13:27:17Z</time></trkpt>
<trkpt lat="43.0299570000" lon="0.1581370000"><ele>779</ele><time>2026-03-18T13:27:19Z</time></trkpt>
<trkpt lat="43.0299370000" lon="0.1581370000"><ele>779</ele><time>2026-03-18T13:27:21Z</time></trkpt>
<trkpt lat="43.0299120000" lon="0.1581520000"><ele>778</ele><time>2026-03-18T13:27:48Z</time></trkpt>
<trkpt lat="43.0298870000" lon="0.1581670000"><ele>777</ele><time>2026-03-18T13:27:50Z</time></trkpt>
<trkpt lat="43.0298720000" lon="0.1581770000"><ele>777</ele><time>2026-03-18T13:27:53Z</time></trkpt>
<trkpt lat="43.0298900000" lon="0.1582000000"><ele>776</ele><time>2026-03-18T13:27:56Z</time></trkpt>
<trkpt lat="43.0299020000" lon="0.1582220000"><ele>774</ele><time>2026-03-18T13:28:04Z</time></trkpt>
<trkpt lat="43.0299150000" lon="0.1582470000"><ele>774</ele><time>2026-03-18T13:28:06Z</time></trkpt>
<trkpt lat="43.0299270000" lon="0.1582770000"><ele>774</ele><time>2026-03-18T13:28:08Z</time></trkpt>
<trkpt lat="43.0299270000" lon="0.1583070000"><ele>774</ele><time>2026-03-18T13:28:10Z</time></trkpt>
<trkpt lat="43.0299070000" lon="0.1583300000"><ele>773</ele><time>2026-03-18T13:28:12Z</time></trkpt>
<trkpt lat="43.0298920000" lon="0.1583420000"><ele>773</ele><time>2026-03-18T13:28:14Z</time></trkpt>
<trkpt lat="43.0298820000" lon="0.1583670000"><ele>772</ele><time>2026-03-18T13:28:16Z</time></trkpt>
<trkpt lat="43.0298520000" lon="0.1583620000"><ele>771</ele><time>2026-03-18T13:28:20Z</time></trkpt>
<trkpt lat="43.0298280000" lon="0.1583620000"><ele>771</ele><time>2026-03-18T13:28:22Z</time></trkpt>
<trkpt lat="43.0298100000" lon="0.1583720000"><ele>770</ele><time>2026-03-18T13:28:24Z</time></trkpt>
<trkpt lat="43.0297870000" lon="0.1583820000"><ele>769</ele><time>2026-03-18T13:28:26Z</time></trkpt>
<trkpt lat="43.0297670000" lon="0.1584020000"><ele>769</ele><time>2026-03-18T13:28:28Z</time></trkpt>
<trkpt lat="43.0297600000" lon="0.1584280000"><ele>769</ele><time>2026-03-18T13:28:31Z</time></trkpt>
<trkpt lat="43.0297570000" lon="0.1584550000"><ele>768</ele><time>2026-03-18T13:28:33Z</time></trkpt>
<trkpt lat="43.0297520000" lon="0.1584920000"><ele>768</ele><time>2026-03-18T13:28:35Z</time></trkpt>
<trkpt lat="43.0297520000" lon="0.1585270000"><ele>767</ele><time>2026-03-18T13:28:37Z</time></trkpt>
<trkpt lat="43.0297370000" lon="0.1585520000"><ele>767</ele><time>2026-03-18T13:28:39Z</time></trkpt>
<trkpt lat="43.0297520000" lon="0.1585720000"><ele>766</ele><time>2026-03-18T13:28:45Z</time></trkpt>
<trkpt lat="43.0297720000" lon="0.1585650000"><ele>765</ele><time>2026-03-18T13:28:47Z</time></trkpt>
<trkpt lat="43.0297970000" lon="0.1585620000"><ele>765</ele><time>2026-03-18T13:28:49Z</time></trkpt>
<trkpt lat="43.0298220000" lon="0.1585720000"><ele>763</ele><time>2026-03-18T13:28:56Z</time></trkpt>
<trkpt lat="43.0298400000" lon="0.1585920000"><ele>763</ele><time>2026-03-18T13:28:59Z</time></trkpt>
<trkpt lat="43.0298500000" lon="0.1586200000"><ele>762</ele><time>2026-03-18T13:29:02Z</time></trkpt>
<trkpt lat="43.0298620000" lon="0.1586420000"><ele>762</ele><time>2026-03-18T13:29:04Z</time></trkpt>
<trkpt lat="43.0298820000" lon="0.1586620000"><ele>762</ele><time>2026-03-18T13:29:06Z</time></trkpt>
<trkpt lat="43.0298980000" lon="0.1586620000"><ele>761</ele><time>2026-03-18T13:29:08Z</time></trkpt>
<trkpt lat="43.0299220000" lon="0.1586770000"><ele>761</ele><time>2026-03-18T13:29:11Z</time></trkpt>
<trkpt lat="43.0299270000" lon="0.1587020000"><ele>761</ele><time>2026-03-18T13:29:14Z</time></trkpt>
<trkpt lat="43.0299450000" lon="0.1587170000"><ele>760</ele><time>2026-03-18T13:29:31Z</time></trkpt>
<trkpt lat="43.0299570000" lon="0.1587450000"><ele>760</ele><time>2026-03-18T13:29:33Z</time></trkpt>
<trkpt lat="43.0299700000" lon="0.1587770000"><ele>760</ele><time>2026-03-18T13:29:35Z</time></trkpt>
<trkpt lat="43.0299800000" lon="0.1588150000"><ele>759</ele><time>2026-03-18T13:29:37Z</time></trkpt>
<trkpt lat="43.0299850000" lon="0.1588470000"><ele>759</ele><time>2026-03-18T13:29:39Z</time></trkpt>
<trkpt lat="43.0299920000" lon="0.1588750000"><ele>759</ele><time>2026-03-18T13:29:41Z</time></trkpt>
<trkpt lat="43.0299970000" lon="0.1589020000"><ele>758</ele><time>2026-03-18T13:29:43Z</time></trkpt>
<trkpt lat="43.0299970000" lon="0.1589370000"><ele>758</ele><time>2026-03-18T13:29:45Z</time></trkpt>
<trkpt lat="43.0299900000" lon="0.1589720000"><ele>758</ele><time>2026-03-18T13:29:47Z</time></trkpt>
<trkpt lat="43.0299800000" lon="0.1590020000"><ele>758</ele><time>2026-03-18T13:29:49Z</time></trkpt>
<trkpt lat="43.0299570000" lon="0.1590170000"><ele>758</ele><time>2026-03-18T13:29:50Z</time></trkpt>
<trkpt lat="43.0299500000" lon="0.1590450000"><ele>758</ele><time>2026-03-18T13:29:52Z</time></trkpt>
<trkpt lat="43.0299470000" lon="0.1590680000"><ele>757</ele><time>2026-03-18T13:29:54Z</time></trkpt>
<trkpt lat="43.0299370000" lon="0.1590970000"><ele>757</ele><time>2026-03-18T13:29:56Z</time></trkpt>
<trkpt lat="43.0299370000" lon="0.1591270000"><ele>756</ele><time>2026-03-18T13:29:59Z</time></trkpt>
<trkpt lat="43.0299200000" lon="0.1591570000"><ele>756</ele><time>2026-03-18T13:30:01Z</time></trkpt>
<trkpt lat="43.0299150000" lon="0.1592000000"><ele>755</ele><time>2026-03-18T13:30:04Z</time></trkpt>
<trkpt lat="43.0299120000" lon="0.1592300000"><ele>754</ele><time>2026-03-18T13:30:08Z</time></trkpt>
<trkpt lat="43.0299070000" lon="0.1592570000"><ele>752</ele><time>2026-03-18T13:30:12Z</time></trkpt>
<trkpt lat="43.0298950000" lon="0.1592870000"><ele>752</ele><time>2026-03-18T13:30:15Z</time></trkpt>
<trkpt lat="43.0298770000" lon="0.1593120000"><ele>751</ele><time>2026-03-18T13:30:17Z</time></trkpt>
<trkpt lat="43.0298770000" lon="0.1593370000"><ele>751</ele><time>2026-03-18T13:30:18Z</time></trkpt>
<trkpt lat="43.0298900000" lon="0.1593870000"><ele>750</ele><time>2026-03-18T13:30:20Z</time></trkpt>
<trkpt lat="43.0299050000" lon="0.1594250000"><ele>750</ele><time>2026-03-18T13:30:22Z</time></trkpt>
<trkpt lat="43.0299170000" lon="0.1594620000"><ele>749</ele><time>2026-03-18T13:30:24Z</time></trkpt>
<trkpt lat="43.0299220000" lon="0.1595020000"><ele>749</ele><time>2026-03-18T13:30:26Z</time></trkpt>
<trkpt lat="43.0299270000" lon="0.1595270000"><ele>748</ele><time>2026-03-18T13:30:28Z</time></trkpt>
<trkpt lat="43.0299320000" lon="0.1595520000"><ele>747</ele><time>2026-03-18T13:30:30Z</time></trkpt>
<trkpt lat="43.0299500000" lon="0.1595800000"><ele>747</ele><time>2026-03-18T13:30:32Z</time></trkpt>
<trkpt lat="43.0299500000" lon="0.1596070000"><ele>746</ele><time>2026-03-18T13:30:34Z</time></trkpt>
<trkpt lat="43.0299420000" lon="0.1596370000"><ele>746</ele><time>2026-03-18T13:30:36Z</time></trkpt>
<trkpt lat="43.0299570000" lon="0.1596530000"><ele>745</ele><time>2026-03-18T13:30:38Z</time></trkpt>
<trkpt lat="43.0299650000" lon="0.1596850000"><ele>744</ele><time>2026-03-18T13:30:41Z</time></trkpt>
<trkpt lat="43.0299750000" lon="0.1597070000"><ele>744</ele><time>2026-03-18T13:30:44Z</time></trkpt>
<trkpt lat="43.0299770000" lon="0.1597350000"><ele>742</ele><time>2026-03-18T13:30:48Z</time></trkpt>
<trkpt lat="43.0299770000" lon="0.1597630000"><ele>741</ele><time>2026-03-18T13:30:53Z</time></trkpt>
<trkpt lat="43.0299820000" lon="0.1597920000"><ele>740</ele><time>2026-03-18T13:30:56Z</time></trkpt>
<trkpt lat="43.0299870000" lon="0.1598220000"><ele>739</ele><time>2026-03-18T13:30:58Z</time></trkpt>
<trkpt lat="43.0299850000" lon="0.1598570000"><ele>739</ele><time>2026-03-18T13:31:01Z</time></trkpt>
<trkpt lat="43.0299920000" lon="0.1598850000"><ele>738</ele><time>2026-03-18T13:31:03Z</time></trkpt>
<trkpt lat="43.0300000000" lon="0.1599120000"><ele>738</ele><time>2026-03-18T13:31:05Z</time></trkpt>
<trkpt lat="43.0300020000" lon="0.1599370000"><ele>737</ele><time>2026-03-18T13:31:07Z</time></trkpt>
<trkpt lat="43.0300120000" lon="0.1599650000"><ele>736</ele><time>2026-03-18T13:31:10Z</time></trkpt>
<trkpt lat="43.0300270000" lon="0.1599900000"><ele>736</ele><time>2026-03-18T13:31:13Z</time></trkpt>
<trkpt lat="43.0300370000" lon="0.1600220000"><ele>734</ele><time>2026-03-18T13:31:17Z</time></trkpt>
<trkpt lat="43.0300450000" lon="0.1600430000"><ele>734</ele><time>2026-03-18T13:31:20Z</time></trkpt>
<trkpt lat="43.0300700000" lon="0.1600320000"><ele>731</ele><time>2026-03-18T13:32:47Z</time></trkpt>
<trkpt lat="43.0300870000" lon="0.1600320000"><ele>731</ele><time>2026-03-18T13:32:48Z</time></trkpt>
<trkpt lat="43.0301070000" lon="0.1600320000"><ele>731</ele><time>2026-03-18T13:32:49Z</time></trkpt>
<trkpt lat="43.0301270000" lon="0.1600420000"><ele>731</ele><time>2026-03-18T13:32:50Z</time></trkpt>
<trkpt lat="43.0301450000" lon="0.1600520000"><ele>731</ele><time>2026-03-18T13:32:51Z</time></trkpt>
<trkpt lat="43.0301700000" lon="0.1600770000"><ele>731</ele><time>2026-03-18T13:32:53Z</time></trkpt>
<trkpt lat="43.0301900000" lon="0.1600900000"><ele>731</ele><time>2026-03-18T13:32:55Z</time></trkpt>
<trkpt lat="43.0302120000" lon="0.1600980000"><ele>731</ele><time>2026-03-18T13:32:57Z</time></trkpt>
<trkpt lat="43.0302370000" lon="0.1601070000"><ele>732</ele><time>2026-03-18T13:33:00Z</time></trkpt>
<trkpt lat="43.0302550000" lon="0.1601120000"><ele>732</ele><time>2026-03-18T13:33:02Z</time></trkpt>
<trkpt lat="43.0302720000" lon="0.1601270000"><ele>733</ele><time>2026-03-18T13:33:05Z</time></trkpt>
<trkpt lat="43.0302850000" lon="0.1601450000"><ele>733</ele><time>2026-03-18T13:33:07Z</time></trkpt>
<trkpt lat="43.0303100000" lon="0.1601520000"><ele>733</ele><time>2026-03-18T13:33:10Z</time></trkpt>
<trkpt lat="43.0303270000" lon="0.1601670000"><ele>734</ele><time>2026-03-18T13:33:12Z</time></trkpt>
<trkpt lat="43.0303420000" lon="0.1601770000"><ele>734</ele><time>2026-03-18T13:33:14Z</time></trkpt>
<trkpt lat="43.0303620000" lon="0.1601870000"><ele>734</ele><time>2026-03-18T13:33:16Z</time></trkpt>
<trkpt lat="43.0303850000" lon="0.1601950000"><ele>734</ele><time>2026-03-18T13:33:19Z</time></trkpt>
<trkpt lat="43.0304050000" lon="0.1602020000"><ele>735</ele><time>2026-03-18T13:33:25Z</time></trkpt>
<trkpt lat="43.0304250000" lon="0.1602020000"><ele>735</ele><time>2026-03-18T13:33:28Z</time></trkpt>
<trkpt lat="43.0304450000" lon="0.1602170000"><ele>735</ele><time>2026-03-18T13:33:31Z</time></trkpt>
<trkpt lat="43.0304650000" lon="0.1602250000"><ele>735</ele><time>2026-03-18T13:33:34Z</time></trkpt>
<trkpt lat="43.0304820000" lon="0.1602330000"><ele>735</ele><time>2026-03-18T13:33:37Z</time></trkpt>
<trkpt lat="43.0305020000" lon="0.1602400000"><ele>736</ele><time>2026-03-18T13:33:40Z</time></trkpt>
<trkpt lat="43.0305220000" lon="0.1602420000"><ele>736</ele><time>2026-03-18T13:33:43Z</time></trkpt>
<trkpt lat="43.0305420000" lon="0.1602470000"><ele>736</ele><time>2026-03-18T13:33:47Z</time></trkpt>
<trkpt lat="43.0305570000" lon="0.1602370000"><ele>737</ele><time>2026-03-18T13:33:50Z</time></trkpt>
<trkpt lat="43.0305770000" lon="0.1602320000"><ele>737</ele><time>2026-03-18T13:33:53Z</time></trkpt>
<trkpt lat="43.0305970000" lon="0.1602270000"><ele>737</ele><time>2026-03-18T13:33:56Z</time></trkpt>
<trkpt lat="43.0306200000" lon="0.1602320000"><ele>738</ele><time>2026-03-18T13:34:00Z</time></trkpt>
<trkpt lat="43.0306500000" lon="0.1602470000"><ele>738</ele><time>2026-03-18T13:34:04Z</time></trkpt>
<trkpt lat="43.0306700000" lon="0.1602450000"><ele>739</ele><time>2026-03-18T13:34:08Z</time></trkpt>
<trkpt lat="43.0306770000" lon="0.1602200000"><ele>739</ele><time>2026-03-18T13:34:12Z</time></trkpt>
<trkpt lat="43.0307000000" lon="0.1602120000"><ele>739</ele><time>2026-03-18T13:34:15Z</time></trkpt>
<trkpt lat="43.0307170000" lon="0.1602120000"><ele>739</ele><time>2026-03-18T13:34:17Z</time></trkpt>
<trkpt lat="43.0307420000" lon="0.1602030000"><ele>740</ele><time>2026-03-18T13:34:22Z</time></trkpt>
<trkpt lat="43.0307600000" lon="0.1602020000"><ele>740</ele><time>2026-03-18T13:34:24Z</time></trkpt>
<trkpt lat="43.0307820000" lon="0.1602020000"><ele>740</ele><time>2026-03-18T13:34:27Z</time></trkpt>
<trkpt lat="43.0308020000" lon="0.1602030000"><ele>740</ele><time>2026-03-18T13:34:29Z</time></trkpt>
<trkpt lat="43.0308270000" lon="0.1602070000"><ele>740</ele><time>2026-03-18T13:34:32Z</time></trkpt>
<trkpt lat="43.0308520000" lon="0.1601920000"><ele>741</ele><time>2026-03-18T13:34:34Z</time></trkpt>
<trkpt lat="43.0308720000" lon="0.1601830000"><ele>741</ele><time>2026-03-18T13:34:37Z</time></trkpt>
<trkpt lat="43.0308920000" lon="0.1601880000"><ele>741</ele><time>2026-03-18T13:34:41Z</time></trkpt>
<trkpt lat="43.0309200000" lon="0.1601770000"><ele>741</ele><time>2026-03-18T13:34:44Z</time></trkpt>
<trkpt lat="43.0309400000" lon="0.1601670000"><ele>742</ele><time>2026-03-18T13:34:46Z</time></trkpt>
<trkpt lat="43.0309620000" lon="0.1601720000"><ele>742</ele><time>2026-03-18T13:34:49Z</time></trkpt>
<trkpt lat="43.0309900000" lon="0.1601720000"><ele>742</ele><time>2026-03-18T13:34:51Z</time></trkpt>
<trkpt lat="43.0310120000" lon="0.1601670000"><ele>742</ele><time>2026-03-18T13:34:53Z</time></trkpt>
<trkpt lat="43.0310320000" lon="0.1601770000"><ele>742</ele><time>2026-03-18T13:34:56Z</time></trkpt>
<trkpt lat="43.0310520000" lon="0.1601780000"><ele>742</ele><time>2026-03-18T13:35:04Z</time></trkpt>
<trkpt lat="43.0310770000" lon="0.1601770000"><ele>742</ele><time>2026-03-18T13:35:07Z</time></trkpt>
<trkpt lat="43.0311070000" lon="0.1601820000"><ele>742</ele><time>2026-03-18T13:35:15Z</time></trkpt>
<trkpt lat="43.0311320000" lon="0.1601820000"><ele>741</ele><time>2026-03-18T13:35:17Z</time></trkpt>
<trkpt lat="43.0311500000" lon="0.1601820000"><ele>741</ele><time>2026-03-18T13:35:18Z</time></trkpt>
<trkpt lat="43.0311800000" lon="0.1601870000"><ele>741</ele><time>2026-03-18T13:35:20Z</time></trkpt>
<trkpt lat="43.0312050000" lon="0.1601830000"><ele>742</ele><time>2026-03-18T13:35:22Z</time></trkpt>
<trkpt lat="43.0312250000" lon="0.1601780000"><ele>742</ele><time>2026-03-18T13:35:24Z</time></trkpt>
<trkpt lat="43.0312470000" lon="0.1601700000"><ele>742</ele><time>2026-03-18T13:35:27Z</time></trkpt>
<trkpt lat="43.0312700000" lon="0.1601670000"><ele>742</ele><time>2026-03-18T13:35:29Z</time></trkpt>
<trkpt lat="43.0312920000" lon="0.1601720000"><ele>742</ele><time>2026-03-18T13:35:31Z</time></trkpt>
<trkpt lat="43.0313220000" lon="0.1601670000"><ele>743</ele><time>2026-03-18T13:35:35Z</time></trkpt>
<trkpt lat="43.0313420000" lon="0.1601620000"><ele>743</ele><time>2026-03-18T13:35:37Z</time></trkpt>
<trkpt lat="43.0313670000" lon="0.1601520000"><ele>743</ele><time>2026-03-18T13:35:39Z</time></trkpt>
<trkpt lat="43.0313950000" lon="0.1601370000"><ele>744</ele><time>2026-03-18T13:35:41Z</time></trkpt>
<trkpt lat="43.0314120000" lon="0.1601270000"><ele>744</ele><time>2026-03-18T13:35:45Z</time></trkpt>
<trkpt lat="43.0314270000" lon="0.1601050000"><ele>744</ele><time>2026-03-18T13:35:48Z</time></trkpt>
<trkpt lat="43.0314520000" lon="0.1600820000"><ele>745</ele><time>2026-03-18T13:35:51Z</time></trkpt>
<trkpt lat="43.0314720000" lon="0.1600720000"><ele>746</ele><time>2026-03-18T13:35:56Z</time></trkpt>
<trkpt lat="43.0314970000" lon="0.1600620000"><ele>746</ele><time>2026-03-18T13:35:59Z</time></trkpt>
<trkpt lat="43.0315250000" lon="0.1600570000"><ele>747</ele><time>2026-03-18T13:36:02Z</time></trkpt>
<trkpt lat="43.0315470000" lon="0.1600620000"><ele>746</ele><time>2026-03-18T13:37:42Z</time></trkpt>
<trkpt lat="43.0315620000" lon="0.1600800000"><ele>746</ele><time>2026-03-18T13:37:44Z</time></trkpt>
<trkpt lat="43.0315800000" lon="0.1600680000"><ele>746</ele><time>2026-03-18T13:38:57Z</time></trkpt>
<trkpt lat="43.0315970000" lon="0.1600670000"><ele>746</ele><time>2026-03-18T13:39:19Z</time></trkpt>
<trkpt lat="43.0316050000" lon="0.1600920000"><ele>746</ele><time>2026-03-18T13:39:22Z</time></trkpt>
<trkpt lat="43.0315820000" lon="0.1600820000"><ele>745</ele><time>2026-03-18T13:40:25Z</time></trkpt>
<trkpt lat="43.0315670000" lon="0.1600600000"><ele>745</ele><time>2026-03-18T13:41:37Z</time></trkpt>
<trkpt lat="43.0315870000" lon="0.1600430000"><ele>745</ele><time>2026-03-18T13:43:12Z</time></trkpt>
<trkpt lat="43.0316150000" lon="0.1600300000"><ele>745</ele><time>2026-03-18T13:43:14Z</time></trkpt>
<trkpt lat="43.0316400000" lon="0.1600170000"><ele>745</ele><time>2026-03-18T13:43:16Z</time></trkpt>
<trkpt lat="43.0316600000" lon="0.1600000000"><ele>745</ele><time>2026-03-18T13:43:21Z</time></trkpt>
<trkpt lat="43.0316820000" lon="0.1599870000"><ele>746</ele><time>2026-03-18T13:43:24Z</time></trkpt>
<trkpt lat="43.0317020000" lon="0.1599720000"><ele>746</ele><time>2026-03-18T13:43:26Z</time></trkpt>
<trkpt lat="43.0317270000" lon="0.1599650000"><ele>746</ele><time>2026-03-18T13:43:28Z</time></trkpt>
<trkpt lat="43.0317470000" lon="0.1599580000"><ele>746</ele><time>2026-03-18T13:43:31Z</time></trkpt>
<trkpt lat="43.0317600000" lon="0.1599420000"><ele>746</ele><time>2026-03-18T13:43:34Z</time></trkpt>
<trkpt lat="43.0317770000" lon="0.1599170000"><ele>747</ele><time>2026-03-18T13:43:39Z</time></trkpt>
<trkpt lat="43.0317950000" lon="0.1599120000"><ele>747</ele><time>2026-03-18T13:43:41Z</time></trkpt>
<trkpt lat="43.0318120000" lon="0.1598970000"><ele>747</ele><time>2026-03-18T13:43:44Z</time></trkpt>
<trkpt lat="43.0318300000" lon="0.1598720000"><ele>747</ele><time>2026-03-18T13:43:46Z</time></trkpt>
<trkpt lat="43.0318570000" lon="0.1598520000"><ele>748</ele><time>2026-03-18T13:43:49Z</time></trkpt>
<trkpt lat="43.0318770000" lon="0.1598500000"><ele>748</ele><time>2026-03-18T13:43:51Z</time></trkpt>
<trkpt lat="43.0318950000" lon="0.1598520000"><ele>748</ele><time>2026-03-18T13:43:54Z</time></trkpt>
<trkpt lat="43.0319270000" lon="0.1598420000"><ele>748</ele><time>2026-03-18T13:43:59Z</time></trkpt>
<trkpt lat="43.0319520000" lon="0.1598250000"><ele>749</ele><time>2026-03-18T13:44:01Z</time></trkpt>
<trkpt lat="43.0319800000" lon="0.1598070000"><ele>749</ele><time>2026-03-18T13:44:03Z</time></trkpt>
<trkpt lat="43.0320200000" lon="0.1597930000"><ele>749</ele><time>2026-03-18T13:44:05Z</time></trkpt>
<trkpt lat="43.0320470000" lon="0.1597670000"><ele>749</ele><time>2026-03-18T13:44:07Z</time></trkpt>
<trkpt lat="43.0320670000" lon="0.1597520000"><ele>749</ele><time>2026-03-18T13:44:08Z</time></trkpt>
<trkpt lat="43.0320870000" lon="0.1597470000"><ele>749</ele><time>2026-03-18T13:44:11Z</time></trkpt>
<trkpt lat="43.0321070000" lon="0.1597370000"><ele>749</ele><time>2026-03-18T13:44:13Z</time></trkpt>
<trkpt lat="43.0321350000" lon="0.1597370000"><ele>749</ele><time>2026-03-18T13:44:15Z</time></trkpt>
<trkpt lat="43.0321620000" lon="0.1597320000"><ele>749</ele><time>2026-03-18T13:44:19Z</time></trkpt>
<trkpt lat="43.0321920000" lon="0.1597320000"><ele>749</ele><time>2026-03-18T13:44:21Z</time></trkpt>
<trkpt lat="43.0322150000" lon="0.1597350000"><ele>749</ele><time>2026-03-18T13:44:22Z</time></trkpt>
<trkpt lat="43.0322320000" lon="0.1597220000"><ele>749</ele><time>2026-03-18T13:44:25Z</time></trkpt>
<trkpt lat="43.0322480000" lon="0.1597420000"><ele>749</ele><time>2026-03-18T13:44:31Z</time></trkpt>
<trkpt lat="43.0322820000" lon="0.1597370000"><ele>749</ele><time>2026-03-18T13:44:33Z</time></trkpt>
<trkpt lat="43.0323020000" lon="0.1597370000"><ele>749</ele><time>2026-03-18T13:44:35Z</time></trkpt>
<trkpt lat="43.0322820000" lon="0.1597420000"><ele>749</ele><time>2026-03-18T13:44:44Z</time></trkpt>
<trkpt lat="43.0322600000" lon="0.1597250000"><ele>750</ele><time>2026-03-18T13:44:53Z</time></trkpt>
<trkpt lat="43.0322670000" lon="0.1597000000"><ele>750</ele><time>2026-03-18T13:44:55Z</time></trkpt>
<trkpt lat="43.0322770000" lon="0.1596670000"><ele>750</ele><time>2026-03-18T13:44:57Z</time></trkpt>
<trkpt lat="43.0322870000" lon="0.1596330000"><ele>750</ele><time>2026-03-18T13:44:59Z</time></trkpt>
<trkpt lat="43.0323000000" lon="0.1596100000"><ele>750</ele><time>2026-03-18T13:45:01Z</time></trkpt>
<trkpt lat="43.0323100000" lon="0.1595870000"><ele>750</ele><time>2026-03-18T13:45:03Z</time></trkpt>
<trkpt lat="43.0323270000" lon="0.1595750000"><ele>750</ele><time>2026-03-18T13:45:05Z</time></trkpt>
<trkpt lat="43.0323470000" lon="0.1595650000"><ele>751</ele><time>2026-03-18T13:45:07Z</time></trkpt>
<trkpt lat="43.0323620000" lon="0.1595430000"><ele>751</ele><time>2026-03-18T13:45:10Z</time></trkpt>
<trkpt lat="43.0323820000" lon="0.1595270000"><ele>751</ele><time>2026-03-18T13:45:12Z</time></trkpt>
<trkpt lat="43.0323970000" lon="0.1595020000"><ele>751</ele><time>2026-03-18T13:45:15Z</time></trkpt>
<trkpt lat="43.0324120000" lon="0.1594720000"><ele>751</ele><time>2026-03-18T13:45:18Z</time></trkpt>
<trkpt lat="43.0324270000" lon="0.1594470000"><ele>751</ele><time>2026-03-18T13:45:21Z</time></trkpt>
<trkpt lat="43.0324420000" lon="0.1594320000"><ele>751</ele><time>2026-03-18T13:45:24Z</time></trkpt>
<trkpt lat="43.0324730000" lon="0.1594270000"><ele>752</ele><time>2026-03-18T13:45:27Z</time></trkpt>
<trkpt lat="43.0324950000" lon="0.1594070000"><ele>752</ele><time>2026-03-18T13:45:31Z</time></trkpt>
<trkpt lat="43.0325020000" lon="0.1593730000"><ele>752</ele><time>2026-03-18T13:45:33Z</time></trkpt>
<trkpt lat="43.0325270000" lon="0.1593370000"><ele>753</ele><time>2026-03-18T13:45:35Z</time></trkpt>
<trkpt lat="43.0325520000" lon="0.1593170000"><ele>753</ele><time>2026-03-18T13:45:37Z</time></trkpt>
<trkpt lat="43.0325650000" lon="0.1592970000"><ele>753</ele><time>2026-03-18T13:45:39Z</time></trkpt>
<trkpt lat="43.0325720000" lon="0.1592720000"><ele>753</ele><time>2026-03-18T13:45:42Z</time></trkpt>
<trkpt lat="43.0325900000" lon="0.1592620000"><ele>754</ele><time>2026-03-18T13:45:45Z</time></trkpt>
<trkpt lat="43.0326070000" lon="0.1592700000"><ele>754</ele><time>2026-03-18T13:45:48Z</time></trkpt>
<trkpt lat="43.0326270000" lon="0.1592370000"><ele>754</ele><time>2026-03-18T13:45:51Z</time></trkpt>
<trkpt lat="43.0326400000" lon="0.1592130000"><ele>754</ele><time>2026-03-18T13:45:53Z</time></trkpt>
<trkpt lat="43.0326600000" lon="0.1591900000"><ele>755</ele><time>2026-03-18T13:45:56Z</time></trkpt>
<trkpt lat="43.0326770000" lon="0.1591720000"><ele>755</ele><time>2026-03-18T13:45:58Z</time></trkpt>
<trkpt lat="43.0326900000" lon="0.1591450000"><ele>755</ele><time>2026-03-18T13:46:01Z</time></trkpt>
<trkpt lat="43.0326970000" lon="0.1591220000"><ele>755</ele><time>2026-03-18T13:46:03Z</time></trkpt>
<trkpt lat="43.0327120000" lon="0.1591030000"><ele>755</ele><time>2026-03-18T13:46:05Z</time></trkpt>
<trkpt lat="43.0327350000" lon="0.1590970000"><ele>756</ele><time>2026-03-18T13:46:07Z</time></trkpt>
<trkpt lat="43.0327450000" lon="0.1590720000"><ele>756</ele><time>2026-03-18T13:46:11Z</time></trkpt>
<trkpt lat="43.0327620000" lon="0.1590500000"><ele>756</ele><time>2026-03-18T13:46:15Z</time></trkpt>
<trkpt lat="43.0327820000" lon="0.1590420000"><ele>757</ele><time>2026-03-18T13:46:18Z</time></trkpt>
<trkpt lat="43.0328000000" lon="0.1590250000"><ele>757</ele><time>2026-03-18T13:46:21Z</time></trkpt>
<trkpt lat="43.0328170000" lon="0.1590050000"><ele>757</ele><time>2026-03-18T13:46:25Z</time></trkpt>
<trkpt lat="43.0328370000" lon="0.1589950000"><ele>758</ele><time>2026-03-18T13:46:27Z</time></trkpt>
<trkpt lat="43.0328370000" lon="0.1589670000"><ele>758</ele><time>2026-03-18T13:46:29Z</time></trkpt>
<trkpt lat="43.0328570000" lon="0.1589470000"><ele>758</ele><time>2026-03-18T13:46:32Z</time></trkpt>
<trkpt lat="43.0328770000" lon="0.1589270000"><ele>758</ele><time>2026-03-18T13:46:35Z</time></trkpt>
<trkpt lat="43.0328920000" lon="0.1589000000"><ele>758</ele><time>2026-03-18T13:46:37Z</time></trkpt>
<trkpt lat="43.0328970000" lon="0.1588670000"><ele>758</ele><time>2026-03-18T13:46:39Z</time></trkpt>
<trkpt lat="43.0329120000" lon="0.1588420000"><ele>758</ele><time>2026-03-18T13:46:41Z</time></trkpt>
<trkpt lat="43.0329270000" lon="0.1588170000"><ele>759</ele><time>2026-03-18T13:46:43Z</time></trkpt>
<trkpt lat="43.0329500000" lon="0.1588120000"><ele>759</ele><time>2026-03-18T13:46:45Z</time></trkpt>
<trkpt lat="43.0329670000" lon="0.1587970000"><ele>759</ele><time>2026-03-18T13:46:49Z</time></trkpt>
<trkpt lat="43.0329870000" lon="0.1587930000"><ele>759</ele><time>2026-03-18T13:46:52Z</time></trkpt>
<trkpt lat="43.0329900000" lon="0.1587700000"><ele>759</ele><time>2026-03-18T13:46:55Z</time></trkpt>
<trkpt lat="43.0330020000" lon="0.1587520000"><ele>759</ele><time>2026-03-18T13:47:08Z</time></trkpt>
<trkpt lat="43.0330220000" lon="0.1587450000"><ele>759</ele><time>2026-03-18T13:47:12Z</time></trkpt>
<trkpt lat="43.0330420000" lon="0.1587270000"><ele>759</ele><time>2026-03-18T13:47:14Z</time></trkpt>
<trkpt lat="43.0330570000" lon="0.1587020000"><ele>760</ele><time>2026-03-18T13:47:17Z</time></trkpt>
<trkpt lat="43.0330820000" lon="0.1586870000"><ele>760</ele><time>2026-03-18T13:47:20Z</time></trkpt>
<trkpt lat="43.0331050000" lon="0.1586580000"><ele>760</ele><time>2026-03-18T13:47:23Z</time></trkpt>
<trkpt lat="43.0331200000" lon="0.1586450000"><ele>760</ele><time>2026-03-18T13:47:25Z</time></trkpt>
<trkpt lat="43.0331270000" lon="0.1586200000"><ele>760</ele><time>2026-03-18T13:47:27Z</time></trkpt>
<trkpt lat="43.0331300000" lon="0.1585950000"><ele>760</ele><time>2026-03-18T13:47:29Z</time></trkpt>
<trkpt lat="43.0331400000" lon="0.1585670000"><ele>761</ele><time>2026-03-18T13:47:36Z</time></trkpt>
<trkpt lat="43.0331520000" lon="0.1585420000"><ele>761</ele><time>2026-03-18T13:47:38Z</time></trkpt>
<trkpt lat="43.0331520000" lon="0.1585120000"><ele>762</ele><time>2026-03-18T13:47:40Z</time></trkpt>
<trkpt lat="43.0331620000" lon="0.1584820000"><ele>762</ele><time>2026-03-18T13:47:42Z</time></trkpt>
<trkpt lat="43.0331720000" lon="0.1584520000"><ele>762</ele><time>2026-03-18T13:47:44Z</time></trkpt>
<trkpt lat="43.0331870000" lon="0.1584280000"><ele>763</ele><time>2026-03-18T13:47:46Z</time></trkpt>
<trkpt lat="43.0332020000" lon="0.1584080000"><ele>763</ele><time>2026-03-18T13:47:48Z</time></trkpt>
<trkpt lat="43.0332150000" lon="0.1583830000"><ele>763</ele><time>2026-03-18T13:47:51Z</time></trkpt>
<trkpt lat="43.0332170000" lon="0.1583600000"><ele>763</ele><time>2026-03-18T13:47:54Z</time></trkpt>
<trkpt lat="43.0332070000" lon="0.1583300000"><ele>764</ele><time>2026-03-18T13:47:56Z</time></trkpt>
<trkpt lat="43.0332120000" lon="0.1582970000"><ele>764</ele><time>2026-03-18T13:47:58Z</time></trkpt>
<trkpt lat="43.0332170000" lon="0.1582670000"><ele>764</ele><time>2026-03-18T13:48:00Z</time></trkpt>
<trkpt lat="43.0332300000" lon="0.1582370000"><ele>764</ele><time>2026-03-18T13:48:02Z</time></trkpt>
<trkpt lat="43.0332420000" lon="0.1582170000"><ele>764</ele><time>2026-03-18T13:48:03Z</time></trkpt>
<trkpt lat="43.0332570000" lon="0.1581970000"><ele>764</ele><time>2026-03-18T13:48:06Z</time></trkpt>
<trkpt lat="43.0332820000" lon="0.1581870000"><ele>764</ele><time>2026-03-18T13:48:08Z</time></trkpt>
<trkpt lat="43.0332950000" lon="0.1581670000"><ele>765</ele><time>2026-03-18T13:48:10Z</time></trkpt>
<trkpt lat="43.0333050000" lon="0.1581270000"><ele>765</ele><time>2026-03-18T13:48:13Z</time></trkpt>
<trkpt lat="43.0333120000" lon="0.1580970000"><ele>765</ele><time>2026-03-18T13:48:16Z</time></trkpt>
<trkpt lat="43.0333050000" lon="0.1580670000"><ele>765</ele><time>2026-03-18T13:48:17Z</time></trkpt>
<trkpt lat="43.0333170000" lon="0.1580320000"><ele>765</ele><time>2026-03-18T13:48:19Z</time></trkpt>
<trkpt lat="43.0333270000" lon="0.1579930000"><ele>766</ele><time>2026-03-18T13:48:21Z</time></trkpt>
<trkpt lat="43.0333370000" lon="0.1579620000"><ele>766</ele><time>2026-03-18T13:48:23Z</time></trkpt>
<trkpt lat="43.0333570000" lon="0.1579450000"><ele>766</ele><time>2026-03-18T13:48:25Z</time></trkpt>
<trkpt lat="43.0333770000" lon="0.1579170000"><ele>766</ele><time>2026-03-18T13:48:28Z</time></trkpt>
<trkpt lat="43.0333870000" lon="0.1578870000"><ele>766</ele><time>2026-03-18T13:48:30Z</time></trkpt>
<trkpt lat="43.0334150000" lon="0.1578720000"><ele>767</ele><time>2026-03-18T13:48:33Z</time></trkpt>
<trkpt lat="43.0334270000" lon="0.1578370000"><ele>767</ele><time>2026-03-18T13:48:36Z</time></trkpt>
<trkpt lat="43.0334420000" lon="0.1578100000"><ele>767</ele><time>2026-03-18T13:48:39Z</time></trkpt>
<trkpt lat="43.0334570000" lon="0.1577870000"><ele>767</ele><time>2026-03-18T13:48:41Z</time></trkpt>
<trkpt lat="43.0334670000" lon="0.1577620000"><ele>767</ele><time>2026-03-18T13:48:43Z</time></trkpt>
<trkpt lat="43.0334870000" lon="0.1577330000"><ele>767</ele><time>2026-03-18T13:48:46Z</time></trkpt>
<trkpt lat="43.0335120000" lon="0.1577200000"><ele>768</ele><time>2026-03-18T13:48:48Z</time></trkpt>
<trkpt lat="43.0335350000" lon="0.1577070000"><ele>767</ele><time>2026-03-18T13:48:50Z</time></trkpt>
<trkpt lat="43.0335520000" lon="0.1576780000"><ele>768</ele><time>2026-03-18T13:48:53Z</time></trkpt>
<trkpt lat="43.0335770000" lon="0.1576620000"><ele>768</ele><time>2026-03-18T13:48:55Z</time></trkpt>
<trkpt lat="43.0335900000" lon="0.1576470000"><ele>768</ele><time>2026-03-18T13:48:58Z</time></trkpt>
<trkpt lat="43.0336220000" lon="0.1576420000"><ele>768</ele><time>2026-03-18T13:48:59Z</time></trkpt>
<trkpt lat="43.0336420000" lon="0.1576370000"><ele>768</ele><time>2026-03-18T13:49:00Z</time></trkpt>
<trkpt lat="43.0336570000" lon="0.1576200000"><ele>768</ele><time>2026-03-18T13:49:02Z</time></trkpt>
<trkpt lat="43.0336720000" lon="0.1575970000"><ele>768</ele><time>2026-03-18T13:49:04Z</time></trkpt>
<trkpt lat="43.0336920000" lon="0.1575920000"><ele>768</ele><time>2026-03-18T13:49:07Z</time></trkpt>
<trkpt lat="43.0337150000" lon="0.1575870000"><ele>768</ele><time>2026-03-18T13:49:10Z</time></trkpt>
<trkpt lat="43.0337400000" lon="0.1575770000"><ele>768</ele><time>2026-03-18T13:49:11Z</time></trkpt>
<trkpt lat="43.0337720000" lon="0.1575520000"><ele>767</ele><time>2026-03-18T13:49:13Z</time></trkpt>
<trkpt lat="43.0337850000" lon="0.1575370000"><ele>767</ele><time>2026-03-18T13:49:14Z</time></trkpt>
<trkpt lat="43.0337970000" lon="0.1575170000"><ele>767</ele><time>2026-03-18T13:49:15Z</time></trkpt>
<trkpt lat="43.0338070000" lon="0.1574900000"><ele>767</ele><time>2026-03-18T13:49:17Z</time></trkpt>
<trkpt lat="43.0338300000" lon="0.1574770000"><ele>767</ele><time>2026-03-18T13:49:19Z</time></trkpt>
<trkpt lat="43.0338520000" lon="0.1574670000"><ele>767</ele><time>2026-03-18T13:49:22Z</time></trkpt>
<trkpt lat="43.0338750000" lon="0.1574570000"><ele>767</ele><time>2026-03-18T13:49:24Z</time></trkpt>
<trkpt lat="43.0339020000" lon="0.1574470000"><ele>767</ele><time>2026-03-18T13:49:26Z</time></trkpt>
<trkpt lat="43.0339170000" lon="0.1574070000"><ele>767</ele><time>2026-03-18T13:49:28Z</time></trkpt>
<trkpt lat="43.0339400000" lon="0.1573950000"><ele>767</ele><time>2026-03-18T13:49:30Z</time></trkpt>
<trkpt lat="43.0339720000" lon="0.1573920000"><ele>767</ele><time>2026-03-18T13:49:32Z</time></trkpt>
<trkpt lat="43.0340020000" lon="0.1573820000"><ele>767</ele><time>2026-03-18T13:49:34Z</time></trkpt>
<trkpt lat="43.0340300000" lon="0.1573770000"><ele>767</ele><time>2026-03-18T13:49:36Z</time></trkpt>
<trkpt lat="43.0340470000" lon="0.1573550000"><ele>767</ele><time>2026-03-18T13:49:38Z</time></trkpt>
<trkpt lat="43.0340720000" lon="0.1573450000"><ele>767</ele><time>2026-03-18T13:49:41Z</time></trkpt>
<trkpt lat="43.0340870000" lon="0.1573220000"><ele>767</ele><time>2026-03-18T13:49:45Z</time></trkpt>
<trkpt lat="43.0341000000" lon="0.1573070000"><ele>767</ele><time>2026-03-18T13:49:47Z</time></trkpt>
<trkpt lat="43.0341220000" lon="0.1572870000"><ele>767</ele><time>2026-03-18T13:49:51Z</time></trkpt>
<trkpt lat="43.0341400000" lon="0.1572770000"><ele>767</ele><time>2026-03-18T13:49:53Z</time></trkpt>
<trkpt lat="43.0341450000" lon="0.1572520000"><ele>767</ele><time>2026-03-18T13:49:56Z</time></trkpt>
<trkpt lat="43.0341520000" lon="0.1572250000"><ele>767</ele><time>2026-03-18T13:50:00Z</time></trkpt>
<trkpt lat="43.0341670000" lon="0.1572000000"><ele>767</ele><time>2026-03-18T13:50:03Z</time></trkpt>
<trkpt lat="43.0341770000" lon="0.1571720000"><ele>766</ele><time>2026-03-18T13:50:05Z</time></trkpt>
<trkpt lat="43.0341820000" lon="0.1571470000"><ele>766</ele><time>2026-03-18T13:50:07Z</time></trkpt>
<trkpt lat="43.0341720000" lon="0.1571230000"><ele>766</ele><time>2026-03-18T13:50:10Z</time></trkpt>
<trkpt lat="43.0341950000" lon="0.1571150000"><ele>766</ele><time>2026-03-18T13:50:12Z</time></trkpt>
<trkpt lat="43.0342070000" lon="0.1570900000"><ele>766</ele><time>2026-03-18T13:50:15Z</time></trkpt>
<trkpt lat="43.0342320000" lon="0.1570800000"><ele>765</ele><time>2026-03-18T13:50:17Z</time></trkpt>
<trkpt lat="43.0342570000" lon="0.1570600000"><ele>765</ele><time>2026-03-18T13:50:19Z</time></trkpt>
<trkpt lat="43.0342750000" lon="0.1570500000"><ele>765</ele><time>2026-03-18T13:50:20Z</time></trkpt>
<trkpt lat="43.0343070000" lon="0.1570400000"><ele>765</ele><time>2026-03-18T13:50:22Z</time></trkpt>
<trkpt lat="43.0343250000" lon="0.1570420000"><ele>765</ele><time>2026-03-18T13:50:23Z</time></trkpt>
<trkpt lat="43.0343520000" lon="0.1570420000"><ele>765</ele><time>2026-03-18T13:50:24Z</time></trkpt>
<trkpt lat="43.0343770000" lon="0.1570400000"><ele>765</ele><time>2026-03-18T13:50:26Z</time></trkpt>
<trkpt lat="43.0344020000" lon="0.1570300000"><ele>765</ele><time>2026-03-18T13:50:29Z</time></trkpt>
<trkpt lat="43.0344170000" lon="0.1570130000"><ele>765</ele><time>2026-03-18T13:50:30Z</time></trkpt>
<trkpt lat="43.0344430000" lon="0.1570050000"><ele>765</ele><time>2026-03-18T13:50:32Z</time></trkpt>
<trkpt lat="43.0344650000" lon="0.1569880000"><ele>765</ele><time>2026-03-18T13:50:34Z</time></trkpt>
<trkpt lat="43.0344820000" lon="0.1569670000"><ele>765</ele><time>2026-03-18T13:50:36Z</time></trkpt>
<trkpt lat="43.0344970000" lon="0.1569500000"><ele>765</ele><time>2026-03-18T13:50:39Z</time></trkpt>
<trkpt lat="43.0345170000" lon="0.1569450000"><ele>766</ele><time>2026-03-18T13:50:41Z</time></trkpt>
<trkpt lat="43.0345520000" lon="0.1569350000"><ele>766</ele><time>2026-03-18T13:50:43Z</time></trkpt>
<trkpt lat="43.0345720000" lon="0.1569280000"><ele>766</ele><time>2026-03-18T13:50:47Z</time></trkpt>
<trkpt lat="43.0345920000" lon="0.1569170000"><ele>766</ele><time>2026-03-18T13:50:50Z</time></trkpt>
<trkpt lat="43.0346150000" lon="0.1569020000"><ele>767</ele><time>2026-03-18T13:50:53Z</time></trkpt>
<trkpt lat="43.0346320000" lon="0.1568830000"><ele>767</ele><time>2026-03-18T13:50:55Z</time></trkpt>
<trkpt lat="43.0346550000" lon="0.1568720000"><ele>768</ele><time>2026-03-18T13:50:58Z</time></trkpt>
<trkpt lat="43.0346770000" lon="0.1568670000"><ele>768</ele><time>2026-03-18T13:51:00Z</time></trkpt>
<trkpt lat="43.0346970000" lon="0.1568620000"><ele>768</ele><time>2026-03-18T13:51:02Z</time></trkpt>
<trkpt lat="43.0347170000" lon="0.1568520000"><ele>769</ele><time>2026-03-18T13:51:04Z</time></trkpt>
<trkpt lat="43.0347370000" lon="0.1568470000"><ele>769</ele><time>2026-03-18T13:51:07Z</time></trkpt>
<trkpt lat="43.0347530000" lon="0.1568320000"><ele>770</ele><time>2026-03-18T13:51:11Z</time></trkpt>
<trkpt lat="43.0347750000" lon="0.1568070000"><ele>770</ele><time>2026-03-18T13:51:14Z</time></trkpt>
<trkpt lat="43.0347970000" lon="0.1567900000"><ele>770</ele><time>2026-03-18T13:51:16Z</time></trkpt>
<trkpt lat="43.0348120000" lon="0.1567600000"><ele>770</ele><time>2026-03-18T13:51:20Z</time></trkpt>
<trkpt lat="43.0348370000" lon="0.1567380000"><ele>770</ele><time>2026-03-18T13:51:23Z</time></trkpt>
<trkpt lat="43.0348520000" lon="0.1567130000"><ele>771</ele><time>2026-03-18T13:51:26Z</time></trkpt>
<trkpt lat="43.0348720000" lon="0.1567070000"><ele>771</ele><time>2026-03-18T13:51:28Z</time></trkpt>
<trkpt lat="43.0348900000" lon="0.1566870000"><ele>771</ele><time>2026-03-18T13:51:30Z</time></trkpt>
<trkpt lat="43.0349100000" lon="0.1566770000"><ele>771</ele><time>2026-03-18T13:51:33Z</time></trkpt>
<trkpt lat="43.0349350000" lon="0.1566720000"><ele>771</ele><time>2026-03-18T13:51:35Z</time></trkpt>
<trkpt lat="43.0349370000" lon="0.1566400000"><ele>771</ele><time>2026-03-18T13:51:38Z</time></trkpt>
<trkpt lat="43.0349420000" lon="0.1565920000"><ele>771</ele><time>2026-03-18T13:51:41Z</time></trkpt>
<trkpt lat="43.0349600000" lon="0.1565680000"><ele>771</ele><time>2026-03-18T13:51:45Z</time></trkpt>
<trkpt lat="43.0349870000" lon="0.1565620000"><ele>771</ele><time>2026-03-18T13:51:47Z</time></trkpt>
<trkpt lat="43.0350220000" lon="0.1565650000"><ele>771</ele><time>2026-03-18T13:51:49Z</time></trkpt>
<trkpt lat="43.0350420000" lon="0.1565550000"><ele>771</ele><time>2026-03-18T13:51:53Z</time></trkpt>
<trkpt lat="43.0350670000" lon="0.1565450000"><ele>771</ele><time>2026-03-18T13:51:55Z</time></trkpt>
<trkpt lat="43.0350870000" lon="0.1565420000"><ele>771</ele><time>2026-03-18T13:51:56Z</time></trkpt>
<trkpt lat="43.0351100000" lon="0.1565370000"><ele>771</ele><time>2026-03-18T13:51:58Z</time></trkpt>
<trkpt lat="43.0351320000" lon="0.1565370000"><ele>771</ele><time>2026-03-18T13:52:00Z</time></trkpt>
<trkpt lat="43.0351550000" lon="0.1565370000"><ele>771</ele><time>2026-03-18T13:52:02Z</time></trkpt>
<trkpt lat="43.0351720000" lon="0.1565270000"><ele>771</ele><time>2026-03-18T13:52:04Z</time></trkpt>
<trkpt lat="43.0352070000" lon="0.1565250000"><ele>771</ele><time>2026-03-18T13:52:06Z</time></trkpt>
<trkpt lat="43.0352270000" lon="0.1565170000"><ele>771</ele><time>2026-03-18T13:52:08Z</time></trkpt>
<trkpt lat="43.0352470000" lon="0.1565070000"><ele>771</ele><time>2026-03-18T13:52:10Z</time></trkpt>
<trkpt lat="43.0352650000" lon="0.1564950000"><ele>771</ele><time>2026-03-18T13:52:13Z</time></trkpt>
<trkpt lat="43.0352870000" lon="0.1564950000"><ele>772</ele><time>2026-03-18T13:52:16Z</time></trkpt>
<trkpt lat="43.0353050000" lon="0.1564970000"><ele>771</ele><time>2026-03-18T13:52:19Z</time></trkpt>
<trkpt lat="43.0353220000" lon="0.1564750000"><ele>771</ele><time>2026-03-18T13:52:22Z</time></trkpt>
<trkpt lat="43.0353370000" lon="0.1564570000"><ele>771</ele><time>2026-03-18T13:52:24Z</time></trkpt>
<trkpt lat="43.0353570000" lon="0.1564470000"><ele>771</ele><time>2026-03-18T13:52:27Z</time></trkpt>
<trkpt lat="43.0353770000" lon="0.1564300000"><ele>771</ele><time>2026-03-18T13:52:31Z</time></trkpt>
<trkpt lat="43.0353970000" lon="0.1564170000"><ele>771</ele><time>2026-03-18T13:52:34Z</time></trkpt>
<trkpt lat="43.0354170000" lon="0.1564100000"><ele>770</ele><time>2026-03-18T13:52:36Z</time></trkpt>
<trkpt lat="43.0354320000" lon="0.1563870000"><ele>770</ele><time>2026-03-18T13:52:41Z</time></trkpt>
<trkpt lat="43.0354550000" lon="0.1563800000"><ele>769</ele><time>2026-03-18T13:52:44Z</time></trkpt>
<trkpt lat="43.0354820000" lon="0.1563850000"><ele>769</ele><time>2026-03-18T13:52:46Z</time></trkpt>
<trkpt lat="43.0355020000" lon="0.1564120000"><ele>769</ele><time>2026-03-18T13:52:48Z</time></trkpt>
<trkpt lat="43.0355200000" lon="0.1564370000"><ele>768</ele><time>2026-03-18T13:52:50Z</time></trkpt>
<trkpt lat="43.0355420000" lon="0.1564630000"><ele>768</ele><time>2026-03-18T13:52:52Z</time></trkpt>
<trkpt lat="43.0355500000" lon="0.1564970000"><ele>768</ele><time>2026-03-18T13:52:54Z</time></trkpt>
<trkpt lat="43.0355650000" lon="0.1565250000"><ele>768</ele><time>2026-03-18T13:52:57Z</time></trkpt>
<trkpt lat="43.0355720000" lon="0.1565470000"><ele>768</ele><time>2026-03-18T13:53:03Z</time></trkpt>
<trkpt lat="43.0355900000" lon="0.1565850000"><ele>768</ele><time>2026-03-18T13:53:07Z</time></trkpt>
<trkpt lat="43.0356150000" lon="0.1565980000"><ele>768</ele><time>2026-03-18T13:53:09Z</time></trkpt>
<trkpt lat="43.0356450000" lon="0.1566070000"><ele>768</ele><time>2026-03-18T13:53:11Z</time></trkpt>
<trkpt lat="43.0356700000" lon="0.1566020000"><ele>768</ele><time>2026-03-18T13:53:13Z</time></trkpt>
<trkpt lat="43.0356850000" lon="0.1566270000"><ele>768</ele><time>2026-03-18T13:53:16Z</time></trkpt>
<trkpt lat="43.0356920000" lon="0.1566500000"><ele>768</ele><time>2026-03-18T13:53:19Z</time></trkpt>
<trkpt lat="43.0357170000" lon="0.1566700000"><ele>768</ele><time>2026-03-18T13:53:22Z</time></trkpt>
<trkpt lat="43.0357320000" lon="0.1566920000"><ele>768</ele><time>2026-03-18T13:53:24Z</time></trkpt>
<trkpt lat="43.0357380000" lon="0.1567170000"><ele>768</ele><time>2026-03-18T13:53:26Z</time></trkpt>
<trkpt lat="43.0357600000" lon="0.1567320000"><ele>768</ele><time>2026-03-18T13:53:28Z</time></trkpt>
<trkpt lat="43.0357770000" lon="0.1567470000"><ele>768</ele><time>2026-03-18T13:53:30Z</time></trkpt>
<trkpt lat="43.0357920000" lon="0.1567620000"><ele>768</ele><time>2026-03-18T13:53:32Z</time></trkpt>
<trkpt lat="43.0358070000" lon="0.1567820000"><ele>768</ele><time>2026-03-18T13:53:34Z</time></trkpt>
<trkpt lat="43.0358070000" lon="0.1568120000"><ele>768</ele><time>2026-03-18T13:53:45Z</time></trkpt>
<trkpt lat="43.0358170000" lon="0.1568470000"><ele>768</ele><time>2026-03-18T13:53:47Z</time></trkpt>
<trkpt lat="43.0358300000" lon="0.1568870000"><ele>768</ele><time>2026-03-18T13:53:49Z</time></trkpt>
<trkpt lat="43.0358400000" lon="0.1569170000"><ele>767</ele><time>2026-03-18T13:53:51Z</time></trkpt>
<trkpt lat="43.0358520000" lon="0.1569420000"><ele>767</ele><time>2026-03-18T13:53:53Z</time></trkpt>
<trkpt lat="43.0358670000" lon="0.1569670000"><ele>767</ele><time>2026-03-18T13:53:55Z</time></trkpt>
<trkpt lat="43.0358750000" lon="0.1569920000"><ele>767</ele><time>2026-03-18T13:53:57Z</time></trkpt>
<trkpt lat="43.0358900000" lon="0.1570270000"><ele>767</ele><time>2026-03-18T13:54:00Z</time></trkpt>
<trkpt lat="43.0359070000" lon="0.1570520000"><ele>767</ele><time>2026-03-18T13:54:02Z</time></trkpt>
<trkpt lat="43.0359170000" lon="0.1570800000"><ele>767</ele><time>2026-03-18T13:54:04Z</time></trkpt>
<trkpt lat="43.0359270000" lon="0.1571100000"><ele>767</ele><time>2026-03-18T13:54:06Z</time></trkpt>
<trkpt lat="43.0359400000" lon="0.1571370000"><ele>767</ele><time>2026-03-18T13:54:08Z</time></trkpt>
<trkpt lat="43.0359470000" lon="0.1571620000"><ele>767</ele><time>2026-03-18T13:54:10Z</time></trkpt>
<trkpt lat="43.0359500000" lon="0.1571920000"><ele>767</ele><time>2026-03-18T13:54:14Z</time></trkpt>
<trkpt lat="43.0359700000" lon="0.1572120000"><ele>767</ele><time>2026-03-18T13:54:16Z</time></trkpt>
<trkpt lat="43.0359870000" lon="0.1572400000"><ele>767</ele><time>2026-03-18T13:54:20Z</time></trkpt>
<trkpt lat="43.0360020000" lon="0.1572620000"><ele>767</ele><time>2026-03-18T13:54:22Z</time></trkpt>
<trkpt lat="43.0360200000" lon="0.1572850000"><ele>767</ele><time>2026-03-18T13:54:24Z</time></trkpt>
<trkpt lat="43.0360320000" lon="0.1573050000"><ele>767</ele><time>2026-03-18T13:54:26Z</time></trkpt>
<trkpt lat="43.0360450000" lon="0.1573300000"><ele>768</ele><time>2026-03-18T13:54:28Z</time></trkpt>
<trkpt lat="43.0360620000" lon="0.1573570000"><ele>768</ele><time>2026-03-18T13:54:31Z</time></trkpt>
<trkpt lat="43.0360750000" lon="0.1573900000"><ele>768</ele><time>2026-03-18T13:54:33Z</time></trkpt>
<trkpt lat="43.0360850000" lon="0.1574270000"><ele>768</ele><time>2026-03-18T13:54:35Z</time></trkpt>
<trkpt lat="43.0360950000" lon="0.1574550000"><ele>769</ele><time>2026-03-18T13:54:37Z</time></trkpt>
<trkpt lat="43.0361050000" lon="0.1574800000"><ele>769</ele><time>2026-03-18T13:54:39Z</time></trkpt>
<trkpt lat="43.0361150000" lon="0.1575150000"><ele>768</ele><time>2026-03-18T13:54:42Z</time></trkpt>
<trkpt lat="43.0361220000" lon="0.1575370000"><ele>768</ele><time>2026-03-18T13:54:44Z</time></trkpt>
<trkpt lat="43.0361320000" lon="0.1575620000"><ele>768</ele><time>2026-03-18T13:54:46Z</time></trkpt>
<trkpt lat="43.0361450000" lon="0.1575870000"><ele>768</ele><time>2026-03-18T13:54:48Z</time></trkpt>
<trkpt lat="43.0361600000" lon="0.1576150000"><ele>768</ele><time>2026-03-18T13:54:50Z</time></trkpt>
<trkpt lat="43.0361720000" lon="0.1576400000"><ele>768</ele><time>2026-03-18T13:54:52Z</time></trkpt>
<trkpt lat="43.0361820000" lon="0.1576620000"><ele>768</ele><time>2026-03-18T13:54:54Z</time></trkpt>
<trkpt lat="43.0361880000" lon="0.1576870000"><ele>768</ele><time>2026-03-18T13:54:56Z</time></trkpt>
<trkpt lat="43.0362050000" lon="0.1577050000"><ele>768</ele><time>2026-03-18T13:54:58Z</time></trkpt>
<trkpt lat="43.0362170000" lon="0.1577270000"><ele>768</ele><time>2026-03-18T13:55:00Z</time></trkpt>
<trkpt lat="43.0362320000" lon="0.1577500000"><ele>768</ele><time>2026-03-18T13:55:02Z</time></trkpt>
<trkpt lat="43.0362520000" lon="0.1577650000"><ele>768</ele><time>2026-03-18T13:55:04Z</time></trkpt>
<trkpt lat="43.0362770000" lon="0.1577770000"><ele>768</ele><time>2026-03-18T13:55:07Z</time></trkpt>
<trkpt lat="43.0363050000" lon="0.1577920000"><ele>768</ele><time>2026-03-18T13:55:11Z</time></trkpt>
<trkpt lat="43.0363220000" lon="0.1578020000"><ele>769</ele><time>2026-03-18T13:55:13Z</time></trkpt>
<trkpt lat="43.0363370000" lon="0.1578220000"><ele>769</ele><time>2026-03-18T13:55:15Z</time></trkpt>
<trkpt lat="43.0363570000" lon="0.1578450000"><ele>769</ele><time>2026-03-18T13:55:18Z</time></trkpt>
<trkpt lat="43.0363800000" lon="0.1578520000"><ele>769</ele><time>2026-03-18T13:55:21Z</time></trkpt>
<trkpt lat="43.0363720000" lon="0.1578770000"><ele>768</ele><time>2026-03-18T13:57:01Z</time></trkpt>
<trkpt lat="43.0363970000" lon="0.1578950000"><ele>768</ele><time>2026-03-18T13:57:05Z</time></trkpt>
<trkpt lat="43.0364170000" lon="0.1579100000"><ele>768</ele><time>2026-03-18T13:57:07Z</time></trkpt>
<trkpt lat="43.0364400000" lon="0.1579170000"><ele>768</ele><time>2026-03-18T13:57:09Z</time></trkpt>
<trkpt lat="43.0364600000" lon="0.1579250000"><ele>768</ele><time>2026-03-18T13:57:11Z</time></trkpt>
<trkpt lat="43.0364870000" lon="0.1579320000"><ele>768</ele><time>2026-03-18T13:57:14Z</time></trkpt>
<trkpt lat="43.0365070000" lon="0.1579370000"><ele>768</ele><time>2026-03-18T13:57:16Z</time></trkpt>
<trkpt lat="43.0365320000" lon="0.1579470000"><ele>768</ele><time>2026-03-18T13:57:19Z</time></trkpt>
<trkpt lat="43.0365500000" lon="0.1579470000"><ele>768</ele><time>2026-03-18T13:57:21Z</time></trkpt>
<trkpt lat="43.0365670000" lon="0.1579450000"><ele>768</ele><time>2026-03-18T13:57:23Z</time></trkpt>
<trkpt lat="43.0365920000" lon="0.1579420000"><ele>768</ele><time>2026-03-18T13:57:26Z</time></trkpt>
<trkpt lat="43.0366170000" lon="0.1579520000"><ele>768</ele><time>2026-03-18T13:58:18Z</time></trkpt>
<trkpt lat="43.0366370000" lon="0.1579570000"><ele>768</ele><time>2026-03-18T13:58:56Z</time></trkpt>
<trkpt lat="43.0366620000" lon="0.1579520000"><ele>768</ele><time>2026-03-18T13:58:58Z</time></trkpt>
<trkpt lat="43.0366950000" lon="0.1579550000"><ele>768</ele><time>2026-03-18T13:59:00Z</time></trkpt>
<trkpt lat="43.0367120000" lon="0.1579520000"><ele>768</ele><time>2026-03-18T13:59:01Z</time></trkpt>
<trkpt lat="43.0367450000" lon="0.1579570000"><ele>768</ele><time>2026-03-18T13:59:03Z</time></trkpt>
<trkpt lat="43.0367700000" lon="0.1579580000"><ele>768</ele><time>2026-03-18T13:59:05Z</time></trkpt>
<trkpt lat="43.0367930000" lon="0.1579570000"><ele>768</ele><time>2026-03-18T13:59:07Z</time></trkpt>
<trkpt lat="43.0368170000" lon="0.1579620000"><ele>768</ele><time>2026-03-18T13:59:09Z</time></trkpt>
<trkpt lat="43.0368400000" lon="0.1579670000"><ele>768</ele><time>2026-03-18T13:59:11Z</time></trkpt>
<trkpt lat="43.0368620000" lon="0.1579770000"><ele>768</ele><time>2026-03-18T13:59:14Z</time></trkpt>
<trkpt lat="43.0368850000" lon="0.1579820000"><ele>768</ele><time>2026-03-18T13:59:16Z</time></trkpt>
<trkpt lat="43.0369050000" lon="0.1579870000"><ele>768</ele><time>2026-03-18T13:59:18Z</time></trkpt>
<trkpt lat="43.0369270000" lon="0.1579920000"><ele>768</ele><time>2026-03-18T13:59:21Z</time></trkpt>
<trkpt lat="43.0369470000" lon="0.1579870000"><ele>767</ele><time>2026-03-18T13:59:23Z</time></trkpt>
<trkpt lat="43.0369670000" lon="0.1579870000"><ele>767</ele><time>2026-03-18T13:59:25Z</time></trkpt>
<trkpt lat="43.0369870000" lon="0.1579930000"><ele>767</ele><time>2026-03-18T13:59:27Z</time></trkpt>
<trkpt lat="43.0370070000" lon="0.1580020000"><ele>767</ele><time>2026-03-18T13:59:29Z</time></trkpt>
<trkpt lat="43.0370270000" lon="0.1580020000"><ele>767</ele><time>2026-03-18T13:59:31Z</time></trkpt>
<trkpt lat="43.0370500000" lon="0.1580120000"><ele>766</ele><time>2026-03-18T13:59:38Z</time></trkpt>
<trkpt lat="43.0370720000" lon="0.1580120000"><ele>766</ele><time>2026-03-18T13:59:40Z</time></trkpt>
<trkpt lat="43.0370970000" lon="0.1580200000"><ele>765</ele><time>2026-03-18T13:59:42Z</time></trkpt>
<trkpt lat="43.0371250000" lon="0.1580270000"><ele>765</ele><time>2026-03-18T13:59:44Z</time></trkpt>
<trkpt lat="43.0371470000" lon="0.1580370000"><ele>764</ele><time>2026-03-18T13:59:47Z</time></trkpt>
<trkpt lat="43.0371700000" lon="0.1580520000"><ele>763</ele><time>2026-03-18T13:59:50Z</time></trkpt>
<trkpt lat="43.0371870000" lon="0.1580650000"><ele>763</ele><time>2026-03-18T13:59:52Z</time></trkpt>
<trkpt lat="43.0372070000" lon="0.1580720000"><ele>762</ele><time>2026-03-18T13:59:55Z</time></trkpt>
<trkpt lat="43.0372270000" lon="0.1580670000"><ele>762</ele><time>2026-03-18T13:59:58Z</time></trkpt>
<trkpt lat="43.0372520000" lon="0.1580700000"><ele>761</ele><time>2026-03-18T14:00:01Z</time></trkpt>
<trkpt lat="43.0372770000" lon="0.1580750000"><ele>760</ele><time>2026-03-18T14:00:04Z</time></trkpt>
<trkpt lat="43.0372920000" lon="0.1580850000"><ele>760</ele><time>2026-03-18T14:00:06Z</time></trkpt>
<trkpt lat="43.0373120000" lon="0.1580970000"><ele>760</ele><time>2026-03-18T14:00:08Z</time></trkpt>
<trkpt lat="43.0373320000" lon="0.1581020000"><ele>759</ele><time>2026-03-18T14:00:10Z</time></trkpt>
<trkpt lat="43.0373550000" lon="0.1580970000"><ele>759</ele><time>2026-03-18T14:00:12Z</time></trkpt>
<trkpt lat="43.0373820000" lon="0.1581020000"><ele>758</ele><time>2026-03-18T14:00:15Z</time></trkpt>
<trkpt lat="43.0374020000" lon="0.1581020000"><ele>758</ele><time>2026-03-18T14:00:17Z</time></trkpt>
<trkpt lat="43.0374270000" lon="0.1581070000"><ele>757</ele><time>2026-03-18T14:00:20Z</time></trkpt>
<trkpt lat="43.0374520000" lon="0.1581170000"><ele>757</ele><time>2026-03-18T14:00:23Z</time></trkpt>
<trkpt lat="43.0374720000" lon="0.1581270000"><ele>757</ele><time>2026-03-18T14:00:26Z</time></trkpt>
<trkpt lat="43.0374950000" lon="0.1581270000"><ele>756</ele><time>2026-03-18T14:00:29Z</time></trkpt>
<trkpt lat="43.0375150000" lon="0.1581280000"><ele>755</ele><time>2026-03-18T14:00:32Z</time></trkpt>
<trkpt lat="43.0375350000" lon="0.1581370000"><ele>755</ele><time>2026-03-18T14:00:35Z</time></trkpt>
<trkpt lat="43.0375520000" lon="0.1581470000"><ele>754</ele><time>2026-03-18T14:00:38Z</time></trkpt>
<trkpt lat="43.0375720000" lon="0.1581520000"><ele>754</ele><time>2026-03-18T14:00:40Z</time></trkpt>
<trkpt lat="43.0375870000" lon="0.1581650000"><ele>753</ele><time>2026-03-18T14:00:42Z</time></trkpt>
<trkpt lat="43.0376050000" lon="0.1581770000"><ele>752</ele><time>2026-03-18T14:00:46Z</time></trkpt>
<trkpt lat="43.0376220000" lon="0.1581970000"><ele>751</ele><time>2026-03-18T14:00:49Z</time></trkpt>
<trkpt lat="43.0376400000" lon="0.1582000000"><ele>751</ele><time>2026-03-18T14:00:51Z</time></trkpt>
<trkpt lat="43.0376720000" lon="0.1581950000"><ele>750</ele><time>2026-03-18T14:00:53Z</time></trkpt>
<trkpt lat="43.0376970000" lon="0.1582020000"><ele>750</ele><time>2026-03-18T14:00:55Z</time></trkpt>
<trkpt lat="43.0377220000" lon="0.1582070000"><ele>749</ele><time>2026-03-18T14:00:57Z</time></trkpt>
<trkpt lat="43.0377500000" lon="0.1582120000"><ele>749</ele><time>2026-03-18T14:00:59Z</time></trkpt>
<trkpt lat="43.0377720000" lon="0.1582120000"><ele>749</ele><time>2026-03-18T14:01:01Z</time></trkpt>
<trkpt lat="43.0377920000" lon="0.1582170000"><ele>748</ele><time>2026-03-18T14:01:03Z</time></trkpt>
<trkpt lat="43.0378120000" lon="0.1582320000"><ele>748</ele><time>2026-03-18T14:01:05Z</time></trkpt>
<trkpt lat="43.0378320000" lon="0.1582380000"><ele>747</ele><time>2026-03-18T14:01:07Z</time></trkpt>
<trkpt lat="43.0378500000" lon="0.1582420000"><ele>747</ele><time>2026-03-18T14:01:09Z</time></trkpt>
<trkpt lat="43.0378720000" lon="0.1582470000"><ele>746</ele><time>2026-03-18T14:01:12Z</time></trkpt>
<trkpt lat="43.0378920000" lon="0.1582370000"><ele>746</ele><time>2026-03-18T14:01:15Z</time></trkpt>
<trkpt lat="43.0379170000" lon="0.1582370000"><ele>745</ele><time>2026-03-18T14:01:18Z</time></trkpt>
<trkpt lat="43.0379400000" lon="0.1582330000"><ele>745</ele><time>2026-03-18T14:01:21Z</time></trkpt>
<trkpt lat="43.0379620000" lon="0.1582320000"><ele>745</ele><time>2026-03-18T14:01:23Z</time></trkpt>
<trkpt lat="43.0379820000" lon="0.1582420000"><ele>744</ele><time>2026-03-18T14:01:25Z</time></trkpt>
<trkpt lat="43.0380020000" lon="0.1582430000"><ele>744</ele><time>2026-03-18T14:01:27Z</time></trkpt>
<trkpt lat="43.0380250000" lon="0.1582370000"><ele>744</ele><time>2026-03-18T14:01:29Z</time></trkpt>
<trkpt lat="43.0380470000" lon="0.1582330000"><ele>743</ele><time>2026-03-18T14:01:31Z</time></trkpt>
<trkpt lat="43.0380650000" lon="0.1582370000"><ele>743</ele><time>2026-03-18T14:01:33Z</time></trkpt>
<trkpt lat="43.0380870000" lon="0.1582370000"><ele>743</ele><time>2026-03-18T14:01:35Z</time></trkpt>
<trkpt lat="43.0381120000" lon="0.1582320000"><ele>743</ele><time>2026-03-18T14:01:37Z</time></trkpt>
<trkpt lat="43.0381320000" lon="0.1582220000"><ele>743</ele><time>2026-03-18T14:01:39Z</time></trkpt>
<trkpt lat="43.0381550000" lon="0.1582100000"><ele>742</ele><time>2026-03-18T14:01:41Z</time></trkpt>
<trkpt lat="43.0381750000" lon="0.1582050000"><ele>742</ele><time>2026-03-18T14:01:43Z</time></trkpt>
<trkpt lat="43.0381950000" lon="0.1582070000"><ele>742</ele><time>2026-03-18T14:01:45Z</time></trkpt>
<trkpt lat="43.0382170000" lon="0.1582070000"><ele>741</ele><time>2026-03-18T14:01:48Z</time></trkpt>
<trkpt lat="43.0382370000" lon="0.1582070000"><ele>740</ele><time>2026-03-18T14:01:50Z</time></trkpt>
<trkpt lat="43.0382570000" lon="0.1581950000"><ele>740</ele><time>2026-03-18T14:01:52Z</time></trkpt>
<trkpt lat="43.0382800000" lon="0.1581920000"><ele>740</ele><time>2026-03-18T14:01:54Z</time></trkpt>
<trkpt lat="43.0383070000" lon="0.1582050000"><ele>739</ele><time>2026-03-18T14:01:57Z</time></trkpt>
<trkpt lat="43.0383300000" lon="0.1582020000"><ele>738</ele><time>2026-03-18T14:01:59Z</time></trkpt>
<trkpt lat="43.0383520000" lon="0.1582050000"><ele>738</ele><time>2026-03-18T14:02:01Z</time></trkpt>
<trkpt lat="43.0383770000" lon="0.1581950000"><ele>738</ele><time>2026-03-18T14:02:03Z</time></trkpt>
<trkpt lat="43.0383970000" lon="0.1581870000"><ele>738</ele><time>2026-03-18T14:02:05Z</time></trkpt>
<trkpt lat="43.0384170000" lon="0.1581770000"><ele>737</ele><time>2026-03-18T14:02:13Z</time></trkpt>
<trkpt lat="43.0384400000" lon="0.1581950000"><ele>737</ele><time>2026-03-18T14:02:17Z</time></trkpt>
<trkpt lat="43.0384550000" lon="0.1582170000"><ele>737</ele><time>2026-03-18T14:02:35Z</time></trkpt>
<trkpt lat="43.0384600000" lon="0.1582430000"><ele>736</ele><time>2026-03-18T14:02:38Z</time></trkpt>
<trkpt lat="43.0384800000" lon="0.1582570000"><ele>735</ele><time>2026-03-18T14:02:53Z</time></trkpt>
<trkpt lat="43.0385000000" lon="0.1582680000"><ele>734</ele><time>2026-03-18T14:02:55Z</time></trkpt>
<trkpt lat="43.0385200000" lon="0.1582820000"><ele>734</ele><time>2026-03-18T14:02:57Z</time></trkpt>
<trkpt lat="43.0385420000" lon="0.1582920000"><ele>734</ele><time>2026-03-18T14:02:59Z</time></trkpt>
<trkpt lat="43.0385620000" lon="0.1583070000"><ele>733</ele><time>2026-03-18T14:03:02Z</time></trkpt>
<trkpt lat="43.0385800000" lon="0.1583220000"><ele>732</ele><time>2026-03-18T14:03:05Z</time></trkpt>
<trkpt lat="43.0385970000" lon="0.1583370000"><ele>732</ele><time>2026-03-18T14:03:07Z</time></trkpt>
<trkpt lat="43.0386150000" lon="0.1583470000"><ele>731</ele><time>2026-03-18T14:03:09Z</time></trkpt>
<trkpt lat="43.0386400000" lon="0.1583520000"><ele>730</ele><time>2026-03-18T14:03:12Z</time></trkpt>
<trkpt lat="43.0386620000" lon="0.1583500000"><ele>730</ele><time>2026-03-18T14:03:15Z</time></trkpt>
<trkpt lat="43.0386870000" lon="0.1583470000"><ele>729</ele><time>2026-03-18T14:03:18Z</time></trkpt>
<trkpt lat="43.0387120000" lon="0.1583520000"><ele>729</ele><time>2026-03-18T14:03:21Z</time></trkpt>
<trkpt lat="43.0387350000" lon="0.1583500000"><ele>728</ele><time>2026-03-18T14:03:23Z</time></trkpt>
<trkpt lat="43.0387630000" lon="0.1583570000"><ele>728</ele><time>2026-03-18T14:03:25Z</time></trkpt>
<trkpt lat="43.0387500000" lon="0.1583950000"><ele>728</ele><time>2026-03-18T14:03:28Z</time></trkpt>
<trkpt lat="43.0387270000" lon="0.1584070000"><ele>727</ele><time>2026-03-18T14:03:31Z</time></trkpt>
<trkpt lat="43.0387020000" lon="0.1584280000"><ele>727</ele><time>2026-03-18T14:03:33Z</time></trkpt>
<trkpt lat="43.0386870000" lon="0.1584450000"><ele>726</ele><time>2026-03-18T14:03:35Z</time></trkpt>
<trkpt lat="43.0386670000" lon="0.1584670000"><ele>726</ele><time>2026-03-18T14:03:38Z</time></trkpt>
<trkpt lat="43.0386570000" lon="0.1584970000"><ele>725</ele><time>2026-03-18T14:03:42Z</time></trkpt>
<trkpt lat="43.0386470000" lon="0.1585230000"><ele>724</ele><time>2026-03-18T14:03:45Z</time></trkpt>
<trkpt lat="43.0386270000" lon="0.1585220000"><ele>722</ele><time>2026-03-18T14:04:13Z</time></trkpt>
<trkpt lat="43.0386070000" lon="0.1585350000"><ele>722</ele><time>2026-03-18T14:04:15Z</time></trkpt>
<trkpt lat="43.0385920000" lon="0.1585520000"><ele>722</ele><time>2026-03-18T14:04:17Z</time></trkpt>
<trkpt lat="43.0385650000" lon="0.1585680000"><ele>722</ele><time>2026-03-18T14:04:19Z</time></trkpt>
<trkpt lat="43.0385420000" lon="0.1585820000"><ele>722</ele><time>2026-03-18T14:04:21Z</time></trkpt>
<trkpt lat="43.0385220000" lon="0.1585920000"><ele>721</ele><time>2026-03-18T14:04:25Z</time></trkpt>
<trkpt lat="43.0385070000" lon="0.1586020000"><ele>721</ele><time>2026-03-18T14:04:28Z</time></trkpt>
<trkpt lat="43.0385270000" lon="0.1586120000"><ele>718</ele><time>2026-03-18T14:04:38Z</time></trkpt>
<trkpt lat="43.0385570000" lon="0.1586200000"><ele>717</ele><time>2026-03-18T14:04:42Z</time></trkpt>
<trkpt lat="43.0385800000" lon="0.1586250000"><ele>716</ele><time>2026-03-18T14:04:45Z</time></trkpt>
<trkpt lat="43.0386000000" lon="0.1586270000"><ele>716</ele><time>2026-03-18T14:04:46Z</time></trkpt>
<trkpt lat="43.0386270000" lon="0.1586350000"><ele>715</ele><time>2026-03-18T14:04:47Z</time></trkpt>
<trkpt lat="43.0386520000" lon="0.1586370000"><ele>715</ele><time>2026-03-18T14:04:48Z</time></trkpt>
<trkpt lat="43.0386750000" lon="0.1586420000"><ele>715</ele><time>2026-03-18T14:04:49Z</time></trkpt>
<trkpt lat="43.0386970000" lon="0.1586470000"><ele>715</ele><time>2026-03-18T14:04:50Z</time></trkpt>
<trkpt lat="43.0387170000" lon="0.1586530000"><ele>715</ele><time>2026-03-18T14:04:51Z</time></trkpt>
<trkpt lat="43.0387520000" lon="0.1586630000"><ele>714</ele><time>2026-03-18T14:04:53Z</time></trkpt>
<trkpt lat="43.0387720000" lon="0.1586750000"><ele>714</ele><time>2026-03-18T14:04:55Z</time></trkpt>
<trkpt lat="43.0387920000" lon="0.1586720000"><ele>713</ele><time>2026-03-18T14:04:58Z</time></trkpt>
<trkpt lat="43.0388150000" lon="0.1586780000"><ele>711</ele><time>2026-03-18T14:05:05Z</time></trkpt>
<trkpt lat="43.0388320000" lon="0.1586920000"><ele>710</ele><time>2026-03-18T14:05:09Z</time></trkpt>
<trkpt lat="43.0388520000" lon="0.1586920000"><ele>710</ele><time>2026-03-18T14:05:12Z</time></trkpt>
<trkpt lat="43.0388800000" lon="0.1586970000"><ele>709</ele><time>2026-03-18T14:05:15Z</time></trkpt>
<trkpt lat="43.0388970000" lon="0.1586870000"><ele>709</ele><time>2026-03-18T14:05:17Z</time></trkpt>
<trkpt lat="43.0389150000" lon="0.1586870000"><ele>708</ele><time>2026-03-18T14:05:21Z</time></trkpt>
<trkpt lat="43.0389170000" lon="0.1587170000"><ele>707</ele><time>2026-03-18T14:05:28Z</time></trkpt>
<trkpt lat="43.0389270000" lon="0.1587500000"><ele>707</ele><time>2026-03-18T14:05:42Z</time></trkpt>
<trkpt lat="43.0389220000" lon="0.1587150000"><ele>707</ele><time>2026-03-18T14:06:33Z</time></trkpt>
<trkpt lat="43.0389420000" lon="0.1587020000"><ele>706</ele><time>2026-03-18T14:06:35Z</time></trkpt>
<trkpt lat="43.0389750000" lon="0.1587120000"><ele>706</ele><time>2026-03-18T14:06:37Z</time></trkpt>
<trkpt lat="43.0389920000" lon="0.1587170000"><ele>705</ele><time>2026-03-18T14:06:39Z</time></trkpt>
<trkpt lat="43.0390120000" lon="0.1587170000"><ele>704</ele><time>2026-03-18T14:06:43Z</time></trkpt>
<trkpt lat="43.0390300000" lon="0.1587400000"><ele>703</ele><time>2026-03-18T14:06:46Z</time></trkpt>
<trkpt lat="43.0390170000" lon="0.1587620000"><ele>703</ele><time>2026-03-18T14:06:48Z</time></trkpt>
<trkpt lat="43.0389970000" lon="0.1587850000"><ele>703</ele><time>2026-03-18T14:06:50Z</time></trkpt>
<trkpt lat="43.0389820000" lon="0.1588150000"><ele>702</ele><time>2026-03-18T14:06:53Z</time></trkpt>
<trkpt lat="43.0389670000" lon="0.1588470000"><ele>701</ele><time>2026-03-18T14:06:56Z</time></trkpt>
<trkpt lat="43.0389620000" lon="0.1588750000"><ele>700</ele><time>2026-03-18T14:06:58Z</time></trkpt>
<trkpt lat="43.0389520000" lon="0.1588970000"><ele>700</ele><time>2026-03-18T14:07:00Z</time></trkpt>
<trkpt lat="43.0389370000" lon="0.1589170000"><ele>699</ele><time>2026-03-18T14:07:02Z</time></trkpt>
<trkpt lat="43.0389220000" lon="0.1589370000"><ele>699</ele><time>2026-03-18T14:07:05Z</time></trkpt>
<trkpt lat="43.0389100000" lon="0.1589570000"><ele>697</ele><time>2026-03-18T14:07:10Z</time></trkpt>
<trkpt lat="43.0388970000" lon="0.1589820000"><ele>697</ele><time>2026-03-18T14:07:14Z</time></trkpt>
<trkpt lat="43.0389050000" lon="0.1590200000"><ele>696</ele><time>2026-03-18T14:07:18Z</time></trkpt>
<trkpt lat="43.0389170000" lon="0.1590470000"><ele>695</ele><time>2026-03-18T14:07:20Z</time></trkpt>
<trkpt lat="43.0389370000" lon="0.1590370000"><ele>693</ele><time>2026-03-18T14:07:27Z</time></trkpt>
<trkpt lat="43.0389600000" lon="0.1590320000"><ele>693</ele><time>2026-03-18T14:07:29Z</time></trkpt>
<trkpt lat="43.0389770000" lon="0.1590320000"><ele>692</ele><time>2026-03-18T14:07:31Z</time></trkpt>
<trkpt lat="43.0389970000" lon="0.1590370000"><ele>692</ele><time>2026-03-18T14:07:33Z</time></trkpt>
<trkpt lat="43.0390200000" lon="0.1590320000"><ele>691</ele><time>2026-03-18T14:07:35Z</time></trkpt>
<trkpt lat="43.0390400000" lon="0.1590300000"><ele>691</ele><time>2026-03-18T14:07:37Z</time></trkpt>
<trkpt lat="43.0390620000" lon="0.1590170000"><ele>691</ele><time>2026-03-18T14:07:39Z</time></trkpt>
<trkpt lat="43.0390800000" lon="0.1590170000"><ele>690</ele><time>2026-03-18T14:07:41Z</time></trkpt>
<trkpt lat="43.0390970000" lon="0.1590200000"><ele>690</ele><time>2026-03-18T14:07:43Z</time></trkpt>
<trkpt lat="43.0391170000" lon="0.1590220000"><ele>688</ele><time>2026-03-18T14:07:53Z</time></trkpt>
<trkpt lat="43.0391350000" lon="0.1590220000"><ele>688</ele><time>2026-03-18T14:07:55Z</time></trkpt>
<trkpt lat="43.0391570000" lon="0.1590170000"><ele>688</ele><time>2026-03-18T14:07:57Z</time></trkpt>
<trkpt lat="43.0391770000" lon="0.1590100000"><ele>688</ele><time>2026-03-18T14:07:59Z</time></trkpt>
<trkpt lat="43.0392020000" lon="0.1590020000"><ele>687</ele><time>2026-03-18T14:08:03Z</time></trkpt>
<trkpt lat="43.0392270000" lon="0.1590000000"><ele>687</ele><time>2026-03-18T14:08:05Z</time></trkpt>
<trkpt lat="43.0392520000" lon="0.1589970000"><ele>686</ele><time>2026-03-18T14:08:07Z</time></trkpt>
<trkpt lat="43.0392700000" lon="0.1589970000"><ele>686</ele><time>2026-03-18T14:08:08Z</time></trkpt>
<trkpt lat="43.0392970000" lon="0.1589870000"><ele>686</ele><time>2026-03-18T14:08:10Z</time></trkpt>
<trkpt lat="43.0393220000" lon="0.1589820000"><ele>685</ele><time>2026-03-18T14:08:12Z</time></trkpt>
<trkpt lat="43.0393420000" lon="0.1589820000"><ele>685</ele><time>2026-03-18T14:08:14Z</time></trkpt>
<trkpt lat="43.0393650000" lon="0.1589800000"><ele>685</ele><time>2026-03-18T14:08:16Z</time></trkpt>
<trkpt lat="43.0393870000" lon="0.1589800000"><ele>684</ele><time>2026-03-18T14:08:18Z</time></trkpt>
<trkpt lat="43.0394070000" lon="0.1589750000"><ele>684</ele><time>2026-03-18T14:08:20Z</time></trkpt>
<trkpt lat="43.0394270000" lon="0.1589670000"><ele>683</ele><time>2026-03-18T14:08:22Z</time></trkpt>
<trkpt lat="43.0394420000" lon="0.1589520000"><ele>683</ele><time>2026-03-18T14:08:24Z</time></trkpt>
<trkpt lat="43.0394650000" lon="0.1589270000"><ele>682</ele><time>2026-03-18T14:08:27Z</time></trkpt>
<trkpt lat="43.0394770000" lon="0.1589070000"><ele>682</ele><time>2026-03-18T14:08:29Z</time></trkpt>
<trkpt lat="43.0395070000" lon="0.1589000000"><ele>681</ele><time>2026-03-18T14:08:31Z</time></trkpt>
<trkpt lat="43.0395300000" lon="0.1588900000"><ele>681</ele><time>2026-03-18T14:08:33Z</time></trkpt>
<trkpt lat="43.0395470000" lon="0.1588720000"><ele>680</ele><time>2026-03-18T14:08:37Z</time></trkpt>
<trkpt lat="43.0395670000" lon="0.1588600000"><ele>679</ele><time>2026-03-18T14:08:39Z</time></trkpt>
<trkpt lat="43.0395850000" lon="0.1588470000"><ele>679</ele><time>2026-03-18T14:08:41Z</time></trkpt>
<trkpt lat="43.0396100000" lon="0.1588320000"><ele>678</ele><time>2026-03-18T14:08:44Z</time></trkpt>
<trkpt lat="43.0396300000" lon="0.1588170000"><ele>678</ele><time>2026-03-18T14:08:46Z</time></trkpt>
<trkpt lat="43.0396570000" lon="0.1588170000"><ele>677</ele><time>2026-03-18T14:08:49Z</time></trkpt>
<trkpt lat="43.0396820000" lon="0.1588170000"><ele>677</ele><time>2026-03-18T14:08:51Z</time></trkpt>
<trkpt lat="43.0397020000" lon="0.1588150000"><ele>676</ele><time>2026-03-18T14:08:53Z</time></trkpt>
<trkpt lat="43.0397200000" lon="0.1588100000"><ele>676</ele><time>2026-03-18T14:08:55Z</time></trkpt>
<trkpt lat="43.0397400000" lon="0.1587880000"><ele>675</ele><time>2026-03-18T14:08:58Z</time></trkpt>
<trkpt lat="43.0397620000" lon="0.1587750000"><ele>674</ele><time>2026-03-18T14:09:00Z</time></trkpt>
<trkpt lat="43.0397770000" lon="0.1587570000"><ele>674</ele><time>2026-03-18T14:09:02Z</time></trkpt>
<trkpt lat="43.0398020000" lon="0.1587550000"><ele>674</ele><time>2026-03-18T14:09:04Z</time></trkpt>
<trkpt lat="43.0398270000" lon="0.1587470000"><ele>674</ele><time>2026-03-18T14:09:06Z</time></trkpt>
<trkpt lat="43.0398450000" lon="0.1587450000"><ele>673</ele><time>2026-03-18T14:09:09Z</time></trkpt>
<trkpt lat="43.0398650000" lon="0.1587420000"><ele>672</ele><time>2026-03-18T14:09:12Z</time></trkpt>
<trkpt lat="43.0398800000" lon="0.1587250000"><ele>672</ele><time>2026-03-18T14:09:15Z</time></trkpt>
<trkpt lat="43.0399020000" lon="0.1587220000"><ele>671</ele><time>2026-03-18T14:09:18Z</time></trkpt>
<trkpt lat="43.0399250000" lon="0.1587170000"><ele>670</ele><time>2026-03-18T14:09:20Z</time></trkpt>
<trkpt lat="43.0399420000" lon="0.1587020000"><ele>670</ele><time>2026-03-18T14:09:22Z</time></trkpt>
<trkpt lat="43.0399700000" lon="0.1586920000"><ele>669</ele><time>2026-03-18T14:09:24Z</time></trkpt>
<trkpt lat="43.0399920000" lon="0.1586820000"><ele>669</ele><time>2026-03-18T14:09:26Z</time></trkpt>
<trkpt lat="43.0400170000" lon="0.1586780000"><ele>668</ele><time>2026-03-18T14:09:29Z</time></trkpt>
<trkpt lat="43.0400400000" lon="0.1586720000"><ele>668</ele><time>2026-03-18T14:09:31Z</time></trkpt>
<trkpt lat="43.0400620000" lon="0.1586620000"><ele>667</ele><time>2026-03-18T14:09:34Z</time></trkpt>
<trkpt lat="43.0400920000" lon="0.1586530000"><ele>667</ele><time>2026-03-18T14:09:37Z</time></trkpt>
<trkpt lat="43.0401150000" lon="0.1586520000"><ele>666</ele><time>2026-03-18T14:09:39Z</time></trkpt>
<trkpt lat="43.0401400000" lon="0.1586470000"><ele>665</ele><time>2026-03-18T14:09:42Z</time></trkpt>
<trkpt lat="43.0401570000" lon="0.1586350000"><ele>665</ele><time>2026-03-18T14:09:44Z</time></trkpt>
<trkpt lat="43.0401720000" lon="0.1586120000"><ele>665</ele><time>2026-03-18T14:09:46Z</time></trkpt>
<trkpt lat="43.0401870000" lon="0.1585920000"><ele>664</ele><time>2026-03-18T14:09:49Z</time></trkpt>
<trkpt lat="43.0402050000" lon="0.1585850000"><ele>663</ele><time>2026-03-18T14:09:52Z</time></trkpt>
<trkpt lat="43.0402220000" lon="0.1585770000"><ele>663</ele><time>2026-03-18T14:09:54Z</time></trkpt>
<trkpt lat="43.0402470000" lon="0.1585720000"><ele>663</ele><time>2026-03-18T14:09:56Z</time></trkpt>
<trkpt lat="43.0402670000" lon="0.1585680000"><ele>662</ele><time>2026-03-18T14:09:58Z</time></trkpt>
<trkpt lat="43.0402870000" lon="0.1585570000"><ele>662</ele><time>2026-03-18T14:10:00Z</time></trkpt>
<trkpt lat="43.0403100000" lon="0.1585420000"><ele>661</ele><time>2026-03-18T14:10:03Z</time></trkpt>
<trkpt lat="43.0403320000" lon="0.1585370000"><ele>660</ele><time>2026-03-18T14:10:06Z</time></trkpt>
<trkpt lat="43.0403500000" lon="0.1585370000"><ele>660</ele><time>2026-03-18T14:10:08Z</time></trkpt>
<trkpt lat="43.0403620000" lon="0.1585180000"><ele>660</ele><time>2026-03-18T14:10:10Z</time></trkpt>
<trkpt lat="43.0403770000" lon="0.1584970000"><ele>660</ele><time>2026-03-18T14:10:13Z</time></trkpt>
<trkpt lat="43.0404000000" lon="0.1584820000"><ele>659</ele><time>2026-03-18T14:10:15Z</time></trkpt>
<trkpt lat="43.0404270000" lon="0.1584620000"><ele>659</ele><time>2026-03-18T14:10:17Z</time></trkpt>
<trkpt lat="43.0404550000" lon="0.1584500000"><ele>659</ele><time>2026-03-18T14:10:19Z</time></trkpt>
<trkpt lat="43.0404770000" lon="0.1584470000"><ele>659</ele><time>2026-03-18T14:10:21Z</time></trkpt>
<trkpt lat="43.0405000000" lon="0.1584470000"><ele>658</ele><time>2026-03-18T14:10:23Z</time></trkpt>
<trkpt lat="43.0405170000" lon="0.1584350000"><ele>658</ele><time>2026-03-18T14:10:29Z</time></trkpt>
<trkpt lat="43.0405350000" lon="0.1584170000"><ele>657</ele><time>2026-03-18T14:10:31Z</time></trkpt>
<trkpt lat="43.0405570000" lon="0.1583780000"><ele>657</ele><time>2026-03-18T14:10:33Z</time></trkpt>
<trkpt lat="43.0405770000" lon="0.1583620000"><ele>656</ele><time>2026-03-18T14:10:35Z</time></trkpt>
<trkpt lat="43.0405870000" lon="0.1583420000"><ele>656</ele><time>2026-03-18T14:10:37Z</time></trkpt>
<trkpt lat="43.0406070000" lon="0.1583170000"><ele>655</ele><time>2026-03-18T14:10:39Z</time></trkpt>
<trkpt lat="43.0406220000" lon="0.1583070000"><ele>655</ele><time>2026-03-18T14:10:41Z</time></trkpt>
<trkpt lat="43.0406470000" lon="0.1583020000"><ele>655</ele><time>2026-03-18T14:10:43Z</time></trkpt>
<trkpt lat="43.0406770000" lon="0.1582970000"><ele>654</ele><time>2026-03-18T14:10:45Z</time></trkpt>
<trkpt lat="43.0406970000" lon="0.1582720000"><ele>654</ele><time>2026-03-18T14:10:47Z</time></trkpt>
<trkpt lat="43.0407120000" lon="0.1582420000"><ele>653</ele><time>2026-03-18T14:10:50Z</time></trkpt>
<trkpt lat="43.0407450000" lon="0.1582270000"><ele>652</ele><time>2026-03-18T14:10:53Z</time></trkpt>
<trkpt lat="43.0407720000" lon="0.1582330000"><ele>652</ele><time>2026-03-18T14:10:55Z</time></trkpt>
<trkpt lat="43.0407920000" lon="0.1582420000"><ele>652</ele><time>2026-03-18T14:10:57Z</time></trkpt>
<trkpt lat="43.0408180000" lon="0.1582470000"><ele>651</ele><time>2026-03-18T14:10:59Z</time></trkpt>
<trkpt lat="43.0408420000" lon="0.1582370000"><ele>651</ele><time>2026-03-18T14:11:02Z</time></trkpt>
<trkpt lat="43.0408570000" lon="0.1582170000"><ele>650</ele><time>2026-03-18T14:11:04Z</time></trkpt>
<trkpt lat="43.0408800000" lon="0.1582200000"><ele>650</ele><time>2026-03-18T14:11:06Z</time></trkpt>
<trkpt lat="43.0409020000" lon="0.1582250000"><ele>650</ele><time>2026-03-18T14:11:08Z</time></trkpt>
<trkpt lat="43.0409220000" lon="0.1582250000"><ele>649</ele><time>2026-03-18T14:11:10Z</time></trkpt>
<trkpt lat="43.0409450000" lon="0.1582220000"><ele>649</ele><time>2026-03-18T14:11:12Z</time></trkpt>
<trkpt lat="43.0409670000" lon="0.1582200000"><ele>649</ele><time>2026-03-18T14:11:14Z</time></trkpt>
<trkpt lat="43.0409850000" lon="0.1582170000"><ele>648</ele><time>2026-03-18T14:11:16Z</time></trkpt>
<trkpt lat="43.0410100000" lon="0.1582200000"><ele>648</ele><time>2026-03-18T14:11:18Z</time></trkpt>
<trkpt lat="43.0410270000" lon="0.1582270000"><ele>647</ele><time>2026-03-18T14:11:20Z</time></trkpt>
<trkpt lat="43.0410500000" lon="0.1582270000"><ele>647</ele><time>2026-03-18T14:11:22Z</time></trkpt>
<trkpt lat="43.0410720000" lon="0.1582220000"><ele>647</ele><time>2026-03-18T14:11:24Z</time></trkpt>
<trkpt lat="43.0410900000" lon="0.1582070000"><ele>646</ele><time>2026-03-18T14:11:26Z</time></trkpt>
<trkpt lat="43.0411100000" lon="0.1582020000"><ele>646</ele><time>2026-03-18T14:11:28Z</time></trkpt>
<trkpt lat="43.0411320000" lon="0.1582050000"><ele>646</ele><time>2026-03-18T14:11:31Z</time></trkpt>
<trkpt lat="43.0411500000" lon="0.1582070000"><ele>645</ele><time>2026-03-18T14:11:33Z</time></trkpt>
<trkpt lat="43.0411700000" lon="0.1582150000"><ele>645</ele><time>2026-03-18T14:11:35Z</time></trkpt>
<trkpt lat="43.0411970000" lon="0.1582150000"><ele>644</ele><time>2026-03-18T14:11:38Z</time></trkpt>
<trkpt lat="43.0412170000" lon="0.1582120000"><ele>643</ele><time>2026-03-18T14:11:41Z</time></trkpt>
<trkpt lat="43.0412400000" lon="0.1582020000"><ele>643</ele><time>2026-03-18T14:11:43Z</time></trkpt>
<trkpt lat="43.0412570000" lon="0.1581970000"><ele>643</ele><time>2026-03-18T14:11:45Z</time></trkpt>
<trkpt lat="43.0412770000" lon="0.1581920000"><ele>642</ele><time>2026-03-18T14:11:47Z</time></trkpt>
<trkpt lat="43.0413000000" lon="0.1581850000"><ele>642</ele><time>2026-03-18T14:11:49Z</time></trkpt>
<trkpt lat="43.0413220000" lon="0.1581620000"><ele>642</ele><time>2026-03-18T14:11:51Z</time></trkpt>
<trkpt lat="43.0413420000" lon="0.1581470000"><ele>641</ele><time>2026-03-18T14:11:53Z</time></trkpt>
<trkpt lat="43.0413650000" lon="0.1581270000"><ele>641</ele><time>2026-03-18T14:11:56Z</time></trkpt>
<trkpt lat="43.0413900000" lon="0.1581220000"><ele>640</ele><time>2026-03-18T14:11:58Z</time></trkpt>
<trkpt lat="43.0414120000" lon="0.1581270000"><ele>640</ele><time>2026-03-18T14:12:00Z</time></trkpt>
<trkpt lat="43.0414350000" lon="0.1581350000"><ele>640</ele><time>2026-03-18T14:12:02Z</time></trkpt>
<trkpt lat="43.0414570000" lon="0.1581420000"><ele>639</ele><time>2026-03-18T14:12:04Z</time></trkpt>
<trkpt lat="43.0414770000" lon="0.1581450000"><ele>639</ele><time>2026-03-18T14:12:06Z</time></trkpt>
<trkpt lat="43.0414970000" lon="0.1581450000"><ele>639</ele><time>2026-03-18T14:12:08Z</time></trkpt>
<trkpt lat="43.0415250000" lon="0.1581470000"><ele>638</ele><time>2026-03-18T14:12:11Z</time></trkpt>
<trkpt lat="43.0415450000" lon="0.1581320000"><ele>637</ele><time>2026-03-18T14:12:16Z</time></trkpt>
<trkpt lat="43.0415620000" lon="0.1581270000"><ele>637</ele><time>2026-03-18T14:12:18Z</time></trkpt>
<trkpt lat="43.0415920000" lon="0.1581220000"><ele>635</ele><time>2026-03-18T14:12:31Z</time></trkpt>
<trkpt lat="43.0416200000" lon="0.1581170000"><ele>635</ele><time>2026-03-18T14:12:33Z</time></trkpt>
<trkpt lat="43.0416470000" lon="0.1581120000"><ele>635</ele><time>2026-03-18T14:12:35Z</time></trkpt>
<trkpt lat="43.0416670000" lon="0.1581030000"><ele>635</ele><time>2026-03-18T14:12:37Z</time></trkpt>
<trkpt lat="43.0416870000" lon="0.1581020000"><ele>634</ele><time>2026-03-18T14:12:40Z</time></trkpt>
<trkpt lat="43.0417150000" lon="0.1580950000"><ele>633</ele><time>2026-03-18T14:12:43Z</time></trkpt>
<trkpt lat="43.0417170000" lon="0.1581270000"><ele>632</ele><time>2026-03-18T14:12:52Z</time></trkpt>
<trkpt lat="43.0417020000" lon="0.1581520000"><ele>632</ele><time>2026-03-18T14:12:55Z</time></trkpt>
<trkpt lat="43.0416920000" lon="0.1581770000"><ele>632</ele><time>2026-03-18T14:12:57Z</time></trkpt>
<trkpt lat="43.0416770000" lon="0.1582070000"><ele>632</ele><time>2026-03-18T14:12:59Z</time></trkpt>
<trkpt lat="43.0416650000" lon="0.1582270000"><ele>632</ele><time>2026-03-18T14:13:01Z</time></trkpt>
<trkpt lat="43.0416520000" lon="0.1582500000"><ele>632</ele><time>2026-03-18T14:13:03Z</time></trkpt>
<trkpt lat="43.0416370000" lon="0.1582770000"><ele>631</ele><time>2026-03-18T14:13:06Z</time></trkpt>
<trkpt lat="43.0416200000" lon="0.1583050000"><ele>631</ele><time>2026-03-18T14:13:09Z</time></trkpt>
<trkpt lat="43.0416070000" lon="0.1583250000"><ele>631</ele><time>2026-03-18T14:13:11Z</time></trkpt>
<trkpt lat="43.0415920000" lon="0.1583450000"><ele>631</ele><time>2026-03-18T14:13:13Z</time></trkpt>
<trkpt lat="43.0415750000" lon="0.1583650000"><ele>630</ele><time>2026-03-18T14:13:16Z</time></trkpt>
<trkpt lat="43.0415700000" lon="0.1583900000"><ele>630</ele><time>2026-03-18T14:13:20Z</time></trkpt>
<trkpt lat="43.0415550000" lon="0.1584070000"><ele>627</ele><time>2026-03-18T14:15:53Z</time></trkpt>
<trkpt lat="43.0415370000" lon="0.1584220000"><ele>627</ele><time>2026-03-18T14:15:56Z</time></trkpt>
<trkpt lat="43.0415120000" lon="0.1584320000"><ele>627</ele><time>2026-03-18T14:15:59Z</time></trkpt>
<trkpt lat="43.0415400000" lon="0.1584400000"><ele>626</ele><time>2026-03-18T14:16:07Z</time></trkpt>
<trkpt lat="43.0415700000" lon="0.1584280000"><ele>626</ele><time>2026-03-18T14:16:09Z</time></trkpt>
<trkpt lat="43.0415950000" lon="0.1584220000"><ele>625</ele><time>2026-03-18T14:16:11Z</time></trkpt>
<trkpt lat="43.0416170000" lon="0.1584170000"><ele>625</ele><time>2026-03-18T14:16:13Z</time></trkpt>
<trkpt lat="43.0416370000" lon="0.1584120000"><ele>625</ele><time>2026-03-18T14:16:15Z</time></trkpt>
<trkpt lat="43.0416620000" lon="0.1584000000"><ele>625</ele><time>2026-03-18T14:16:17Z</time></trkpt>
<trkpt lat="43.0416820000" lon="0.1583920000"><ele>625</ele><time>2026-03-18T14:16:19Z</time></trkpt>
<trkpt lat="43.0417020000" lon="0.1583820000"><ele>624</ele><time>2026-03-18T14:16:21Z</time></trkpt>
<trkpt lat="43.0417220000" lon="0.1583720000"><ele>624</ele><time>2026-03-18T14:16:23Z</time></trkpt>
<trkpt lat="43.0417500000" lon="0.1583600000"><ele>624</ele><time>2026-03-18T14:16:25Z</time></trkpt>
<trkpt lat="43.0417720000" lon="0.1583450000"><ele>624</ele><time>2026-03-18T14:16:27Z</time></trkpt>
<trkpt lat="43.0417920000" lon="0.1583320000"><ele>624</ele><time>2026-03-18T14:16:29Z</time></trkpt>
<trkpt lat="43.0418150000" lon="0.1583200000"><ele>623</ele><time>2026-03-18T14:16:31Z</time></trkpt>
<trkpt lat="43.0418370000" lon="0.1583070000"><ele>623</ele><time>2026-03-18T14:16:33Z</time></trkpt>
<trkpt lat="43.0418600000" lon="0.1582850000"><ele>623</ele><time>2026-03-18T14:16:36Z</time></trkpt>
<trkpt lat="43.0418800000" lon="0.1582620000"><ele>623</ele><time>2026-03-18T14:16:38Z</time></trkpt>
<trkpt lat="43.0418950000" lon="0.1582370000"><ele>622</ele><time>2026-03-18T14:16:40Z</time></trkpt>
<trkpt lat="43.0419100000" lon="0.1582200000"><ele>622</ele><time>2026-03-18T14:17:02Z</time></trkpt>
<trkpt lat="43.0419320000" lon="0.1581850000"><ele>621</ele><time>2026-03-18T14:17:04Z</time></trkpt>
<trkpt lat="43.0419520000" lon="0.1581520000"><ele>621</ele><time>2026-03-18T14:17:06Z</time></trkpt>
<trkpt lat="43.0419720000" lon="0.1581220000"><ele>622</ele><time>2026-03-18T14:17:08Z</time></trkpt>
<trkpt lat="43.0419850000" lon="0.1580870000"><ele>622</ele><time>2026-03-18T14:17:10Z</time></trkpt>
<trkpt lat="43.0419950000" lon="0.1580620000"><ele>622</ele><time>2026-03-18T14:17:12Z</time></trkpt>
<trkpt lat="43.0420000000" lon="0.1580320000"><ele>622</ele><time>2026-03-18T14:17:14Z</time></trkpt>
<trkpt lat="43.0420070000" lon="0.1580020000"><ele>622</ele><time>2026-03-18T14:17:16Z</time></trkpt>
<trkpt lat="43.0420270000" lon="0.1579800000"><ele>622</ele><time>2026-03-18T14:17:18Z</time></trkpt>
<trkpt lat="43.0420370000" lon="0.1579470000"><ele>622</ele><time>2026-03-18T14:17:21Z</time></trkpt>
<trkpt lat="43.0420550000" lon="0.1579120000"><ele>622</ele><time>2026-03-18T14:17:24Z</time></trkpt>
<trkpt lat="43.0420700000" lon="0.1578970000"><ele>622</ele><time>2026-03-18T14:17:26Z</time></trkpt>
<trkpt lat="43.0420920000" lon="0.1578870000"><ele>622</ele><time>2026-03-18T14:17:28Z</time></trkpt>
<trkpt lat="43.0421170000" lon="0.1578850000"><ele>622</ele><time>2026-03-18T14:17:31Z</time></trkpt>
<trkpt lat="43.0421450000" lon="0.1578870000"><ele>622</ele><time>2026-03-18T14:17:33Z</time></trkpt>
<trkpt lat="43.0421650000" lon="0.1578920000"><ele>623</ele><time>2026-03-18T14:17:35Z</time></trkpt>
<trkpt lat="43.0421870000" lon="0.1578870000"><ele>623</ele><time>2026-03-18T14:17:38Z</time></trkpt>
<trkpt lat="43.0422070000" lon="0.1578730000"><ele>623</ele><time>2026-03-18T14:17:41Z</time></trkpt>
<trkpt lat="43.0422300000" lon="0.1578720000"><ele>623</ele><time>2026-03-18T14:17:43Z</time></trkpt>
<trkpt lat="43.0422520000" lon="0.1578670000"><ele>623</ele><time>2026-03-18T14:17:45Z</time></trkpt>
<trkpt lat="43.0422720000" lon="0.1578520000"><ele>624</ele><time>2026-03-18T14:17:47Z</time></trkpt>
<trkpt lat="43.0422920000" lon="0.1578350000"><ele>624</ele><time>2026-03-18T14:17:49Z</time></trkpt>
<trkpt lat="43.0423150000" lon="0.1578150000"><ele>624</ele><time>2026-03-18T14:17:51Z</time></trkpt>
<trkpt lat="43.0423300000" lon="0.1577950000"><ele>624</ele><time>2026-03-18T14:17:52Z</time></trkpt>
<trkpt lat="43.0423400000" lon="0.1577470000"><ele>624</ele><time>2026-03-18T14:17:53Z</time></trkpt>
<trkpt lat="43.0423570000" lon="0.1577220000"><ele>624</ele><time>2026-03-18T14:17:55Z</time></trkpt>
<trkpt lat="43.0423770000" lon="0.1577270000"><ele>624</ele><time>2026-03-18T14:17:57Z</time></trkpt>
<trkpt lat="43.0424020000" lon="0.1577330000"><ele>624</ele><time>2026-03-18T14:18:00Z</time></trkpt>
<trkpt lat="43.0424220000" lon="0.1577330000"><ele>625</ele><time>2026-03-18T14:18:02Z</time></trkpt>
<trkpt lat="43.0424520000" lon="0.1577420000"><ele>625</ele><time>2026-03-18T14:18:04Z</time></trkpt>
<trkpt lat="43.0424820000" lon="0.1577320000"><ele>625</ele><time>2026-03-18T14:18:06Z</time></trkpt>
<trkpt lat="43.0425000000" lon="0.1577170000"><ele>625</ele><time>2026-03-18T14:18:09Z</time></trkpt>
<trkpt lat="43.0425170000" lon="0.1577270000"><ele>625</ele><time>2026-03-18T14:18:12Z</time></trkpt>
<trkpt lat="43.0425350000" lon="0.1577330000"><ele>625</ele><time>2026-03-18T14:18:14Z</time></trkpt>
<trkpt lat="43.0425570000" lon="0.1577320000"><ele>626</ele><time>2026-03-18T14:18:16Z</time></trkpt>
<trkpt lat="43.0425820000" lon="0.1577220000"><ele>626</ele><time>2026-03-18T14:18:18Z</time></trkpt>
<trkpt lat="43.0425970000" lon="0.1577120000"><ele>626</ele><time>2026-03-18T14:18:20Z</time></trkpt>
<trkpt lat="43.0426170000" lon="0.1577020000"><ele>626</ele><time>2026-03-18T14:18:22Z</time></trkpt>
<trkpt lat="43.0426370000" lon="0.1577070000"><ele>627</ele><time>2026-03-18T14:18:24Z</time></trkpt>
<trkpt lat="43.0426650000" lon="0.1577120000"><ele>627</ele><time>2026-03-18T14:18:27Z</time></trkpt>
<trkpt lat="43.0426870000" lon="0.1577220000"><ele>628</ele><time>2026-03-18T14:18:30Z</time></trkpt>
<trkpt lat="43.0427120000" lon="0.1577320000"><ele>628</ele><time>2026-03-18T14:18:33Z</time></trkpt>
<trkpt lat="43.0427270000" lon="0.1577470000"><ele>628</ele><time>2026-03-18T14:18:35Z</time></trkpt>
<trkpt lat="43.0427470000" lon="0.1577570000"><ele>629</ele><time>2026-03-18T14:18:38Z</time></trkpt>
<trkpt lat="43.0427650000" lon="0.1577670000"><ele>629</ele><time>2026-03-18T14:18:40Z</time></trkpt>
<trkpt lat="43.0427920000" lon="0.1577750000"><ele>629</ele><time>2026-03-18T14:18:42Z</time></trkpt>
<trkpt lat="43.0428150000" lon="0.1577770000"><ele>629</ele><time>2026-03-18T14:18:44Z</time></trkpt>
<trkpt lat="43.0428450000" lon="0.1577620000"><ele>629</ele><time>2026-03-18T14:18:46Z</time></trkpt>
<trkpt lat="43.0428650000" lon="0.1577470000"><ele>630</ele><time>2026-03-18T14:18:48Z</time></trkpt>
<trkpt lat="43.0428900000" lon="0.1577600000"><ele>630</ele><time>2026-03-18T14:18:52Z</time></trkpt>
<trkpt lat="43.0429150000" lon="0.1577550000"><ele>630</ele><time>2026-03-18T14:18:54Z</time></trkpt>
<trkpt lat="43.0429370000" lon="0.1577570000"><ele>631</ele><time>2026-03-18T14:18:56Z</time></trkpt>
<trkpt lat="43.0429620000" lon="0.1577370000"><ele>631</ele><time>2026-03-18T14:18:58Z</time></trkpt>
<trkpt lat="43.0429770000" lon="0.1577220000"><ele>631</ele><time>2026-03-18T14:18:59Z</time></trkpt>
<trkpt lat="43.0429920000" lon="0.1577070000"><ele>631</ele><time>2026-03-18T14:19:01Z</time></trkpt>
<trkpt lat="43.0430120000" lon="0.1576970000"><ele>631</ele><time>2026-03-18T14:19:03Z</time></trkpt>
<trkpt lat="43.0430320000" lon="0.1576880000"><ele>632</ele><time>2026-03-18T14:19:06Z</time></trkpt>
<trkpt lat="43.0430500000" lon="0.1577020000"><ele>632</ele><time>2026-03-18T14:19:15Z</time></trkpt>
<trkpt lat="43.0430700000" lon="0.1577070000"><ele>633</ele><time>2026-03-18T14:19:33Z</time></trkpt>
<trkpt lat="43.0430970000" lon="0.1577000000"><ele>633</ele><time>2026-03-18T14:19:35Z</time></trkpt>
<trkpt lat="43.0431070000" lon="0.1576720000"><ele>633</ele><time>2026-03-18T14:19:38Z</time></trkpt>
<trkpt lat="43.0431200000" lon="0.1576500000"><ele>633</ele><time>2026-03-18T14:19:40Z</time></trkpt>
<trkpt lat="43.0431350000" lon="0.1576300000"><ele>633</ele><time>2026-03-18T14:19:42Z</time></trkpt>
<trkpt lat="43.0431520000" lon="0.1576120000"><ele>633</ele><time>2026-03-18T14:19:44Z</time></trkpt>
<trkpt lat="43.0431720000" lon="0.1575870000"><ele>633</ele><time>2026-03-18T14:19:46Z</time></trkpt>
<trkpt lat="43.0431870000" lon="0.1575720000"><ele>633</ele><time>2026-03-18T14:19:48Z</time></trkpt>
<trkpt lat="43.0431950000" lon="0.1575470000"><ele>633</ele><time>2026-03-18T14:19:52Z</time></trkpt>
<trkpt lat="43.0432150000" lon="0.1575370000"><ele>633</ele><time>2026-03-18T14:19:55Z</time></trkpt>
<trkpt lat="43.0432350000" lon="0.1575170000"><ele>633</ele><time>2026-03-18T14:19:58Z</time></trkpt>
<trkpt lat="43.0432500000" lon="0.1574970000"><ele>633</ele><time>2026-03-18T14:20:01Z</time></trkpt>
<trkpt lat="43.0432620000" lon="0.1574770000"><ele>633</ele><time>2026-03-18T14:20:03Z</time></trkpt>
<trkpt lat="43.0432770000" lon="0.1574570000"><ele>633</ele><time>2026-03-18T14:20:05Z</time></trkpt>
<trkpt lat="43.0432970000" lon="0.1574370000"><ele>633</ele><time>2026-03-18T14:20:08Z</time></trkpt>
<trkpt lat="43.0433170000" lon="0.1574070000"><ele>633</ele><time>2026-03-18T14:20:10Z</time></trkpt>
<trkpt lat="43.0433370000" lon="0.1573870000"><ele>633</ele><time>2026-03-18T14:20:12Z</time></trkpt>
<trkpt lat="43.0433550000" lon="0.1573700000"><ele>633</ele><time>2026-03-18T14:20:14Z</time></trkpt>
<trkpt lat="43.0433720000" lon="0.1573520000"><ele>633</ele><time>2026-03-18T14:20:16Z</time></trkpt>
<trkpt lat="43.0433970000" lon="0.1573320000"><ele>634</ele><time>2026-03-18T14:20:18Z</time></trkpt>
<trkpt lat="43.0434150000" lon="0.1573170000"><ele>634</ele><time>2026-03-18T14:20:20Z</time></trkpt>
<trkpt lat="43.0434270000" lon="0.1572970000"><ele>634</ele><time>2026-03-18T14:20:21Z</time></trkpt>
<trkpt lat="43.0434400000" lon="0.1572770000"><ele>634</ele><time>2026-03-18T14:20:22Z</time></trkpt>
<trkpt lat="43.0434570000" lon="0.1572550000"><ele>634</ele><time>2026-03-18T14:20:24Z</time></trkpt>
<trkpt lat="43.0434720000" lon="0.1572370000"><ele>634</ele><time>2026-03-18T14:20:25Z</time></trkpt>
<trkpt lat="43.0434870000" lon="0.1572150000"><ele>634</ele><time>2026-03-18T14:20:27Z</time></trkpt>
<trkpt lat="43.0435170000" lon="0.1571920000"><ele>634</ele><time>2026-03-18T14:20:29Z</time></trkpt>
<trkpt lat="43.0435370000" lon="0.1571720000"><ele>634</ele><time>2026-03-18T14:20:31Z</time></trkpt>
<trkpt lat="43.0435570000" lon="0.1571570000"><ele>634</ele><time>2026-03-18T14:20:35Z</time></trkpt>
<trkpt lat="43.0435800000" lon="0.1571420000"><ele>634</ele><time>2026-03-18T14:20:38Z</time></trkpt>
<trkpt lat="43.0436020000" lon="0.1571270000"><ele>634</ele><time>2026-03-18T14:20:40Z</time></trkpt>
<trkpt lat="43.0436180000" lon="0.1570970000"><ele>634</ele><time>2026-03-18T14:20:41Z</time></trkpt>
<trkpt lat="43.0436470000" lon="0.1570620000"><ele>634</ele><time>2026-03-18T14:20:43Z</time></trkpt>
<trkpt lat="43.0436650000" lon="0.1570470000"><ele>634</ele><time>2026-03-18T14:20:44Z</time></trkpt>
<trkpt lat="43.0437000000" lon="0.1570400000"><ele>635</ele><time>2026-03-18T14:20:45Z</time></trkpt>
<trkpt lat="43.0437200000" lon="0.1570320000"><ele>635</ele><time>2026-03-18T14:20:46Z</time></trkpt>
<trkpt lat="43.0437270000" lon="0.1570020000"><ele>635</ele><time>2026-03-18T14:20:49Z</time></trkpt>
<trkpt lat="43.0437450000" lon="0.1569820000"><ele>635</ele><time>2026-03-18T14:20:51Z</time></trkpt>
<trkpt lat="43.0437720000" lon="0.1569720000"><ele>635</ele><time>2026-03-18T14:20:53Z</time></trkpt>
<trkpt lat="43.0438020000" lon="0.1569570000"><ele>635</ele><time>2026-03-18T14:20:55Z</time></trkpt>
<trkpt lat="43.0438270000" lon="0.1569370000"><ele>635</ele><time>2026-03-18T14:20:57Z</time></trkpt>
<trkpt lat="43.0438470000" lon="0.1569170000"><ele>635</ele><time>2026-03-18T14:21:00Z</time></trkpt>
<trkpt lat="43.0438670000" lon="0.1569000000"><ele>635</ele><time>2026-03-18T14:21:03Z</time></trkpt>
<trkpt lat="43.0438850000" lon="0.1568650000"><ele>636</ele><time>2026-03-18T14:21:05Z</time></trkpt>
<trkpt lat="43.0439120000" lon="0.1568520000"><ele>636</ele><time>2026-03-18T14:21:07Z</time></trkpt>
<trkpt lat="43.0439370000" lon="0.1568300000"><ele>636</ele><time>2026-03-18T14:21:10Z</time></trkpt>
<trkpt lat="43.0439620000" lon="0.1568170000"><ele>636</ele><time>2026-03-18T14:21:11Z</time></trkpt>
<trkpt lat="43.0439850000" lon="0.1568070000"><ele>636</ele><time>2026-03-18T14:21:13Z</time></trkpt>
<trkpt lat="43.0440050000" lon="0.1567970000"><ele>636</ele><time>2026-03-18T14:21:15Z</time></trkpt>
<trkpt lat="43.0440200000" lon="0.1567800000"><ele>636</ele><time>2026-03-18T14:21:20Z</time></trkpt>
<trkpt lat="43.0440370000" lon="0.1567670000"><ele>636</ele><time>2026-03-18T14:21:22Z</time></trkpt>
<trkpt lat="43.0440680000" lon="0.1567520000"><ele>636</ele><time>2026-03-18T14:21:24Z</time></trkpt>
<trkpt lat="43.0440970000" lon="0.1567550000"><ele>636</ele><time>2026-03-18T14:21:26Z</time></trkpt>
<trkpt lat="43.0441120000" lon="0.1567420000"><ele>637</ele><time>2026-03-18T14:21:27Z</time></trkpt>
<trkpt lat="43.0441520000" lon="0.1567470000"><ele>637</ele><time>2026-03-18T14:21:29Z</time></trkpt>
<trkpt lat="43.0441670000" lon="0.1567600000"><ele>637</ele><time>2026-03-18T14:21:32Z</time></trkpt>
<trkpt lat="43.0441950000" lon="0.1567420000"><ele>637</ele><time>2026-03-18T14:21:34Z</time></trkpt>
<trkpt lat="43.0442150000" lon="0.1567380000"><ele>637</ele><time>2026-03-18T14:21:35Z</time></trkpt>
<trkpt lat="43.0442350000" lon="0.1567350000"><ele>637</ele><time>2026-03-18T14:21:36Z</time></trkpt>
<trkpt lat="43.0442520000" lon="0.1567170000"><ele>637</ele><time>2026-03-18T14:21:37Z</time></trkpt>
<trkpt lat="43.0442750000" lon="0.1566970000"><ele>638</ele><time>2026-03-18T14:21:40Z</time></trkpt>
<trkpt lat="43.0442900000" lon="0.1566800000"><ele>638</ele><time>2026-03-18T14:21:41Z</time></trkpt>
<trkpt lat="43.0443170000" lon="0.1566620000"><ele>638</ele><time>2026-03-18T14:21:43Z</time></trkpt>
<trkpt lat="43.0443420000" lon="0.1566520000"><ele>638</ele><time>2026-03-18T14:21:45Z</time></trkpt>
<trkpt lat="43.0443570000" lon="0.1566280000"><ele>638</ele><time>2026-03-18T14:21:48Z</time></trkpt>
<trkpt lat="43.0443820000" lon="0.1566200000"><ele>639</ele><time>2026-03-18T14:21:51Z</time></trkpt>
<trkpt lat="43.0444020000" lon="0.1565970000"><ele>639</ele><time>2026-03-18T14:21:53Z</time></trkpt>
<trkpt lat="43.0444170000" lon="0.1565820000"><ele>639</ele><time>2026-03-18T14:21:55Z</time></trkpt>
<trkpt lat="43.0444370000" lon="0.1565620000"><ele>639</ele><time>2026-03-18T14:21:57Z</time></trkpt>
<trkpt lat="43.0444520000" lon="0.1565470000"><ele>639</ele><time>2026-03-18T14:21:59Z</time></trkpt>
<trkpt lat="43.0444800000" lon="0.1565300000"><ele>639</ele><time>2026-03-18T14:22:02Z</time></trkpt>
<trkpt lat="43.0445000000" lon="0.1565170000"><ele>640</ele><time>2026-03-18T14:22:04Z</time></trkpt>
<trkpt lat="43.0445070000" lon="0.1564920000"><ele>640</ele><time>2026-03-18T14:22:08Z</time></trkpt>
<trkpt lat="43.0445250000" lon="0.1564620000"><ele>640</ele><time>2026-03-18T14:22:11Z</time></trkpt>
<trkpt lat="43.0445370000" lon="0.1564300000"><ele>640</ele><time>2026-03-18T14:22:13Z</time></trkpt>
<trkpt lat="43.0445470000" lon="0.1564020000"><ele>641</ele><time>2026-03-18T14:22:15Z</time></trkpt>
<trkpt lat="43.0445770000" lon="0.1563850000"><ele>641</ele><time>2026-03-18T14:22:17Z</time></trkpt>
<trkpt lat="43.0445970000" lon="0.1563670000"><ele>641</ele><time>2026-03-18T14:22:19Z</time></trkpt>
<trkpt lat="43.0446170000" lon="0.1563370000"><ele>641</ele><time>2026-03-18T14:22:21Z</time></trkpt>
<trkpt lat="43.0446270000" lon="0.1563150000"><ele>641</ele><time>2026-03-18T14:22:23Z</time></trkpt>
<trkpt lat="43.0446520000" lon="0.1562970000"><ele>641</ele><time>2026-03-18T14:22:25Z</time></trkpt>
<trkpt lat="43.0446720000" lon="0.1562770000"><ele>642</ele><time>2026-03-18T14:22:27Z</time></trkpt>
<trkpt lat="43.0446950000" lon="0.1562550000"><ele>642</ele><time>2026-03-18T14:22:29Z</time></trkpt>
<trkpt lat="43.0447200000" lon="0.1562120000"><ele>642</ele><time>2026-03-18T14:22:31Z</time></trkpt>
<trkpt lat="43.0447350000" lon="0.1561880000"><ele>642</ele><time>2026-03-18T14:22:33Z</time></trkpt>
<trkpt lat="43.0447550000" lon="0.1561670000"><ele>642</ele><time>2026-03-18T14:22:35Z</time></trkpt>
<trkpt lat="43.0447720000" lon="0.1561530000"><ele>642</ele><time>2026-03-18T14:22:37Z</time></trkpt>
<trkpt lat="43.0447920000" lon="0.1561320000"><ele>643</ele><time>2026-03-18T14:22:39Z</time></trkpt>
<trkpt lat="43.0448020000" lon="0.1561070000"><ele>643</ele><time>2026-03-18T14:22:42Z</time></trkpt>
<trkpt lat="43.0448220000" lon="0.1560720000"><ele>643</ele><time>2026-03-18T14:22:44Z</time></trkpt>
<trkpt lat="43.0448250000" lon="0.1560420000"><ele>643</ele><time>2026-03-18T14:22:46Z</time></trkpt>
<trkpt lat="43.0448320000" lon="0.1560120000"><ele>643</ele><time>2026-03-18T14:22:48Z</time></trkpt>
<trkpt lat="43.0448500000" lon="0.1559800000"><ele>644</ele><time>2026-03-18T14:22:50Z</time></trkpt>
<trkpt lat="43.0448650000" lon="0.1559520000"><ele>644</ele><time>2026-03-18T14:22:53Z</time></trkpt>
<trkpt lat="43.0448870000" lon="0.1559220000"><ele>644</ele><time>2026-03-18T14:22:55Z</time></trkpt>
<trkpt lat="43.0449070000" lon="0.1558920000"><ele>644</ele><time>2026-03-18T14:22:57Z</time></trkpt>
<trkpt lat="43.0449320000" lon="0.1558700000"><ele>644</ele><time>2026-03-18T14:22:59Z</time></trkpt>
<trkpt lat="43.0449400000" lon="0.1558470000"><ele>644</ele><time>2026-03-18T14:23:02Z</time></trkpt>
<trkpt lat="43.0449550000" lon="0.1558220000"><ele>644</ele><time>2026-03-18T14:23:04Z</time></trkpt>
<trkpt lat="43.0449770000" lon="0.1558000000"><ele>644</ele><time>2026-03-18T14:23:06Z</time></trkpt>
<trkpt lat="43.0449950000" lon="0.1557820000"><ele>644</ele><time>2026-03-18T14:23:08Z</time></trkpt>
<trkpt lat="43.0450120000" lon="0.1557620000"><ele>644</ele><time>2026-03-18T14:23:10Z</time></trkpt>
<trkpt lat="43.0450350000" lon="0.1557520000"><ele>644</ele><time>2026-03-18T14:23:12Z</time></trkpt>
<trkpt lat="43.0450420000" lon="0.1557270000"><ele>644</ele><time>2026-03-18T14:23:14Z</time></trkpt>
<trkpt lat="43.0450520000" lon="0.1557050000"><ele>644</ele><time>2026-03-18T14:23:16Z</time></trkpt>
<trkpt lat="43.0450670000" lon="0.1556920000"><ele>645</ele><time>2026-03-18T14:23:19Z</time></trkpt>
<trkpt lat="43.0450870000" lon="0.1556670000"><ele>645</ele><time>2026-03-18T14:23:21Z</time></trkpt>
<trkpt lat="43.0451070000" lon="0.1556400000"><ele>645</ele><time>2026-03-18T14:23:23Z</time></trkpt>
<trkpt lat="43.0451220000" lon="0.1555970000"><ele>645</ele><time>2026-03-18T14:23:25Z</time></trkpt>
<trkpt lat="43.0451420000" lon="0.1555700000"><ele>645</ele><time>2026-03-18T14:23:27Z</time></trkpt>
<trkpt lat="43.0451600000" lon="0.1555520000"><ele>645</ele><time>2026-03-18T14:23:30Z</time></trkpt>
<trkpt lat="43.0451770000" lon="0.1555250000"><ele>646</ele><time>2026-03-18T14:23:32Z</time></trkpt>
<trkpt lat="43.0451970000" lon="0.1555130000"><ele>646</ele><time>2026-03-18T14:23:34Z</time></trkpt>
<trkpt lat="43.0452150000" lon="0.1555270000"><ele>646</ele><time>2026-03-18T14:23:37Z</time></trkpt>
<trkpt lat="43.0452400000" lon="0.1555220000"><ele>646</ele><time>2026-03-18T14:23:39Z</time></trkpt>
<trkpt lat="43.0452770000" lon="0.1555170000"><ele>646</ele><time>2026-03-18T14:23:41Z</time></trkpt>
<trkpt lat="43.0452970000" lon="0.1555130000"><ele>646</ele><time>2026-03-18T14:23:45Z</time></trkpt>
<trkpt lat="43.0453150000" lon="0.1555000000"><ele>646</ele><time>2026-03-18T14:23:47Z</time></trkpt>
<trkpt lat="43.0453370000" lon="0.1554850000"><ele>646</ele><time>2026-03-18T14:23:48Z</time></trkpt>
<trkpt lat="43.0453620000" lon="0.1554620000"><ele>646</ele><time>2026-03-18T14:23:50Z</time></trkpt>
<trkpt lat="43.0453770000" lon="0.1554470000"><ele>646</ele><time>2026-03-18T14:23:52Z</time></trkpt>
<trkpt lat="43.0453970000" lon="0.1554400000"><ele>646</ele><time>2026-03-18T14:23:54Z</time></trkpt>
<trkpt lat="43.0454220000" lon="0.1554270000"><ele>646</ele><time>2026-03-18T14:23:56Z</time></trkpt>
<trkpt lat="43.0454420000" lon="0.1554220000"><ele>646</ele><time>2026-03-18T14:23:58Z</time></trkpt>
<trkpt lat="43.0454620000" lon="0.1554070000"><ele>646</ele><time>2026-03-18T14:24:00Z</time></trkpt>
<trkpt lat="43.0454800000" lon="0.1553900000"><ele>646</ele><time>2026-03-18T14:24:02Z</time></trkpt>
<trkpt lat="43.0454970000" lon="0.1553750000"><ele>647</ele><time>2026-03-18T14:24:04Z</time></trkpt>
<trkpt lat="43.0455170000" lon="0.1553650000"><ele>647</ele><time>2026-03-18T14:24:06Z</time></trkpt>
<trkpt lat="43.0455470000" lon="0.1553670000"><ele>647</ele><time>2026-03-18T14:24:08Z</time></trkpt>
<trkpt lat="43.0455620000" lon="0.1553570000"><ele>647</ele><time>2026-03-18T14:24:10Z</time></trkpt>
<trkpt lat="43.0456000000" lon="0.1553520000"><ele>647</ele><time>2026-03-18T14:24:12Z</time></trkpt>
<trkpt lat="43.0456250000" lon="0.1553370000"><ele>647</ele><time>2026-03-18T14:24:14Z</time></trkpt>
<trkpt lat="43.0456520000" lon="0.1553170000"><ele>647</ele><time>2026-03-18T14:24:16Z</time></trkpt>
<trkpt lat="43.0456770000" lon="0.1553020000"><ele>647</ele><time>2026-03-18T14:24:18Z</time></trkpt>
<trkpt lat="43.0457020000" lon="0.1552850000"><ele>647</ele><time>2026-03-18T14:24:20Z</time></trkpt>
<trkpt lat="43.0457250000" lon="0.1552670000"><ele>647</ele><time>2026-03-18T14:24:22Z</time></trkpt>
<trkpt lat="43.0457400000" lon="0.1552500000"><ele>647</ele><time>2026-03-18T14:24:24Z</time></trkpt>
<trkpt lat="43.0457600000" lon="0.1552380000"><ele>647</ele><time>2026-03-18T14:24:26Z</time></trkpt>
<trkpt lat="43.0457770000" lon="0.1552320000"><ele>647</ele><time>2026-03-18T14:24:28Z</time></trkpt>
<trkpt lat="43.0458020000" lon="0.1552180000"><ele>647</ele><time>2026-03-18T14:24:31Z</time></trkpt>
<trkpt lat="43.0458220000" lon="0.1552170000"><ele>648</ele><time>2026-03-18T14:24:33Z</time></trkpt>
<trkpt lat="43.0458400000" lon="0.1552170000"><ele>648</ele><time>2026-03-18T14:24:34Z</time></trkpt>
<trkpt lat="43.0458570000" lon="0.1552050000"><ele>648</ele><time>2026-03-18T14:24:36Z</time></trkpt>
<trkpt lat="43.0458720000" lon="0.1551820000"><ele>648</ele><time>2026-03-18T14:24:38Z</time></trkpt>
<trkpt lat="43.0458870000" lon="0.1551550000"><ele>648</ele><time>2026-03-18T14:24:40Z</time></trkpt>
<trkpt lat="43.0459020000" lon="0.1551370000"><ele>648</ele><time>2026-03-18T14:24:41Z</time></trkpt>
<trkpt lat="43.0459270000" lon="0.1551170000"><ele>648</ele><time>2026-03-18T14:24:43Z</time></trkpt>
<trkpt lat="43.0459400000" lon="0.1550980000"><ele>648</ele><time>2026-03-18T14:24:45Z</time></trkpt>
<trkpt lat="43.0459570000" lon="0.1550820000"><ele>648</ele><time>2026-03-18T14:24:47Z</time></trkpt>
<trkpt lat="43.0459750000" lon="0.1550700000"><ele>649</ele><time>2026-03-18T14:24:49Z</time></trkpt>
<trkpt lat="43.0459970000" lon="0.1550620000"><ele>649</ele><time>2026-03-18T14:24:51Z</time></trkpt>
<trkpt lat="43.0460150000" lon="0.1550600000"><ele>649</ele><time>2026-03-18T14:24:52Z</time></trkpt>
<trkpt lat="43.0460380000" lon="0.1550600000"><ele>649</ele><time>2026-03-18T14:24:54Z</time></trkpt>
<trkpt lat="43.0460620000" lon="0.1550600000"><ele>649</ele><time>2026-03-18T14:24:56Z</time></trkpt>
<trkpt lat="43.0460870000" lon="0.1550480000"><ele>649</ele><time>2026-03-18T14:24:58Z</time></trkpt>
<trkpt lat="43.0461100000" lon="0.1550400000"><ele>649</ele><time>2026-03-18T14:25:00Z</time></trkpt>
<trkpt lat="43.0461420000" lon="0.1550300000"><ele>649</ele><time>2026-03-18T14:25:02Z</time></trkpt>
<trkpt lat="43.0461650000" lon="0.1550220000"><ele>649</ele><time>2026-03-18T14:25:03Z</time></trkpt>
<trkpt lat="43.0461870000" lon="0.1550070000"><ele>649</ele><time>2026-03-18T14:25:05Z</time></trkpt>
<trkpt lat="43.0462050000" lon="0.1549970000"><ele>649</ele><time>2026-03-18T14:25:06Z</time></trkpt>
<trkpt lat="43.0462320000" lon="0.1549870000"><ele>649</ele><time>2026-03-18T14:25:08Z</time></trkpt>
<trkpt lat="43.0462520000" lon="0.1549720000"><ele>649</ele><time>2026-03-18T14:25:10Z</time></trkpt>
<trkpt lat="43.0462750000" lon="0.1549420000"><ele>649</ele><time>2026-03-18T14:25:12Z</time></trkpt>
<trkpt lat="43.0463100000" lon="0.1549300000"><ele>649</ele><time>2026-03-18T14:25:14Z</time></trkpt>
<trkpt lat="43.0463300000" lon="0.1549270000"><ele>649</ele><time>2026-03-18T14:25:15Z</time></trkpt>
<trkpt lat="43.0463620000" lon="0.1549220000"><ele>649</ele><time>2026-03-18T14:25:17Z</time></trkpt>
<trkpt lat="43.0463800000" lon="0.1549120000"><ele>649</ele><time>2026-03-18T14:25:19Z</time></trkpt>
<trkpt lat="43.0464070000" lon="0.1548850000"><ele>649</ele><time>2026-03-18T14:25:21Z</time></trkpt>
<trkpt lat="43.0464220000" lon="0.1548670000"><ele>649</ele><time>2026-03-18T14:25:24Z</time></trkpt>
<trkpt lat="43.0464470000" lon="0.1548650000"><ele>649</ele><time>2026-03-18T14:25:26Z</time></trkpt>
<trkpt lat="43.0464670000" lon="0.1548480000"><ele>649</ele><time>2026-03-18T14:25:28Z</time></trkpt>
<trkpt lat="43.0464870000" lon="0.1548270000"><ele>649</ele><time>2026-03-18T14:25:31Z</time></trkpt>
<trkpt lat="43.0465070000" lon="0.1548070000"><ele>649</ele><time>2026-03-18T14:25:33Z</time></trkpt>
<trkpt lat="43.0465320000" lon="0.1547920000"><ele>649</ele><time>2026-03-18T14:25:35Z</time></trkpt>
<trkpt lat="43.0465570000" lon="0.1547820000"><ele>649</ele><time>2026-03-18T14:25:37Z</time></trkpt>
<trkpt lat="43.0465820000" lon="0.1547620000"><ele>649</ele><time>2026-03-18T14:25:39Z</time></trkpt>
<trkpt lat="43.0466070000" lon="0.1547470000"><ele>649</ele><time>2026-03-18T14:25:41Z</time></trkpt>
<trkpt lat="43.0466320000" lon="0.1547270000"><ele>649</ele><time>2026-03-18T14:25:43Z</time></trkpt>
<trkpt lat="43.0466520000" lon="0.1547080000"><ele>649</ele><time>2026-03-18T14:25:45Z</time></trkpt>
<trkpt lat="43.0466750000" lon="0.1546870000"><ele>649</ele><time>2026-03-18T14:25:49Z</time></trkpt>
<trkpt lat="43.0467050000" lon="0.1546800000"><ele>649</ele><time>2026-03-18T14:25:51Z</time></trkpt>
<trkpt lat="43.0467320000" lon="0.1546570000"><ele>649</ele><time>2026-03-18T14:25:53Z</time></trkpt>
<trkpt lat="43.0467620000" lon="0.1546320000"><ele>649</ele><time>2026-03-18T14:25:55Z</time></trkpt>
<trkpt lat="43.0467850000" lon="0.1545970000"><ele>649</ele><time>2026-03-18T14:25:57Z</time></trkpt>
<trkpt lat="43.0468020000" lon="0.1545800000"><ele>649</ele><time>2026-03-18T14:25:59Z</time></trkpt>
<trkpt lat="43.0468220000" lon="0.1545620000"><ele>649</ele><time>2026-03-18T14:26:01Z</time></trkpt>
<trkpt lat="43.0468470000" lon="0.1545500000"><ele>649</ele><time>2026-03-18T14:26:04Z</time></trkpt>
<trkpt lat="43.0468620000" lon="0.1545300000"><ele>649</ele><time>2026-03-18T14:26:06Z</time></trkpt>
<trkpt lat="43.0468770000" lon="0.1545070000"><ele>649</ele><time>2026-03-18T14:26:08Z</time></trkpt>
<trkpt lat="43.0468970000" lon="0.1544800000"><ele>649</ele><time>2026-03-18T14:26:10Z</time></trkpt>
<trkpt lat="43.0469120000" lon="0.1544470000"><ele>650</ele><time>2026-03-18T14:26:13Z</time></trkpt>
<trkpt lat="43.0469170000" lon="0.1544200000"><ele>649</ele><time>2026-03-18T14:26:16Z</time></trkpt>
<trkpt lat="43.0469070000" lon="0.1543900000"><ele>650</ele><time>2026-03-18T14:26:19Z</time></trkpt>
<trkpt lat="43.0468820000" lon="0.1543820000"><ele>650</ele><time>2026-03-18T14:26:21Z</time></trkpt>
<trkpt lat="43.0468600000" lon="0.1543620000"><ele>650</ele><time>2026-03-18T14:26:24Z</time></trkpt>
<trkpt lat="43.0468370000" lon="0.1543420000"><ele>650</ele><time>2026-03-18T14:26:26Z</time></trkpt>
<trkpt lat="43.0468200000" lon="0.1543270000"><ele>650</ele><time>2026-03-18T14:26:28Z</time></trkpt>
<trkpt lat="43.0468020000" lon="0.1543100000"><ele>650</ele><time>2026-03-18T14:26:30Z</time></trkpt>
<trkpt lat="43.0467820000" lon="0.1542920000"><ele>650</ele><time>2026-03-18T14:26:32Z</time></trkpt>
<trkpt lat="43.0467620000" lon="0.1542750000"><ele>650</ele><time>2026-03-18T14:26:34Z</time></trkpt>
<trkpt lat="43.0467470000" lon="0.1542570000"><ele>650</ele><time>2026-03-18T14:26:36Z</time></trkpt>
<trkpt lat="43.0467420000" lon="0.1542350000"><ele>650</ele><time>2026-03-18T14:26:39Z</time></trkpt>
<trkpt lat="43.0467270000" lon="0.1542120000"><ele>650</ele><time>2026-03-18T14:26:41Z</time></trkpt>
<trkpt lat="43.0467020000" lon="0.1541870000"><ele>651</ele><time>2026-03-18T14:26:43Z</time></trkpt>
<trkpt lat="43.0466870000" lon="0.1541650000"><ele>651</ele><time>2026-03-18T14:26:45Z</time></trkpt>
<trkpt lat="43.0466670000" lon="0.1541450000"><ele>651</ele><time>2026-03-18T14:26:47Z</time></trkpt>
<trkpt lat="43.0466500000" lon="0.1541220000"><ele>651</ele><time>2026-03-18T14:26:49Z</time></trkpt>
<trkpt lat="43.0466320000" lon="0.1540970000"><ele>651</ele><time>2026-03-18T14:26:51Z</time></trkpt>
<trkpt lat="43.0466100000" lon="0.1540770000"><ele>651</ele><time>2026-03-18T14:26:53Z</time></trkpt>
<trkpt lat="43.0465920000" lon="0.1540550000"><ele>651</ele><time>2026-03-18T14:26:55Z</time></trkpt>
<trkpt lat="43.0465770000" lon="0.1540300000"><ele>651</ele><time>2026-03-18T14:26:57Z</time></trkpt>
<trkpt lat="43.0465700000" lon="0.1540020000"><ele>651</ele><time>2026-03-18T14:26:59Z</time></trkpt>
<trkpt lat="43.0465570000" lon="0.1539770000"><ele>651</ele><time>2026-03-18T14:27:01Z</time></trkpt>
<trkpt lat="43.0465420000" lon="0.1539500000"><ele>651</ele><time>2026-03-18T14:27:03Z</time></trkpt>
<trkpt lat="43.0465270000" lon="0.1539220000"><ele>651</ele><time>2026-03-18T14:27:05Z</time></trkpt>
<trkpt lat="43.0465120000" lon="0.1538970000"><ele>651</ele><time>2026-03-18T14:27:07Z</time></trkpt>
<trkpt lat="43.0465020000" lon="0.1538750000"><ele>651</ele><time>2026-03-18T14:27:09Z</time></trkpt>
<trkpt lat="43.0464970000" lon="0.1538470000"><ele>651</ele><time>2026-03-18T14:27:11Z</time></trkpt>
<trkpt lat="43.0464920000" lon="0.1538150000"><ele>651</ele><time>2026-03-18T14:27:13Z</time></trkpt>
<trkpt lat="43.0464920000" lon="0.1537770000"><ele>650</ele><time>2026-03-18T14:27:15Z</time></trkpt>
<trkpt lat="43.0464920000" lon="0.1537370000"><ele>651</ele><time>2026-03-18T14:27:17Z</time></trkpt>
<trkpt lat="43.0464950000" lon="0.1537050000"><ele>651</ele><time>2026-03-18T14:27:19Z</time></trkpt>
<trkpt lat="43.0465020000" lon="0.1536770000"><ele>651</ele><time>2026-03-18T14:27:21Z</time></trkpt>
<trkpt lat="43.0465020000" lon="0.1536500000"><ele>651</ele><time>2026-03-18T14:27:23Z</time></trkpt>
<trkpt lat="43.0465070000" lon="0.1536200000"><ele>651</ele><time>2026-03-18T14:27:25Z</time></trkpt>
<trkpt lat="43.0465120000" lon="0.1535920000"><ele>652</ele><time>2026-03-18T14:27:27Z</time></trkpt>
<trkpt lat="43.0465200000" lon="0.1535670000"><ele>652</ele><time>2026-03-18T14:27:29Z</time></trkpt>
<trkpt lat="43.0465250000" lon="0.1535400000"><ele>652</ele><time>2026-03-18T14:27:31Z</time></trkpt>
<trkpt lat="43.0465270000" lon="0.1535120000"><ele>652</ele><time>2026-03-18T14:27:33Z</time></trkpt>
<trkpt lat="43.0465270000" lon="0.1534870000"><ele>653</ele><time>2026-03-18T14:27:35Z</time></trkpt>
<trkpt lat="43.0465350000" lon="0.1534600000"><ele>653</ele><time>2026-03-18T14:27:37Z</time></trkpt>
<trkpt lat="43.0465320000" lon="0.1534330000"><ele>653</ele><time>2026-03-18T14:27:40Z</time></trkpt>
<trkpt lat="43.0465350000" lon="0.1534020000"><ele>653</ele><time>2026-03-18T14:27:43Z</time></trkpt>
<trkpt lat="43.0465470000" lon="0.1533770000"><ele>653</ele><time>2026-03-18T14:27:45Z</time></trkpt>
<trkpt lat="43.0465670000" lon="0.1533550000"><ele>653</ele><time>2026-03-18T14:27:47Z</time></trkpt>
<trkpt lat="43.0465770000" lon="0.1533270000"><ele>653</ele><time>2026-03-18T14:27:49Z</time></trkpt>
<trkpt lat="43.0465870000" lon="0.1532970000"><ele>653</ele><time>2026-03-18T14:27:51Z</time></trkpt>
<trkpt lat="43.0465970000" lon="0.1532680000"><ele>653</ele><time>2026-03-18T14:27:53Z</time></trkpt>
<trkpt lat="43.0466050000" lon="0.1532430000"><ele>653</ele><time>2026-03-18T14:27:55Z</time></trkpt>
<trkpt lat="43.0466120000" lon="0.1532220000"><ele>652</ele><time>2026-03-18T14:27:57Z</time></trkpt>
<trkpt lat="43.0466270000" lon="0.1532020000"><ele>652</ele><time>2026-03-18T14:27:59Z</time></trkpt>
<trkpt lat="43.0466370000" lon="0.1531670000"><ele>652</ele><time>2026-03-18T14:28:02Z</time></trkpt>
<trkpt lat="43.0466470000" lon="0.1531420000"><ele>652</ele><time>2026-03-18T14:28:04Z</time></trkpt>
<trkpt lat="43.0466470000" lon="0.1531120000"><ele>652</ele><time>2026-03-18T14:28:06Z</time></trkpt>
<trkpt lat="43.0466620000" lon="0.1530900000"><ele>652</ele><time>2026-03-18T14:28:08Z</time></trkpt>
<trkpt lat="43.0466870000" lon="0.1530750000"><ele>652</ele><time>2026-03-18T14:28:10Z</time></trkpt>
<trkpt lat="43.0467120000" lon="0.1530570000"><ele>652</ele><time>2026-03-18T14:28:12Z</time></trkpt>
<trkpt lat="43.0467220000" lon="0.1530250000"><ele>652</ele><time>2026-03-18T14:28:15Z</time></trkpt>
<trkpt lat="43.0467120000" lon="0.1529930000"><ele>652</ele><time>2026-03-18T14:28:16Z</time></trkpt>
<trkpt lat="43.0467070000" lon="0.1529670000"><ele>652</ele><time>2026-03-18T14:28:18Z</time></trkpt>
<trkpt lat="43.0467200000" lon="0.1529320000"><ele>652</ele><time>2026-03-18T14:28:20Z</time></trkpt>
<trkpt lat="43.0467250000" lon="0.1528870000"><ele>652</ele><time>2026-03-18T14:28:22Z</time></trkpt>
<trkpt lat="43.0467320000" lon="0.1528420000"><ele>652</ele><time>2026-03-18T14:28:24Z</time></trkpt>
<trkpt lat="43.0467400000" lon="0.1528050000"><ele>652</ele><time>2026-03-18T14:28:26Z</time></trkpt>
<trkpt lat="43.0467370000" lon="0.1527620000"><ele>652</ele><time>2026-03-18T14:28:28Z</time></trkpt>
<trkpt lat="43.0467420000" lon="0.1527300000"><ele>652</ele><time>2026-03-18T14:28:30Z</time></trkpt>
<trkpt lat="43.0467570000" lon="0.1527020000"><ele>652</ele><time>2026-03-18T14:28:32Z</time></trkpt>
<trkpt lat="43.0467700000" lon="0.1526770000"><ele>652</ele><time>2026-03-18T14:28:34Z</time></trkpt>
<trkpt lat="43.0467800000" lon="0.1526400000"><ele>653</ele><time>2026-03-18T14:28:38Z</time></trkpt>
<trkpt lat="43.0467870000" lon="0.1526020000"><ele>652</ele><time>2026-03-18T14:28:40Z</time></trkpt>
<trkpt lat="43.0468050000" lon="0.1525700000"><ele>652</ele><time>2026-03-18T14:28:42Z</time></trkpt>
<trkpt lat="43.0468070000" lon="0.1525370000"><ele>652</ele><time>2026-03-18T14:28:44Z</time></trkpt>
<trkpt lat="43.0468170000" lon="0.1525100000"><ele>652</ele><time>2026-03-18T14:28:46Z</time></trkpt>
<trkpt lat="43.0468320000" lon="0.1524850000"><ele>652</ele><time>2026-03-18T14:28:48Z</time></trkpt>
<trkpt lat="43.0468500000" lon="0.1524600000"><ele>652</ele><time>2026-03-18T14:28:50Z</time></trkpt>
<trkpt lat="43.0468670000" lon="0.1524320000"><ele>652</ele><time>2026-03-18T14:28:52Z</time></trkpt>
<trkpt lat="43.0468970000" lon="0.1524020000"><ele>652</ele><time>2026-03-18T14:28:54Z</time></trkpt>
<trkpt lat="43.0469100000" lon="0.1523800000"><ele>652</ele><time>2026-03-18T14:28:56Z</time></trkpt>
<trkpt lat="43.0469270000" lon="0.1523550000"><ele>652</ele><time>2026-03-18T14:28:58Z</time></trkpt>
<trkpt lat="43.0469400000" lon="0.1523300000"><ele>653</ele><time>2026-03-18T14:29:00Z</time></trkpt>
<trkpt lat="43.0469530000" lon="0.1523150000"><ele>653</ele><time>2026-03-18T14:29:02Z</time></trkpt>
<trkpt lat="43.0469620000" lon="0.1522820000"><ele>653</ele><time>2026-03-18T14:29:05Z</time></trkpt>
<trkpt lat="43.0469770000" lon="0.1522650000"><ele>653</ele><time>2026-03-18T14:29:07Z</time></trkpt>
<trkpt lat="43.0469970000" lon="0.1522420000"><ele>653</ele><time>2026-03-18T14:29:10Z</time></trkpt>
<trkpt lat="43.0470120000" lon="0.1522270000"><ele>653</ele><time>2026-03-18T14:29:12Z</time></trkpt>
<trkpt lat="43.0470220000" lon="0.1521920000"><ele>653</ele><time>2026-03-18T14:29:14Z</time></trkpt>
<trkpt lat="43.0470420000" lon="0.1521620000"><ele>654</ele><time>2026-03-18T14:29:17Z</time></trkpt>
<trkpt lat="43.0470570000" lon="0.1521470000"><ele>654</ele><time>2026-03-18T14:29:19Z</time></trkpt>
<trkpt lat="43.0470720000" lon="0.1521200000"><ele>654</ele><time>2026-03-18T14:29:21Z</time></trkpt>
<trkpt lat="43.0470820000" lon="0.1521000000"><ele>654</ele><time>2026-03-18T14:29:23Z</time></trkpt>
<trkpt lat="43.0471020000" lon="0.1520770000"><ele>655</ele><time>2026-03-18T14:29:26Z</time></trkpt>
<trkpt lat="43.0471150000" lon="0.1520520000"><ele>655</ele><time>2026-03-18T14:29:28Z</time></trkpt>
<trkpt lat="43.0471220000" lon="0.1520300000"><ele>655</ele><time>2026-03-18T14:29:30Z</time></trkpt>
<trkpt lat="43.0471300000" lon="0.1520020000"><ele>656</ele><time>2026-03-18T14:29:33Z</time></trkpt>
<trkpt lat="43.0471570000" lon="0.1519820000"><ele>655</ele><time>2026-03-18T14:32:57Z</time></trkpt>
<trkpt lat="43.0471920000" lon="0.1519670000"><ele>655</ele><time>2026-03-18T14:32:59Z</time></trkpt>
<trkpt lat="43.0472170000" lon="0.1519520000"><ele>655</ele><time>2026-03-18T14:33:01Z</time></trkpt>
<trkpt lat="43.0472300000" lon="0.1519270000"><ele>655</ele><time>2026-03-18T14:33:04Z</time></trkpt>
<trkpt lat="43.0472470000" lon="0.1519020000"><ele>655</ele><time>2026-03-18T14:33:06Z</time></trkpt>
<trkpt lat="43.0472570000" lon="0.1518750000"><ele>655</ele><time>2026-03-18T14:33:08Z</time></trkpt>
<trkpt lat="43.0472570000" lon="0.1518420000"><ele>655</ele><time>2026-03-18T14:33:09Z</time></trkpt>
<trkpt lat="43.0472770000" lon="0.1518170000"><ele>655</ele><time>2026-03-18T14:33:11Z</time></trkpt>
<trkpt lat="43.0472970000" lon="0.1518000000"><ele>655</ele><time>2026-03-18T14:33:13Z</time></trkpt>
<trkpt lat="43.0473070000" lon="0.1517720000"><ele>655</ele><time>2026-03-18T14:33:15Z</time></trkpt>
<trkpt lat="43.0473320000" lon="0.1517420000"><ele>655</ele><time>2026-03-18T14:33:17Z</time></trkpt>
<trkpt lat="43.0473320000" lon="0.1517130000"><ele>655</ele><time>2026-03-18T14:33:19Z</time></trkpt>
<trkpt lat="43.0473270000" lon="0.1516820000"><ele>654</ele><time>2026-03-18T14:33:21Z</time></trkpt>
<trkpt lat="43.0473320000" lon="0.1516450000"><ele>654</ele><time>2026-03-18T14:33:23Z</time></trkpt>
<trkpt lat="43.0473400000" lon="0.1516070000"><ele>654</ele><time>2026-03-18T14:33:25Z</time></trkpt>
<trkpt lat="43.0473620000" lon="0.1515820000"><ele>654</ele><time>2026-03-18T14:33:27Z</time></trkpt>
<trkpt lat="43.0473550000" lon="0.1515520000"><ele>654</ele><time>2026-03-18T14:33:29Z</time></trkpt>
<trkpt lat="43.0473550000" lon="0.1515270000"><ele>654</ele><time>2026-03-18T14:33:31Z</time></trkpt>
<trkpt lat="43.0473670000" lon="0.1514900000"><ele>654</ele><time>2026-03-18T14:33:33Z</time></trkpt>
<trkpt lat="43.0473770000" lon="0.1514570000"><ele>654</ele><time>2026-03-18T14:33:35Z</time></trkpt>
<trkpt lat="43.0473920000" lon="0.1514370000"><ele>654</ele><time>2026-03-18T14:33:36Z</time></trkpt>
<trkpt lat="43.0474000000" lon="0.1513950000"><ele>654</ele><time>2026-03-18T14:33:38Z</time></trkpt>
<trkpt lat="43.0474070000" lon="0.1513720000"><ele>655</ele><time>2026-03-18T14:33:39Z</time></trkpt>
<trkpt lat="43.0474070000" lon="0.1513350000"><ele>655</ele><time>2026-03-18T14:33:41Z</time></trkpt>
<trkpt lat="43.0474200000" lon="0.1513020000"><ele>654</ele><time>2026-03-18T14:33:44Z</time></trkpt>
<trkpt lat="43.0474250000" lon="0.1512720000"><ele>654</ele><time>2026-03-18T14:33:46Z</time></trkpt>
<trkpt lat="43.0474250000" lon="0.1512370000"><ele>654</ele><time>2026-03-18T14:33:48Z</time></trkpt>
<trkpt lat="43.0474350000" lon="0.1512120000"><ele>654</ele><time>2026-03-18T14:33:50Z</time></trkpt>
<trkpt lat="43.0474370000" lon="0.1511870000"><ele>654</ele><time>2026-03-18T14:33:52Z</time></trkpt>
<trkpt lat="43.0474220000" lon="0.1511620000"><ele>654</ele><time>2026-03-18T14:33:54Z</time></trkpt>
<trkpt lat="43.0474320000" lon="0.1511370000"><ele>655</ele><time>2026-03-18T14:34:38Z</time></trkpt>
<trkpt lat="43.0474570000" lon="0.1511070000"><ele>655</ele><time>2026-03-18T14:34:40Z</time></trkpt>
<trkpt lat="43.0474720000" lon="0.1510670000"><ele>655</ele><time>2026-03-18T14:34:42Z</time></trkpt>
<trkpt lat="43.0474720000" lon="0.1510400000"><ele>655</ele><time>2026-03-18T14:34:44Z</time></trkpt>
<trkpt lat="43.0474700000" lon="0.1510150000"><ele>655</ele><time>2026-03-18T14:34:46Z</time></trkpt>
<trkpt lat="43.0474720000" lon="0.1509850000"><ele>655</ele><time>2026-03-18T14:34:48Z</time></trkpt>
<trkpt lat="43.0474720000" lon="0.1509570000"><ele>655</ele><time>2026-03-18T14:34:50Z</time></trkpt>
<trkpt lat="43.0474700000" lon="0.1509220000"><ele>655</ele><time>2026-03-18T14:34:52Z</time></trkpt>
<trkpt lat="43.0474770000" lon="0.1508970000"><ele>655</ele><time>2026-03-18T14:34:53Z</time></trkpt>
<trkpt lat="43.0474870000" lon="0.1508620000"><ele>655</ele><time>2026-03-18T14:34:55Z</time></trkpt>
<trkpt lat="43.0475000000" lon="0.1508270000"><ele>654</ele><time>2026-03-18T14:34:57Z</time></trkpt>
<trkpt lat="43.0475120000" lon="0.1507920000"><ele>654</ele><time>2026-03-18T14:34:59Z</time></trkpt>
<trkpt lat="43.0475170000" lon="0.1507570000"><ele>654</ele><time>2026-03-18T14:35:01Z</time></trkpt>
<trkpt lat="43.0475120000" lon="0.1507200000"><ele>654</ele><time>2026-03-18T14:35:03Z</time></trkpt>
<trkpt lat="43.0475020000" lon="0.1506850000"><ele>654</ele><time>2026-03-18T14:35:05Z</time></trkpt>
<trkpt lat="43.0474920000" lon="0.1506580000"><ele>654</ele><time>2026-03-18T14:35:13Z</time></trkpt>
<trkpt lat="43.0474770000" lon="0.1506370000"><ele>654</ele><time>2026-03-18T14:35:26Z</time></trkpt>
<trkpt lat="43.0474670000" lon="0.1506020000"><ele>654</ele><time>2026-03-18T14:35:28Z</time></trkpt>
<trkpt lat="43.0474620000" lon="0.1505600000"><ele>655</ele><time>2026-03-18T14:35:30Z</time></trkpt>
<trkpt lat="43.0474570000" lon="0.1505180000"><ele>655</ele><time>2026-03-18T14:35:32Z</time></trkpt>
<trkpt lat="43.0474420000" lon="0.1504870000"><ele>655</ele><time>2026-03-18T14:35:34Z</time></trkpt>
<trkpt lat="43.0474300000" lon="0.1504520000"><ele>655</ele><time>2026-03-18T14:35:37Z</time></trkpt>
<trkpt lat="43.0474350000" lon="0.1504100000"><ele>655</ele><time>2026-03-18T14:35:39Z</time></trkpt>
<trkpt lat="43.0474400000" lon="0.1503750000"><ele>655</ele><time>2026-03-18T14:35:41Z</time></trkpt>
<trkpt lat="43.0474370000" lon="0.1503370000"><ele>655</ele><time>2026-03-18T14:35:43Z</time></trkpt>
<trkpt lat="43.0474270000" lon="0.1503070000"><ele>655</ele><time>2026-03-18T14:35:45Z</time></trkpt>
<trkpt lat="43.0474170000" lon="0.1502770000"><ele>655</ele><time>2026-03-18T14:35:47Z</time></trkpt>
<trkpt lat="43.0474200000" lon="0.1502420000"><ele>655</ele><time>2026-03-18T14:35:50Z</time></trkpt>
<trkpt lat="43.0474220000" lon="0.1502120000"><ele>654</ele><time>2026-03-18T14:35:52Z</time></trkpt>
<trkpt lat="43.0474350000" lon="0.1501820000"><ele>654</ele><time>2026-03-18T14:35:54Z</time></trkpt>
<trkpt lat="43.0474320000" lon="0.1501550000"><ele>654</ele><time>2026-03-18T14:35:56Z</time></trkpt>
<trkpt lat="43.0474220000" lon="0.1501300000"><ele>654</ele><time>2026-03-18T14:35:58Z</time></trkpt>
<trkpt lat="43.0474170000" lon="0.1500920000"><ele>654</ele><time>2026-03-18T14:36:00Z</time></trkpt>
<trkpt lat="43.0473970000" lon="0.1500670000"><ele>654</ele><time>2026-03-18T14:36:02Z</time></trkpt>
<trkpt lat="43.0473800000" lon="0.1500450000"><ele>654</ele><time>2026-03-18T14:36:04Z</time></trkpt>
<trkpt lat="43.0473670000" lon="0.1500200000"><ele>654</ele><time>2026-03-18T14:36:06Z</time></trkpt>
<trkpt lat="43.0473570000" lon="0.1499920000"><ele>654</ele><time>2026-03-18T14:36:09Z</time></trkpt>
<trkpt lat="43.0473370000" lon="0.1499570000"><ele>654</ele><time>2026-03-18T14:36:11Z</time></trkpt>
<trkpt lat="43.0473300000" lon="0.1499220000"><ele>654</ele><time>2026-03-18T14:36:13Z</time></trkpt>
<trkpt lat="43.0473170000" lon="0.1498950000"><ele>654</ele><time>2026-03-18T14:36:15Z</time></trkpt>
<trkpt lat="43.0473020000" lon="0.1498820000"><ele>654</ele><time>2026-03-18T14:36:16Z</time></trkpt>
<trkpt lat="43.0472870000" lon="0.1498620000"><ele>654</ele><time>2026-03-18T14:36:18Z</time></trkpt>
<trkpt lat="43.0472750000" lon="0.1498370000"><ele>654</ele><time>2026-03-18T14:36:20Z</time></trkpt>
<trkpt lat="43.0472570000" lon="0.1498170000"><ele>654</ele><time>2026-03-18T14:36:22Z</time></trkpt>
<trkpt lat="43.0472420000" lon="0.1497920000"><ele>653</ele><time>2026-03-18T14:36:24Z</time></trkpt>
<trkpt lat="43.0472200000" lon="0.1497820000"><ele>654</ele><time>2026-03-18T14:36:26Z</time></trkpt>
<trkpt lat="43.0471920000" lon="0.1497670000"><ele>654</ele><time>2026-03-18T14:36:28Z</time></trkpt>
<trkpt lat="43.0471770000" lon="0.1497470000"><ele>654</ele><time>2026-03-18T14:36:30Z</time></trkpt>
<trkpt lat="43.0471620000" lon="0.1497270000"><ele>654</ele><time>2026-03-18T14:36:32Z</time></trkpt>
<trkpt lat="43.0471550000" lon="0.1497020000"><ele>653</ele><time>2026-03-18T14:36:34Z</time></trkpt>
<trkpt lat="43.0471420000" lon="0.1496670000"><ele>654</ele><time>2026-03-18T14:36:37Z</time></trkpt>
<trkpt lat="43.0471400000" lon="0.1496380000"><ele>654</ele><time>2026-03-18T14:36:39Z</time></trkpt>
<trkpt lat="43.0471200000" lon="0.1496270000"><ele>653</ele><time>2026-03-18T14:37:18Z</time></trkpt>
<trkpt lat="43.0471100000" lon="0.1496020000"><ele>653</ele><time>2026-03-18T14:37:21Z</time></trkpt>
<trkpt lat="43.0470900000" lon="0.1496120000"><ele>653</ele><time>2026-03-18T14:37:26Z</time></trkpt>
<trkpt lat="43.0470650000" lon="0.1496170000"><ele>653</ele><time>2026-03-18T14:37:28Z</time></trkpt>
<trkpt lat="43.0470870000" lon="0.1496220000"><ele>654</ele><time>2026-03-18T14:38:44Z</time></trkpt>
<trkpt lat="43.0471120000" lon="0.1496300000"><ele>654</ele><time>2026-03-18T14:38:45Z</time></trkpt>
<trkpt lat="43.0471350000" lon="0.1496370000"><ele>654</ele><time>2026-03-18T14:38:46Z</time></trkpt>
<trkpt lat="43.0471520000" lon="0.1496420000"><ele>654</ele><time>2026-03-18T14:38:47Z</time></trkpt>
<trkpt lat="43.0471770000" lon="0.1496470000"><ele>654</ele><time>2026-03-18T14:38:49Z</time></trkpt>
<trkpt lat="43.0472050000" lon="0.1496620000"><ele>653</ele><time>2026-03-18T14:39:19Z</time></trkpt>
<trkpt lat="43.0472320000" lon="0.1496670000"><ele>652</ele><time>2026-03-18T14:39:41Z</time></trkpt>
<trkpt lat="43.0472620000" lon="0.1496720000"><ele>652</ele><time>2026-03-18T14:39:43Z</time></trkpt>
<trkpt lat="43.0472820000" lon="0.1496770000"><ele>651</ele><time>2026-03-18T14:39:45Z</time></trkpt>
<trkpt lat="43.0473070000" lon="0.1496880000"><ele>651</ele><time>2026-03-18T14:39:48Z</time></trkpt>
<trkpt lat="43.0473220000" lon="0.1497070000"><ele>651</ele><time>2026-03-18T14:39:52Z</time></trkpt>
<trkpt lat="43.0473470000" lon="0.1497400000"><ele>650</ele><time>2026-03-18T14:39:55Z</time></trkpt>
<trkpt lat="43.0473620000" lon="0.1497570000"><ele>650</ele><time>2026-03-18T14:39:56Z</time></trkpt>
<trkpt lat="43.0473900000" lon="0.1497720000"><ele>650</ele><time>2026-03-18T14:39:57Z</time></trkpt>
<trkpt lat="43.0474100000" lon="0.1497780000"><ele>650</ele><time>2026-03-18T14:39:58Z</time></trkpt>
<trkpt lat="43.0474420000" lon="0.1497870000"><ele>650</ele><time>2026-03-18T14:40:00Z</time></trkpt>
<trkpt lat="43.0474650000" lon="0.1497920000"><ele>649</ele><time>2026-03-18T14:40:02Z</time></trkpt>
<trkpt lat="43.0474870000" lon="0.1497980000"><ele>649</ele><time>2026-03-18T14:40:04Z</time></trkpt>
<trkpt lat="43.0475120000" lon="0.1498100000"><ele>648</ele><time>2026-03-18T14:40:07Z</time></trkpt>
<trkpt lat="43.0475270000" lon="0.1498220000"><ele>648</ele><time>2026-03-18T14:40:09Z</time></trkpt>
<trkpt lat="43.0475470000" lon="0.1498350000"><ele>648</ele><time>2026-03-18T14:40:11Z</time></trkpt>
<trkpt lat="43.0475700000" lon="0.1498520000"><ele>647</ele><time>2026-03-18T14:40:13Z</time></trkpt>
<trkpt lat="43.0475870000" lon="0.1498700000"><ele>647</ele><time>2026-03-18T14:40:15Z</time></trkpt>
<trkpt lat="43.0476020000" lon="0.1498870000"><ele>647</ele><time>2026-03-18T14:40:18Z</time></trkpt>
<trkpt lat="43.0476200000" lon="0.1498970000"><ele>646</ele><time>2026-03-18T14:40:20Z</time></trkpt>
<trkpt lat="43.0476320000" lon="0.1499130000"><ele>646</ele><time>2026-03-18T14:40:22Z</time></trkpt>
<trkpt lat="43.0476550000" lon="0.1499300000"><ele>646</ele><time>2026-03-18T14:40:25Z</time></trkpt>
<trkpt lat="43.0476770000" lon="0.1499420000"><ele>645</ele><time>2026-03-18T14:40:27Z</time></trkpt>
<trkpt lat="43.0477020000" lon="0.1499620000"><ele>645</ele><time>2026-03-18T14:40:29Z</time></trkpt>
<trkpt lat="43.0477170000" lon="0.1499920000"><ele>645</ele><time>2026-03-18T14:40:31Z</time></trkpt>
<trkpt lat="43.0477270000" lon="0.1500250000"><ele>644</ele><time>2026-03-18T14:40:33Z</time></trkpt>
<trkpt lat="43.0477400000" lon="0.1500470000"><ele>644</ele><time>2026-03-18T14:40:35Z</time></trkpt>
<trkpt lat="43.0477670000" lon="0.1500570000"><ele>643</ele><time>2026-03-18T14:40:37Z</time></trkpt>
<trkpt lat="43.0477870000" lon="0.1500570000"><ele>643</ele><time>2026-03-18T14:40:38Z</time></trkpt>
<trkpt lat="43.0477970000" lon="0.1500320000"><ele>643</ele><time>2026-03-18T14:40:41Z</time></trkpt>
<trkpt lat="43.0477950000" lon="0.1499920000"><ele>642</ele><time>2026-03-18T14:40:44Z</time></trkpt>
<trkpt lat="43.0477870000" lon="0.1499670000"><ele>642</ele><time>2026-03-18T14:40:48Z</time></trkpt>
<trkpt lat="43.0477670000" lon="0.1499550000"><ele>642</ele><time>2026-03-18T14:40:50Z</time></trkpt>
<trkpt lat="43.0477520000" lon="0.1499350000"><ele>641</ele><time>2026-03-18T14:40:52Z</time></trkpt>
<trkpt lat="43.0477320000" lon="0.1499130000"><ele>641</ele><time>2026-03-18T14:40:54Z</time></trkpt>
<trkpt lat="43.0477120000" lon="0.1498970000"><ele>641</ele><time>2026-03-18T14:40:57Z</time></trkpt>
<trkpt lat="43.0476850000" lon="0.1498870000"><ele>640</ele><time>2026-03-18T14:40:59Z</time></trkpt>
<trkpt lat="43.0476620000" lon="0.1498770000"><ele>640</ele><time>2026-03-18T14:41:01Z</time></trkpt>
<trkpt lat="43.0476470000" lon="0.1498620000"><ele>640</ele><time>2026-03-18T14:41:02Z</time></trkpt>
<trkpt lat="43.0476280000" lon="0.1498270000"><ele>640</ele><time>2026-03-18T14:41:04Z</time></trkpt>
<trkpt lat="43.0476170000" lon="0.1498020000"><ele>639</ele><time>2026-03-18T14:41:06Z</time></trkpt>
<trkpt lat="43.0476050000" lon="0.1497770000"><ele>639</ele><time>2026-03-18T14:41:08Z</time></trkpt>
<trkpt lat="43.0475920000" lon="0.1497600000"><ele>639</ele><time>2026-03-18T14:41:10Z</time></trkpt>
<trkpt lat="43.0475770000" lon="0.1497420000"><ele>639</ele><time>2026-03-18T14:41:12Z</time></trkpt>
<trkpt lat="43.0475520000" lon="0.1497200000"><ele>639</ele><time>2026-03-18T14:41:14Z</time></trkpt>
<trkpt lat="43.0475320000" lon="0.1497070000"><ele>638</ele><time>2026-03-18T14:41:17Z</time></trkpt>
<trkpt lat="43.0475250000" lon="0.1496850000"><ele>638</ele><time>2026-03-18T14:41:19Z</time></trkpt>
<trkpt lat="43.0475020000" lon="0.1496620000"><ele>638</ele><time>2026-03-18T14:41:21Z</time></trkpt>
<trkpt lat="43.0475120000" lon="0.1496270000"><ele>638</ele><time>2026-03-18T14:41:24Z</time></trkpt>
<trkpt lat="43.0475320000" lon="0.1496070000"><ele>638</ele><time>2026-03-18T14:41:25Z</time></trkpt>
<trkpt lat="43.0475470000" lon="0.1495870000"><ele>638</ele><time>2026-03-18T14:41:26Z</time></trkpt>
<trkpt lat="43.0475650000" lon="0.1495670000"><ele>637</ele><time>2026-03-18T14:41:28Z</time></trkpt>
<trkpt lat="43.0475770000" lon="0.1495480000"><ele>637</ele><time>2026-03-18T14:41:29Z</time></trkpt>
<trkpt lat="43.0475750000" lon="0.1495170000"><ele>637</ele><time>2026-03-18T14:41:31Z</time></trkpt>
<trkpt lat="43.0475720000" lon="0.1494920000"><ele>636</ele><time>2026-03-18T14:41:39Z</time></trkpt>
<trkpt lat="43.0476050000" lon="0.1494750000"><ele>636</ele><time>2026-03-18T14:41:41Z</time></trkpt>
<trkpt lat="43.0476350000" lon="0.1494700000"><ele>636</ele><time>2026-03-18T14:41:43Z</time></trkpt>
<trkpt lat="43.0476570000" lon="0.1494750000"><ele>636</ele><time>2026-03-18T14:41:45Z</time></trkpt>
<trkpt lat="43.0476700000" lon="0.1494920000"><ele>636</ele><time>2026-03-18T14:41:47Z</time></trkpt>
<trkpt lat="43.0476950000" lon="0.1494900000"><ele>635</ele><time>2026-03-18T14:41:49Z</time></trkpt>
<trkpt lat="43.0477120000" lon="0.1494920000"><ele>635</ele><time>2026-03-18T14:41:50Z</time></trkpt>
<trkpt lat="43.0477400000" lon="0.1494970000"><ele>635</ele><time>2026-03-18T14:41:52Z</time></trkpt>
<trkpt lat="43.0477650000" lon="0.1495120000"><ele>635</ele><time>2026-03-18T14:41:54Z</time></trkpt>
<trkpt lat="43.0477820000" lon="0.1495170000"><ele>635</ele><time>2026-03-18T14:41:55Z</time></trkpt>
<trkpt lat="43.0478020000" lon="0.1495270000"><ele>634</ele><time>2026-03-18T14:41:57Z</time></trkpt>
<trkpt lat="43.0478200000" lon="0.1495230000"><ele>634</ele><time>2026-03-18T14:41:59Z</time></trkpt>
<trkpt lat="43.0478020000" lon="0.1495450000"><ele>633</ele><time>2026-03-18T14:42:11Z</time></trkpt>
<trkpt lat="43.0478250000" lon="0.1495550000"><ele>633</ele><time>2026-03-18T14:42:15Z</time></trkpt>
<trkpt lat="43.0478470000" lon="0.1495470000"><ele>633</ele><time>2026-03-18T14:42:18Z</time></trkpt>
<trkpt lat="43.0478720000" lon="0.1495420000"><ele>633</ele><time>2026-03-18T14:42:21Z</time></trkpt>
<trkpt lat="43.0478920000" lon="0.1495470000"><ele>633</ele><time>2026-03-18T14:42:22Z</time></trkpt>
<trkpt lat="43.0479120000" lon="0.1495470000"><ele>632</ele><time>2026-03-18T14:42:23Z</time></trkpt>
<trkpt lat="43.0479320000" lon="0.1495470000"><ele>632</ele><time>2026-03-18T14:42:24Z</time></trkpt>
<trkpt lat="43.0479670000" lon="0.1495550000"><ele>632</ele><time>2026-03-18T14:42:26Z</time></trkpt>
<trkpt lat="43.0479870000" lon="0.1495550000"><ele>632</ele><time>2026-03-18T14:42:28Z</time></trkpt>
<trkpt lat="43.0480080000" lon="0.1495620000"><ele>632</ele><time>2026-03-18T14:42:30Z</time></trkpt>
<trkpt lat="43.0480320000" lon="0.1495720000"><ele>631</ele><time>2026-03-18T14:42:32Z</time></trkpt>
<trkpt lat="43.0480570000" lon="0.1495770000"><ele>631</ele><time>2026-03-18T14:42:34Z</time></trkpt>
<trkpt lat="43.0480820000" lon="0.1495800000"><ele>631</ele><time>2026-03-18T14:42:36Z</time></trkpt>
<trkpt lat="43.0481000000" lon="0.1495870000"><ele>630</ele><time>2026-03-18T14:42:38Z</time></trkpt>
<trkpt lat="43.0481200000" lon="0.1495950000"><ele>630</ele><time>2026-03-18T14:42:40Z</time></trkpt>
<trkpt lat="43.0481370000" lon="0.1496050000"><ele>630</ele><time>2026-03-18T14:42:42Z</time></trkpt>
<trkpt lat="43.0481620000" lon="0.1496120000"><ele>630</ele><time>2026-03-18T14:42:44Z</time></trkpt>
<trkpt lat="43.0481850000" lon="0.1496070000"><ele>629</ele><time>2026-03-18T14:42:46Z</time></trkpt>
<trkpt lat="43.0482070000" lon="0.1496020000"><ele>629</ele><time>2026-03-18T14:42:48Z</time></trkpt>
<trkpt lat="43.0482300000" lon="0.1495920000"><ele>629</ele><time>2026-03-18T14:42:50Z</time></trkpt>
<trkpt lat="43.0482520000" lon="0.1495900000"><ele>629</ele><time>2026-03-18T14:42:52Z</time></trkpt>
<trkpt lat="43.0482820000" lon="0.1495770000"><ele>629</ele><time>2026-03-18T14:42:54Z</time></trkpt>
<trkpt lat="43.0483070000" lon="0.1495720000"><ele>629</ele><time>2026-03-18T14:42:56Z</time></trkpt>
<trkpt lat="43.0483320000" lon="0.1495670000"><ele>628</ele><time>2026-03-18T14:42:58Z</time></trkpt>
<trkpt lat="43.0483550000" lon="0.1495520000"><ele>628</ele><time>2026-03-18T14:43:01Z</time></trkpt>
<trkpt lat="43.0483770000" lon="0.1495470000"><ele>628</ele><time>2026-03-18T14:43:03Z</time></trkpt>
<trkpt lat="43.0484020000" lon="0.1495370000"><ele>627</ele><time>2026-03-18T14:43:05Z</time></trkpt>
<trkpt lat="43.0484270000" lon="0.1495320000"><ele>627</ele><time>2026-03-18T14:43:07Z</time></trkpt>
<trkpt lat="43.0484470000" lon="0.1495370000"><ele>627</ele><time>2026-03-18T14:43:09Z</time></trkpt>
<trkpt lat="43.0484720000" lon="0.1495350000"><ele>627</ele><time>2026-03-18T14:43:11Z</time></trkpt>
<trkpt lat="43.0485020000" lon="0.1495320000"><ele>627</ele><time>2026-03-18T14:43:14Z</time></trkpt>
<trkpt lat="43.0485270000" lon="0.1495270000"><ele>626</ele><time>2026-03-18T14:43:16Z</time></trkpt>
<trkpt lat="43.0485520000" lon="0.1495220000"><ele>626</ele><time>2026-03-18T14:43:18Z</time></trkpt>
<trkpt lat="43.0485770000" lon="0.1495170000"><ele>626</ele><time>2026-03-18T14:43:21Z</time></trkpt>
<trkpt lat="43.0486000000" lon="0.1495270000"><ele>626</ele><time>2026-03-18T14:43:23Z</time></trkpt>
<trkpt lat="43.0486170000" lon="0.1495400000"><ele>626</ele><time>2026-03-18T14:43:25Z</time></trkpt>
<trkpt lat="43.0486520000" lon="0.1495400000"><ele>626</ele><time>2026-03-18T14:43:28Z</time></trkpt>
<trkpt lat="43.0486720000" lon="0.1495270000"><ele>625</ele><time>2026-03-18T14:43:31Z</time></trkpt>
<trkpt lat="43.0486900000" lon="0.1495170000"><ele>625</ele><time>2026-03-18T14:43:33Z</time></trkpt>
<trkpt lat="43.0487120000" lon="0.1495230000"><ele>625</ele><time>2026-03-18T14:43:35Z</time></trkpt>
<trkpt lat="43.0487370000" lon="0.1495150000"><ele>624</ele><time>2026-03-18T14:43:37Z</time></trkpt>
<trkpt lat="43.0487550000" lon="0.1495100000"><ele>624</ele><time>2026-03-18T14:43:39Z</time></trkpt>
<trkpt lat="43.0487720000" lon="0.1494930000"><ele>623</ele><time>2026-03-18T14:43:41Z</time></trkpt>
<trkpt lat="43.0487920000" lon="0.1494800000"><ele>623</ele><time>2026-03-18T14:43:43Z</time></trkpt>
<trkpt lat="43.0488220000" lon="0.1494770000"><ele>623</ele><time>2026-03-18T14:43:45Z</time></trkpt>
<trkpt lat="43.0488420000" lon="0.1494770000"><ele>623</ele><time>2026-03-18T14:43:47Z</time></trkpt>
<trkpt lat="43.0488700000" lon="0.1494800000"><ele>622</ele><time>2026-03-18T14:43:49Z</time></trkpt>
<trkpt lat="43.0488920000" lon="0.1494800000"><ele>622</ele><time>2026-03-18T14:43:51Z</time></trkpt>
<trkpt lat="43.0489070000" lon="0.1494550000"><ele>621</ele><time>2026-03-18T14:43:58Z</time></trkpt>
<trkpt lat="43.0489170000" lon="0.1494350000"><ele>621</ele><time>2026-03-18T14:44:00Z</time></trkpt>
<trkpt lat="43.0489400000" lon="0.1494320000"><ele>620</ele><time>2026-03-18T14:44:02Z</time></trkpt>
<trkpt lat="43.0489650000" lon="0.1494120000"><ele>620</ele><time>2026-03-18T14:44:04Z</time></trkpt>
<trkpt lat="43.0489770000" lon="0.1493970000"><ele>620</ele><time>2026-03-18T14:44:06Z</time></trkpt>
<trkpt lat="43.0489970000" lon="0.1493720000"><ele>619</ele><time>2026-03-18T14:44:09Z</time></trkpt>
<trkpt lat="43.0490150000" lon="0.1493530000"><ele>619</ele><time>2026-03-18T14:44:11Z</time></trkpt>
<trkpt lat="43.0490320000" lon="0.1493400000"><ele>619</ele><time>2026-03-18T14:44:13Z</time></trkpt>
<trkpt lat="43.0490550000" lon="0.1493320000"><ele>619</ele><time>2026-03-18T14:44:15Z</time></trkpt>
<trkpt lat="43.0490870000" lon="0.1493270000"><ele>618</ele><time>2026-03-18T14:44:18Z</time></trkpt>
<trkpt lat="43.0491050000" lon="0.1493220000"><ele>618</ele><time>2026-03-18T14:44:20Z</time></trkpt>
<trkpt lat="43.0491320000" lon="0.1493370000"><ele>618</ele><time>2026-03-18T14:44:22Z</time></trkpt>
<trkpt lat="43.0491520000" lon="0.1493370000"><ele>617</ele><time>2026-03-18T14:44:42Z</time></trkpt>
<trkpt lat="43.0491770000" lon="0.1493320000"><ele>617</ele><time>2026-03-18T14:44:45Z</time></trkpt>
<trkpt lat="43.0491970000" lon="0.1493320000"><ele>616</ele><time>2026-03-18T14:44:48Z</time></trkpt>
<trkpt lat="43.0492170000" lon="0.1493220000"><ele>616</ele><time>2026-03-18T14:44:50Z</time></trkpt>
<trkpt lat="43.0492350000" lon="0.1493220000"><ele>616</ele><time>2026-03-18T14:44:52Z</time></trkpt>
<trkpt lat="43.0492520000" lon="0.1493250000"><ele>615</ele><time>2026-03-18T14:44:54Z</time></trkpt>
<trkpt lat="43.0492820000" lon="0.1493270000"><ele>615</ele><time>2026-03-18T14:44:56Z</time></trkpt>
<trkpt lat="43.0493120000" lon="0.1493200000"><ele>615</ele><time>2026-03-18T14:44:58Z</time></trkpt>
<trkpt lat="43.0493320000" lon="0.1493170000"><ele>615</ele><time>2026-03-18T14:45:00Z</time></trkpt>
<trkpt lat="43.0493570000" lon="0.1493170000"><ele>614</ele><time>2026-03-18T14:45:02Z</time></trkpt>
<trkpt lat="43.0493820000" lon="0.1493120000"><ele>614</ele><time>2026-03-18T14:45:05Z</time></trkpt>
<trkpt lat="43.0494020000" lon="0.1493020000"><ele>613</ele><time>2026-03-18T14:45:07Z</time></trkpt>
<trkpt lat="43.0494300000" lon="0.1493000000"><ele>613</ele><time>2026-03-18T14:45:09Z</time></trkpt>
<trkpt lat="43.0494570000" lon="0.1492970000"><ele>613</ele><time>2026-03-18T14:45:11Z</time></trkpt>
<trkpt lat="43.0494870000" lon="0.1492950000"><ele>613</ele><time>2026-03-18T14:45:13Z</time></trkpt>
<trkpt lat="43.0495170000" lon="0.1492900000"><ele>612</ele><time>2026-03-18T14:45:15Z</time></trkpt>
<trkpt lat="43.0495420000" lon="0.1492820000"><ele>612</ele><time>2026-03-18T14:45:17Z</time></trkpt>
<trkpt lat="43.0495620000" lon="0.1492920000"><ele>612</ele><time>2026-03-18T14:45:19Z</time></trkpt>
<trkpt lat="43.0495950000" lon="0.1493170000"><ele>612</ele><time>2026-03-18T14:45:21Z</time></trkpt>
<trkpt lat="43.0496120000" lon="0.1493200000"><ele>611</ele><time>2026-03-18T14:45:23Z</time></trkpt>
<trkpt lat="43.0496320000" lon="0.1493300000"><ele>611</ele><time>2026-03-18T14:45:25Z</time></trkpt>
<trkpt lat="43.0496520000" lon="0.1493350000"><ele>611</ele><time>2026-03-18T14:45:26Z</time></trkpt>
<trkpt lat="43.0496720000" lon="0.1493420000"><ele>611</ele><time>2026-03-18T14:45:27Z</time></trkpt>
<trkpt lat="43.0496900000" lon="0.1493500000"><ele>611</ele><time>2026-03-18T14:45:28Z</time></trkpt>
<trkpt lat="43.0497220000" lon="0.1493580000"><ele>611</ele><time>2026-03-18T14:45:30Z</time></trkpt>
<trkpt lat="43.0497420000" lon="0.1493620000"><ele>611</ele><time>2026-03-18T14:45:32Z</time></trkpt>
<trkpt lat="43.0497600000" lon="0.1493670000"><ele>610</ele><time>2026-03-18T14:45:34Z</time></trkpt>
<trkpt lat="43.0497770000" lon="0.1493620000"><ele>610</ele><time>2026-03-18T14:45:36Z</time></trkpt>
<trkpt lat="43.0498050000" lon="0.1493470000"><ele>610</ele><time>2026-03-18T14:45:39Z</time></trkpt>
<trkpt lat="43.0498270000" lon="0.1493450000"><ele>610</ele><time>2026-03-18T14:45:41Z</time></trkpt>
<trkpt lat="43.0498520000" lon="0.1493370000"><ele>610</ele><time>2026-03-18T14:45:43Z</time></trkpt>
<trkpt lat="43.0498720000" lon="0.1493270000"><ele>609</ele><time>2026-03-18T14:45:45Z</time></trkpt>
<trkpt lat="43.0498870000" lon="0.1493120000"><ele>609</ele><time>2026-03-18T14:45:47Z</time></trkpt>
<trkpt lat="43.0499070000" lon="0.1492850000"><ele>609</ele><time>2026-03-18T14:45:50Z</time></trkpt>
<trkpt lat="43.0499220000" lon="0.1492720000"><ele>608</ele><time>2026-03-18T14:45:52Z</time></trkpt>
<trkpt lat="43.0499420000" lon="0.1492730000"><ele>608</ele><time>2026-03-18T14:45:55Z</time></trkpt>
<trkpt lat="43.0499600000" lon="0.1492920000"><ele>608</ele><time>2026-03-18T14:46:00Z</time></trkpt>
<trkpt lat="43.0499520000" lon="0.1493170000"><ele>607</ele><time>2026-03-18T14:46:03Z</time></trkpt>
<trkpt lat="43.0499320000" lon="0.1493320000"><ele>607</ele><time>2026-03-18T14:46:06Z</time></trkpt>
<trkpt lat="43.0499400000" lon="0.1493570000"><ele>607</ele><time>2026-03-18T14:46:13Z</time></trkpt>
<trkpt lat="43.0499550000" lon="0.1493420000"><ele>608</ele><time>2026-03-18T14:46:35Z</time></trkpt>
<trkpt lat="43.0499470000" lon="0.1493150000"><ele>607</ele><time>2026-03-18T14:47:24Z</time></trkpt>
<trkpt lat="43.0499420000" lon="0.1492770000"><ele>607</ele><time>2026-03-18T14:47:26Z</time></trkpt>
<trkpt lat="43.0499470000" lon="0.1492420000"><ele>607</ele><time>2026-03-18T14:47:28Z</time></trkpt>
<trkpt lat="43.0499550000" lon="0.1492170000"><ele>607</ele><time>2026-03-18T14:47:30Z</time></trkpt>
<trkpt lat="43.0499720000" lon="0.1491900000"><ele>606</ele><time>2026-03-18T14:47:34Z</time></trkpt>
<trkpt lat="43.0499870000" lon="0.1491750000"><ele>606</ele><time>2026-03-18T14:47:38Z</time></trkpt>
<trkpt lat="43.0500070000" lon="0.1491820000"><ele>605</ele><time>2026-03-18T14:47:42Z</time></trkpt>
<trkpt lat="43.0499970000" lon="0.1491620000"><ele>605</ele><time>2026-03-18T14:47:52Z</time></trkpt>
<trkpt lat="43.0499950000" lon="0.1491170000"><ele>605</ele><time>2026-03-18T14:47:54Z</time></trkpt>
<trkpt lat="43.0500070000" lon="0.1490780000"><ele>604</ele><time>2026-03-18T14:47:56Z</time></trkpt>
<trkpt lat="43.0500220000" lon="0.1490470000"><ele>604</ele><time>2026-03-18T14:47:58Z</time></trkpt>
<trkpt lat="43.0500350000" lon="0.1490250000"><ele>604</ele><time>2026-03-18T14:48:00Z</time></trkpt>
<trkpt lat="43.0500470000" lon="0.1489920000"><ele>604</ele><time>2026-03-18T14:48:02Z</time></trkpt>
<trkpt lat="43.0500620000" lon="0.1489670000"><ele>604</ele><time>2026-03-18T14:48:04Z</time></trkpt>
<trkpt lat="43.0500870000" lon="0.1489470000"><ele>603</ele><time>2026-03-18T14:48:07Z</time></trkpt>
<trkpt lat="43.0501020000" lon="0.1489270000"><ele>603</ele><time>2026-03-18T14:48:09Z</time></trkpt>
<trkpt lat="43.0501120000" lon="0.1488970000"><ele>603</ele><time>2026-03-18T14:48:11Z</time></trkpt>
<trkpt lat="43.0501320000" lon="0.1488850000"><ele>602</ele><time>2026-03-18T14:48:13Z</time></trkpt>
<trkpt lat="43.0501500000" lon="0.1488670000"><ele>602</ele><time>2026-03-18T14:48:15Z</time></trkpt>
<trkpt lat="43.0501720000" lon="0.1488570000"><ele>602</ele><time>2026-03-18T14:48:17Z</time></trkpt>
<trkpt lat="43.0501850000" lon="0.1488320000"><ele>602</ele><time>2026-03-18T14:48:19Z</time></trkpt>
<trkpt lat="43.0502020000" lon="0.1488070000"><ele>601</ele><time>2026-03-18T14:48:21Z</time></trkpt>
<trkpt lat="43.0502250000" lon="0.1487920000"><ele>601</ele><time>2026-03-18T14:48:23Z</time></trkpt>
<trkpt lat="43.0502450000" lon="0.1487670000"><ele>601</ele><time>2026-03-18T14:48:25Z</time></trkpt>
<trkpt lat="43.0502650000" lon="0.1487470000"><ele>601</ele><time>2026-03-18T14:48:27Z</time></trkpt>
<trkpt lat="43.0502850000" lon="0.1487270000"><ele>600</ele><time>2026-03-18T14:48:29Z</time></trkpt>
<trkpt lat="43.0503070000" lon="0.1487050000"><ele>600</ele><time>2026-03-18T14:48:31Z</time></trkpt>
<trkpt lat="43.0503270000" lon="0.1486820000"><ele>600</ele><time>2026-03-18T14:48:33Z</time></trkpt>
<trkpt lat="43.0503420000" lon="0.1486500000"><ele>599</ele><time>2026-03-18T14:48:35Z</time></trkpt>
<trkpt lat="43.0503520000" lon="0.1486150000"><ele>599</ele><time>2026-03-18T14:48:37Z</time></trkpt>
<trkpt lat="43.0503620000" lon="0.1485870000"><ele>599</ele><time>2026-03-18T14:48:39Z</time></trkpt>
<trkpt lat="43.0503750000" lon="0.1485650000"><ele>599</ele><time>2026-03-18T14:48:41Z</time></trkpt>
<trkpt lat="43.0503870000" lon="0.1485420000"><ele>599</ele><time>2026-03-18T14:48:43Z</time></trkpt>
<trkpt lat="43.0504020000" lon="0.1485270000"><ele>598</ele><time>2026-03-18T14:48:45Z</time></trkpt>
<trkpt lat="43.0504170000" lon="0.1485070000"><ele>598</ele><time>2026-03-18T14:48:47Z</time></trkpt>
<trkpt lat="43.0504300000" lon="0.1484770000"><ele>598</ele><time>2026-03-18T14:48:50Z</time></trkpt>
<trkpt lat="43.0504420000" lon="0.1484520000"><ele>598</ele><time>2026-03-18T14:48:52Z</time></trkpt>
<trkpt lat="43.0504550000" lon="0.1484370000"><ele>598</ele><time>2026-03-18T14:48:54Z</time></trkpt>
<trkpt lat="43.0504700000" lon="0.1484050000"><ele>598</ele><time>2026-03-18T14:48:56Z</time></trkpt>
<trkpt lat="43.0504820000" lon="0.1483820000"><ele>597</ele><time>2026-03-18T14:49:00Z</time></trkpt>
<trkpt lat="43.0505020000" lon="0.1483570000"><ele>597</ele><time>2026-03-18T14:49:02Z</time></trkpt>
<trkpt lat="43.0505200000" lon="0.1483270000"><ele>597</ele><time>2026-03-18T14:49:04Z</time></trkpt>
<trkpt lat="43.0505370000" lon="0.1482980000"><ele>597</ele><time>2026-03-18T14:49:06Z</time></trkpt>
<trkpt lat="43.0505450000" lon="0.1482700000"><ele>597</ele><time>2026-03-18T14:49:08Z</time></trkpt>
<trkpt lat="43.0505700000" lon="0.1482520000"><ele>597</ele><time>2026-03-18T14:49:10Z</time></trkpt>
<trkpt lat="43.0505870000" lon="0.1482220000"><ele>597</ele><time>2026-03-18T14:49:13Z</time></trkpt>
<trkpt lat="43.0506000000" lon="0.1481970000"><ele>597</ele><time>2026-03-18T14:49:15Z</time></trkpt>
<trkpt lat="43.0506020000" lon="0.1481620000"><ele>597</ele><time>2026-03-18T14:49:17Z</time></trkpt>
<trkpt lat="43.0506070000" lon="0.1481300000"><ele>597</ele><time>2026-03-18T14:49:19Z</time></trkpt>
<trkpt lat="43.0506170000" lon="0.1481080000"><ele>597</ele><time>2026-03-18T14:49:21Z</time></trkpt>
<trkpt lat="43.0506300000" lon="0.1480850000"><ele>596</ele><time>2026-03-18T14:49:23Z</time></trkpt>
<trkpt lat="43.0506420000" lon="0.1480650000"><ele>596</ele><time>2026-03-18T14:49:25Z</time></trkpt>
<trkpt lat="43.0506420000" lon="0.1480350000"><ele>596</ele><time>2026-03-18T14:49:27Z</time></trkpt>
<trkpt lat="43.0506650000" lon="0.1480150000"><ele>596</ele><time>2026-03-18T14:49:29Z</time></trkpt>
<trkpt lat="43.0506870000" lon="0.1479930000"><ele>596</ele><time>2026-03-18T14:49:31Z</time></trkpt>
<trkpt lat="43.0506920000" lon="0.1479720000"><ele>596</ele><time>2026-03-18T14:49:34Z</time></trkpt>
<trkpt lat="43.0507100000" lon="0.1479320000"><ele>595</ele><time>2026-03-18T14:49:49Z</time></trkpt>
<trkpt lat="43.0507320000" lon="0.1479000000"><ele>595</ele><time>2026-03-18T14:49:51Z</time></trkpt>
<trkpt lat="43.0507500000" lon="0.1478670000"><ele>595</ele><time>2026-03-18T14:49:53Z</time></trkpt>
<trkpt lat="43.0507570000" lon="0.1478370000"><ele>595</ele><time>2026-03-18T14:49:55Z</time></trkpt>
<trkpt lat="43.0507670000" lon="0.1478150000"><ele>595</ele><time>2026-03-18T14:49:57Z</time></trkpt>
<trkpt lat="43.0507720000" lon="0.1477850000"><ele>595</ele><time>2026-03-18T14:49:59Z</time></trkpt>
<trkpt lat="43.0507800000" lon="0.1477470000"><ele>595</ele><time>2026-03-18T14:50:01Z</time></trkpt>
<trkpt lat="43.0507920000" lon="0.1477150000"><ele>594</ele><time>2026-03-18T14:50:03Z</time></trkpt>
<trkpt lat="43.0508050000" lon="0.1476800000"><ele>594</ele><time>2026-03-18T14:50:05Z</time></trkpt>
<trkpt lat="43.0508170000" lon="0.1476520000"><ele>594</ele><time>2026-03-18T14:50:07Z</time></trkpt>
<trkpt lat="43.0508250000" lon="0.1476220000"><ele>594</ele><time>2026-03-18T14:50:09Z</time></trkpt>
<trkpt lat="43.0508270000" lon="0.1475900000"><ele>594</ele><time>2026-03-18T14:50:11Z</time></trkpt>
<trkpt lat="43.0508470000" lon="0.1475570000"><ele>593</ele><time>2026-03-18T14:50:14Z</time></trkpt>
<trkpt lat="43.0508570000" lon="0.1475270000"><ele>593</ele><time>2026-03-18T14:50:17Z</time></trkpt>
<trkpt lat="43.0508650000" lon="0.1474930000"><ele>593</ele><time>2026-03-18T14:50:20Z</time></trkpt>
<trkpt lat="43.0508800000" lon="0.1474650000"><ele>593</ele><time>2026-03-18T14:50:22Z</time></trkpt>
<trkpt lat="43.0508920000" lon="0.1474370000"><ele>593</ele><time>2026-03-18T14:50:24Z</time></trkpt>
<trkpt lat="43.0509050000" lon="0.1474120000"><ele>593</ele><time>2026-03-18T14:50:26Z</time></trkpt>
<trkpt lat="43.0509220000" lon="0.1473920000"><ele>592</ele><time>2026-03-18T14:50:28Z</time></trkpt>
<trkpt lat="43.0509400000" lon="0.1473770000"><ele>592</ele><time>2026-03-18T14:50:30Z</time></trkpt>
<trkpt lat="43.0509570000" lon="0.1473600000"><ele>592</ele><time>2026-03-18T14:50:32Z</time></trkpt>
<trkpt lat="43.0509630000" lon="0.1473200000"><ele>592</ele><time>2026-03-18T14:50:34Z</time></trkpt>
<trkpt lat="43.0509720000" lon="0.1472920000"><ele>592</ele><time>2026-03-18T14:50:36Z</time></trkpt>
<trkpt lat="43.0509920000" lon="0.1472620000"><ele>592</ele><time>2026-03-18T14:50:38Z</time></trkpt>
<trkpt lat="43.0510120000" lon="0.1472470000"><ele>591</ele><time>2026-03-18T14:50:40Z</time></trkpt>
<trkpt lat="43.0510270000" lon="0.1472220000"><ele>591</ele><time>2026-03-18T14:50:42Z</time></trkpt>
<trkpt lat="43.0510470000" lon="0.1472020000"><ele>591</ele><time>2026-03-18T14:50:44Z</time></trkpt>
<trkpt lat="43.0510600000" lon="0.1471820000"><ele>591</ele><time>2026-03-18T14:50:46Z</time></trkpt>
<trkpt lat="43.0510700000" lon="0.1471470000"><ele>590</ele><time>2026-03-18T14:50:49Z</time></trkpt>
<trkpt lat="43.0510720000" lon="0.1471220000"><ele>590</ele><time>2026-03-18T14:50:51Z</time></trkpt>
<trkpt lat="43.0510870000" lon="0.1470920000"><ele>590</ele><time>2026-03-18T14:50:54Z</time></trkpt>
<trkpt lat="43.0511070000" lon="0.1470650000"><ele>590</ele><time>2026-03-18T14:50:57Z</time></trkpt>
<trkpt lat="43.0511270000" lon="0.1470420000"><ele>589</ele><time>2026-03-18T14:50:59Z</time></trkpt>
<trkpt lat="43.0511470000" lon="0.1470170000"><ele>589</ele><time>2026-03-18T14:51:01Z</time></trkpt>
<trkpt lat="43.0511620000" lon="0.1470020000"><ele>589</ele><time>2026-03-18T14:51:02Z</time></trkpt>
<trkpt lat="43.0511800000" lon="0.1469820000"><ele>588</ele><time>2026-03-18T14:51:04Z</time></trkpt>
<trkpt lat="43.0511970000" lon="0.1469520000"><ele>588</ele><time>2026-03-18T14:51:06Z</time></trkpt>
<trkpt lat="43.0512100000" lon="0.1469200000"><ele>588</ele><time>2026-03-18T14:51:08Z</time></trkpt>
<trkpt lat="43.0512320000" lon="0.1468970000"><ele>587</ele><time>2026-03-18T14:51:11Z</time></trkpt>
<trkpt lat="43.0512570000" lon="0.1468720000"><ele>587</ele><time>2026-03-18T14:51:14Z</time></trkpt>
<trkpt lat="43.0512770000" lon="0.1468520000"><ele>587</ele><time>2026-03-18T14:51:17Z</time></trkpt>
<trkpt lat="43.0512920000" lon="0.1468370000"><ele>586</ele><time>2026-03-18T14:51:19Z</time></trkpt>
<trkpt lat="43.0513020000" lon="0.1468120000"><ele>586</ele><time>2026-03-18T14:51:23Z</time></trkpt>
<trkpt lat="43.0513150000" lon="0.1467950000"><ele>586</ele><time>2026-03-18T14:51:27Z</time></trkpt>
<trkpt lat="43.0513220000" lon="0.1467600000"><ele>586</ele><time>2026-03-18T14:51:40Z</time></trkpt>
<trkpt lat="43.0513170000" lon="0.1467170000"><ele>586</ele><time>2026-03-18T14:51:42Z</time></trkpt>
<trkpt lat="43.0513020000" lon="0.1466900000"><ele>585</ele><time>2026-03-18T14:51:44Z</time></trkpt>
<trkpt lat="43.0513170000" lon="0.1467120000"><ele>585</ele><time>2026-03-18T14:51:57Z</time></trkpt>
<trkpt lat="43.0513300000" lon="0.1467270000"><ele>585</ele><time>2026-03-18T14:52:01Z</time></trkpt>
<trkpt lat="43.0513420000" lon="0.1467470000"><ele>585</ele><time>2026-03-18T14:52:02Z</time></trkpt>
<trkpt lat="43.0513600000" lon="0.1467700000"><ele>585</ele><time>2026-03-18T14:52:03Z</time></trkpt>
<trkpt lat="43.0513750000" lon="0.1467900000"><ele>585</ele><time>2026-03-18T14:52:04Z</time></trkpt>
<trkpt lat="43.0513870000" lon="0.1468070000"><ele>585</ele><time>2026-03-18T14:52:05Z</time></trkpt>
<trkpt lat="43.0514070000" lon="0.1468300000"><ele>585</ele><time>2026-03-18T14:52:07Z</time></trkpt>
<trkpt lat="43.0514170000" lon="0.1468500000"><ele>586</ele><time>2026-03-18T14:52:10Z</time></trkpt>
<trkpt lat="43.0514370000" lon="0.1468470000"><ele>586</ele><time>2026-03-18T14:52:12Z</time></trkpt>
<trkpt lat="43.0514570000" lon="0.1468450000"><ele>586</ele><time>2026-03-18T14:52:14Z</time></trkpt>
<trkpt lat="43.0514770000" lon="0.1468450000"><ele>585</ele><time>2026-03-18T14:52:17Z</time></trkpt>
<trkpt lat="43.0514950000" lon="0.1468420000"><ele>585</ele><time>2026-03-18T14:52:20Z</time></trkpt>
<trkpt lat="43.0515170000" lon="0.1468500000"><ele>585</ele><time>2026-03-18T14:52:22Z</time></trkpt>
<trkpt lat="43.0515350000" lon="0.1468570000"><ele>585</ele><time>2026-03-18T14:52:24Z</time></trkpt>
<trkpt lat="43.0515520000" lon="0.1468670000"><ele>585</ele><time>2026-03-18T14:52:29Z</time></trkpt>
<trkpt lat="43.0515770000" lon="0.1468820000"><ele>585</ele><time>2026-03-18T14:52:33Z</time></trkpt>
<trkpt lat="43.0516020000" lon="0.1468920000"><ele>585</ele><time>2026-03-18T14:52:35Z</time></trkpt>
<trkpt lat="43.0516170000" lon="0.1469050000"><ele>585</ele><time>2026-03-18T14:52:37Z</time></trkpt>
<trkpt lat="43.0516400000" lon="0.1469170000"><ele>585</ele><time>2026-03-18T14:52:39Z</time></trkpt>
<trkpt lat="43.0516620000" lon="0.1469250000"><ele>585</ele><time>2026-03-18T14:52:41Z</time></trkpt>
<trkpt lat="43.0516820000" lon="0.1469380000"><ele>585</ele><time>2026-03-18T14:52:43Z</time></trkpt>
<trkpt lat="43.0516970000" lon="0.1469570000"><ele>585</ele><time>2026-03-18T14:52:47Z</time></trkpt>
<trkpt lat="43.0517120000" lon="0.1469770000"><ele>585</ele><time>2026-03-18T14:52:50Z</time></trkpt>
<trkpt lat="43.0517350000" lon="0.1470020000"><ele>585</ele><time>2026-03-18T14:52:53Z</time></trkpt>
<trkpt lat="43.0517520000" lon="0.1470070000"><ele>585</ele><time>2026-03-18T14:52:54Z</time></trkpt>
<trkpt lat="43.0517870000" lon="0.1470170000"><ele>585</ele><time>2026-03-18T14:52:56Z</time></trkpt>
<trkpt lat="43.0518070000" lon="0.1470200000"><ele>585</ele><time>2026-03-18T14:52:57Z</time></trkpt>
<trkpt lat="43.0518300000" lon="0.1470220000"><ele>584</ele><time>2026-03-18T14:52:58Z</time></trkpt>
<trkpt lat="43.0518550000" lon="0.1470230000"><ele>585</ele><time>2026-03-18T14:52:59Z</time></trkpt>
<trkpt lat="43.0518770000" lon="0.1470230000"><ele>584</ele><time>2026-03-18T14:53:00Z</time></trkpt>
<trkpt lat="43.0519020000" lon="0.1470320000"><ele>584</ele><time>2026-03-18T14:53:02Z</time></trkpt>
<trkpt lat="43.0519400000" lon="0.1470370000"><ele>584</ele><time>2026-03-18T14:53:04Z</time></trkpt>
<trkpt lat="43.0519650000" lon="0.1470470000"><ele>584</ele><time>2026-03-18T14:53:06Z</time></trkpt>
<trkpt lat="43.0519820000" lon="0.1470480000"><ele>584</ele><time>2026-03-18T14:53:08Z</time></trkpt>
<trkpt lat="43.0520000000" lon="0.1470670000"><ele>584</ele><time>2026-03-18T14:53:10Z</time></trkpt>
<trkpt lat="43.0520150000" lon="0.1470820000"><ele>584</ele><time>2026-03-18T14:53:12Z</time></trkpt>
<trkpt lat="43.0520320000" lon="0.1470920000"><ele>584</ele><time>2026-03-18T14:53:14Z</time></trkpt>
<trkpt lat="43.0520470000" lon="0.1471100000"><ele>584</ele><time>2026-03-18T14:53:22Z</time></trkpt>
<trkpt lat="43.0520720000" lon="0.1470970000"><ele>584</ele><time>2026-03-18T14:53:27Z</time></trkpt>
<trkpt lat="43.0520920000" lon="0.1470870000"><ele>583</ele><time>2026-03-18T14:53:33Z</time></trkpt>
<trkpt lat="43.0521120000" lon="0.1470970000"><ele>583</ele><time>2026-03-18T14:53:35Z</time></trkpt>
<trkpt lat="43.0521220000" lon="0.1471170000"><ele>583</ele><time>2026-03-18T14:53:38Z</time></trkpt>
<trkpt lat="43.0521270000" lon="0.1470900000"><ele>582</ele><time>2026-03-18T14:54:28Z</time></trkpt>
<trkpt lat="43.0521300000" lon="0.1471220000"><ele>581</ele><time>2026-03-18T14:55:52Z</time></trkpt>
<trkpt lat="43.0521120000" lon="0.1471420000"><ele>582</ele><time>2026-03-18T14:56:20Z</time></trkpt>
<trkpt lat="43.0520950000" lon="0.1471380000"><ele>581</ele><time>2026-03-18T14:56:26Z</time></trkpt>
<trkpt lat="43.0521170000" lon="0.1471470000"><ele>581</ele><time>2026-03-18T14:57:19Z</time></trkpt>
<trkpt lat="43.0521450000" lon="0.1471500000"><ele>581</ele><time>2026-03-18T14:57:21Z</time></trkpt>
<trkpt lat="43.0521350000" lon="0.1471270000"><ele>581</ele><time>2026-03-18T14:57:35Z</time></trkpt>
<trkpt lat="43.0521170000" lon="0.1471270000"><ele>581</ele><time>2026-03-18T14:57:37Z</time></trkpt>
<trkpt lat="43.0520970000" lon="0.1471520000"><ele>581</ele><time>2026-03-18T14:57:41Z</time></trkpt>
<trkpt lat="43.0521120000" lon="0.1471370000"><ele>581</ele><time>2026-03-18T14:58:46Z</time></trkpt>
<trkpt lat="43.0521370000" lon="0.1471550000"><ele>581</ele><time>2026-03-18T15:00:05Z</time></trkpt>
<trkpt lat="43.0521570000" lon="0.1471770000"><ele>581</ele><time>2026-03-18T15:00:07Z</time></trkpt>
<trkpt lat="43.0521730000" lon="0.1471920000"><ele>581</ele><time>2026-03-18T15:00:09Z</time></trkpt>
<trkpt lat="43.0521970000" lon="0.1472070000"><ele>581</ele><time>2026-03-18T15:00:11Z</time></trkpt>
<trkpt lat="43.0522220000" lon="0.1472120000"><ele>581</ele><time>2026-03-18T15:00:13Z</time></trkpt>
<trkpt lat="43.0522450000" lon="0.1472350000"><ele>580</ele><time>2026-03-18T15:00:16Z</time></trkpt>
<trkpt lat="43.0522620000" lon="0.1472500000"><ele>580</ele><time>2026-03-18T15:00:18Z</time></trkpt>
<trkpt lat="43.0522870000" lon="0.1472650000"><ele>580</ele><time>2026-03-18T15:00:21Z</time></trkpt>
<trkpt lat="43.0523070000" lon="0.1472720000"><ele>580</ele><time>2026-03-18T15:00:24Z</time></trkpt>
<trkpt lat="43.0523320000" lon="0.1472770000"><ele>580</ele><time>2026-03-18T15:00:27Z</time></trkpt>
<trkpt lat="43.0523670000" lon="0.1472830000"><ele>580</ele><time>2026-03-18T15:00:29Z</time></trkpt>
<trkpt lat="43.0523870000" lon="0.1473020000"><ele>580</ele><time>2026-03-18T15:00:32Z</time></trkpt>
<trkpt lat="43.0524070000" lon="0.1473320000"><ele>579</ele><time>2026-03-18T15:00:35Z</time></trkpt>
<trkpt lat="43.0524300000" lon="0.1473520000"><ele>579</ele><time>2026-03-18T15:00:37Z</time></trkpt>
<trkpt lat="43.0524500000" lon="0.1473600000"><ele>579</ele><time>2026-03-18T15:00:39Z</time></trkpt>
<trkpt lat="43.0524800000" lon="0.1473670000"><ele>579</ele><time>2026-03-18T15:00:41Z</time></trkpt>
<trkpt lat="43.0524970000" lon="0.1473720000"><ele>579</ele><time>2026-03-18T15:00:43Z</time></trkpt>
<trkpt lat="43.0525220000" lon="0.1473770000"><ele>578</ele><time>2026-03-18T15:00:45Z</time></trkpt>
<trkpt lat="43.0525470000" lon="0.1473870000"><ele>578</ele><time>2026-03-18T15:00:47Z</time></trkpt>
<trkpt lat="43.0525670000" lon="0.1473900000"><ele>578</ele><time>2026-03-18T15:00:49Z</time></trkpt>
<trkpt lat="43.0525920000" lon="0.1474020000"><ele>578</ele><time>2026-03-18T15:00:51Z</time></trkpt>
<trkpt lat="43.0526170000" lon="0.1474170000"><ele>578</ele><time>2026-03-18T15:00:53Z</time></trkpt>
<trkpt lat="43.0526320000" lon="0.1474350000"><ele>578</ele><time>2026-03-18T15:00:55Z</time></trkpt>
<trkpt lat="43.0526620000" lon="0.1474380000"><ele>578</ele><time>2026-03-18T15:00:57Z</time></trkpt>
<trkpt lat="43.0526870000" lon="0.1474520000"><ele>578</ele><time>2026-03-18T15:00:59Z</time></trkpt>
<trkpt lat="43.0527170000" lon="0.1474600000"><ele>578</ele><time>2026-03-18T15:01:01Z</time></trkpt>
<trkpt lat="43.0527450000" lon="0.1474650000"><ele>578</ele><time>2026-03-18T15:01:03Z</time></trkpt>
<trkpt lat="43.0527650000" lon="0.1474900000"><ele>578</ele><time>2026-03-18T15:01:05Z</time></trkpt>
<trkpt lat="43.0527900000" lon="0.1474970000"><ele>578</ele><time>2026-03-18T15:01:07Z</time></trkpt>
<trkpt lat="43.0528120000" lon="0.1474930000"><ele>578</ele><time>2026-03-18T15:01:09Z</time></trkpt>
<trkpt lat="43.0528300000" lon="0.1474870000"><ele>578</ele><time>2026-03-18T15:01:11Z</time></trkpt>
<trkpt lat="43.0528570000" lon="0.1474900000"><ele>578</ele><time>2026-03-18T15:01:13Z</time></trkpt>
<trkpt lat="43.0528750000" lon="0.1474970000"><ele>578</ele><time>2026-03-18T15:01:15Z</time></trkpt>
<trkpt lat="43.0528970000" lon="0.1475020000"><ele>577</ele><time>2026-03-18T15:01:17Z</time></trkpt>
<trkpt lat="43.0529150000" lon="0.1475050000"><ele>577</ele><time>2026-03-18T15:01:19Z</time></trkpt>
<trkpt lat="43.0529330000" lon="0.1475120000"><ele>577</ele><time>2026-03-18T15:01:21Z</time></trkpt>
<trkpt lat="43.0529570000" lon="0.1475120000"><ele>577</ele><time>2026-03-18T15:01:24Z</time></trkpt>
<trkpt lat="43.0529850000" lon="0.1475220000"><ele>577</ele><time>2026-03-18T15:01:26Z</time></trkpt>
<trkpt lat="43.0530120000" lon="0.1475300000"><ele>577</ele><time>2026-03-18T15:01:28Z</time></trkpt>
<trkpt lat="43.0530420000" lon="0.1475220000"><ele>577</ele><time>2026-03-18T15:01:30Z</time></trkpt>
<trkpt lat="43.0530700000" lon="0.1475120000"><ele>577</ele><time>2026-03-18T15:01:33Z</time></trkpt>
<trkpt lat="43.0530870000" lon="0.1475170000"><ele>577</ele><time>2026-03-18T15:01:35Z</time></trkpt>
<trkpt lat="43.0531070000" lon="0.1475250000"><ele>577</ele><time>2026-03-18T15:01:37Z</time></trkpt>
<trkpt lat="43.0531350000" lon="0.1475370000"><ele>577</ele><time>2026-03-18T15:01:39Z</time></trkpt>
<trkpt lat="43.0531550000" lon="0.1475420000"><ele>577</ele><time>2026-03-18T15:01:41Z</time></trkpt>
<trkpt lat="43.0531570000" lon="0.1475720000"><ele>576</ele><time>2026-03-18T15:01:44Z</time></trkpt>
<trkpt lat="43.0531770000" lon="0.1475820000"><ele>576</ele><time>2026-03-18T15:01:46Z</time></trkpt>
<trkpt lat="43.0532050000" lon="0.1475720000"><ele>576</ele><time>2026-03-18T15:01:48Z</time></trkpt>
<trkpt lat="43.0532300000" lon="0.1475530000"><ele>576</ele><time>2026-03-18T15:01:51Z</time></trkpt>
<trkpt lat="43.0532520000" lon="0.1475400000"><ele>576</ele><time>2026-03-18T15:01:56Z</time></trkpt>
<trkpt lat="43.0532770000" lon="0.1475370000"><ele>576</ele><time>2026-03-18T15:01:58Z</time></trkpt>
<trkpt lat="43.0533020000" lon="0.1475370000"><ele>576</ele><time>2026-03-18T15:02:00Z</time></trkpt>
<trkpt lat="43.0533300000" lon="0.1475350000"><ele>576</ele><time>2026-03-18T15:02:02Z</time></trkpt>
<trkpt lat="43.0533520000" lon="0.1475350000"><ele>576</ele><time>2026-03-18T15:02:04Z</time></trkpt>
<trkpt lat="43.0533770000" lon="0.1475370000"><ele>576</ele><time>2026-03-18T15:02:06Z</time></trkpt>
<trkpt lat="43.0533970000" lon="0.1475420000"><ele>576</ele><time>2026-03-18T15:02:07Z</time></trkpt>
<trkpt lat="43.0534270000" lon="0.1475400000"><ele>576</ele><time>2026-03-18T15:02:09Z</time></trkpt>
<trkpt lat="43.0534550000" lon="0.1475320000"><ele>576</ele><time>2026-03-18T15:02:11Z</time></trkpt>
<trkpt lat="43.0534820000" lon="0.1475320000"><ele>576</ele><time>2026-03-18T15:02:13Z</time></trkpt>
<trkpt lat="43.0535070000" lon="0.1475370000"><ele>576</ele><time>2026-03-18T15:02:15Z</time></trkpt>
<trkpt lat="43.0535320000" lon="0.1475480000"><ele>576</ele><time>2026-03-18T15:02:17Z</time></trkpt>
<trkpt lat="43.0535550000" lon="0.1475400000"><ele>576</ele><time>2026-03-18T15:02:19Z</time></trkpt>
<trkpt lat="43.0535820000" lon="0.1475450000"><ele>576</ele><time>2026-03-18T15:02:21Z</time></trkpt>
<trkpt lat="43.0535970000" lon="0.1475570000"><ele>576</ele><time>2026-03-18T15:02:22Z</time></trkpt>
<trkpt lat="43.0536200000" lon="0.1475530000"><ele>575</ele><time>2026-03-18T15:02:24Z</time></trkpt>
<trkpt lat="43.0536420000" lon="0.1475530000"><ele>575</ele><time>2026-03-18T15:02:26Z</time></trkpt>
<trkpt lat="43.0536600000" lon="0.1475620000"><ele>576</ele><time>2026-03-18T15:02:28Z</time></trkpt>
<trkpt lat="43.0536820000" lon="0.1475520000"><ele>576</ele><time>2026-03-18T15:02:30Z</time></trkpt>
<trkpt lat="43.0537020000" lon="0.1475250000"><ele>576</ele><time>2026-03-18T15:02:33Z</time></trkpt>
<trkpt lat="43.0537220000" lon="0.1475070000"><ele>576</ele><time>2026-03-18T15:02:36Z</time></trkpt>
<trkpt lat="43.0537420000" lon="0.1475000000"><ele>576</ele><time>2026-03-18T15:02:38Z</time></trkpt>
<trkpt lat="43.0537670000" lon="0.1474770000"><ele>575</ele><time>2026-03-18T15:02:41Z</time></trkpt>
<trkpt lat="43.0537870000" lon="0.1474570000"><ele>575</ele><time>2026-03-18T15:02:43Z</time></trkpt>
<trkpt lat="43.0538070000" lon="0.1474300000"><ele>575</ele><time>2026-03-18T15:02:45Z</time></trkpt>
<trkpt lat="43.0538270000" lon="0.1474120000"><ele>575</ele><time>2026-03-18T15:02:47Z</time></trkpt>
<trkpt lat="43.0538570000" lon="0.1473920000"><ele>575</ele><time>2026-03-18T15:02:49Z</time></trkpt>
<trkpt lat="43.0538750000" lon="0.1473800000"><ele>575</ele><time>2026-03-18T15:02:50Z</time></trkpt>
<trkpt lat="43.0538920000" lon="0.1473770000"><ele>575</ele><time>2026-03-18T15:02:56Z</time></trkpt>
<trkpt lat="43.0539150000" lon="0.1473720000"><ele>575</ele><time>2026-03-18T15:02:58Z</time></trkpt>
<trkpt lat="43.0539470000" lon="0.1473650000"><ele>575</ele><time>2026-03-18T15:03:00Z</time></trkpt>
<trkpt lat="43.0539670000" lon="0.1473620000"><ele>575</ele><time>2026-03-18T15:03:02Z</time></trkpt>
<trkpt lat="43.0539950000" lon="0.1473550000"><ele>575</ele><time>2026-03-18T15:03:05Z</time></trkpt>
<trkpt lat="43.0540170000" lon="0.1473400000"><ele>575</ele><time>2026-03-18T15:03:08Z</time></trkpt>
<trkpt lat="43.0540320000" lon="0.1473120000"><ele>575</ele><time>2026-03-18T15:03:10Z</time></trkpt>
<trkpt lat="43.0540500000" lon="0.1472970000"><ele>575</ele><time>2026-03-18T15:03:12Z</time></trkpt>
<trkpt lat="43.0540700000" lon="0.1472670000"><ele>575</ele><time>2026-03-18T15:03:14Z</time></trkpt>
<trkpt lat="43.0540870000" lon="0.1472420000"><ele>575</ele><time>2026-03-18T15:03:16Z</time></trkpt>
<trkpt lat="43.0541120000" lon="0.1472220000"><ele>575</ele><time>2026-03-18T15:03:18Z</time></trkpt>
<trkpt lat="43.0541200000" lon="0.1471950000"><ele>574</ele><time>2026-03-18T15:03:20Z</time></trkpt>
<trkpt lat="43.0541370000" lon="0.1471630000"><ele>574</ele><time>2026-03-18T15:03:23Z</time></trkpt>
<trkpt lat="43.0541500000" lon="0.1471420000"><ele>574</ele><time>2026-03-18T15:03:25Z</time></trkpt>
<trkpt lat="43.0541670000" lon="0.1471220000"><ele>574</ele><time>2026-03-18T15:03:27Z</time></trkpt>
<trkpt lat="43.0541870000" lon="0.1471020000"><ele>574</ele><time>2026-03-18T15:03:29Z</time></trkpt>
<trkpt lat="43.0542020000" lon="0.1470820000"><ele>574</ele><time>2026-03-18T15:03:30Z</time></trkpt>
<trkpt lat="43.0542250000" lon="0.1470520000"><ele>574</ele><time>2026-03-18T15:03:32Z</time></trkpt>
<trkpt lat="43.0542470000" lon="0.1470280000"><ele>574</ele><time>2026-03-18T15:03:34Z</time></trkpt>
<trkpt lat="43.0542670000" lon="0.1470120000"><ele>574</ele><time>2026-03-18T15:03:36Z</time></trkpt>
<trkpt lat="43.0542900000" lon="0.1469800000"><ele>574</ele><time>2026-03-18T15:03:39Z</time></trkpt>
<trkpt lat="43.0543070000" lon="0.1469500000"><ele>574</ele><time>2026-03-18T15:03:41Z</time></trkpt>
<trkpt lat="43.0543120000" lon="0.1469130000"><ele>574</ele><time>2026-03-18T15:03:42Z</time></trkpt>
<trkpt lat="43.0543220000" lon="0.1468680000"><ele>574</ele><time>2026-03-18T15:03:44Z</time></trkpt>
<trkpt lat="43.0543320000" lon="0.1468370000"><ele>574</ele><time>2026-03-18T15:03:46Z</time></trkpt>
<trkpt lat="43.0543500000" lon="0.1468100000"><ele>574</ele><time>2026-03-18T15:03:48Z</time></trkpt>
<trkpt lat="43.0543620000" lon="0.1467800000"><ele>574</ele><time>2026-03-18T15:03:50Z</time></trkpt>
<trkpt lat="43.0543450000" lon="0.1467570000"><ele>574</ele><time>2026-03-18T15:03:51Z</time></trkpt>
<trkpt lat="43.0543370000" lon="0.1467220000"><ele>574</ele><time>2026-03-18T15:03:53Z</time></trkpt>
<trkpt lat="43.0543370000" lon="0.1466970000"><ele>574</ele><time>2026-03-18T15:03:55Z</time></trkpt>
<trkpt lat="43.0543300000" lon="0.1466750000"><ele>574</ele><time>2026-03-18T15:03:58Z</time></trkpt>
<trkpt lat="43.0543420000" lon="0.1466370000"><ele>574</ele><time>2026-03-18T15:04:00Z</time></trkpt>
<trkpt lat="43.0543570000" lon="0.1465970000"><ele>574</ele><time>2026-03-18T15:04:02Z</time></trkpt>
<trkpt lat="43.0543670000" lon="0.1465770000"><ele>574</ele><time>2026-03-18T15:04:03Z</time></trkpt>
<trkpt lat="43.0543820000" lon="0.1465470000"><ele>574</ele><time>2026-03-18T15:04:05Z</time></trkpt>
<trkpt lat="43.0543970000" lon="0.1465020000"><ele>574</ele><time>2026-03-18T15:04:07Z</time></trkpt>
<trkpt lat="43.0544050000" lon="0.1464680000"><ele>574</ele><time>2026-03-18T15:04:09Z</time></trkpt>
<trkpt lat="43.0544170000" lon="0.1464380000"><ele>574</ele><time>2026-03-18T15:04:11Z</time></trkpt>
<trkpt lat="43.0544370000" lon="0.1464100000"><ele>574</ele><time>2026-03-18T15:04:13Z</time></trkpt>
<trkpt lat="43.0544500000" lon="0.1463770000"><ele>574</ele><time>2026-03-18T15:04:15Z</time></trkpt>
<trkpt lat="43.0544500000" lon="0.1463370000"><ele>573</ele><time>2026-03-18T15:04:17Z</time></trkpt>
<trkpt lat="43.0544670000" lon="0.1463070000"><ele>573</ele><time>2026-03-18T15:04:19Z</time></trkpt>
<trkpt lat="43.0544820000" lon="0.1462770000"><ele>573</ele><time>2026-03-18T15:04:21Z</time></trkpt>
<trkpt lat="43.0544970000" lon="0.1462520000"><ele>573</ele><time>2026-03-18T15:04:23Z</time></trkpt>
<trkpt lat="43.0545150000" lon="0.1462320000"><ele>573</ele><time>2026-03-18T15:04:25Z</time></trkpt>
<trkpt lat="43.0545300000" lon="0.1461920000"><ele>573</ele><time>2026-03-18T15:04:27Z</time></trkpt>
<trkpt lat="43.0545520000" lon="0.1461680000"><ele>573</ele><time>2026-03-18T15:04:29Z</time></trkpt>
<trkpt lat="43.0545670000" lon="0.1461520000"><ele>573</ele><time>2026-03-18T15:04:31Z</time></trkpt>
<trkpt lat="43.0545800000" lon="0.1461250000"><ele>573</ele><time>2026-03-18T15:04:33Z</time></trkpt>
<trkpt lat="43.0546080000" lon="0.1460920000"><ele>573</ele><time>2026-03-18T15:04:35Z</time></trkpt>
<trkpt lat="43.0546320000" lon="0.1460700000"><ele>573</ele><time>2026-03-18T15:04:37Z</time></trkpt>
<trkpt lat="43.0546570000" lon="0.1460620000"><ele>573</ele><time>2026-03-18T15:04:39Z</time></trkpt>
<trkpt lat="43.0546820000" lon="0.1460570000"><ele>573</ele><time>2026-03-18T15:04:41Z</time></trkpt>
<trkpt lat="43.0547070000" lon="0.1460520000"><ele>573</ele><time>2026-03-18T15:04:43Z</time></trkpt>
<trkpt lat="43.0547320000" lon="0.1460370000"><ele>573</ele><time>2026-03-18T15:04:45Z</time></trkpt>
<trkpt lat="43.0547550000" lon="0.1460170000"><ele>573</ele><time>2026-03-18T15:04:47Z</time></trkpt>
<trkpt lat="43.0547800000" lon="0.1459850000"><ele>573</ele><time>2026-03-18T15:04:49Z</time></trkpt>
<trkpt lat="43.0547920000" lon="0.1459620000"><ele>573</ele><time>2026-03-18T15:04:51Z</time></trkpt>
<trkpt lat="43.0548220000" lon="0.1459620000"><ele>573</ele><time>2026-03-18T15:04:53Z</time></trkpt>
<trkpt lat="43.0548500000" lon="0.1459620000"><ele>573</ele><time>2026-03-18T15:04:55Z</time></trkpt>
<trkpt lat="43.0548750000" lon="0.1459620000"><ele>573</ele><time>2026-03-18T15:04:57Z</time></trkpt>
<trkpt lat="43.0549070000" lon="0.1459570000"><ele>573</ele><time>2026-03-18T15:05:00Z</time></trkpt>
<trkpt lat="43.0549370000" lon="0.1459550000"><ele>573</ele><time>2026-03-18T15:05:02Z</time></trkpt>
<trkpt lat="43.0549600000" lon="0.1459620000"><ele>573</ele><time>2026-03-18T15:05:04Z</time></trkpt>
<trkpt lat="43.0549920000" lon="0.1459800000"><ele>573</ele><time>2026-03-18T15:05:06Z</time></trkpt>
<trkpt lat="43.0550250000" lon="0.1460100000"><ele>573</ele><time>2026-03-18T15:05:08Z</time></trkpt>
<trkpt lat="43.0550470000" lon="0.1460220000"><ele>573</ele><time>2026-03-18T15:05:09Z</time></trkpt>
<trkpt lat="43.0550650000" lon="0.1460320000"><ele>573</ele><time>2026-03-18T15:05:10Z</time></trkpt>
<trkpt lat="43.0550870000" lon="0.1460370000"><ele>573</ele><time>2026-03-18T15:05:12Z</time></trkpt>
<trkpt lat="43.0551120000" lon="0.1460170000"><ele>573</ele><time>2026-03-18T15:05:14Z</time></trkpt>
<trkpt lat="43.0551370000" lon="0.1460050000"><ele>573</ele><time>2026-03-18T15:05:15Z</time></trkpt>
<trkpt lat="43.0551620000" lon="0.1459970000"><ele>573</ele><time>2026-03-18T15:05:17Z</time></trkpt>
<trkpt lat="43.0551870000" lon="0.1459770000"><ele>573</ele><time>2026-03-18T15:05:19Z</time></trkpt>
<trkpt lat="43.0552070000" lon="0.1459570000"><ele>573</ele><time>2026-03-18T15:05:21Z</time></trkpt>
<trkpt lat="43.0552320000" lon="0.1459430000"><ele>573</ele><time>2026-03-18T15:05:23Z</time></trkpt>
<trkpt lat="43.0552470000" lon="0.1459220000"><ele>573</ele><time>2026-03-18T15:05:25Z</time></trkpt>
<trkpt lat="43.0552570000" lon="0.1458970000"><ele>573</ele><time>2026-03-18T15:05:27Z</time></trkpt>
<trkpt lat="43.0552820000" lon="0.1458820000"><ele>573</ele><time>2026-03-18T15:05:29Z</time></trkpt>
<trkpt lat="43.0553050000" lon="0.1458770000"><ele>573</ele><time>2026-03-18T15:05:31Z</time></trkpt>
<trkpt lat="43.0553270000" lon="0.1458720000"><ele>573</ele><time>2026-03-18T15:05:33Z</time></trkpt>
<trkpt lat="43.0553520000" lon="0.1458700000"><ele>573</ele><time>2026-03-18T15:05:35Z</time></trkpt>
<trkpt lat="43.0553800000" lon="0.1458700000"><ele>573</ele><time>2026-03-18T15:05:37Z</time></trkpt>
<trkpt lat="43.0554020000" lon="0.1458750000"><ele>573</ele><time>2026-03-18T15:05:39Z</time></trkpt>
<trkpt lat="43.0554250000" lon="0.1458700000"><ele>573</ele><time>2026-03-18T15:05:41Z</time></trkpt>
<trkpt lat="43.0554470000" lon="0.1458670000"><ele>572</ele><time>2026-03-18T15:05:44Z</time></trkpt>
<trkpt lat="43.0554750000" lon="0.1458670000"><ele>572</ele><time>2026-03-18T15:05:47Z</time></trkpt>
<trkpt lat="43.0554970000" lon="0.1458620000"><ele>572</ele><time>2026-03-18T15:05:49Z</time></trkpt>
<trkpt lat="43.0555200000" lon="0.1458550000"><ele>572</ele><time>2026-03-18T15:05:51Z</time></trkpt>
<trkpt lat="43.0555500000" lon="0.1458620000"><ele>572</ele><time>2026-03-18T15:05:53Z</time></trkpt>
<trkpt lat="43.0555820000" lon="0.1458770000"><ele>572</ele><time>2026-03-18T15:05:55Z</time></trkpt>
<trkpt lat="43.0556120000" lon="0.1458880000"><ele>572</ele><time>2026-03-18T15:05:57Z</time></trkpt>
<trkpt lat="43.0556350000" lon="0.1458970000"><ele>572</ele><time>2026-03-18T15:05:59Z</time></trkpt>
<trkpt lat="43.0556620000" lon="0.1459120000"><ele>572</ele><time>2026-03-18T15:06:01Z</time></trkpt>
<trkpt lat="43.0556870000" lon="0.1459220000"><ele>572</ele><time>2026-03-18T15:06:03Z</time></trkpt>
<trkpt lat="43.0557120000" lon="0.1459270000"><ele>572</ele><time>2026-03-18T15:06:05Z</time></trkpt>
<trkpt lat="43.0557370000" lon="0.1459320000"><ele>572</ele><time>2026-03-18T15:06:07Z</time></trkpt>
<trkpt lat="43.0557650000" lon="0.1459350000"><ele>572</ele><time>2026-03-18T15:06:09Z</time></trkpt>
<trkpt lat="43.0557850000" lon="0.1459420000"><ele>572</ele><time>2026-03-18T15:06:11Z</time></trkpt>
<trkpt lat="43.0558050000" lon="0.1459430000"><ele>572</ele><time>2026-03-18T15:06:13Z</time></trkpt>
<trkpt lat="43.0558270000" lon="0.1459380000"><ele>572</ele><time>2026-03-18T15:06:15Z</time></trkpt>
<trkpt lat="43.0558520000" lon="0.1459320000"><ele>572</ele><time>2026-03-18T15:06:17Z</time></trkpt>
<trkpt lat="43.0558750000" lon="0.1459170000"><ele>572</ele><time>2026-03-18T15:06:19Z</time></trkpt>
<trkpt lat="43.0558920000" lon="0.1459020000"><ele>572</ele><time>2026-03-18T15:06:21Z</time></trkpt>
<trkpt lat="43.0559120000" lon="0.1458870000"><ele>572</ele><time>2026-03-18T15:06:23Z</time></trkpt>
<trkpt lat="43.0559370000" lon="0.1458670000"><ele>572</ele><time>2026-03-18T15:06:25Z</time></trkpt>
<trkpt lat="43.0559570000" lon="0.1458470000"><ele>572</ele><time>2026-03-18T15:06:28Z</time></trkpt>
<trkpt lat="43.0559870000" lon="0.1458320000"><ele>572</ele><time>2026-03-18T15:06:30Z</time></trkpt>
<trkpt lat="43.0560250000" lon="0.1458120000"><ele>572</ele><time>2026-03-18T15:06:32Z</time></trkpt>
<trkpt lat="43.0560520000" lon="0.1458020000"><ele>572</ele><time>2026-03-18T15:06:34Z</time></trkpt>
<trkpt lat="43.0560720000" lon="0.1457950000"><ele>571</ele><time>2026-03-18T15:06:36Z</time></trkpt>
<trkpt lat="43.0560950000" lon="0.1457770000"><ele>571</ele><time>2026-03-18T15:06:39Z</time></trkpt>
<trkpt lat="43.0561120000" lon="0.1457650000"><ele>571</ele><time>2026-03-18T15:06:41Z</time></trkpt>
<trkpt lat="43.0561320000" lon="0.1457480000"><ele>571</ele><time>2026-03-18T15:06:43Z</time></trkpt>
<trkpt lat="43.0561620000" lon="0.1457400000"><ele>571</ele><time>2026-03-18T15:06:45Z</time></trkpt>
<trkpt lat="43.0561820000" lon="0.1457320000"><ele>571</ele><time>2026-03-18T15:06:47Z</time></trkpt>
<trkpt lat="43.0562020000" lon="0.1457200000"><ele>571</ele><time>2026-03-18T15:06:49Z</time></trkpt>
<trkpt lat="43.0562120000" lon="0.1456970000"><ele>571</ele><time>2026-03-18T15:06:52Z</time></trkpt>
<trkpt lat="43.0562420000" lon="0.1457170000"><ele>571</ele><time>2026-03-18T15:06:54Z</time></trkpt>
<trkpt lat="43.0562620000" lon="0.1457270000"><ele>571</ele><time>2026-03-18T15:06:57Z</time></trkpt>
<trkpt lat="43.0562770000" lon="0.1457120000"><ele>571</ele><time>2026-03-18T15:07:00Z</time></trkpt>
<trkpt lat="43.0563100000" lon="0.1457120000"><ele>571</ele><time>2026-03-18T15:07:03Z</time></trkpt>
<trkpt lat="43.0563370000" lon="0.1457020000"><ele>571</ele><time>2026-03-18T15:07:05Z</time></trkpt>
<trkpt lat="43.0563670000" lon="0.1456820000"><ele>571</ele><time>2026-03-18T15:07:07Z</time></trkpt>
<trkpt lat="43.0563870000" lon="0.1456630000"><ele>571</ele><time>2026-03-18T15:07:08Z</time></trkpt>
<trkpt lat="43.0564100000" lon="0.1456370000"><ele>571</ele><time>2026-03-18T15:07:10Z</time></trkpt>
<trkpt lat="43.0564350000" lon="0.1456070000"><ele>571</ele><time>2026-03-18T15:07:12Z</time></trkpt>
<trkpt lat="43.0564570000" lon="0.1455870000"><ele>571</ele><time>2026-03-18T15:07:14Z</time></trkpt>
<trkpt lat="43.0564770000" lon="0.1455820000"><ele>571</ele><time>2026-03-18T15:07:16Z</time></trkpt>
<trkpt lat="43.0564970000" lon="0.1455770000"><ele>571</ele><time>2026-03-18T15:07:18Z</time></trkpt>
<trkpt lat="43.0565220000" lon="0.1455770000"><ele>571</ele><time>2026-03-18T15:07:20Z</time></trkpt>
<trkpt lat="43.0565470000" lon="0.1455770000"><ele>571</ele><time>2026-03-18T15:07:22Z</time></trkpt>
<trkpt lat="43.0565650000" lon="0.1455620000"><ele>571</ele><time>2026-03-18T15:07:24Z</time></trkpt>
<trkpt lat="43.0565850000" lon="0.1455570000"><ele>571</ele><time>2026-03-18T15:07:26Z</time></trkpt>
<trkpt lat="43.0566070000" lon="0.1455470000"><ele>571</ele><time>2026-03-18T15:07:28Z</time></trkpt>
<trkpt lat="43.0566270000" lon="0.1455370000"><ele>571</ele><time>2026-03-18T15:07:30Z</time></trkpt>
<trkpt lat="43.0566480000" lon="0.1455300000"><ele>571</ele><time>2026-03-18T15:07:32Z</time></trkpt>
<trkpt lat="43.0566750000" lon="0.1455350000"><ele>570</ele><time>2026-03-18T15:07:34Z</time></trkpt>
<trkpt lat="43.0566970000" lon="0.1455170000"><ele>570</ele><time>2026-03-18T15:07:36Z</time></trkpt>
<trkpt lat="43.0567200000" lon="0.1455200000"><ele>570</ele><time>2026-03-18T15:07:38Z</time></trkpt>
<trkpt lat="43.0567450000" lon="0.1455230000"><ele>570</ele><time>2026-03-18T15:07:40Z</time></trkpt>
<trkpt lat="43.0567720000" lon="0.1455270000"><ele>570</ele><time>2026-03-18T15:07:42Z</time></trkpt>
<trkpt lat="43.0567970000" lon="0.1455400000"><ele>570</ele><time>2026-03-18T15:07:44Z</time></trkpt>
<trkpt lat="43.0568250000" lon="0.1455500000"><ele>570</ele><time>2026-03-18T15:07:46Z</time></trkpt>
<trkpt lat="43.0568450000" lon="0.1455570000"><ele>570</ele><time>2026-03-18T15:07:47Z</time></trkpt>
<trkpt lat="43.0568770000" lon="0.1455620000"><ele>570</ele><time>2026-03-18T15:07:49Z</time></trkpt>
<trkpt lat="43.0569020000" lon="0.1455620000"><ele>570</ele><time>2026-03-18T15:07:51Z</time></trkpt>
<trkpt lat="43.0569270000" lon="0.1455720000"><ele>570</ele><time>2026-03-18T15:07:53Z</time></trkpt>
<trkpt lat="43.0569470000" lon="0.1455920000"><ele>570</ele><time>2026-03-18T15:07:54Z</time></trkpt>
<trkpt lat="43.0569720000" lon="0.1456070000"><ele>570</ele><time>2026-03-18T15:07:56Z</time></trkpt>
<trkpt lat="43.0570020000" lon="0.1456220000"><ele>570</ele><time>2026-03-18T15:07:58Z</time></trkpt>
<trkpt lat="43.0570320000" lon="0.1456270000"><ele>570</ele><time>2026-03-18T15:08:00Z</time></trkpt>
<trkpt lat="43.0570500000" lon="0.1456300000"><ele>570</ele><time>2026-03-18T15:08:01Z</time></trkpt>
<trkpt lat="43.0570820000" lon="0.1456370000"><ele>570</ele><time>2026-03-18T15:08:03Z</time></trkpt>
<trkpt lat="43.0571120000" lon="0.1456420000"><ele>570</ele><time>2026-03-18T15:08:05Z</time></trkpt>
<trkpt lat="43.0571350000" lon="0.1456470000"><ele>570</ele><time>2026-03-18T15:08:07Z</time></trkpt>
<trkpt lat="43.0571620000" lon="0.1456600000"><ele>570</ele><time>2026-03-18T15:08:09Z</time></trkpt>
<trkpt lat="43.0571820000" lon="0.1456620000"><ele>570</ele><time>2026-03-18T15:08:11Z</time></trkpt>
<trkpt lat="43.0572100000" lon="0.1456570000"><ele>570</ele><time>2026-03-18T15:08:14Z</time></trkpt>
<trkpt lat="43.0572370000" lon="0.1456420000"><ele>570</ele><time>2026-03-18T15:08:16Z</time></trkpt>
<trkpt lat="43.0572570000" lon="0.1456370000"><ele>570</ele><time>2026-03-18T15:08:18Z</time></trkpt>
<trkpt lat="43.0572800000" lon="0.1456320000"><ele>570</ele><time>2026-03-18T15:08:20Z</time></trkpt>
<trkpt lat="43.0572970000" lon="0.1456370000"><ele>570</ele><time>2026-03-18T15:08:22Z</time></trkpt>
<trkpt lat="43.0573300000" lon="0.1456330000"><ele>570</ele><time>2026-03-18T15:08:24Z</time></trkpt>
<trkpt lat="43.0573570000" lon="0.1456420000"><ele>570</ele><time>2026-03-18T15:08:26Z</time></trkpt>
<trkpt lat="43.0573770000" lon="0.1456500000"><ele>570</ele><time>2026-03-18T15:08:28Z</time></trkpt>
<trkpt lat="43.0574070000" lon="0.1456430000"><ele>570</ele><time>2026-03-18T15:08:30Z</time></trkpt>
<trkpt lat="43.0574270000" lon="0.1456380000"><ele>570</ele><time>2026-03-18T15:08:31Z</time></trkpt>
<trkpt lat="43.0574470000" lon="0.1456380000"><ele>570</ele><time>2026-03-18T15:08:32Z</time></trkpt>
<trkpt lat="43.0574720000" lon="0.1456430000"><ele>570</ele><time>2026-03-18T15:08:33Z</time></trkpt>
<trkpt lat="43.0574970000" lon="0.1456520000"><ele>570</ele><time>2026-03-18T15:08:34Z</time></trkpt>
<trkpt lat="43.0575150000" lon="0.1456700000"><ele>570</ele><time>2026-03-18T15:08:35Z</time></trkpt>
<trkpt lat="43.0575220000" lon="0.1457100000"><ele>570</ele><time>2026-03-18T15:08:37Z</time></trkpt>
<trkpt lat="43.0575170000" lon="0.1457370000"><ele>570</ele><time>2026-03-18T15:08:39Z</time></trkpt>
<trkpt lat="43.0575070000" lon="0.1457720000"><ele>570</ele><time>2026-03-18T15:08:41Z</time></trkpt>
<trkpt lat="43.0575020000" lon="0.1458150000"><ele>570</ele><time>2026-03-18T15:08:43Z</time></trkpt>
<trkpt lat="43.0575100000" lon="0.1458570000"><ele>570</ele><time>2026-03-18T15:08:45Z</time></trkpt>
<trkpt lat="43.0575350000" lon="0.1458820000"><ele>570</ele><time>2026-03-18T15:08:47Z</time></trkpt>
<trkpt lat="43.0575570000" lon="0.1458920000"><ele>570</ele><time>2026-03-18T15:08:49Z</time></trkpt>
<trkpt lat="43.0575770000" lon="0.1459050000"><ele>570</ele><time>2026-03-18T15:08:51Z</time></trkpt>
<trkpt lat="43.0575970000" lon="0.1459120000"><ele>569</ele><time>2026-03-18T15:08:53Z</time></trkpt>
<trkpt lat="43.0576220000" lon="0.1459220000"><ele>569</ele><time>2026-03-18T15:08:55Z</time></trkpt>
<trkpt lat="43.0576520000" lon="0.1459370000"><ele>570</ele><time>2026-03-18T15:08:57Z</time></trkpt>
<trkpt lat="43.0576720000" lon="0.1459420000"><ele>570</ele><time>2026-03-18T15:08:58Z</time></trkpt>
<trkpt lat="43.0576920000" lon="0.1459500000"><ele>570</ele><time>2026-03-18T15:08:59Z</time></trkpt>
<trkpt lat="43.0577100000" lon="0.1459570000"><ele>570</ele><time>2026-03-18T15:09:00Z</time></trkpt>
<trkpt lat="43.0577420000" lon="0.1459620000"><ele>569</ele><time>2026-03-18T15:09:02Z</time></trkpt>
<trkpt lat="43.0577620000" lon="0.1459650000"><ele>569</ele><time>2026-03-18T15:09:03Z</time></trkpt>
<trkpt lat="43.0577920000" lon="0.1459750000"><ele>569</ele><time>2026-03-18T15:09:05Z</time></trkpt>
<trkpt lat="43.0578220000" lon="0.1459800000"><ele>570</ele><time>2026-03-18T15:09:07Z</time></trkpt>
<trkpt lat="43.0578370000" lon="0.1460020000"><ele>569</ele><time>2026-03-18T15:09:12Z</time></trkpt>
<trkpt lat="43.0578570000" lon="0.1460100000"><ele>570</ele><time>2026-03-18T15:09:14Z</time></trkpt>
<trkpt lat="43.0578800000" lon="0.1460220000"><ele>569</ele><time>2026-03-18T15:09:16Z</time></trkpt>
<trkpt lat="43.0578970000" lon="0.1460370000"><ele>569</ele><time>2026-03-18T15:09:18Z</time></trkpt>
<trkpt lat="43.0579170000" lon="0.1460520000"><ele>569</ele><time>2026-03-18T15:09:20Z</time></trkpt>
<trkpt lat="43.0579370000" lon="0.1460780000"><ele>569</ele><time>2026-03-18T15:09:22Z</time></trkpt>
<trkpt lat="43.0579620000" lon="0.1461070000"><ele>569</ele><time>2026-03-18T15:09:24Z</time></trkpt>
<trkpt lat="43.0579800000" lon="0.1461270000"><ele>569</ele><time>2026-03-18T15:09:26Z</time></trkpt>
<trkpt lat="43.0580000000" lon="0.1461470000"><ele>569</ele><time>2026-03-18T15:09:28Z</time></trkpt>
<trkpt lat="43.0580200000" lon="0.1461730000"><ele>568</ele><time>2026-03-18T15:09:30Z</time></trkpt>
<trkpt lat="43.0580450000" lon="0.1462100000"><ele>568</ele><time>2026-03-18T15:09:32Z</time></trkpt>
<trkpt lat="43.0580670000" lon="0.1462370000"><ele>568</ele><time>2026-03-18T15:09:34Z</time></trkpt>
<trkpt lat="43.0580950000" lon="0.1462570000"><ele>568</ele><time>2026-03-18T15:09:36Z</time></trkpt>
<trkpt lat="43.0581220000" lon="0.1462770000"><ele>568</ele><time>2026-03-18T15:09:38Z</time></trkpt>
<trkpt lat="43.0581420000" lon="0.1463020000"><ele>568</ele><time>2026-03-18T15:09:40Z</time></trkpt>
<trkpt lat="43.0581650000" lon="0.1463280000"><ele>568</ele><time>2026-03-18T15:09:42Z</time></trkpt>
<trkpt lat="43.0581770000" lon="0.1463550000"><ele>568</ele><time>2026-03-18T15:09:44Z</time></trkpt>
<trkpt lat="43.0581970000" lon="0.1463770000"><ele>568</ele><time>2026-03-18T15:09:46Z</time></trkpt>
<trkpt lat="43.0582120000" lon="0.1463970000"><ele>568</ele><time>2026-03-18T15:09:48Z</time></trkpt>
<trkpt lat="43.0582300000" lon="0.1464200000"><ele>568</ele><time>2026-03-18T15:09:50Z</time></trkpt>
<trkpt lat="43.0582450000" lon="0.1464470000"><ele>568</ele><time>2026-03-18T15:09:52Z</time></trkpt>
<trkpt lat="43.0582620000" lon="0.1464680000"><ele>568</ele><time>2026-03-18T15:09:54Z</time></trkpt>
<trkpt lat="43.0582770000" lon="0.1464920000"><ele>568</ele><time>2026-03-18T15:09:56Z</time></trkpt>
<trkpt lat="43.0582850000" lon="0.1465270000"><ele>568</ele><time>2026-03-18T15:09:58Z</time></trkpt>
<trkpt lat="43.0582970000" lon="0.1465550000"><ele>568</ele><time>2026-03-18T15:10:00Z</time></trkpt>
<trkpt lat="43.0583050000" lon="0.1465770000"><ele>568</ele><time>2026-03-18T15:10:02Z</time></trkpt>
<trkpt lat="43.0583220000" lon="0.1465920000"><ele>568</ele><time>2026-03-18T15:10:06Z</time></trkpt>
<trkpt lat="43.0583300000" lon="0.1466200000"><ele>567</ele><time>2026-03-18T15:10:08Z</time></trkpt>
<trkpt lat="43.0583620000" lon="0.1466250000"><ele>568</ele><time>2026-03-18T15:10:10Z</time></trkpt>
<trkpt lat="43.0583850000" lon="0.1466200000"><ele>568</ele><time>2026-03-18T15:10:11Z</time></trkpt>
<trkpt lat="43.0584220000" lon="0.1466270000"><ele>568</ele><time>2026-03-18T15:10:13Z</time></trkpt>
<trkpt lat="43.0584470000" lon="0.1466470000"><ele>567</ele><time>2026-03-18T15:10:15Z</time></trkpt>
<trkpt lat="43.0584700000" lon="0.1466870000"><ele>567</ele><time>2026-03-18T15:10:17Z</time></trkpt>
<trkpt lat="43.0584770000" lon="0.1467100000"><ele>567</ele><time>2026-03-18T15:10:18Z</time></trkpt>
<trkpt lat="43.0584950000" lon="0.1467320000"><ele>567</ele><time>2026-03-18T15:10:20Z</time></trkpt>
<trkpt lat="43.0585050000" lon="0.1467620000"><ele>567</ele><time>2026-03-18T15:10:22Z</time></trkpt>
<trkpt lat="43.0585250000" lon="0.1467850000"><ele>567</ele><time>2026-03-18T15:10:25Z</time></trkpt>
<trkpt lat="43.0585550000" lon="0.1467800000"><ele>567</ele><time>2026-03-18T15:10:28Z</time></trkpt>
<trkpt lat="43.0585800000" lon="0.1467870000"><ele>567</ele><time>2026-03-18T15:10:30Z</time></trkpt>
<trkpt lat="43.0586020000" lon="0.1467970000"><ele>566</ele><time>2026-03-18T15:10:32Z</time></trkpt>
<trkpt lat="43.0586220000" lon="0.1467970000"><ele>566</ele><time>2026-03-18T15:10:34Z</time></trkpt>
<trkpt lat="43.0586470000" lon="0.1468170000"><ele>566</ele><time>2026-03-18T15:10:36Z</time></trkpt>
<trkpt lat="43.0586670000" lon="0.1468320000"><ele>566</ele><time>2026-03-18T15:10:38Z</time></trkpt>
<trkpt lat="43.0586970000" lon="0.1468520000"><ele>566</ele><time>2026-03-18T15:10:40Z</time></trkpt>
<trkpt lat="43.0587220000" lon="0.1468720000"><ele>566</ele><time>2026-03-18T15:10:42Z</time></trkpt>
<trkpt lat="43.0587420000" lon="0.1468920000"><ele>565</ele><time>2026-03-18T15:10:44Z</time></trkpt>
<trkpt lat="43.0587650000" lon="0.1469120000"><ele>565</ele><time>2026-03-18T15:10:46Z</time></trkpt>
<trkpt lat="43.0587820000" lon="0.1469300000"><ele>565</ele><time>2026-03-18T15:10:48Z</time></trkpt>
<trkpt lat="43.0588020000" lon="0.1469520000"><ele>565</ele><time>2026-03-18T15:10:50Z</time></trkpt>
<trkpt lat="43.0588170000" lon="0.1469770000"><ele>565</ele><time>2026-03-18T15:10:52Z</time></trkpt>
<trkpt lat="43.0588320000" lon="0.1470020000"><ele>565</ele><time>2026-03-18T15:10:54Z</time></trkpt>
<trkpt lat="43.0588420000" lon="0.1470230000"><ele>565</ele><time>2026-03-18T15:10:56Z</time></trkpt>
<trkpt lat="43.0588570000" lon="0.1470450000"><ele>565</ele><time>2026-03-18T15:10:58Z</time></trkpt>
<trkpt lat="43.0588620000" lon="0.1470700000"><ele>565</ele><time>2026-03-18T15:11:00Z</time></trkpt>
<trkpt lat="43.0588770000" lon="0.1470870000"><ele>564</ele><time>2026-03-18T15:11:05Z</time></trkpt>
<trkpt lat="43.0588570000" lon="0.1471050000"><ele>564</ele><time>2026-03-18T15:11:20Z</time></trkpt>
<trkpt lat="43.0588770000" lon="0.1471250000"><ele>564</ele><time>2026-03-18T15:11:25Z</time></trkpt>
<trkpt lat="43.0588950000" lon="0.1471330000"><ele>564</ele><time>2026-03-18T15:11:27Z</time></trkpt>
<trkpt lat="43.0589150000" lon="0.1471520000"><ele>564</ele><time>2026-03-18T15:11:54Z</time></trkpt>
<trkpt lat="43.0589320000" lon="0.1471420000"><ele>564</ele><time>2026-03-18T15:12:06Z</time></trkpt>
<trkpt lat="43.0589600000" lon="0.1471370000"><ele>564</ele><time>2026-03-18T15:12:09Z</time></trkpt>
<trkpt lat="43.0589850000" lon="0.1471320000"><ele>564</ele><time>2026-03-18T15:12:11Z</time></trkpt>
<trkpt lat="43.0590070000" lon="0.1471300000"><ele>564</ele><time>2026-03-18T15:12:13Z</time></trkpt>
<trkpt lat="43.0590320000" lon="0.1471320000"><ele>564</ele><time>2026-03-18T15:12:15Z</time></trkpt>
<trkpt lat="43.0590550000" lon="0.1471320000"><ele>564</ele><time>2026-03-18T15:12:17Z</time></trkpt>
<trkpt lat="43.0590720000" lon="0.1471300000"><ele>564</ele><time>2026-03-18T15:12:21Z</time></trkpt>
<trkpt lat="43.0590920000" lon="0.1471170000"><ele>564</ele><time>2026-03-18T15:12:24Z</time></trkpt>
<trkpt lat="43.0591100000" lon="0.1471050000"><ele>564</ele><time>2026-03-18T15:12:26Z</time></trkpt>
<trkpt lat="43.0591300000" lon="0.1470870000"><ele>564</ele><time>2026-03-18T15:12:28Z</time></trkpt>
<trkpt lat="43.0591450000" lon="0.1470670000"><ele>565</ele><time>2026-03-18T15:12:30Z</time></trkpt>
<trkpt lat="43.0591570000" lon="0.1470420000"><ele>565</ele><time>2026-03-18T15:12:32Z</time></trkpt>
<trkpt lat="43.0591750000" lon="0.1470170000"><ele>565</ele><time>2026-03-18T15:12:34Z</time></trkpt>
<trkpt lat="43.0591920000" lon="0.1469800000"><ele>565</ele><time>2026-03-18T15:12:36Z</time></trkpt>
<trkpt lat="43.0592070000" lon="0.1469450000"><ele>565</ele><time>2026-03-18T15:12:38Z</time></trkpt>
<trkpt lat="43.0592220000" lon="0.1469220000"><ele>565</ele><time>2026-03-18T15:12:40Z</time></trkpt>
<trkpt lat="43.0592370000" lon="0.1469070000"><ele>565</ele><time>2026-03-18T15:12:44Z</time></trkpt>
<trkpt lat="43.0592520000" lon="0.1468770000"><ele>566</ele><time>2026-03-18T15:12:47Z</time></trkpt>
<trkpt lat="43.0592670000" lon="0.1468570000"><ele>566</ele><time>2026-03-18T15:12:49Z</time></trkpt>
<trkpt lat="43.0592820000" lon="0.1468370000"><ele>566</ele><time>2026-03-18T15:12:51Z</time></trkpt>
<trkpt lat="43.0592970000" lon="0.1468170000"><ele>566</ele><time>2026-03-18T15:12:53Z</time></trkpt>
<trkpt lat="43.0593120000" lon="0.1468000000"><ele>566</ele><time>2026-03-18T15:12:55Z</time></trkpt>
<trkpt lat="43.0593220000" lon="0.1467720000"><ele>567</ele><time>2026-03-18T15:12:57Z</time></trkpt>
<trkpt lat="43.0593370000" lon="0.1467530000"><ele>567</ele><time>2026-03-18T15:12:59Z</time></trkpt>
<trkpt lat="43.0593520000" lon="0.1467370000"><ele>567</ele><time>2026-03-18T15:13:01Z</time></trkpt>
<trkpt lat="43.0593620000" lon="0.1467150000"><ele>567</ele><time>2026-03-18T15:13:03Z</time></trkpt>
<trkpt lat="43.0593770000" lon="0.1466920000"><ele>567</ele><time>2026-03-18T15:13:05Z</time></trkpt>
<trkpt lat="43.0593920000" lon="0.1466720000"><ele>567</ele><time>2026-03-18T15:13:07Z</time></trkpt>
<trkpt lat="43.0594070000" lon="0.1466420000"><ele>567</ele><time>2026-03-18T15:13:09Z</time></trkpt>
<trkpt lat="43.0594220000" lon="0.1466130000"><ele>568</ele><time>2026-03-18T15:13:11Z</time></trkpt>
<trkpt lat="43.0594370000" lon="0.1465970000"><ele>568</ele><time>2026-03-18T15:13:13Z</time></trkpt>
<trkpt lat="43.0594480000" lon="0.1465700000"><ele>568</ele><time>2026-03-18T15:13:15Z</time></trkpt>
<trkpt lat="43.0594670000" lon="0.1465470000"><ele>568</ele><time>2026-03-18T15:13:17Z</time></trkpt>
<trkpt lat="43.0594820000" lon="0.1465270000"><ele>568</ele><time>2026-03-18T15:13:19Z</time></trkpt>
<trkpt lat="43.0594920000" lon="0.1464930000"><ele>569</ele><time>2026-03-18T15:13:22Z</time></trkpt>
<trkpt lat="43.0595150000" lon="0.1464680000"><ele>569</ele><time>2026-03-18T15:13:25Z</time></trkpt>
<trkpt lat="43.0595370000" lon="0.1464550000"><ele>569</ele><time>2026-03-18T15:13:27Z</time></trkpt>
<trkpt lat="43.0595570000" lon="0.1464420000"><ele>569</ele><time>2026-03-18T15:13:29Z</time></trkpt>
<trkpt lat="43.0595800000" lon="0.1464350000"><ele>570</ele><time>2026-03-18T15:13:31Z</time></trkpt>
<trkpt lat="43.0596020000" lon="0.1464370000"><ele>570</ele><time>2026-03-18T15:13:33Z</time></trkpt>
<trkpt lat="43.0596120000" lon="0.1464100000"><ele>570</ele><time>2026-03-18T15:13:35Z</time></trkpt>
<trkpt lat="43.0596120000" lon="0.1463750000"><ele>570</ele><time>2026-03-18T15:13:38Z</time></trkpt>
<trkpt lat="43.0596320000" lon="0.1463580000"><ele>570</ele><time>2026-03-18T15:13:41Z</time></trkpt>
<trkpt lat="43.0596670000" lon="0.1463520000"><ele>570</ele><time>2026-03-18T15:13:43Z</time></trkpt>
<trkpt lat="43.0596870000" lon="0.1463420000"><ele>571</ele><time>2026-03-18T15:13:45Z</time></trkpt>
<trkpt lat="43.0596950000" lon="0.1463080000"><ele>571</ele><time>2026-03-18T15:13:47Z</time></trkpt>
<trkpt lat="43.0596970000" lon="0.1462850000"><ele>571</ele><time>2026-03-18T15:13:48Z</time></trkpt>
<trkpt lat="43.0596920000" lon="0.1462600000"><ele>571</ele><time>2026-03-18T15:13:49Z</time></trkpt>
<trkpt lat="43.0596950000" lon="0.1462150000"><ele>571</ele><time>2026-03-18T15:13:51Z</time></trkpt>
<trkpt lat="43.0597020000" lon="0.1461880000"><ele>571</ele><time>2026-03-18T15:13:53Z</time></trkpt>
<trkpt lat="43.0597070000" lon="0.1461620000"><ele>571</ele><time>2026-03-18T15:13:55Z</time></trkpt>
<trkpt lat="43.0597200000" lon="0.1461320000"><ele>571</ele><time>2026-03-18T15:13:57Z</time></trkpt>
<trkpt lat="43.0597300000" lon="0.1460920000"><ele>571</ele><time>2026-03-18T15:13:59Z</time></trkpt>
<trkpt lat="43.0597370000" lon="0.1460620000"><ele>571</ele><time>2026-03-18T15:14:01Z</time></trkpt>
<trkpt lat="43.0597370000" lon="0.1460320000"><ele>571</ele><time>2026-03-18T15:14:03Z</time></trkpt>
<trkpt lat="43.0597450000" lon="0.1460070000"><ele>571</ele><time>2026-03-18T15:14:05Z</time></trkpt>
<trkpt lat="43.0597520000" lon="0.1459820000"><ele>572</ele><time>2026-03-18T15:14:07Z</time></trkpt>
<trkpt lat="43.0597570000" lon="0.1459570000"><ele>572</ele><time>2026-03-18T15:14:09Z</time></trkpt>
<trkpt lat="43.0597720000" lon="0.1459170000"><ele>572</ele><time>2026-03-18T15:14:12Z</time></trkpt>
<trkpt lat="43.0597820000" lon="0.1458830000"><ele>572</ele><time>2026-03-18T15:14:14Z</time></trkpt>
<trkpt lat="43.0597900000" lon="0.1458500000"><ele>572</ele><time>2026-03-18T15:14:16Z</time></trkpt>
<trkpt lat="43.0598000000" lon="0.1458220000"><ele>572</ele><time>2026-03-18T15:14:18Z</time></trkpt>
<trkpt lat="43.0598070000" lon="0.1457920000"><ele>572</ele><time>2026-03-18T15:14:20Z</time></trkpt>
<trkpt lat="43.0598200000" lon="0.1457700000"><ele>572</ele><time>2026-03-18T15:14:22Z</time></trkpt>
<trkpt lat="43.0598270000" lon="0.1457450000"><ele>572</ele><time>2026-03-18T15:14:24Z</time></trkpt>
<trkpt lat="43.0598280000" lon="0.1457170000"><ele>572</ele><time>2026-03-18T15:14:26Z</time></trkpt>
<trkpt lat="43.0598150000" lon="0.1457020000"><ele>572</ele><time>2026-03-18T15:14:29Z</time></trkpt>
<trkpt lat="43.0597950000" lon="0.1456920000"><ele>572</ele><time>2026-03-18T15:14:32Z</time></trkpt>
</trkseg>
</trk>
</gpx>